<?xml version="1.0" encoding="UTF-8" standalone="no" ?>
<gpx xmlns="http://www.topografix.com/GPX/1/1" xmlns:xsi="http://www.w3.org/2001/XMLSchema-instance" xsi:schemaLocation="http://www.topografix.com/GPX/1/1 http://www.topografix.com/GPX/1/1/gpx.xsd" version="1.1" creator="VisuGPX - https://www.visugpx.com">
  <metadata>
    <name>Roc d'Azur 2016</name>
  </metadata>
  <trk>
    <name><![CDATA[Roc d'Azur]]></name>
    <trkseg>
      <trkpt lat="43.41232" lon="6.78255">
        <ele>1</ele>
        <time>2016-10-09T07:53:46Z</time>
      </trkpt>
      <trkpt lat="43.41237" lon="6.78253">
        <ele>1</ele>
        <time>2016-10-09T07:53:48Z</time>
      </trkpt>
      <trkpt lat="43.41244" lon="6.78246">
        <ele>0.7</ele>
        <time>2016-10-09T07:53:50Z</time>
      </trkpt>
      <trkpt lat="43.41249" lon="6.78244">
        <ele>0.6</ele>
        <time>2016-10-09T07:53:52Z</time>
      </trkpt>
      <trkpt lat="43.41254" lon="6.78242">
        <ele>0.3</ele>
        <time>2016-10-09T07:53:54Z</time>
      </trkpt>
      <trkpt lat="43.41259" lon="6.78239">
        <ele>0.1</ele>
        <time>2016-10-09T07:53:56Z</time>
      </trkpt>
      <trkpt lat="43.41264" lon="6.78235">
        <ele>1.5</ele>
        <time>2016-10-09T07:53:58Z</time>
      </trkpt>
      <trkpt lat="43.4127" lon="6.7823">
        <ele>1.4</ele>
        <time>2016-10-09T07:54:00Z</time>
      </trkpt>
      <trkpt lat="43.41275" lon="6.78225">
        <ele>0.1</ele>
        <time>2016-10-09T07:54:02Z</time>
      </trkpt>
      <trkpt lat="43.4128" lon="6.7822">
        <ele>0.2</ele>
        <time>2016-10-09T07:54:04Z</time>
      </trkpt>
      <trkpt lat="43.41285" lon="6.78215">
        <ele>0.2</ele>
        <time>2016-10-09T07:54:06Z</time>
      </trkpt>
      <trkpt lat="43.4129" lon="6.78209">
        <ele>0.5</ele>
        <time>2016-10-09T07:54:08Z</time>
      </trkpt>
      <trkpt lat="43.41295" lon="6.78204">
        <ele>0.8</ele>
        <time>2016-10-09T07:54:10Z</time>
      </trkpt>
      <trkpt lat="43.41299" lon="6.78198">
        <ele>1</ele>
        <time>2016-10-09T07:54:12Z</time>
      </trkpt>
      <trkpt lat="43.41304" lon="6.78193">
        <ele>1</ele>
        <time>2016-10-09T07:54:14Z</time>
      </trkpt>
      <trkpt lat="43.41309" lon="6.78193">
        <ele>1</ele>
        <time>2016-10-09T07:54:16Z</time>
      </trkpt>
      <trkpt lat="43.41313" lon="6.78195">
        <ele>1</ele>
        <time>2016-10-09T07:54:18Z</time>
      </trkpt>
      <trkpt lat="43.41316" lon="6.78196">
        <ele>1</ele>
        <time>2016-10-09T07:54:20Z</time>
      </trkpt>
      <trkpt lat="43.41312" lon="6.78191">
        <ele>1</ele>
        <time>2016-10-09T08:06:26Z</time>
      </trkpt>
      <trkpt lat="43.41301" lon="6.78187">
        <ele>1</ele>
        <time>2016-10-09T08:06:28Z</time>
      </trkpt>
      <trkpt lat="43.41297" lon="6.7819">
        <ele>1</ele>
        <time>2016-10-09T08:06:30Z</time>
      </trkpt>
      <trkpt lat="43.41293" lon="6.78194">
        <ele>1</ele>
        <time>2016-10-09T08:06:32Z</time>
      </trkpt>
      <trkpt lat="43.41288" lon="6.782">
        <ele>1</ele>
        <time>2016-10-09T08:06:34Z</time>
      </trkpt>
      <trkpt lat="43.41283" lon="6.78203">
        <ele>1</ele>
        <time>2016-10-09T08:06:36Z</time>
      </trkpt>
      <trkpt lat="43.41282" lon="6.78196">
        <ele>1</ele>
        <time>2016-10-09T08:06:38Z</time>
      </trkpt>
      <trkpt lat="43.41285" lon="6.7819">
        <ele>1</ele>
        <time>2016-10-09T08:06:40Z</time>
      </trkpt>
      <trkpt lat="43.41283" lon="6.78184">
        <ele>1</ele>
        <time>2016-10-09T08:06:42Z</time>
      </trkpt>
      <trkpt lat="43.41281" lon="6.78176">
        <ele>1.4</ele>
        <time>2016-10-09T08:06:44Z</time>
      </trkpt>
      <trkpt lat="43.41279" lon="6.78167">
        <ele>1.5</ele>
        <time>2016-10-09T08:06:46Z</time>
      </trkpt>
      <trkpt lat="43.41278" lon="6.78158">
        <ele>1.8</ele>
        <time>2016-10-09T08:06:48Z</time>
      </trkpt>
      <trkpt lat="43.41277" lon="6.78149">
        <ele>1.6</ele>
        <time>2016-10-09T08:06:50Z</time>
      </trkpt>
      <trkpt lat="43.41276" lon="6.7814">
        <ele>1.5</ele>
        <time>2016-10-09T08:06:52Z</time>
      </trkpt>
      <trkpt lat="43.41275" lon="6.78131">
        <ele>0.9</ele>
        <time>2016-10-09T08:06:54Z</time>
      </trkpt>
      <trkpt lat="43.41274" lon="6.78122">
        <ele>0.7</ele>
        <time>2016-10-09T08:06:56Z</time>
      </trkpt>
      <trkpt lat="43.41272" lon="6.78114">
        <ele>0.6</ele>
        <time>2016-10-09T08:06:58Z</time>
      </trkpt>
      <trkpt lat="43.41271" lon="6.78106">
        <ele>0.2</ele>
        <time>2016-10-09T08:07:00Z</time>
      </trkpt>
      <trkpt lat="43.41269" lon="6.78097">
        <ele>1</ele>
        <time>2016-10-09T08:07:02Z</time>
      </trkpt>
      <trkpt lat="43.41269" lon="6.78089">
        <ele>-0.2</ele>
        <time>2016-10-09T08:07:04Z</time>
      </trkpt>
      <trkpt lat="43.41274" lon="6.78083">
        <ele>-0.3</ele>
        <time>2016-10-09T08:07:06Z</time>
      </trkpt>
      <trkpt lat="43.4128" lon="6.7808">
        <ele>0.1</ele>
        <time>2016-10-09T08:07:08Z</time>
      </trkpt>
      <trkpt lat="43.41287" lon="6.78078">
        <ele>0.3</ele>
        <time>2016-10-09T08:07:10Z</time>
      </trkpt>
      <trkpt lat="43.41293" lon="6.78076">
        <ele>0.6</ele>
        <time>2016-10-09T08:07:12Z</time>
      </trkpt>
      <trkpt lat="43.41299" lon="6.78072">
        <ele>0.7</ele>
        <time>2016-10-09T08:07:14Z</time>
      </trkpt>
      <trkpt lat="43.41303" lon="6.78064">
        <ele>0.5</ele>
        <time>2016-10-09T08:07:16Z</time>
      </trkpt>
      <trkpt lat="43.41307" lon="6.78057">
        <ele>0.5</ele>
        <time>2016-10-09T08:07:18Z</time>
      </trkpt>
      <trkpt lat="43.41312" lon="6.78049">
        <ele>0.4</ele>
        <time>2016-10-09T08:07:20Z</time>
      </trkpt>
      <trkpt lat="43.41317" lon="6.78042">
        <ele>0.4</ele>
        <time>2016-10-09T08:07:22Z</time>
      </trkpt>
      <trkpt lat="43.41321" lon="6.78035">
        <ele>1</ele>
        <time>2016-10-09T08:07:24Z</time>
      </trkpt>
      <trkpt lat="43.41326" lon="6.78028">
        <ele>-0.4</ele>
        <time>2016-10-09T08:07:26Z</time>
      </trkpt>
      <trkpt lat="43.4133" lon="6.78021">
        <ele>-0.6</ele>
        <time>2016-10-09T08:07:28Z</time>
      </trkpt>
      <trkpt lat="43.41335" lon="6.78015">
        <ele>-0.8</ele>
        <time>2016-10-09T08:07:30Z</time>
      </trkpt>
      <trkpt lat="43.41339" lon="6.78011">
        <ele>-0.9</ele>
        <time>2016-10-09T08:07:32Z</time>
      </trkpt>
      <trkpt lat="43.41345" lon="6.78009">
        <ele>-0.8</ele>
        <time>2016-10-09T08:07:34Z</time>
      </trkpt>
      <trkpt lat="43.41351" lon="6.78008">
        <ele>-0.8</ele>
        <time>2016-10-09T08:07:36Z</time>
      </trkpt>
      <trkpt lat="43.41357" lon="6.78006">
        <ele>-0.9</ele>
        <time>2016-10-09T08:07:38Z</time>
      </trkpt>
      <trkpt lat="43.41364" lon="6.78006">
        <ele>-0.7</ele>
        <time>2016-10-09T08:07:40Z</time>
      </trkpt>
      <trkpt lat="43.4137" lon="6.78004">
        <ele>-0.5</ele>
        <time>2016-10-09T08:07:42Z</time>
      </trkpt>
      <trkpt lat="43.41377" lon="6.78003">
        <ele>-0.2</ele>
        <time>2016-10-09T08:07:44Z</time>
      </trkpt>
      <trkpt lat="43.41383" lon="6.78002">
        <ele>1</ele>
        <time>2016-10-09T08:07:46Z</time>
      </trkpt>
      <trkpt lat="43.41389" lon="6.77997">
        <ele>0.3</ele>
        <time>2016-10-09T08:07:48Z</time>
      </trkpt>
      <trkpt lat="43.41389" lon="6.77989">
        <ele>0.3</ele>
        <time>2016-10-09T08:07:50Z</time>
      </trkpt>
      <trkpt lat="43.41388" lon="6.77981">
        <ele>0.4</ele>
        <time>2016-10-09T08:07:52Z</time>
      </trkpt>
      <trkpt lat="43.41388" lon="6.77971">
        <ele>0.6</ele>
        <time>2016-10-09T08:07:54Z</time>
      </trkpt>
      <trkpt lat="43.41388" lon="6.77962">
        <ele>0.9</ele>
        <time>2016-10-09T08:07:56Z</time>
      </trkpt>
      <trkpt lat="43.41387" lon="6.77953">
        <ele>1.3</ele>
        <time>2016-10-09T08:07:58Z</time>
      </trkpt>
      <trkpt lat="43.41387" lon="6.77944">
        <ele>1.6</ele>
        <time>2016-10-09T08:08:00Z</time>
      </trkpt>
      <trkpt lat="43.41387" lon="6.77934">
        <ele>1.8</ele>
        <time>2016-10-09T08:08:02Z</time>
      </trkpt>
      <trkpt lat="43.41389" lon="6.77925">
        <ele>1.9</ele>
        <time>2016-10-09T08:08:04Z</time>
      </trkpt>
      <trkpt lat="43.41393" lon="6.77917">
        <ele>1.9</ele>
        <time>2016-10-09T08:08:06Z</time>
      </trkpt>
      <trkpt lat="43.41398" lon="6.7791">
        <ele>2</ele>
        <time>2016-10-09T08:08:08Z</time>
      </trkpt>
      <trkpt lat="43.41402" lon="6.77902">
        <ele>2.1</ele>
        <time>2016-10-09T08:08:10Z</time>
      </trkpt>
      <trkpt lat="43.41407" lon="6.77895">
        <ele>2.1</ele>
        <time>2016-10-09T08:08:12Z</time>
      </trkpt>
      <trkpt lat="43.41411" lon="6.77887">
        <ele>2.2</ele>
        <time>2016-10-09T08:08:14Z</time>
      </trkpt>
      <trkpt lat="43.41415" lon="6.7788">
        <ele>2</ele>
        <time>2016-10-09T08:08:16Z</time>
      </trkpt>
      <trkpt lat="43.41419" lon="6.77872">
        <ele>1.6</ele>
        <time>2016-10-09T08:08:18Z</time>
      </trkpt>
      <trkpt lat="43.41423" lon="6.77865">
        <ele>1.3</ele>
        <time>2016-10-09T08:08:20Z</time>
      </trkpt>
      <trkpt lat="43.41428" lon="6.77857">
        <ele>1.3</ele>
        <time>2016-10-09T08:08:22Z</time>
      </trkpt>
      <trkpt lat="43.41432" lon="6.7785">
        <ele>1.4</ele>
        <time>2016-10-09T08:08:24Z</time>
      </trkpt>
      <trkpt lat="43.41436" lon="6.77843">
        <ele>1.6</ele>
        <time>2016-10-09T08:08:26Z</time>
      </trkpt>
      <trkpt lat="43.41441" lon="6.77835">
        <ele>1.6</ele>
        <time>2016-10-09T08:08:28Z</time>
      </trkpt>
      <trkpt lat="43.41445" lon="6.77828">
        <ele>1.7</ele>
        <time>2016-10-09T08:08:30Z</time>
      </trkpt>
      <trkpt lat="43.41449" lon="6.77822">
        <ele>1.7</ele>
        <time>2016-10-09T08:08:32Z</time>
      </trkpt>
      <trkpt lat="43.41454" lon="6.77816">
        <ele>1.7</ele>
        <time>2016-10-09T08:08:34Z</time>
      </trkpt>
      <trkpt lat="43.4146" lon="6.77818">
        <ele>1.8</ele>
        <time>2016-10-09T08:08:36Z</time>
      </trkpt>
      <trkpt lat="43.41465" lon="6.77822">
        <ele>1.8</ele>
        <time>2016-10-09T08:08:38Z</time>
      </trkpt>
      <trkpt lat="43.41471" lon="6.77827">
        <ele>1.9</ele>
        <time>2016-10-09T08:08:40Z</time>
      </trkpt>
      <trkpt lat="43.41476" lon="6.77833">
        <ele>2.1</ele>
        <time>2016-10-09T08:08:42Z</time>
      </trkpt>
      <trkpt lat="43.41481" lon="6.77838">
        <ele>2.4</ele>
        <time>2016-10-09T08:08:44Z</time>
      </trkpt>
      <trkpt lat="43.41487" lon="6.77835">
        <ele>2.5</ele>
        <time>2016-10-09T08:08:46Z</time>
      </trkpt>
      <trkpt lat="43.41491" lon="6.77828">
        <ele>2.4</ele>
        <time>2016-10-09T08:08:48Z</time>
      </trkpt>
      <trkpt lat="43.41496" lon="6.77821">
        <ele>2.2</ele>
        <time>2016-10-09T08:08:50Z</time>
      </trkpt>
      <trkpt lat="43.41501" lon="6.77812">
        <ele>2</ele>
        <time>2016-10-09T08:08:52Z</time>
      </trkpt>
      <trkpt lat="43.41505" lon="6.77804">
        <ele>1.9</ele>
        <time>2016-10-09T08:08:54Z</time>
      </trkpt>
      <trkpt lat="43.4151" lon="6.77796">
        <ele>1.7</ele>
        <time>2016-10-09T08:08:56Z</time>
      </trkpt>
      <trkpt lat="43.41515" lon="6.77787">
        <ele>1.4</ele>
        <time>2016-10-09T08:08:58Z</time>
      </trkpt>
      <trkpt lat="43.4152" lon="6.77778">
        <ele>1</ele>
        <time>2016-10-09T08:09:00Z</time>
      </trkpt>
      <trkpt lat="43.41525" lon="6.77768">
        <ele>0.7</ele>
        <time>2016-10-09T08:09:02Z</time>
      </trkpt>
      <trkpt lat="43.41531" lon="6.77758">
        <ele>0.5</ele>
        <time>2016-10-09T08:09:04Z</time>
      </trkpt>
      <trkpt lat="43.41536" lon="6.77748">
        <ele>0.1</ele>
        <time>2016-10-09T08:09:06Z</time>
      </trkpt>
      <trkpt lat="43.41541" lon="6.77738">
        <ele>-0.2</ele>
        <time>2016-10-09T08:09:08Z</time>
      </trkpt>
      <trkpt lat="43.41546" lon="6.77728">
        <ele>-0.4</ele>
        <time>2016-10-09T08:09:10Z</time>
      </trkpt>
      <trkpt lat="43.41551" lon="6.77719">
        <ele>-0.5</ele>
        <time>2016-10-09T08:09:12Z</time>
      </trkpt>
      <trkpt lat="43.41556" lon="6.7771">
        <ele>-0.7</ele>
        <time>2016-10-09T08:09:14Z</time>
      </trkpt>
      <trkpt lat="43.41561" lon="6.777">
        <ele>-0.9</ele>
        <time>2016-10-09T08:09:16Z</time>
      </trkpt>
      <trkpt lat="43.41566" lon="6.77692">
        <ele>-0.8</ele>
        <time>2016-10-09T08:09:18Z</time>
      </trkpt>
      <trkpt lat="43.41571" lon="6.77684">
        <ele>-0.8</ele>
        <time>2016-10-09T08:09:20Z</time>
      </trkpt>
      <trkpt lat="43.41575" lon="6.77675">
        <ele>-0.7</ele>
        <time>2016-10-09T08:09:22Z</time>
      </trkpt>
      <trkpt lat="43.41579" lon="6.77667">
        <ele>-0.7</ele>
        <time>2016-10-09T08:09:24Z</time>
      </trkpt>
      <trkpt lat="43.41584" lon="6.77659">
        <ele>-0.6</ele>
        <time>2016-10-09T08:09:26Z</time>
      </trkpt>
      <trkpt lat="43.41589" lon="6.7765">
        <ele>-0.6</ele>
        <time>2016-10-09T08:09:28Z</time>
      </trkpt>
      <trkpt lat="43.41594" lon="6.77642">
        <ele>-0.5</ele>
        <time>2016-10-09T08:09:30Z</time>
      </trkpt>
      <trkpt lat="43.41601" lon="6.7764">
        <ele>-0.5</ele>
        <time>2016-10-09T08:09:32Z</time>
      </trkpt>
      <trkpt lat="43.41608" lon="6.77636">
        <ele>-0.4</ele>
        <time>2016-10-09T08:09:34Z</time>
      </trkpt>
      <trkpt lat="43.41614" lon="6.7763">
        <ele>-0.3</ele>
        <time>2016-10-09T08:09:36Z</time>
      </trkpt>
      <trkpt lat="43.41621" lon="6.77624">
        <ele>-0.2</ele>
        <time>2016-10-09T08:09:38Z</time>
      </trkpt>
      <trkpt lat="43.41629" lon="6.7762">
        <ele>-0.2</ele>
        <time>2016-10-09T08:09:40Z</time>
      </trkpt>
      <trkpt lat="43.41637" lon="6.77619">
        <ele>-0.1</ele>
        <time>2016-10-09T08:09:42Z</time>
      </trkpt>
      <trkpt lat="43.41644" lon="6.77616">
        <ele>1.4</ele>
        <time>2016-10-09T08:09:44Z</time>
      </trkpt>
      <trkpt lat="43.41651" lon="6.77612">
        <ele>1.5</ele>
        <time>2016-10-09T08:09:46Z</time>
      </trkpt>
      <trkpt lat="43.41657" lon="6.77608">
        <ele>1.6</ele>
        <time>2016-10-09T08:09:48Z</time>
      </trkpt>
      <trkpt lat="43.41663" lon="6.77603">
        <ele>1.9</ele>
        <time>2016-10-09T08:09:50Z</time>
      </trkpt>
      <trkpt lat="43.4167" lon="6.77599">
        <ele>2.1</ele>
        <time>2016-10-09T08:09:52Z</time>
      </trkpt>
      <trkpt lat="43.41678" lon="6.77594">
        <ele>0.1</ele>
        <time>2016-10-09T08:09:54Z</time>
      </trkpt>
      <trkpt lat="43.41685" lon="6.77589">
        <ele>0.1</ele>
        <time>2016-10-09T08:09:56Z</time>
      </trkpt>
      <trkpt lat="43.41692" lon="6.77584">
        <ele>0.2</ele>
        <time>2016-10-09T08:09:58Z</time>
      </trkpt>
      <trkpt lat="43.41699" lon="6.77579">
        <ele>0.4</ele>
        <time>2016-10-09T08:10:00Z</time>
      </trkpt>
      <trkpt lat="43.41707" lon="6.77574">
        <ele>0.5</ele>
        <time>2016-10-09T08:10:02Z</time>
      </trkpt>
      <trkpt lat="43.41713" lon="6.77569">
        <ele>0.7</ele>
        <time>2016-10-09T08:10:04Z</time>
      </trkpt>
      <trkpt lat="43.4172" lon="6.77563">
        <ele>0.7</ele>
        <time>2016-10-09T08:10:06Z</time>
      </trkpt>
      <trkpt lat="43.41727" lon="6.77556">
        <ele>0.7</ele>
        <time>2016-10-09T08:10:08Z</time>
      </trkpt>
      <trkpt lat="43.41733" lon="6.77549">
        <ele>0.7</ele>
        <time>2016-10-09T08:10:10Z</time>
      </trkpt>
      <trkpt lat="43.41739" lon="6.77542">
        <ele>0.6</ele>
        <time>2016-10-09T08:10:12Z</time>
      </trkpt>
      <trkpt lat="43.41745" lon="6.77535">
        <ele>0.2</ele>
        <time>2016-10-09T08:10:14Z</time>
      </trkpt>
      <trkpt lat="43.41751" lon="6.77527">
        <ele>-0.2</ele>
        <time>2016-10-09T08:10:16Z</time>
      </trkpt>
      <trkpt lat="43.41755" lon="6.7752">
        <ele>-0.4</ele>
        <time>2016-10-09T08:10:18Z</time>
      </trkpt>
      <trkpt lat="43.41758" lon="6.77512">
        <ele>-0.2</ele>
        <time>2016-10-09T08:10:20Z</time>
      </trkpt>
      <trkpt lat="43.41756" lon="6.77503">
        <ele>3</ele>
        <time>2016-10-09T08:10:22Z</time>
      </trkpt>
      <trkpt lat="43.41754" lon="6.77494">
        <ele>3</ele>
        <time>2016-10-09T08:10:24Z</time>
      </trkpt>
      <trkpt lat="43.41751" lon="6.77485">
        <ele>3</ele>
        <time>2016-10-09T08:10:26Z</time>
      </trkpt>
      <trkpt lat="43.41749" lon="6.77475">
        <ele>2.9</ele>
        <time>2016-10-09T08:10:28Z</time>
      </trkpt>
      <trkpt lat="43.41752" lon="6.77465">
        <ele>3</ele>
        <time>2016-10-09T08:10:30Z</time>
      </trkpt>
      <trkpt lat="43.41757" lon="6.77458">
        <ele>3</ele>
        <time>2016-10-09T08:10:32Z</time>
      </trkpt>
      <trkpt lat="43.41763" lon="6.77452">
        <ele>0.3</ele>
        <time>2016-10-09T08:10:34Z</time>
      </trkpt>
      <trkpt lat="43.4177" lon="6.77445">
        <ele>0.4</ele>
        <time>2016-10-09T08:10:36Z</time>
      </trkpt>
      <trkpt lat="43.41776" lon="6.77438">
        <ele>0.6</ele>
        <time>2016-10-09T08:10:38Z</time>
      </trkpt>
      <trkpt lat="43.41781" lon="6.77429">
        <ele>0.7</ele>
        <time>2016-10-09T08:10:40Z</time>
      </trkpt>
      <trkpt lat="43.41785" lon="6.77421">
        <ele>0.7</ele>
        <time>2016-10-09T08:10:42Z</time>
      </trkpt>
      <trkpt lat="43.4179" lon="6.77413">
        <ele>0.7</ele>
        <time>2016-10-09T08:10:44Z</time>
      </trkpt>
      <trkpt lat="43.41795" lon="6.77403">
        <ele>0.4</ele>
        <time>2016-10-09T08:10:46Z</time>
      </trkpt>
      <trkpt lat="43.41801" lon="6.77395">
        <ele>0.2</ele>
        <time>2016-10-09T08:10:48Z</time>
      </trkpt>
      <trkpt lat="43.41805" lon="6.77385">
        <ele>0.1</ele>
        <time>2016-10-09T08:10:50Z</time>
      </trkpt>
      <trkpt lat="43.41805" lon="6.77375">
        <ele>0.1</ele>
        <time>2016-10-09T08:10:52Z</time>
      </trkpt>
      <trkpt lat="43.41806" lon="6.77363">
        <ele>3</ele>
        <time>2016-10-09T08:10:54Z</time>
      </trkpt>
      <trkpt lat="43.41808" lon="6.77353">
        <ele>2.7</ele>
        <time>2016-10-09T08:10:56Z</time>
      </trkpt>
      <trkpt lat="43.41809" lon="6.77345">
        <ele>2.5</ele>
        <time>2016-10-09T08:10:58Z</time>
      </trkpt>
      <trkpt lat="43.4181" lon="6.77336">
        <ele>2.2</ele>
        <time>2016-10-09T08:11:00Z</time>
      </trkpt>
      <trkpt lat="43.41815" lon="6.77327">
        <ele>2.2</ele>
        <time>2016-10-09T08:11:02Z</time>
      </trkpt>
      <trkpt lat="43.4182" lon="6.77319">
        <ele>2.3</ele>
        <time>2016-10-09T08:11:04Z</time>
      </trkpt>
      <trkpt lat="43.41827" lon="6.77311">
        <ele>2.6</ele>
        <time>2016-10-09T08:11:06Z</time>
      </trkpt>
      <trkpt lat="43.41832" lon="6.773">
        <ele>2.7</ele>
        <time>2016-10-09T08:11:08Z</time>
      </trkpt>
      <trkpt lat="43.41835" lon="6.77288">
        <ele>-0.1</ele>
        <time>2016-10-09T08:11:10Z</time>
      </trkpt>
      <trkpt lat="43.4184" lon="6.77277">
        <ele>-0.1</ele>
        <time>2016-10-09T08:11:12Z</time>
      </trkpt>
      <trkpt lat="43.41844" lon="6.77267">
        <ele>-0.1</ele>
        <time>2016-10-09T08:11:14Z</time>
      </trkpt>
      <trkpt lat="43.41847" lon="6.77257">
        <ele>-0.1</ele>
        <time>2016-10-09T08:11:16Z</time>
      </trkpt>
      <trkpt lat="43.41849" lon="6.77245">
        <ele>-0.1</ele>
        <time>2016-10-09T08:11:18Z</time>
      </trkpt>
      <trkpt lat="43.41854" lon="6.77236">
        <ele>-0.1</ele>
        <time>2016-10-09T08:11:20Z</time>
      </trkpt>
      <trkpt lat="43.4186" lon="6.77228">
        <ele>-0.1</ele>
        <time>2016-10-09T08:11:22Z</time>
      </trkpt>
      <trkpt lat="43.41866" lon="6.7722">
        <ele>-0.1</ele>
        <time>2016-10-09T08:11:24Z</time>
      </trkpt>
      <trkpt lat="43.41868" lon="6.77211">
        <ele>-0.1</ele>
        <time>2016-10-09T08:11:26Z</time>
      </trkpt>
      <trkpt lat="43.4187" lon="6.772">
        <ele>-0.1</ele>
        <time>2016-10-09T08:11:28Z</time>
      </trkpt>
      <trkpt lat="43.41876" lon="6.77192">
        <ele>-0.1</ele>
        <time>2016-10-09T08:11:30Z</time>
      </trkpt>
      <trkpt lat="43.41882" lon="6.77184">
        <ele>-0.1</ele>
        <time>2016-10-09T08:11:32Z</time>
      </trkpt>
      <trkpt lat="43.41888" lon="6.77177">
        <ele>-0.1</ele>
        <time>2016-10-09T08:11:34Z</time>
      </trkpt>
      <trkpt lat="43.41893" lon="6.77169">
        <ele>-0.1</ele>
        <time>2016-10-09T08:11:36Z</time>
      </trkpt>
      <trkpt lat="43.41894" lon="6.77159">
        <ele>-0.1</ele>
        <time>2016-10-09T08:11:38Z</time>
      </trkpt>
      <trkpt lat="43.41895" lon="6.77148">
        <ele>-0.1</ele>
        <time>2016-10-09T08:11:40Z</time>
      </trkpt>
      <trkpt lat="43.419" lon="6.77138">
        <ele>-0.1</ele>
        <time>2016-10-09T08:11:42Z</time>
      </trkpt>
      <trkpt lat="43.41904" lon="6.77128">
        <ele>-0.1</ele>
        <time>2016-10-09T08:11:44Z</time>
      </trkpt>
      <trkpt lat="43.41905" lon="6.77117">
        <ele>-0.1</ele>
        <time>2016-10-09T08:11:46Z</time>
      </trkpt>
      <trkpt lat="43.41908" lon="6.77107">
        <ele>-0.1</ele>
        <time>2016-10-09T08:11:48Z</time>
      </trkpt>
      <trkpt lat="43.41913" lon="6.77098">
        <ele>2.9</ele>
        <time>2016-10-09T08:11:50Z</time>
      </trkpt>
      <trkpt lat="43.41916" lon="6.77088">
        <ele>3</ele>
        <time>2016-10-09T08:11:52Z</time>
      </trkpt>
      <trkpt lat="43.41921" lon="6.77079">
        <ele>2.9</ele>
        <time>2016-10-09T08:11:54Z</time>
      </trkpt>
      <trkpt lat="43.41926" lon="6.7707">
        <ele>0.2</ele>
        <time>2016-10-09T08:11:56Z</time>
      </trkpt>
      <trkpt lat="43.41931" lon="6.77061">
        <ele>0.5</ele>
        <time>2016-10-09T08:11:58Z</time>
      </trkpt>
      <trkpt lat="43.41935" lon="6.77053">
        <ele>0.8</ele>
        <time>2016-10-09T08:12:00Z</time>
      </trkpt>
      <trkpt lat="43.4194" lon="6.77044">
        <ele>1.2</ele>
        <time>2016-10-09T08:12:02Z</time>
      </trkpt>
      <trkpt lat="43.41945" lon="6.77038">
        <ele>1.4</ele>
        <time>2016-10-09T08:12:04Z</time>
      </trkpt>
      <trkpt lat="43.4195" lon="6.77034">
        <ele>1.6</ele>
        <time>2016-10-09T08:12:06Z</time>
      </trkpt>
      <trkpt lat="43.41954" lon="6.77029">
        <ele>1.7</ele>
        <time>2016-10-09T08:12:08Z</time>
      </trkpt>
      <trkpt lat="43.41959" lon="6.77023">
        <ele>1.8</ele>
        <time>2016-10-09T08:12:10Z</time>
      </trkpt>
      <trkpt lat="43.41964" lon="6.77017">
        <ele>1.8</ele>
        <time>2016-10-09T08:12:12Z</time>
      </trkpt>
      <trkpt lat="43.4197" lon="6.77011">
        <ele>1.9</ele>
        <time>2016-10-09T08:12:14Z</time>
      </trkpt>
      <trkpt lat="43.41977" lon="6.77006">
        <ele>1.9</ele>
        <time>2016-10-09T08:12:16Z</time>
      </trkpt>
      <trkpt lat="43.41984" lon="6.77003">
        <ele>1.9</ele>
        <time>2016-10-09T08:12:18Z</time>
      </trkpt>
      <trkpt lat="43.41992" lon="6.77">
        <ele>2</ele>
        <time>2016-10-09T08:12:20Z</time>
      </trkpt>
      <trkpt lat="43.42" lon="6.76996">
        <ele>2</ele>
        <time>2016-10-09T08:12:22Z</time>
      </trkpt>
      <trkpt lat="43.42008" lon="6.76992">
        <ele>2</ele>
        <time>2016-10-09T08:12:24Z</time>
      </trkpt>
      <trkpt lat="43.42016" lon="6.76988">
        <ele>2</ele>
        <time>2016-10-09T08:12:26Z</time>
      </trkpt>
      <trkpt lat="43.42024" lon="6.76984">
        <ele>2</ele>
        <time>2016-10-09T08:12:28Z</time>
      </trkpt>
      <trkpt lat="43.42032" lon="6.76982">
        <ele>2</ele>
        <time>2016-10-09T08:12:30Z</time>
      </trkpt>
      <trkpt lat="43.42039" lon="6.76979">
        <ele>2</ele>
        <time>2016-10-09T08:12:32Z</time>
      </trkpt>
      <trkpt lat="43.42047" lon="6.76976">
        <ele>2</ele>
        <time>2016-10-09T08:12:34Z</time>
      </trkpt>
      <trkpt lat="43.42055" lon="6.76973">
        <ele>2</ele>
        <time>2016-10-09T08:12:36Z</time>
      </trkpt>
      <trkpt lat="43.42062" lon="6.76968">
        <ele>2</ele>
        <time>2016-10-09T08:12:38Z</time>
      </trkpt>
      <trkpt lat="43.42069" lon="6.76964">
        <ele>2</ele>
        <time>2016-10-09T08:12:40Z</time>
      </trkpt>
      <trkpt lat="43.42077" lon="6.76959">
        <ele>2</ele>
        <time>2016-10-09T08:12:42Z</time>
      </trkpt>
      <trkpt lat="43.42083" lon="6.76954">
        <ele>2</ele>
        <time>2016-10-09T08:12:44Z</time>
      </trkpt>
      <trkpt lat="43.42091" lon="6.7695">
        <ele>2</ele>
        <time>2016-10-09T08:12:46Z</time>
      </trkpt>
      <trkpt lat="43.42098" lon="6.76946">
        <ele>2</ele>
        <time>2016-10-09T08:12:48Z</time>
      </trkpt>
      <trkpt lat="43.42104" lon="6.7694">
        <ele>2</ele>
        <time>2016-10-09T08:12:50Z</time>
      </trkpt>
      <trkpt lat="43.42111" lon="6.76934">
        <ele>2</ele>
        <time>2016-10-09T08:12:52Z</time>
      </trkpt>
      <trkpt lat="43.42117" lon="6.76928">
        <ele>3.3</ele>
        <time>2016-10-09T08:12:54Z</time>
      </trkpt>
      <trkpt lat="43.42123" lon="6.76921">
        <ele>5.2</ele>
        <time>2016-10-09T08:12:56Z</time>
      </trkpt>
      <trkpt lat="43.4213" lon="6.76914">
        <ele>5.2</ele>
        <time>2016-10-09T08:12:58Z</time>
      </trkpt>
      <trkpt lat="43.42135" lon="6.76906">
        <ele>5.3</ele>
        <time>2016-10-09T08:13:00Z</time>
      </trkpt>
      <trkpt lat="43.42139" lon="6.76897">
        <ele>5.3</ele>
        <time>2016-10-09T08:13:02Z</time>
      </trkpt>
      <trkpt lat="43.42143" lon="6.76888">
        <ele>5.4</ele>
        <time>2016-10-09T08:13:04Z</time>
      </trkpt>
      <trkpt lat="43.42147" lon="6.76879">
        <ele>5.4</ele>
        <time>2016-10-09T08:13:06Z</time>
      </trkpt>
      <trkpt lat="43.42149" lon="6.7687">
        <ele>5.5</ele>
        <time>2016-10-09T08:13:08Z</time>
      </trkpt>
      <trkpt lat="43.42152" lon="6.7686">
        <ele>5.5</ele>
        <time>2016-10-09T08:13:10Z</time>
      </trkpt>
      <trkpt lat="43.42154" lon="6.76851">
        <ele>5.5</ele>
        <time>2016-10-09T08:13:12Z</time>
      </trkpt>
      <trkpt lat="43.42155" lon="6.76842">
        <ele>5.6</ele>
        <time>2016-10-09T08:13:14Z</time>
      </trkpt>
      <trkpt lat="43.42156" lon="6.76832">
        <ele>5.6</ele>
        <time>2016-10-09T08:13:16Z</time>
      </trkpt>
      <trkpt lat="43.42158" lon="6.76822">
        <ele>5.6</ele>
        <time>2016-10-09T08:13:18Z</time>
      </trkpt>
      <trkpt lat="43.4216" lon="6.76812">
        <ele>5.6</ele>
        <time>2016-10-09T08:13:20Z</time>
      </trkpt>
      <trkpt lat="43.42161" lon="6.76802">
        <ele>5.7</ele>
        <time>2016-10-09T08:13:22Z</time>
      </trkpt>
      <trkpt lat="43.42162" lon="6.76792">
        <ele>5.7</ele>
        <time>2016-10-09T08:13:24Z</time>
      </trkpt>
      <trkpt lat="43.42164" lon="6.76781">
        <ele>5.7</ele>
        <time>2016-10-09T08:13:26Z</time>
      </trkpt>
      <trkpt lat="43.42164" lon="6.76771">
        <ele>5.8</ele>
        <time>2016-10-09T08:13:28Z</time>
      </trkpt>
      <trkpt lat="43.42165" lon="6.76761">
        <ele>5.8</ele>
        <time>2016-10-09T08:13:30Z</time>
      </trkpt>
      <trkpt lat="43.42167" lon="6.76751">
        <ele>5.8</ele>
        <time>2016-10-09T08:13:32Z</time>
      </trkpt>
      <trkpt lat="43.42169" lon="6.76742">
        <ele>5.9</ele>
        <time>2016-10-09T08:13:34Z</time>
      </trkpt>
      <trkpt lat="43.4217" lon="6.76735">
        <ele>5.9</ele>
        <time>2016-10-09T08:13:36Z</time>
      </trkpt>
      <trkpt lat="43.42171" lon="6.7673">
        <ele>5.9</ele>
        <time>2016-10-09T08:13:38Z</time>
      </trkpt>
      <trkpt lat="43.42173" lon="6.76723">
        <ele>5.9</ele>
        <time>2016-10-09T08:13:40Z</time>
      </trkpt>
      <trkpt lat="43.42174" lon="6.76714">
        <ele>5.9</ele>
        <time>2016-10-09T08:13:42Z</time>
      </trkpt>
      <trkpt lat="43.42176" lon="6.76704">
        <ele>6</ele>
        <time>2016-10-09T08:13:44Z</time>
      </trkpt>
      <trkpt lat="43.42176" lon="6.76694">
        <ele>6</ele>
        <time>2016-10-09T08:13:46Z</time>
      </trkpt>
      <trkpt lat="43.42178" lon="6.76685">
        <ele>5.9</ele>
        <time>2016-10-09T08:13:48Z</time>
      </trkpt>
      <trkpt lat="43.42179" lon="6.7668">
        <ele>5.9</ele>
        <time>2016-10-09T08:13:50Z</time>
      </trkpt>
      <trkpt lat="43.4218" lon="6.76675">
        <ele>5.8</ele>
        <time>2016-10-09T08:13:52Z</time>
      </trkpt>
      <trkpt lat="43.42181" lon="6.76671">
        <ele>5.8</ele>
        <time>2016-10-09T08:13:54Z</time>
      </trkpt>
      <trkpt lat="43.4218" lon="6.76668">
        <ele>5.7</ele>
        <time>2016-10-09T08:13:56Z</time>
      </trkpt>
      <trkpt lat="43.42181" lon="6.7666">
        <ele>5.7</ele>
        <time>2016-10-09T08:13:58Z</time>
      </trkpt>
      <trkpt lat="43.42183" lon="6.76651">
        <ele>5.6</ele>
        <time>2016-10-09T08:14:00Z</time>
      </trkpt>
      <trkpt lat="43.42185" lon="6.76642">
        <ele>5.4</ele>
        <time>2016-10-09T08:14:02Z</time>
      </trkpt>
      <trkpt lat="43.42186" lon="6.76631">
        <ele>5.3</ele>
        <time>2016-10-09T08:14:04Z</time>
      </trkpt>
      <trkpt lat="43.42188" lon="6.76621">
        <ele>5.2</ele>
        <time>2016-10-09T08:14:06Z</time>
      </trkpt>
      <trkpt lat="43.42186" lon="6.76611">
        <ele>5</ele>
        <time>2016-10-09T08:14:08Z</time>
      </trkpt>
      <trkpt lat="43.42188" lon="6.766">
        <ele>4.5</ele>
        <time>2016-10-09T08:14:10Z</time>
      </trkpt>
      <trkpt lat="43.42192" lon="6.7659">
        <ele>4</ele>
        <time>2016-10-09T08:14:12Z</time>
      </trkpt>
      <trkpt lat="43.42196" lon="6.7658">
        <ele>3.5</ele>
        <time>2016-10-09T08:14:14Z</time>
      </trkpt>
      <trkpt lat="43.42201" lon="6.76572">
        <ele>3.2</ele>
        <time>2016-10-09T08:14:16Z</time>
      </trkpt>
      <trkpt lat="43.42209" lon="6.76571">
        <ele>2.9</ele>
        <time>2016-10-09T08:14:18Z</time>
      </trkpt>
      <trkpt lat="43.42216" lon="6.76573">
        <ele>2.7</ele>
        <time>2016-10-09T08:14:20Z</time>
      </trkpt>
      <trkpt lat="43.42223" lon="6.76576">
        <ele>2.5</ele>
        <time>2016-10-09T08:14:22Z</time>
      </trkpt>
      <trkpt lat="43.42231" lon="6.76581">
        <ele>2.3</ele>
        <time>2016-10-09T08:14:24Z</time>
      </trkpt>
      <trkpt lat="43.42239" lon="6.76585">
        <ele>2.2</ele>
        <time>2016-10-09T08:14:26Z</time>
      </trkpt>
      <trkpt lat="43.42247" lon="6.76589">
        <ele>2.1</ele>
        <time>2016-10-09T08:14:28Z</time>
      </trkpt>
      <trkpt lat="43.42256" lon="6.76588">
        <ele>2</ele>
        <time>2016-10-09T08:14:30Z</time>
      </trkpt>
      <trkpt lat="43.42264" lon="6.76587">
        <ele>2</ele>
        <time>2016-10-09T08:14:32Z</time>
      </trkpt>
      <trkpt lat="43.42273" lon="6.76589">
        <ele>2</ele>
        <time>2016-10-09T08:14:34Z</time>
      </trkpt>
      <trkpt lat="43.42281" lon="6.76591">
        <ele>2</ele>
        <time>2016-10-09T08:14:36Z</time>
      </trkpt>
      <trkpt lat="43.42289" lon="6.76593">
        <ele>2</ele>
        <time>2016-10-09T08:14:38Z</time>
      </trkpt>
      <trkpt lat="43.42296" lon="6.76597">
        <ele>2</ele>
        <time>2016-10-09T08:14:40Z</time>
      </trkpt>
      <trkpt lat="43.42304" lon="6.76601">
        <ele>2</ele>
        <time>2016-10-09T08:14:42Z</time>
      </trkpt>
      <trkpt lat="43.42312" lon="6.76603">
        <ele>2</ele>
        <time>2016-10-09T08:14:44Z</time>
      </trkpt>
      <trkpt lat="43.4232" lon="6.76604">
        <ele>2</ele>
        <time>2016-10-09T08:14:46Z</time>
      </trkpt>
      <trkpt lat="43.42328" lon="6.76606">
        <ele>2</ele>
        <time>2016-10-09T08:14:48Z</time>
      </trkpt>
      <trkpt lat="43.42337" lon="6.76608">
        <ele>1.8</ele>
        <time>2016-10-09T08:14:50Z</time>
      </trkpt>
      <trkpt lat="43.42345" lon="6.76609">
        <ele>1.5</ele>
        <time>2016-10-09T08:14:52Z</time>
      </trkpt>
      <trkpt lat="43.42354" lon="6.76609">
        <ele>1.2</ele>
        <time>2016-10-09T08:14:54Z</time>
      </trkpt>
      <trkpt lat="43.42362" lon="6.76608">
        <ele>1</ele>
        <time>2016-10-09T08:14:56Z</time>
      </trkpt>
      <trkpt lat="43.4237" lon="6.76605">
        <ele>0.8</ele>
        <time>2016-10-09T08:14:58Z</time>
      </trkpt>
      <trkpt lat="43.42377" lon="6.76602">
        <ele>0.6</ele>
        <time>2016-10-09T08:15:00Z</time>
      </trkpt>
      <trkpt lat="43.42384" lon="6.76596">
        <ele>0.5</ele>
        <time>2016-10-09T08:15:02Z</time>
      </trkpt>
      <trkpt lat="43.4239" lon="6.76589">
        <ele>0.4</ele>
        <time>2016-10-09T08:15:04Z</time>
      </trkpt>
      <trkpt lat="43.42396" lon="6.76581">
        <ele>0.3</ele>
        <time>2016-10-09T08:15:06Z</time>
      </trkpt>
      <trkpt lat="43.42401" lon="6.76572">
        <ele>0.2</ele>
        <time>2016-10-09T08:15:08Z</time>
      </trkpt>
      <trkpt lat="43.42405" lon="6.76562">
        <ele>0.1</ele>
        <time>2016-10-09T08:15:10Z</time>
      </trkpt>
      <trkpt lat="43.42407" lon="6.76551">
        <ele>1.8</ele>
        <time>2016-10-09T08:15:12Z</time>
      </trkpt>
      <trkpt lat="43.4241" lon="6.7654">
        <ele>0.1</ele>
        <time>2016-10-09T08:15:14Z</time>
      </trkpt>
      <trkpt lat="43.42411" lon="6.76529">
        <ele>0.2</ele>
        <time>2016-10-09T08:15:16Z</time>
      </trkpt>
      <trkpt lat="43.42413" lon="6.76518">
        <ele>0.3</ele>
        <time>2016-10-09T08:15:18Z</time>
      </trkpt>
      <trkpt lat="43.42415" lon="6.76508">
        <ele>0.4</ele>
        <time>2016-10-09T08:15:20Z</time>
      </trkpt>
      <trkpt lat="43.42416" lon="6.76497">
        <ele>0.5</ele>
        <time>2016-10-09T08:15:22Z</time>
      </trkpt>
      <trkpt lat="43.42415" lon="6.76487">
        <ele>0.6</ele>
        <time>2016-10-09T08:15:24Z</time>
      </trkpt>
      <trkpt lat="43.42416" lon="6.76476">
        <ele>0.6</ele>
        <time>2016-10-09T08:15:26Z</time>
      </trkpt>
      <trkpt lat="43.42418" lon="6.76466">
        <ele>0.7</ele>
        <time>2016-10-09T08:15:28Z</time>
      </trkpt>
      <trkpt lat="43.42419" lon="6.76455">
        <ele>0.8</ele>
        <time>2016-10-09T08:15:30Z</time>
      </trkpt>
      <trkpt lat="43.4242" lon="6.76445">
        <ele>0.9</ele>
        <time>2016-10-09T08:15:32Z</time>
      </trkpt>
      <trkpt lat="43.42419" lon="6.76435">
        <ele>1</ele>
        <time>2016-10-09T08:15:34Z</time>
      </trkpt>
      <trkpt lat="43.4242" lon="6.76427">
        <ele>1</ele>
        <time>2016-10-09T08:15:36Z</time>
      </trkpt>
      <trkpt lat="43.42422" lon="6.7642">
        <ele>1</ele>
        <time>2016-10-09T08:15:38Z</time>
      </trkpt>
      <trkpt lat="43.42424" lon="6.76416">
        <ele>1</ele>
        <time>2016-10-09T08:15:40Z</time>
      </trkpt>
      <trkpt lat="43.42425" lon="6.76413">
        <ele>1</ele>
        <time>2016-10-09T08:15:42Z</time>
      </trkpt>
      <trkpt lat="43.42427" lon="6.76409">
        <ele>1</ele>
        <time>2016-10-09T08:15:44Z</time>
      </trkpt>
      <trkpt lat="43.42429" lon="6.76406">
        <ele>1</ele>
        <time>2016-10-09T08:15:46Z</time>
      </trkpt>
      <trkpt lat="43.42434" lon="6.76405">
        <ele>1</ele>
        <time>2016-10-09T08:15:48Z</time>
      </trkpt>
      <trkpt lat="43.42438" lon="6.76401">
        <ele>1</ele>
        <time>2016-10-09T08:15:50Z</time>
      </trkpt>
      <trkpt lat="43.42441" lon="6.76394">
        <ele>1.6</ele>
        <time>2016-10-09T08:15:52Z</time>
      </trkpt>
      <trkpt lat="43.42442" lon="6.76385">
        <ele>2.1</ele>
        <time>2016-10-09T08:15:54Z</time>
      </trkpt>
      <trkpt lat="43.42444" lon="6.76375">
        <ele>2.7</ele>
        <time>2016-10-09T08:15:56Z</time>
      </trkpt>
      <trkpt lat="43.42447" lon="6.76368">
        <ele>3.3</ele>
        <time>2016-10-09T08:15:58Z</time>
      </trkpt>
      <trkpt lat="43.42451" lon="6.76365">
        <ele>3.7</ele>
        <time>2016-10-09T08:16:00Z</time>
      </trkpt>
      <trkpt lat="43.42453" lon="6.76362">
        <ele>3.9</ele>
        <time>2016-10-09T08:16:02Z</time>
      </trkpt>
      <trkpt lat="43.42456" lon="6.7636">
        <ele>4</ele>
        <time>2016-10-09T08:16:04Z</time>
      </trkpt>
      <trkpt lat="43.42458" lon="6.76354">
        <ele>4.2</ele>
        <time>2016-10-09T08:16:06Z</time>
      </trkpt>
      <trkpt lat="43.4246" lon="6.76343">
        <ele>4.5</ele>
        <time>2016-10-09T08:16:08Z</time>
      </trkpt>
      <trkpt lat="43.42462" lon="6.76329">
        <ele>4.9</ele>
        <time>2016-10-09T08:16:10Z</time>
      </trkpt>
      <trkpt lat="43.42466" lon="6.76313">
        <ele>4.9</ele>
        <time>2016-10-09T08:16:12Z</time>
      </trkpt>
      <trkpt lat="43.42469" lon="6.76298">
        <ele>4.8</ele>
        <time>2016-10-09T08:16:14Z</time>
      </trkpt>
      <trkpt lat="43.42471" lon="6.76283">
        <ele>4.6</ele>
        <time>2016-10-09T08:16:16Z</time>
      </trkpt>
      <trkpt lat="43.42473" lon="6.76268">
        <ele>4.4</ele>
        <time>2016-10-09T08:16:18Z</time>
      </trkpt>
      <trkpt lat="43.42478" lon="6.76256">
        <ele>4</ele>
        <time>2016-10-09T08:16:20Z</time>
      </trkpt>
      <trkpt lat="43.42483" lon="6.76244">
        <ele>4.2</ele>
        <time>2016-10-09T08:16:22Z</time>
      </trkpt>
      <trkpt lat="43.42483" lon="6.76231">
        <ele>4.8</ele>
        <time>2016-10-09T08:16:24Z</time>
      </trkpt>
      <trkpt lat="43.42481" lon="6.76218">
        <ele>5</ele>
        <time>2016-10-09T08:16:26Z</time>
      </trkpt>
      <trkpt lat="43.4248" lon="6.76206">
        <ele>4.8</ele>
        <time>2016-10-09T08:16:28Z</time>
      </trkpt>
      <trkpt lat="43.42481" lon="6.76194">
        <ele>4.7</ele>
        <time>2016-10-09T08:16:30Z</time>
      </trkpt>
      <trkpt lat="43.42481" lon="6.76182">
        <ele>4.6</ele>
        <time>2016-10-09T08:16:32Z</time>
      </trkpt>
      <trkpt lat="43.42482" lon="6.76171">
        <ele>4.5</ele>
        <time>2016-10-09T08:16:34Z</time>
      </trkpt>
      <trkpt lat="43.42482" lon="6.76158">
        <ele>4.5</ele>
        <time>2016-10-09T08:16:36Z</time>
      </trkpt>
      <trkpt lat="43.42483" lon="6.76146">
        <ele>4.5</ele>
        <time>2016-10-09T08:16:38Z</time>
      </trkpt>
      <trkpt lat="43.42483" lon="6.76133">
        <ele>4.5</ele>
        <time>2016-10-09T08:16:40Z</time>
      </trkpt>
      <trkpt lat="43.42482" lon="6.7612">
        <ele>4.4</ele>
        <time>2016-10-09T08:16:42Z</time>
      </trkpt>
      <trkpt lat="43.42482" lon="6.76107">
        <ele>4.5</ele>
        <time>2016-10-09T08:16:44Z</time>
      </trkpt>
      <trkpt lat="43.42481" lon="6.76094">
        <ele>4.7</ele>
        <time>2016-10-09T08:16:46Z</time>
      </trkpt>
      <trkpt lat="43.42479" lon="6.76082">
        <ele>4.8</ele>
        <time>2016-10-09T08:16:48Z</time>
      </trkpt>
      <trkpt lat="43.42477" lon="6.76069">
        <ele>4.9</ele>
        <time>2016-10-09T08:16:50Z</time>
      </trkpt>
      <trkpt lat="43.42475" lon="6.76056">
        <ele>5</ele>
        <time>2016-10-09T08:16:52Z</time>
      </trkpt>
      <trkpt lat="43.42473" lon="6.76044">
        <ele>5.2</ele>
        <time>2016-10-09T08:16:54Z</time>
      </trkpt>
      <trkpt lat="43.4247" lon="6.76032">
        <ele>5.3</ele>
        <time>2016-10-09T08:16:56Z</time>
      </trkpt>
      <trkpt lat="43.42468" lon="6.7602">
        <ele>5.5</ele>
        <time>2016-10-09T08:16:58Z</time>
      </trkpt>
      <trkpt lat="43.42465" lon="6.76008">
        <ele>5.6</ele>
        <time>2016-10-09T08:17:00Z</time>
      </trkpt>
      <trkpt lat="43.42463" lon="6.75997">
        <ele>5.7</ele>
        <time>2016-10-09T08:17:02Z</time>
      </trkpt>
      <trkpt lat="43.42461" lon="6.75985">
        <ele>5.8</ele>
        <time>2016-10-09T08:17:04Z</time>
      </trkpt>
      <trkpt lat="43.42458" lon="6.75974">
        <ele>5.9</ele>
        <time>2016-10-09T08:17:06Z</time>
      </trkpt>
      <trkpt lat="43.42456" lon="6.75962">
        <ele>6</ele>
        <time>2016-10-09T08:17:08Z</time>
      </trkpt>
      <trkpt lat="43.42454" lon="6.7595">
        <ele>6</ele>
        <time>2016-10-09T08:17:10Z</time>
      </trkpt>
      <trkpt lat="43.4245" lon="6.75938">
        <ele>6</ele>
        <time>2016-10-09T08:17:12Z</time>
      </trkpt>
      <trkpt lat="43.42447" lon="6.75927">
        <ele>5.9</ele>
        <time>2016-10-09T08:17:14Z</time>
      </trkpt>
      <trkpt lat="43.42444" lon="6.75915">
        <ele>5.8</ele>
        <time>2016-10-09T08:17:16Z</time>
      </trkpt>
      <trkpt lat="43.42442" lon="6.75903">
        <ele>5.8</ele>
        <time>2016-10-09T08:17:18Z</time>
      </trkpt>
      <trkpt lat="43.42439" lon="6.75891">
        <ele>5.7</ele>
        <time>2016-10-09T08:17:20Z</time>
      </trkpt>
      <trkpt lat="43.42436" lon="6.75879">
        <ele>5.5</ele>
        <time>2016-10-09T08:17:22Z</time>
      </trkpt>
      <trkpt lat="43.42433" lon="6.75867">
        <ele>5.3</ele>
        <time>2016-10-09T08:17:24Z</time>
      </trkpt>
      <trkpt lat="43.42431" lon="6.75855">
        <ele>5.2</ele>
        <time>2016-10-09T08:17:26Z</time>
      </trkpt>
      <trkpt lat="43.42428" lon="6.75843">
        <ele>5.1</ele>
        <time>2016-10-09T08:17:28Z</time>
      </trkpt>
      <trkpt lat="43.42425" lon="6.75832">
        <ele>4.9</ele>
        <time>2016-10-09T08:17:30Z</time>
      </trkpt>
      <trkpt lat="43.42423" lon="6.7582">
        <ele>4.8</ele>
        <time>2016-10-09T08:17:32Z</time>
      </trkpt>
      <trkpt lat="43.4242" lon="6.75809">
        <ele>4.6</ele>
        <time>2016-10-09T08:17:34Z</time>
      </trkpt>
      <trkpt lat="43.42417" lon="6.75797">
        <ele>4.4</ele>
        <time>2016-10-09T08:17:36Z</time>
      </trkpt>
      <trkpt lat="43.42414" lon="6.75785">
        <ele>4.3</ele>
        <time>2016-10-09T08:17:38Z</time>
      </trkpt>
      <trkpt lat="43.42411" lon="6.75774">
        <ele>4.1</ele>
        <time>2016-10-09T08:17:40Z</time>
      </trkpt>
      <trkpt lat="43.42409" lon="6.75762">
        <ele>4</ele>
        <time>2016-10-09T08:17:42Z</time>
      </trkpt>
      <trkpt lat="43.42406" lon="6.75752">
        <ele>3.9</ele>
        <time>2016-10-09T08:17:44Z</time>
      </trkpt>
      <trkpt lat="43.42405" lon="6.75747">
        <ele>3.8</ele>
        <time>2016-10-09T08:17:46Z</time>
      </trkpt>
      <trkpt lat="43.42405" lon="6.75741">
        <ele>3.8</ele>
        <time>2016-10-09T08:17:48Z</time>
      </trkpt>
      <trkpt lat="43.42403" lon="6.75734">
        <ele>3.7</ele>
        <time>2016-10-09T08:17:50Z</time>
      </trkpt>
      <trkpt lat="43.424" lon="6.75724">
        <ele>3.4</ele>
        <time>2016-10-09T08:17:52Z</time>
      </trkpt>
      <trkpt lat="43.42398" lon="6.75713">
        <ele>3.3</ele>
        <time>2016-10-09T08:17:54Z</time>
      </trkpt>
      <trkpt lat="43.42395" lon="6.75702">
        <ele>3</ele>
        <time>2016-10-09T08:17:56Z</time>
      </trkpt>
      <trkpt lat="43.42392" lon="6.7569">
        <ele>2.8</ele>
        <time>2016-10-09T08:17:58Z</time>
      </trkpt>
      <trkpt lat="43.42389" lon="6.75678">
        <ele>2.6</ele>
        <time>2016-10-09T08:18:00Z</time>
      </trkpt>
      <trkpt lat="43.42387" lon="6.75667">
        <ele>2.5</ele>
        <time>2016-10-09T08:18:02Z</time>
      </trkpt>
      <trkpt lat="43.42388" lon="6.75658">
        <ele>2.3</ele>
        <time>2016-10-09T08:18:04Z</time>
      </trkpt>
      <trkpt lat="43.42391" lon="6.7565">
        <ele>2</ele>
        <time>2016-10-09T08:18:06Z</time>
      </trkpt>
      <trkpt lat="43.42392" lon="6.7564">
        <ele>2</ele>
        <time>2016-10-09T08:18:08Z</time>
      </trkpt>
      <trkpt lat="43.42388" lon="6.75631">
        <ele>2</ele>
        <time>2016-10-09T08:18:10Z</time>
      </trkpt>
      <trkpt lat="43.42382" lon="6.75624">
        <ele>2</ele>
        <time>2016-10-09T08:18:12Z</time>
      </trkpt>
      <trkpt lat="43.42377" lon="6.75616">
        <ele>1.9</ele>
        <time>2016-10-09T08:18:14Z</time>
      </trkpt>
      <trkpt lat="43.42374" lon="6.75605">
        <ele>1.8</ele>
        <time>2016-10-09T08:18:16Z</time>
      </trkpt>
      <trkpt lat="43.4237" lon="6.75594">
        <ele>1.6</ele>
        <time>2016-10-09T08:18:18Z</time>
      </trkpt>
      <trkpt lat="43.42366" lon="6.75582">
        <ele>1.5</ele>
        <time>2016-10-09T08:18:20Z</time>
      </trkpt>
      <trkpt lat="43.42362" lon="6.7557">
        <ele>1.3</ele>
        <time>2016-10-09T08:18:22Z</time>
      </trkpt>
      <trkpt lat="43.42358" lon="6.75558">
        <ele>1.2</ele>
        <time>2016-10-09T08:18:24Z</time>
      </trkpt>
      <trkpt lat="43.42353" lon="6.75545">
        <ele>1</ele>
        <time>2016-10-09T08:18:26Z</time>
      </trkpt>
      <trkpt lat="43.42348" lon="6.75533">
        <ele>0.9</ele>
        <time>2016-10-09T08:18:28Z</time>
      </trkpt>
      <trkpt lat="43.42343" lon="6.75522">
        <ele>0.7</ele>
        <time>2016-10-09T08:18:30Z</time>
      </trkpt>
      <trkpt lat="43.42337" lon="6.75509">
        <ele>0.6</ele>
        <time>2016-10-09T08:18:32Z</time>
      </trkpt>
      <trkpt lat="43.42332" lon="6.75497">
        <ele>0.4</ele>
        <time>2016-10-09T08:18:34Z</time>
      </trkpt>
      <trkpt lat="43.42326" lon="6.75485">
        <ele>0.2</ele>
        <time>2016-10-09T08:18:36Z</time>
      </trkpt>
      <trkpt lat="43.4232" lon="6.75472">
        <ele>0.1</ele>
        <time>2016-10-09T08:18:38Z</time>
      </trkpt>
      <trkpt lat="43.42315" lon="6.7546">
        <ele>0.2</ele>
        <time>2016-10-09T08:18:40Z</time>
      </trkpt>
      <trkpt lat="43.42309" lon="6.75447">
        <ele>0.5</ele>
        <time>2016-10-09T08:18:42Z</time>
      </trkpt>
      <trkpt lat="43.42304" lon="6.75435">
        <ele>0.9</ele>
        <time>2016-10-09T08:18:44Z</time>
      </trkpt>
      <trkpt lat="43.42299" lon="6.75424">
        <ele>1.2</ele>
        <time>2016-10-09T08:18:46Z</time>
      </trkpt>
      <trkpt lat="43.42294" lon="6.75413">
        <ele>1.5</ele>
        <time>2016-10-09T08:18:48Z</time>
      </trkpt>
      <trkpt lat="43.42289" lon="6.75402">
        <ele>1.8</ele>
        <time>2016-10-09T08:18:50Z</time>
      </trkpt>
      <trkpt lat="43.42284" lon="6.75391">
        <ele>2.7</ele>
        <time>2016-10-09T08:18:52Z</time>
      </trkpt>
      <trkpt lat="43.4228" lon="6.75381">
        <ele>3.9</ele>
        <time>2016-10-09T08:18:54Z</time>
      </trkpt>
      <trkpt lat="43.42276" lon="6.7537">
        <ele>4.9</ele>
        <time>2016-10-09T08:18:56Z</time>
      </trkpt>
      <trkpt lat="43.42271" lon="6.75359">
        <ele>6.4</ele>
        <time>2016-10-09T08:18:58Z</time>
      </trkpt>
      <trkpt lat="43.42265" lon="6.75348">
        <ele>7</ele>
        <time>2016-10-09T08:19:00Z</time>
      </trkpt>
      <trkpt lat="43.4226" lon="6.75337">
        <ele>7</ele>
        <time>2016-10-09T08:19:02Z</time>
      </trkpt>
      <trkpt lat="43.42254" lon="6.75325">
        <ele>7</ele>
        <time>2016-10-09T08:19:04Z</time>
      </trkpt>
      <trkpt lat="43.42249" lon="6.75313">
        <ele>7</ele>
        <time>2016-10-09T08:19:06Z</time>
      </trkpt>
      <trkpt lat="43.42244" lon="6.75302">
        <ele>7</ele>
        <time>2016-10-09T08:19:08Z</time>
      </trkpt>
      <trkpt lat="43.42239" lon="6.75291">
        <ele>7</ele>
        <time>2016-10-09T08:19:10Z</time>
      </trkpt>
      <trkpt lat="43.42234" lon="6.75281">
        <ele>7</ele>
        <time>2016-10-09T08:19:12Z</time>
      </trkpt>
      <trkpt lat="43.4223" lon="6.7527">
        <ele>7</ele>
        <time>2016-10-09T08:19:14Z</time>
      </trkpt>
      <trkpt lat="43.42225" lon="6.75258">
        <ele>7.1</ele>
        <time>2016-10-09T08:19:16Z</time>
      </trkpt>
      <trkpt lat="43.4222" lon="6.75247">
        <ele>7.1</ele>
        <time>2016-10-09T08:19:18Z</time>
      </trkpt>
      <trkpt lat="43.42215" lon="6.75236">
        <ele>7.1</ele>
        <time>2016-10-09T08:19:20Z</time>
      </trkpt>
      <trkpt lat="43.42209" lon="6.75224">
        <ele>7.1</ele>
        <time>2016-10-09T08:19:22Z</time>
      </trkpt>
      <trkpt lat="43.42204" lon="6.75212">
        <ele>7.2</ele>
        <time>2016-10-09T08:19:24Z</time>
      </trkpt>
      <trkpt lat="43.42199" lon="6.752">
        <ele>7.3</ele>
        <time>2016-10-09T08:19:26Z</time>
      </trkpt>
      <trkpt lat="43.42193" lon="6.75189">
        <ele>7.4</ele>
        <time>2016-10-09T08:19:28Z</time>
      </trkpt>
      <trkpt lat="43.42188" lon="6.75177">
        <ele>7.7</ele>
        <time>2016-10-09T08:19:30Z</time>
      </trkpt>
      <trkpt lat="43.42183" lon="6.75167">
        <ele>8.2</ele>
        <time>2016-10-09T08:19:32Z</time>
      </trkpt>
      <trkpt lat="43.4218" lon="6.75158">
        <ele>8.5</ele>
        <time>2016-10-09T08:19:34Z</time>
      </trkpt>
      <trkpt lat="43.42176" lon="6.75148">
        <ele>8.8</ele>
        <time>2016-10-09T08:19:36Z</time>
      </trkpt>
      <trkpt lat="43.42172" lon="6.75138">
        <ele>9</ele>
        <time>2016-10-09T08:19:38Z</time>
      </trkpt>
      <trkpt lat="43.42166" lon="6.75128">
        <ele>8.3</ele>
        <time>2016-10-09T08:19:40Z</time>
      </trkpt>
      <trkpt lat="43.42162" lon="6.75117">
        <ele>7.6</ele>
        <time>2016-10-09T08:19:42Z</time>
      </trkpt>
      <trkpt lat="43.42158" lon="6.75108">
        <ele>6.7</ele>
        <time>2016-10-09T08:19:44Z</time>
      </trkpt>
      <trkpt lat="43.42154" lon="6.75099">
        <ele>5.6</ele>
        <time>2016-10-09T08:19:46Z</time>
      </trkpt>
      <trkpt lat="43.42149" lon="6.7509">
        <ele>4.5</ele>
        <time>2016-10-09T08:19:48Z</time>
      </trkpt>
      <trkpt lat="43.42145" lon="6.75081">
        <ele>3.6</ele>
        <time>2016-10-09T08:19:50Z</time>
      </trkpt>
      <trkpt lat="43.4214" lon="6.75072">
        <ele>2.6</ele>
        <time>2016-10-09T08:19:52Z</time>
      </trkpt>
      <trkpt lat="43.42135" lon="6.75063">
        <ele>1.2</ele>
        <time>2016-10-09T08:19:54Z</time>
      </trkpt>
      <trkpt lat="43.42131" lon="6.75055">
        <ele>1</ele>
        <time>2016-10-09T08:19:56Z</time>
      </trkpt>
      <trkpt lat="43.42129" lon="6.7505">
        <ele>1</ele>
        <time>2016-10-09T08:19:58Z</time>
      </trkpt>
      <trkpt lat="43.4213" lon="6.75047">
        <ele>1</ele>
        <time>2016-10-09T08:20:00Z</time>
      </trkpt>
      <trkpt lat="43.42128" lon="6.75044">
        <ele>1</ele>
        <time>2016-10-09T08:20:02Z</time>
      </trkpt>
      <trkpt lat="43.42122" lon="6.75044">
        <ele>1</ele>
        <time>2016-10-09T08:20:04Z</time>
      </trkpt>
      <trkpt lat="43.42114" lon="6.7504">
        <ele>1</ele>
        <time>2016-10-09T08:20:06Z</time>
      </trkpt>
      <trkpt lat="43.42105" lon="6.75035">
        <ele>1</ele>
        <time>2016-10-09T08:20:08Z</time>
      </trkpt>
      <trkpt lat="43.421" lon="6.75026">
        <ele>1</ele>
        <time>2016-10-09T08:20:10Z</time>
      </trkpt>
      <trkpt lat="43.42101" lon="6.75016">
        <ele>1</ele>
        <time>2016-10-09T08:20:12Z</time>
      </trkpt>
      <trkpt lat="43.42102" lon="6.75005">
        <ele>1.1</ele>
        <time>2016-10-09T08:20:14Z</time>
      </trkpt>
      <trkpt lat="43.42104" lon="6.74995">
        <ele>1.3</ele>
        <time>2016-10-09T08:20:16Z</time>
      </trkpt>
      <trkpt lat="43.42107" lon="6.74985">
        <ele>1.3</ele>
        <time>2016-10-09T08:20:18Z</time>
      </trkpt>
      <trkpt lat="43.4211" lon="6.74976">
        <ele>1.3</ele>
        <time>2016-10-09T08:20:20Z</time>
      </trkpt>
      <trkpt lat="43.42114" lon="6.74967">
        <ele>1.4</ele>
        <time>2016-10-09T08:20:22Z</time>
      </trkpt>
      <trkpt lat="43.42116" lon="6.74958">
        <ele>1.3</ele>
        <time>2016-10-09T08:20:24Z</time>
      </trkpt>
      <trkpt lat="43.42116" lon="6.7495">
        <ele>0.9</ele>
        <time>2016-10-09T08:20:26Z</time>
      </trkpt>
      <trkpt lat="43.42116" lon="6.7494">
        <ele>0.5</ele>
        <time>2016-10-09T08:20:28Z</time>
      </trkpt>
      <trkpt lat="43.42118" lon="6.74931">
        <ele>1.2</ele>
        <time>2016-10-09T08:20:30Z</time>
      </trkpt>
      <trkpt lat="43.4212" lon="6.74923">
        <ele>1.3</ele>
        <time>2016-10-09T08:20:32Z</time>
      </trkpt>
      <trkpt lat="43.42123" lon="6.74915">
        <ele>-0.1</ele>
        <time>2016-10-09T08:20:34Z</time>
      </trkpt>
      <trkpt lat="43.42125" lon="6.74908">
        <ele>-0.1</ele>
        <time>2016-10-09T08:20:36Z</time>
      </trkpt>
      <trkpt lat="43.42128" lon="6.74902">
        <ele>-0.1</ele>
        <time>2016-10-09T08:20:38Z</time>
      </trkpt>
      <trkpt lat="43.42133" lon="6.74901">
        <ele>1.3</ele>
        <time>2016-10-09T08:20:40Z</time>
      </trkpt>
      <trkpt lat="43.42138" lon="6.74903">
        <ele>0.1</ele>
        <time>2016-10-09T08:20:42Z</time>
      </trkpt>
      <trkpt lat="43.42144" lon="6.74907">
        <ele>0.4</ele>
        <time>2016-10-09T08:20:44Z</time>
      </trkpt>
      <trkpt lat="43.42146" lon="6.74913">
        <ele>0.6</ele>
        <time>2016-10-09T08:20:46Z</time>
      </trkpt>
      <trkpt lat="43.42146" lon="6.7492">
        <ele>1</ele>
        <time>2016-10-09T08:20:48Z</time>
      </trkpt>
      <trkpt lat="43.4215" lon="6.74921">
        <ele>1</ele>
        <time>2016-10-09T08:20:50Z</time>
      </trkpt>
      <trkpt lat="43.42153" lon="6.74918">
        <ele>1</ele>
        <time>2016-10-09T08:20:52Z</time>
      </trkpt>
      <trkpt lat="43.42156" lon="6.74915">
        <ele>1</ele>
        <time>2016-10-09T08:20:54Z</time>
      </trkpt>
      <trkpt lat="43.42157" lon="6.74913">
        <ele>1</ele>
        <time>2016-10-09T08:20:56Z</time>
      </trkpt>
      <trkpt lat="43.42156" lon="6.7491">
        <ele>1</ele>
        <time>2016-10-09T08:20:58Z</time>
      </trkpt>
      <trkpt lat="43.42161" lon="6.74911">
        <ele>1</ele>
        <time>2016-10-09T08:21:02Z</time>
      </trkpt>
      <trkpt lat="43.4217" lon="6.74914">
        <ele>1.6</ele>
        <time>2016-10-09T08:21:04Z</time>
      </trkpt>
      <trkpt lat="43.42177" lon="6.74909">
        <ele>1.6</ele>
        <time>2016-10-09T08:21:06Z</time>
      </trkpt>
      <trkpt lat="43.42182" lon="6.74902">
        <ele>1.7</ele>
        <time>2016-10-09T08:21:08Z</time>
      </trkpt>
      <trkpt lat="43.42187" lon="6.74894">
        <ele>1.9</ele>
        <time>2016-10-09T08:21:10Z</time>
      </trkpt>
      <trkpt lat="43.42192" lon="6.74887">
        <ele>2.4</ele>
        <time>2016-10-09T08:21:12Z</time>
      </trkpt>
      <trkpt lat="43.42197" lon="6.74881">
        <ele>2.4</ele>
        <time>2016-10-09T08:21:14Z</time>
      </trkpt>
      <trkpt lat="43.42201" lon="6.74874">
        <ele>2.5</ele>
        <time>2016-10-09T08:21:16Z</time>
      </trkpt>
      <trkpt lat="43.42204" lon="6.74867">
        <ele>2</ele>
        <time>2016-10-09T08:21:18Z</time>
      </trkpt>
      <trkpt lat="43.42207" lon="6.74859">
        <ele>2.1</ele>
        <time>2016-10-09T08:21:20Z</time>
      </trkpt>
      <trkpt lat="43.42211" lon="6.74852">
        <ele>2</ele>
        <time>2016-10-09T08:21:22Z</time>
      </trkpt>
      <trkpt lat="43.42217" lon="6.74847">
        <ele>2.4</ele>
        <time>2016-10-09T08:21:24Z</time>
      </trkpt>
      <trkpt lat="43.42223" lon="6.74846">
        <ele>2.4</ele>
        <time>2016-10-09T08:21:26Z</time>
      </trkpt>
      <trkpt lat="43.4223" lon="6.74849">
        <ele>2.3</ele>
        <time>2016-10-09T08:21:28Z</time>
      </trkpt>
      <trkpt lat="43.42236" lon="6.74853">
        <ele>2.3</ele>
        <time>2016-10-09T08:21:30Z</time>
      </trkpt>
      <trkpt lat="43.42242" lon="6.74856">
        <ele>2.3</ele>
        <time>2016-10-09T08:21:32Z</time>
      </trkpt>
      <trkpt lat="43.42246" lon="6.74858">
        <ele>2.2</ele>
        <time>2016-10-09T08:21:34Z</time>
      </trkpt>
      <trkpt lat="43.42254" lon="6.74856">
        <ele>2.2</ele>
        <time>2016-10-09T08:21:36Z</time>
      </trkpt>
      <trkpt lat="43.42259" lon="6.74848">
        <ele>2.2</ele>
        <time>2016-10-09T08:21:38Z</time>
      </trkpt>
      <trkpt lat="43.42264" lon="6.7484">
        <ele>1.5</ele>
        <time>2016-10-09T08:21:40Z</time>
      </trkpt>
      <trkpt lat="43.42268" lon="6.74832">
        <ele>1.3</ele>
        <time>2016-10-09T08:21:42Z</time>
      </trkpt>
      <trkpt lat="43.42273" lon="6.74825">
        <ele>1.2</ele>
        <time>2016-10-09T08:21:44Z</time>
      </trkpt>
      <trkpt lat="43.42278" lon="6.74816">
        <ele>0.9</ele>
        <time>2016-10-09T08:21:46Z</time>
      </trkpt>
      <trkpt lat="43.42282" lon="6.74807">
        <ele>0.2</ele>
        <time>2016-10-09T08:21:48Z</time>
      </trkpt>
      <trkpt lat="43.42284" lon="6.74797">
        <ele>1</ele>
        <time>2016-10-09T08:21:50Z</time>
      </trkpt>
      <trkpt lat="43.42287" lon="6.74788">
        <ele>0.1</ele>
        <time>2016-10-09T08:21:52Z</time>
      </trkpt>
      <trkpt lat="43.42289" lon="6.74778">
        <ele>0.3</ele>
        <time>2016-10-09T08:21:54Z</time>
      </trkpt>
      <trkpt lat="43.42291" lon="6.74768">
        <ele>0.6</ele>
        <time>2016-10-09T08:21:56Z</time>
      </trkpt>
      <trkpt lat="43.42294" lon="6.74759">
        <ele>0.8</ele>
        <time>2016-10-09T08:21:58Z</time>
      </trkpt>
      <trkpt lat="43.42299" lon="6.74754">
        <ele>1</ele>
        <time>2016-10-09T08:22:00Z</time>
      </trkpt>
      <trkpt lat="43.42303" lon="6.7475">
        <ele>1.1</ele>
        <time>2016-10-09T08:22:02Z</time>
      </trkpt>
      <trkpt lat="43.42307" lon="6.74744">
        <ele>1.4</ele>
        <time>2016-10-09T08:22:04Z</time>
      </trkpt>
      <trkpt lat="43.42311" lon="6.74736">
        <ele>1.7</ele>
        <time>2016-10-09T08:22:06Z</time>
      </trkpt>
      <trkpt lat="43.42313" lon="6.74727">
        <ele>2</ele>
        <time>2016-10-09T08:22:08Z</time>
      </trkpt>
      <trkpt lat="43.42311" lon="6.7472">
        <ele>2.3</ele>
        <time>2016-10-09T08:22:10Z</time>
      </trkpt>
      <trkpt lat="43.4231" lon="6.74713">
        <ele>2.6</ele>
        <time>2016-10-09T08:22:12Z</time>
      </trkpt>
      <trkpt lat="43.42308" lon="6.74707">
        <ele>2.9</ele>
        <time>2016-10-09T08:22:14Z</time>
      </trkpt>
      <trkpt lat="43.42307" lon="6.74702">
        <ele>3</ele>
        <time>2016-10-09T08:22:16Z</time>
      </trkpt>
      <trkpt lat="43.42306" lon="6.747">
        <ele>3</ele>
        <time>2016-10-09T08:22:18Z</time>
      </trkpt>
      <trkpt lat="43.42305" lon="6.74699">
        <ele>3</ele>
        <time>2016-10-09T08:22:20Z</time>
      </trkpt>
      <trkpt lat="43.42304" lon="6.74697">
        <ele>3</ele>
        <time>2016-10-09T08:22:22Z</time>
      </trkpt>
      <trkpt lat="43.42304" lon="6.74696">
        <ele>3</ele>
        <time>2016-10-09T08:22:24Z</time>
      </trkpt>
      <trkpt lat="43.42302" lon="6.74694">
        <ele>3</ele>
        <time>2016-10-09T08:22:26Z</time>
      </trkpt>
      <trkpt lat="43.42301" lon="6.74692">
        <ele>3</ele>
        <time>2016-10-09T08:22:28Z</time>
      </trkpt>
      <trkpt lat="43.42301" lon="6.7469">
        <ele>3</ele>
        <time>2016-10-09T08:22:30Z</time>
      </trkpt>
      <trkpt lat="43.423" lon="6.74688">
        <ele>3.1</ele>
        <time>2016-10-09T08:22:32Z</time>
      </trkpt>
      <trkpt lat="43.42299" lon="6.74687">
        <ele>3.2</ele>
        <time>2016-10-09T08:22:36Z</time>
      </trkpt>
      <trkpt lat="43.42299" lon="6.74686">
        <ele>3.3</ele>
        <time>2016-10-09T08:22:38Z</time>
      </trkpt>
      <trkpt lat="43.42298" lon="6.74685">
        <ele>3.4</ele>
        <time>2016-10-09T08:22:40Z</time>
      </trkpt>
      <trkpt lat="43.42297" lon="6.74683">
        <ele>3.5</ele>
        <time>2016-10-09T08:22:42Z</time>
      </trkpt>
      <trkpt lat="43.42296" lon="6.74682">
        <ele>3.6</ele>
        <time>2016-10-09T08:22:44Z</time>
      </trkpt>
      <trkpt lat="43.42296" lon="6.7468">
        <ele>3.7</ele>
        <time>2016-10-09T08:22:46Z</time>
      </trkpt>
      <trkpt lat="43.42296" lon="6.74679">
        <ele>3.8</ele>
        <time>2016-10-09T08:22:48Z</time>
      </trkpt>
      <trkpt lat="43.42295" lon="6.74677">
        <ele>4</ele>
        <time>2016-10-09T08:22:50Z</time>
      </trkpt>
      <trkpt lat="43.42294" lon="6.74675">
        <ele>4.1</ele>
        <time>2016-10-09T08:22:52Z</time>
      </trkpt>
      <trkpt lat="43.42293" lon="6.74673">
        <ele>4.2</ele>
        <time>2016-10-09T08:22:54Z</time>
      </trkpt>
      <trkpt lat="43.42292" lon="6.74672">
        <ele>4.4</ele>
        <time>2016-10-09T08:22:56Z</time>
      </trkpt>
      <trkpt lat="43.42292" lon="6.7467">
        <ele>4.5</ele>
        <time>2016-10-09T08:22:58Z</time>
      </trkpt>
      <trkpt lat="43.42291" lon="6.74669">
        <ele>4.6</ele>
        <time>2016-10-09T08:23:00Z</time>
      </trkpt>
      <trkpt lat="43.4229" lon="6.74667">
        <ele>4.7</ele>
        <time>2016-10-09T08:23:02Z</time>
      </trkpt>
      <trkpt lat="43.42289" lon="6.74666">
        <ele>4.8</ele>
        <time>2016-10-09T08:23:04Z</time>
      </trkpt>
      <trkpt lat="43.42288" lon="6.74664">
        <ele>5</ele>
        <time>2016-10-09T08:23:06Z</time>
      </trkpt>
      <trkpt lat="43.42287" lon="6.74662">
        <ele>5.2</ele>
        <time>2016-10-09T08:23:08Z</time>
      </trkpt>
      <trkpt lat="43.42285" lon="6.74659">
        <ele>5.4</ele>
        <time>2016-10-09T08:23:10Z</time>
      </trkpt>
      <trkpt lat="43.42284" lon="6.74656">
        <ele>5.6</ele>
        <time>2016-10-09T08:23:12Z</time>
      </trkpt>
      <trkpt lat="43.42282" lon="6.74652">
        <ele>6</ele>
        <time>2016-10-09T08:23:20Z</time>
      </trkpt>
      <trkpt lat="43.42279" lon="6.7465">
        <ele>6</ele>
        <time>2016-10-09T08:23:22Z</time>
      </trkpt>
      <trkpt lat="43.42277" lon="6.74647">
        <ele>6</ele>
        <time>2016-10-09T08:23:24Z</time>
      </trkpt>
      <trkpt lat="43.42272" lon="6.74645">
        <ele>6.1</ele>
        <time>2016-10-09T08:23:26Z</time>
      </trkpt>
      <trkpt lat="43.42267" lon="6.74643">
        <ele>6.2</ele>
        <time>2016-10-09T08:23:28Z</time>
      </trkpt>
      <trkpt lat="43.42262" lon="6.74642">
        <ele>6.4</ele>
        <time>2016-10-09T08:23:30Z</time>
      </trkpt>
      <trkpt lat="43.42257" lon="6.74639">
        <ele>6.5</ele>
        <time>2016-10-09T08:23:32Z</time>
      </trkpt>
      <trkpt lat="43.42252" lon="6.74634">
        <ele>6.7</ele>
        <time>2016-10-09T08:23:34Z</time>
      </trkpt>
      <trkpt lat="43.42247" lon="6.74629">
        <ele>6.8</ele>
        <time>2016-10-09T08:23:36Z</time>
      </trkpt>
      <trkpt lat="43.42241" lon="6.74625">
        <ele>7.2</ele>
        <time>2016-10-09T08:23:38Z</time>
      </trkpt>
      <trkpt lat="43.42235" lon="6.74622">
        <ele>7.5</ele>
        <time>2016-10-09T08:23:40Z</time>
      </trkpt>
      <trkpt lat="43.42229" lon="6.74619">
        <ele>7.8</ele>
        <time>2016-10-09T08:23:42Z</time>
      </trkpt>
      <trkpt lat="43.42224" lon="6.74615">
        <ele>7.9</ele>
        <time>2016-10-09T08:23:44Z</time>
      </trkpt>
      <trkpt lat="43.42218" lon="6.74611">
        <ele>7.8</ele>
        <time>2016-10-09T08:23:46Z</time>
      </trkpt>
      <trkpt lat="43.42213" lon="6.74605">
        <ele>7.6</ele>
        <time>2016-10-09T08:23:48Z</time>
      </trkpt>
      <trkpt lat="43.4221" lon="6.74599">
        <ele>7.5</ele>
        <time>2016-10-09T08:23:50Z</time>
      </trkpt>
      <trkpt lat="43.42205" lon="6.74595">
        <ele>7.4</ele>
        <time>2016-10-09T08:23:52Z</time>
      </trkpt>
      <trkpt lat="43.42199" lon="6.74593">
        <ele>7.2</ele>
        <time>2016-10-09T08:23:54Z</time>
      </trkpt>
      <trkpt lat="43.42192" lon="6.74593">
        <ele>6.9</ele>
        <time>2016-10-09T08:23:56Z</time>
      </trkpt>
      <trkpt lat="43.42186" lon="6.74597">
        <ele>6.6</ele>
        <time>2016-10-09T08:23:58Z</time>
      </trkpt>
      <trkpt lat="43.42183" lon="6.74606">
        <ele>5.2</ele>
        <time>2016-10-09T08:24:00Z</time>
      </trkpt>
      <trkpt lat="43.4218" lon="6.74615">
        <ele>4.7</ele>
        <time>2016-10-09T08:24:02Z</time>
      </trkpt>
      <trkpt lat="43.42177" lon="6.74624">
        <ele>4.4</ele>
        <time>2016-10-09T08:24:04Z</time>
      </trkpt>
      <trkpt lat="43.42174" lon="6.74632">
        <ele>4.1</ele>
        <time>2016-10-09T08:24:06Z</time>
      </trkpt>
      <trkpt lat="43.4217" lon="6.74641">
        <ele>3.9</ele>
        <time>2016-10-09T08:24:08Z</time>
      </trkpt>
      <trkpt lat="43.42167" lon="6.74649">
        <ele>3.7</ele>
        <time>2016-10-09T08:24:10Z</time>
      </trkpt>
      <trkpt lat="43.42164" lon="6.74659">
        <ele>3.5</ele>
        <time>2016-10-09T08:24:12Z</time>
      </trkpt>
      <trkpt lat="43.42161" lon="6.74668">
        <ele>3.3</ele>
        <time>2016-10-09T08:24:14Z</time>
      </trkpt>
      <trkpt lat="43.42157" lon="6.74677">
        <ele>3.1</ele>
        <time>2016-10-09T08:24:16Z</time>
      </trkpt>
      <trkpt lat="43.42151" lon="6.74684">
        <ele>2.1</ele>
        <time>2016-10-09T08:24:18Z</time>
      </trkpt>
      <trkpt lat="43.42145" lon="6.74691">
        <ele>1.9</ele>
        <time>2016-10-09T08:24:20Z</time>
      </trkpt>
      <trkpt lat="43.4214" lon="6.74699">
        <ele>1.6</ele>
        <time>2016-10-09T08:24:22Z</time>
      </trkpt>
      <trkpt lat="43.42135" lon="6.74708">
        <ele>1.4</ele>
        <time>2016-10-09T08:24:24Z</time>
      </trkpt>
      <trkpt lat="43.4213" lon="6.74717">
        <ele>1.7</ele>
        <time>2016-10-09T08:24:26Z</time>
      </trkpt>
      <trkpt lat="43.42123" lon="6.74718">
        <ele>2</ele>
        <time>2016-10-09T08:24:28Z</time>
      </trkpt>
      <trkpt lat="43.42117" lon="6.74714">
        <ele>2.5</ele>
        <time>2016-10-09T08:24:30Z</time>
      </trkpt>
      <trkpt lat="43.4211" lon="6.7471">
        <ele>3.1</ele>
        <time>2016-10-09T08:24:32Z</time>
      </trkpt>
      <trkpt lat="43.42104" lon="6.74704">
        <ele>3.3</ele>
        <time>2016-10-09T08:24:34Z</time>
      </trkpt>
      <trkpt lat="43.42097" lon="6.747">
        <ele>3.5</ele>
        <time>2016-10-09T08:24:36Z</time>
      </trkpt>
      <trkpt lat="43.4209" lon="6.74696">
        <ele>3.6</ele>
        <time>2016-10-09T08:24:38Z</time>
      </trkpt>
      <trkpt lat="43.42083" lon="6.74693">
        <ele>3.8</ele>
        <time>2016-10-09T08:24:40Z</time>
      </trkpt>
      <trkpt lat="43.42069" lon="6.74686">
        <ele>4.4</ele>
        <time>2016-10-09T08:24:44Z</time>
      </trkpt>
      <trkpt lat="43.42061" lon="6.74687">
        <ele>6.2</ele>
        <time>2016-10-09T08:24:46Z</time>
      </trkpt>
      <trkpt lat="43.42054" lon="6.74689">
        <ele>6.4</ele>
        <time>2016-10-09T08:24:48Z</time>
      </trkpt>
      <trkpt lat="43.42046" lon="6.74687">
        <ele>6.3</ele>
        <time>2016-10-09T08:24:50Z</time>
      </trkpt>
      <trkpt lat="43.4204" lon="6.74689">
        <ele>6.7</ele>
        <time>2016-10-09T08:24:52Z</time>
      </trkpt>
      <trkpt lat="43.42036" lon="6.74698">
        <ele>6.3</ele>
        <time>2016-10-09T08:24:54Z</time>
      </trkpt>
      <trkpt lat="43.42033" lon="6.74708">
        <ele>6</ele>
        <time>2016-10-09T08:24:56Z</time>
      </trkpt>
      <trkpt lat="43.42029" lon="6.74718">
        <ele>6</ele>
        <time>2016-10-09T08:24:58Z</time>
      </trkpt>
      <trkpt lat="43.42026" lon="6.74728">
        <ele>6</ele>
        <time>2016-10-09T08:25:00Z</time>
      </trkpt>
      <trkpt lat="43.42022" lon="6.74738">
        <ele>6</ele>
        <time>2016-10-09T08:25:02Z</time>
      </trkpt>
      <trkpt lat="43.42019" lon="6.74748">
        <ele>6</ele>
        <time>2016-10-09T08:25:04Z</time>
      </trkpt>
      <trkpt lat="43.42016" lon="6.74758">
        <ele>6</ele>
        <time>2016-10-09T08:25:06Z</time>
      </trkpt>
      <trkpt lat="43.42012" lon="6.74767">
        <ele>6</ele>
        <time>2016-10-09T08:25:08Z</time>
      </trkpt>
      <trkpt lat="43.42009" lon="6.74776">
        <ele>6</ele>
        <time>2016-10-09T08:25:10Z</time>
      </trkpt>
      <trkpt lat="43.42006" lon="6.74785">
        <ele>5.9</ele>
        <time>2016-10-09T08:25:12Z</time>
      </trkpt>
      <trkpt lat="43.42002" lon="6.74793">
        <ele>5.8</ele>
        <time>2016-10-09T08:25:14Z</time>
      </trkpt>
      <trkpt lat="43.41995" lon="6.74797">
        <ele>6</ele>
        <time>2016-10-09T08:25:16Z</time>
      </trkpt>
      <trkpt lat="43.41987" lon="6.74798">
        <ele>6.1</ele>
        <time>2016-10-09T08:25:18Z</time>
      </trkpt>
      <trkpt lat="43.4198" lon="6.74798">
        <ele>6.1</ele>
        <time>2016-10-09T08:25:20Z</time>
      </trkpt>
      <trkpt lat="43.41974" lon="6.74798">
        <ele>6.3</ele>
        <time>2016-10-09T08:25:22Z</time>
      </trkpt>
      <trkpt lat="43.41969" lon="6.74796">
        <ele>6.2</ele>
        <time>2016-10-09T08:25:24Z</time>
      </trkpt>
      <trkpt lat="43.41966" lon="6.74795">
        <ele>6</ele>
        <time>2016-10-09T08:25:26Z</time>
      </trkpt>
      <trkpt lat="43.41964" lon="6.74794">
        <ele>6</ele>
        <time>2016-10-09T08:25:30Z</time>
      </trkpt>
      <trkpt lat="43.41962" lon="6.74791">
        <ele>5.9</ele>
        <time>2016-10-09T08:25:34Z</time>
      </trkpt>
      <trkpt lat="43.4196" lon="6.74788">
        <ele>5.8</ele>
        <time>2016-10-09T08:25:36Z</time>
      </trkpt>
      <trkpt lat="43.41958" lon="6.74783">
        <ele>5.7</ele>
        <time>2016-10-09T08:25:38Z</time>
      </trkpt>
      <trkpt lat="43.41955" lon="6.74777">
        <ele>5.5</ele>
        <time>2016-10-09T08:25:40Z</time>
      </trkpt>
      <trkpt lat="43.41952" lon="6.7477">
        <ele>5.3</ele>
        <time>2016-10-09T08:25:42Z</time>
      </trkpt>
      <trkpt lat="43.4195" lon="6.74763">
        <ele>5.1</ele>
        <time>2016-10-09T08:25:44Z</time>
      </trkpt>
      <trkpt lat="43.41949" lon="6.74755">
        <ele>4.9</ele>
        <time>2016-10-09T08:25:46Z</time>
      </trkpt>
      <trkpt lat="43.41947" lon="6.74746">
        <ele>4.7</ele>
        <time>2016-10-09T08:25:48Z</time>
      </trkpt>
      <trkpt lat="43.41944" lon="6.74738">
        <ele>4.5</ele>
        <time>2016-10-09T08:25:50Z</time>
      </trkpt>
      <trkpt lat="43.4194" lon="6.74731">
        <ele>4.4</ele>
        <time>2016-10-09T08:25:52Z</time>
      </trkpt>
      <trkpt lat="43.41937" lon="6.74723">
        <ele>4.2</ele>
        <time>2016-10-09T08:25:54Z</time>
      </trkpt>
      <trkpt lat="43.41934" lon="6.74716">
        <ele>4.1</ele>
        <time>2016-10-09T08:25:56Z</time>
      </trkpt>
      <trkpt lat="43.41932" lon="6.7471">
        <ele>4</ele>
        <time>2016-10-09T08:25:58Z</time>
      </trkpt>
      <trkpt lat="43.41931" lon="6.74707">
        <ele>3.9</ele>
        <time>2016-10-09T08:26:00Z</time>
      </trkpt>
      <trkpt lat="43.41932" lon="6.74702">
        <ele>3.7</ele>
        <time>2016-10-09T08:26:02Z</time>
      </trkpt>
      <trkpt lat="43.41936" lon="6.74696">
        <ele>3.5</ele>
        <time>2016-10-09T08:26:04Z</time>
      </trkpt>
      <trkpt lat="43.41941" lon="6.7469">
        <ele>3.2</ele>
        <time>2016-10-09T08:26:06Z</time>
      </trkpt>
      <trkpt lat="43.41942" lon="6.7468">
        <ele>3</ele>
        <time>2016-10-09T08:26:08Z</time>
      </trkpt>
      <trkpt lat="43.41938" lon="6.74669">
        <ele>3</ele>
        <time>2016-10-09T08:26:10Z</time>
      </trkpt>
      <trkpt lat="43.41933" lon="6.7466">
        <ele>3</ele>
        <time>2016-10-09T08:26:12Z</time>
      </trkpt>
      <trkpt lat="43.41931" lon="6.74649">
        <ele>3.8</ele>
        <time>2016-10-09T08:26:14Z</time>
      </trkpt>
      <trkpt lat="43.41931" lon="6.74637">
        <ele>3.8</ele>
        <time>2016-10-09T08:26:16Z</time>
      </trkpt>
      <trkpt lat="43.41933" lon="6.74625">
        <ele>3.5</ele>
        <time>2016-10-09T08:26:18Z</time>
      </trkpt>
      <trkpt lat="43.41936" lon="6.74614">
        <ele>3.2</ele>
        <time>2016-10-09T08:26:20Z</time>
      </trkpt>
      <trkpt lat="43.41938" lon="6.74604">
        <ele>2.9</ele>
        <time>2016-10-09T08:26:22Z</time>
      </trkpt>
      <trkpt lat="43.41934" lon="6.74598">
        <ele>2.7</ele>
        <time>2016-10-09T08:26:24Z</time>
      </trkpt>
      <trkpt lat="43.4193" lon="6.74591">
        <ele>2.6</ele>
        <time>2016-10-09T08:26:26Z</time>
      </trkpt>
      <trkpt lat="43.41927" lon="6.74582">
        <ele>2</ele>
        <time>2016-10-09T08:26:28Z</time>
      </trkpt>
      <trkpt lat="43.41922" lon="6.74575">
        <ele>2</ele>
        <time>2016-10-09T08:26:30Z</time>
      </trkpt>
      <trkpt lat="43.41921" lon="6.7457">
        <ele>2</ele>
        <time>2016-10-09T08:26:32Z</time>
      </trkpt>
      <trkpt lat="43.41922" lon="6.74565">
        <ele>2</ele>
        <time>2016-10-09T08:26:34Z</time>
      </trkpt>
      <trkpt lat="43.41923" lon="6.74561">
        <ele>2</ele>
        <time>2016-10-09T08:26:36Z</time>
      </trkpt>
      <trkpt lat="43.41926" lon="6.74558">
        <ele>2</ele>
        <time>2016-10-09T08:26:38Z</time>
      </trkpt>
      <trkpt lat="43.4193" lon="6.74553">
        <ele>2</ele>
        <time>2016-10-09T08:26:40Z</time>
      </trkpt>
      <trkpt lat="43.41933" lon="6.74545">
        <ele>2</ele>
        <time>2016-10-09T08:26:42Z</time>
      </trkpt>
      <trkpt lat="43.41934" lon="6.74536">
        <ele>1.9</ele>
        <time>2016-10-09T08:26:44Z</time>
      </trkpt>
      <trkpt lat="43.41935" lon="6.74525">
        <ele>1.6</ele>
        <time>2016-10-09T08:26:46Z</time>
      </trkpt>
      <trkpt lat="43.41935" lon="6.74513">
        <ele>1.3</ele>
        <time>2016-10-09T08:26:48Z</time>
      </trkpt>
      <trkpt lat="43.41932" lon="6.745">
        <ele>0.8</ele>
        <time>2016-10-09T08:26:50Z</time>
      </trkpt>
      <trkpt lat="43.41926" lon="6.7449">
        <ele>0.3</ele>
        <time>2016-10-09T08:26:52Z</time>
      </trkpt>
      <trkpt lat="43.4192" lon="6.7448">
        <ele>2</ele>
        <time>2016-10-09T08:26:54Z</time>
      </trkpt>
      <trkpt lat="43.41914" lon="6.74469">
        <ele>-0.2</ele>
        <time>2016-10-09T08:26:56Z</time>
      </trkpt>
      <trkpt lat="43.41908" lon="6.74459">
        <ele>-0.3</ele>
        <time>2016-10-09T08:26:58Z</time>
      </trkpt>
      <trkpt lat="43.41901" lon="6.74448">
        <ele>0.1</ele>
        <time>2016-10-09T08:27:00Z</time>
      </trkpt>
      <trkpt lat="43.41896" lon="6.74438">
        <ele>0.9</ele>
        <time>2016-10-09T08:27:02Z</time>
      </trkpt>
      <trkpt lat="43.4189" lon="6.74428">
        <ele>1.7</ele>
        <time>2016-10-09T08:27:04Z</time>
      </trkpt>
      <trkpt lat="43.41883" lon="6.74417">
        <ele>2.1</ele>
        <time>2016-10-09T08:27:06Z</time>
      </trkpt>
      <trkpt lat="43.41877" lon="6.74407">
        <ele>2.2</ele>
        <time>2016-10-09T08:27:08Z</time>
      </trkpt>
      <trkpt lat="43.41871" lon="6.74398">
        <ele>2.4</ele>
        <time>2016-10-09T08:27:10Z</time>
      </trkpt>
      <trkpt lat="43.41866" lon="6.7439">
        <ele>2.6</ele>
        <time>2016-10-09T08:27:12Z</time>
      </trkpt>
      <trkpt lat="43.4186" lon="6.74382">
        <ele>2.8</ele>
        <time>2016-10-09T08:27:14Z</time>
      </trkpt>
      <trkpt lat="43.41855" lon="6.74373">
        <ele>2.9</ele>
        <time>2016-10-09T08:27:16Z</time>
      </trkpt>
      <trkpt lat="43.41851" lon="6.74363">
        <ele>2.7</ele>
        <time>2016-10-09T08:27:18Z</time>
      </trkpt>
      <trkpt lat="43.41847" lon="6.74354">
        <ele>2.4</ele>
        <time>2016-10-09T08:27:20Z</time>
      </trkpt>
      <trkpt lat="43.41843" lon="6.74344">
        <ele>2.2</ele>
        <time>2016-10-09T08:27:22Z</time>
      </trkpt>
      <trkpt lat="43.41839" lon="6.74337">
        <ele>2</ele>
        <time>2016-10-09T08:27:24Z</time>
      </trkpt>
      <trkpt lat="43.41834" lon="6.74332">
        <ele>2</ele>
        <time>2016-10-09T08:27:26Z</time>
      </trkpt>
      <trkpt lat="43.41831" lon="6.74327">
        <ele>5</ele>
        <time>2016-10-09T08:27:28Z</time>
      </trkpt>
      <trkpt lat="43.41827" lon="6.7432">
        <ele>8</ele>
        <time>2016-10-09T08:27:30Z</time>
      </trkpt>
      <trkpt lat="43.41822" lon="6.74313">
        <ele>8</ele>
        <time>2016-10-09T08:27:32Z</time>
      </trkpt>
      <trkpt lat="43.41816" lon="6.74305">
        <ele>8</ele>
        <time>2016-10-09T08:27:34Z</time>
      </trkpt>
      <trkpt lat="43.4181" lon="6.74297">
        <ele>8</ele>
        <time>2016-10-09T08:27:36Z</time>
      </trkpt>
      <trkpt lat="43.41805" lon="6.74289">
        <ele>8</ele>
        <time>2016-10-09T08:27:38Z</time>
      </trkpt>
      <trkpt lat="43.41803" lon="6.74279">
        <ele>8</ele>
        <time>2016-10-09T08:27:40Z</time>
      </trkpt>
      <trkpt lat="43.41806" lon="6.74269">
        <ele>7.3</ele>
        <time>2016-10-09T08:27:42Z</time>
      </trkpt>
      <trkpt lat="43.41812" lon="6.74261">
        <ele>6.7</ele>
        <time>2016-10-09T08:27:44Z</time>
      </trkpt>
      <trkpt lat="43.41818" lon="6.74254">
        <ele>6.1</ele>
        <time>2016-10-09T08:27:46Z</time>
      </trkpt>
      <trkpt lat="43.41824" lon="6.74247">
        <ele>5.6</ele>
        <time>2016-10-09T08:27:48Z</time>
      </trkpt>
      <trkpt lat="43.4183" lon="6.74239">
        <ele>5</ele>
        <time>2016-10-09T08:27:50Z</time>
      </trkpt>
      <trkpt lat="43.41835" lon="6.74232">
        <ele>4</ele>
        <time>2016-10-09T08:27:52Z</time>
      </trkpt>
      <trkpt lat="43.41835" lon="6.74223">
        <ele>4</ele>
        <time>2016-10-09T08:27:54Z</time>
      </trkpt>
      <trkpt lat="43.41834" lon="6.74216">
        <ele>5.7</ele>
        <time>2016-10-09T08:27:56Z</time>
      </trkpt>
      <trkpt lat="43.41832" lon="6.74211">
        <ele>7</ele>
        <time>2016-10-09T08:27:58Z</time>
      </trkpt>
      <trkpt lat="43.41832" lon="6.74208">
        <ele>7.6</ele>
        <time>2016-10-09T08:28:00Z</time>
      </trkpt>
      <trkpt lat="43.41831" lon="6.74206">
        <ele>8</ele>
        <time>2016-10-09T08:28:04Z</time>
      </trkpt>
      <trkpt lat="43.41828" lon="6.742">
        <ele>7.5</ele>
        <time>2016-10-09T08:28:54Z</time>
      </trkpt>
      <trkpt lat="43.41822" lon="6.74196">
        <ele>7.2</ele>
        <time>2016-10-09T08:28:56Z</time>
      </trkpt>
      <trkpt lat="43.41814" lon="6.74189">
        <ele>6.5</ele>
        <time>2016-10-09T08:28:58Z</time>
      </trkpt>
      <trkpt lat="43.41811" lon="6.74182">
        <ele>6.3</ele>
        <time>2016-10-09T08:29:00Z</time>
      </trkpt>
      <trkpt lat="43.41806" lon="6.74175">
        <ele>6.1</ele>
        <time>2016-10-09T08:29:02Z</time>
      </trkpt>
      <trkpt lat="43.41802" lon="6.74168">
        <ele>5.9</ele>
        <time>2016-10-09T08:29:04Z</time>
      </trkpt>
      <trkpt lat="43.41799" lon="6.74161">
        <ele>5.8</ele>
        <time>2016-10-09T08:29:06Z</time>
      </trkpt>
      <trkpt lat="43.41797" lon="6.74154">
        <ele>5.6</ele>
        <time>2016-10-09T08:29:08Z</time>
      </trkpt>
      <trkpt lat="43.41794" lon="6.74149">
        <ele>5.3</ele>
        <time>2016-10-09T08:29:10Z</time>
      </trkpt>
      <trkpt lat="43.41791" lon="6.74146">
        <ele>5.1</ele>
        <time>2016-10-09T08:29:12Z</time>
      </trkpt>
      <trkpt lat="43.41788" lon="6.74141">
        <ele>4.8</ele>
        <time>2016-10-09T08:29:14Z</time>
      </trkpt>
      <trkpt lat="43.41785" lon="6.74137">
        <ele>4.6</ele>
        <time>2016-10-09T08:29:16Z</time>
      </trkpt>
      <trkpt lat="43.41783" lon="6.74131">
        <ele>4.1</ele>
        <time>2016-10-09T08:29:18Z</time>
      </trkpt>
      <trkpt lat="43.41783" lon="6.74126">
        <ele>3.8</ele>
        <time>2016-10-09T08:29:20Z</time>
      </trkpt>
      <trkpt lat="43.41782" lon="6.7412">
        <ele>3.5</ele>
        <time>2016-10-09T08:29:22Z</time>
      </trkpt>
      <trkpt lat="43.41782" lon="6.74116">
        <ele>3.1</ele>
        <time>2016-10-09T08:29:24Z</time>
      </trkpt>
      <trkpt lat="43.41782" lon="6.74111">
        <ele>2.7</ele>
        <time>2016-10-09T08:29:26Z</time>
      </trkpt>
      <trkpt lat="43.41782" lon="6.74106">
        <ele>2.2</ele>
        <time>2016-10-09T08:29:28Z</time>
      </trkpt>
      <trkpt lat="43.41784" lon="6.741">
        <ele>0.8</ele>
        <time>2016-10-09T08:29:30Z</time>
      </trkpt>
      <trkpt lat="43.41787" lon="6.74094">
        <ele>1.4</ele>
        <time>2016-10-09T08:29:32Z</time>
      </trkpt>
      <trkpt lat="43.41788" lon="6.74088">
        <ele>-1.1</ele>
        <time>2016-10-09T08:29:34Z</time>
      </trkpt>
      <trkpt lat="43.41788" lon="6.74083">
        <ele>-1.5</ele>
        <time>2016-10-09T08:29:36Z</time>
      </trkpt>
      <trkpt lat="43.41792" lon="6.74079">
        <ele>-2</ele>
        <time>2016-10-09T08:29:38Z</time>
      </trkpt>
      <trkpt lat="43.41796" lon="6.74076">
        <ele>-1.8</ele>
        <time>2016-10-09T08:29:40Z</time>
      </trkpt>
      <trkpt lat="43.418" lon="6.74074">
        <ele>-1.7</ele>
        <time>2016-10-09T08:29:42Z</time>
      </trkpt>
      <trkpt lat="43.41805" lon="6.74073">
        <ele>-1.5</ele>
        <time>2016-10-09T08:29:44Z</time>
      </trkpt>
      <trkpt lat="43.41808" lon="6.74072">
        <ele>-1.4</ele>
        <time>2016-10-09T08:29:46Z</time>
      </trkpt>
      <trkpt lat="43.41813" lon="6.74072">
        <ele>-1.3</ele>
        <time>2016-10-09T08:29:48Z</time>
      </trkpt>
      <trkpt lat="43.41818" lon="6.74074">
        <ele>-1.2</ele>
        <time>2016-10-09T08:29:50Z</time>
      </trkpt>
      <trkpt lat="43.41822" lon="6.74076">
        <ele>-1.1</ele>
        <time>2016-10-09T08:29:52Z</time>
      </trkpt>
      <trkpt lat="43.41827" lon="6.74078">
        <ele>-1</ele>
        <time>2016-10-09T08:29:54Z</time>
      </trkpt>
      <trkpt lat="43.41832" lon="6.74079">
        <ele>-0.9</ele>
        <time>2016-10-09T08:29:56Z</time>
      </trkpt>
      <trkpt lat="43.41836" lon="6.74081">
        <ele>-0.9</ele>
        <time>2016-10-09T08:29:58Z</time>
      </trkpt>
      <trkpt lat="43.4184" lon="6.74085">
        <ele>-0.8</ele>
        <time>2016-10-09T08:30:00Z</time>
      </trkpt>
      <trkpt lat="43.41844" lon="6.74086">
        <ele>-0.7</ele>
        <time>2016-10-09T08:30:02Z</time>
      </trkpt>
      <trkpt lat="43.41849" lon="6.74087">
        <ele>-0.7</ele>
        <time>2016-10-09T08:30:04Z</time>
      </trkpt>
      <trkpt lat="43.41854" lon="6.74085">
        <ele>-0.6</ele>
        <time>2016-10-09T08:30:06Z</time>
      </trkpt>
      <trkpt lat="43.41858" lon="6.74085">
        <ele>-0.5</ele>
        <time>2016-10-09T08:30:08Z</time>
      </trkpt>
      <trkpt lat="43.41863" lon="6.74084">
        <ele>-0.5</ele>
        <time>2016-10-09T08:30:10Z</time>
      </trkpt>
      <trkpt lat="43.41868" lon="6.74082">
        <ele>-0.4</ele>
        <time>2016-10-09T08:30:12Z</time>
      </trkpt>
      <trkpt lat="43.41874" lon="6.74083">
        <ele>-0.4</ele>
        <time>2016-10-09T08:30:14Z</time>
      </trkpt>
      <trkpt lat="43.41879" lon="6.74082">
        <ele>-0.3</ele>
        <time>2016-10-09T08:30:16Z</time>
      </trkpt>
      <trkpt lat="43.41885" lon="6.74081">
        <ele>-0.2</ele>
        <time>2016-10-09T08:30:18Z</time>
      </trkpt>
      <trkpt lat="43.41891" lon="6.74081">
        <ele>-0.1</ele>
        <time>2016-10-09T08:30:20Z</time>
      </trkpt>
      <trkpt lat="43.41896" lon="6.74081">
        <ele>1</ele>
        <time>2016-10-09T08:30:22Z</time>
      </trkpt>
      <trkpt lat="43.41901" lon="6.74082">
        <ele>0.1</ele>
        <time>2016-10-09T08:30:24Z</time>
      </trkpt>
      <trkpt lat="43.41906" lon="6.74079">
        <ele>0.2</ele>
        <time>2016-10-09T08:30:26Z</time>
      </trkpt>
      <trkpt lat="43.41911" lon="6.74075">
        <ele>0.3</ele>
        <time>2016-10-09T08:30:28Z</time>
      </trkpt>
      <trkpt lat="43.41916" lon="6.74071">
        <ele>0.4</ele>
        <time>2016-10-09T08:30:30Z</time>
      </trkpt>
      <trkpt lat="43.41921" lon="6.7407">
        <ele>0.5</ele>
        <time>2016-10-09T08:30:32Z</time>
      </trkpt>
      <trkpt lat="43.41925" lon="6.74068">
        <ele>0.6</ele>
        <time>2016-10-09T08:30:34Z</time>
      </trkpt>
      <trkpt lat="43.41929" lon="6.74065">
        <ele>0.7</ele>
        <time>2016-10-09T08:30:36Z</time>
      </trkpt>
      <trkpt lat="43.41933" lon="6.74062">
        <ele>0.8</ele>
        <time>2016-10-09T08:30:38Z</time>
      </trkpt>
      <trkpt lat="43.41937" lon="6.74059">
        <ele>0.9</ele>
        <time>2016-10-09T08:30:40Z</time>
      </trkpt>
      <trkpt lat="43.41943" lon="6.74057">
        <ele>1.1</ele>
        <time>2016-10-09T08:30:42Z</time>
      </trkpt>
      <trkpt lat="43.41948" lon="6.74053">
        <ele>1.4</ele>
        <time>2016-10-09T08:30:44Z</time>
      </trkpt>
      <trkpt lat="43.41953" lon="6.74048">
        <ele>1.7</ele>
        <time>2016-10-09T08:30:46Z</time>
      </trkpt>
      <trkpt lat="43.41957" lon="6.74043">
        <ele>2</ele>
        <time>2016-10-09T08:30:48Z</time>
      </trkpt>
      <trkpt lat="43.4196" lon="6.7404">
        <ele>2</ele>
        <time>2016-10-09T08:30:50Z</time>
      </trkpt>
      <trkpt lat="43.41964" lon="6.74036">
        <ele>2</ele>
        <time>2016-10-09T08:30:52Z</time>
      </trkpt>
      <trkpt lat="43.41968" lon="6.74033">
        <ele>2</ele>
        <time>2016-10-09T08:30:54Z</time>
      </trkpt>
      <trkpt lat="43.41972" lon="6.74029">
        <ele>2</ele>
        <time>2016-10-09T08:30:56Z</time>
      </trkpt>
      <trkpt lat="43.41976" lon="6.74024">
        <ele>2</ele>
        <time>2016-10-09T08:30:58Z</time>
      </trkpt>
      <trkpt lat="43.41979" lon="6.74017">
        <ele>2</ele>
        <time>2016-10-09T08:31:00Z</time>
      </trkpt>
      <trkpt lat="43.41982" lon="6.74012">
        <ele>2</ele>
        <time>2016-10-09T08:31:02Z</time>
      </trkpt>
      <trkpt lat="43.41985" lon="6.74008">
        <ele>2</ele>
        <time>2016-10-09T08:31:04Z</time>
      </trkpt>
      <trkpt lat="43.4199" lon="6.74006">
        <ele>2</ele>
        <time>2016-10-09T08:31:06Z</time>
      </trkpt>
      <trkpt lat="43.41995" lon="6.74004">
        <ele>2</ele>
        <time>2016-10-09T08:31:08Z</time>
      </trkpt>
      <trkpt lat="43.41999" lon="6.73999">
        <ele>2</ele>
        <time>2016-10-09T08:31:10Z</time>
      </trkpt>
      <trkpt lat="43.42001" lon="6.73991">
        <ele>2</ele>
        <time>2016-10-09T08:31:12Z</time>
      </trkpt>
      <trkpt lat="43.42004" lon="6.73984">
        <ele>2.1</ele>
        <time>2016-10-09T08:31:14Z</time>
      </trkpt>
      <trkpt lat="43.42007" lon="6.73976">
        <ele>2.3</ele>
        <time>2016-10-09T08:31:16Z</time>
      </trkpt>
      <trkpt lat="43.42011" lon="6.7397">
        <ele>2.4</ele>
        <time>2016-10-09T08:31:18Z</time>
      </trkpt>
      <trkpt lat="43.42014" lon="6.73966">
        <ele>2.5</ele>
        <time>2016-10-09T08:31:20Z</time>
      </trkpt>
      <trkpt lat="43.42016" lon="6.73962">
        <ele>2.5</ele>
        <time>2016-10-09T08:31:22Z</time>
      </trkpt>
      <trkpt lat="43.42017" lon="6.73959">
        <ele>2.5</ele>
        <time>2016-10-09T08:31:24Z</time>
      </trkpt>
      <trkpt lat="43.4202" lon="6.73954">
        <ele>2.4</ele>
        <time>2016-10-09T08:31:26Z</time>
      </trkpt>
      <trkpt lat="43.42024" lon="6.73948">
        <ele>2.2</ele>
        <time>2016-10-09T08:31:28Z</time>
      </trkpt>
      <trkpt lat="43.42027" lon="6.73942">
        <ele>1.9</ele>
        <time>2016-10-09T08:31:30Z</time>
      </trkpt>
      <trkpt lat="43.42028" lon="6.73935">
        <ele>1.6</ele>
        <time>2016-10-09T08:31:32Z</time>
      </trkpt>
      <trkpt lat="43.42032" lon="6.73929">
        <ele>1.2</ele>
        <time>2016-10-09T08:31:34Z</time>
      </trkpt>
      <trkpt lat="43.42035" lon="6.73923">
        <ele>0.8</ele>
        <time>2016-10-09T08:31:36Z</time>
      </trkpt>
      <trkpt lat="43.42038" lon="6.73919">
        <ele>0.6</ele>
        <time>2016-10-09T08:31:38Z</time>
      </trkpt>
      <trkpt lat="43.42041" lon="6.73914">
        <ele>0.6</ele>
        <time>2016-10-09T08:31:40Z</time>
      </trkpt>
      <trkpt lat="43.42043" lon="6.7391">
        <ele>0.6</ele>
        <time>2016-10-09T08:31:42Z</time>
      </trkpt>
      <trkpt lat="43.42045" lon="6.73905">
        <ele>0.7</ele>
        <time>2016-10-09T08:31:44Z</time>
      </trkpt>
      <trkpt lat="43.42047" lon="6.73901">
        <ele>0.9</ele>
        <time>2016-10-09T08:31:46Z</time>
      </trkpt>
      <trkpt lat="43.4205" lon="6.73897">
        <ele>1.2</ele>
        <time>2016-10-09T08:31:48Z</time>
      </trkpt>
      <trkpt lat="43.42053" lon="6.73894">
        <ele>1.4</ele>
        <time>2016-10-09T08:31:50Z</time>
      </trkpt>
      <trkpt lat="43.42056" lon="6.73893">
        <ele>1.5</ele>
        <time>2016-10-09T08:31:52Z</time>
      </trkpt>
      <trkpt lat="43.42057" lon="6.73891">
        <ele>1.6</ele>
        <time>2016-10-09T08:31:54Z</time>
      </trkpt>
      <trkpt lat="43.42057" lon="6.73887">
        <ele>1.7</ele>
        <time>2016-10-09T08:31:56Z</time>
      </trkpt>
      <trkpt lat="43.42057" lon="6.73884">
        <ele>1.8</ele>
        <time>2016-10-09T08:31:58Z</time>
      </trkpt>
      <trkpt lat="43.42058" lon="6.73877">
        <ele>1.9</ele>
        <time>2016-10-09T08:36:56Z</time>
      </trkpt>
      <trkpt lat="43.42056" lon="6.73869">
        <ele>1.9</ele>
        <time>2016-10-09T08:36:58Z</time>
      </trkpt>
      <trkpt lat="43.42054" lon="6.73864">
        <ele>1.9</ele>
        <time>2016-10-09T08:37:00Z</time>
      </trkpt>
      <trkpt lat="43.42053" lon="6.73859">
        <ele>1.8</ele>
        <time>2016-10-09T08:37:02Z</time>
      </trkpt>
      <trkpt lat="43.42053" lon="6.73855">
        <ele>1.8</ele>
        <time>2016-10-09T08:37:04Z</time>
      </trkpt>
      <trkpt lat="43.42051" lon="6.73853">
        <ele>1.8</ele>
        <time>2016-10-09T08:37:06Z</time>
      </trkpt>
      <trkpt lat="43.4205" lon="6.7385">
        <ele>1.8</ele>
        <time>2016-10-09T08:37:08Z</time>
      </trkpt>
      <trkpt lat="43.4205" lon="6.73847">
        <ele>1.8</ele>
        <time>2016-10-09T08:37:10Z</time>
      </trkpt>
      <trkpt lat="43.42049" lon="6.73845">
        <ele>1.8</ele>
        <time>2016-10-09T08:37:12Z</time>
      </trkpt>
      <trkpt lat="43.42049" lon="6.73845">
        <ele>1.8</ele>
        <time>2016-10-09T08:37:16Z</time>
      </trkpt>
      <trkpt lat="43.4205" lon="6.73847">
        <ele>1.8</ele>
        <time>2016-10-09T08:37:18Z</time>
      </trkpt>
      <trkpt lat="43.42049" lon="6.73851">
        <ele>1.7</ele>
        <time>2016-10-09T08:37:20Z</time>
      </trkpt>
      <trkpt lat="43.42047" lon="6.73851">
        <ele>1.7</ele>
        <time>2016-10-09T08:37:22Z</time>
      </trkpt>
      <trkpt lat="43.42046" lon="6.73849">
        <ele>1.7</ele>
        <time>2016-10-09T08:37:24Z</time>
      </trkpt>
      <trkpt lat="43.42046" lon="6.73848">
        <ele>1.7</ele>
        <time>2016-10-09T08:37:26Z</time>
      </trkpt>
      <trkpt lat="43.42044" lon="6.73846">
        <ele>1.7</ele>
        <time>2016-10-09T08:37:28Z</time>
      </trkpt>
      <trkpt lat="43.42042" lon="6.73842">
        <ele>1.7</ele>
        <time>2016-10-09T08:37:30Z</time>
      </trkpt>
      <trkpt lat="43.42039" lon="6.73838">
        <ele>1.6</ele>
        <time>2016-10-09T08:37:32Z</time>
      </trkpt>
      <trkpt lat="43.42036" lon="6.73832">
        <ele>1.6</ele>
        <time>2016-10-09T08:37:34Z</time>
      </trkpt>
      <trkpt lat="43.42033" lon="6.73828">
        <ele>1.6</ele>
        <time>2016-10-09T08:37:36Z</time>
      </trkpt>
      <trkpt lat="43.4203" lon="6.73823">
        <ele>1.6</ele>
        <time>2016-10-09T08:37:38Z</time>
      </trkpt>
      <trkpt lat="43.42027" lon="6.73819">
        <ele>1.5</ele>
        <time>2016-10-09T08:37:40Z</time>
      </trkpt>
      <trkpt lat="43.42024" lon="6.73816">
        <ele>1.5</ele>
        <time>2016-10-09T08:37:42Z</time>
      </trkpt>
      <trkpt lat="43.42021" lon="6.73812">
        <ele>1.5</ele>
        <time>2016-10-09T08:37:44Z</time>
      </trkpt>
      <trkpt lat="43.42018" lon="6.73808">
        <ele>1.5</ele>
        <time>2016-10-09T08:37:46Z</time>
      </trkpt>
      <trkpt lat="43.42016" lon="6.73804">
        <ele>1.5</ele>
        <time>2016-10-09T08:37:48Z</time>
      </trkpt>
      <trkpt lat="43.42014" lon="6.73801">
        <ele>1.5</ele>
        <time>2016-10-09T08:37:50Z</time>
      </trkpt>
      <trkpt lat="43.42012" lon="6.73799">
        <ele>1.4</ele>
        <time>2016-10-09T08:37:52Z</time>
      </trkpt>
      <trkpt lat="43.42011" lon="6.73798">
        <ele>1.4</ele>
        <time>2016-10-09T08:37:54Z</time>
      </trkpt>
      <trkpt lat="43.4201" lon="6.73796">
        <ele>1.4</ele>
        <time>2016-10-09T08:37:56Z</time>
      </trkpt>
      <trkpt lat="43.42009" lon="6.73794">
        <ele>1.4</ele>
        <time>2016-10-09T08:37:58Z</time>
      </trkpt>
      <trkpt lat="43.42007" lon="6.73791">
        <ele>1.4</ele>
        <time>2016-10-09T08:38:00Z</time>
      </trkpt>
      <trkpt lat="43.42007" lon="6.73788">
        <ele>1.4</ele>
        <time>2016-10-09T08:38:02Z</time>
      </trkpt>
      <trkpt lat="43.42005" lon="6.73786">
        <ele>1.4</ele>
        <time>2016-10-09T08:38:04Z</time>
      </trkpt>
      <trkpt lat="43.42004" lon="6.73783">
        <ele>1.4</ele>
        <time>2016-10-09T08:38:06Z</time>
      </trkpt>
      <trkpt lat="43.42003" lon="6.73781">
        <ele>1.4</ele>
        <time>2016-10-09T08:38:08Z</time>
      </trkpt>
      <trkpt lat="43.41999" lon="6.73775">
        <ele>1.4</ele>
        <time>2016-10-09T08:38:28Z</time>
      </trkpt>
      <trkpt lat="43.41998" lon="6.73773">
        <ele>1.4</ele>
        <time>2016-10-09T08:38:30Z</time>
      </trkpt>
      <trkpt lat="43.41994" lon="6.73767">
        <ele>1.4</ele>
        <time>2016-10-09T08:38:46Z</time>
      </trkpt>
      <trkpt lat="43.41993" lon="6.73764">
        <ele>1.4</ele>
        <time>2016-10-09T08:39:23Z</time>
      </trkpt>
      <trkpt lat="43.41992" lon="6.73762">
        <ele>1.3</ele>
        <time>2016-10-09T08:39:25Z</time>
      </trkpt>
      <trkpt lat="43.41988" lon="6.73752">
        <ele>1.3</ele>
        <time>2016-10-09T08:40:05Z</time>
      </trkpt>
      <trkpt lat="43.41979" lon="6.73732">
        <ele>1.3</ele>
        <time>2016-10-09T08:40:07Z</time>
      </trkpt>
      <trkpt lat="43.41976" lon="6.73729">
        <ele>1.3</ele>
        <time>2016-10-09T08:40:09Z</time>
      </trkpt>
      <trkpt lat="43.41972" lon="6.73726">
        <ele>1.3</ele>
        <time>2016-10-09T08:40:11Z</time>
      </trkpt>
      <trkpt lat="43.41968" lon="6.73724">
        <ele>1.2</ele>
        <time>2016-10-09T08:40:13Z</time>
      </trkpt>
      <trkpt lat="43.41963" lon="6.73721">
        <ele>1.2</ele>
        <time>2016-10-09T08:40:15Z</time>
      </trkpt>
      <trkpt lat="43.41958" lon="6.73719">
        <ele>1.2</ele>
        <time>2016-10-09T08:40:17Z</time>
      </trkpt>
      <trkpt lat="43.41953" lon="6.73718">
        <ele>1.2</ele>
        <time>2016-10-09T08:40:19Z</time>
      </trkpt>
      <trkpt lat="43.41948" lon="6.73717">
        <ele>1.2</ele>
        <time>2016-10-09T08:40:21Z</time>
      </trkpt>
      <trkpt lat="43.41943" lon="6.73716">
        <ele>1.2</ele>
        <time>2016-10-09T08:40:23Z</time>
      </trkpt>
      <trkpt lat="43.41938" lon="6.73715">
        <ele>1.2</ele>
        <time>2016-10-09T08:40:25Z</time>
      </trkpt>
      <trkpt lat="43.41933" lon="6.73714">
        <ele>1.2</ele>
        <time>2016-10-09T08:40:27Z</time>
      </trkpt>
      <trkpt lat="43.4193" lon="6.73712">
        <ele>1.1</ele>
        <time>2016-10-09T08:40:29Z</time>
      </trkpt>
      <trkpt lat="43.41926" lon="6.73711">
        <ele>1.1</ele>
        <time>2016-10-09T08:40:31Z</time>
      </trkpt>
      <trkpt lat="43.41922" lon="6.73711">
        <ele>1.1</ele>
        <time>2016-10-09T08:40:33Z</time>
      </trkpt>
      <trkpt lat="43.41917" lon="6.73709">
        <ele>1.1</ele>
        <time>2016-10-09T08:40:35Z</time>
      </trkpt>
      <trkpt lat="43.41913" lon="6.73708">
        <ele>1.1</ele>
        <time>2016-10-09T08:40:37Z</time>
      </trkpt>
      <trkpt lat="43.41908" lon="6.73707">
        <ele>1.1</ele>
        <time>2016-10-09T08:40:39Z</time>
      </trkpt>
      <trkpt lat="43.41904" lon="6.73706">
        <ele>1.1</ele>
        <time>2016-10-09T08:40:41Z</time>
      </trkpt>
      <trkpt lat="43.41901" lon="6.73706">
        <ele>1.1</ele>
        <time>2016-10-09T08:40:43Z</time>
      </trkpt>
      <trkpt lat="43.41899" lon="6.73705">
        <ele>1.1</ele>
        <time>2016-10-09T08:40:45Z</time>
      </trkpt>
      <trkpt lat="43.41897" lon="6.73704">
        <ele>1.1</ele>
        <time>2016-10-09T08:40:47Z</time>
      </trkpt>
      <trkpt lat="43.41895" lon="6.73702">
        <ele>1.1</ele>
        <time>2016-10-09T08:40:49Z</time>
      </trkpt>
      <trkpt lat="43.41892" lon="6.73702">
        <ele>1.1</ele>
        <time>2016-10-09T08:42:13Z</time>
      </trkpt>
      <trkpt lat="43.4189" lon="6.73707">
        <ele>1</ele>
        <time>2016-10-09T08:42:15Z</time>
      </trkpt>
      <trkpt lat="43.41887" lon="6.73713">
        <ele>1</ele>
        <time>2016-10-09T08:42:17Z</time>
      </trkpt>
      <trkpt lat="43.41884" lon="6.73715">
        <ele>1</ele>
        <time>2016-10-09T08:42:19Z</time>
      </trkpt>
      <trkpt lat="43.41881" lon="6.73717">
        <ele>1</ele>
        <time>2016-10-09T08:42:21Z</time>
      </trkpt>
      <trkpt lat="43.41878" lon="6.73719">
        <ele>1</ele>
        <time>2016-10-09T08:42:23Z</time>
      </trkpt>
      <trkpt lat="43.41875" lon="6.7372">
        <ele>1</ele>
        <time>2016-10-09T08:42:25Z</time>
      </trkpt>
      <trkpt lat="43.41872" lon="6.73718">
        <ele>1</ele>
        <time>2016-10-09T08:42:27Z</time>
      </trkpt>
      <trkpt lat="43.41869" lon="6.73716">
        <ele>1</ele>
        <time>2016-10-09T08:42:29Z</time>
      </trkpt>
      <trkpt lat="43.41866" lon="6.73715">
        <ele>1</ele>
        <time>2016-10-09T08:42:31Z</time>
      </trkpt>
      <trkpt lat="43.41864" lon="6.73714">
        <ele>1</ele>
        <time>2016-10-09T08:51:14Z</time>
      </trkpt>
      <trkpt lat="43.41859" lon="6.73713">
        <ele>1</ele>
        <time>2016-10-09T08:51:16Z</time>
      </trkpt>
      <trkpt lat="43.41855" lon="6.73712">
        <ele>1</ele>
        <time>2016-10-09T08:51:18Z</time>
      </trkpt>
      <trkpt lat="43.4185" lon="6.73711">
        <ele>0.9</ele>
        <time>2016-10-09T08:51:20Z</time>
      </trkpt>
      <trkpt lat="43.41845" lon="6.73709">
        <ele>0.9</ele>
        <time>2016-10-09T08:51:22Z</time>
      </trkpt>
      <trkpt lat="43.41839" lon="6.73708">
        <ele>0.9</ele>
        <time>2016-10-09T08:51:24Z</time>
      </trkpt>
      <trkpt lat="43.41833" lon="6.73706">
        <ele>0.9</ele>
        <time>2016-10-09T08:51:26Z</time>
      </trkpt>
      <trkpt lat="43.41827" lon="6.73705">
        <ele>0.8</ele>
        <time>2016-10-09T08:51:28Z</time>
      </trkpt>
      <trkpt lat="43.4182" lon="6.73702">
        <ele>0.8</ele>
        <time>2016-10-09T08:51:30Z</time>
      </trkpt>
      <trkpt lat="43.41813" lon="6.73701">
        <ele>0.8</ele>
        <time>2016-10-09T08:51:32Z</time>
      </trkpt>
      <trkpt lat="43.41807" lon="6.73699">
        <ele>0.8</ele>
        <time>2016-10-09T08:51:34Z</time>
      </trkpt>
      <trkpt lat="43.41802" lon="6.73697">
        <ele>0.7</ele>
        <time>2016-10-09T08:51:36Z</time>
      </trkpt>
      <trkpt lat="43.41795" lon="6.73695">
        <ele>0.7</ele>
        <time>2016-10-09T08:51:38Z</time>
      </trkpt>
      <trkpt lat="43.41788" lon="6.73694">
        <ele>0.7</ele>
        <time>2016-10-09T08:51:40Z</time>
      </trkpt>
      <trkpt lat="43.41782" lon="6.73692">
        <ele>0.7</ele>
        <time>2016-10-09T08:51:42Z</time>
      </trkpt>
      <trkpt lat="43.41775" lon="6.7369">
        <ele>0.6</ele>
        <time>2016-10-09T08:51:44Z</time>
      </trkpt>
      <trkpt lat="43.41768" lon="6.73689">
        <ele>0.6</ele>
        <time>2016-10-09T08:51:46Z</time>
      </trkpt>
      <trkpt lat="43.41761" lon="6.73687">
        <ele>0.6</ele>
        <time>2016-10-09T08:51:48Z</time>
      </trkpt>
      <trkpt lat="43.41754" lon="6.73685">
        <ele>0.6</ele>
        <time>2016-10-09T08:51:50Z</time>
      </trkpt>
      <trkpt lat="43.41747" lon="6.73683">
        <ele>0.5</ele>
        <time>2016-10-09T08:51:52Z</time>
      </trkpt>
      <trkpt lat="43.4174" lon="6.73682">
        <ele>0.5</ele>
        <time>2016-10-09T08:51:54Z</time>
      </trkpt>
      <trkpt lat="43.41733" lon="6.73681">
        <ele>0.5</ele>
        <time>2016-10-09T08:51:56Z</time>
      </trkpt>
      <trkpt lat="43.41726" lon="6.73678">
        <ele>0.5</ele>
        <time>2016-10-09T08:51:58Z</time>
      </trkpt>
      <trkpt lat="43.41719" lon="6.73677">
        <ele>0.4</ele>
        <time>2016-10-09T08:52:00Z</time>
      </trkpt>
      <trkpt lat="43.41713" lon="6.73675">
        <ele>0.4</ele>
        <time>2016-10-09T08:52:02Z</time>
      </trkpt>
      <trkpt lat="43.41708" lon="6.73673">
        <ele>0.4</ele>
        <time>2016-10-09T08:52:04Z</time>
      </trkpt>
      <trkpt lat="43.41702" lon="6.73671">
        <ele>0.4</ele>
        <time>2016-10-09T08:52:06Z</time>
      </trkpt>
      <trkpt lat="43.41695" lon="6.73668">
        <ele>0.4</ele>
        <time>2016-10-09T08:52:08Z</time>
      </trkpt>
      <trkpt lat="43.41689" lon="6.73665">
        <ele>0.4</ele>
        <time>2016-10-09T08:52:10Z</time>
      </trkpt>
      <trkpt lat="43.41684" lon="6.73661">
        <ele>0.3</ele>
        <time>2016-10-09T08:52:12Z</time>
      </trkpt>
      <trkpt lat="43.41678" lon="6.73656">
        <ele>0.3</ele>
        <time>2016-10-09T08:52:14Z</time>
      </trkpt>
      <trkpt lat="43.41673" lon="6.7365">
        <ele>0.3</ele>
        <time>2016-10-09T08:52:16Z</time>
      </trkpt>
      <trkpt lat="43.41667" lon="6.73643">
        <ele>0.3</ele>
        <time>2016-10-09T08:52:18Z</time>
      </trkpt>
      <trkpt lat="43.41662" lon="6.73636">
        <ele>0.2</ele>
        <time>2016-10-09T08:52:20Z</time>
      </trkpt>
      <trkpt lat="43.41657" lon="6.73628">
        <ele>0.2</ele>
        <time>2016-10-09T08:52:22Z</time>
      </trkpt>
      <trkpt lat="43.41652" lon="6.7362">
        <ele>0.2</ele>
        <time>2016-10-09T08:52:24Z</time>
      </trkpt>
      <trkpt lat="43.41648" lon="6.73612">
        <ele>0.2</ele>
        <time>2016-10-09T08:52:26Z</time>
      </trkpt>
      <trkpt lat="43.41644" lon="6.73605">
        <ele>0.1</ele>
        <time>2016-10-09T08:52:28Z</time>
      </trkpt>
      <trkpt lat="43.41639" lon="6.73598">
        <ele>0.1</ele>
        <time>2016-10-09T08:52:30Z</time>
      </trkpt>
      <trkpt lat="43.41636" lon="6.73591">
        <ele>0.1</ele>
        <time>2016-10-09T08:52:32Z</time>
      </trkpt>
      <trkpt lat="43.41632" lon="6.73584">
        <ele>0.1</ele>
        <time>2016-10-09T08:52:34Z</time>
      </trkpt>
      <trkpt lat="43.41628" lon="6.73576">
        <ele>1.2</ele>
        <time>2016-10-09T08:52:36Z</time>
      </trkpt>
      <trkpt lat="43.41625" lon="6.73568">
        <ele>1.3</ele>
        <time>2016-10-09T08:52:38Z</time>
      </trkpt>
      <trkpt lat="43.41623" lon="6.7356">
        <ele>1.3</ele>
        <time>2016-10-09T08:52:40Z</time>
      </trkpt>
      <trkpt lat="43.41622" lon="6.73552">
        <ele>1.5</ele>
        <time>2016-10-09T08:52:42Z</time>
      </trkpt>
      <trkpt lat="43.41623" lon="6.73542">
        <ele>1.7</ele>
        <time>2016-10-09T08:52:44Z</time>
      </trkpt>
      <trkpt lat="43.41624" lon="6.73533">
        <ele>1.9</ele>
        <time>2016-10-09T08:52:46Z</time>
      </trkpt>
      <trkpt lat="43.41626" lon="6.73525">
        <ele>1.9</ele>
        <time>2016-10-09T08:52:48Z</time>
      </trkpt>
      <trkpt lat="43.4163" lon="6.73516">
        <ele>1.9</ele>
        <time>2016-10-09T08:52:50Z</time>
      </trkpt>
      <trkpt lat="43.41634" lon="6.73509">
        <ele>0.8</ele>
        <time>2016-10-09T08:52:52Z</time>
      </trkpt>
      <trkpt lat="43.4164" lon="6.73503">
        <ele>1.1</ele>
        <time>2016-10-09T08:52:54Z</time>
      </trkpt>
      <trkpt lat="43.41646" lon="6.73498">
        <ele>1.3</ele>
        <time>2016-10-09T08:52:56Z</time>
      </trkpt>
      <trkpt lat="43.41653" lon="6.73492">
        <ele>1.4</ele>
        <time>2016-10-09T08:52:58Z</time>
      </trkpt>
      <trkpt lat="43.41659" lon="6.73488">
        <ele>1.3</ele>
        <time>2016-10-09T08:53:00Z</time>
      </trkpt>
      <trkpt lat="43.41665" lon="6.73483">
        <ele>1.2</ele>
        <time>2016-10-09T08:53:02Z</time>
      </trkpt>
      <trkpt lat="43.4167" lon="6.73479">
        <ele>1</ele>
        <time>2016-10-09T08:53:04Z</time>
      </trkpt>
      <trkpt lat="43.41676" lon="6.73473">
        <ele>0.4</ele>
        <time>2016-10-09T08:53:06Z</time>
      </trkpt>
      <trkpt lat="43.41682" lon="6.73468">
        <ele>-0.3</ele>
        <time>2016-10-09T08:53:08Z</time>
      </trkpt>
      <trkpt lat="43.41687" lon="6.73464">
        <ele>-0.8</ele>
        <time>2016-10-09T08:53:10Z</time>
      </trkpt>
      <trkpt lat="43.41694" lon="6.73458">
        <ele>-1.2</ele>
        <time>2016-10-09T08:53:12Z</time>
      </trkpt>
      <trkpt lat="43.41699" lon="6.73452">
        <ele>-1.5</ele>
        <time>2016-10-09T08:53:14Z</time>
      </trkpt>
      <trkpt lat="43.41704" lon="6.73445">
        <ele>-1.7</ele>
        <time>2016-10-09T08:53:16Z</time>
      </trkpt>
      <trkpt lat="43.41708" lon="6.73437">
        <ele>-1.8</ele>
        <time>2016-10-09T08:53:18Z</time>
      </trkpt>
      <trkpt lat="43.41711" lon="6.73428">
        <ele>-2.1</ele>
        <time>2016-10-09T08:53:20Z</time>
      </trkpt>
      <trkpt lat="43.41715" lon="6.73418">
        <ele>-2.1</ele>
        <time>2016-10-09T08:53:22Z</time>
      </trkpt>
      <trkpt lat="43.41717" lon="6.73407">
        <ele>-1.6</ele>
        <time>2016-10-09T08:53:24Z</time>
      </trkpt>
      <trkpt lat="43.4172" lon="6.73395">
        <ele>-0.9</ele>
        <time>2016-10-09T08:53:26Z</time>
      </trkpt>
      <trkpt lat="43.41723" lon="6.73384">
        <ele>0.1</ele>
        <time>2016-10-09T08:53:28Z</time>
      </trkpt>
      <trkpt lat="43.41724" lon="6.73374">
        <ele>0.5</ele>
        <time>2016-10-09T08:53:30Z</time>
      </trkpt>
      <trkpt lat="43.41727" lon="6.73363">
        <ele>1.3</ele>
        <time>2016-10-09T08:53:32Z</time>
      </trkpt>
      <trkpt lat="43.41729" lon="6.73353">
        <ele>1.5</ele>
        <time>2016-10-09T08:53:34Z</time>
      </trkpt>
      <trkpt lat="43.41731" lon="6.73343">
        <ele>1.6</ele>
        <time>2016-10-09T08:53:36Z</time>
      </trkpt>
      <trkpt lat="43.41734" lon="6.73333">
        <ele>1.5</ele>
        <time>2016-10-09T08:53:38Z</time>
      </trkpt>
      <trkpt lat="43.41736" lon="6.73323">
        <ele>1.5</ele>
        <time>2016-10-09T08:53:40Z</time>
      </trkpt>
      <trkpt lat="43.41736" lon="6.73313">
        <ele>1.3</ele>
        <time>2016-10-09T08:53:42Z</time>
      </trkpt>
      <trkpt lat="43.41737" lon="6.73303">
        <ele>1.6</ele>
        <time>2016-10-09T08:53:44Z</time>
      </trkpt>
      <trkpt lat="43.41737" lon="6.73293">
        <ele>2</ele>
        <time>2016-10-09T08:53:46Z</time>
      </trkpt>
      <trkpt lat="43.41737" lon="6.73283">
        <ele>2.5</ele>
        <time>2016-10-09T08:53:48Z</time>
      </trkpt>
      <trkpt lat="43.41737" lon="6.73273">
        <ele>2.9</ele>
        <time>2016-10-09T08:53:50Z</time>
      </trkpt>
      <trkpt lat="43.41737" lon="6.73263">
        <ele>3</ele>
        <time>2016-10-09T08:53:52Z</time>
      </trkpt>
      <trkpt lat="43.41737" lon="6.73253">
        <ele>3.1</ele>
        <time>2016-10-09T08:53:54Z</time>
      </trkpt>
      <trkpt lat="43.41737" lon="6.73243">
        <ele>3.4</ele>
        <time>2016-10-09T08:53:56Z</time>
      </trkpt>
      <trkpt lat="43.41737" lon="6.73234">
        <ele>3.9</ele>
        <time>2016-10-09T08:53:58Z</time>
      </trkpt>
      <trkpt lat="43.41737" lon="6.73224">
        <ele>4</ele>
        <time>2016-10-09T08:54:00Z</time>
      </trkpt>
      <trkpt lat="43.41736" lon="6.73214">
        <ele>3.9</ele>
        <time>2016-10-09T08:54:02Z</time>
      </trkpt>
      <trkpt lat="43.41736" lon="6.73204">
        <ele>3.2</ele>
        <time>2016-10-09T08:54:04Z</time>
      </trkpt>
      <trkpt lat="43.41735" lon="6.73194">
        <ele>2.7</ele>
        <time>2016-10-09T08:54:06Z</time>
      </trkpt>
      <trkpt lat="43.41734" lon="6.73184">
        <ele>2.4</ele>
        <time>2016-10-09T08:54:08Z</time>
      </trkpt>
      <trkpt lat="43.41733" lon="6.73175">
        <ele>2.1</ele>
        <time>2016-10-09T08:54:10Z</time>
      </trkpt>
      <trkpt lat="43.41732" lon="6.73165">
        <ele>1.7</ele>
        <time>2016-10-09T08:54:12Z</time>
      </trkpt>
      <trkpt lat="43.41731" lon="6.73156">
        <ele>1.4</ele>
        <time>2016-10-09T08:54:14Z</time>
      </trkpt>
      <trkpt lat="43.4173" lon="6.73146">
        <ele>1</ele>
        <time>2016-10-09T08:54:16Z</time>
      </trkpt>
      <trkpt lat="43.41728" lon="6.73136">
        <ele>0.7</ele>
        <time>2016-10-09T08:54:18Z</time>
      </trkpt>
      <trkpt lat="43.41727" lon="6.73127">
        <ele>0.2</ele>
        <time>2016-10-09T08:54:20Z</time>
      </trkpt>
      <trkpt lat="43.41725" lon="6.73117">
        <ele>-0.2</ele>
        <time>2016-10-09T08:54:22Z</time>
      </trkpt>
      <trkpt lat="43.41724" lon="6.73108">
        <ele>-0.3</ele>
        <time>2016-10-09T08:54:24Z</time>
      </trkpt>
      <trkpt lat="43.41723" lon="6.73099">
        <ele>-0.3</ele>
        <time>2016-10-09T08:54:26Z</time>
      </trkpt>
      <trkpt lat="43.41721" lon="6.73089">
        <ele>-0.2</ele>
        <time>2016-10-09T08:54:28Z</time>
      </trkpt>
      <trkpt lat="43.41719" lon="6.7308">
        <ele>-0.1</ele>
        <time>2016-10-09T08:54:30Z</time>
      </trkpt>
      <trkpt lat="43.41718" lon="6.73072">
        <ele>0.1</ele>
        <time>2016-10-09T08:54:32Z</time>
      </trkpt>
      <trkpt lat="43.41716" lon="6.73063">
        <ele>0.7</ele>
        <time>2016-10-09T08:54:34Z</time>
      </trkpt>
      <trkpt lat="43.41715" lon="6.73054">
        <ele>1.2</ele>
        <time>2016-10-09T08:54:36Z</time>
      </trkpt>
      <trkpt lat="43.41713" lon="6.73045">
        <ele>1.7</ele>
        <time>2016-10-09T08:54:38Z</time>
      </trkpt>
      <trkpt lat="43.41711" lon="6.73036">
        <ele>2.1</ele>
        <time>2016-10-09T08:54:40Z</time>
      </trkpt>
      <trkpt lat="43.41708" lon="6.73027">
        <ele>2.5</ele>
        <time>2016-10-09T08:54:42Z</time>
      </trkpt>
      <trkpt lat="43.41706" lon="6.73018">
        <ele>2.8</ele>
        <time>2016-10-09T08:54:44Z</time>
      </trkpt>
      <trkpt lat="43.41704" lon="6.73009">
        <ele>3.1</ele>
        <time>2016-10-09T08:54:46Z</time>
      </trkpt>
      <trkpt lat="43.41702" lon="6.73">
        <ele>3.3</ele>
        <time>2016-10-09T08:54:48Z</time>
      </trkpt>
      <trkpt lat="43.417" lon="6.72991">
        <ele>3.4</ele>
        <time>2016-10-09T08:54:50Z</time>
      </trkpt>
      <trkpt lat="43.41697" lon="6.72982">
        <ele>3.3</ele>
        <time>2016-10-09T08:54:52Z</time>
      </trkpt>
      <trkpt lat="43.41695" lon="6.72973">
        <ele>3</ele>
        <time>2016-10-09T08:54:54Z</time>
      </trkpt>
      <trkpt lat="43.41692" lon="6.72964">
        <ele>2.7</ele>
        <time>2016-10-09T08:54:56Z</time>
      </trkpt>
      <trkpt lat="43.4169" lon="6.72955">
        <ele>2.8</ele>
        <time>2016-10-09T08:54:58Z</time>
      </trkpt>
      <trkpt lat="43.41688" lon="6.72946">
        <ele>3</ele>
        <time>2016-10-09T08:55:00Z</time>
      </trkpt>
      <trkpt lat="43.41686" lon="6.72937">
        <ele>3.3</ele>
        <time>2016-10-09T08:55:02Z</time>
      </trkpt>
      <trkpt lat="43.41683" lon="6.72928">
        <ele>3.6</ele>
        <time>2016-10-09T08:55:04Z</time>
      </trkpt>
      <trkpt lat="43.41681" lon="6.72919">
        <ele>3.9</ele>
        <time>2016-10-09T08:55:06Z</time>
      </trkpt>
      <trkpt lat="43.41678" lon="6.72909">
        <ele>4.2</ele>
        <time>2016-10-09T08:55:08Z</time>
      </trkpt>
      <trkpt lat="43.41676" lon="6.729">
        <ele>4.5</ele>
        <time>2016-10-09T08:55:10Z</time>
      </trkpt>
      <trkpt lat="43.41673" lon="6.72891">
        <ele>4.9</ele>
        <time>2016-10-09T08:55:12Z</time>
      </trkpt>
      <trkpt lat="43.4167" lon="6.72882">
        <ele>4.9</ele>
        <time>2016-10-09T08:55:14Z</time>
      </trkpt>
      <trkpt lat="43.41667" lon="6.72874">
        <ele>5</ele>
        <time>2016-10-09T08:55:16Z</time>
      </trkpt>
      <trkpt lat="43.41664" lon="6.72865">
        <ele>5.8</ele>
        <time>2016-10-09T08:55:18Z</time>
      </trkpt>
      <trkpt lat="43.4166" lon="6.72856">
        <ele>5.9</ele>
        <time>2016-10-09T08:55:20Z</time>
      </trkpt>
      <trkpt lat="43.41657" lon="6.72847">
        <ele>6</ele>
        <time>2016-10-09T08:55:22Z</time>
      </trkpt>
      <trkpt lat="43.41652" lon="6.72839">
        <ele>5.7</ele>
        <time>2016-10-09T08:55:24Z</time>
      </trkpt>
      <trkpt lat="43.41647" lon="6.72832">
        <ele>5.3</ele>
        <time>2016-10-09T08:55:26Z</time>
      </trkpt>
      <trkpt lat="43.41642" lon="6.72826">
        <ele>4.9</ele>
        <time>2016-10-09T08:55:28Z</time>
      </trkpt>
      <trkpt lat="43.41635" lon="6.72821">
        <ele>4.4</ele>
        <time>2016-10-09T08:55:30Z</time>
      </trkpt>
      <trkpt lat="43.41628" lon="6.72818">
        <ele>4</ele>
        <time>2016-10-09T08:55:32Z</time>
      </trkpt>
      <trkpt lat="43.4162" lon="6.72816">
        <ele>4.1</ele>
        <time>2016-10-09T08:55:34Z</time>
      </trkpt>
      <trkpt lat="43.41612" lon="6.72816">
        <ele>4.2</ele>
        <time>2016-10-09T08:55:36Z</time>
      </trkpt>
      <trkpt lat="43.41604" lon="6.72817">
        <ele>4.3</ele>
        <time>2016-10-09T08:55:38Z</time>
      </trkpt>
      <trkpt lat="43.41596" lon="6.72818">
        <ele>4.4</ele>
        <time>2016-10-09T08:55:40Z</time>
      </trkpt>
      <trkpt lat="43.41589" lon="6.72821">
        <ele>4.5</ele>
        <time>2016-10-09T08:55:42Z</time>
      </trkpt>
      <trkpt lat="43.41581" lon="6.72825">
        <ele>4.6</ele>
        <time>2016-10-09T08:55:44Z</time>
      </trkpt>
      <trkpt lat="43.41575" lon="6.72829">
        <ele>4.6</ele>
        <time>2016-10-09T08:55:46Z</time>
      </trkpt>
      <trkpt lat="43.4157" lon="6.72834">
        <ele>4.7</ele>
        <time>2016-10-09T08:55:48Z</time>
      </trkpt>
      <trkpt lat="43.41566" lon="6.72838">
        <ele>4.7</ele>
        <time>2016-10-09T08:55:50Z</time>
      </trkpt>
      <trkpt lat="43.41562" lon="6.72841">
        <ele>4.8</ele>
        <time>2016-10-09T08:55:52Z</time>
      </trkpt>
      <trkpt lat="43.41557" lon="6.72843">
        <ele>4.8</ele>
        <time>2016-10-09T08:55:54Z</time>
      </trkpt>
      <trkpt lat="43.41555" lon="6.72844">
        <ele>4.9</ele>
        <time>2016-10-09T08:55:56Z</time>
      </trkpt>
      <trkpt lat="43.41553" lon="6.72845">
        <ele>4.9</ele>
        <time>2016-10-09T08:55:58Z</time>
      </trkpt>
      <trkpt lat="43.4155" lon="6.72845">
        <ele>4.9</ele>
        <time>2016-10-09T08:56:00Z</time>
      </trkpt>
      <trkpt lat="43.41547" lon="6.72847">
        <ele>5</ele>
        <time>2016-10-09T08:56:02Z</time>
      </trkpt>
      <trkpt lat="43.41545" lon="6.72848">
        <ele>5</ele>
        <time>2016-10-09T08:56:04Z</time>
      </trkpt>
      <trkpt lat="43.41543" lon="6.72849">
        <ele>5</ele>
        <time>2016-10-09T08:56:06Z</time>
      </trkpt>
      <trkpt lat="43.41541" lon="6.7285">
        <ele>5</ele>
        <time>2016-10-09T08:56:08Z</time>
      </trkpt>
      <trkpt lat="43.41538" lon="6.72851">
        <ele>5</ele>
        <time>2016-10-09T08:56:10Z</time>
      </trkpt>
      <trkpt lat="43.41535" lon="6.72852">
        <ele>5</ele>
        <time>2016-10-09T08:56:12Z</time>
      </trkpt>
      <trkpt lat="43.41533" lon="6.72853">
        <ele>5</ele>
        <time>2016-10-09T08:56:14Z</time>
      </trkpt>
      <trkpt lat="43.4153" lon="6.72854">
        <ele>5</ele>
        <time>2016-10-09T08:56:16Z</time>
      </trkpt>
      <trkpt lat="43.41528" lon="6.72856">
        <ele>5</ele>
        <time>2016-10-09T08:56:18Z</time>
      </trkpt>
      <trkpt lat="43.41525" lon="6.72857">
        <ele>5</ele>
        <time>2016-10-09T08:56:20Z</time>
      </trkpt>
      <trkpt lat="43.41523" lon="6.72859">
        <ele>5</ele>
        <time>2016-10-09T08:56:22Z</time>
      </trkpt>
      <trkpt lat="43.41521" lon="6.72861">
        <ele>5</ele>
        <time>2016-10-09T08:56:24Z</time>
      </trkpt>
      <trkpt lat="43.41519" lon="6.72864">
        <ele>5</ele>
        <time>2016-10-09T08:56:26Z</time>
      </trkpt>
      <trkpt lat="43.41517" lon="6.72866">
        <ele>5.1</ele>
        <time>2016-10-09T08:56:28Z</time>
      </trkpt>
      <trkpt lat="43.41515" lon="6.72868">
        <ele>5.1</ele>
        <time>2016-10-09T08:56:30Z</time>
      </trkpt>
      <trkpt lat="43.41512" lon="6.72871">
        <ele>5.1</ele>
        <time>2016-10-09T08:56:32Z</time>
      </trkpt>
      <trkpt lat="43.4151" lon="6.72874">
        <ele>5.1</ele>
        <time>2016-10-09T08:56:34Z</time>
      </trkpt>
      <trkpt lat="43.41507" lon="6.72877">
        <ele>5.2</ele>
        <time>2016-10-09T08:56:36Z</time>
      </trkpt>
      <trkpt lat="43.41504" lon="6.7288">
        <ele>5.2</ele>
        <time>2016-10-09T08:56:38Z</time>
      </trkpt>
      <trkpt lat="43.41502" lon="6.72883">
        <ele>5.2</ele>
        <time>2016-10-09T08:56:40Z</time>
      </trkpt>
      <trkpt lat="43.41499" lon="6.72886">
        <ele>5.3</ele>
        <time>2016-10-09T08:56:42Z</time>
      </trkpt>
      <trkpt lat="43.41496" lon="6.7289">
        <ele>5.3</ele>
        <time>2016-10-09T08:56:44Z</time>
      </trkpt>
      <trkpt lat="43.41493" lon="6.72895">
        <ele>5.4</ele>
        <time>2016-10-09T08:56:46Z</time>
      </trkpt>
      <trkpt lat="43.41489" lon="6.729">
        <ele>5.6</ele>
        <time>2016-10-09T08:56:48Z</time>
      </trkpt>
      <trkpt lat="43.41486" lon="6.72905">
        <ele>5.7</ele>
        <time>2016-10-09T08:56:50Z</time>
      </trkpt>
      <trkpt lat="43.41482" lon="6.72911">
        <ele>5.8</ele>
        <time>2016-10-09T08:56:52Z</time>
      </trkpt>
      <trkpt lat="43.41478" lon="6.72918">
        <ele>5.6</ele>
        <time>2016-10-09T08:56:54Z</time>
      </trkpt>
      <trkpt lat="43.41473" lon="6.72925">
        <ele>5.3</ele>
        <time>2016-10-09T08:56:56Z</time>
      </trkpt>
      <trkpt lat="43.41468" lon="6.72932">
        <ele>5</ele>
        <time>2016-10-09T08:56:58Z</time>
      </trkpt>
      <trkpt lat="43.41463" lon="6.72939">
        <ele>4.8</ele>
        <time>2016-10-09T08:57:00Z</time>
      </trkpt>
      <trkpt lat="43.41458" lon="6.72946">
        <ele>4.8</ele>
        <time>2016-10-09T08:57:02Z</time>
      </trkpt>
      <trkpt lat="43.41452" lon="6.72953">
        <ele>4.8</ele>
        <time>2016-10-09T08:57:04Z</time>
      </trkpt>
      <trkpt lat="43.41446" lon="6.7296">
        <ele>5</ele>
        <time>2016-10-09T08:57:06Z</time>
      </trkpt>
      <trkpt lat="43.41439" lon="6.72967">
        <ele>5</ele>
        <time>2016-10-09T08:57:08Z</time>
      </trkpt>
      <trkpt lat="43.41432" lon="6.72976">
        <ele>5</ele>
        <time>2016-10-09T08:57:10Z</time>
      </trkpt>
      <trkpt lat="43.41425" lon="6.72986">
        <ele>5</ele>
        <time>2016-10-09T08:57:12Z</time>
      </trkpt>
      <trkpt lat="43.41418" lon="6.72996">
        <ele>5</ele>
        <time>2016-10-09T08:57:14Z</time>
      </trkpt>
      <trkpt lat="43.41411" lon="6.73007">
        <ele>4.9</ele>
        <time>2016-10-09T08:57:16Z</time>
      </trkpt>
      <trkpt lat="43.41404" lon="6.73017">
        <ele>4.9</ele>
        <time>2016-10-09T08:57:18Z</time>
      </trkpt>
      <trkpt lat="43.41397" lon="6.73027">
        <ele>4.9</ele>
        <time>2016-10-09T08:57:20Z</time>
      </trkpt>
      <trkpt lat="43.4139" lon="6.73037">
        <ele>4.8</ele>
        <time>2016-10-09T08:57:22Z</time>
      </trkpt>
      <trkpt lat="43.41383" lon="6.73046">
        <ele>4.8</ele>
        <time>2016-10-09T08:57:24Z</time>
      </trkpt>
      <trkpt lat="43.41375" lon="6.73056">
        <ele>4.7</ele>
        <time>2016-10-09T08:57:26Z</time>
      </trkpt>
      <trkpt lat="43.41364" lon="6.7307">
        <ele>4.7</ele>
        <time>2016-10-09T08:57:29Z</time>
      </trkpt>
      <trkpt lat="43.41356" lon="6.73081">
        <ele>4.6</ele>
        <time>2016-10-09T08:57:31Z</time>
      </trkpt>
      <trkpt lat="43.4135" lon="6.73092">
        <ele>4.5</ele>
        <time>2016-10-09T08:57:33Z</time>
      </trkpt>
      <trkpt lat="43.41345" lon="6.73103">
        <ele>4.5</ele>
        <time>2016-10-09T08:57:35Z</time>
      </trkpt>
      <trkpt lat="43.41339" lon="6.73112">
        <ele>4.4</ele>
        <time>2016-10-09T08:57:37Z</time>
      </trkpt>
      <trkpt lat="43.41336" lon="6.73123">
        <ele>4.4</ele>
        <time>2016-10-09T08:57:39Z</time>
      </trkpt>
      <trkpt lat="43.41334" lon="6.73134">
        <ele>4.3</ele>
        <time>2016-10-09T08:57:41Z</time>
      </trkpt>
      <trkpt lat="43.41332" lon="6.73146">
        <ele>4.2</ele>
        <time>2016-10-09T08:57:43Z</time>
      </trkpt>
      <trkpt lat="43.4133" lon="6.73156">
        <ele>4.1</ele>
        <time>2016-10-09T08:57:45Z</time>
      </trkpt>
      <trkpt lat="43.41324" lon="6.73163">
        <ele>4.1</ele>
        <time>2016-10-09T08:57:47Z</time>
      </trkpt>
      <trkpt lat="43.41316" lon="6.73167">
        <ele>3.9</ele>
        <time>2016-10-09T08:57:49Z</time>
      </trkpt>
      <trkpt lat="43.41308" lon="6.73169">
        <ele>3.8</ele>
        <time>2016-10-09T08:57:51Z</time>
      </trkpt>
      <trkpt lat="43.41301" lon="6.73175">
        <ele>3.7</ele>
        <time>2016-10-09T08:57:53Z</time>
      </trkpt>
      <trkpt lat="43.41293" lon="6.73183">
        <ele>3.5</ele>
        <time>2016-10-09T08:57:55Z</time>
      </trkpt>
      <trkpt lat="43.41285" lon="6.7319">
        <ele>3.4</ele>
        <time>2016-10-09T08:57:57Z</time>
      </trkpt>
      <trkpt lat="43.41277" lon="6.73195">
        <ele>3.2</ele>
        <time>2016-10-09T08:57:59Z</time>
      </trkpt>
      <trkpt lat="43.41267" lon="6.73196">
        <ele>3</ele>
        <time>2016-10-09T08:58:01Z</time>
      </trkpt>
      <trkpt lat="43.41258" lon="6.73192">
        <ele>3</ele>
        <time>2016-10-09T08:58:03Z</time>
      </trkpt>
      <trkpt lat="43.4125" lon="6.73189">
        <ele>2.9</ele>
        <time>2016-10-09T08:58:05Z</time>
      </trkpt>
      <trkpt lat="43.41242" lon="6.73188">
        <ele>2.8</ele>
        <time>2016-10-09T08:58:07Z</time>
      </trkpt>
      <trkpt lat="43.41235" lon="6.73191">
        <ele>2.8</ele>
        <time>2016-10-09T08:58:09Z</time>
      </trkpt>
      <trkpt lat="43.4123" lon="6.73191">
        <ele>2.8</ele>
        <time>2016-10-09T08:58:11Z</time>
      </trkpt>
      <trkpt lat="43.41224" lon="6.73188">
        <ele>3</ele>
        <time>2016-10-09T08:58:13Z</time>
      </trkpt>
      <trkpt lat="43.4122" lon="6.73184">
        <ele>3</ele>
        <time>2016-10-09T08:58:15Z</time>
      </trkpt>
      <trkpt lat="43.41214" lon="6.73177">
        <ele>3</ele>
        <time>2016-10-09T08:58:17Z</time>
      </trkpt>
      <trkpt lat="43.41208" lon="6.73168">
        <ele>2.3</ele>
        <time>2016-10-09T08:58:19Z</time>
      </trkpt>
      <trkpt lat="43.41203" lon="6.73162">
        <ele>1.9</ele>
        <time>2016-10-09T08:58:21Z</time>
      </trkpt>
      <trkpt lat="43.41199" lon="6.73157">
        <ele>1.7</ele>
        <time>2016-10-09T08:58:23Z</time>
      </trkpt>
      <trkpt lat="43.41196" lon="6.73154">
        <ele>1.5</ele>
        <time>2016-10-09T08:58:25Z</time>
      </trkpt>
      <trkpt lat="43.41194" lon="6.73151">
        <ele>1.5</ele>
        <time>2016-10-09T08:58:27Z</time>
      </trkpt>
      <trkpt lat="43.41192" lon="6.73149">
        <ele>1.5</ele>
        <time>2016-10-09T08:58:29Z</time>
      </trkpt>
      <trkpt lat="43.4119" lon="6.73146">
        <ele>1.5</ele>
        <time>2016-10-09T08:58:31Z</time>
      </trkpt>
      <trkpt lat="43.41187" lon="6.73143">
        <ele>1.6</ele>
        <time>2016-10-09T08:58:33Z</time>
      </trkpt>
      <trkpt lat="43.41185" lon="6.7314">
        <ele>1.7</ele>
        <time>2016-10-09T08:58:35Z</time>
      </trkpt>
      <trkpt lat="43.41182" lon="6.73136">
        <ele>1.8</ele>
        <time>2016-10-09T08:58:37Z</time>
      </trkpt>
      <trkpt lat="43.4118" lon="6.73132">
        <ele>1.9</ele>
        <time>2016-10-09T08:58:39Z</time>
      </trkpt>
      <trkpt lat="43.41177" lon="6.73128">
        <ele>2</ele>
        <time>2016-10-09T08:58:41Z</time>
      </trkpt>
      <trkpt lat="43.41179" lon="6.73123">
        <ele>2</ele>
        <time>2016-10-09T08:58:43Z</time>
      </trkpt>
      <trkpt lat="43.4118" lon="6.73121">
        <ele>2</ele>
        <time>2016-10-09T08:58:45Z</time>
      </trkpt>
      <trkpt lat="43.41182" lon="6.73118">
        <ele>2</ele>
        <time>2016-10-09T08:58:47Z</time>
      </trkpt>
      <trkpt lat="43.41183" lon="6.73116">
        <ele>2</ele>
        <time>2016-10-09T08:58:49Z</time>
      </trkpt>
      <trkpt lat="43.41185" lon="6.73113">
        <ele>2</ele>
        <time>2016-10-09T08:58:51Z</time>
      </trkpt>
      <trkpt lat="43.41187" lon="6.73111">
        <ele>1.9</ele>
        <time>2016-10-09T08:58:53Z</time>
      </trkpt>
      <trkpt lat="43.41192" lon="6.73111">
        <ele>1.9</ele>
        <time>2016-10-09T08:58:55Z</time>
      </trkpt>
      <trkpt lat="43.41196" lon="6.73111">
        <ele>1.8</ele>
        <time>2016-10-09T08:58:57Z</time>
      </trkpt>
      <trkpt lat="43.41198" lon="6.73109">
        <ele>1.8</ele>
        <time>2016-10-09T08:58:59Z</time>
      </trkpt>
      <trkpt lat="43.41201" lon="6.73104">
        <ele>1.7</ele>
        <time>2016-10-09T08:59:01Z</time>
      </trkpt>
      <trkpt lat="43.41205" lon="6.73098">
        <ele>1.5</ele>
        <time>2016-10-09T08:59:03Z</time>
      </trkpt>
      <trkpt lat="43.4121" lon="6.73091">
        <ele>1.3</ele>
        <time>2016-10-09T08:59:05Z</time>
      </trkpt>
      <trkpt lat="43.41216" lon="6.73081">
        <ele>0.9</ele>
        <time>2016-10-09T08:59:07Z</time>
      </trkpt>
      <trkpt lat="43.41224" lon="6.73071">
        <ele>0.8</ele>
        <time>2016-10-09T08:59:09Z</time>
      </trkpt>
      <trkpt lat="43.41231" lon="6.73062">
        <ele>1</ele>
        <time>2016-10-09T08:59:11Z</time>
      </trkpt>
      <trkpt lat="43.41237" lon="6.73054">
        <ele>1.3</ele>
        <time>2016-10-09T08:59:13Z</time>
      </trkpt>
      <trkpt lat="43.41242" lon="6.73047">
        <ele>1.8</ele>
        <time>2016-10-09T08:59:15Z</time>
      </trkpt>
      <trkpt lat="43.41248" lon="6.73039">
        <ele>2.4</ele>
        <time>2016-10-09T08:59:17Z</time>
      </trkpt>
      <trkpt lat="43.41254" lon="6.7303">
        <ele>2.9</ele>
        <time>2016-10-09T08:59:19Z</time>
      </trkpt>
      <trkpt lat="43.41261" lon="6.7302">
        <ele>3.3</ele>
        <time>2016-10-09T08:59:21Z</time>
      </trkpt>
      <trkpt lat="43.41269" lon="6.7301">
        <ele>3.6</ele>
        <time>2016-10-09T08:59:23Z</time>
      </trkpt>
      <trkpt lat="43.41276" lon="6.73002">
        <ele>3.8</ele>
        <time>2016-10-09T08:59:25Z</time>
      </trkpt>
      <trkpt lat="43.41284" lon="6.72993">
        <ele>4</ele>
        <time>2016-10-09T08:59:27Z</time>
      </trkpt>
      <trkpt lat="43.41291" lon="6.72985">
        <ele>3.5</ele>
        <time>2016-10-09T08:59:29Z</time>
      </trkpt>
      <trkpt lat="43.41297" lon="6.72976">
        <ele>3.3</ele>
        <time>2016-10-09T08:59:31Z</time>
      </trkpt>
      <trkpt lat="43.41304" lon="6.72968">
        <ele>3.1</ele>
        <time>2016-10-09T08:59:33Z</time>
      </trkpt>
      <trkpt lat="43.4131" lon="6.72959">
        <ele>3</ele>
        <time>2016-10-09T08:59:35Z</time>
      </trkpt>
      <trkpt lat="43.41317" lon="6.72951">
        <ele>3</ele>
        <time>2016-10-09T08:59:37Z</time>
      </trkpt>
      <trkpt lat="43.41324" lon="6.72942">
        <ele>2.9</ele>
        <time>2016-10-09T08:59:39Z</time>
      </trkpt>
      <trkpt lat="43.4133" lon="6.72933">
        <ele>2.7</ele>
        <time>2016-10-09T08:59:41Z</time>
      </trkpt>
      <trkpt lat="43.41337" lon="6.72924">
        <ele>2.3</ele>
        <time>2016-10-09T08:59:43Z</time>
      </trkpt>
      <trkpt lat="43.41343" lon="6.72915">
        <ele>2.1</ele>
        <time>2016-10-09T08:59:45Z</time>
      </trkpt>
      <trkpt lat="43.4135" lon="6.72906">
        <ele>1.7</ele>
        <time>2016-10-09T08:59:47Z</time>
      </trkpt>
      <trkpt lat="43.41357" lon="6.72898">
        <ele>1.4</ele>
        <time>2016-10-09T08:59:49Z</time>
      </trkpt>
      <trkpt lat="43.41365" lon="6.72889">
        <ele>1.3</ele>
        <time>2016-10-09T08:59:51Z</time>
      </trkpt>
      <trkpt lat="43.41372" lon="6.7288">
        <ele>2</ele>
        <time>2016-10-09T08:59:53Z</time>
      </trkpt>
      <trkpt lat="43.41379" lon="6.72871">
        <ele>2.6</ele>
        <time>2016-10-09T08:59:55Z</time>
      </trkpt>
      <trkpt lat="43.41386" lon="6.72861">
        <ele>2.9</ele>
        <time>2016-10-09T08:59:57Z</time>
      </trkpt>
      <trkpt lat="43.41393" lon="6.72852">
        <ele>2.9</ele>
        <time>2016-10-09T08:59:59Z</time>
      </trkpt>
      <trkpt lat="43.414" lon="6.72843">
        <ele>3.6</ele>
        <time>2016-10-09T09:00:01Z</time>
      </trkpt>
      <trkpt lat="43.41407" lon="6.72834">
        <ele>4.1</ele>
        <time>2016-10-09T09:00:03Z</time>
      </trkpt>
      <trkpt lat="43.41414" lon="6.72825">
        <ele>4.3</ele>
        <time>2016-10-09T09:00:05Z</time>
      </trkpt>
      <trkpt lat="43.41421" lon="6.72816">
        <ele>4.1</ele>
        <time>2016-10-09T09:00:07Z</time>
      </trkpt>
      <trkpt lat="43.41428" lon="6.72807">
        <ele>4.4</ele>
        <time>2016-10-09T09:00:09Z</time>
      </trkpt>
      <trkpt lat="43.41435" lon="6.72798">
        <ele>5</ele>
        <time>2016-10-09T09:00:11Z</time>
      </trkpt>
      <trkpt lat="43.41441" lon="6.72789">
        <ele>5.9</ele>
        <time>2016-10-09T09:00:13Z</time>
      </trkpt>
      <trkpt lat="43.41448" lon="6.72781">
        <ele>6.4</ele>
        <time>2016-10-09T09:00:15Z</time>
      </trkpt>
      <trkpt lat="43.41455" lon="6.72772">
        <ele>6.7</ele>
        <time>2016-10-09T09:00:17Z</time>
      </trkpt>
      <trkpt lat="43.41462" lon="6.72763">
        <ele>6.5</ele>
        <time>2016-10-09T09:00:19Z</time>
      </trkpt>
      <trkpt lat="43.41468" lon="6.72754">
        <ele>6.2</ele>
        <time>2016-10-09T09:00:21Z</time>
      </trkpt>
      <trkpt lat="43.41475" lon="6.72746">
        <ele>6</ele>
        <time>2016-10-09T09:00:23Z</time>
      </trkpt>
      <trkpt lat="43.41481" lon="6.72738">
        <ele>5.8</ele>
        <time>2016-10-09T09:00:25Z</time>
      </trkpt>
      <trkpt lat="43.41483" lon="6.72727">
        <ele>5.8</ele>
        <time>2016-10-09T09:00:27Z</time>
      </trkpt>
      <trkpt lat="43.41485" lon="6.72712">
        <ele>5.3</ele>
        <time>2016-10-09T09:00:29Z</time>
      </trkpt>
      <trkpt lat="43.4149" lon="6.727">
        <ele>4.8</ele>
        <time>2016-10-09T09:00:31Z</time>
      </trkpt>
      <trkpt lat="43.41497" lon="6.72692">
        <ele>4.8</ele>
        <time>2016-10-09T09:00:33Z</time>
      </trkpt>
      <trkpt lat="43.41505" lon="6.72684">
        <ele>4.9</ele>
        <time>2016-10-09T09:00:35Z</time>
      </trkpt>
      <trkpt lat="43.41511" lon="6.72678">
        <ele>4.9</ele>
        <time>2016-10-09T09:00:37Z</time>
      </trkpt>
      <trkpt lat="43.41514" lon="6.72668">
        <ele>4.1</ele>
        <time>2016-10-09T09:00:39Z</time>
      </trkpt>
      <trkpt lat="43.41511" lon="6.7266">
        <ele>4.7</ele>
        <time>2016-10-09T09:00:41Z</time>
      </trkpt>
      <trkpt lat="43.41505" lon="6.72656">
        <ele>5.3</ele>
        <time>2016-10-09T09:00:43Z</time>
      </trkpt>
      <trkpt lat="43.41497" lon="6.72653">
        <ele>5.6</ele>
        <time>2016-10-09T09:00:45Z</time>
      </trkpt>
      <trkpt lat="43.4149" lon="6.72649">
        <ele>5.2</ele>
        <time>2016-10-09T09:00:47Z</time>
      </trkpt>
      <trkpt lat="43.41482" lon="6.72644">
        <ele>4.4</ele>
        <time>2016-10-09T09:00:49Z</time>
      </trkpt>
      <trkpt lat="43.41474" lon="6.7264">
        <ele>3.7</ele>
        <time>2016-10-09T09:00:51Z</time>
      </trkpt>
      <trkpt lat="43.41466" lon="6.72635">
        <ele>2.8</ele>
        <time>2016-10-09T09:00:53Z</time>
      </trkpt>
      <trkpt lat="43.41459" lon="6.7263">
        <ele>2.4</ele>
        <time>2016-10-09T09:00:55Z</time>
      </trkpt>
      <trkpt lat="43.41451" lon="6.72625">
        <ele>1.9</ele>
        <time>2016-10-09T09:00:57Z</time>
      </trkpt>
      <trkpt lat="43.41444" lon="6.7262">
        <ele>1.6</ele>
        <time>2016-10-09T09:00:59Z</time>
      </trkpt>
      <trkpt lat="43.41439" lon="6.72611">
        <ele>1.6</ele>
        <time>2016-10-09T09:01:01Z</time>
      </trkpt>
      <trkpt lat="43.41436" lon="6.72602">
        <ele>1.7</ele>
        <time>2016-10-09T09:01:03Z</time>
      </trkpt>
      <trkpt lat="43.41433" lon="6.72593">
        <ele>1.9</ele>
        <time>2016-10-09T09:01:05Z</time>
      </trkpt>
      <trkpt lat="43.41428" lon="6.72583">
        <ele>2</ele>
        <time>2016-10-09T09:01:07Z</time>
      </trkpt>
      <trkpt lat="43.41423" lon="6.72574">
        <ele>2.2</ele>
        <time>2016-10-09T09:01:09Z</time>
      </trkpt>
      <trkpt lat="43.41418" lon="6.72565">
        <ele>2.3</ele>
        <time>2016-10-09T09:01:11Z</time>
      </trkpt>
      <trkpt lat="43.41413" lon="6.72554">
        <ele>2.5</ele>
        <time>2016-10-09T09:01:13Z</time>
      </trkpt>
      <trkpt lat="43.4141" lon="6.72544">
        <ele>2.6</ele>
        <time>2016-10-09T09:01:15Z</time>
      </trkpt>
      <trkpt lat="43.41406" lon="6.72533">
        <ele>2.6</ele>
        <time>2016-10-09T09:01:17Z</time>
      </trkpt>
      <trkpt lat="43.414" lon="6.72523">
        <ele>2.6</ele>
        <time>2016-10-09T09:01:19Z</time>
      </trkpt>
      <trkpt lat="43.41393" lon="6.72512">
        <ele>2.3</ele>
        <time>2016-10-09T09:01:21Z</time>
      </trkpt>
      <trkpt lat="43.41386" lon="6.72502">
        <ele>1.7</ele>
        <time>2016-10-09T09:01:23Z</time>
      </trkpt>
      <trkpt lat="43.41379" lon="6.72492">
        <ele>1</ele>
        <time>2016-10-09T09:01:25Z</time>
      </trkpt>
      <trkpt lat="43.41371" lon="6.72483">
        <ele>0.5</ele>
        <time>2016-10-09T09:01:27Z</time>
      </trkpt>
      <trkpt lat="43.41363" lon="6.72475">
        <ele>0.5</ele>
        <time>2016-10-09T09:01:29Z</time>
      </trkpt>
      <trkpt lat="43.41355" lon="6.72469">
        <ele>0.6</ele>
        <time>2016-10-09T09:01:31Z</time>
      </trkpt>
      <trkpt lat="43.41348" lon="6.72464">
        <ele>0.5</ele>
        <time>2016-10-09T09:01:33Z</time>
      </trkpt>
      <trkpt lat="43.41344" lon="6.72461">
        <ele>0.6</ele>
        <time>2016-10-09T09:01:35Z</time>
      </trkpt>
      <trkpt lat="43.4134" lon="6.72459">
        <ele>0.6</ele>
        <time>2016-10-09T09:01:37Z</time>
      </trkpt>
      <trkpt lat="43.41337" lon="6.72457">
        <ele>0.6</ele>
        <time>2016-10-09T09:01:39Z</time>
      </trkpt>
      <trkpt lat="43.41333" lon="6.72457">
        <ele>0.7</ele>
        <time>2016-10-09T09:01:41Z</time>
      </trkpt>
      <trkpt lat="43.41328" lon="6.72457">
        <ele>1</ele>
        <time>2016-10-09T09:01:43Z</time>
      </trkpt>
      <trkpt lat="43.41324" lon="6.72457">
        <ele>1.2</ele>
        <time>2016-10-09T09:01:45Z</time>
      </trkpt>
      <trkpt lat="43.4132" lon="6.72458">
        <ele>1.3</ele>
        <time>2016-10-09T09:01:47Z</time>
      </trkpt>
      <trkpt lat="43.41316" lon="6.72459">
        <ele>1.5</ele>
        <time>2016-10-09T09:01:49Z</time>
      </trkpt>
      <trkpt lat="43.41311" lon="6.7246">
        <ele>1.7</ele>
        <time>2016-10-09T09:01:51Z</time>
      </trkpt>
      <trkpt lat="43.41306" lon="6.72461">
        <ele>1.9</ele>
        <time>2016-10-09T09:01:53Z</time>
      </trkpt>
      <trkpt lat="43.413" lon="6.72463">
        <ele>2</ele>
        <time>2016-10-09T09:01:55Z</time>
      </trkpt>
      <trkpt lat="43.41294" lon="6.72466">
        <ele>2.1</ele>
        <time>2016-10-09T09:01:57Z</time>
      </trkpt>
      <trkpt lat="43.41288" lon="6.7247">
        <ele>2.3</ele>
        <time>2016-10-09T09:01:59Z</time>
      </trkpt>
      <trkpt lat="43.41282" lon="6.72473">
        <ele>2.4</ele>
        <time>2016-10-09T09:02:01Z</time>
      </trkpt>
      <trkpt lat="43.41277" lon="6.72474">
        <ele>2.5</ele>
        <time>2016-10-09T09:02:03Z</time>
      </trkpt>
      <trkpt lat="43.41274" lon="6.72474">
        <ele>2.6</ele>
        <time>2016-10-09T09:02:05Z</time>
      </trkpt>
      <trkpt lat="43.41269" lon="6.72475">
        <ele>2.8</ele>
        <time>2016-10-09T09:02:07Z</time>
      </trkpt>
      <trkpt lat="43.41262" lon="6.72475">
        <ele>3</ele>
        <time>2016-10-09T09:02:09Z</time>
      </trkpt>
      <trkpt lat="43.41256" lon="6.72476">
        <ele>3.3</ele>
        <time>2016-10-09T09:02:11Z</time>
      </trkpt>
      <trkpt lat="43.41249" lon="6.72477">
        <ele>3.7</ele>
        <time>2016-10-09T09:02:13Z</time>
      </trkpt>
      <trkpt lat="43.41242" lon="6.72477">
        <ele>4</ele>
        <time>2016-10-09T09:02:15Z</time>
      </trkpt>
      <trkpt lat="43.41235" lon="6.72477">
        <ele>3.9</ele>
        <time>2016-10-09T09:02:17Z</time>
      </trkpt>
      <trkpt lat="43.41228" lon="6.72476">
        <ele>3.8</ele>
        <time>2016-10-09T09:02:19Z</time>
      </trkpt>
      <trkpt lat="43.41221" lon="6.72476">
        <ele>3.5</ele>
        <time>2016-10-09T09:02:21Z</time>
      </trkpt>
      <trkpt lat="43.41214" lon="6.72474">
        <ele>3.2</ele>
        <time>2016-10-09T09:02:23Z</time>
      </trkpt>
      <trkpt lat="43.41208" lon="6.72472">
        <ele>3.1</ele>
        <time>2016-10-09T09:02:25Z</time>
      </trkpt>
      <trkpt lat="43.41205" lon="6.7247">
        <ele>3</ele>
        <time>2016-10-09T09:02:27Z</time>
      </trkpt>
      <trkpt lat="43.41203" lon="6.7247">
        <ele>3</ele>
        <time>2016-10-09T09:02:29Z</time>
      </trkpt>
      <trkpt lat="43.412" lon="6.72469">
        <ele>3.1</ele>
        <time>2016-10-09T09:02:31Z</time>
      </trkpt>
      <trkpt lat="43.41198" lon="6.72468">
        <ele>3.2</ele>
        <time>2016-10-09T09:02:33Z</time>
      </trkpt>
      <trkpt lat="43.41195" lon="6.72467">
        <ele>3.4</ele>
        <time>2016-10-09T09:02:35Z</time>
      </trkpt>
      <trkpt lat="43.41192" lon="6.72466">
        <ele>3.5</ele>
        <time>2016-10-09T09:02:37Z</time>
      </trkpt>
      <trkpt lat="43.4119" lon="6.72465">
        <ele>3.5</ele>
        <time>2016-10-09T09:02:39Z</time>
      </trkpt>
      <trkpt lat="43.41189" lon="6.72464">
        <ele>3.5</ele>
        <time>2016-10-09T09:02:41Z</time>
      </trkpt>
      <trkpt lat="43.41187" lon="6.72463">
        <ele>3.6</ele>
        <time>2016-10-09T09:02:43Z</time>
      </trkpt>
      <trkpt lat="43.41185" lon="6.72461">
        <ele>3.7</ele>
        <time>2016-10-09T09:02:45Z</time>
      </trkpt>
      <trkpt lat="43.41182" lon="6.72459">
        <ele>3.8</ele>
        <time>2016-10-09T09:02:47Z</time>
      </trkpt>
      <trkpt lat="43.41179" lon="6.72459">
        <ele>3.8</ele>
        <time>2016-10-09T09:02:49Z</time>
      </trkpt>
      <trkpt lat="43.41176" lon="6.72459">
        <ele>3.7</ele>
        <time>2016-10-09T09:02:51Z</time>
      </trkpt>
      <trkpt lat="43.41173" lon="6.7246">
        <ele>3.6</ele>
        <time>2016-10-09T09:02:53Z</time>
      </trkpt>
      <trkpt lat="43.41171" lon="6.72463">
        <ele>3.5</ele>
        <time>2016-10-09T09:02:55Z</time>
      </trkpt>
      <trkpt lat="43.41167" lon="6.72465">
        <ele>3.5</ele>
        <time>2016-10-09T09:02:57Z</time>
      </trkpt>
      <trkpt lat="43.41163" lon="6.72467">
        <ele>3.4</ele>
        <time>2016-10-09T09:02:59Z</time>
      </trkpt>
      <trkpt lat="43.41159" lon="6.72468">
        <ele>3.3</ele>
        <time>2016-10-09T09:03:01Z</time>
      </trkpt>
      <trkpt lat="43.41152" lon="6.72465">
        <ele>3.2</ele>
        <time>2016-10-09T09:03:03Z</time>
      </trkpt>
      <trkpt lat="43.41144" lon="6.72461">
        <ele>2.8</ele>
        <time>2016-10-09T09:03:05Z</time>
      </trkpt>
      <trkpt lat="43.41136" lon="6.72457">
        <ele>2.6</ele>
        <time>2016-10-09T09:03:07Z</time>
      </trkpt>
      <trkpt lat="43.41128" lon="6.72454">
        <ele>2.4</ele>
        <time>2016-10-09T09:03:09Z</time>
      </trkpt>
      <trkpt lat="43.4112" lon="6.72451">
        <ele>2.3</ele>
        <time>2016-10-09T09:03:11Z</time>
      </trkpt>
      <trkpt lat="43.41111" lon="6.72447">
        <ele>2.3</ele>
        <time>2016-10-09T09:03:13Z</time>
      </trkpt>
      <trkpt lat="43.41104" lon="6.72444">
        <ele>2.3</ele>
        <time>2016-10-09T09:03:15Z</time>
      </trkpt>
      <trkpt lat="43.41098" lon="6.72443">
        <ele>2.4</ele>
        <time>2016-10-09T09:03:17Z</time>
      </trkpt>
      <trkpt lat="43.41093" lon="6.7244">
        <ele>2.6</ele>
        <time>2016-10-09T09:03:19Z</time>
      </trkpt>
      <trkpt lat="43.41089" lon="6.72437">
        <ele>2.6</ele>
        <time>2016-10-09T09:03:21Z</time>
      </trkpt>
      <trkpt lat="43.41083" lon="6.72435">
        <ele>2.8</ele>
        <time>2016-10-09T09:03:23Z</time>
      </trkpt>
      <trkpt lat="43.41078" lon="6.72435">
        <ele>2.7</ele>
        <time>2016-10-09T09:03:25Z</time>
      </trkpt>
      <trkpt lat="43.41075" lon="6.72436">
        <ele>2.6</ele>
        <time>2016-10-09T09:03:27Z</time>
      </trkpt>
      <trkpt lat="43.41072" lon="6.72439">
        <ele>2.6</ele>
        <time>2016-10-09T09:03:29Z</time>
      </trkpt>
      <trkpt lat="43.41067" lon="6.72437">
        <ele>2.5</ele>
        <time>2016-10-09T09:03:31Z</time>
      </trkpt>
      <trkpt lat="43.41061" lon="6.7243">
        <ele>2.4</ele>
        <time>2016-10-09T09:03:33Z</time>
      </trkpt>
      <trkpt lat="43.41053" lon="6.72424">
        <ele>2.3</ele>
        <time>2016-10-09T09:03:35Z</time>
      </trkpt>
      <trkpt lat="43.41044" lon="6.7242">
        <ele>2.2</ele>
        <time>2016-10-09T09:03:37Z</time>
      </trkpt>
      <trkpt lat="43.41035" lon="6.72417">
        <ele>2.1</ele>
        <time>2016-10-09T09:03:39Z</time>
      </trkpt>
      <trkpt lat="43.41025" lon="6.72415">
        <ele>2</ele>
        <time>2016-10-09T09:03:41Z</time>
      </trkpt>
      <trkpt lat="43.41016" lon="6.72413">
        <ele>1.9</ele>
        <time>2016-10-09T09:03:43Z</time>
      </trkpt>
      <trkpt lat="43.41007" lon="6.72412">
        <ele>1.9</ele>
        <time>2016-10-09T09:03:45Z</time>
      </trkpt>
      <trkpt lat="43.40998" lon="6.72411">
        <ele>1.8</ele>
        <time>2016-10-09T09:03:47Z</time>
      </trkpt>
      <trkpt lat="43.40989" lon="6.7241">
        <ele>1.8</ele>
        <time>2016-10-09T09:03:49Z</time>
      </trkpt>
      <trkpt lat="43.40979" lon="6.72409">
        <ele>1.8</ele>
        <time>2016-10-09T09:03:51Z</time>
      </trkpt>
      <trkpt lat="43.4097" lon="6.72409">
        <ele>1.7</ele>
        <time>2016-10-09T09:03:53Z</time>
      </trkpt>
      <trkpt lat="43.4096" lon="6.72411">
        <ele>1.6</ele>
        <time>2016-10-09T09:03:55Z</time>
      </trkpt>
      <trkpt lat="43.40951" lon="6.72413">
        <ele>1.6</ele>
        <time>2016-10-09T09:03:57Z</time>
      </trkpt>
      <trkpt lat="43.40942" lon="6.72415">
        <ele>1.5</ele>
        <time>2016-10-09T09:03:59Z</time>
      </trkpt>
      <trkpt lat="43.40932" lon="6.72419">
        <ele>1.4</ele>
        <time>2016-10-09T09:04:01Z</time>
      </trkpt>
      <trkpt lat="43.40921" lon="6.72419">
        <ele>1.2</ele>
        <time>2016-10-09T09:04:03Z</time>
      </trkpt>
      <trkpt lat="43.40912" lon="6.72411">
        <ele>1.5</ele>
        <time>2016-10-09T09:04:05Z</time>
      </trkpt>
      <trkpt lat="43.40909" lon="6.72395">
        <ele>2</ele>
        <time>2016-10-09T09:04:07Z</time>
      </trkpt>
      <trkpt lat="43.40907" lon="6.72379">
        <ele>2</ele>
        <time>2016-10-09T09:04:09Z</time>
      </trkpt>
      <trkpt lat="43.40902" lon="6.72367">
        <ele>2.2</ele>
        <time>2016-10-09T09:04:11Z</time>
      </trkpt>
      <trkpt lat="43.40894" lon="6.72357">
        <ele>2.4</ele>
        <time>2016-10-09T09:04:13Z</time>
      </trkpt>
      <trkpt lat="43.40885" lon="6.7235">
        <ele>2.6</ele>
        <time>2016-10-09T09:04:15Z</time>
      </trkpt>
      <trkpt lat="43.40875" lon="6.72343">
        <ele>2.5</ele>
        <time>2016-10-09T09:04:17Z</time>
      </trkpt>
      <trkpt lat="43.40864" lon="6.72337">
        <ele>2</ele>
        <time>2016-10-09T09:04:19Z</time>
      </trkpt>
      <trkpt lat="43.40853" lon="6.72335">
        <ele>1.7</ele>
        <time>2016-10-09T09:04:21Z</time>
      </trkpt>
      <trkpt lat="43.40842" lon="6.72335">
        <ele>1.4</ele>
        <time>2016-10-09T09:04:23Z</time>
      </trkpt>
      <trkpt lat="43.40832" lon="6.72336">
        <ele>1.5</ele>
        <time>2016-10-09T09:04:25Z</time>
      </trkpt>
      <trkpt lat="43.40822" lon="6.72333">
        <ele>1.5</ele>
        <time>2016-10-09T09:04:27Z</time>
      </trkpt>
      <trkpt lat="43.40812" lon="6.72329">
        <ele>1.7</ele>
        <time>2016-10-09T09:04:29Z</time>
      </trkpt>
      <trkpt lat="43.40801" lon="6.72325">
        <ele>2</ele>
        <time>2016-10-09T09:04:31Z</time>
      </trkpt>
      <trkpt lat="43.4079" lon="6.7232">
        <ele>2</ele>
        <time>2016-10-09T09:04:33Z</time>
      </trkpt>
      <trkpt lat="43.40778" lon="6.72315">
        <ele>2</ele>
        <time>2016-10-09T09:04:35Z</time>
      </trkpt>
      <trkpt lat="43.40767" lon="6.72311">
        <ele>1.8</ele>
        <time>2016-10-09T09:04:37Z</time>
      </trkpt>
      <trkpt lat="43.40756" lon="6.72307">
        <ele>1.8</ele>
        <time>2016-10-09T09:04:39Z</time>
      </trkpt>
      <trkpt lat="43.40746" lon="6.723">
        <ele>1.9</ele>
        <time>2016-10-09T09:04:41Z</time>
      </trkpt>
      <trkpt lat="43.40738" lon="6.72291">
        <ele>2.1</ele>
        <time>2016-10-09T09:04:43Z</time>
      </trkpt>
      <trkpt lat="43.40732" lon="6.72278">
        <ele>2.2</ele>
        <time>2016-10-09T09:04:45Z</time>
      </trkpt>
      <trkpt lat="43.40732" lon="6.72264">
        <ele>2.3</ele>
        <time>2016-10-09T09:04:47Z</time>
      </trkpt>
      <trkpt lat="43.40736" lon="6.7225">
        <ele>2.4</ele>
        <time>2016-10-09T09:04:49Z</time>
      </trkpt>
      <trkpt lat="43.40741" lon="6.72238">
        <ele>2.5</ele>
        <time>2016-10-09T09:04:51Z</time>
      </trkpt>
      <trkpt lat="43.40746" lon="6.72225">
        <ele>2.6</ele>
        <time>2016-10-09T09:04:53Z</time>
      </trkpt>
      <trkpt lat="43.40752" lon="6.72213">
        <ele>2.7</ele>
        <time>2016-10-09T09:04:55Z</time>
      </trkpt>
      <trkpt lat="43.40758" lon="6.72201">
        <ele>2.6</ele>
        <time>2016-10-09T09:04:57Z</time>
      </trkpt>
      <trkpt lat="43.40764" lon="6.72188">
        <ele>2.6</ele>
        <time>2016-10-09T09:04:59Z</time>
      </trkpt>
      <trkpt lat="43.40769" lon="6.72175">
        <ele>2.5</ele>
        <time>2016-10-09T09:05:01Z</time>
      </trkpt>
      <trkpt lat="43.40774" lon="6.72163">
        <ele>2.3</ele>
        <time>2016-10-09T09:05:03Z</time>
      </trkpt>
      <trkpt lat="43.40779" lon="6.72151">
        <ele>2.1</ele>
        <time>2016-10-09T09:05:05Z</time>
      </trkpt>
      <trkpt lat="43.40784" lon="6.72138">
        <ele>1.9</ele>
        <time>2016-10-09T09:05:07Z</time>
      </trkpt>
      <trkpt lat="43.40787" lon="6.72125">
        <ele>1.5</ele>
        <time>2016-10-09T09:05:09Z</time>
      </trkpt>
      <trkpt lat="43.40788" lon="6.72111">
        <ele>1.7</ele>
        <time>2016-10-09T09:05:11Z</time>
      </trkpt>
      <trkpt lat="43.40788" lon="6.72096">
        <ele>2.5</ele>
        <time>2016-10-09T09:05:13Z</time>
      </trkpt>
      <trkpt lat="43.40788" lon="6.72081">
        <ele>2.8</ele>
        <time>2016-10-09T09:05:15Z</time>
      </trkpt>
      <trkpt lat="43.4079" lon="6.72066">
        <ele>2.3</ele>
        <time>2016-10-09T09:05:17Z</time>
      </trkpt>
      <trkpt lat="43.40793" lon="6.72051">
        <ele>1.8</ele>
        <time>2016-10-09T09:05:19Z</time>
      </trkpt>
      <trkpt lat="43.40796" lon="6.72035">
        <ele>1.8</ele>
        <time>2016-10-09T09:05:21Z</time>
      </trkpt>
      <trkpt lat="43.40798" lon="6.7202">
        <ele>1.9</ele>
        <time>2016-10-09T09:05:23Z</time>
      </trkpt>
      <trkpt lat="43.40801" lon="6.72005">
        <ele>1.9</ele>
        <time>2016-10-09T09:05:25Z</time>
      </trkpt>
      <trkpt lat="43.40805" lon="6.71989">
        <ele>1.8</ele>
        <time>2016-10-09T09:05:27Z</time>
      </trkpt>
      <trkpt lat="43.40809" lon="6.71973">
        <ele>1.3</ele>
        <time>2016-10-09T09:05:29Z</time>
      </trkpt>
      <trkpt lat="43.40814" lon="6.71957">
        <ele>1</ele>
        <time>2016-10-09T09:05:31Z</time>
      </trkpt>
      <trkpt lat="43.40819" lon="6.71942">
        <ele>1</ele>
        <time>2016-10-09T09:05:33Z</time>
      </trkpt>
      <trkpt lat="43.40824" lon="6.71927">
        <ele>0.9</ele>
        <time>2016-10-09T09:05:35Z</time>
      </trkpt>
      <trkpt lat="43.4083" lon="6.71913">
        <ele>0.9</ele>
        <time>2016-10-09T09:05:37Z</time>
      </trkpt>
      <trkpt lat="43.40834" lon="6.71899">
        <ele>0.9</ele>
        <time>2016-10-09T09:05:39Z</time>
      </trkpt>
      <trkpt lat="43.4084" lon="6.71884">
        <ele>0.9</ele>
        <time>2016-10-09T09:05:41Z</time>
      </trkpt>
      <trkpt lat="43.40846" lon="6.71871">
        <ele>1</ele>
        <time>2016-10-09T09:05:43Z</time>
      </trkpt>
      <trkpt lat="43.40852" lon="6.71858">
        <ele>1</ele>
        <time>2016-10-09T09:05:45Z</time>
      </trkpt>
      <trkpt lat="43.40858" lon="6.71845">
        <ele>1</ele>
        <time>2016-10-09T09:05:47Z</time>
      </trkpt>
      <trkpt lat="43.40865" lon="6.71833">
        <ele>1.2</ele>
        <time>2016-10-09T09:05:49Z</time>
      </trkpt>
      <trkpt lat="43.40872" lon="6.71822">
        <ele>1.9</ele>
        <time>2016-10-09T09:05:51Z</time>
      </trkpt>
      <trkpt lat="43.40879" lon="6.7181">
        <ele>2.1</ele>
        <time>2016-10-09T09:05:53Z</time>
      </trkpt>
      <trkpt lat="43.40886" lon="6.71798">
        <ele>2.2</ele>
        <time>2016-10-09T09:05:55Z</time>
      </trkpt>
      <trkpt lat="43.40891" lon="6.71784">
        <ele>2.3</ele>
        <time>2016-10-09T09:05:57Z</time>
      </trkpt>
      <trkpt lat="43.40895" lon="6.7177">
        <ele>2.4</ele>
        <time>2016-10-09T09:05:59Z</time>
      </trkpt>
      <trkpt lat="43.40897" lon="6.71755">
        <ele>2.4</ele>
        <time>2016-10-09T09:06:01Z</time>
      </trkpt>
      <trkpt lat="43.40899" lon="6.71741">
        <ele>2.3</ele>
        <time>2016-10-09T09:06:03Z</time>
      </trkpt>
      <trkpt lat="43.40902" lon="6.71727">
        <ele>2.3</ele>
        <time>2016-10-09T09:06:05Z</time>
      </trkpt>
      <trkpt lat="43.40906" lon="6.71713">
        <ele>2.2</ele>
        <time>2016-10-09T09:06:07Z</time>
      </trkpt>
      <trkpt lat="43.40908" lon="6.71699">
        <ele>2.3</ele>
        <time>2016-10-09T09:06:09Z</time>
      </trkpt>
      <trkpt lat="43.40912" lon="6.71684">
        <ele>2.3</ele>
        <time>2016-10-09T09:06:11Z</time>
      </trkpt>
      <trkpt lat="43.40914" lon="6.7167">
        <ele>2.3</ele>
        <time>2016-10-09T09:06:13Z</time>
      </trkpt>
      <trkpt lat="43.40917" lon="6.71656">
        <ele>2.3</ele>
        <time>2016-10-09T09:06:15Z</time>
      </trkpt>
      <trkpt lat="43.4092" lon="6.71641">
        <ele>2.4</ele>
        <time>2016-10-09T09:06:17Z</time>
      </trkpt>
      <trkpt lat="43.40923" lon="6.71626">
        <ele>2.4</ele>
        <time>2016-10-09T09:06:19Z</time>
      </trkpt>
      <trkpt lat="43.40926" lon="6.71612">
        <ele>2.5</ele>
        <time>2016-10-09T09:06:21Z</time>
      </trkpt>
      <trkpt lat="43.40929" lon="6.71598">
        <ele>2.5</ele>
        <time>2016-10-09T09:06:23Z</time>
      </trkpt>
      <trkpt lat="43.40932" lon="6.71584">
        <ele>2.6</ele>
        <time>2016-10-09T09:06:25Z</time>
      </trkpt>
      <trkpt lat="43.40934" lon="6.71569">
        <ele>2.6</ele>
        <time>2016-10-09T09:06:27Z</time>
      </trkpt>
      <trkpt lat="43.40937" lon="6.71555">
        <ele>2.7</ele>
        <time>2016-10-09T09:06:29Z</time>
      </trkpt>
      <trkpt lat="43.40939" lon="6.7154">
        <ele>2.7</ele>
        <time>2016-10-09T09:06:31Z</time>
      </trkpt>
      <trkpt lat="43.40939" lon="6.71525">
        <ele>2.8</ele>
        <time>2016-10-09T09:06:33Z</time>
      </trkpt>
      <trkpt lat="43.40939" lon="6.71511">
        <ele>2.9</ele>
        <time>2016-10-09T09:06:35Z</time>
      </trkpt>
      <trkpt lat="43.40935" lon="6.715">
        <ele>3</ele>
        <time>2016-10-09T09:06:37Z</time>
      </trkpt>
      <trkpt lat="43.40931" lon="6.71491">
        <ele>3</ele>
        <time>2016-10-09T09:06:39Z</time>
      </trkpt>
      <trkpt lat="43.40933" lon="6.71486">
        <ele>3</ele>
        <time>2016-10-09T09:06:41Z</time>
      </trkpt>
      <trkpt lat="43.40934" lon="6.71482">
        <ele>3</ele>
        <time>2016-10-09T09:06:43Z</time>
      </trkpt>
      <trkpt lat="43.40936" lon="6.7148">
        <ele>3</ele>
        <time>2016-10-09T09:06:45Z</time>
      </trkpt>
      <trkpt lat="43.40939" lon="6.71475">
        <ele>3</ele>
        <time>2016-10-09T09:06:47Z</time>
      </trkpt>
      <trkpt lat="43.40941" lon="6.71467">
        <ele>3</ele>
        <time>2016-10-09T09:06:49Z</time>
      </trkpt>
      <trkpt lat="43.40944" lon="6.71457">
        <ele>3</ele>
        <time>2016-10-09T09:06:51Z</time>
      </trkpt>
      <trkpt lat="43.40947" lon="6.71448">
        <ele>3</ele>
        <time>2016-10-09T09:06:53Z</time>
      </trkpt>
      <trkpt lat="43.40949" lon="6.7144">
        <ele>3</ele>
        <time>2016-10-09T09:06:55Z</time>
      </trkpt>
      <trkpt lat="43.40955" lon="6.71437">
        <ele>3</ele>
        <time>2016-10-09T09:06:57Z</time>
      </trkpt>
      <trkpt lat="43.40961" lon="6.71437">
        <ele>3</ele>
        <time>2016-10-09T09:06:59Z</time>
      </trkpt>
      <trkpt lat="43.40966" lon="6.71433">
        <ele>3</ele>
        <time>2016-10-09T09:07:01Z</time>
      </trkpt>
      <trkpt lat="43.40966" lon="6.71426">
        <ele>3</ele>
        <time>2016-10-09T09:07:03Z</time>
      </trkpt>
      <trkpt lat="43.40968" lon="6.71417">
        <ele>3</ele>
        <time>2016-10-09T09:07:05Z</time>
      </trkpt>
      <trkpt lat="43.40971" lon="6.71407">
        <ele>2.7</ele>
        <time>2016-10-09T09:07:07Z</time>
      </trkpt>
      <trkpt lat="43.40978" lon="6.71401">
        <ele>2.1</ele>
        <time>2016-10-09T09:07:09Z</time>
      </trkpt>
      <trkpt lat="43.40986" lon="6.71396">
        <ele>1.4</ele>
        <time>2016-10-09T09:07:11Z</time>
      </trkpt>
      <trkpt lat="43.40994" lon="6.71392">
        <ele>1.2</ele>
        <time>2016-10-09T09:07:13Z</time>
      </trkpt>
      <trkpt lat="43.41001" lon="6.71388">
        <ele>1.1</ele>
        <time>2016-10-09T09:07:15Z</time>
      </trkpt>
      <trkpt lat="43.41009" lon="6.71384">
        <ele>1.3</ele>
        <time>2016-10-09T09:07:17Z</time>
      </trkpt>
      <trkpt lat="43.41017" lon="6.71378">
        <ele>1.5</ele>
        <time>2016-10-09T09:07:19Z</time>
      </trkpt>
      <trkpt lat="43.41024" lon="6.7137">
        <ele>2</ele>
        <time>2016-10-09T09:07:21Z</time>
      </trkpt>
      <trkpt lat="43.41031" lon="6.71359">
        <ele>2.3</ele>
        <time>2016-10-09T09:07:23Z</time>
      </trkpt>
      <trkpt lat="43.41037" lon="6.71349">
        <ele>2.5</ele>
        <time>2016-10-09T09:07:25Z</time>
      </trkpt>
      <trkpt lat="43.41044" lon="6.71338">
        <ele>2.5</ele>
        <time>2016-10-09T09:07:27Z</time>
      </trkpt>
      <trkpt lat="43.4105" lon="6.71327">
        <ele>2.5</ele>
        <time>2016-10-09T09:07:29Z</time>
      </trkpt>
      <trkpt lat="43.41056" lon="6.71317">
        <ele>2.6</ele>
        <time>2016-10-09T09:07:31Z</time>
      </trkpt>
      <trkpt lat="43.41062" lon="6.71307">
        <ele>2.4</ele>
        <time>2016-10-09T09:07:33Z</time>
      </trkpt>
      <trkpt lat="43.41068" lon="6.71297">
        <ele>2.1</ele>
        <time>2016-10-09T09:07:35Z</time>
      </trkpt>
      <trkpt lat="43.41075" lon="6.71289">
        <ele>1.9</ele>
        <time>2016-10-09T09:07:37Z</time>
      </trkpt>
      <trkpt lat="43.41082" lon="6.71282">
        <ele>1.7</ele>
        <time>2016-10-09T09:07:39Z</time>
      </trkpt>
      <trkpt lat="43.4109" lon="6.71274">
        <ele>1.9</ele>
        <time>2016-10-09T09:07:41Z</time>
      </trkpt>
      <trkpt lat="43.41095" lon="6.71263">
        <ele>2.7</ele>
        <time>2016-10-09T09:07:43Z</time>
      </trkpt>
      <trkpt lat="43.41094" lon="6.71251">
        <ele>3.3</ele>
        <time>2016-10-09T09:07:45Z</time>
      </trkpt>
      <trkpt lat="43.41091" lon="6.71238">
        <ele>3.8</ele>
        <time>2016-10-09T09:07:47Z</time>
      </trkpt>
      <trkpt lat="43.41087" lon="6.71225">
        <ele>4.1</ele>
        <time>2016-10-09T09:07:49Z</time>
      </trkpt>
      <trkpt lat="43.41083" lon="6.71211">
        <ele>4.2</ele>
        <time>2016-10-09T09:07:51Z</time>
      </trkpt>
      <trkpt lat="43.4108" lon="6.71198">
        <ele>4.1</ele>
        <time>2016-10-09T09:07:53Z</time>
      </trkpt>
      <trkpt lat="43.41077" lon="6.71186">
        <ele>4</ele>
        <time>2016-10-09T09:07:55Z</time>
      </trkpt>
      <trkpt lat="43.41073" lon="6.71174">
        <ele>3.9</ele>
        <time>2016-10-09T09:07:57Z</time>
      </trkpt>
      <trkpt lat="43.4107" lon="6.71161">
        <ele>4</ele>
        <time>2016-10-09T09:07:59Z</time>
      </trkpt>
      <trkpt lat="43.41066" lon="6.71148">
        <ele>4.3</ele>
        <time>2016-10-09T09:08:01Z</time>
      </trkpt>
      <trkpt lat="43.41063" lon="6.71135">
        <ele>4.4</ele>
        <time>2016-10-09T09:08:03Z</time>
      </trkpt>
      <trkpt lat="43.41059" lon="6.71122">
        <ele>4</ele>
        <time>2016-10-09T09:08:05Z</time>
      </trkpt>
      <trkpt lat="43.41055" lon="6.71112">
        <ele>3.6</ele>
        <time>2016-10-09T09:08:07Z</time>
      </trkpt>
      <trkpt lat="43.41049" lon="6.711">
        <ele>3.4</ele>
        <time>2016-10-09T09:08:09Z</time>
      </trkpt>
      <trkpt lat="43.41045" lon="6.71086">
        <ele>3.5</ele>
        <time>2016-10-09T09:08:11Z</time>
      </trkpt>
      <trkpt lat="43.41042" lon="6.71073">
        <ele>3.8</ele>
        <time>2016-10-09T09:08:13Z</time>
      </trkpt>
      <trkpt lat="43.4104" lon="6.7106">
        <ele>4.1</ele>
        <time>2016-10-09T09:08:15Z</time>
      </trkpt>
      <trkpt lat="43.41038" lon="6.71048">
        <ele>4.3</ele>
        <time>2016-10-09T09:08:17Z</time>
      </trkpt>
      <trkpt lat="43.41036" lon="6.71034">
        <ele>4.3</ele>
        <time>2016-10-09T09:08:19Z</time>
      </trkpt>
      <trkpt lat="43.41032" lon="6.7102">
        <ele>4.2</ele>
        <time>2016-10-09T09:08:21Z</time>
      </trkpt>
      <trkpt lat="43.41028" lon="6.71007">
        <ele>3.9</ele>
        <time>2016-10-09T09:08:23Z</time>
      </trkpt>
      <trkpt lat="43.41024" lon="6.70994">
        <ele>4.2</ele>
        <time>2016-10-09T09:08:25Z</time>
      </trkpt>
      <trkpt lat="43.41022" lon="6.70981">
        <ele>4.7</ele>
        <time>2016-10-09T09:08:27Z</time>
      </trkpt>
      <trkpt lat="43.41018" lon="6.70967">
        <ele>5.3</ele>
        <time>2016-10-09T09:08:29Z</time>
      </trkpt>
      <trkpt lat="43.41015" lon="6.70954">
        <ele>5.9</ele>
        <time>2016-10-09T09:08:31Z</time>
      </trkpt>
      <trkpt lat="43.41011" lon="6.7094">
        <ele>6.4</ele>
        <time>2016-10-09T09:08:33Z</time>
      </trkpt>
      <trkpt lat="43.41008" lon="6.70926">
        <ele>7.1</ele>
        <time>2016-10-09T09:08:35Z</time>
      </trkpt>
      <trkpt lat="43.41004" lon="6.70913">
        <ele>7.5</ele>
        <time>2016-10-09T09:08:37Z</time>
      </trkpt>
      <trkpt lat="43.41" lon="6.709">
        <ele>7.6</ele>
        <time>2016-10-09T09:08:39Z</time>
      </trkpt>
      <trkpt lat="43.40997" lon="6.70887">
        <ele>7.4</ele>
        <time>2016-10-09T09:08:41Z</time>
      </trkpt>
      <trkpt lat="43.40993" lon="6.70876">
        <ele>7.1</ele>
        <time>2016-10-09T09:08:43Z</time>
      </trkpt>
      <trkpt lat="43.40986" lon="6.7087">
        <ele>6.9</ele>
        <time>2016-10-09T09:08:45Z</time>
      </trkpt>
      <trkpt lat="43.40978" lon="6.70869">
        <ele>6.7</ele>
        <time>2016-10-09T09:08:47Z</time>
      </trkpt>
      <trkpt lat="43.4097" lon="6.70863">
        <ele>6.8</ele>
        <time>2016-10-09T09:08:49Z</time>
      </trkpt>
      <trkpt lat="43.40965" lon="6.70852">
        <ele>6.8</ele>
        <time>2016-10-09T09:08:51Z</time>
      </trkpt>
      <trkpt lat="43.40965" lon="6.7084">
        <ele>6.8</ele>
        <time>2016-10-09T09:08:53Z</time>
      </trkpt>
      <trkpt lat="43.4097" lon="6.70832">
        <ele>7.3</ele>
        <time>2016-10-09T09:08:55Z</time>
      </trkpt>
      <trkpt lat="43.40975" lon="6.70823">
        <ele>7.8</ele>
        <time>2016-10-09T09:08:57Z</time>
      </trkpt>
      <trkpt lat="43.40981" lon="6.70815">
        <ele>8.2</ele>
        <time>2016-10-09T09:08:59Z</time>
      </trkpt>
      <trkpt lat="43.40989" lon="6.70811">
        <ele>8.6</ele>
        <time>2016-10-09T09:09:01Z</time>
      </trkpt>
      <trkpt lat="43.40997" lon="6.70807">
        <ele>9</ele>
        <time>2016-10-09T09:09:03Z</time>
      </trkpt>
      <trkpt lat="43.41005" lon="6.70803">
        <ele>9.3</ele>
        <time>2016-10-09T09:09:05Z</time>
      </trkpt>
      <trkpt lat="43.41012" lon="6.70799">
        <ele>9.6</ele>
        <time>2016-10-09T09:09:07Z</time>
      </trkpt>
      <trkpt lat="43.4102" lon="6.70794">
        <ele>9.9</ele>
        <time>2016-10-09T09:09:09Z</time>
      </trkpt>
      <trkpt lat="43.41029" lon="6.7079">
        <ele>10.2</ele>
        <time>2016-10-09T09:09:11Z</time>
      </trkpt>
      <trkpt lat="43.41037" lon="6.70786">
        <ele>11</ele>
        <time>2016-10-09T09:09:13Z</time>
      </trkpt>
      <trkpt lat="43.41045" lon="6.70782">
        <ele>11.7</ele>
        <time>2016-10-09T09:09:15Z</time>
      </trkpt>
      <trkpt lat="43.41053" lon="6.70783">
        <ele>12.4</ele>
        <time>2016-10-09T09:09:17Z</time>
      </trkpt>
      <trkpt lat="43.41063" lon="6.70788">
        <ele>12.9</ele>
        <time>2016-10-09T09:09:19Z</time>
      </trkpt>
      <trkpt lat="43.41074" lon="6.70792">
        <ele>13</ele>
        <time>2016-10-09T09:09:21Z</time>
      </trkpt>
      <trkpt lat="43.41086" lon="6.70794">
        <ele>12.5</ele>
        <time>2016-10-09T09:09:23Z</time>
      </trkpt>
      <trkpt lat="43.41098" lon="6.70795">
        <ele>11.9</ele>
        <time>2016-10-09T09:09:25Z</time>
      </trkpt>
      <trkpt lat="43.4111" lon="6.70797">
        <ele>11.3</ele>
        <time>2016-10-09T09:09:27Z</time>
      </trkpt>
      <trkpt lat="43.41121" lon="6.70797">
        <ele>11.1</ele>
        <time>2016-10-09T09:09:29Z</time>
      </trkpt>
      <trkpt lat="43.41132" lon="6.70797">
        <ele>11.5</ele>
        <time>2016-10-09T09:09:31Z</time>
      </trkpt>
      <trkpt lat="43.41143" lon="6.70793">
        <ele>11.8</ele>
        <time>2016-10-09T09:09:33Z</time>
      </trkpt>
      <trkpt lat="43.41153" lon="6.70784">
        <ele>12.3</ele>
        <time>2016-10-09T09:09:35Z</time>
      </trkpt>
      <trkpt lat="43.4116" lon="6.70772">
        <ele>12.6</ele>
        <time>2016-10-09T09:09:37Z</time>
      </trkpt>
      <trkpt lat="43.41166" lon="6.70759">
        <ele>13.2</ele>
        <time>2016-10-09T09:09:39Z</time>
      </trkpt>
      <trkpt lat="43.41172" lon="6.70746">
        <ele>14.2</ele>
        <time>2016-10-09T09:09:41Z</time>
      </trkpt>
      <trkpt lat="43.41177" lon="6.70733">
        <ele>15.3</ele>
        <time>2016-10-09T09:09:43Z</time>
      </trkpt>
      <trkpt lat="43.41183" lon="6.70721">
        <ele>14.8</ele>
        <time>2016-10-09T09:09:45Z</time>
      </trkpt>
      <trkpt lat="43.41188" lon="6.70709">
        <ele>14.9</ele>
        <time>2016-10-09T09:09:47Z</time>
      </trkpt>
      <trkpt lat="43.41193" lon="6.70696">
        <ele>15</ele>
        <time>2016-10-09T09:09:49Z</time>
      </trkpt>
      <trkpt lat="43.412" lon="6.70683">
        <ele>14.2</ele>
        <time>2016-10-09T09:09:51Z</time>
      </trkpt>
      <trkpt lat="43.41205" lon="6.70671">
        <ele>13</ele>
        <time>2016-10-09T09:09:53Z</time>
      </trkpt>
      <trkpt lat="43.4121" lon="6.70658">
        <ele>12.5</ele>
        <time>2016-10-09T09:09:55Z</time>
      </trkpt>
      <trkpt lat="43.41215" lon="6.70646">
        <ele>12.2</ele>
        <time>2016-10-09T09:09:57Z</time>
      </trkpt>
      <trkpt lat="43.4122" lon="6.70633">
        <ele>11.8</ele>
        <time>2016-10-09T09:09:59Z</time>
      </trkpt>
      <trkpt lat="43.41225" lon="6.70621">
        <ele>11.1</ele>
        <time>2016-10-09T09:10:01Z</time>
      </trkpt>
      <trkpt lat="43.4123" lon="6.70611">
        <ele>10.6</ele>
        <time>2016-10-09T09:10:03Z</time>
      </trkpt>
      <trkpt lat="43.41234" lon="6.706">
        <ele>10.3</ele>
        <time>2016-10-09T09:10:05Z</time>
      </trkpt>
      <trkpt lat="43.41238" lon="6.7059">
        <ele>9.6</ele>
        <time>2016-10-09T09:10:07Z</time>
      </trkpt>
      <trkpt lat="43.41243" lon="6.70578">
        <ele>8.6</ele>
        <time>2016-10-09T09:10:09Z</time>
      </trkpt>
      <trkpt lat="43.41247" lon="6.70566">
        <ele>7.5</ele>
        <time>2016-10-09T09:10:11Z</time>
      </trkpt>
      <trkpt lat="43.4125" lon="6.70553">
        <ele>7</ele>
        <time>2016-10-09T09:10:13Z</time>
      </trkpt>
      <trkpt lat="43.41253" lon="6.70539">
        <ele>7</ele>
        <time>2016-10-09T09:10:15Z</time>
      </trkpt>
      <trkpt lat="43.41258" lon="6.70525">
        <ele>7.1</ele>
        <time>2016-10-09T09:10:17Z</time>
      </trkpt>
      <trkpt lat="43.41263" lon="6.70512">
        <ele>7.7</ele>
        <time>2016-10-09T09:10:19Z</time>
      </trkpt>
      <trkpt lat="43.41269" lon="6.705">
        <ele>8.1</ele>
        <time>2016-10-09T09:10:21Z</time>
      </trkpt>
      <trkpt lat="43.41274" lon="6.70488">
        <ele>8.5</ele>
        <time>2016-10-09T09:10:23Z</time>
      </trkpt>
      <trkpt lat="43.41279" lon="6.70477">
        <ele>8.8</ele>
        <time>2016-10-09T09:10:25Z</time>
      </trkpt>
      <trkpt lat="43.41283" lon="6.70465">
        <ele>9.1</ele>
        <time>2016-10-09T09:10:27Z</time>
      </trkpt>
      <trkpt lat="43.41289" lon="6.70454">
        <ele>9.3</ele>
        <time>2016-10-09T09:10:29Z</time>
      </trkpt>
      <trkpt lat="43.41294" lon="6.70442">
        <ele>9.6</ele>
        <time>2016-10-09T09:10:31Z</time>
      </trkpt>
      <trkpt lat="43.41299" lon="6.7043">
        <ele>9.9</ele>
        <time>2016-10-09T09:10:33Z</time>
      </trkpt>
      <trkpt lat="43.41304" lon="6.70419">
        <ele>10.1</ele>
        <time>2016-10-09T09:10:35Z</time>
      </trkpt>
      <trkpt lat="43.41309" lon="6.70407">
        <ele>10.3</ele>
        <time>2016-10-09T09:10:37Z</time>
      </trkpt>
      <trkpt lat="43.41314" lon="6.70395">
        <ele>10.4</ele>
        <time>2016-10-09T09:10:39Z</time>
      </trkpt>
      <trkpt lat="43.41319" lon="6.70382">
        <ele>10.6</ele>
        <time>2016-10-09T09:10:41Z</time>
      </trkpt>
      <trkpt lat="43.41322" lon="6.70368">
        <ele>10.7</ele>
        <time>2016-10-09T09:10:43Z</time>
      </trkpt>
      <trkpt lat="43.41326" lon="6.70353">
        <ele>10.9</ele>
        <time>2016-10-09T09:10:45Z</time>
      </trkpt>
      <trkpt lat="43.41329" lon="6.70338">
        <ele>11.8</ele>
        <time>2016-10-09T09:10:47Z</time>
      </trkpt>
      <trkpt lat="43.41331" lon="6.70323">
        <ele>13.4</ele>
        <time>2016-10-09T09:10:49Z</time>
      </trkpt>
      <trkpt lat="43.41332" lon="6.70307">
        <ele>15.1</ele>
        <time>2016-10-09T09:10:51Z</time>
      </trkpt>
      <trkpt lat="43.41332" lon="6.70292">
        <ele>16.5</ele>
        <time>2016-10-09T09:10:53Z</time>
      </trkpt>
      <trkpt lat="43.41332" lon="6.70277">
        <ele>17.8</ele>
        <time>2016-10-09T09:10:55Z</time>
      </trkpt>
      <trkpt lat="43.4133" lon="6.70263">
        <ele>19.1</ele>
        <time>2016-10-09T09:10:57Z</time>
      </trkpt>
      <trkpt lat="43.41328" lon="6.70249">
        <ele>20.3</ele>
        <time>2016-10-09T09:10:59Z</time>
      </trkpt>
      <trkpt lat="43.41326" lon="6.70235">
        <ele>21.7</ele>
        <time>2016-10-09T09:11:01Z</time>
      </trkpt>
      <trkpt lat="43.41324" lon="6.70222">
        <ele>23.2</ele>
        <time>2016-10-09T09:11:03Z</time>
      </trkpt>
      <trkpt lat="43.41321" lon="6.7021">
        <ele>24.6</ele>
        <time>2016-10-09T09:11:05Z</time>
      </trkpt>
      <trkpt lat="43.41317" lon="6.70189">
        <ele>28.5</ele>
        <time>2016-10-09T09:11:09Z</time>
      </trkpt>
      <trkpt lat="43.41316" lon="6.70183">
        <ele>29.4</ele>
        <time>2016-10-09T09:11:11Z</time>
      </trkpt>
      <trkpt lat="43.41314" lon="6.70179">
        <ele>29.9</ele>
        <time>2016-10-09T09:11:13Z</time>
      </trkpt>
      <trkpt lat="43.41313" lon="6.70176">
        <ele>29.7</ele>
        <time>2016-10-09T09:11:15Z</time>
      </trkpt>
      <trkpt lat="43.41312" lon="6.70173">
        <ele>29.5</ele>
        <time>2016-10-09T09:11:17Z</time>
      </trkpt>
      <trkpt lat="43.41311" lon="6.70169">
        <ele>29.2</ele>
        <time>2016-10-09T09:11:19Z</time>
      </trkpt>
      <trkpt lat="43.4131" lon="6.70166">
        <ele>29</ele>
        <time>2016-10-09T09:11:21Z</time>
      </trkpt>
      <trkpt lat="43.41309" lon="6.70163">
        <ele>28.9</ele>
        <time>2016-10-09T09:11:23Z</time>
      </trkpt>
      <trkpt lat="43.41308" lon="6.7016">
        <ele>28.6</ele>
        <time>2016-10-09T09:11:25Z</time>
      </trkpt>
      <trkpt lat="43.41306" lon="6.70156">
        <ele>28.4</ele>
        <time>2016-10-09T09:11:27Z</time>
      </trkpt>
      <trkpt lat="43.41303" lon="6.70153">
        <ele>28</ele>
        <time>2016-10-09T09:11:29Z</time>
      </trkpt>
      <trkpt lat="43.41299" lon="6.70149">
        <ele>28</ele>
        <time>2016-10-09T09:11:31Z</time>
      </trkpt>
      <trkpt lat="43.41296" lon="6.70145">
        <ele>28</ele>
        <time>2016-10-09T09:11:33Z</time>
      </trkpt>
      <trkpt lat="43.41295" lon="6.70141">
        <ele>28</ele>
        <time>2016-10-09T09:11:35Z</time>
      </trkpt>
      <trkpt lat="43.41294" lon="6.70138">
        <ele>28</ele>
        <time>2016-10-09T09:11:37Z</time>
      </trkpt>
      <trkpt lat="43.41293" lon="6.70134">
        <ele>28</ele>
        <time>2016-10-09T09:11:39Z</time>
      </trkpt>
      <trkpt lat="43.41292" lon="6.70129">
        <ele>28</ele>
        <time>2016-10-09T09:11:41Z</time>
      </trkpt>
      <trkpt lat="43.41292" lon="6.70123">
        <ele>28</ele>
        <time>2016-10-09T09:11:43Z</time>
      </trkpt>
      <trkpt lat="43.4129" lon="6.70116">
        <ele>28</ele>
        <time>2016-10-09T09:11:45Z</time>
      </trkpt>
      <trkpt lat="43.41287" lon="6.70111">
        <ele>28</ele>
        <time>2016-10-09T09:11:47Z</time>
      </trkpt>
      <trkpt lat="43.41285" lon="6.70106">
        <ele>27.6</ele>
        <time>2016-10-09T09:11:49Z</time>
      </trkpt>
      <trkpt lat="43.41282" lon="6.70101">
        <ele>27.4</ele>
        <time>2016-10-09T09:11:51Z</time>
      </trkpt>
      <trkpt lat="43.4128" lon="6.70097">
        <ele>27.1</ele>
        <time>2016-10-09T09:11:53Z</time>
      </trkpt>
      <trkpt lat="43.41279" lon="6.70093">
        <ele>27</ele>
        <time>2016-10-09T09:11:55Z</time>
      </trkpt>
      <trkpt lat="43.41278" lon="6.70088">
        <ele>26.8</ele>
        <time>2016-10-09T09:11:57Z</time>
      </trkpt>
      <trkpt lat="43.41279" lon="6.70081">
        <ele>26.5</ele>
        <time>2016-10-09T09:11:59Z</time>
      </trkpt>
      <trkpt lat="43.4128" lon="6.70073">
        <ele>26.2</ele>
        <time>2016-10-09T09:12:01Z</time>
      </trkpt>
      <trkpt lat="43.4128" lon="6.70064">
        <ele>26</ele>
        <time>2016-10-09T09:12:03Z</time>
      </trkpt>
      <trkpt lat="43.4128" lon="6.70048">
        <ele>25.7</ele>
        <time>2016-10-09T09:12:05Z</time>
      </trkpt>
      <trkpt lat="43.41277" lon="6.7003">
        <ele>24.7</ele>
        <time>2016-10-09T09:12:07Z</time>
      </trkpt>
      <trkpt lat="43.41275" lon="6.70014">
        <ele>22.8</ele>
        <time>2016-10-09T09:12:09Z</time>
      </trkpt>
      <trkpt lat="43.41272" lon="6.69999">
        <ele>21.6</ele>
        <time>2016-10-09T09:12:11Z</time>
      </trkpt>
      <trkpt lat="43.41268" lon="6.69984">
        <ele>21</ele>
        <time>2016-10-09T09:12:13Z</time>
      </trkpt>
      <trkpt lat="43.41266" lon="6.69968">
        <ele>19.9</ele>
        <time>2016-10-09T09:12:15Z</time>
      </trkpt>
      <trkpt lat="43.41263" lon="6.69953">
        <ele>17.8</ele>
        <time>2016-10-09T09:12:17Z</time>
      </trkpt>
      <trkpt lat="43.4126" lon="6.69938">
        <ele>17.3</ele>
        <time>2016-10-09T09:12:19Z</time>
      </trkpt>
      <trkpt lat="43.41257" lon="6.69923">
        <ele>17</ele>
        <time>2016-10-09T09:12:21Z</time>
      </trkpt>
      <trkpt lat="43.41254" lon="6.69909">
        <ele>16.8</ele>
        <time>2016-10-09T09:12:23Z</time>
      </trkpt>
      <trkpt lat="43.41251" lon="6.69895">
        <ele>16.6</ele>
        <time>2016-10-09T09:12:25Z</time>
      </trkpt>
      <trkpt lat="43.41248" lon="6.6988">
        <ele>16.3</ele>
        <time>2016-10-09T09:12:27Z</time>
      </trkpt>
      <trkpt lat="43.41243" lon="6.69866">
        <ele>16.2</ele>
        <time>2016-10-09T09:12:29Z</time>
      </trkpt>
      <trkpt lat="43.41238" lon="6.69854">
        <ele>16</ele>
        <time>2016-10-09T09:12:31Z</time>
      </trkpt>
      <trkpt lat="43.41232" lon="6.69841">
        <ele>15.8</ele>
        <time>2016-10-09T09:12:33Z</time>
      </trkpt>
      <trkpt lat="43.41225" lon="6.6983">
        <ele>15.5</ele>
        <time>2016-10-09T09:12:35Z</time>
      </trkpt>
      <trkpt lat="43.41219" lon="6.69818">
        <ele>15.2</ele>
        <time>2016-10-09T09:12:37Z</time>
      </trkpt>
      <trkpt lat="43.41215" lon="6.69804">
        <ele>15</ele>
        <time>2016-10-09T09:12:39Z</time>
      </trkpt>
      <trkpt lat="43.41211" lon="6.6979">
        <ele>14.8</ele>
        <time>2016-10-09T09:12:41Z</time>
      </trkpt>
      <trkpt lat="43.41206" lon="6.69775">
        <ele>14.8</ele>
        <time>2016-10-09T09:12:43Z</time>
      </trkpt>
      <trkpt lat="43.41202" lon="6.69759">
        <ele>14</ele>
        <time>2016-10-09T09:12:45Z</time>
      </trkpt>
      <trkpt lat="43.41196" lon="6.69743">
        <ele>7</ele>
        <time>2016-10-09T09:12:47Z</time>
      </trkpt>
      <trkpt lat="43.41188" lon="6.69728">
        <ele>7.4</ele>
        <time>2016-10-09T09:12:49Z</time>
      </trkpt>
      <trkpt lat="43.4118" lon="6.69713">
        <ele>7.6</ele>
        <time>2016-10-09T09:12:51Z</time>
      </trkpt>
      <trkpt lat="43.41173" lon="6.697">
        <ele>7.7</ele>
        <time>2016-10-09T09:12:53Z</time>
      </trkpt>
      <trkpt lat="43.41164" lon="6.69692">
        <ele>7.8</ele>
        <time>2016-10-09T09:12:55Z</time>
      </trkpt>
      <trkpt lat="43.41154" lon="6.6969">
        <ele>7.9</ele>
        <time>2016-10-09T09:12:57Z</time>
      </trkpt>
      <trkpt lat="43.41143" lon="6.69694">
        <ele>7.9</ele>
        <time>2016-10-09T09:12:59Z</time>
      </trkpt>
      <trkpt lat="43.41135" lon="6.69704">
        <ele>7.8</ele>
        <time>2016-10-09T09:13:01Z</time>
      </trkpt>
      <trkpt lat="43.4113" lon="6.69716">
        <ele>7.7</ele>
        <time>2016-10-09T09:13:03Z</time>
      </trkpt>
      <trkpt lat="43.41127" lon="6.69726">
        <ele>7.7</ele>
        <time>2016-10-09T09:13:05Z</time>
      </trkpt>
      <trkpt lat="43.41124" lon="6.69734">
        <ele>7.7</ele>
        <time>2016-10-09T09:13:07Z</time>
      </trkpt>
      <trkpt lat="43.41122" lon="6.69741">
        <ele>7.7</ele>
        <time>2016-10-09T09:13:09Z</time>
      </trkpt>
      <trkpt lat="43.41118" lon="6.69748">
        <ele>7.8</ele>
        <time>2016-10-09T09:13:11Z</time>
      </trkpt>
      <trkpt lat="43.41115" lon="6.69753">
        <ele>7.8</ele>
        <time>2016-10-09T09:13:13Z</time>
      </trkpt>
      <trkpt lat="43.41112" lon="6.69758">
        <ele>7.9</ele>
        <time>2016-10-09T09:13:15Z</time>
      </trkpt>
      <trkpt lat="43.41108" lon="6.69763">
        <ele>8.2</ele>
        <time>2016-10-09T09:13:17Z</time>
      </trkpt>
      <trkpt lat="43.41105" lon="6.69768">
        <ele>8.5</ele>
        <time>2016-10-09T09:13:19Z</time>
      </trkpt>
      <trkpt lat="43.41102" lon="6.69773">
        <ele>8.7</ele>
        <time>2016-10-09T09:13:21Z</time>
      </trkpt>
      <trkpt lat="43.41098" lon="6.69778">
        <ele>8.9</ele>
        <time>2016-10-09T09:13:23Z</time>
      </trkpt>
      <trkpt lat="43.41095" lon="6.69783">
        <ele>9.2</ele>
        <time>2016-10-09T09:13:25Z</time>
      </trkpt>
      <trkpt lat="43.41092" lon="6.69788">
        <ele>9.5</ele>
        <time>2016-10-09T09:13:27Z</time>
      </trkpt>
      <trkpt lat="43.4109" lon="6.69794">
        <ele>9.8</ele>
        <time>2016-10-09T09:13:29Z</time>
      </trkpt>
      <trkpt lat="43.41087" lon="6.698">
        <ele>10</ele>
        <time>2016-10-09T09:13:31Z</time>
      </trkpt>
      <trkpt lat="43.41085" lon="6.69806">
        <ele>10.3</ele>
        <time>2016-10-09T09:13:33Z</time>
      </trkpt>
      <trkpt lat="43.41082" lon="6.69811">
        <ele>10.5</ele>
        <time>2016-10-09T09:13:35Z</time>
      </trkpt>
      <trkpt lat="43.4108" lon="6.69817">
        <ele>10.7</ele>
        <time>2016-10-09T09:13:37Z</time>
      </trkpt>
      <trkpt lat="43.41077" lon="6.69823">
        <ele>10.8</ele>
        <time>2016-10-09T09:13:39Z</time>
      </trkpt>
      <trkpt lat="43.41075" lon="6.69828">
        <ele>10.8</ele>
        <time>2016-10-09T09:13:41Z</time>
      </trkpt>
      <trkpt lat="43.41072" lon="6.69834">
        <ele>11</ele>
        <time>2016-10-09T09:13:43Z</time>
      </trkpt>
      <trkpt lat="43.4107" lon="6.69839">
        <ele>11.1</ele>
        <time>2016-10-09T09:13:45Z</time>
      </trkpt>
      <trkpt lat="43.41068" lon="6.69845">
        <ele>11.3</ele>
        <time>2016-10-09T09:13:47Z</time>
      </trkpt>
      <trkpt lat="43.41067" lon="6.69852">
        <ele>11.4</ele>
        <time>2016-10-09T09:13:49Z</time>
      </trkpt>
      <trkpt lat="43.41066" lon="6.69858">
        <ele>11.5</ele>
        <time>2016-10-09T09:13:51Z</time>
      </trkpt>
      <trkpt lat="43.41064" lon="6.69864">
        <ele>11.6</ele>
        <time>2016-10-09T09:13:53Z</time>
      </trkpt>
      <trkpt lat="43.41061" lon="6.69869">
        <ele>11.9</ele>
        <time>2016-10-09T09:13:55Z</time>
      </trkpt>
      <trkpt lat="43.41058" lon="6.69874">
        <ele>12.1</ele>
        <time>2016-10-09T09:13:57Z</time>
      </trkpt>
      <trkpt lat="43.41055" lon="6.69877">
        <ele>12.3</ele>
        <time>2016-10-09T09:13:59Z</time>
      </trkpt>
      <trkpt lat="43.41052" lon="6.69881">
        <ele>12.5</ele>
        <time>2016-10-09T09:14:01Z</time>
      </trkpt>
      <trkpt lat="43.41049" lon="6.69885">
        <ele>12.6</ele>
        <time>2016-10-09T09:14:03Z</time>
      </trkpt>
      <trkpt lat="43.41047" lon="6.69889">
        <ele>12.7</ele>
        <time>2016-10-09T09:14:05Z</time>
      </trkpt>
      <trkpt lat="43.41045" lon="6.69893">
        <ele>12.8</ele>
        <time>2016-10-09T09:14:07Z</time>
      </trkpt>
      <trkpt lat="43.41045" lon="6.69899">
        <ele>12.9</ele>
        <time>2016-10-09T09:14:09Z</time>
      </trkpt>
      <trkpt lat="43.41047" lon="6.69903">
        <ele>13</ele>
        <time>2016-10-09T09:14:11Z</time>
      </trkpt>
      <trkpt lat="43.41048" lon="6.69908">
        <ele>13</ele>
        <time>2016-10-09T09:14:13Z</time>
      </trkpt>
      <trkpt lat="43.41049" lon="6.69912">
        <ele>13.6</ele>
        <time>2016-10-09T09:14:15Z</time>
      </trkpt>
      <trkpt lat="43.41049" lon="6.69917">
        <ele>14.2</ele>
        <time>2016-10-09T09:14:17Z</time>
      </trkpt>
      <trkpt lat="43.41048" lon="6.69921">
        <ele>14.8</ele>
        <time>2016-10-09T09:14:19Z</time>
      </trkpt>
      <trkpt lat="43.41047" lon="6.69926">
        <ele>15.3</ele>
        <time>2016-10-09T09:14:21Z</time>
      </trkpt>
      <trkpt lat="43.41046" lon="6.6993">
        <ele>15.6</ele>
        <time>2016-10-09T09:14:23Z</time>
      </trkpt>
      <trkpt lat="43.41044" lon="6.69934">
        <ele>16</ele>
        <time>2016-10-09T09:14:25Z</time>
      </trkpt>
      <trkpt lat="43.41043" lon="6.69938">
        <ele>16.6</ele>
        <time>2016-10-09T09:14:27Z</time>
      </trkpt>
      <trkpt lat="43.41041" lon="6.69942">
        <ele>17.2</ele>
        <time>2016-10-09T09:14:29Z</time>
      </trkpt>
      <trkpt lat="43.41039" lon="6.69945">
        <ele>17.6</ele>
        <time>2016-10-09T09:14:31Z</time>
      </trkpt>
      <trkpt lat="43.41037" lon="6.69949">
        <ele>17.9</ele>
        <time>2016-10-09T09:14:33Z</time>
      </trkpt>
      <trkpt lat="43.41035" lon="6.69953">
        <ele>18.5</ele>
        <time>2016-10-09T09:14:35Z</time>
      </trkpt>
      <trkpt lat="43.41034" lon="6.69956">
        <ele>19</ele>
        <time>2016-10-09T09:14:37Z</time>
      </trkpt>
      <trkpt lat="43.41033" lon="6.6996">
        <ele>19.4</ele>
        <time>2016-10-09T09:14:39Z</time>
      </trkpt>
      <trkpt lat="43.41031" lon="6.69964">
        <ele>19.7</ele>
        <time>2016-10-09T09:14:41Z</time>
      </trkpt>
      <trkpt lat="43.4103" lon="6.69968">
        <ele>19.9</ele>
        <time>2016-10-09T09:14:43Z</time>
      </trkpt>
      <trkpt lat="43.41029" lon="6.69973">
        <ele>20.2</ele>
        <time>2016-10-09T09:14:45Z</time>
      </trkpt>
      <trkpt lat="43.41029" lon="6.69977">
        <ele>20.4</ele>
        <time>2016-10-09T09:14:47Z</time>
      </trkpt>
      <trkpt lat="43.41029" lon="6.69981">
        <ele>20.6</ele>
        <time>2016-10-09T09:14:49Z</time>
      </trkpt>
      <trkpt lat="43.4103" lon="6.69985">
        <ele>21</ele>
        <time>2016-10-09T09:14:51Z</time>
      </trkpt>
      <trkpt lat="43.41031" lon="6.69989">
        <ele>21.5</ele>
        <time>2016-10-09T09:14:53Z</time>
      </trkpt>
      <trkpt lat="43.41031" lon="6.69993">
        <ele>22</ele>
        <time>2016-10-09T09:14:55Z</time>
      </trkpt>
      <trkpt lat="43.41032" lon="6.69997">
        <ele>22.5</ele>
        <time>2016-10-09T09:14:57Z</time>
      </trkpt>
      <trkpt lat="43.41032" lon="6.7">
        <ele>22.7</ele>
        <time>2016-10-09T09:14:59Z</time>
      </trkpt>
      <trkpt lat="43.41032" lon="6.70003">
        <ele>22.9</ele>
        <time>2016-10-09T09:15:01Z</time>
      </trkpt>
      <trkpt lat="43.41032" lon="6.70006">
        <ele>23.1</ele>
        <time>2016-10-09T09:15:03Z</time>
      </trkpt>
      <trkpt lat="43.41032" lon="6.70009">
        <ele>23.4</ele>
        <time>2016-10-09T09:15:05Z</time>
      </trkpt>
      <trkpt lat="43.41031" lon="6.70013">
        <ele>23.9</ele>
        <time>2016-10-09T09:15:07Z</time>
      </trkpt>
      <trkpt lat="43.41032" lon="6.70017">
        <ele>24.4</ele>
        <time>2016-10-09T09:15:09Z</time>
      </trkpt>
      <trkpt lat="43.41032" lon="6.70022">
        <ele>24.9</ele>
        <time>2016-10-09T09:15:11Z</time>
      </trkpt>
      <trkpt lat="43.41032" lon="6.70026">
        <ele>25.5</ele>
        <time>2016-10-09T09:15:13Z</time>
      </trkpt>
      <trkpt lat="43.41033" lon="6.70031">
        <ele>26</ele>
        <time>2016-10-09T09:15:15Z</time>
      </trkpt>
      <trkpt lat="43.41034" lon="6.70035">
        <ele>26.5</ele>
        <time>2016-10-09T09:15:17Z</time>
      </trkpt>
      <trkpt lat="43.41036" lon="6.7004">
        <ele>27.1</ele>
        <time>2016-10-09T09:15:19Z</time>
      </trkpt>
      <trkpt lat="43.41036" lon="6.70045">
        <ele>27.5</ele>
        <time>2016-10-09T09:15:21Z</time>
      </trkpt>
      <trkpt lat="43.41037" lon="6.70049">
        <ele>27.8</ele>
        <time>2016-10-09T09:15:23Z</time>
      </trkpt>
      <trkpt lat="43.41039" lon="6.70053">
        <ele>28.3</ele>
        <time>2016-10-09T09:15:25Z</time>
      </trkpt>
      <trkpt lat="43.41039" lon="6.70057">
        <ele>28.8</ele>
        <time>2016-10-09T09:15:27Z</time>
      </trkpt>
      <trkpt lat="43.4104" lon="6.70062">
        <ele>29.2</ele>
        <time>2016-10-09T09:15:29Z</time>
      </trkpt>
      <trkpt lat="43.41041" lon="6.70065">
        <ele>29.6</ele>
        <time>2016-10-09T09:15:31Z</time>
      </trkpt>
      <trkpt lat="43.41042" lon="6.7007">
        <ele>29.8</ele>
        <time>2016-10-09T09:15:33Z</time>
      </trkpt>
      <trkpt lat="43.41044" lon="6.70073">
        <ele>30.1</ele>
        <time>2016-10-09T09:15:35Z</time>
      </trkpt>
      <trkpt lat="43.41045" lon="6.70077">
        <ele>30.3</ele>
        <time>2016-10-09T09:15:37Z</time>
      </trkpt>
      <trkpt lat="43.41045" lon="6.70081">
        <ele>30.5</ele>
        <time>2016-10-09T09:15:39Z</time>
      </trkpt>
      <trkpt lat="43.41047" lon="6.70084">
        <ele>30.7</ele>
        <time>2016-10-09T09:15:41Z</time>
      </trkpt>
      <trkpt lat="43.41047" lon="6.70087">
        <ele>31</ele>
        <time>2016-10-09T09:15:43Z</time>
      </trkpt>
      <trkpt lat="43.41048" lon="6.70091">
        <ele>31.4</ele>
        <time>2016-10-09T09:15:45Z</time>
      </trkpt>
      <trkpt lat="43.41048" lon="6.70094">
        <ele>31.7</ele>
        <time>2016-10-09T09:15:47Z</time>
      </trkpt>
      <trkpt lat="43.41048" lon="6.70097">
        <ele>32</ele>
        <time>2016-10-09T09:15:49Z</time>
      </trkpt>
      <trkpt lat="43.41048" lon="6.70099">
        <ele>32.1</ele>
        <time>2016-10-09T09:15:51Z</time>
      </trkpt>
      <trkpt lat="43.41047" lon="6.701">
        <ele>32.2</ele>
        <time>2016-10-09T09:15:57Z</time>
      </trkpt>
      <trkpt lat="43.41044" lon="6.70103">
        <ele>32.4</ele>
        <time>2016-10-09T09:15:59Z</time>
      </trkpt>
      <trkpt lat="43.41042" lon="6.70106">
        <ele>32.6</ele>
        <time>2016-10-09T09:16:01Z</time>
      </trkpt>
      <trkpt lat="43.41042" lon="6.7011">
        <ele>32.9</ele>
        <time>2016-10-09T09:16:03Z</time>
      </trkpt>
      <trkpt lat="43.41041" lon="6.70113">
        <ele>33</ele>
        <time>2016-10-09T09:16:05Z</time>
      </trkpt>
      <trkpt lat="43.4104" lon="6.70114">
        <ele>33.2</ele>
        <time>2016-10-09T09:16:07Z</time>
      </trkpt>
      <trkpt lat="43.41038" lon="6.70118">
        <ele>33.8</ele>
        <time>2016-10-09T09:16:09Z</time>
      </trkpt>
      <trkpt lat="43.41036" lon="6.70121">
        <ele>34.4</ele>
        <time>2016-10-09T09:16:11Z</time>
      </trkpt>
      <trkpt lat="43.41032" lon="6.70121">
        <ele>35.1</ele>
        <time>2016-10-09T09:16:13Z</time>
      </trkpt>
      <trkpt lat="43.41029" lon="6.70119">
        <ele>35.6</ele>
        <time>2016-10-09T09:16:15Z</time>
      </trkpt>
      <trkpt lat="43.41025" lon="6.7012">
        <ele>36.2</ele>
        <time>2016-10-09T09:16:17Z</time>
      </trkpt>
      <trkpt lat="43.41023" lon="6.70122">
        <ele>37</ele>
        <time>2016-10-09T09:16:19Z</time>
      </trkpt>
      <trkpt lat="43.4102" lon="6.70124">
        <ele>37.7</ele>
        <time>2016-10-09T09:16:21Z</time>
      </trkpt>
      <trkpt lat="43.41018" lon="6.70126">
        <ele>38.1</ele>
        <time>2016-10-09T09:16:23Z</time>
      </trkpt>
      <trkpt lat="43.41015" lon="6.70128">
        <ele>38.7</ele>
        <time>2016-10-09T09:16:25Z</time>
      </trkpt>
      <trkpt lat="43.41013" lon="6.7013">
        <ele>39.2</ele>
        <time>2016-10-09T09:16:27Z</time>
      </trkpt>
      <trkpt lat="43.41011" lon="6.70133">
        <ele>39.5</ele>
        <time>2016-10-09T09:16:29Z</time>
      </trkpt>
      <trkpt lat="43.4101" lon="6.70137">
        <ele>39.7</ele>
        <time>2016-10-09T09:16:31Z</time>
      </trkpt>
      <trkpt lat="43.41008" lon="6.70141">
        <ele>39.9</ele>
        <time>2016-10-09T09:16:33Z</time>
      </trkpt>
      <trkpt lat="43.41008" lon="6.70145">
        <ele>40.1</ele>
        <time>2016-10-09T09:16:35Z</time>
      </trkpt>
      <trkpt lat="43.41007" lon="6.70147">
        <ele>40.2</ele>
        <time>2016-10-09T09:16:37Z</time>
      </trkpt>
      <trkpt lat="43.41005" lon="6.70149">
        <ele>40.3</ele>
        <time>2016-10-09T09:16:39Z</time>
      </trkpt>
      <trkpt lat="43.41001" lon="6.70151">
        <ele>40.4</ele>
        <time>2016-10-09T09:16:41Z</time>
      </trkpt>
      <trkpt lat="43.41" lon="6.7015">
        <ele>40.4</ele>
        <time>2016-10-09T09:16:43Z</time>
      </trkpt>
      <trkpt lat="43.40998" lon="6.70148">
        <ele>40.5</ele>
        <time>2016-10-09T09:16:45Z</time>
      </trkpt>
      <trkpt lat="43.40995" lon="6.70146">
        <ele>40.5</ele>
        <time>2016-10-09T09:16:47Z</time>
      </trkpt>
      <trkpt lat="43.40992" lon="6.70144">
        <ele>40.7</ele>
        <time>2016-10-09T09:16:49Z</time>
      </trkpt>
      <trkpt lat="43.40987" lon="6.70142">
        <ele>40.8</ele>
        <time>2016-10-09T09:16:51Z</time>
      </trkpt>
      <trkpt lat="43.40984" lon="6.70141">
        <ele>40.8</ele>
        <time>2016-10-09T09:16:53Z</time>
      </trkpt>
      <trkpt lat="43.40982" lon="6.7014">
        <ele>40.9</ele>
        <time>2016-10-09T09:16:55Z</time>
      </trkpt>
      <trkpt lat="43.40979" lon="6.70139">
        <ele>41</ele>
        <time>2016-10-09T09:16:57Z</time>
      </trkpt>
      <trkpt lat="43.40976" lon="6.70138">
        <ele>41</ele>
        <time>2016-10-09T09:16:59Z</time>
      </trkpt>
      <trkpt lat="43.40974" lon="6.70138">
        <ele>41.1</ele>
        <time>2016-10-09T09:17:01Z</time>
      </trkpt>
      <trkpt lat="43.40971" lon="6.70137">
        <ele>41.2</ele>
        <time>2016-10-09T09:17:03Z</time>
      </trkpt>
      <trkpt lat="43.40969" lon="6.70138">
        <ele>41.3</ele>
        <time>2016-10-09T09:17:05Z</time>
      </trkpt>
      <trkpt lat="43.40966" lon="6.70139">
        <ele>41.5</ele>
        <time>2016-10-09T09:17:07Z</time>
      </trkpt>
      <trkpt lat="43.40964" lon="6.70141">
        <ele>41.9</ele>
        <time>2016-10-09T09:17:09Z</time>
      </trkpt>
      <trkpt lat="43.40962" lon="6.70143">
        <ele>42.2</ele>
        <time>2016-10-09T09:17:11Z</time>
      </trkpt>
      <trkpt lat="43.4096" lon="6.70146">
        <ele>42.7</ele>
        <time>2016-10-09T09:17:13Z</time>
      </trkpt>
      <trkpt lat="43.40958" lon="6.70148">
        <ele>43.2</ele>
        <time>2016-10-09T09:17:15Z</time>
      </trkpt>
      <trkpt lat="43.40955" lon="6.70149">
        <ele>43.7</ele>
        <time>2016-10-09T09:17:17Z</time>
      </trkpt>
      <trkpt lat="43.40952" lon="6.70151">
        <ele>44.4</ele>
        <time>2016-10-09T09:17:19Z</time>
      </trkpt>
      <trkpt lat="43.4095" lon="6.70154">
        <ele>45.2</ele>
        <time>2016-10-09T09:17:21Z</time>
      </trkpt>
      <trkpt lat="43.40947" lon="6.70157">
        <ele>46.2</ele>
        <time>2016-10-09T09:17:23Z</time>
      </trkpt>
      <trkpt lat="43.40945" lon="6.7016">
        <ele>47.1</ele>
        <time>2016-10-09T09:17:25Z</time>
      </trkpt>
      <trkpt lat="43.40942" lon="6.70163">
        <ele>48.1</ele>
        <time>2016-10-09T09:17:27Z</time>
      </trkpt>
      <trkpt lat="43.40939" lon="6.70166">
        <ele>48.7</ele>
        <time>2016-10-09T09:17:29Z</time>
      </trkpt>
      <trkpt lat="43.40935" lon="6.70169">
        <ele>49.2</ele>
        <time>2016-10-09T09:17:31Z</time>
      </trkpt>
      <trkpt lat="43.40931" lon="6.7017">
        <ele>50</ele>
        <time>2016-10-09T09:17:33Z</time>
      </trkpt>
      <trkpt lat="43.40926" lon="6.7017">
        <ele>50.8</ele>
        <time>2016-10-09T09:17:35Z</time>
      </trkpt>
      <trkpt lat="43.40921" lon="6.7017">
        <ele>51.3</ele>
        <time>2016-10-09T09:17:37Z</time>
      </trkpt>
      <trkpt lat="43.40914" lon="6.70168">
        <ele>52</ele>
        <time>2016-10-09T09:17:39Z</time>
      </trkpt>
      <trkpt lat="43.40907" lon="6.70166">
        <ele>52.7</ele>
        <time>2016-10-09T09:17:41Z</time>
      </trkpt>
      <trkpt lat="43.409" lon="6.70169">
        <ele>53.1</ele>
        <time>2016-10-09T09:17:43Z</time>
      </trkpt>
      <trkpt lat="43.40895" lon="6.70174">
        <ele>53.2</ele>
        <time>2016-10-09T09:17:45Z</time>
      </trkpt>
      <trkpt lat="43.4089" lon="6.70181">
        <ele>53.4</ele>
        <time>2016-10-09T09:17:47Z</time>
      </trkpt>
      <trkpt lat="43.40885" lon="6.70189">
        <ele>53.6</ele>
        <time>2016-10-09T09:17:49Z</time>
      </trkpt>
      <trkpt lat="43.40883" lon="6.70202">
        <ele>53.7</ele>
        <time>2016-10-09T09:17:51Z</time>
      </trkpt>
      <trkpt lat="43.40878" lon="6.70212">
        <ele>53.8</ele>
        <time>2016-10-09T09:17:53Z</time>
      </trkpt>
      <trkpt lat="43.40871" lon="6.70217">
        <ele>53.9</ele>
        <time>2016-10-09T09:17:55Z</time>
      </trkpt>
      <trkpt lat="43.40863" lon="6.7022">
        <ele>53.9</ele>
        <time>2016-10-09T09:17:57Z</time>
      </trkpt>
      <trkpt lat="43.40856" lon="6.70225">
        <ele>54</ele>
        <time>2016-10-09T09:17:59Z</time>
      </trkpt>
      <trkpt lat="43.40848" lon="6.70235">
        <ele>54.7</ele>
        <time>2016-10-09T09:18:01Z</time>
      </trkpt>
      <trkpt lat="43.40837" lon="6.70239">
        <ele>55.3</ele>
        <time>2016-10-09T09:18:03Z</time>
      </trkpt>
      <trkpt lat="43.40825" lon="6.70241">
        <ele>55.8</ele>
        <time>2016-10-09T09:18:05Z</time>
      </trkpt>
      <trkpt lat="43.40813" lon="6.70243">
        <ele>56.3</ele>
        <time>2016-10-09T09:18:07Z</time>
      </trkpt>
      <trkpt lat="43.40802" lon="6.7024">
        <ele>56.9</ele>
        <time>2016-10-09T09:18:09Z</time>
      </trkpt>
      <trkpt lat="43.40793" lon="6.70235">
        <ele>57</ele>
        <time>2016-10-09T09:18:11Z</time>
      </trkpt>
      <trkpt lat="43.40784" lon="6.70231">
        <ele>57</ele>
        <time>2016-10-09T09:18:13Z</time>
      </trkpt>
      <trkpt lat="43.40775" lon="6.70227">
        <ele>56.9</ele>
        <time>2016-10-09T09:18:15Z</time>
      </trkpt>
      <trkpt lat="43.40768" lon="6.7022">
        <ele>57</ele>
        <time>2016-10-09T09:18:17Z</time>
      </trkpt>
      <trkpt lat="43.40762" lon="6.70212">
        <ele>57</ele>
        <time>2016-10-09T09:18:19Z</time>
      </trkpt>
      <trkpt lat="43.40756" lon="6.70206">
        <ele>57</ele>
        <time>2016-10-09T09:18:21Z</time>
      </trkpt>
      <trkpt lat="43.40751" lon="6.70203">
        <ele>57.1</ele>
        <time>2016-10-09T09:18:23Z</time>
      </trkpt>
      <trkpt lat="43.40746" lon="6.70199">
        <ele>57.3</ele>
        <time>2016-10-09T09:18:25Z</time>
      </trkpt>
      <trkpt lat="43.40742" lon="6.70197">
        <ele>57.8</ele>
        <time>2016-10-09T09:18:27Z</time>
      </trkpt>
      <trkpt lat="43.40738" lon="6.70195">
        <ele>58.4</ele>
        <time>2016-10-09T09:18:29Z</time>
      </trkpt>
      <trkpt lat="43.40734" lon="6.70193">
        <ele>58.7</ele>
        <time>2016-10-09T09:18:31Z</time>
      </trkpt>
      <trkpt lat="43.4073" lon="6.70192">
        <ele>59.1</ele>
        <time>2016-10-09T09:18:33Z</time>
      </trkpt>
      <trkpt lat="43.40726" lon="6.70191">
        <ele>59.6</ele>
        <time>2016-10-09T09:18:35Z</time>
      </trkpt>
      <trkpt lat="43.40723" lon="6.70189">
        <ele>60.1</ele>
        <time>2016-10-09T09:18:37Z</time>
      </trkpt>
      <trkpt lat="43.40719" lon="6.70187">
        <ele>60.6</ele>
        <time>2016-10-09T09:18:39Z</time>
      </trkpt>
      <trkpt lat="43.40716" lon="6.70184">
        <ele>60.8</ele>
        <time>2016-10-09T09:18:41Z</time>
      </trkpt>
      <trkpt lat="43.40712" lon="6.70181">
        <ele>61</ele>
        <time>2016-10-09T09:18:43Z</time>
      </trkpt>
      <trkpt lat="43.40709" lon="6.70179">
        <ele>61.2</ele>
        <time>2016-10-09T09:18:45Z</time>
      </trkpt>
      <trkpt lat="43.40706" lon="6.70177">
        <ele>61.6</ele>
        <time>2016-10-09T09:18:47Z</time>
      </trkpt>
      <trkpt lat="43.40703" lon="6.70174">
        <ele>62.1</ele>
        <time>2016-10-09T09:18:49Z</time>
      </trkpt>
      <trkpt lat="43.40699" lon="6.70172">
        <ele>62.5</ele>
        <time>2016-10-09T09:18:51Z</time>
      </trkpt>
      <trkpt lat="43.40695" lon="6.70169">
        <ele>62.8</ele>
        <time>2016-10-09T09:18:53Z</time>
      </trkpt>
      <trkpt lat="43.40691" lon="6.70165">
        <ele>63.1</ele>
        <time>2016-10-09T09:18:55Z</time>
      </trkpt>
      <trkpt lat="43.40687" lon="6.70163">
        <ele>63.6</ele>
        <time>2016-10-09T09:18:57Z</time>
      </trkpt>
      <trkpt lat="43.40682" lon="6.70162">
        <ele>64.1</ele>
        <time>2016-10-09T09:18:59Z</time>
      </trkpt>
      <trkpt lat="43.40677" lon="6.7016">
        <ele>64.3</ele>
        <time>2016-10-09T09:19:01Z</time>
      </trkpt>
      <trkpt lat="43.40672" lon="6.70159">
        <ele>64.4</ele>
        <time>2016-10-09T09:19:03Z</time>
      </trkpt>
      <trkpt lat="43.40666" lon="6.70157">
        <ele>64.5</ele>
        <time>2016-10-09T09:19:05Z</time>
      </trkpt>
      <trkpt lat="43.40658" lon="6.70155">
        <ele>64.5</ele>
        <time>2016-10-09T09:19:07Z</time>
      </trkpt>
      <trkpt lat="43.40651" lon="6.70152">
        <ele>64.6</ele>
        <time>2016-10-09T09:19:09Z</time>
      </trkpt>
      <trkpt lat="43.40645" lon="6.70148">
        <ele>64.6</ele>
        <time>2016-10-09T09:19:11Z</time>
      </trkpt>
      <trkpt lat="43.40638" lon="6.70145">
        <ele>64.6</ele>
        <time>2016-10-09T09:19:13Z</time>
      </trkpt>
      <trkpt lat="43.4063" lon="6.70142">
        <ele>64.6</ele>
        <time>2016-10-09T09:19:15Z</time>
      </trkpt>
      <trkpt lat="43.40623" lon="6.70137">
        <ele>64.6</ele>
        <time>2016-10-09T09:19:17Z</time>
      </trkpt>
      <trkpt lat="43.40616" lon="6.70133">
        <ele>64.5</ele>
        <time>2016-10-09T09:19:19Z</time>
      </trkpt>
      <trkpt lat="43.40608" lon="6.70129">
        <ele>64.5</ele>
        <time>2016-10-09T09:19:21Z</time>
      </trkpt>
      <trkpt lat="43.40599" lon="6.70124">
        <ele>64.5</ele>
        <time>2016-10-09T09:19:23Z</time>
      </trkpt>
      <trkpt lat="43.4059" lon="6.70119">
        <ele>64.5</ele>
        <time>2016-10-09T09:19:25Z</time>
      </trkpt>
      <trkpt lat="43.40579" lon="6.70116">
        <ele>64.4</ele>
        <time>2016-10-09T09:19:27Z</time>
      </trkpt>
      <trkpt lat="43.40569" lon="6.70116">
        <ele>64.4</ele>
        <time>2016-10-09T09:19:29Z</time>
      </trkpt>
      <trkpt lat="43.40559" lon="6.70114">
        <ele>64.4</ele>
        <time>2016-10-09T09:19:31Z</time>
      </trkpt>
      <trkpt lat="43.4055" lon="6.70112">
        <ele>64.4</ele>
        <time>2016-10-09T09:19:33Z</time>
      </trkpt>
      <trkpt lat="43.40542" lon="6.7011">
        <ele>64.4</ele>
        <time>2016-10-09T09:19:35Z</time>
      </trkpt>
      <trkpt lat="43.40535" lon="6.70107">
        <ele>64.4</ele>
        <time>2016-10-09T09:19:37Z</time>
      </trkpt>
      <trkpt lat="43.40527" lon="6.70105">
        <ele>64.4</ele>
        <time>2016-10-09T09:19:39Z</time>
      </trkpt>
      <trkpt lat="43.40519" lon="6.70104">
        <ele>64.4</ele>
        <time>2016-10-09T09:19:41Z</time>
      </trkpt>
      <trkpt lat="43.40509" lon="6.70103">
        <ele>64.4</ele>
        <time>2016-10-09T09:19:43Z</time>
      </trkpt>
      <trkpt lat="43.40502" lon="6.70103">
        <ele>64.3</ele>
        <time>2016-10-09T09:19:45Z</time>
      </trkpt>
      <trkpt lat="43.40496" lon="6.70103">
        <ele>64.3</ele>
        <time>2016-10-09T09:19:47Z</time>
      </trkpt>
      <trkpt lat="43.4049" lon="6.70103">
        <ele>64.3</ele>
        <time>2016-10-09T09:19:49Z</time>
      </trkpt>
      <trkpt lat="43.40485" lon="6.70103">
        <ele>64.4</ele>
        <time>2016-10-09T09:19:51Z</time>
      </trkpt>
      <trkpt lat="43.4048" lon="6.70104">
        <ele>64.4</ele>
        <time>2016-10-09T09:19:53Z</time>
      </trkpt>
      <trkpt lat="43.40475" lon="6.70104">
        <ele>64.5</ele>
        <time>2016-10-09T09:19:55Z</time>
      </trkpt>
      <trkpt lat="43.40471" lon="6.70105">
        <ele>64.7</ele>
        <time>2016-10-09T09:19:57Z</time>
      </trkpt>
      <trkpt lat="43.40466" lon="6.70106">
        <ele>65.1</ele>
        <time>2016-10-09T09:19:59Z</time>
      </trkpt>
      <trkpt lat="43.40461" lon="6.70107">
        <ele>65.8</ele>
        <time>2016-10-09T09:20:01Z</time>
      </trkpt>
      <trkpt lat="43.40457" lon="6.70108">
        <ele>66.1</ele>
        <time>2016-10-09T09:20:03Z</time>
      </trkpt>
      <trkpt lat="43.40453" lon="6.70107">
        <ele>66.4</ele>
        <time>2016-10-09T09:20:05Z</time>
      </trkpt>
      <trkpt lat="43.4045" lon="6.70106">
        <ele>67.1</ele>
        <time>2016-10-09T09:20:07Z</time>
      </trkpt>
      <trkpt lat="43.40447" lon="6.70105">
        <ele>68</ele>
        <time>2016-10-09T09:20:09Z</time>
      </trkpt>
      <trkpt lat="43.40445" lon="6.70102">
        <ele>68.3</ele>
        <time>2016-10-09T09:20:11Z</time>
      </trkpt>
      <trkpt lat="43.40442" lon="6.70099">
        <ele>69</ele>
        <time>2016-10-09T09:20:13Z</time>
      </trkpt>
      <trkpt lat="43.40439" lon="6.70097">
        <ele>69.6</ele>
        <time>2016-10-09T09:20:15Z</time>
      </trkpt>
      <trkpt lat="43.40435" lon="6.70095">
        <ele>70</ele>
        <time>2016-10-09T09:20:17Z</time>
      </trkpt>
      <trkpt lat="43.40432" lon="6.70093">
        <ele>70.5</ele>
        <time>2016-10-09T09:20:19Z</time>
      </trkpt>
      <trkpt lat="43.40428" lon="6.7009">
        <ele>71.2</ele>
        <time>2016-10-09T09:20:21Z</time>
      </trkpt>
      <trkpt lat="43.40424" lon="6.70087">
        <ele>71.5</ele>
        <time>2016-10-09T09:20:23Z</time>
      </trkpt>
      <trkpt lat="43.4042" lon="6.70085">
        <ele>71.8</ele>
        <time>2016-10-09T09:20:25Z</time>
      </trkpt>
      <trkpt lat="43.40416" lon="6.70082">
        <ele>72</ele>
        <time>2016-10-09T09:20:27Z</time>
      </trkpt>
      <trkpt lat="43.40412" lon="6.7008">
        <ele>72.2</ele>
        <time>2016-10-09T09:20:29Z</time>
      </trkpt>
      <trkpt lat="43.40407" lon="6.70077">
        <ele>72.6</ele>
        <time>2016-10-09T09:20:31Z</time>
      </trkpt>
      <trkpt lat="43.40403" lon="6.70074">
        <ele>73.1</ele>
        <time>2016-10-09T09:20:33Z</time>
      </trkpt>
      <trkpt lat="43.40398" lon="6.70072">
        <ele>73.4</ele>
        <time>2016-10-09T09:20:35Z</time>
      </trkpt>
      <trkpt lat="43.40393" lon="6.70071">
        <ele>73.5</ele>
        <time>2016-10-09T09:20:37Z</time>
      </trkpt>
      <trkpt lat="43.40387" lon="6.70069">
        <ele>73.7</ele>
        <time>2016-10-09T09:20:39Z</time>
      </trkpt>
      <trkpt lat="43.40381" lon="6.70066">
        <ele>74.1</ele>
        <time>2016-10-09T09:20:41Z</time>
      </trkpt>
      <trkpt lat="43.40376" lon="6.70063">
        <ele>74.6</ele>
        <time>2016-10-09T09:20:43Z</time>
      </trkpt>
      <trkpt lat="43.4037" lon="6.70061">
        <ele>74.9</ele>
        <time>2016-10-09T09:20:45Z</time>
      </trkpt>
      <trkpt lat="43.40363" lon="6.70059">
        <ele>75</ele>
        <time>2016-10-09T09:20:47Z</time>
      </trkpt>
      <trkpt lat="43.40357" lon="6.70056">
        <ele>75.2</ele>
        <time>2016-10-09T09:20:49Z</time>
      </trkpt>
      <trkpt lat="43.40351" lon="6.70053">
        <ele>75.2</ele>
        <time>2016-10-09T09:20:51Z</time>
      </trkpt>
      <trkpt lat="43.40345" lon="6.70049">
        <ele>75.3</ele>
        <time>2016-10-09T09:20:53Z</time>
      </trkpt>
      <trkpt lat="43.4034" lon="6.70045">
        <ele>75.4</ele>
        <time>2016-10-09T09:20:55Z</time>
      </trkpt>
      <trkpt lat="43.40334" lon="6.70041">
        <ele>75.5</ele>
        <time>2016-10-09T09:20:57Z</time>
      </trkpt>
      <trkpt lat="43.40329" lon="6.70036">
        <ele>75.6</ele>
        <time>2016-10-09T09:20:59Z</time>
      </trkpt>
      <trkpt lat="43.40323" lon="6.70032">
        <ele>75.7</ele>
        <time>2016-10-09T09:21:01Z</time>
      </trkpt>
      <trkpt lat="43.40316" lon="6.70028">
        <ele>76</ele>
        <time>2016-10-09T09:21:03Z</time>
      </trkpt>
      <trkpt lat="43.4031" lon="6.70024">
        <ele>75.8</ele>
        <time>2016-10-09T09:21:05Z</time>
      </trkpt>
      <trkpt lat="43.40303" lon="6.70018">
        <ele>75.7</ele>
        <time>2016-10-09T09:21:07Z</time>
      </trkpt>
      <trkpt lat="43.40297" lon="6.70011">
        <ele>75.5</ele>
        <time>2016-10-09T09:21:09Z</time>
      </trkpt>
      <trkpt lat="43.4029" lon="6.70003">
        <ele>75.3</ele>
        <time>2016-10-09T09:21:11Z</time>
      </trkpt>
      <trkpt lat="43.40284" lon="6.69994">
        <ele>75.1</ele>
        <time>2016-10-09T09:21:13Z</time>
      </trkpt>
      <trkpt lat="43.40278" lon="6.69985">
        <ele>74.9</ele>
        <time>2016-10-09T09:21:15Z</time>
      </trkpt>
      <trkpt lat="43.40271" lon="6.69977">
        <ele>74.7</ele>
        <time>2016-10-09T09:21:17Z</time>
      </trkpt>
      <trkpt lat="43.40263" lon="6.69969">
        <ele>74.4</ele>
        <time>2016-10-09T09:21:19Z</time>
      </trkpt>
      <trkpt lat="43.40255" lon="6.69961">
        <ele>74</ele>
        <time>2016-10-09T09:21:21Z</time>
      </trkpt>
      <trkpt lat="43.40244" lon="6.69953">
        <ele>73.4</ele>
        <time>2016-10-09T09:21:23Z</time>
      </trkpt>
      <trkpt lat="43.4023" lon="6.69947">
        <ele>72.4</ele>
        <time>2016-10-09T09:21:25Z</time>
      </trkpt>
      <trkpt lat="43.40217" lon="6.69949">
        <ele>71</ele>
        <time>2016-10-09T09:21:27Z</time>
      </trkpt>
      <trkpt lat="43.40202" lon="6.6996">
        <ele>69.1</ele>
        <time>2016-10-09T09:21:29Z</time>
      </trkpt>
      <trkpt lat="43.40185" lon="6.69975">
        <ele>66.8</ele>
        <time>2016-10-09T09:21:31Z</time>
      </trkpt>
      <trkpt lat="43.40168" lon="6.69993">
        <ele>64.4</ele>
        <time>2016-10-09T09:21:33Z</time>
      </trkpt>
      <trkpt lat="43.40151" lon="6.70013">
        <ele>62</ele>
        <time>2016-10-09T09:21:35Z</time>
      </trkpt>
      <trkpt lat="43.40134" lon="6.70033">
        <ele>60.2</ele>
        <time>2016-10-09T09:21:37Z</time>
      </trkpt>
      <trkpt lat="43.4012" lon="6.70051">
        <ele>59.8</ele>
        <time>2016-10-09T09:21:39Z</time>
      </trkpt>
      <trkpt lat="43.4011" lon="6.70066">
        <ele>59.7</ele>
        <time>2016-10-09T09:21:41Z</time>
      </trkpt>
      <trkpt lat="43.40103" lon="6.70079">
        <ele>59.8</ele>
        <time>2016-10-09T09:21:43Z</time>
      </trkpt>
      <trkpt lat="43.40097" lon="6.70089">
        <ele>59.9</ele>
        <time>2016-10-09T09:21:45Z</time>
      </trkpt>
      <trkpt lat="43.40093" lon="6.70097">
        <ele>60.2</ele>
        <time>2016-10-09T09:21:47Z</time>
      </trkpt>
      <trkpt lat="43.4009" lon="6.70102">
        <ele>60.6</ele>
        <time>2016-10-09T09:21:49Z</time>
      </trkpt>
      <trkpt lat="43.40087" lon="6.70106">
        <ele>61.3</ele>
        <time>2016-10-09T09:21:51Z</time>
      </trkpt>
      <trkpt lat="43.40084" lon="6.7011">
        <ele>62.1</ele>
        <time>2016-10-09T09:21:53Z</time>
      </trkpt>
      <trkpt lat="43.40081" lon="6.70114">
        <ele>62.7</ele>
        <time>2016-10-09T09:21:55Z</time>
      </trkpt>
      <trkpt lat="43.40079" lon="6.70117">
        <ele>63.6</ele>
        <time>2016-10-09T09:21:57Z</time>
      </trkpt>
      <trkpt lat="43.40076" lon="6.70121">
        <ele>64.4</ele>
        <time>2016-10-09T09:21:59Z</time>
      </trkpt>
      <trkpt lat="43.40074" lon="6.70123">
        <ele>65</ele>
        <time>2016-10-09T09:22:01Z</time>
      </trkpt>
      <trkpt lat="43.40071" lon="6.70126">
        <ele>65.7</ele>
        <time>2016-10-09T09:22:03Z</time>
      </trkpt>
      <trkpt lat="43.40068" lon="6.70128">
        <ele>66.5</ele>
        <time>2016-10-09T09:22:05Z</time>
      </trkpt>
      <trkpt lat="43.40065" lon="6.70128">
        <ele>67.1</ele>
        <time>2016-10-09T09:22:07Z</time>
      </trkpt>
      <trkpt lat="43.40062" lon="6.70129">
        <ele>67.7</ele>
        <time>2016-10-09T09:22:09Z</time>
      </trkpt>
      <trkpt lat="43.40059" lon="6.70128">
        <ele>68.4</ele>
        <time>2016-10-09T09:22:11Z</time>
      </trkpt>
      <trkpt lat="43.40056" lon="6.70127">
        <ele>69.2</ele>
        <time>2016-10-09T09:22:13Z</time>
      </trkpt>
      <trkpt lat="43.40053" lon="6.70125">
        <ele>69.7</ele>
        <time>2016-10-09T09:22:15Z</time>
      </trkpt>
      <trkpt lat="43.40051" lon="6.70123">
        <ele>70</ele>
        <time>2016-10-09T09:22:17Z</time>
      </trkpt>
      <trkpt lat="43.40048" lon="6.70122">
        <ele>70.3</ele>
        <time>2016-10-09T09:22:19Z</time>
      </trkpt>
      <trkpt lat="43.40046" lon="6.7012">
        <ele>70.6</ele>
        <time>2016-10-09T09:22:21Z</time>
      </trkpt>
      <trkpt lat="43.40043" lon="6.70119">
        <ele>71.2</ele>
        <time>2016-10-09T09:22:23Z</time>
      </trkpt>
      <trkpt lat="43.40041" lon="6.70117">
        <ele>71.7</ele>
        <time>2016-10-09T09:22:25Z</time>
      </trkpt>
      <trkpt lat="43.40039" lon="6.70116">
        <ele>72</ele>
        <time>2016-10-09T09:22:27Z</time>
      </trkpt>
      <trkpt lat="43.40036" lon="6.70114">
        <ele>72.3</ele>
        <time>2016-10-09T09:22:29Z</time>
      </trkpt>
      <trkpt lat="43.40033" lon="6.70113">
        <ele>72.5</ele>
        <time>2016-10-09T09:22:31Z</time>
      </trkpt>
      <trkpt lat="43.40031" lon="6.70112">
        <ele>72.8</ele>
        <time>2016-10-09T09:22:33Z</time>
      </trkpt>
      <trkpt lat="43.40028" lon="6.70111">
        <ele>73.2</ele>
        <time>2016-10-09T09:22:35Z</time>
      </trkpt>
      <trkpt lat="43.40027" lon="6.70109">
        <ele>73.6</ele>
        <time>2016-10-09T09:22:37Z</time>
      </trkpt>
      <trkpt lat="43.40024" lon="6.70108">
        <ele>74</ele>
        <time>2016-10-09T09:22:39Z</time>
      </trkpt>
      <trkpt lat="43.40022" lon="6.70107">
        <ele>74.4</ele>
        <time>2016-10-09T09:22:41Z</time>
      </trkpt>
      <trkpt lat="43.40019" lon="6.70107">
        <ele>74.7</ele>
        <time>2016-10-09T09:22:43Z</time>
      </trkpt>
      <trkpt lat="43.40017" lon="6.70106">
        <ele>74.9</ele>
        <time>2016-10-09T09:22:45Z</time>
      </trkpt>
      <trkpt lat="43.40015" lon="6.70105">
        <ele>75.2</ele>
        <time>2016-10-09T09:22:47Z</time>
      </trkpt>
      <trkpt lat="43.40012" lon="6.70105">
        <ele>75.6</ele>
        <time>2016-10-09T09:22:49Z</time>
      </trkpt>
      <trkpt lat="43.4001" lon="6.70105">
        <ele>76</ele>
        <time>2016-10-09T09:22:51Z</time>
      </trkpt>
      <trkpt lat="43.40007" lon="6.70105">
        <ele>76.6</ele>
        <time>2016-10-09T09:22:53Z</time>
      </trkpt>
      <trkpt lat="43.40004" lon="6.70105">
        <ele>77</ele>
        <time>2016-10-09T09:22:55Z</time>
      </trkpt>
      <trkpt lat="43.40001" lon="6.70105">
        <ele>77.5</ele>
        <time>2016-10-09T09:22:57Z</time>
      </trkpt>
      <trkpt lat="43.39999" lon="6.70106">
        <ele>78.1</ele>
        <time>2016-10-09T09:22:59Z</time>
      </trkpt>
      <trkpt lat="43.39996" lon="6.70106">
        <ele>78.7</ele>
        <time>2016-10-09T09:23:01Z</time>
      </trkpt>
      <trkpt lat="43.39993" lon="6.70107">
        <ele>79.1</ele>
        <time>2016-10-09T09:23:03Z</time>
      </trkpt>
      <trkpt lat="43.3999" lon="6.70108">
        <ele>79.5</ele>
        <time>2016-10-09T09:23:05Z</time>
      </trkpt>
      <trkpt lat="43.39988" lon="6.70109">
        <ele>79.9</ele>
        <time>2016-10-09T09:23:07Z</time>
      </trkpt>
      <trkpt lat="43.39985" lon="6.7011">
        <ele>80.3</ele>
        <time>2016-10-09T09:23:09Z</time>
      </trkpt>
      <trkpt lat="43.39982" lon="6.70111">
        <ele>80.9</ele>
        <time>2016-10-09T09:23:11Z</time>
      </trkpt>
      <trkpt lat="43.39979" lon="6.70113">
        <ele>81.4</ele>
        <time>2016-10-09T09:23:13Z</time>
      </trkpt>
      <trkpt lat="43.39975" lon="6.70114">
        <ele>81.7</ele>
        <time>2016-10-09T09:23:15Z</time>
      </trkpt>
      <trkpt lat="43.39972" lon="6.70115">
        <ele>81.9</ele>
        <time>2016-10-09T09:23:17Z</time>
      </trkpt>
      <trkpt lat="43.3997" lon="6.70116">
        <ele>82.1</ele>
        <time>2016-10-09T09:23:19Z</time>
      </trkpt>
      <trkpt lat="43.39967" lon="6.70116">
        <ele>82.3</ele>
        <time>2016-10-09T09:23:21Z</time>
      </trkpt>
      <trkpt lat="43.39964" lon="6.70118">
        <ele>82.4</ele>
        <time>2016-10-09T09:23:23Z</time>
      </trkpt>
      <trkpt lat="43.39962" lon="6.70119">
        <ele>82.9</ele>
        <time>2016-10-09T09:23:25Z</time>
      </trkpt>
      <trkpt lat="43.39959" lon="6.70119">
        <ele>83.4</ele>
        <time>2016-10-09T09:23:27Z</time>
      </trkpt>
      <trkpt lat="43.39956" lon="6.7012">
        <ele>83.9</ele>
        <time>2016-10-09T09:23:29Z</time>
      </trkpt>
      <trkpt lat="43.39953" lon="6.70121">
        <ele>84.4</ele>
        <time>2016-10-09T09:23:31Z</time>
      </trkpt>
      <trkpt lat="43.39951" lon="6.70122">
        <ele>84.9</ele>
        <time>2016-10-09T09:23:33Z</time>
      </trkpt>
      <trkpt lat="43.39948" lon="6.70123">
        <ele>85.4</ele>
        <time>2016-10-09T09:23:35Z</time>
      </trkpt>
      <trkpt lat="43.39946" lon="6.70124">
        <ele>86</ele>
        <time>2016-10-09T09:23:37Z</time>
      </trkpt>
      <trkpt lat="43.39943" lon="6.70125">
        <ele>86.6</ele>
        <time>2016-10-09T09:23:39Z</time>
      </trkpt>
      <trkpt lat="43.3994" lon="6.70126">
        <ele>87</ele>
        <time>2016-10-09T09:23:41Z</time>
      </trkpt>
      <trkpt lat="43.39937" lon="6.70127">
        <ele>87.5</ele>
        <time>2016-10-09T09:23:43Z</time>
      </trkpt>
      <trkpt lat="43.39935" lon="6.70128">
        <ele>88</ele>
        <time>2016-10-09T09:23:45Z</time>
      </trkpt>
      <trkpt lat="43.39933" lon="6.70129">
        <ele>88.5</ele>
        <time>2016-10-09T09:23:47Z</time>
      </trkpt>
      <trkpt lat="43.3993" lon="6.70129">
        <ele>89.2</ele>
        <time>2016-10-09T09:23:49Z</time>
      </trkpt>
      <trkpt lat="43.39928" lon="6.7013">
        <ele>89.8</ele>
        <time>2016-10-09T09:23:51Z</time>
      </trkpt>
      <trkpt lat="43.39925" lon="6.7013">
        <ele>90.5</ele>
        <time>2016-10-09T09:23:53Z</time>
      </trkpt>
      <trkpt lat="43.39922" lon="6.70131">
        <ele>91.1</ele>
        <time>2016-10-09T09:23:55Z</time>
      </trkpt>
      <trkpt lat="43.39919" lon="6.70132">
        <ele>91.7</ele>
        <time>2016-10-09T09:23:57Z</time>
      </trkpt>
      <trkpt lat="43.39917" lon="6.70132">
        <ele>92</ele>
        <time>2016-10-09T09:23:59Z</time>
      </trkpt>
      <trkpt lat="43.39914" lon="6.70133">
        <ele>92.4</ele>
        <time>2016-10-09T09:24:01Z</time>
      </trkpt>
      <trkpt lat="43.39911" lon="6.70134">
        <ele>92.9</ele>
        <time>2016-10-09T09:24:03Z</time>
      </trkpt>
      <trkpt lat="43.39908" lon="6.70134">
        <ele>93.6</ele>
        <time>2016-10-09T09:24:05Z</time>
      </trkpt>
      <trkpt lat="43.39905" lon="6.70135">
        <ele>94.3</ele>
        <time>2016-10-09T09:24:07Z</time>
      </trkpt>
      <trkpt lat="43.39903" lon="6.70137">
        <ele>94.7</ele>
        <time>2016-10-09T09:24:09Z</time>
      </trkpt>
      <trkpt lat="43.399" lon="6.70138">
        <ele>95.2</ele>
        <time>2016-10-09T09:24:11Z</time>
      </trkpt>
      <trkpt lat="43.39897" lon="6.7014">
        <ele>95.8</ele>
        <time>2016-10-09T09:24:13Z</time>
      </trkpt>
      <trkpt lat="43.39894" lon="6.70142">
        <ele>96.4</ele>
        <time>2016-10-09T09:24:15Z</time>
      </trkpt>
      <trkpt lat="43.39891" lon="6.70144">
        <ele>96.7</ele>
        <time>2016-10-09T09:24:17Z</time>
      </trkpt>
      <trkpt lat="43.39888" lon="6.70147">
        <ele>97</ele>
        <time>2016-10-09T09:24:19Z</time>
      </trkpt>
      <trkpt lat="43.39885" lon="6.7015">
        <ele>97.4</ele>
        <time>2016-10-09T09:24:21Z</time>
      </trkpt>
      <trkpt lat="43.39881" lon="6.70154">
        <ele>98.1</ele>
        <time>2016-10-09T09:24:23Z</time>
      </trkpt>
      <trkpt lat="43.39877" lon="6.70157">
        <ele>98.5</ele>
        <time>2016-10-09T09:24:25Z</time>
      </trkpt>
      <trkpt lat="43.39874" lon="6.70162">
        <ele>98.9</ele>
        <time>2016-10-09T09:24:27Z</time>
      </trkpt>
      <trkpt lat="43.3987" lon="6.70167">
        <ele>99.1</ele>
        <time>2016-10-09T09:24:29Z</time>
      </trkpt>
      <trkpt lat="43.39866" lon="6.70172">
        <ele>99.2</ele>
        <time>2016-10-09T09:24:31Z</time>
      </trkpt>
      <trkpt lat="43.39862" lon="6.70177">
        <ele>99.4</ele>
        <time>2016-10-09T09:24:33Z</time>
      </trkpt>
      <trkpt lat="43.39858" lon="6.70181">
        <ele>99.5</ele>
        <time>2016-10-09T09:24:35Z</time>
      </trkpt>
      <trkpt lat="43.39852" lon="6.70185">
        <ele>99.6</ele>
        <time>2016-10-09T09:24:37Z</time>
      </trkpt>
      <trkpt lat="43.39845" lon="6.70186">
        <ele>100</ele>
        <time>2016-10-09T09:24:39Z</time>
      </trkpt>
      <trkpt lat="43.39838" lon="6.70185">
        <ele>100.5</ele>
        <time>2016-10-09T09:24:41Z</time>
      </trkpt>
      <trkpt lat="43.3983" lon="6.70185">
        <ele>101</ele>
        <time>2016-10-09T09:24:43Z</time>
      </trkpt>
      <trkpt lat="43.39823" lon="6.70184">
        <ele>101.3</ele>
        <time>2016-10-09T09:24:45Z</time>
      </trkpt>
      <trkpt lat="43.39816" lon="6.70183">
        <ele>101.5</ele>
        <time>2016-10-09T09:24:47Z</time>
      </trkpt>
      <trkpt lat="43.39808" lon="6.70183">
        <ele>101.6</ele>
        <time>2016-10-09T09:24:49Z</time>
      </trkpt>
      <trkpt lat="43.398" lon="6.70183">
        <ele>101.7</ele>
        <time>2016-10-09T09:24:51Z</time>
      </trkpt>
      <trkpt lat="43.39792" lon="6.70182">
        <ele>101.8</ele>
        <time>2016-10-09T09:24:53Z</time>
      </trkpt>
      <trkpt lat="43.39783" lon="6.70182">
        <ele>101.8</ele>
        <time>2016-10-09T09:24:55Z</time>
      </trkpt>
      <trkpt lat="43.39774" lon="6.7018">
        <ele>101.9</ele>
        <time>2016-10-09T09:24:57Z</time>
      </trkpt>
      <trkpt lat="43.39766" lon="6.70179">
        <ele>101.9</ele>
        <time>2016-10-09T09:24:59Z</time>
      </trkpt>
      <trkpt lat="43.39757" lon="6.70178">
        <ele>101.9</ele>
        <time>2016-10-09T09:25:01Z</time>
      </trkpt>
      <trkpt lat="43.39748" lon="6.70177">
        <ele>102</ele>
        <time>2016-10-09T09:25:03Z</time>
      </trkpt>
      <trkpt lat="43.39739" lon="6.70174">
        <ele>102</ele>
        <time>2016-10-09T09:25:05Z</time>
      </trkpt>
      <trkpt lat="43.39728" lon="6.70172">
        <ele>102.1</ele>
        <time>2016-10-09T09:25:07Z</time>
      </trkpt>
      <trkpt lat="43.39717" lon="6.70168">
        <ele>102.2</ele>
        <time>2016-10-09T09:25:09Z</time>
      </trkpt>
      <trkpt lat="43.39706" lon="6.70163">
        <ele>102.2</ele>
        <time>2016-10-09T09:25:11Z</time>
      </trkpt>
      <trkpt lat="43.39695" lon="6.70159">
        <ele>102.3</ele>
        <time>2016-10-09T09:25:13Z</time>
      </trkpt>
      <trkpt lat="43.39685" lon="6.70152">
        <ele>102.4</ele>
        <time>2016-10-09T09:25:15Z</time>
      </trkpt>
      <trkpt lat="43.39678" lon="6.70145">
        <ele>102.5</ele>
        <time>2016-10-09T09:25:17Z</time>
      </trkpt>
      <trkpt lat="43.39672" lon="6.70138">
        <ele>102.6</ele>
        <time>2016-10-09T09:25:19Z</time>
      </trkpt>
      <trkpt lat="43.39666" lon="6.70132">
        <ele>102.6</ele>
        <time>2016-10-09T09:25:21Z</time>
      </trkpt>
      <trkpt lat="43.3966" lon="6.70127">
        <ele>102.8</ele>
        <time>2016-10-09T09:25:23Z</time>
      </trkpt>
      <trkpt lat="43.39654" lon="6.70122">
        <ele>102.9</ele>
        <time>2016-10-09T09:25:25Z</time>
      </trkpt>
      <trkpt lat="43.3965" lon="6.70116">
        <ele>103.1</ele>
        <time>2016-10-09T09:25:27Z</time>
      </trkpt>
      <trkpt lat="43.39647" lon="6.70111">
        <ele>103.3</ele>
        <time>2016-10-09T09:25:29Z</time>
      </trkpt>
      <trkpt lat="43.39644" lon="6.70106">
        <ele>103.6</ele>
        <time>2016-10-09T09:25:31Z</time>
      </trkpt>
      <trkpt lat="43.39641" lon="6.70101">
        <ele>104.2</ele>
        <time>2016-10-09T09:25:33Z</time>
      </trkpt>
      <trkpt lat="43.39639" lon="6.70096">
        <ele>104.9</ele>
        <time>2016-10-09T09:25:35Z</time>
      </trkpt>
      <trkpt lat="43.39637" lon="6.70091">
        <ele>105.4</ele>
        <time>2016-10-09T09:25:37Z</time>
      </trkpt>
      <trkpt lat="43.39635" lon="6.70085">
        <ele>106</ele>
        <time>2016-10-09T09:25:39Z</time>
      </trkpt>
      <trkpt lat="43.39632" lon="6.70081">
        <ele>106.5</ele>
        <time>2016-10-09T09:25:41Z</time>
      </trkpt>
      <trkpt lat="43.39629" lon="6.70076">
        <ele>106.9</ele>
        <time>2016-10-09T09:25:43Z</time>
      </trkpt>
      <trkpt lat="43.39626" lon="6.70072">
        <ele>107.1</ele>
        <time>2016-10-09T09:25:45Z</time>
      </trkpt>
      <trkpt lat="43.39621" lon="6.70069">
        <ele>107.3</ele>
        <time>2016-10-09T09:25:47Z</time>
      </trkpt>
      <trkpt lat="43.39617" lon="6.70066">
        <ele>107.5</ele>
        <time>2016-10-09T09:25:49Z</time>
      </trkpt>
      <trkpt lat="43.39612" lon="6.70064">
        <ele>107.7</ele>
        <time>2016-10-09T09:25:51Z</time>
      </trkpt>
      <trkpt lat="43.39607" lon="6.70063">
        <ele>108.2</ele>
        <time>2016-10-09T09:25:53Z</time>
      </trkpt>
      <trkpt lat="43.39601" lon="6.70064">
        <ele>108.8</ele>
        <time>2016-10-09T09:25:55Z</time>
      </trkpt>
      <trkpt lat="43.39595" lon="6.70065">
        <ele>109.2</ele>
        <time>2016-10-09T09:25:57Z</time>
      </trkpt>
      <trkpt lat="43.39589" lon="6.70068">
        <ele>109.6</ele>
        <time>2016-10-09T09:25:59Z</time>
      </trkpt>
      <trkpt lat="43.3958" lon="6.70071">
        <ele>109.9</ele>
        <time>2016-10-09T09:26:01Z</time>
      </trkpt>
      <trkpt lat="43.39571" lon="6.70075">
        <ele>110.1</ele>
        <time>2016-10-09T09:26:03Z</time>
      </trkpt>
      <trkpt lat="43.39562" lon="6.7008">
        <ele>110.2</ele>
        <time>2016-10-09T09:26:05Z</time>
      </trkpt>
      <trkpt lat="43.39551" lon="6.70085">
        <ele>110.2</ele>
        <time>2016-10-09T09:26:07Z</time>
      </trkpt>
      <trkpt lat="43.3954" lon="6.70091">
        <ele>110.3</ele>
        <time>2016-10-09T09:26:09Z</time>
      </trkpt>
      <trkpt lat="43.39528" lon="6.70099">
        <ele>110.4</ele>
        <time>2016-10-09T09:26:11Z</time>
      </trkpt>
      <trkpt lat="43.39515" lon="6.70104">
        <ele>110.4</ele>
        <time>2016-10-09T09:26:13Z</time>
      </trkpt>
      <trkpt lat="43.39501" lon="6.70106">
        <ele>110.5</ele>
        <time>2016-10-09T09:26:15Z</time>
      </trkpt>
      <trkpt lat="43.3949" lon="6.70107">
        <ele>110.4</ele>
        <time>2016-10-09T09:26:17Z</time>
      </trkpt>
      <trkpt lat="43.39479" lon="6.70107">
        <ele>110.4</ele>
        <time>2016-10-09T09:26:19Z</time>
      </trkpt>
      <trkpt lat="43.39467" lon="6.70106">
        <ele>110.3</ele>
        <time>2016-10-09T09:26:21Z</time>
      </trkpt>
      <trkpt lat="43.39455" lon="6.70102">
        <ele>110.2</ele>
        <time>2016-10-09T09:26:23Z</time>
      </trkpt>
      <trkpt lat="43.39441" lon="6.70099">
        <ele>109.9</ele>
        <time>2016-10-09T09:26:25Z</time>
      </trkpt>
      <trkpt lat="43.39426" lon="6.70097">
        <ele>109.4</ele>
        <time>2016-10-09T09:26:27Z</time>
      </trkpt>
      <trkpt lat="43.39411" lon="6.70094">
        <ele>108.9</ele>
        <time>2016-10-09T09:26:29Z</time>
      </trkpt>
      <trkpt lat="43.39397" lon="6.7009">
        <ele>108.6</ele>
        <time>2016-10-09T09:26:31Z</time>
      </trkpt>
      <trkpt lat="43.39385" lon="6.70084">
        <ele>108.3</ele>
        <time>2016-10-09T09:26:33Z</time>
      </trkpt>
      <trkpt lat="43.39374" lon="6.70078">
        <ele>107.9</ele>
        <time>2016-10-09T09:26:35Z</time>
      </trkpt>
      <trkpt lat="43.39364" lon="6.70069">
        <ele>107.7</ele>
        <time>2016-10-09T09:26:37Z</time>
      </trkpt>
      <trkpt lat="43.39353" lon="6.70059">
        <ele>107.5</ele>
        <time>2016-10-09T09:26:39Z</time>
      </trkpt>
      <trkpt lat="43.39343" lon="6.70046">
        <ele>107.4</ele>
        <time>2016-10-09T09:26:41Z</time>
      </trkpt>
      <trkpt lat="43.39331" lon="6.70032">
        <ele>107.3</ele>
        <time>2016-10-09T09:26:43Z</time>
      </trkpt>
      <trkpt lat="43.39321" lon="6.70019">
        <ele>107.3</ele>
        <time>2016-10-09T09:26:45Z</time>
      </trkpt>
      <trkpt lat="43.39311" lon="6.70007">
        <ele>107.1</ele>
        <time>2016-10-09T09:26:47Z</time>
      </trkpt>
      <trkpt lat="43.39302" lon="6.69996">
        <ele>106.8</ele>
        <time>2016-10-09T09:26:49Z</time>
      </trkpt>
      <trkpt lat="43.39295" lon="6.69986">
        <ele>106.5</ele>
        <time>2016-10-09T09:26:51Z</time>
      </trkpt>
      <trkpt lat="43.39288" lon="6.69978">
        <ele>106.3</ele>
        <time>2016-10-09T09:26:53Z</time>
      </trkpt>
      <trkpt lat="43.39282" lon="6.6997">
        <ele>106.3</ele>
        <time>2016-10-09T09:26:55Z</time>
      </trkpt>
      <trkpt lat="43.39276" lon="6.69962">
        <ele>106.2</ele>
        <time>2016-10-09T09:26:57Z</time>
      </trkpt>
      <trkpt lat="43.39271" lon="6.69954">
        <ele>106.2</ele>
        <time>2016-10-09T09:26:59Z</time>
      </trkpt>
      <trkpt lat="43.39265" lon="6.69947">
        <ele>106.3</ele>
        <time>2016-10-09T09:27:01Z</time>
      </trkpt>
      <trkpt lat="43.39258" lon="6.69941">
        <ele>106.3</ele>
        <time>2016-10-09T09:27:03Z</time>
      </trkpt>
      <trkpt lat="43.3925" lon="6.69937">
        <ele>106.5</ele>
        <time>2016-10-09T09:27:05Z</time>
      </trkpt>
      <trkpt lat="43.39241" lon="6.69933">
        <ele>106.7</ele>
        <time>2016-10-09T09:27:07Z</time>
      </trkpt>
      <trkpt lat="43.39232" lon="6.69931">
        <ele>107.1</ele>
        <time>2016-10-09T09:27:09Z</time>
      </trkpt>
      <trkpt lat="43.39222" lon="6.69925">
        <ele>107.9</ele>
        <time>2016-10-09T09:27:11Z</time>
      </trkpt>
      <trkpt lat="43.39212" lon="6.69915">
        <ele>108.7</ele>
        <time>2016-10-09T09:27:13Z</time>
      </trkpt>
      <trkpt lat="43.39203" lon="6.69901">
        <ele>109</ele>
        <time>2016-10-09T09:27:15Z</time>
      </trkpt>
      <trkpt lat="43.39194" lon="6.69889">
        <ele>109</ele>
        <time>2016-10-09T09:27:17Z</time>
      </trkpt>
      <trkpt lat="43.39185" lon="6.69878">
        <ele>109</ele>
        <time>2016-10-09T09:27:19Z</time>
      </trkpt>
      <trkpt lat="43.39178" lon="6.69871">
        <ele>109.1</ele>
        <time>2016-10-09T09:27:21Z</time>
      </trkpt>
      <trkpt lat="43.39172" lon="6.69866">
        <ele>109.2</ele>
        <time>2016-10-09T09:27:23Z</time>
      </trkpt>
      <trkpt lat="43.39167" lon="6.69863">
        <ele>109.3</ele>
        <time>2016-10-09T09:27:25Z</time>
      </trkpt>
      <trkpt lat="43.39162" lon="6.6986">
        <ele>109.6</ele>
        <time>2016-10-09T09:27:27Z</time>
      </trkpt>
      <trkpt lat="43.39158" lon="6.69858">
        <ele>110.2</ele>
        <time>2016-10-09T09:27:29Z</time>
      </trkpt>
      <trkpt lat="43.39153" lon="6.69855">
        <ele>110.7</ele>
        <time>2016-10-09T09:27:31Z</time>
      </trkpt>
      <trkpt lat="43.39149" lon="6.69852">
        <ele>111.3</ele>
        <time>2016-10-09T09:27:33Z</time>
      </trkpt>
      <trkpt lat="43.39145" lon="6.69849">
        <ele>111.9</ele>
        <time>2016-10-09T09:27:35Z</time>
      </trkpt>
      <trkpt lat="43.39142" lon="6.69845">
        <ele>112.6</ele>
        <time>2016-10-09T09:27:37Z</time>
      </trkpt>
      <trkpt lat="43.39139" lon="6.69841">
        <ele>112.9</ele>
        <time>2016-10-09T09:27:39Z</time>
      </trkpt>
      <trkpt lat="43.39137" lon="6.69836">
        <ele>113.2</ele>
        <time>2016-10-09T09:27:41Z</time>
      </trkpt>
      <trkpt lat="43.39135" lon="6.69831">
        <ele>113.5</ele>
        <time>2016-10-09T09:27:43Z</time>
      </trkpt>
      <trkpt lat="43.39134" lon="6.69826">
        <ele>114</ele>
        <time>2016-10-09T09:27:45Z</time>
      </trkpt>
      <trkpt lat="43.39133" lon="6.6982">
        <ele>114.5</ele>
        <time>2016-10-09T09:27:47Z</time>
      </trkpt>
      <trkpt lat="43.39132" lon="6.69815">
        <ele>114.8</ele>
        <time>2016-10-09T09:27:49Z</time>
      </trkpt>
      <trkpt lat="43.39132" lon="6.69808">
        <ele>115.2</ele>
        <time>2016-10-09T09:27:51Z</time>
      </trkpt>
      <trkpt lat="43.39131" lon="6.69802">
        <ele>115.5</ele>
        <time>2016-10-09T09:27:53Z</time>
      </trkpt>
      <trkpt lat="43.3913" lon="6.69797">
        <ele>115.8</ele>
        <time>2016-10-09T09:27:55Z</time>
      </trkpt>
      <trkpt lat="43.3913" lon="6.69792">
        <ele>116.4</ele>
        <time>2016-10-09T09:27:57Z</time>
      </trkpt>
      <trkpt lat="43.3913" lon="6.69787">
        <ele>117</ele>
        <time>2016-10-09T09:27:59Z</time>
      </trkpt>
      <trkpt lat="43.3913" lon="6.69783">
        <ele>117.3</ele>
        <time>2016-10-09T09:28:01Z</time>
      </trkpt>
      <trkpt lat="43.3913" lon="6.69779">
        <ele>117.6</ele>
        <time>2016-10-09T09:28:03Z</time>
      </trkpt>
      <trkpt lat="43.3913" lon="6.69774">
        <ele>118.1</ele>
        <time>2016-10-09T09:28:05Z</time>
      </trkpt>
      <trkpt lat="43.3913" lon="6.6977">
        <ele>118.7</ele>
        <time>2016-10-09T09:28:07Z</time>
      </trkpt>
      <trkpt lat="43.3913" lon="6.69766">
        <ele>119.1</ele>
        <time>2016-10-09T09:28:09Z</time>
      </trkpt>
      <trkpt lat="43.3913" lon="6.69762">
        <ele>119.5</ele>
        <time>2016-10-09T09:28:11Z</time>
      </trkpt>
      <trkpt lat="43.3913" lon="6.69758">
        <ele>119.9</ele>
        <time>2016-10-09T09:28:13Z</time>
      </trkpt>
      <trkpt lat="43.3913" lon="6.69753">
        <ele>120.4</ele>
        <time>2016-10-09T09:28:15Z</time>
      </trkpt>
      <trkpt lat="43.39129" lon="6.69749">
        <ele>120.9</ele>
        <time>2016-10-09T09:28:17Z</time>
      </trkpt>
      <trkpt lat="43.3913" lon="6.69746">
        <ele>121.3</ele>
        <time>2016-10-09T09:28:19Z</time>
      </trkpt>
      <trkpt lat="43.3913" lon="6.69742">
        <ele>121.6</ele>
        <time>2016-10-09T09:28:21Z</time>
      </trkpt>
      <trkpt lat="43.39129" lon="6.69739">
        <ele>122</ele>
        <time>2016-10-09T09:28:23Z</time>
      </trkpt>
      <trkpt lat="43.39129" lon="6.69735">
        <ele>122.5</ele>
        <time>2016-10-09T09:28:25Z</time>
      </trkpt>
      <trkpt lat="43.39129" lon="6.69731">
        <ele>122.9</ele>
        <time>2016-10-09T09:28:27Z</time>
      </trkpt>
      <trkpt lat="43.39129" lon="6.69727">
        <ele>123.2</ele>
        <time>2016-10-09T09:28:29Z</time>
      </trkpt>
      <trkpt lat="43.39129" lon="6.69724">
        <ele>123.5</ele>
        <time>2016-10-09T09:28:31Z</time>
      </trkpt>
      <trkpt lat="43.39127" lon="6.6972">
        <ele>123.2</ele>
        <time>2016-10-09T09:28:33Z</time>
      </trkpt>
      <trkpt lat="43.39127" lon="6.69717">
        <ele>123.4</ele>
        <time>2016-10-09T09:28:35Z</time>
      </trkpt>
      <trkpt lat="43.39126" lon="6.69713">
        <ele>123.5</ele>
        <time>2016-10-09T09:28:37Z</time>
      </trkpt>
      <trkpt lat="43.39126" lon="6.6971">
        <ele>123.8</ele>
        <time>2016-10-09T09:28:39Z</time>
      </trkpt>
      <trkpt lat="43.39125" lon="6.69706">
        <ele>124.2</ele>
        <time>2016-10-09T09:28:41Z</time>
      </trkpt>
      <trkpt lat="43.39124" lon="6.69703">
        <ele>124.5</ele>
        <time>2016-10-09T09:28:43Z</time>
      </trkpt>
      <trkpt lat="43.39123" lon="6.69699">
        <ele>124</ele>
        <time>2016-10-09T09:28:45Z</time>
      </trkpt>
      <trkpt lat="43.39122" lon="6.69695">
        <ele>124.3</ele>
        <time>2016-10-09T09:28:47Z</time>
      </trkpt>
      <trkpt lat="43.39121" lon="6.69691">
        <ele>124.5</ele>
        <time>2016-10-09T09:28:49Z</time>
      </trkpt>
      <trkpt lat="43.3912" lon="6.69688">
        <ele>124.6</ele>
        <time>2016-10-09T09:28:51Z</time>
      </trkpt>
      <trkpt lat="43.39119" lon="6.69684">
        <ele>125</ele>
        <time>2016-10-09T09:28:53Z</time>
      </trkpt>
      <trkpt lat="43.39118" lon="6.6968">
        <ele>125.5</ele>
        <time>2016-10-09T09:28:55Z</time>
      </trkpt>
      <trkpt lat="43.39117" lon="6.69677">
        <ele>124.9</ele>
        <time>2016-10-09T09:28:57Z</time>
      </trkpt>
      <trkpt lat="43.39115" lon="6.69673">
        <ele>125.3</ele>
        <time>2016-10-09T09:28:59Z</time>
      </trkpt>
      <trkpt lat="43.39114" lon="6.6967">
        <ele>125.3</ele>
        <time>2016-10-09T09:29:01Z</time>
      </trkpt>
      <trkpt lat="43.39113" lon="6.69667">
        <ele>125.7</ele>
        <time>2016-10-09T09:29:03Z</time>
      </trkpt>
      <trkpt lat="43.39112" lon="6.69663">
        <ele>126</ele>
        <time>2016-10-09T09:29:05Z</time>
      </trkpt>
      <trkpt lat="43.39111" lon="6.69659">
        <ele>126.4</ele>
        <time>2016-10-09T09:29:07Z</time>
      </trkpt>
      <trkpt lat="43.39111" lon="6.69656">
        <ele>126.8</ele>
        <time>2016-10-09T09:29:09Z</time>
      </trkpt>
      <trkpt lat="43.39111" lon="6.69652">
        <ele>127.2</ele>
        <time>2016-10-09T09:29:11Z</time>
      </trkpt>
      <trkpt lat="43.39111" lon="6.69648">
        <ele>127.6</ele>
        <time>2016-10-09T09:29:13Z</time>
      </trkpt>
      <trkpt lat="43.3911" lon="6.69643">
        <ele>128.3</ele>
        <time>2016-10-09T09:29:15Z</time>
      </trkpt>
      <trkpt lat="43.39108" lon="6.69635">
        <ele>129.4</ele>
        <time>2016-10-09T09:29:19Z</time>
      </trkpt>
      <trkpt lat="43.39107" lon="6.69631">
        <ele>130</ele>
        <time>2016-10-09T09:29:21Z</time>
      </trkpt>
      <trkpt lat="43.39106" lon="6.69627">
        <ele>130.7</ele>
        <time>2016-10-09T09:29:23Z</time>
      </trkpt>
      <trkpt lat="43.39106" lon="6.69623">
        <ele>139.9</ele>
        <time>2016-10-09T09:29:25Z</time>
      </trkpt>
      <trkpt lat="43.39105" lon="6.6962">
        <ele>140.7</ele>
        <time>2016-10-09T09:29:27Z</time>
      </trkpt>
      <trkpt lat="43.39104" lon="6.69616">
        <ele>141.6</ele>
        <time>2016-10-09T09:29:29Z</time>
      </trkpt>
      <trkpt lat="43.39103" lon="6.69612">
        <ele>142.4</ele>
        <time>2016-10-09T09:29:31Z</time>
      </trkpt>
      <trkpt lat="43.39102" lon="6.69608">
        <ele>142.9</ele>
        <time>2016-10-09T09:29:33Z</time>
      </trkpt>
      <trkpt lat="43.39101" lon="6.69605">
        <ele>143.1</ele>
        <time>2016-10-09T09:29:35Z</time>
      </trkpt>
      <trkpt lat="43.391" lon="6.69601">
        <ele>143.2</ele>
        <time>2016-10-09T09:29:37Z</time>
      </trkpt>
      <trkpt lat="43.39099" lon="6.69598">
        <ele>143.3</ele>
        <time>2016-10-09T09:29:39Z</time>
      </trkpt>
      <trkpt lat="43.39098" lon="6.69594">
        <ele>143.5</ele>
        <time>2016-10-09T09:29:41Z</time>
      </trkpt>
      <trkpt lat="43.39096" lon="6.69591">
        <ele>143.6</ele>
        <time>2016-10-09T09:29:43Z</time>
      </trkpt>
      <trkpt lat="43.39095" lon="6.69587">
        <ele>143.7</ele>
        <time>2016-10-09T09:29:45Z</time>
      </trkpt>
      <trkpt lat="43.39094" lon="6.69584">
        <ele>143.9</ele>
        <time>2016-10-09T09:29:47Z</time>
      </trkpt>
      <trkpt lat="43.39093" lon="6.69581">
        <ele>144</ele>
        <time>2016-10-09T09:29:49Z</time>
      </trkpt>
      <trkpt lat="43.39092" lon="6.69577">
        <ele>144.1</ele>
        <time>2016-10-09T09:29:51Z</time>
      </trkpt>
      <trkpt lat="43.39091" lon="6.69574">
        <ele>144.3</ele>
        <time>2016-10-09T09:29:53Z</time>
      </trkpt>
      <trkpt lat="43.3909" lon="6.6957">
        <ele>144.4</ele>
        <time>2016-10-09T09:29:55Z</time>
      </trkpt>
      <trkpt lat="43.39089" lon="6.69567">
        <ele>144.5</ele>
        <time>2016-10-09T09:29:57Z</time>
      </trkpt>
      <trkpt lat="43.39088" lon="6.69563">
        <ele>144.6</ele>
        <time>2016-10-09T09:29:59Z</time>
      </trkpt>
      <trkpt lat="43.39087" lon="6.6956">
        <ele>144.8</ele>
        <time>2016-10-09T09:30:01Z</time>
      </trkpt>
      <trkpt lat="43.39086" lon="6.69557">
        <ele>144.9</ele>
        <time>2016-10-09T09:30:03Z</time>
      </trkpt>
      <trkpt lat="43.39084" lon="6.69553">
        <ele>145</ele>
        <time>2016-10-09T09:30:05Z</time>
      </trkpt>
      <trkpt lat="43.39082" lon="6.6955">
        <ele>145.3</ele>
        <time>2016-10-09T09:30:07Z</time>
      </trkpt>
      <trkpt lat="43.3908" lon="6.69547">
        <ele>145.7</ele>
        <time>2016-10-09T09:30:09Z</time>
      </trkpt>
      <trkpt lat="43.39078" lon="6.69544">
        <ele>146</ele>
        <time>2016-10-09T09:30:11Z</time>
      </trkpt>
      <trkpt lat="43.39076" lon="6.69541">
        <ele>146.3</ele>
        <time>2016-10-09T09:30:13Z</time>
      </trkpt>
      <trkpt lat="43.39075" lon="6.69538">
        <ele>146.7</ele>
        <time>2016-10-09T09:30:15Z</time>
      </trkpt>
      <trkpt lat="43.39073" lon="6.69536">
        <ele>147</ele>
        <time>2016-10-09T09:30:17Z</time>
      </trkpt>
      <trkpt lat="43.39071" lon="6.69534">
        <ele>147.3</ele>
        <time>2016-10-09T09:30:19Z</time>
      </trkpt>
      <trkpt lat="43.39069" lon="6.69532">
        <ele>147.5</ele>
        <time>2016-10-09T09:30:21Z</time>
      </trkpt>
      <trkpt lat="43.39066" lon="6.6953">
        <ele>147.7</ele>
        <time>2016-10-09T09:30:23Z</time>
      </trkpt>
      <trkpt lat="43.39064" lon="6.69529">
        <ele>147.8</ele>
        <time>2016-10-09T09:30:25Z</time>
      </trkpt>
      <trkpt lat="43.39061" lon="6.69527">
        <ele>147.9</ele>
        <time>2016-10-09T09:30:27Z</time>
      </trkpt>
      <trkpt lat="43.39059" lon="6.69526">
        <ele>148</ele>
        <time>2016-10-09T09:30:29Z</time>
      </trkpt>
      <trkpt lat="43.39056" lon="6.69524">
        <ele>148.2</ele>
        <time>2016-10-09T09:30:31Z</time>
      </trkpt>
      <trkpt lat="43.39054" lon="6.69523">
        <ele>148.3</ele>
        <time>2016-10-09T09:30:33Z</time>
      </trkpt>
      <trkpt lat="43.39051" lon="6.69522">
        <ele>148.6</ele>
        <time>2016-10-09T09:30:35Z</time>
      </trkpt>
      <trkpt lat="43.39048" lon="6.6952">
        <ele>148.8</ele>
        <time>2016-10-09T09:30:37Z</time>
      </trkpt>
      <trkpt lat="43.39046" lon="6.69518">
        <ele>149</ele>
        <time>2016-10-09T09:30:39Z</time>
      </trkpt>
      <trkpt lat="43.39043" lon="6.69517">
        <ele>149.3</ele>
        <time>2016-10-09T09:30:41Z</time>
      </trkpt>
      <trkpt lat="43.39041" lon="6.69515">
        <ele>149.8</ele>
        <time>2016-10-09T09:30:43Z</time>
      </trkpt>
      <trkpt lat="43.39038" lon="6.69514">
        <ele>150.3</ele>
        <time>2016-10-09T09:30:45Z</time>
      </trkpt>
      <trkpt lat="43.39036" lon="6.69512">
        <ele>150.6</ele>
        <time>2016-10-09T09:30:47Z</time>
      </trkpt>
      <trkpt lat="43.39034" lon="6.6951">
        <ele>150.9</ele>
        <time>2016-10-09T09:30:49Z</time>
      </trkpt>
      <trkpt lat="43.39031" lon="6.69508">
        <ele>151.1</ele>
        <time>2016-10-09T09:30:51Z</time>
      </trkpt>
      <trkpt lat="43.39029" lon="6.69506">
        <ele>151.5</ele>
        <time>2016-10-09T09:30:53Z</time>
      </trkpt>
      <trkpt lat="43.39027" lon="6.69504">
        <ele>152</ele>
        <time>2016-10-09T09:30:55Z</time>
      </trkpt>
      <trkpt lat="43.39024" lon="6.69502">
        <ele>152.5</ele>
        <time>2016-10-09T09:30:57Z</time>
      </trkpt>
      <trkpt lat="43.39022" lon="6.695">
        <ele>153.1</ele>
        <time>2016-10-09T09:30:59Z</time>
      </trkpt>
      <trkpt lat="43.3902" lon="6.69498">
        <ele>153.6</ele>
        <time>2016-10-09T09:31:01Z</time>
      </trkpt>
      <trkpt lat="43.39018" lon="6.69495">
        <ele>153.8</ele>
        <time>2016-10-09T09:31:03Z</time>
      </trkpt>
      <trkpt lat="43.39016" lon="6.69493">
        <ele>154.1</ele>
        <time>2016-10-09T09:31:05Z</time>
      </trkpt>
      <trkpt lat="43.39013" lon="6.6949">
        <ele>154.7</ele>
        <time>2016-10-09T09:31:07Z</time>
      </trkpt>
      <trkpt lat="43.3901" lon="6.69487">
        <ele>155.3</ele>
        <time>2016-10-09T09:31:09Z</time>
      </trkpt>
      <trkpt lat="43.39008" lon="6.69485">
        <ele>155.9</ele>
        <time>2016-10-09T09:31:11Z</time>
      </trkpt>
      <trkpt lat="43.39005" lon="6.69483">
        <ele>156.4</ele>
        <time>2016-10-09T09:31:13Z</time>
      </trkpt>
      <trkpt lat="43.39003" lon="6.69481">
        <ele>156.9</ele>
        <time>2016-10-09T09:31:15Z</time>
      </trkpt>
      <trkpt lat="43.39" lon="6.69479">
        <ele>157.4</ele>
        <time>2016-10-09T09:31:17Z</time>
      </trkpt>
      <trkpt lat="43.38998" lon="6.69478">
        <ele>158</ele>
        <time>2016-10-09T09:31:19Z</time>
      </trkpt>
      <trkpt lat="43.38996" lon="6.69476">
        <ele>158.6</ele>
        <time>2016-10-09T09:31:21Z</time>
      </trkpt>
      <trkpt lat="43.38993" lon="6.69474">
        <ele>159.1</ele>
        <time>2016-10-09T09:31:23Z</time>
      </trkpt>
      <trkpt lat="43.38991" lon="6.69472">
        <ele>159.5</ele>
        <time>2016-10-09T09:31:25Z</time>
      </trkpt>
      <trkpt lat="43.38988" lon="6.6947">
        <ele>159.8</ele>
        <time>2016-10-09T09:31:27Z</time>
      </trkpt>
      <trkpt lat="43.38986" lon="6.69468">
        <ele>160.3</ele>
        <time>2016-10-09T09:31:29Z</time>
      </trkpt>
      <trkpt lat="43.38984" lon="6.69465">
        <ele>161</ele>
        <time>2016-10-09T09:31:31Z</time>
      </trkpt>
      <trkpt lat="43.38981" lon="6.69463">
        <ele>160.9</ele>
        <time>2016-10-09T09:31:33Z</time>
      </trkpt>
      <trkpt lat="43.38979" lon="6.6946">
        <ele>161.6</ele>
        <time>2016-10-09T09:31:35Z</time>
      </trkpt>
      <trkpt lat="43.38977" lon="6.69458">
        <ele>162.5</ele>
        <time>2016-10-09T09:31:37Z</time>
      </trkpt>
      <trkpt lat="43.38975" lon="6.69455">
        <ele>162.3</ele>
        <time>2016-10-09T09:31:39Z</time>
      </trkpt>
      <trkpt lat="43.38973" lon="6.69453">
        <ele>162.8</ele>
        <time>2016-10-09T09:31:41Z</time>
      </trkpt>
      <trkpt lat="43.38971" lon="6.6945">
        <ele>162.9</ele>
        <time>2016-10-09T09:31:43Z</time>
      </trkpt>
      <trkpt lat="43.3897" lon="6.69448">
        <ele>163.3</ele>
        <time>2016-10-09T09:31:45Z</time>
      </trkpt>
      <trkpt lat="43.38968" lon="6.69445">
        <ele>164</ele>
        <time>2016-10-09T09:31:47Z</time>
      </trkpt>
      <trkpt lat="43.38966" lon="6.69442">
        <ele>163.8</ele>
        <time>2016-10-09T09:31:49Z</time>
      </trkpt>
      <trkpt lat="43.38965" lon="6.69439">
        <ele>164.5</ele>
        <time>2016-10-09T09:31:51Z</time>
      </trkpt>
      <trkpt lat="43.38963" lon="6.69436">
        <ele>165.1</ele>
        <time>2016-10-09T09:31:53Z</time>
      </trkpt>
      <trkpt lat="43.38962" lon="6.69433">
        <ele>165.3</ele>
        <time>2016-10-09T09:31:55Z</time>
      </trkpt>
      <trkpt lat="43.38961" lon="6.69429">
        <ele>166</ele>
        <time>2016-10-09T09:31:57Z</time>
      </trkpt>
      <trkpt lat="43.3896" lon="6.69426">
        <ele>167</ele>
        <time>2016-10-09T09:31:59Z</time>
      </trkpt>
      <trkpt lat="43.38959" lon="6.69423">
        <ele>167.9</ele>
        <time>2016-10-09T09:32:01Z</time>
      </trkpt>
      <trkpt lat="43.38958" lon="6.6942">
        <ele>167.8</ele>
        <time>2016-10-09T09:32:03Z</time>
      </trkpt>
      <trkpt lat="43.38957" lon="6.69416">
        <ele>168.6</ele>
        <time>2016-10-09T09:32:05Z</time>
      </trkpt>
      <trkpt lat="43.38956" lon="6.69413">
        <ele>169.4</ele>
        <time>2016-10-09T09:32:07Z</time>
      </trkpt>
      <trkpt lat="43.38955" lon="6.6941">
        <ele>170.2</ele>
        <time>2016-10-09T09:32:09Z</time>
      </trkpt>
      <trkpt lat="43.38954" lon="6.69407">
        <ele>170.1</ele>
        <time>2016-10-09T09:32:11Z</time>
      </trkpt>
      <trkpt lat="43.38953" lon="6.69403">
        <ele>171</ele>
        <time>2016-10-09T09:32:13Z</time>
      </trkpt>
      <trkpt lat="43.38952" lon="6.694">
        <ele>171.6</ele>
        <time>2016-10-09T09:32:15Z</time>
      </trkpt>
      <trkpt lat="43.38951" lon="6.69397">
        <ele>172.5</ele>
        <time>2016-10-09T09:32:17Z</time>
      </trkpt>
      <trkpt lat="43.3895" lon="6.69393">
        <ele>173.3</ele>
        <time>2016-10-09T09:32:19Z</time>
      </trkpt>
      <trkpt lat="43.38948" lon="6.69389">
        <ele>173.3</ele>
        <time>2016-10-09T09:32:21Z</time>
      </trkpt>
      <trkpt lat="43.38948" lon="6.69386">
        <ele>174.1</ele>
        <time>2016-10-09T09:32:23Z</time>
      </trkpt>
      <trkpt lat="43.38946" lon="6.69383">
        <ele>174.9</ele>
        <time>2016-10-09T09:32:25Z</time>
      </trkpt>
      <trkpt lat="43.38945" lon="6.69379">
        <ele>175.8</ele>
        <time>2016-10-09T09:32:27Z</time>
      </trkpt>
      <trkpt lat="43.38944" lon="6.69376">
        <ele>176.2</ele>
        <time>2016-10-09T09:32:29Z</time>
      </trkpt>
      <trkpt lat="43.38942" lon="6.69373">
        <ele>176.9</ele>
        <time>2016-10-09T09:32:31Z</time>
      </trkpt>
      <trkpt lat="43.38941" lon="6.69369">
        <ele>177.6</ele>
        <time>2016-10-09T09:32:33Z</time>
      </trkpt>
      <trkpt lat="43.38939" lon="6.69366">
        <ele>178</ele>
        <time>2016-10-09T09:32:35Z</time>
      </trkpt>
      <trkpt lat="43.38938" lon="6.69363">
        <ele>178.4</ele>
        <time>2016-10-09T09:32:37Z</time>
      </trkpt>
      <trkpt lat="43.38937" lon="6.69359">
        <ele>179</ele>
        <time>2016-10-09T09:32:39Z</time>
      </trkpt>
      <trkpt lat="43.38936" lon="6.69356">
        <ele>179.5</ele>
        <time>2016-10-09T09:32:41Z</time>
      </trkpt>
      <trkpt lat="43.38934" lon="6.69353">
        <ele>180.1</ele>
        <time>2016-10-09T09:32:43Z</time>
      </trkpt>
      <trkpt lat="43.38933" lon="6.6935">
        <ele>180.6</ele>
        <time>2016-10-09T09:32:45Z</time>
      </trkpt>
      <trkpt lat="43.38931" lon="6.69347">
        <ele>181.2</ele>
        <time>2016-10-09T09:32:47Z</time>
      </trkpt>
      <trkpt lat="43.3893" lon="6.69344">
        <ele>181.6</ele>
        <time>2016-10-09T09:32:49Z</time>
      </trkpt>
      <trkpt lat="43.38929" lon="6.69342">
        <ele>182</ele>
        <time>2016-10-09T09:32:51Z</time>
      </trkpt>
      <trkpt lat="43.38927" lon="6.69339">
        <ele>182.6</ele>
        <time>2016-10-09T09:32:53Z</time>
      </trkpt>
      <trkpt lat="43.38926" lon="6.69336">
        <ele>183.1</ele>
        <time>2016-10-09T09:32:55Z</time>
      </trkpt>
      <trkpt lat="43.38924" lon="6.69333">
        <ele>183.7</ele>
        <time>2016-10-09T09:32:57Z</time>
      </trkpt>
      <trkpt lat="43.38923" lon="6.69331">
        <ele>184.1</ele>
        <time>2016-10-09T09:32:59Z</time>
      </trkpt>
      <trkpt lat="43.38921" lon="6.69328">
        <ele>184.5</ele>
        <time>2016-10-09T09:33:01Z</time>
      </trkpt>
      <trkpt lat="43.38919" lon="6.69325">
        <ele>184.8</ele>
        <time>2016-10-09T09:33:03Z</time>
      </trkpt>
      <trkpt lat="43.38918" lon="6.69321">
        <ele>185.4</ele>
        <time>2016-10-09T09:33:05Z</time>
      </trkpt>
      <trkpt lat="43.38916" lon="6.69319">
        <ele>185.9</ele>
        <time>2016-10-09T09:33:07Z</time>
      </trkpt>
      <trkpt lat="43.38915" lon="6.69316">
        <ele>186.5</ele>
        <time>2016-10-09T09:33:09Z</time>
      </trkpt>
      <trkpt lat="43.38913" lon="6.69314">
        <ele>187.1</ele>
        <time>2016-10-09T09:33:11Z</time>
      </trkpt>
      <trkpt lat="43.38911" lon="6.69311">
        <ele>187.8</ele>
        <time>2016-10-09T09:33:13Z</time>
      </trkpt>
      <trkpt lat="43.38909" lon="6.69308">
        <ele>188.7</ele>
        <time>2016-10-09T09:33:15Z</time>
      </trkpt>
      <trkpt lat="43.38907" lon="6.69306">
        <ele>189.4</ele>
        <time>2016-10-09T09:33:17Z</time>
      </trkpt>
      <trkpt lat="43.38904" lon="6.69305">
        <ele>189.9</ele>
        <time>2016-10-09T09:33:19Z</time>
      </trkpt>
      <trkpt lat="43.38902" lon="6.69305">
        <ele>190.5</ele>
        <time>2016-10-09T09:33:21Z</time>
      </trkpt>
      <trkpt lat="43.389" lon="6.69304">
        <ele>191.1</ele>
        <time>2016-10-09T09:33:23Z</time>
      </trkpt>
      <trkpt lat="43.38897" lon="6.69303">
        <ele>191.7</ele>
        <time>2016-10-09T09:33:25Z</time>
      </trkpt>
      <trkpt lat="43.38895" lon="6.69302">
        <ele>192.3</ele>
        <time>2016-10-09T09:33:27Z</time>
      </trkpt>
      <trkpt lat="43.38893" lon="6.69301">
        <ele>192.6</ele>
        <time>2016-10-09T09:33:29Z</time>
      </trkpt>
      <trkpt lat="43.38891" lon="6.693">
        <ele>193</ele>
        <time>2016-10-09T09:33:31Z</time>
      </trkpt>
      <trkpt lat="43.38888" lon="6.69299">
        <ele>193.6</ele>
        <time>2016-10-09T09:33:33Z</time>
      </trkpt>
      <trkpt lat="43.38886" lon="6.69298">
        <ele>194.2</ele>
        <time>2016-10-09T09:33:35Z</time>
      </trkpt>
      <trkpt lat="43.38884" lon="6.69296">
        <ele>194.9</ele>
        <time>2016-10-09T09:33:37Z</time>
      </trkpt>
      <trkpt lat="43.38881" lon="6.69295">
        <ele>195.2</ele>
        <time>2016-10-09T09:33:39Z</time>
      </trkpt>
      <trkpt lat="43.38879" lon="6.69294">
        <ele>195.5</ele>
        <time>2016-10-09T09:33:41Z</time>
      </trkpt>
      <trkpt lat="43.38876" lon="6.69293">
        <ele>195.9</ele>
        <time>2016-10-09T09:33:43Z</time>
      </trkpt>
      <trkpt lat="43.38874" lon="6.69291">
        <ele>196.3</ele>
        <time>2016-10-09T09:33:45Z</time>
      </trkpt>
      <trkpt lat="43.38872" lon="6.6929">
        <ele>196.6</ele>
        <time>2016-10-09T09:33:47Z</time>
      </trkpt>
      <trkpt lat="43.3887" lon="6.69288">
        <ele>196.8</ele>
        <time>2016-10-09T09:33:49Z</time>
      </trkpt>
      <trkpt lat="43.38868" lon="6.69287">
        <ele>197</ele>
        <time>2016-10-09T09:33:51Z</time>
      </trkpt>
      <trkpt lat="43.38866" lon="6.69286">
        <ele>197.3</ele>
        <time>2016-10-09T09:33:53Z</time>
      </trkpt>
      <trkpt lat="43.38863" lon="6.69285">
        <ele>197.7</ele>
        <time>2016-10-09T09:33:55Z</time>
      </trkpt>
      <trkpt lat="43.38861" lon="6.69283">
        <ele>198</ele>
        <time>2016-10-09T09:33:57Z</time>
      </trkpt>
      <trkpt lat="43.38858" lon="6.69282">
        <ele>198.2</ele>
        <time>2016-10-09T09:33:59Z</time>
      </trkpt>
      <trkpt lat="43.38856" lon="6.69281">
        <ele>198.4</ele>
        <time>2016-10-09T09:34:01Z</time>
      </trkpt>
      <trkpt lat="43.38854" lon="6.6928">
        <ele>198.7</ele>
        <time>2016-10-09T09:34:03Z</time>
      </trkpt>
      <trkpt lat="43.38852" lon="6.69279">
        <ele>199</ele>
        <time>2016-10-09T09:34:05Z</time>
      </trkpt>
      <trkpt lat="43.38849" lon="6.69277">
        <ele>199.2</ele>
        <time>2016-10-09T09:34:07Z</time>
      </trkpt>
      <trkpt lat="43.38847" lon="6.69276">
        <ele>199.5</ele>
        <time>2016-10-09T09:34:09Z</time>
      </trkpt>
      <trkpt lat="43.38845" lon="6.69275">
        <ele>199.7</ele>
        <time>2016-10-09T09:34:11Z</time>
      </trkpt>
      <trkpt lat="43.38842" lon="6.69273">
        <ele>200</ele>
        <time>2016-10-09T09:34:13Z</time>
      </trkpt>
      <trkpt lat="43.38841" lon="6.69272">
        <ele>200.2</ele>
        <time>2016-10-09T09:34:15Z</time>
      </trkpt>
      <trkpt lat="43.38838" lon="6.6927">
        <ele>200.5</ele>
        <time>2016-10-09T09:34:17Z</time>
      </trkpt>
      <trkpt lat="43.38836" lon="6.69269">
        <ele>200.8</ele>
        <time>2016-10-09T09:34:19Z</time>
      </trkpt>
      <trkpt lat="43.38834" lon="6.69268">
        <ele>201.1</ele>
        <time>2016-10-09T09:34:21Z</time>
      </trkpt>
      <trkpt lat="43.38831" lon="6.69265">
        <ele>201.3</ele>
        <time>2016-10-09T09:34:23Z</time>
      </trkpt>
      <trkpt lat="43.38828" lon="6.69263">
        <ele>201.5</ele>
        <time>2016-10-09T09:34:25Z</time>
      </trkpt>
      <trkpt lat="43.38826" lon="6.69262">
        <ele>201.7</ele>
        <time>2016-10-09T09:34:27Z</time>
      </trkpt>
      <trkpt lat="43.38824" lon="6.6926">
        <ele>201.9</ele>
        <time>2016-10-09T09:34:29Z</time>
      </trkpt>
      <trkpt lat="43.38822" lon="6.69259">
        <ele>202.1</ele>
        <time>2016-10-09T09:34:31Z</time>
      </trkpt>
      <trkpt lat="43.3882" lon="6.69256">
        <ele>202.4</ele>
        <time>2016-10-09T09:34:33Z</time>
      </trkpt>
      <trkpt lat="43.38818" lon="6.69254">
        <ele>202.6</ele>
        <time>2016-10-09T09:34:35Z</time>
      </trkpt>
      <trkpt lat="43.38817" lon="6.69251">
        <ele>202.8</ele>
        <time>2016-10-09T09:34:37Z</time>
      </trkpt>
      <trkpt lat="43.38815" lon="6.69249">
        <ele>203</ele>
        <time>2016-10-09T09:34:39Z</time>
      </trkpt>
      <trkpt lat="43.38813" lon="6.69246">
        <ele>203.2</ele>
        <time>2016-10-09T09:34:41Z</time>
      </trkpt>
      <trkpt lat="43.38811" lon="6.69243">
        <ele>203.5</ele>
        <time>2016-10-09T09:34:43Z</time>
      </trkpt>
      <trkpt lat="43.38809" lon="6.69241">
        <ele>203.7</ele>
        <time>2016-10-09T09:34:45Z</time>
      </trkpt>
      <trkpt lat="43.38808" lon="6.69238">
        <ele>204</ele>
        <time>2016-10-09T09:34:47Z</time>
      </trkpt>
      <trkpt lat="43.38806" lon="6.69235">
        <ele>204.2</ele>
        <time>2016-10-09T09:34:49Z</time>
      </trkpt>
      <trkpt lat="43.38805" lon="6.69232">
        <ele>204.4</ele>
        <time>2016-10-09T09:34:51Z</time>
      </trkpt>
      <trkpt lat="43.38803" lon="6.6923">
        <ele>204.5</ele>
        <time>2016-10-09T09:34:53Z</time>
      </trkpt>
      <trkpt lat="43.38801" lon="6.69227">
        <ele>204.6</ele>
        <time>2016-10-09T09:34:55Z</time>
      </trkpt>
      <trkpt lat="43.388" lon="6.69224">
        <ele>204.7</ele>
        <time>2016-10-09T09:34:57Z</time>
      </trkpt>
      <trkpt lat="43.38798" lon="6.69222">
        <ele>204.9</ele>
        <time>2016-10-09T09:34:59Z</time>
      </trkpt>
      <trkpt lat="43.38796" lon="6.6922">
        <ele>205.2</ele>
        <time>2016-10-09T09:35:01Z</time>
      </trkpt>
      <trkpt lat="43.38794" lon="6.69218">
        <ele>205.5</ele>
        <time>2016-10-09T09:35:03Z</time>
      </trkpt>
      <trkpt lat="43.38792" lon="6.69216">
        <ele>205.8</ele>
        <time>2016-10-09T09:35:05Z</time>
      </trkpt>
      <trkpt lat="43.38791" lon="6.69213">
        <ele>205.9</ele>
        <time>2016-10-09T09:35:07Z</time>
      </trkpt>
      <trkpt lat="43.38789" lon="6.69211">
        <ele>206.1</ele>
        <time>2016-10-09T09:35:09Z</time>
      </trkpt>
      <trkpt lat="43.38788" lon="6.69209">
        <ele>206.2</ele>
        <time>2016-10-09T09:35:11Z</time>
      </trkpt>
      <trkpt lat="43.38785" lon="6.69207">
        <ele>206.4</ele>
        <time>2016-10-09T09:35:13Z</time>
      </trkpt>
      <trkpt lat="43.38784" lon="6.69205">
        <ele>206.7</ele>
        <time>2016-10-09T09:35:15Z</time>
      </trkpt>
      <trkpt lat="43.38781" lon="6.69202">
        <ele>207</ele>
        <time>2016-10-09T09:35:17Z</time>
      </trkpt>
      <trkpt lat="43.38778" lon="6.692">
        <ele>207.4</ele>
        <time>2016-10-09T09:35:19Z</time>
      </trkpt>
      <trkpt lat="43.38775" lon="6.69198">
        <ele>207.8</ele>
        <time>2016-10-09T09:35:21Z</time>
      </trkpt>
      <trkpt lat="43.38773" lon="6.69196">
        <ele>208</ele>
        <time>2016-10-09T09:35:23Z</time>
      </trkpt>
      <trkpt lat="43.3877" lon="6.69194">
        <ele>208.3</ele>
        <time>2016-10-09T09:35:25Z</time>
      </trkpt>
      <trkpt lat="43.38768" lon="6.69191">
        <ele>208.5</ele>
        <time>2016-10-09T09:35:27Z</time>
      </trkpt>
      <trkpt lat="43.38766" lon="6.69189">
        <ele>208.8</ele>
        <time>2016-10-09T09:35:29Z</time>
      </trkpt>
      <trkpt lat="43.38763" lon="6.69186">
        <ele>208.9</ele>
        <time>2016-10-09T09:35:31Z</time>
      </trkpt>
      <trkpt lat="43.38761" lon="6.69183">
        <ele>209</ele>
        <time>2016-10-09T09:35:33Z</time>
      </trkpt>
      <trkpt lat="43.38759" lon="6.6918">
        <ele>209.2</ele>
        <time>2016-10-09T09:35:35Z</time>
      </trkpt>
      <trkpt lat="43.38756" lon="6.69178">
        <ele>209.3</ele>
        <time>2016-10-09T09:35:37Z</time>
      </trkpt>
      <trkpt lat="43.38754" lon="6.69175">
        <ele>209.5</ele>
        <time>2016-10-09T09:35:39Z</time>
      </trkpt>
      <trkpt lat="43.38752" lon="6.69172">
        <ele>209.8</ele>
        <time>2016-10-09T09:35:41Z</time>
      </trkpt>
      <trkpt lat="43.38749" lon="6.69169">
        <ele>210</ele>
        <time>2016-10-09T09:35:43Z</time>
      </trkpt>
      <trkpt lat="43.38747" lon="6.69166">
        <ele>210.3</ele>
        <time>2016-10-09T09:35:45Z</time>
      </trkpt>
      <trkpt lat="43.38744" lon="6.69163">
        <ele>210.4</ele>
        <time>2016-10-09T09:35:47Z</time>
      </trkpt>
      <trkpt lat="43.38741" lon="6.69161">
        <ele>210.4</ele>
        <time>2016-10-09T09:35:49Z</time>
      </trkpt>
      <trkpt lat="43.38739" lon="6.69158">
        <ele>210.5</ele>
        <time>2016-10-09T09:35:51Z</time>
      </trkpt>
      <trkpt lat="43.38735" lon="6.69156">
        <ele>210.6</ele>
        <time>2016-10-09T09:35:53Z</time>
      </trkpt>
      <trkpt lat="43.38733" lon="6.69154">
        <ele>210.7</ele>
        <time>2016-10-09T09:35:55Z</time>
      </trkpt>
      <trkpt lat="43.3873" lon="6.69152">
        <ele>210.7</ele>
        <time>2016-10-09T09:35:57Z</time>
      </trkpt>
      <trkpt lat="43.38727" lon="6.6915">
        <ele>210.8</ele>
        <time>2016-10-09T09:35:59Z</time>
      </trkpt>
      <trkpt lat="43.38724" lon="6.69148">
        <ele>211</ele>
        <time>2016-10-09T09:36:01Z</time>
      </trkpt>
      <trkpt lat="43.3872" lon="6.69146">
        <ele>211.1</ele>
        <time>2016-10-09T09:36:03Z</time>
      </trkpt>
      <trkpt lat="43.38717" lon="6.69143">
        <ele>211.3</ele>
        <time>2016-10-09T09:36:05Z</time>
      </trkpt>
      <trkpt lat="43.38715" lon="6.69141">
        <ele>211.5</ele>
        <time>2016-10-09T09:36:07Z</time>
      </trkpt>
      <trkpt lat="43.38714" lon="6.69139">
        <ele>211.6</ele>
        <time>2016-10-09T09:36:09Z</time>
      </trkpt>
      <trkpt lat="43.38714" lon="6.69136">
        <ele>212</ele>
        <time>2016-10-09T09:36:11Z</time>
      </trkpt>
      <trkpt lat="43.38714" lon="6.69132">
        <ele>212</ele>
        <time>2016-10-09T09:36:13Z</time>
      </trkpt>
      <trkpt lat="43.38716" lon="6.69129">
        <ele>212</ele>
        <time>2016-10-09T09:36:15Z</time>
      </trkpt>
      <trkpt lat="43.38718" lon="6.69128">
        <ele>212</ele>
        <time>2016-10-09T09:36:19Z</time>
      </trkpt>
      <trkpt lat="43.3872" lon="6.69126">
        <ele>212</ele>
        <time>2016-10-09T09:36:21Z</time>
      </trkpt>
      <trkpt lat="43.38721" lon="6.69125">
        <ele>212</ele>
        <time>2016-10-09T09:36:23Z</time>
      </trkpt>
      <trkpt lat="43.38721" lon="6.69123">
        <ele>212</ele>
        <time>2016-10-09T09:36:25Z</time>
      </trkpt>
      <trkpt lat="43.38722" lon="6.69121">
        <ele>212</ele>
        <time>2016-10-09T09:36:27Z</time>
      </trkpt>
      <trkpt lat="43.38723" lon="6.6912">
        <ele>212</ele>
        <time>2016-10-09T09:36:29Z</time>
      </trkpt>
      <trkpt lat="43.38725" lon="6.69118">
        <ele>212</ele>
        <time>2016-10-09T09:36:31Z</time>
      </trkpt>
      <trkpt lat="43.38726" lon="6.69117">
        <ele>212</ele>
        <time>2016-10-09T09:36:33Z</time>
      </trkpt>
      <trkpt lat="43.38728" lon="6.69116">
        <ele>212</ele>
        <time>2016-10-09T09:36:35Z</time>
      </trkpt>
      <trkpt lat="43.3873" lon="6.69114">
        <ele>213</ele>
        <time>2016-10-09T09:36:37Z</time>
      </trkpt>
      <trkpt lat="43.38731" lon="6.69113">
        <ele>213.6</ele>
        <time>2016-10-09T09:36:39Z</time>
      </trkpt>
      <trkpt lat="43.38733" lon="6.69111">
        <ele>214.4</ele>
        <time>2016-10-09T09:36:41Z</time>
      </trkpt>
      <trkpt lat="43.38735" lon="6.69111">
        <ele>215</ele>
        <time>2016-10-09T09:36:43Z</time>
      </trkpt>
      <trkpt lat="43.38736" lon="6.6911">
        <ele>215.6</ele>
        <time>2016-10-09T09:36:47Z</time>
      </trkpt>
      <trkpt lat="43.38738" lon="6.69109">
        <ele>216</ele>
        <time>2016-10-09T09:36:49Z</time>
      </trkpt>
      <trkpt lat="43.38739" lon="6.69108">
        <ele>216.8</ele>
        <time>2016-10-09T09:36:51Z</time>
      </trkpt>
      <trkpt lat="43.38742" lon="6.69107">
        <ele>217.6</ele>
        <time>2016-10-09T09:36:53Z</time>
      </trkpt>
      <trkpt lat="43.38744" lon="6.69107">
        <ele>218.5</ele>
        <time>2016-10-09T09:36:55Z</time>
      </trkpt>
      <trkpt lat="43.38747" lon="6.69108">
        <ele>219.5</ele>
        <time>2016-10-09T09:36:57Z</time>
      </trkpt>
      <trkpt lat="43.38749" lon="6.6911">
        <ele>220.6</ele>
        <time>2016-10-09T09:36:59Z</time>
      </trkpt>
      <trkpt lat="43.38752" lon="6.69112">
        <ele>221.8</ele>
        <time>2016-10-09T09:37:01Z</time>
      </trkpt>
      <trkpt lat="43.38755" lon="6.69114">
        <ele>222.3</ele>
        <time>2016-10-09T09:37:03Z</time>
      </trkpt>
      <trkpt lat="43.38758" lon="6.69117">
        <ele>222.5</ele>
        <time>2016-10-09T09:37:05Z</time>
      </trkpt>
      <trkpt lat="43.38761" lon="6.69119">
        <ele>222.5</ele>
        <time>2016-10-09T09:37:07Z</time>
      </trkpt>
      <trkpt lat="43.38764" lon="6.6912">
        <ele>222.4</ele>
        <time>2016-10-09T09:37:09Z</time>
      </trkpt>
      <trkpt lat="43.38768" lon="6.69122">
        <ele>222.3</ele>
        <time>2016-10-09T09:37:11Z</time>
      </trkpt>
      <trkpt lat="43.38771" lon="6.69123">
        <ele>222.4</ele>
        <time>2016-10-09T09:37:13Z</time>
      </trkpt>
      <trkpt lat="43.38774" lon="6.69123">
        <ele>222.5</ele>
        <time>2016-10-09T09:37:15Z</time>
      </trkpt>
      <trkpt lat="43.38776" lon="6.69124">
        <ele>222.6</ele>
        <time>2016-10-09T09:37:17Z</time>
      </trkpt>
      <trkpt lat="43.38779" lon="6.69124">
        <ele>222.5</ele>
        <time>2016-10-09T09:37:19Z</time>
      </trkpt>
      <trkpt lat="43.3878" lon="6.69125">
        <ele>222.5</ele>
        <time>2016-10-09T09:37:21Z</time>
      </trkpt>
      <trkpt lat="43.38783" lon="6.69125">
        <ele>222.5</ele>
        <time>2016-10-09T09:40:48Z</time>
      </trkpt>
      <trkpt lat="43.38787" lon="6.69127">
        <ele>222.3</ele>
        <time>2016-10-09T09:40:50Z</time>
      </trkpt>
      <trkpt lat="43.38792" lon="6.69131">
        <ele>222</ele>
        <time>2016-10-09T09:40:52Z</time>
      </trkpt>
      <trkpt lat="43.38796" lon="6.69134">
        <ele>222</ele>
        <time>2016-10-09T09:40:54Z</time>
      </trkpt>
      <trkpt lat="43.38801" lon="6.69139">
        <ele>222</ele>
        <time>2016-10-09T09:40:56Z</time>
      </trkpt>
      <trkpt lat="43.38806" lon="6.69142">
        <ele>221.9</ele>
        <time>2016-10-09T09:40:58Z</time>
      </trkpt>
      <trkpt lat="43.38811" lon="6.69141">
        <ele>221.8</ele>
        <time>2016-10-09T09:41:00Z</time>
      </trkpt>
      <trkpt lat="43.38814" lon="6.69138">
        <ele>221.6</ele>
        <time>2016-10-09T09:41:02Z</time>
      </trkpt>
      <trkpt lat="43.38817" lon="6.69134">
        <ele>221.6</ele>
        <time>2016-10-09T09:41:04Z</time>
      </trkpt>
      <trkpt lat="43.38822" lon="6.69131">
        <ele>221.4</ele>
        <time>2016-10-09T09:41:06Z</time>
      </trkpt>
      <trkpt lat="43.38828" lon="6.69127">
        <ele>221.3</ele>
        <time>2016-10-09T09:41:08Z</time>
      </trkpt>
      <trkpt lat="43.38834" lon="6.69122">
        <ele>221.1</ele>
        <time>2016-10-09T09:41:10Z</time>
      </trkpt>
      <trkpt lat="43.38841" lon="6.69117">
        <ele>220.9</ele>
        <time>2016-10-09T09:41:12Z</time>
      </trkpt>
      <trkpt lat="43.38849" lon="6.6911">
        <ele>220.5</ele>
        <time>2016-10-09T09:41:14Z</time>
      </trkpt>
      <trkpt lat="43.38858" lon="6.69103">
        <ele>220</ele>
        <time>2016-10-09T09:41:16Z</time>
      </trkpt>
      <trkpt lat="43.38866" lon="6.69097">
        <ele>219.4</ele>
        <time>2016-10-09T09:41:18Z</time>
      </trkpt>
      <trkpt lat="43.38877" lon="6.69092">
        <ele>218.6</ele>
        <time>2016-10-09T09:41:20Z</time>
      </trkpt>
      <trkpt lat="43.38887" lon="6.69083">
        <ele>217.7</ele>
        <time>2016-10-09T09:41:22Z</time>
      </trkpt>
      <trkpt lat="43.38897" lon="6.69073">
        <ele>216.6</ele>
        <time>2016-10-09T09:41:24Z</time>
      </trkpt>
      <trkpt lat="43.38907" lon="6.69065">
        <ele>215.4</ele>
        <time>2016-10-09T09:41:26Z</time>
      </trkpt>
      <trkpt lat="43.38918" lon="6.69058">
        <ele>214</ele>
        <time>2016-10-09T09:41:28Z</time>
      </trkpt>
      <trkpt lat="43.38932" lon="6.69052">
        <ele>212.3</ele>
        <time>2016-10-09T09:41:30Z</time>
      </trkpt>
      <trkpt lat="43.38945" lon="6.69048">
        <ele>210.6</ele>
        <time>2016-10-09T09:41:32Z</time>
      </trkpt>
      <trkpt lat="43.38958" lon="6.69046">
        <ele>208.8</ele>
        <time>2016-10-09T09:41:34Z</time>
      </trkpt>
      <trkpt lat="43.3897" lon="6.69043">
        <ele>206.8</ele>
        <time>2016-10-09T09:41:36Z</time>
      </trkpt>
      <trkpt lat="43.38982" lon="6.6904">
        <ele>204.6</ele>
        <time>2016-10-09T09:41:38Z</time>
      </trkpt>
      <trkpt lat="43.38994" lon="6.69036">
        <ele>202.7</ele>
        <time>2016-10-09T09:41:40Z</time>
      </trkpt>
      <trkpt lat="43.39007" lon="6.69031">
        <ele>200.7</ele>
        <time>2016-10-09T09:41:42Z</time>
      </trkpt>
      <trkpt lat="43.39021" lon="6.69025">
        <ele>198.3</ele>
        <time>2016-10-09T09:41:44Z</time>
      </trkpt>
      <trkpt lat="43.39033" lon="6.69019">
        <ele>196</ele>
        <time>2016-10-09T09:41:46Z</time>
      </trkpt>
      <trkpt lat="43.39043" lon="6.69014">
        <ele>193.3</ele>
        <time>2016-10-09T09:41:48Z</time>
      </trkpt>
      <trkpt lat="43.39053" lon="6.69005">
        <ele>190.2</ele>
        <time>2016-10-09T09:41:50Z</time>
      </trkpt>
      <trkpt lat="43.39065" lon="6.68999">
        <ele>187.5</ele>
        <time>2016-10-09T09:41:52Z</time>
      </trkpt>
      <trkpt lat="43.39074" lon="6.68996">
        <ele>185.1</ele>
        <time>2016-10-09T09:41:54Z</time>
      </trkpt>
      <trkpt lat="43.39082" lon="6.68992">
        <ele>182.8</ele>
        <time>2016-10-09T09:41:56Z</time>
      </trkpt>
      <trkpt lat="43.3909" lon="6.68986">
        <ele>180.4</ele>
        <time>2016-10-09T09:41:58Z</time>
      </trkpt>
      <trkpt lat="43.39096" lon="6.68975">
        <ele>177.8</ele>
        <time>2016-10-09T09:42:00Z</time>
      </trkpt>
      <trkpt lat="43.39101" lon="6.68964">
        <ele>175.2</ele>
        <time>2016-10-09T09:42:02Z</time>
      </trkpt>
      <trkpt lat="43.39107" lon="6.68955">
        <ele>173.1</ele>
        <time>2016-10-09T09:42:04Z</time>
      </trkpt>
      <trkpt lat="43.39114" lon="6.68949">
        <ele>171.3</ele>
        <time>2016-10-09T09:42:06Z</time>
      </trkpt>
      <trkpt lat="43.39122" lon="6.68949">
        <ele>169.5</ele>
        <time>2016-10-09T09:42:08Z</time>
      </trkpt>
      <trkpt lat="43.39132" lon="6.68951">
        <ele>167.7</ele>
        <time>2016-10-09T09:42:10Z</time>
      </trkpt>
      <trkpt lat="43.39142" lon="6.68953">
        <ele>165.7</ele>
        <time>2016-10-09T09:42:12Z</time>
      </trkpt>
      <trkpt lat="43.39149" lon="6.68952">
        <ele>164.4</ele>
        <time>2016-10-09T09:42:14Z</time>
      </trkpt>
      <trkpt lat="43.39155" lon="6.68945">
        <ele>163.1</ele>
        <time>2016-10-09T09:42:16Z</time>
      </trkpt>
      <trkpt lat="43.39163" lon="6.68937">
        <ele>161.6</ele>
        <time>2016-10-09T09:42:18Z</time>
      </trkpt>
      <trkpt lat="43.39172" lon="6.68929">
        <ele>160.1</ele>
        <time>2016-10-09T09:42:20Z</time>
      </trkpt>
      <trkpt lat="43.39182" lon="6.68923">
        <ele>158.7</ele>
        <time>2016-10-09T09:42:22Z</time>
      </trkpt>
      <trkpt lat="43.39193" lon="6.68921">
        <ele>157.5</ele>
        <time>2016-10-09T09:42:24Z</time>
      </trkpt>
      <trkpt lat="43.39203" lon="6.6892">
        <ele>156.6</ele>
        <time>2016-10-09T09:42:26Z</time>
      </trkpt>
      <trkpt lat="43.39216" lon="6.68919">
        <ele>155.5</ele>
        <time>2016-10-09T09:42:28Z</time>
      </trkpt>
      <trkpt lat="43.39232" lon="6.68918">
        <ele>154.1</ele>
        <time>2016-10-09T09:42:30Z</time>
      </trkpt>
      <trkpt lat="43.39245" lon="6.68919">
        <ele>152.8</ele>
        <time>2016-10-09T09:42:32Z</time>
      </trkpt>
      <trkpt lat="43.39254" lon="6.6892">
        <ele>151.6</ele>
        <time>2016-10-09T09:42:34Z</time>
      </trkpt>
      <trkpt lat="43.39263" lon="6.68922">
        <ele>150.1</ele>
        <time>2016-10-09T09:42:36Z</time>
      </trkpt>
      <trkpt lat="43.39273" lon="6.6892">
        <ele>148.4</ele>
        <time>2016-10-09T09:42:38Z</time>
      </trkpt>
      <trkpt lat="43.39283" lon="6.68916">
        <ele>146.6</ele>
        <time>2016-10-09T09:42:40Z</time>
      </trkpt>
      <trkpt lat="43.39292" lon="6.6891">
        <ele>144.9</ele>
        <time>2016-10-09T09:42:42Z</time>
      </trkpt>
      <trkpt lat="43.39302" lon="6.68904">
        <ele>143.3</ele>
        <time>2016-10-09T09:42:44Z</time>
      </trkpt>
      <trkpt lat="43.39311" lon="6.68897">
        <ele>141.7</ele>
        <time>2016-10-09T09:42:46Z</time>
      </trkpt>
      <trkpt lat="43.39321" lon="6.6889">
        <ele>139.9</ele>
        <time>2016-10-09T09:42:48Z</time>
      </trkpt>
      <trkpt lat="43.3933" lon="6.68887">
        <ele>138.4</ele>
        <time>2016-10-09T09:42:50Z</time>
      </trkpt>
      <trkpt lat="43.39339" lon="6.68889">
        <ele>136.9</ele>
        <time>2016-10-09T09:42:52Z</time>
      </trkpt>
      <trkpt lat="43.3935" lon="6.68893">
        <ele>135</ele>
        <time>2016-10-09T09:42:54Z</time>
      </trkpt>
      <trkpt lat="43.39363" lon="6.68898">
        <ele>133.2</ele>
        <time>2016-10-09T09:42:56Z</time>
      </trkpt>
      <trkpt lat="43.39375" lon="6.68903">
        <ele>131.6</ele>
        <time>2016-10-09T09:42:58Z</time>
      </trkpt>
      <trkpt lat="43.39388" lon="6.68908">
        <ele>130</ele>
        <time>2016-10-09T09:43:00Z</time>
      </trkpt>
      <trkpt lat="43.394" lon="6.68913">
        <ele>128.5</ele>
        <time>2016-10-09T09:43:02Z</time>
      </trkpt>
      <trkpt lat="43.39411" lon="6.6892">
        <ele>127</ele>
        <time>2016-10-09T09:43:04Z</time>
      </trkpt>
      <trkpt lat="43.39421" lon="6.68926">
        <ele>125.5</ele>
        <time>2016-10-09T09:43:06Z</time>
      </trkpt>
      <trkpt lat="43.39431" lon="6.68929">
        <ele>123.7</ele>
        <time>2016-10-09T09:43:08Z</time>
      </trkpt>
      <trkpt lat="43.39441" lon="6.68926">
        <ele>121.8</ele>
        <time>2016-10-09T09:43:10Z</time>
      </trkpt>
      <trkpt lat="43.39451" lon="6.68918">
        <ele>119.4</ele>
        <time>2016-10-09T09:43:12Z</time>
      </trkpt>
      <trkpt lat="43.3946" lon="6.6891">
        <ele>116.9</ele>
        <time>2016-10-09T09:43:14Z</time>
      </trkpt>
      <trkpt lat="43.39471" lon="6.68902">
        <ele>114.6</ele>
        <time>2016-10-09T09:43:16Z</time>
      </trkpt>
      <trkpt lat="43.39481" lon="6.68894">
        <ele>112.5</ele>
        <time>2016-10-09T09:43:18Z</time>
      </trkpt>
      <trkpt lat="43.39491" lon="6.68888">
        <ele>110.9</ele>
        <time>2016-10-09T09:43:20Z</time>
      </trkpt>
      <trkpt lat="43.39502" lon="6.6888">
        <ele>109.1</ele>
        <time>2016-10-09T09:43:22Z</time>
      </trkpt>
      <trkpt lat="43.39512" lon="6.6887">
        <ele>107.1</ele>
        <time>2016-10-09T09:43:24Z</time>
      </trkpt>
      <trkpt lat="43.3952" lon="6.68857">
        <ele>105.2</ele>
        <time>2016-10-09T09:43:26Z</time>
      </trkpt>
      <trkpt lat="43.39526" lon="6.68844">
        <ele>103.4</ele>
        <time>2016-10-09T09:43:28Z</time>
      </trkpt>
      <trkpt lat="43.3953" lon="6.68831">
        <ele>101.7</ele>
        <time>2016-10-09T09:43:30Z</time>
      </trkpt>
      <trkpt lat="43.39528" lon="6.6882">
        <ele>101</ele>
        <time>2016-10-09T09:43:32Z</time>
      </trkpt>
      <trkpt lat="43.39523" lon="6.68809">
        <ele>100.9</ele>
        <time>2016-10-09T09:43:34Z</time>
      </trkpt>
      <trkpt lat="43.39519" lon="6.68798">
        <ele>100.8</ele>
        <time>2016-10-09T09:43:36Z</time>
      </trkpt>
      <trkpt lat="43.39514" lon="6.68787">
        <ele>100.7</ele>
        <time>2016-10-09T09:43:38Z</time>
      </trkpt>
      <trkpt lat="43.39507" lon="6.68778">
        <ele>100.4</ele>
        <time>2016-10-09T09:43:40Z</time>
      </trkpt>
      <trkpt lat="43.39499" lon="6.68769">
        <ele>100.3</ele>
        <time>2016-10-09T09:43:42Z</time>
      </trkpt>
      <trkpt lat="43.3949" lon="6.68759">
        <ele>100.2</ele>
        <time>2016-10-09T09:43:44Z</time>
      </trkpt>
      <trkpt lat="43.39481" lon="6.68747">
        <ele>100</ele>
        <time>2016-10-09T09:43:46Z</time>
      </trkpt>
      <trkpt lat="43.39473" lon="6.68732">
        <ele>100</ele>
        <time>2016-10-09T09:43:48Z</time>
      </trkpt>
      <trkpt lat="43.39468" lon="6.68716">
        <ele>100</ele>
        <time>2016-10-09T09:43:50Z</time>
      </trkpt>
      <trkpt lat="43.39464" lon="6.68703">
        <ele>100</ele>
        <time>2016-10-09T09:43:52Z</time>
      </trkpt>
      <trkpt lat="43.39463" lon="6.6869">
        <ele>100</ele>
        <time>2016-10-09T09:43:54Z</time>
      </trkpt>
      <trkpt lat="43.39464" lon="6.68675">
        <ele>98.7</ele>
        <time>2016-10-09T09:43:56Z</time>
      </trkpt>
      <trkpt lat="43.39465" lon="6.68657">
        <ele>97.3</ele>
        <time>2016-10-09T09:43:58Z</time>
      </trkpt>
      <trkpt lat="43.39468" lon="6.68637">
        <ele>95.6</ele>
        <time>2016-10-09T09:44:00Z</time>
      </trkpt>
      <trkpt lat="43.39472" lon="6.68614">
        <ele>93</ele>
        <time>2016-10-09T09:44:02Z</time>
      </trkpt>
      <trkpt lat="43.39476" lon="6.6859">
        <ele>90.3</ele>
        <time>2016-10-09T09:44:04Z</time>
      </trkpt>
      <trkpt lat="43.39479" lon="6.68568">
        <ele>87.8</ele>
        <time>2016-10-09T09:44:06Z</time>
      </trkpt>
      <trkpt lat="43.3948" lon="6.6855">
        <ele>85.7</ele>
        <time>2016-10-09T09:44:08Z</time>
      </trkpt>
      <trkpt lat="43.39476" lon="6.68538">
        <ele>84.2</ele>
        <time>2016-10-09T09:44:10Z</time>
      </trkpt>
      <trkpt lat="43.39467" lon="6.68529">
        <ele>82.9</ele>
        <time>2016-10-09T09:44:12Z</time>
      </trkpt>
      <trkpt lat="43.39456" lon="6.68525">
        <ele>81.7</ele>
        <time>2016-10-09T09:44:14Z</time>
      </trkpt>
      <trkpt lat="43.39447" lon="6.68523">
        <ele>80.8</ele>
        <time>2016-10-09T09:44:16Z</time>
      </trkpt>
      <trkpt lat="43.39436" lon="6.68513">
        <ele>79.7</ele>
        <time>2016-10-09T09:44:18Z</time>
      </trkpt>
      <trkpt lat="43.39425" lon="6.68498">
        <ele>78.5</ele>
        <time>2016-10-09T09:44:20Z</time>
      </trkpt>
      <trkpt lat="43.39413" lon="6.68484">
        <ele>77.3</ele>
        <time>2016-10-09T09:44:22Z</time>
      </trkpt>
      <trkpt lat="43.39401" lon="6.68466">
        <ele>76.1</ele>
        <time>2016-10-09T09:44:24Z</time>
      </trkpt>
      <trkpt lat="43.39391" lon="6.68445">
        <ele>74.9</ele>
        <time>2016-10-09T09:44:26Z</time>
      </trkpt>
      <trkpt lat="43.39383" lon="6.6843">
        <ele>74</ele>
        <time>2016-10-09T09:44:28Z</time>
      </trkpt>
      <trkpt lat="43.39373" lon="6.68421">
        <ele>73.1</ele>
        <time>2016-10-09T09:44:30Z</time>
      </trkpt>
      <trkpt lat="43.39366" lon="6.68408">
        <ele>72.2</ele>
        <time>2016-10-09T09:44:32Z</time>
      </trkpt>
      <trkpt lat="43.39362" lon="6.6839">
        <ele>71.1</ele>
        <time>2016-10-09T09:44:34Z</time>
      </trkpt>
      <trkpt lat="43.3936" lon="6.68374">
        <ele>70.2</ele>
        <time>2016-10-09T09:44:36Z</time>
      </trkpt>
      <trkpt lat="43.39354" lon="6.68362">
        <ele>69.4</ele>
        <time>2016-10-09T09:44:38Z</time>
      </trkpt>
      <trkpt lat="43.3935" lon="6.68349">
        <ele>69.5</ele>
        <time>2016-10-09T09:44:40Z</time>
      </trkpt>
      <trkpt lat="43.39345" lon="6.6834">
        <ele>70.4</ele>
        <time>2016-10-09T09:44:42Z</time>
      </trkpt>
      <trkpt lat="43.39338" lon="6.68338">
        <ele>71.4</ele>
        <time>2016-10-09T09:44:44Z</time>
      </trkpt>
      <trkpt lat="43.39334" lon="6.6834">
        <ele>72.2</ele>
        <time>2016-10-09T09:44:46Z</time>
      </trkpt>
      <trkpt lat="43.3933" lon="6.68341">
        <ele>73</ele>
        <time>2016-10-09T09:44:48Z</time>
      </trkpt>
      <trkpt lat="43.39325" lon="6.6834">
        <ele>74</ele>
        <time>2016-10-09T09:44:50Z</time>
      </trkpt>
      <trkpt lat="43.3932" lon="6.68339">
        <ele>75.5</ele>
        <time>2016-10-09T09:44:52Z</time>
      </trkpt>
      <trkpt lat="43.39314" lon="6.68337">
        <ele>77.5</ele>
        <time>2016-10-09T09:44:54Z</time>
      </trkpt>
      <trkpt lat="43.39308" lon="6.6833">
        <ele>79.3</ele>
        <time>2016-10-09T09:44:56Z</time>
      </trkpt>
      <trkpt lat="43.39307" lon="6.6832">
        <ele>80.9</ele>
        <time>2016-10-09T09:44:58Z</time>
      </trkpt>
      <trkpt lat="43.39309" lon="6.68312">
        <ele>80.8</ele>
        <time>2016-10-09T09:45:00Z</time>
      </trkpt>
      <trkpt lat="43.39314" lon="6.68302">
        <ele>80.5</ele>
        <time>2016-10-09T09:45:02Z</time>
      </trkpt>
      <trkpt lat="43.39316" lon="6.68292">
        <ele>80.3</ele>
        <time>2016-10-09T09:45:04Z</time>
      </trkpt>
      <trkpt lat="43.39316" lon="6.68282">
        <ele>80.1</ele>
        <time>2016-10-09T09:45:06Z</time>
      </trkpt>
      <trkpt lat="43.39315" lon="6.68276">
        <ele>79.9</ele>
        <time>2016-10-09T09:45:08Z</time>
      </trkpt>
      <trkpt lat="43.39313" lon="6.68273">
        <ele>79.8</ele>
        <time>2016-10-09T09:45:10Z</time>
      </trkpt>
      <trkpt lat="43.39311" lon="6.68269">
        <ele>79.7</ele>
        <time>2016-10-09T09:45:12Z</time>
      </trkpt>
      <trkpt lat="43.39309" lon="6.68266">
        <ele>79.6</ele>
        <time>2016-10-09T09:45:14Z</time>
      </trkpt>
      <trkpt lat="43.39307" lon="6.68263">
        <ele>79.5</ele>
        <time>2016-10-09T09:45:16Z</time>
      </trkpt>
      <trkpt lat="43.39304" lon="6.68261">
        <ele>79.4</ele>
        <time>2016-10-09T09:45:18Z</time>
      </trkpt>
      <trkpt lat="43.39302" lon="6.68259">
        <ele>79.2</ele>
        <time>2016-10-09T09:45:20Z</time>
      </trkpt>
      <trkpt lat="43.39299" lon="6.68256">
        <ele>79</ele>
        <time>2016-10-09T09:45:22Z</time>
      </trkpt>
      <trkpt lat="43.39296" lon="6.68254">
        <ele>78.7</ele>
        <time>2016-10-09T09:45:24Z</time>
      </trkpt>
      <trkpt lat="43.39294" lon="6.68252">
        <ele>78.6</ele>
        <time>2016-10-09T09:45:26Z</time>
      </trkpt>
      <trkpt lat="43.39291" lon="6.6825">
        <ele>78.4</ele>
        <time>2016-10-09T09:45:28Z</time>
      </trkpt>
      <trkpt lat="43.39287" lon="6.68248">
        <ele>78.2</ele>
        <time>2016-10-09T09:45:30Z</time>
      </trkpt>
      <trkpt lat="43.39285" lon="6.68245">
        <ele>77.9</ele>
        <time>2016-10-09T09:45:32Z</time>
      </trkpt>
      <trkpt lat="43.39282" lon="6.68243">
        <ele>77.6</ele>
        <time>2016-10-09T09:45:34Z</time>
      </trkpt>
      <trkpt lat="43.39278" lon="6.68241">
        <ele>77.4</ele>
        <time>2016-10-09T09:45:36Z</time>
      </trkpt>
      <trkpt lat="43.39275" lon="6.68239">
        <ele>77.2</ele>
        <time>2016-10-09T09:45:38Z</time>
      </trkpt>
      <trkpt lat="43.39273" lon="6.68237">
        <ele>77</ele>
        <time>2016-10-09T09:45:40Z</time>
      </trkpt>
      <trkpt lat="43.39273" lon="6.68232">
        <ele>77</ele>
        <time>2016-10-09T09:45:42Z</time>
      </trkpt>
      <trkpt lat="43.39273" lon="6.68225">
        <ele>77</ele>
        <time>2016-10-09T09:45:44Z</time>
      </trkpt>
      <trkpt lat="43.39271" lon="6.68218">
        <ele>77</ele>
        <time>2016-10-09T09:45:46Z</time>
      </trkpt>
      <trkpt lat="43.3927" lon="6.6821">
        <ele>77</ele>
        <time>2016-10-09T09:45:48Z</time>
      </trkpt>
      <trkpt lat="43.39272" lon="6.68202">
        <ele>77</ele>
        <time>2016-10-09T09:45:50Z</time>
      </trkpt>
      <trkpt lat="43.39274" lon="6.68192">
        <ele>77</ele>
        <time>2016-10-09T09:45:52Z</time>
      </trkpt>
      <trkpt lat="43.39277" lon="6.68183">
        <ele>77</ele>
        <time>2016-10-09T09:45:54Z</time>
      </trkpt>
      <trkpt lat="43.39279" lon="6.68176">
        <ele>77.1</ele>
        <time>2016-10-09T09:45:56Z</time>
      </trkpt>
      <trkpt lat="43.39282" lon="6.68169">
        <ele>77.1</ele>
        <time>2016-10-09T09:45:58Z</time>
      </trkpt>
      <trkpt lat="43.39285" lon="6.68164">
        <ele>77.2</ele>
        <time>2016-10-09T09:46:00Z</time>
      </trkpt>
      <trkpt lat="43.39287" lon="6.68158">
        <ele>77.3</ele>
        <time>2016-10-09T09:46:02Z</time>
      </trkpt>
      <trkpt lat="43.3929" lon="6.68152">
        <ele>77.3</ele>
        <time>2016-10-09T09:46:04Z</time>
      </trkpt>
      <trkpt lat="43.39293" lon="6.68145">
        <ele>77.6</ele>
        <time>2016-10-09T09:46:06Z</time>
      </trkpt>
      <trkpt lat="43.39297" lon="6.68138">
        <ele>77.9</ele>
        <time>2016-10-09T09:46:08Z</time>
      </trkpt>
      <trkpt lat="43.39301" lon="6.68131">
        <ele>78.1</ele>
        <time>2016-10-09T09:46:10Z</time>
      </trkpt>
      <trkpt lat="43.39306" lon="6.68126">
        <ele>78.5</ele>
        <time>2016-10-09T09:46:12Z</time>
      </trkpt>
      <trkpt lat="43.3931" lon="6.68121">
        <ele>79</ele>
        <time>2016-10-09T09:46:14Z</time>
      </trkpt>
      <trkpt lat="43.39313" lon="6.68117">
        <ele>79.4</ele>
        <time>2016-10-09T09:46:16Z</time>
      </trkpt>
      <trkpt lat="43.39316" lon="6.68113">
        <ele>79.9</ele>
        <time>2016-10-09T09:46:18Z</time>
      </trkpt>
      <trkpt lat="43.39318" lon="6.6811">
        <ele>80.2</ele>
        <time>2016-10-09T09:46:20Z</time>
      </trkpt>
      <trkpt lat="43.39319" lon="6.68107">
        <ele>80.5</ele>
        <time>2016-10-09T09:46:22Z</time>
      </trkpt>
      <trkpt lat="43.39322" lon="6.68103">
        <ele>81</ele>
        <time>2016-10-09T09:46:24Z</time>
      </trkpt>
      <trkpt lat="43.39323" lon="6.68099">
        <ele>81.1</ele>
        <time>2016-10-09T09:46:26Z</time>
      </trkpt>
      <trkpt lat="43.39325" lon="6.68091">
        <ele>81.5</ele>
        <time>2016-10-09T09:46:30Z</time>
      </trkpt>
      <trkpt lat="43.39325" lon="6.68086">
        <ele>81.7</ele>
        <time>2016-10-09T09:46:32Z</time>
      </trkpt>
      <trkpt lat="43.39324" lon="6.68082">
        <ele>81.9</ele>
        <time>2016-10-09T09:46:34Z</time>
      </trkpt>
      <trkpt lat="43.39324" lon="6.68078">
        <ele>82.3</ele>
        <time>2016-10-09T09:46:36Z</time>
      </trkpt>
      <trkpt lat="43.39324" lon="6.68073">
        <ele>82.8</ele>
        <time>2016-10-09T09:46:38Z</time>
      </trkpt>
      <trkpt lat="43.39325" lon="6.68068">
        <ele>83.2</ele>
        <time>2016-10-09T09:46:40Z</time>
      </trkpt>
      <trkpt lat="43.39324" lon="6.68063">
        <ele>83.6</ele>
        <time>2016-10-09T09:46:42Z</time>
      </trkpt>
      <trkpt lat="43.39324" lon="6.68057">
        <ele>84.1</ele>
        <time>2016-10-09T09:46:44Z</time>
      </trkpt>
      <trkpt lat="43.39324" lon="6.68049">
        <ele>84.6</ele>
        <time>2016-10-09T09:46:46Z</time>
      </trkpt>
      <trkpt lat="43.39324" lon="6.68042">
        <ele>85.3</ele>
        <time>2016-10-09T09:46:48Z</time>
      </trkpt>
      <trkpt lat="43.39324" lon="6.68036">
        <ele>85.8</ele>
        <time>2016-10-09T09:46:50Z</time>
      </trkpt>
      <trkpt lat="43.39325" lon="6.68029">
        <ele>86</ele>
        <time>2016-10-09T09:46:52Z</time>
      </trkpt>
      <trkpt lat="43.39329" lon="6.68024">
        <ele>86.2</ele>
        <time>2016-10-09T09:46:54Z</time>
      </trkpt>
      <trkpt lat="43.39332" lon="6.68014">
        <ele>86.3</ele>
        <time>2016-10-09T09:46:56Z</time>
      </trkpt>
      <trkpt lat="43.39332" lon="6.68004">
        <ele>86.4</ele>
        <time>2016-10-09T09:46:58Z</time>
      </trkpt>
      <trkpt lat="43.39332" lon="6.67996">
        <ele>86.4</ele>
        <time>2016-10-09T09:47:00Z</time>
      </trkpt>
      <trkpt lat="43.39331" lon="6.67984">
        <ele>86.3</ele>
        <time>2016-10-09T09:47:03Z</time>
      </trkpt>
      <trkpt lat="43.3933" lon="6.67977">
        <ele>86.3</ele>
        <time>2016-10-09T09:47:05Z</time>
      </trkpt>
      <trkpt lat="43.39329" lon="6.67973">
        <ele>86.3</ele>
        <time>2016-10-09T09:47:07Z</time>
      </trkpt>
      <trkpt lat="43.39327" lon="6.67969">
        <ele>86.2</ele>
        <time>2016-10-09T09:47:29Z</time>
      </trkpt>
      <trkpt lat="43.39324" lon="6.67962">
        <ele>86.1</ele>
        <time>2016-10-09T09:47:31Z</time>
      </trkpt>
      <trkpt lat="43.39321" lon="6.67954">
        <ele>85.7</ele>
        <time>2016-10-09T09:47:33Z</time>
      </trkpt>
      <trkpt lat="43.39319" lon="6.67947">
        <ele>85.3</ele>
        <time>2016-10-09T09:47:35Z</time>
      </trkpt>
      <trkpt lat="43.39317" lon="6.67941">
        <ele>84.9</ele>
        <time>2016-10-09T09:47:37Z</time>
      </trkpt>
      <trkpt lat="43.39317" lon="6.67936">
        <ele>84.6</ele>
        <time>2016-10-09T09:47:39Z</time>
      </trkpt>
      <trkpt lat="43.39315" lon="6.67931">
        <ele>84.2</ele>
        <time>2016-10-09T09:47:41Z</time>
      </trkpt>
      <trkpt lat="43.39315" lon="6.67924">
        <ele>83.7</ele>
        <time>2016-10-09T09:47:43Z</time>
      </trkpt>
      <trkpt lat="43.39312" lon="6.67918">
        <ele>83.1</ele>
        <time>2016-10-09T09:47:45Z</time>
      </trkpt>
      <trkpt lat="43.39311" lon="6.67911">
        <ele>82.6</ele>
        <time>2016-10-09T09:47:47Z</time>
      </trkpt>
      <trkpt lat="43.39309" lon="6.67907">
        <ele>82.2</ele>
        <time>2016-10-09T09:47:49Z</time>
      </trkpt>
      <trkpt lat="43.39309" lon="6.67905">
        <ele>82</ele>
        <time>2016-10-09T09:47:51Z</time>
      </trkpt>
      <trkpt lat="43.39309" lon="6.67901">
        <ele>81.6</ele>
        <time>2016-10-09T09:47:57Z</time>
      </trkpt>
      <trkpt lat="43.39308" lon="6.67899">
        <ele>81.4</ele>
        <time>2016-10-09T09:47:59Z</time>
      </trkpt>
      <trkpt lat="43.39307" lon="6.67896">
        <ele>81.2</ele>
        <time>2016-10-09T09:48:01Z</time>
      </trkpt>
      <trkpt lat="43.39306" lon="6.67894">
        <ele>80.9</ele>
        <time>2016-10-09T09:48:03Z</time>
      </trkpt>
      <trkpt lat="43.39305" lon="6.67893">
        <ele>80.7</ele>
        <time>2016-10-09T09:48:05Z</time>
      </trkpt>
      <trkpt lat="43.39303" lon="6.6789">
        <ele>80.3</ele>
        <time>2016-10-09T09:48:09Z</time>
      </trkpt>
      <trkpt lat="43.39302" lon="6.67889">
        <ele>80.2</ele>
        <time>2016-10-09T09:48:11Z</time>
      </trkpt>
      <trkpt lat="43.39302" lon="6.67887">
        <ele>80</ele>
        <time>2016-10-09T09:48:13Z</time>
      </trkpt>
      <trkpt lat="43.39301" lon="6.67885">
        <ele>79.7</ele>
        <time>2016-10-09T09:48:15Z</time>
      </trkpt>
      <trkpt lat="43.393" lon="6.67883">
        <ele>79.5</ele>
        <time>2016-10-09T09:48:17Z</time>
      </trkpt>
      <trkpt lat="43.393" lon="6.67881">
        <ele>79.1</ele>
        <time>2016-10-09T09:48:19Z</time>
      </trkpt>
      <trkpt lat="43.393" lon="6.67878">
        <ele>78.8</ele>
        <time>2016-10-09T09:48:21Z</time>
      </trkpt>
      <trkpt lat="43.39301" lon="6.67874">
        <ele>78.4</ele>
        <time>2016-10-09T09:48:23Z</time>
      </trkpt>
      <trkpt lat="43.39302" lon="6.67872">
        <ele>78</ele>
        <time>2016-10-09T09:48:25Z</time>
      </trkpt>
      <trkpt lat="43.39302" lon="6.67869">
        <ele>77.7</ele>
        <time>2016-10-09T09:48:27Z</time>
      </trkpt>
      <trkpt lat="43.39304" lon="6.67866">
        <ele>77.1</ele>
        <time>2016-10-09T09:48:29Z</time>
      </trkpt>
      <trkpt lat="43.39306" lon="6.67864">
        <ele>76.7</ele>
        <time>2016-10-09T09:48:31Z</time>
      </trkpt>
      <trkpt lat="43.39308" lon="6.67862">
        <ele>76.3</ele>
        <time>2016-10-09T09:48:33Z</time>
      </trkpt>
      <trkpt lat="43.39309" lon="6.67861">
        <ele>76.1</ele>
        <time>2016-10-09T09:48:35Z</time>
      </trkpt>
      <trkpt lat="43.39311" lon="6.67858">
        <ele>75.8</ele>
        <time>2016-10-09T09:48:37Z</time>
      </trkpt>
      <trkpt lat="43.39312" lon="6.67854">
        <ele>75.3</ele>
        <time>2016-10-09T09:48:41Z</time>
      </trkpt>
      <trkpt lat="43.39314" lon="6.67852">
        <ele>75</ele>
        <time>2016-10-09T09:48:43Z</time>
      </trkpt>
      <trkpt lat="43.39315" lon="6.67851">
        <ele>74.7</ele>
        <time>2016-10-09T09:48:45Z</time>
      </trkpt>
      <trkpt lat="43.39317" lon="6.67849">
        <ele>74.4</ele>
        <time>2016-10-09T09:48:47Z</time>
      </trkpt>
      <trkpt lat="43.39317" lon="6.67847">
        <ele>74.2</ele>
        <time>2016-10-09T09:48:49Z</time>
      </trkpt>
      <trkpt lat="43.39318" lon="6.67845">
        <ele>73.8</ele>
        <time>2016-10-09T09:48:51Z</time>
      </trkpt>
      <trkpt lat="43.39317" lon="6.67843">
        <ele>73.4</ele>
        <time>2016-10-09T09:48:56Z</time>
      </trkpt>
      <trkpt lat="43.39317" lon="6.67841">
        <ele>73</ele>
        <time>2016-10-09T09:48:58Z</time>
      </trkpt>
      <trkpt lat="43.39317" lon="6.67838">
        <ele>72.3</ele>
        <time>2016-10-09T09:49:00Z</time>
      </trkpt>
      <trkpt lat="43.39317" lon="6.67835">
        <ele>71.8</ele>
        <time>2016-10-09T09:49:02Z</time>
      </trkpt>
      <trkpt lat="43.39318" lon="6.6783">
        <ele>70</ele>
        <time>2016-10-09T09:49:12Z</time>
      </trkpt>
      <trkpt lat="43.39319" lon="6.67826">
        <ele>69.4</ele>
        <time>2016-10-09T09:49:14Z</time>
      </trkpt>
      <trkpt lat="43.39319" lon="6.67825">
        <ele>69.1</ele>
        <time>2016-10-09T09:49:16Z</time>
      </trkpt>
      <trkpt lat="43.39317" lon="6.67822">
        <ele>68.7</ele>
        <time>2016-10-09T09:49:18Z</time>
      </trkpt>
      <trkpt lat="43.39316" lon="6.67819">
        <ele>68.3</ele>
        <time>2016-10-09T09:49:20Z</time>
      </trkpt>
      <trkpt lat="43.39314" lon="6.67817">
        <ele>67.9</ele>
        <time>2016-10-09T09:49:22Z</time>
      </trkpt>
      <trkpt lat="43.39312" lon="6.67814">
        <ele>67.6</ele>
        <time>2016-10-09T09:49:24Z</time>
      </trkpt>
      <trkpt lat="43.39311" lon="6.67812">
        <ele>67.2</ele>
        <time>2016-10-09T09:49:26Z</time>
      </trkpt>
      <trkpt lat="43.39311" lon="6.6781">
        <ele>66.9</ele>
        <time>2016-10-09T09:49:28Z</time>
      </trkpt>
      <trkpt lat="43.39311" lon="6.67808">
        <ele>66.6</ele>
        <time>2016-10-09T09:49:30Z</time>
      </trkpt>
      <trkpt lat="43.3931" lon="6.67805">
        <ele>66.2</ele>
        <time>2016-10-09T09:49:32Z</time>
      </trkpt>
      <trkpt lat="43.3931" lon="6.67801">
        <ele>65.7</ele>
        <time>2016-10-09T09:49:34Z</time>
      </trkpt>
      <trkpt lat="43.3931" lon="6.67798">
        <ele>65.3</ele>
        <time>2016-10-09T09:49:36Z</time>
      </trkpt>
      <trkpt lat="43.39311" lon="6.67795">
        <ele>64.9</ele>
        <time>2016-10-09T09:49:38Z</time>
      </trkpt>
      <trkpt lat="43.39312" lon="6.67792">
        <ele>64.5</ele>
        <time>2016-10-09T09:49:40Z</time>
      </trkpt>
      <trkpt lat="43.39313" lon="6.6779">
        <ele>64.2</ele>
        <time>2016-10-09T09:49:42Z</time>
      </trkpt>
      <trkpt lat="43.39315" lon="6.67788">
        <ele>63.6</ele>
        <time>2016-10-09T09:49:46Z</time>
      </trkpt>
      <trkpt lat="43.39317" lon="6.67786">
        <ele>63.1</ele>
        <time>2016-10-09T09:49:48Z</time>
      </trkpt>
      <trkpt lat="43.3932" lon="6.67784">
        <ele>62.5</ele>
        <time>2016-10-09T09:49:52Z</time>
      </trkpt>
      <trkpt lat="43.39323" lon="6.67782">
        <ele>61.8</ele>
        <time>2016-10-09T09:49:54Z</time>
      </trkpt>
      <trkpt lat="43.39325" lon="6.6778">
        <ele>61</ele>
        <time>2016-10-09T09:49:56Z</time>
      </trkpt>
      <trkpt lat="43.39328" lon="6.67777">
        <ele>60.1</ele>
        <time>2016-10-09T09:49:58Z</time>
      </trkpt>
      <trkpt lat="43.39328" lon="6.67773">
        <ele>59.4</ele>
        <time>2016-10-09T09:50:02Z</time>
      </trkpt>
      <trkpt lat="43.39328" lon="6.67768">
        <ele>58.5</ele>
        <time>2016-10-09T09:50:04Z</time>
      </trkpt>
      <trkpt lat="43.3933" lon="6.67762">
        <ele>57.7</ele>
        <time>2016-10-09T09:50:06Z</time>
      </trkpt>
      <trkpt lat="43.39331" lon="6.67757">
        <ele>56.9</ele>
        <time>2016-10-09T09:50:08Z</time>
      </trkpt>
      <trkpt lat="43.39333" lon="6.67752">
        <ele>56.4</ele>
        <time>2016-10-09T09:50:10Z</time>
      </trkpt>
      <trkpt lat="43.39332" lon="6.67748">
        <ele>56</ele>
        <time>2016-10-09T09:50:12Z</time>
      </trkpt>
      <trkpt lat="43.39331" lon="6.67744">
        <ele>55.8</ele>
        <time>2016-10-09T09:50:14Z</time>
      </trkpt>
      <trkpt lat="43.3933" lon="6.67741">
        <ele>55.5</ele>
        <time>2016-10-09T09:50:16Z</time>
      </trkpt>
      <trkpt lat="43.39328" lon="6.67738">
        <ele>55.4</ele>
        <time>2016-10-09T09:50:18Z</time>
      </trkpt>
      <trkpt lat="43.39326" lon="6.67735">
        <ele>55.3</ele>
        <time>2016-10-09T09:50:20Z</time>
      </trkpt>
      <trkpt lat="43.39324" lon="6.67732">
        <ele>55.2</ele>
        <time>2016-10-09T09:50:22Z</time>
      </trkpt>
      <trkpt lat="43.39323" lon="6.67729">
        <ele>55.1</ele>
        <time>2016-10-09T09:50:24Z</time>
      </trkpt>
      <trkpt lat="43.39322" lon="6.67726">
        <ele>55</ele>
        <time>2016-10-09T09:50:26Z</time>
      </trkpt>
      <trkpt lat="43.39321" lon="6.67723">
        <ele>54.8</ele>
        <time>2016-10-09T09:50:28Z</time>
      </trkpt>
      <trkpt lat="43.3932" lon="6.67721">
        <ele>54.7</ele>
        <time>2016-10-09T09:50:30Z</time>
      </trkpt>
      <trkpt lat="43.39319" lon="6.6772">
        <ele>54.6</ele>
        <time>2016-10-09T09:50:34Z</time>
      </trkpt>
      <trkpt lat="43.39317" lon="6.67719">
        <ele>54.5</ele>
        <time>2016-10-09T09:50:41Z</time>
      </trkpt>
      <trkpt lat="43.39317" lon="6.67719">
        <ele>54.4</ele>
        <time>2016-10-09T09:50:43Z</time>
      </trkpt>
      <trkpt lat="43.39313" lon="6.67718">
        <ele>54</ele>
        <time>2016-10-09T09:50:45Z</time>
      </trkpt>
      <trkpt lat="43.39308" lon="6.67718">
        <ele>53.5</ele>
        <time>2016-10-09T09:50:47Z</time>
      </trkpt>
      <trkpt lat="43.39304" lon="6.67715">
        <ele>52.9</ele>
        <time>2016-10-09T09:50:49Z</time>
      </trkpt>
      <trkpt lat="43.39302" lon="6.67709">
        <ele>52.2</ele>
        <time>2016-10-09T09:50:51Z</time>
      </trkpt>
      <trkpt lat="43.39299" lon="6.67707">
        <ele>51.7</ele>
        <time>2016-10-09T09:50:53Z</time>
      </trkpt>
      <trkpt lat="43.39299" lon="6.67705">
        <ele>51.4</ele>
        <time>2016-10-09T09:50:55Z</time>
      </trkpt>
      <trkpt lat="43.39297" lon="6.67703">
        <ele>51</ele>
        <time>2016-10-09T09:50:59Z</time>
      </trkpt>
      <trkpt lat="43.39294" lon="6.67701">
        <ele>50.4</ele>
        <time>2016-10-09T09:51:01Z</time>
      </trkpt>
      <trkpt lat="43.39291" lon="6.67698">
        <ele>49.7</ele>
        <time>2016-10-09T09:51:03Z</time>
      </trkpt>
      <trkpt lat="43.3929" lon="6.67695">
        <ele>49.1</ele>
        <time>2016-10-09T09:51:05Z</time>
      </trkpt>
      <trkpt lat="43.39287" lon="6.67692">
        <ele>48.2</ele>
        <time>2016-10-09T09:51:07Z</time>
      </trkpt>
      <trkpt lat="43.39285" lon="6.67688">
        <ele>47.3</ele>
        <time>2016-10-09T09:51:09Z</time>
      </trkpt>
      <trkpt lat="43.39282" lon="6.67684">
        <ele>46.2</ele>
        <time>2016-10-09T09:51:11Z</time>
      </trkpt>
      <trkpt lat="43.39278" lon="6.67681">
        <ele>45.2</ele>
        <time>2016-10-09T09:51:13Z</time>
      </trkpt>
      <trkpt lat="43.39275" lon="6.67678">
        <ele>44.2</ele>
        <time>2016-10-09T09:51:15Z</time>
      </trkpt>
      <trkpt lat="43.39272" lon="6.67672">
        <ele>42.8</ele>
        <time>2016-10-09T09:51:17Z</time>
      </trkpt>
      <trkpt lat="43.39268" lon="6.67666">
        <ele>41.6</ele>
        <time>2016-10-09T09:51:19Z</time>
      </trkpt>
      <trkpt lat="43.39264" lon="6.67664">
        <ele>40.7</ele>
        <time>2016-10-09T09:51:21Z</time>
      </trkpt>
      <trkpt lat="43.39261" lon="6.67663">
        <ele>40.2</ele>
        <time>2016-10-09T09:51:23Z</time>
      </trkpt>
      <trkpt lat="43.39261" lon="6.67663">
        <ele>40.1</ele>
        <time>2016-10-09T09:51:25Z</time>
      </trkpt>
      <trkpt lat="43.39259" lon="6.67663">
        <ele>39.7</ele>
        <time>2016-10-09T09:51:27Z</time>
      </trkpt>
      <trkpt lat="43.39256" lon="6.67662">
        <ele>39</ele>
        <time>2016-10-09T09:51:29Z</time>
      </trkpt>
      <trkpt lat="43.39254" lon="6.67662">
        <ele>38.6</ele>
        <time>2016-10-09T09:51:31Z</time>
      </trkpt>
      <trkpt lat="43.39253" lon="6.67662">
        <ele>38.2</ele>
        <time>2016-10-09T09:51:33Z</time>
      </trkpt>
      <trkpt lat="43.39249" lon="6.67664">
        <ele>37.4</ele>
        <time>2016-10-09T09:51:35Z</time>
      </trkpt>
      <trkpt lat="43.39246" lon="6.67666">
        <ele>36.6</ele>
        <time>2016-10-09T09:51:37Z</time>
      </trkpt>
      <trkpt lat="43.39243" lon="6.67667">
        <ele>36</ele>
        <time>2016-10-09T09:51:39Z</time>
      </trkpt>
      <trkpt lat="43.39239" lon="6.67667">
        <ele>35.6</ele>
        <time>2016-10-09T09:51:41Z</time>
      </trkpt>
      <trkpt lat="43.39233" lon="6.67668">
        <ele>35.2</ele>
        <time>2016-10-09T09:51:43Z</time>
      </trkpt>
      <trkpt lat="43.39225" lon="6.67667">
        <ele>35.1</ele>
        <time>2016-10-09T09:51:45Z</time>
      </trkpt>
      <trkpt lat="43.39221" lon="6.67662">
        <ele>34.9</ele>
        <time>2016-10-09T09:51:47Z</time>
      </trkpt>
      <trkpt lat="43.39221" lon="6.67657">
        <ele>34.8</ele>
        <time>2016-10-09T09:51:49Z</time>
      </trkpt>
      <trkpt lat="43.39225" lon="6.67651">
        <ele>34.7</ele>
        <time>2016-10-09T09:51:51Z</time>
      </trkpt>
      <trkpt lat="43.39222" lon="6.67645">
        <ele>34.6</ele>
        <time>2016-10-09T09:51:53Z</time>
      </trkpt>
      <trkpt lat="43.39217" lon="6.67642">
        <ele>35</ele>
        <time>2016-10-09T09:51:55Z</time>
      </trkpt>
      <trkpt lat="43.39217" lon="6.67636">
        <ele>31.6</ele>
        <time>2016-10-09T09:51:57Z</time>
      </trkpt>
      <trkpt lat="43.39217" lon="6.67629">
        <ele>31.4</ele>
        <time>2016-10-09T09:51:59Z</time>
      </trkpt>
      <trkpt lat="43.39222" lon="6.67627">
        <ele>31.1</ele>
        <time>2016-10-09T09:52:01Z</time>
      </trkpt>
      <trkpt lat="43.39227" lon="6.67628">
        <ele>31</ele>
        <time>2016-10-09T09:52:03Z</time>
      </trkpt>
      <trkpt lat="43.39233" lon="6.67626">
        <ele>30.8</ele>
        <time>2016-10-09T09:52:05Z</time>
      </trkpt>
      <trkpt lat="43.39239" lon="6.67625">
        <ele>30.7</ele>
        <time>2016-10-09T09:52:07Z</time>
      </trkpt>
      <trkpt lat="43.39246" lon="6.67625">
        <ele>30.5</ele>
        <time>2016-10-09T09:52:09Z</time>
      </trkpt>
      <trkpt lat="43.39252" lon="6.67626">
        <ele>30.3</ele>
        <time>2016-10-09T09:52:11Z</time>
      </trkpt>
      <trkpt lat="43.39258" lon="6.67623">
        <ele>30.2</ele>
        <time>2016-10-09T09:52:13Z</time>
      </trkpt>
      <trkpt lat="43.39265" lon="6.67619">
        <ele>30.1</ele>
        <time>2016-10-09T09:52:15Z</time>
      </trkpt>
      <trkpt lat="43.39272" lon="6.67617">
        <ele>29.9</ele>
        <time>2016-10-09T09:52:17Z</time>
      </trkpt>
      <trkpt lat="43.39279" lon="6.67616">
        <ele>29.7</ele>
        <time>2016-10-09T09:52:19Z</time>
      </trkpt>
      <trkpt lat="43.39287" lon="6.67616">
        <ele>29.5</ele>
        <time>2016-10-09T09:52:21Z</time>
      </trkpt>
      <trkpt lat="43.39295" lon="6.67616">
        <ele>29.3</ele>
        <time>2016-10-09T09:52:23Z</time>
      </trkpt>
      <trkpt lat="43.39304" lon="6.67615">
        <ele>29</ele>
        <time>2016-10-09T09:52:25Z</time>
      </trkpt>
      <trkpt lat="43.39313" lon="6.67612">
        <ele>28.6</ele>
        <time>2016-10-09T09:52:27Z</time>
      </trkpt>
      <trkpt lat="43.39323" lon="6.67612">
        <ele>28</ele>
        <time>2016-10-09T09:52:29Z</time>
      </trkpt>
      <trkpt lat="43.39333" lon="6.67611">
        <ele>27.5</ele>
        <time>2016-10-09T09:52:31Z</time>
      </trkpt>
      <trkpt lat="43.39343" lon="6.67604">
        <ele>27</ele>
        <time>2016-10-09T09:52:33Z</time>
      </trkpt>
      <trkpt lat="43.39353" lon="6.67598">
        <ele>26.4</ele>
        <time>2016-10-09T09:52:35Z</time>
      </trkpt>
      <trkpt lat="43.39364" lon="6.67593">
        <ele>26</ele>
        <time>2016-10-09T09:52:37Z</time>
      </trkpt>
      <trkpt lat="43.39372" lon="6.67588">
        <ele>25.7</ele>
        <time>2016-10-09T09:52:39Z</time>
      </trkpt>
      <trkpt lat="43.3938" lon="6.67585">
        <ele>25.4</ele>
        <time>2016-10-09T09:52:41Z</time>
      </trkpt>
      <trkpt lat="43.39387" lon="6.67581">
        <ele>25.3</ele>
        <time>2016-10-09T09:52:43Z</time>
      </trkpt>
      <trkpt lat="43.39391" lon="6.67575">
        <ele>25.2</ele>
        <time>2016-10-09T09:52:45Z</time>
      </trkpt>
      <trkpt lat="43.39398" lon="6.67572">
        <ele>25</ele>
        <time>2016-10-09T09:52:47Z</time>
      </trkpt>
      <trkpt lat="43.39407" lon="6.67571">
        <ele>24.6</ele>
        <time>2016-10-09T09:52:49Z</time>
      </trkpt>
      <trkpt lat="43.39415" lon="6.67576">
        <ele>24.2</ele>
        <time>2016-10-09T09:52:51Z</time>
      </trkpt>
      <trkpt lat="43.39422" lon="6.6758">
        <ele>23.9</ele>
        <time>2016-10-09T09:52:53Z</time>
      </trkpt>
      <trkpt lat="43.3943" lon="6.6758">
        <ele>23.6</ele>
        <time>2016-10-09T09:52:55Z</time>
      </trkpt>
      <trkpt lat="43.39435" lon="6.67576">
        <ele>23.3</ele>
        <time>2016-10-09T09:52:57Z</time>
      </trkpt>
      <trkpt lat="43.39443" lon="6.67579">
        <ele>23</ele>
        <time>2016-10-09T09:52:59Z</time>
      </trkpt>
      <trkpt lat="43.39451" lon="6.67578">
        <ele>22.6</ele>
        <time>2016-10-09T09:53:01Z</time>
      </trkpt>
      <trkpt lat="43.39459" lon="6.67574">
        <ele>22.2</ele>
        <time>2016-10-09T09:53:03Z</time>
      </trkpt>
      <trkpt lat="43.39467" lon="6.6757">
        <ele>21.9</ele>
        <time>2016-10-09T09:53:05Z</time>
      </trkpt>
      <trkpt lat="43.39471" lon="6.67564">
        <ele>21.6</ele>
        <time>2016-10-09T09:53:07Z</time>
      </trkpt>
      <trkpt lat="43.39474" lon="6.67561">
        <ele>21.4</ele>
        <time>2016-10-09T09:53:09Z</time>
      </trkpt>
      <trkpt lat="43.39476" lon="6.67558">
        <ele>21.3</ele>
        <time>2016-10-09T09:53:11Z</time>
      </trkpt>
      <trkpt lat="43.39478" lon="6.67557">
        <ele>21.2</ele>
        <time>2016-10-09T09:53:13Z</time>
      </trkpt>
      <trkpt lat="43.3948" lon="6.67556">
        <ele>21.1</ele>
        <time>2016-10-09T09:53:15Z</time>
      </trkpt>
      <trkpt lat="43.39483" lon="6.67555">
        <ele>20.9</ele>
        <time>2016-10-09T09:53:17Z</time>
      </trkpt>
      <trkpt lat="43.39485" lon="6.67554">
        <ele>20.7</ele>
        <time>2016-10-09T09:53:19Z</time>
      </trkpt>
      <trkpt lat="43.39488" lon="6.67554">
        <ele>20.4</ele>
        <time>2016-10-09T09:53:21Z</time>
      </trkpt>
      <trkpt lat="43.39491" lon="6.67553">
        <ele>20.2</ele>
        <time>2016-10-09T09:53:23Z</time>
      </trkpt>
      <trkpt lat="43.39496" lon="6.67553">
        <ele>19.9</ele>
        <time>2016-10-09T09:53:25Z</time>
      </trkpt>
      <trkpt lat="43.39504" lon="6.67555">
        <ele>19.3</ele>
        <time>2016-10-09T09:53:27Z</time>
      </trkpt>
      <trkpt lat="43.39508" lon="6.67555">
        <ele>19.1</ele>
        <time>2016-10-09T09:53:29Z</time>
      </trkpt>
      <trkpt lat="43.39512" lon="6.6755">
        <ele>18.9</ele>
        <time>2016-10-09T09:53:31Z</time>
      </trkpt>
      <trkpt lat="43.39516" lon="6.67541">
        <ele>18.6</ele>
        <time>2016-10-09T09:53:33Z</time>
      </trkpt>
      <trkpt lat="43.39521" lon="6.67533">
        <ele>18.2</ele>
        <time>2016-10-09T09:53:35Z</time>
      </trkpt>
      <trkpt lat="43.39529" lon="6.67526">
        <ele>18</ele>
        <time>2016-10-09T09:53:37Z</time>
      </trkpt>
      <trkpt lat="43.39539" lon="6.6752">
        <ele>17.8</ele>
        <time>2016-10-09T09:53:39Z</time>
      </trkpt>
      <trkpt lat="43.39549" lon="6.67514">
        <ele>17.6</ele>
        <time>2016-10-09T09:53:41Z</time>
      </trkpt>
      <trkpt lat="43.39559" lon="6.67508">
        <ele>17.3</ele>
        <time>2016-10-09T09:53:43Z</time>
      </trkpt>
      <trkpt lat="43.39569" lon="6.67503">
        <ele>17.1</ele>
        <time>2016-10-09T09:53:45Z</time>
      </trkpt>
      <trkpt lat="43.39579" lon="6.67499">
        <ele>16.9</ele>
        <time>2016-10-09T09:53:47Z</time>
      </trkpt>
      <trkpt lat="43.39588" lon="6.67496">
        <ele>16.6</ele>
        <time>2016-10-09T09:53:49Z</time>
      </trkpt>
      <trkpt lat="43.39599" lon="6.67493">
        <ele>16.4</ele>
        <time>2016-10-09T09:53:51Z</time>
      </trkpt>
      <trkpt lat="43.39608" lon="6.67489">
        <ele>16.1</ele>
        <time>2016-10-09T09:53:53Z</time>
      </trkpt>
      <trkpt lat="43.39617" lon="6.67487">
        <ele>15.9</ele>
        <time>2016-10-09T09:53:55Z</time>
      </trkpt>
      <trkpt lat="43.39625" lon="6.67484">
        <ele>15.6</ele>
        <time>2016-10-09T09:53:57Z</time>
      </trkpt>
      <trkpt lat="43.39634" lon="6.67482">
        <ele>15.3</ele>
        <time>2016-10-09T09:53:59Z</time>
      </trkpt>
      <trkpt lat="43.39642" lon="6.6748">
        <ele>15.1</ele>
        <time>2016-10-09T09:54:01Z</time>
      </trkpt>
      <trkpt lat="43.39648" lon="6.6748">
        <ele>15</ele>
        <time>2016-10-09T09:54:03Z</time>
      </trkpt>
      <trkpt lat="43.39653" lon="6.67479">
        <ele>14.8</ele>
        <time>2016-10-09T09:54:05Z</time>
      </trkpt>
      <trkpt lat="43.39657" lon="6.67478">
        <ele>14.7</ele>
        <time>2016-10-09T09:54:07Z</time>
      </trkpt>
      <trkpt lat="43.39658" lon="6.67477">
        <ele>14.6</ele>
        <time>2016-10-09T09:54:09Z</time>
      </trkpt>
      <trkpt lat="43.3966" lon="6.67477">
        <ele>14.5</ele>
        <time>2016-10-09T09:54:11Z</time>
      </trkpt>
      <trkpt lat="43.39663" lon="6.67477">
        <ele>14.5</ele>
        <time>2016-10-09T09:54:15Z</time>
      </trkpt>
      <trkpt lat="43.39666" lon="6.67476">
        <ele>14.4</ele>
        <time>2016-10-09T09:54:17Z</time>
      </trkpt>
      <trkpt lat="43.39672" lon="6.67477">
        <ele>14.3</ele>
        <time>2016-10-09T09:56:42Z</time>
      </trkpt>
      <trkpt lat="43.39674" lon="6.67476">
        <ele>14.2</ele>
        <time>2016-10-09T09:56:44Z</time>
      </trkpt>
      <trkpt lat="43.39685" lon="6.67476">
        <ele>14.1</ele>
        <time>2016-10-09T09:56:46Z</time>
      </trkpt>
      <trkpt lat="43.39688" lon="6.67476">
        <ele>14.1</ele>
        <time>2016-10-09T09:56:48Z</time>
      </trkpt>
      <trkpt lat="43.39692" lon="6.67476">
        <ele>14</ele>
        <time>2016-10-09T09:56:50Z</time>
      </trkpt>
      <trkpt lat="43.39695" lon="6.67476">
        <ele>14</ele>
        <time>2016-10-09T09:56:52Z</time>
      </trkpt>
      <trkpt lat="43.39698" lon="6.67477">
        <ele>14</ele>
        <time>2016-10-09T09:56:54Z</time>
      </trkpt>
      <trkpt lat="43.397" lon="6.67479">
        <ele>14</ele>
        <time>2016-10-09T09:56:56Z</time>
      </trkpt>
      <trkpt lat="43.39702" lon="6.67481">
        <ele>14</ele>
        <time>2016-10-09T09:56:58Z</time>
      </trkpt>
      <trkpt lat="43.39703" lon="6.67483">
        <ele>14</ele>
        <time>2016-10-09T09:57:00Z</time>
      </trkpt>
      <trkpt lat="43.39705" lon="6.67483">
        <ele>14</ele>
        <time>2016-10-09T09:57:02Z</time>
      </trkpt>
      <trkpt lat="43.39705" lon="6.67485">
        <ele>14</ele>
        <time>2016-10-09T09:57:04Z</time>
      </trkpt>
      <trkpt lat="43.39707" lon="6.67487">
        <ele>14</ele>
        <time>2016-10-09T09:57:10Z</time>
      </trkpt>
      <trkpt lat="43.39708" lon="6.67488">
        <ele>14</ele>
        <time>2016-10-09T09:57:12Z</time>
      </trkpt>
      <trkpt lat="43.3971" lon="6.67491">
        <ele>14</ele>
        <time>2016-10-09T09:57:14Z</time>
      </trkpt>
      <trkpt lat="43.39712" lon="6.67493">
        <ele>14</ele>
        <time>2016-10-09T09:57:16Z</time>
      </trkpt>
      <trkpt lat="43.39714" lon="6.67494">
        <ele>14</ele>
        <time>2016-10-09T09:57:18Z</time>
      </trkpt>
      <trkpt lat="43.39718" lon="6.67493">
        <ele>14</ele>
        <time>2016-10-09T09:57:20Z</time>
      </trkpt>
      <trkpt lat="43.39722" lon="6.67492">
        <ele>14</ele>
        <time>2016-10-09T09:57:24Z</time>
      </trkpt>
      <trkpt lat="43.39726" lon="6.6749">
        <ele>14</ele>
        <time>2016-10-09T09:57:26Z</time>
      </trkpt>
      <trkpt lat="43.3973" lon="6.67483">
        <ele>14</ele>
        <time>2016-10-09T09:57:28Z</time>
      </trkpt>
      <trkpt lat="43.39733" lon="6.67476">
        <ele>14</ele>
        <time>2016-10-09T09:57:30Z</time>
      </trkpt>
      <trkpt lat="43.39734" lon="6.67467">
        <ele>14</ele>
        <time>2016-10-09T09:57:32Z</time>
      </trkpt>
      <trkpt lat="43.39734" lon="6.67458">
        <ele>14</ele>
        <time>2016-10-09T09:57:34Z</time>
      </trkpt>
      <trkpt lat="43.39734" lon="6.6745">
        <ele>14.9</ele>
        <time>2016-10-09T09:57:36Z</time>
      </trkpt>
      <trkpt lat="43.39734" lon="6.67441">
        <ele>15.9</ele>
        <time>2016-10-09T09:57:38Z</time>
      </trkpt>
      <trkpt lat="43.39735" lon="6.6743">
        <ele>16.1</ele>
        <time>2016-10-09T09:57:40Z</time>
      </trkpt>
      <trkpt lat="43.39737" lon="6.67418">
        <ele>16.3</ele>
        <time>2016-10-09T09:57:42Z</time>
      </trkpt>
      <trkpt lat="43.39739" lon="6.67407">
        <ele>16.5</ele>
        <time>2016-10-09T09:57:44Z</time>
      </trkpt>
      <trkpt lat="43.39741" lon="6.67394">
        <ele>16.8</ele>
        <time>2016-10-09T09:57:46Z</time>
      </trkpt>
      <trkpt lat="43.39743" lon="6.6738">
        <ele>17</ele>
        <time>2016-10-09T09:57:48Z</time>
      </trkpt>
      <trkpt lat="43.39744" lon="6.67365">
        <ele>16.9</ele>
        <time>2016-10-09T09:57:50Z</time>
      </trkpt>
      <trkpt lat="43.39745" lon="6.6735">
        <ele>16.7</ele>
        <time>2016-10-09T09:57:52Z</time>
      </trkpt>
      <trkpt lat="43.39745" lon="6.67337">
        <ele>16.6</ele>
        <time>2016-10-09T09:57:54Z</time>
      </trkpt>
      <trkpt lat="43.39744" lon="6.67323">
        <ele>16.5</ele>
        <time>2016-10-09T09:57:56Z</time>
      </trkpt>
      <trkpt lat="43.39742" lon="6.67311">
        <ele>16.4</ele>
        <time>2016-10-09T09:57:58Z</time>
      </trkpt>
      <trkpt lat="43.3974" lon="6.67299">
        <ele>16.3</ele>
        <time>2016-10-09T09:58:00Z</time>
      </trkpt>
      <trkpt lat="43.39737" lon="6.67287">
        <ele>16.2</ele>
        <time>2016-10-09T09:58:02Z</time>
      </trkpt>
      <trkpt lat="43.39733" lon="6.67277">
        <ele>16.1</ele>
        <time>2016-10-09T09:58:04Z</time>
      </trkpt>
      <trkpt lat="43.39728" lon="6.67267">
        <ele>16.1</ele>
        <time>2016-10-09T09:58:06Z</time>
      </trkpt>
      <trkpt lat="43.39724" lon="6.67259">
        <ele>16</ele>
        <time>2016-10-09T09:58:08Z</time>
      </trkpt>
      <trkpt lat="43.39719" lon="6.67253">
        <ele>15.9</ele>
        <time>2016-10-09T09:58:10Z</time>
      </trkpt>
      <trkpt lat="43.39716" lon="6.6725">
        <ele>15.9</ele>
        <time>2016-10-09T09:58:12Z</time>
      </trkpt>
      <trkpt lat="43.39713" lon="6.67248">
        <ele>15.9</ele>
        <time>2016-10-09T09:58:14Z</time>
      </trkpt>
      <trkpt lat="43.39712" lon="6.67244">
        <ele>15.8</ele>
        <time>2016-10-09T09:58:18Z</time>
      </trkpt>
      <trkpt lat="43.39711" lon="6.67242">
        <ele>15.8</ele>
        <time>2016-10-09T09:58:20Z</time>
      </trkpt>
      <trkpt lat="43.39709" lon="6.67241">
        <ele>15.8</ele>
        <time>2016-10-09T09:58:22Z</time>
      </trkpt>
      <trkpt lat="43.39708" lon="6.67238">
        <ele>15.8</ele>
        <time>2016-10-09T09:58:24Z</time>
      </trkpt>
      <trkpt lat="43.39707" lon="6.67236">
        <ele>15.7</ele>
        <time>2016-10-09T09:58:30Z</time>
      </trkpt>
      <trkpt lat="43.39707" lon="6.67233">
        <ele>15.7</ele>
        <time>2016-10-09T09:58:32Z</time>
      </trkpt>
      <trkpt lat="43.39704" lon="6.67232">
        <ele>15.6</ele>
        <time>2016-10-09T10:02:03Z</time>
      </trkpt>
      <trkpt lat="43.397" lon="6.67228">
        <ele>15.6</ele>
        <time>2016-10-09T10:02:05Z</time>
      </trkpt>
      <trkpt lat="43.39697" lon="6.67225">
        <ele>15.5</ele>
        <time>2016-10-09T10:02:07Z</time>
      </trkpt>
      <trkpt lat="43.39695" lon="6.67223">
        <ele>15.4</ele>
        <time>2016-10-09T10:02:09Z</time>
      </trkpt>
      <trkpt lat="43.39691" lon="6.67219">
        <ele>15.4</ele>
        <time>2016-10-09T10:02:11Z</time>
      </trkpt>
      <trkpt lat="43.39687" lon="6.67216">
        <ele>15.3</ele>
        <time>2016-10-09T10:02:13Z</time>
      </trkpt>
      <trkpt lat="43.39682" lon="6.67212">
        <ele>15.3</ele>
        <time>2016-10-09T10:02:15Z</time>
      </trkpt>
      <trkpt lat="43.39676" lon="6.67207">
        <ele>15.2</ele>
        <time>2016-10-09T10:02:17Z</time>
      </trkpt>
      <trkpt lat="43.39668" lon="6.67203">
        <ele>15</ele>
        <time>2016-10-09T10:02:19Z</time>
      </trkpt>
      <trkpt lat="43.39661" lon="6.67203">
        <ele>15.1</ele>
        <time>2016-10-09T10:02:21Z</time>
      </trkpt>
      <trkpt lat="43.39653" lon="6.67203">
        <ele>15.1</ele>
        <time>2016-10-09T10:02:23Z</time>
      </trkpt>
      <trkpt lat="43.39644" lon="6.67204">
        <ele>15.2</ele>
        <time>2016-10-09T10:02:25Z</time>
      </trkpt>
      <trkpt lat="43.39636" lon="6.67207">
        <ele>15.2</ele>
        <time>2016-10-09T10:02:27Z</time>
      </trkpt>
      <trkpt lat="43.39628" lon="6.67211">
        <ele>15.3</ele>
        <time>2016-10-09T10:02:29Z</time>
      </trkpt>
      <trkpt lat="43.39621" lon="6.67214">
        <ele>15.3</ele>
        <time>2016-10-09T10:02:31Z</time>
      </trkpt>
      <trkpt lat="43.39613" lon="6.67218">
        <ele>15.3</ele>
        <time>2016-10-09T10:02:33Z</time>
      </trkpt>
      <trkpt lat="43.39606" lon="6.67221">
        <ele>15.3</ele>
        <time>2016-10-09T10:02:35Z</time>
      </trkpt>
      <trkpt lat="43.396" lon="6.67224">
        <ele>15.4</ele>
        <time>2016-10-09T10:02:37Z</time>
      </trkpt>
      <trkpt lat="43.39593" lon="6.67227">
        <ele>15.4</ele>
        <time>2016-10-09T10:02:39Z</time>
      </trkpt>
      <trkpt lat="43.39585" lon="6.67229">
        <ele>15.4</ele>
        <time>2016-10-09T10:02:41Z</time>
      </trkpt>
      <trkpt lat="43.39577" lon="6.67226">
        <ele>15.4</ele>
        <time>2016-10-09T10:02:43Z</time>
      </trkpt>
      <trkpt lat="43.3957" lon="6.6722">
        <ele>15.5</ele>
        <time>2016-10-09T10:02:45Z</time>
      </trkpt>
      <trkpt lat="43.39563" lon="6.67212">
        <ele>15.5</ele>
        <time>2016-10-09T10:02:47Z</time>
      </trkpt>
      <trkpt lat="43.39558" lon="6.67203">
        <ele>15.5</ele>
        <time>2016-10-09T10:02:49Z</time>
      </trkpt>
      <trkpt lat="43.39553" lon="6.67193">
        <ele>15.6</ele>
        <time>2016-10-09T10:02:51Z</time>
      </trkpt>
      <trkpt lat="43.39547" lon="6.67184">
        <ele>15.6</ele>
        <time>2016-10-09T10:02:53Z</time>
      </trkpt>
      <trkpt lat="43.39543" lon="6.67175">
        <ele>15.7</ele>
        <time>2016-10-09T10:02:55Z</time>
      </trkpt>
      <trkpt lat="43.39538" lon="6.67166">
        <ele>15.7</ele>
        <time>2016-10-09T10:02:57Z</time>
      </trkpt>
      <trkpt lat="43.39532" lon="6.67159">
        <ele>15.8</ele>
        <time>2016-10-09T10:02:59Z</time>
      </trkpt>
      <trkpt lat="43.39525" lon="6.67152">
        <ele>15.8</ele>
        <time>2016-10-09T10:03:01Z</time>
      </trkpt>
      <trkpt lat="43.39517" lon="6.67148">
        <ele>15.8</ele>
        <time>2016-10-09T10:03:03Z</time>
      </trkpt>
      <trkpt lat="43.3951" lon="6.67145">
        <ele>15.9</ele>
        <time>2016-10-09T10:03:05Z</time>
      </trkpt>
      <trkpt lat="43.395" lon="6.67136">
        <ele>15.9</ele>
        <time>2016-10-09T10:03:08Z</time>
      </trkpt>
      <trkpt lat="43.39496" lon="6.67125">
        <ele>15.9</ele>
        <time>2016-10-09T10:03:10Z</time>
      </trkpt>
      <trkpt lat="43.39491" lon="6.67115">
        <ele>16</ele>
        <time>2016-10-09T10:03:12Z</time>
      </trkpt>
      <trkpt lat="43.39485" lon="6.6711">
        <ele>16</ele>
        <time>2016-10-09T10:03:14Z</time>
      </trkpt>
      <trkpt lat="43.39478" lon="6.67107">
        <ele>16</ele>
        <time>2016-10-09T10:03:16Z</time>
      </trkpt>
      <trkpt lat="43.39472" lon="6.67103">
        <ele>16.1</ele>
        <time>2016-10-09T10:03:18Z</time>
      </trkpt>
      <trkpt lat="43.39465" lon="6.67098">
        <ele>16.2</ele>
        <time>2016-10-09T10:03:20Z</time>
      </trkpt>
      <trkpt lat="43.39459" lon="6.67093">
        <ele>16.3</ele>
        <time>2016-10-09T10:03:22Z</time>
      </trkpt>
      <trkpt lat="43.39453" lon="6.67085">
        <ele>16.4</ele>
        <time>2016-10-09T10:03:24Z</time>
      </trkpt>
      <trkpt lat="43.39447" lon="6.67078">
        <ele>16.5</ele>
        <time>2016-10-09T10:03:26Z</time>
      </trkpt>
      <trkpt lat="43.39442" lon="6.67069">
        <ele>16.7</ele>
        <time>2016-10-09T10:03:28Z</time>
      </trkpt>
      <trkpt lat="43.39438" lon="6.6706">
        <ele>17</ele>
        <time>2016-10-09T10:03:30Z</time>
      </trkpt>
      <trkpt lat="43.39434" lon="6.67052">
        <ele>17.3</ele>
        <time>2016-10-09T10:03:32Z</time>
      </trkpt>
      <trkpt lat="43.39429" lon="6.67044">
        <ele>17.8</ele>
        <time>2016-10-09T10:03:34Z</time>
      </trkpt>
      <trkpt lat="43.39423" lon="6.67036">
        <ele>18.3</ele>
        <time>2016-10-09T10:03:36Z</time>
      </trkpt>
      <trkpt lat="43.39418" lon="6.67028">
        <ele>18.7</ele>
        <time>2016-10-09T10:03:38Z</time>
      </trkpt>
      <trkpt lat="43.39414" lon="6.67019">
        <ele>18.9</ele>
        <time>2016-10-09T10:03:40Z</time>
      </trkpt>
      <trkpt lat="43.3941" lon="6.6701">
        <ele>19</ele>
        <time>2016-10-09T10:03:42Z</time>
      </trkpt>
      <trkpt lat="43.39406" lon="6.67">
        <ele>19.1</ele>
        <time>2016-10-09T10:03:44Z</time>
      </trkpt>
      <trkpt lat="43.39402" lon="6.66992">
        <ele>19.1</ele>
        <time>2016-10-09T10:03:46Z</time>
      </trkpt>
      <trkpt lat="43.39397" lon="6.66984">
        <ele>19.2</ele>
        <time>2016-10-09T10:03:48Z</time>
      </trkpt>
      <trkpt lat="43.39391" lon="6.66977">
        <ele>19.2</ele>
        <time>2016-10-09T10:03:50Z</time>
      </trkpt>
      <trkpt lat="43.39385" lon="6.6697">
        <ele>19.2</ele>
        <time>2016-10-09T10:03:52Z</time>
      </trkpt>
      <trkpt lat="43.39378" lon="6.66963">
        <ele>19.3</ele>
        <time>2016-10-09T10:03:54Z</time>
      </trkpt>
      <trkpt lat="43.3937" lon="6.66956">
        <ele>19.3</ele>
        <time>2016-10-09T10:03:56Z</time>
      </trkpt>
      <trkpt lat="43.39362" lon="6.6695">
        <ele>19.4</ele>
        <time>2016-10-09T10:03:58Z</time>
      </trkpt>
      <trkpt lat="43.39355" lon="6.66944">
        <ele>19.4</ele>
        <time>2016-10-09T10:04:00Z</time>
      </trkpt>
      <trkpt lat="43.39348" lon="6.66937">
        <ele>19.4</ele>
        <time>2016-10-09T10:04:02Z</time>
      </trkpt>
      <trkpt lat="43.3934" lon="6.66932">
        <ele>19.4</ele>
        <time>2016-10-09T10:04:04Z</time>
      </trkpt>
      <trkpt lat="43.39332" lon="6.66926">
        <ele>19.5</ele>
        <time>2016-10-09T10:04:06Z</time>
      </trkpt>
      <trkpt lat="43.39325" lon="6.6692">
        <ele>19.5</ele>
        <time>2016-10-09T10:04:08Z</time>
      </trkpt>
      <trkpt lat="43.39317" lon="6.66914">
        <ele>19.6</ele>
        <time>2016-10-09T10:04:10Z</time>
      </trkpt>
      <trkpt lat="43.3931" lon="6.66909">
        <ele>19.6</ele>
        <time>2016-10-09T10:04:12Z</time>
      </trkpt>
      <trkpt lat="43.39302" lon="6.66905">
        <ele>19.6</ele>
        <time>2016-10-09T10:04:14Z</time>
      </trkpt>
      <trkpt lat="43.39292" lon="6.669">
        <ele>19.7</ele>
        <time>2016-10-09T10:04:16Z</time>
      </trkpt>
      <trkpt lat="43.39282" lon="6.66894">
        <ele>19.8</ele>
        <time>2016-10-09T10:04:18Z</time>
      </trkpt>
      <trkpt lat="43.39272" lon="6.66883">
        <ele>19.8</ele>
        <time>2016-10-09T10:04:20Z</time>
      </trkpt>
      <trkpt lat="43.39265" lon="6.66869">
        <ele>19.9</ele>
        <time>2016-10-09T10:04:22Z</time>
      </trkpt>
      <trkpt lat="43.39259" lon="6.66855">
        <ele>20.2</ele>
        <time>2016-10-09T10:04:24Z</time>
      </trkpt>
      <trkpt lat="43.39254" lon="6.66842">
        <ele>21.2</ele>
        <time>2016-10-09T10:04:26Z</time>
      </trkpt>
      <trkpt lat="43.39249" lon="6.66832">
        <ele>21.9</ele>
        <time>2016-10-09T10:04:28Z</time>
      </trkpt>
      <trkpt lat="43.39245" lon="6.66825">
        <ele>22.2</ele>
        <time>2016-10-09T10:04:30Z</time>
      </trkpt>
      <trkpt lat="43.39244" lon="6.66817">
        <ele>22.4</ele>
        <time>2016-10-09T10:04:32Z</time>
      </trkpt>
      <trkpt lat="43.39246" lon="6.66809">
        <ele>22.5</ele>
        <time>2016-10-09T10:04:34Z</time>
      </trkpt>
      <trkpt lat="43.39251" lon="6.66803">
        <ele>22.7</ele>
        <time>2016-10-09T10:04:36Z</time>
      </trkpt>
      <trkpt lat="43.39254" lon="6.66795">
        <ele>22.9</ele>
        <time>2016-10-09T10:04:38Z</time>
      </trkpt>
      <trkpt lat="43.39258" lon="6.66786">
        <ele>23.2</ele>
        <time>2016-10-09T10:04:40Z</time>
      </trkpt>
      <trkpt lat="43.39261" lon="6.66778">
        <ele>23.6</ele>
        <time>2016-10-09T10:04:42Z</time>
      </trkpt>
      <trkpt lat="43.39264" lon="6.66769">
        <ele>24.3</ele>
        <time>2016-10-09T10:04:44Z</time>
      </trkpt>
      <trkpt lat="43.39266" lon="6.66761">
        <ele>25</ele>
        <time>2016-10-09T10:04:46Z</time>
      </trkpt>
      <trkpt lat="43.39269" lon="6.66754">
        <ele>25.3</ele>
        <time>2016-10-09T10:04:48Z</time>
      </trkpt>
      <trkpt lat="43.39272" lon="6.66746">
        <ele>25.6</ele>
        <time>2016-10-09T10:04:50Z</time>
      </trkpt>
      <trkpt lat="43.39274" lon="6.66739">
        <ele>26.3</ele>
        <time>2016-10-09T10:04:52Z</time>
      </trkpt>
      <trkpt lat="43.39275" lon="6.66734">
        <ele>27.7</ele>
        <time>2016-10-09T10:04:54Z</time>
      </trkpt>
      <trkpt lat="43.39277" lon="6.66728">
        <ele>28.9</ele>
        <time>2016-10-09T10:04:56Z</time>
      </trkpt>
      <trkpt lat="43.39278" lon="6.66723">
        <ele>29.7</ele>
        <time>2016-10-09T10:04:58Z</time>
      </trkpt>
      <trkpt lat="43.39278" lon="6.66719">
        <ele>30.2</ele>
        <time>2016-10-09T10:05:00Z</time>
      </trkpt>
      <trkpt lat="43.39278" lon="6.66715">
        <ele>30.5</ele>
        <time>2016-10-09T10:05:02Z</time>
      </trkpt>
      <trkpt lat="43.39278" lon="6.66711">
        <ele>30.9</ele>
        <time>2016-10-09T10:05:04Z</time>
      </trkpt>
      <trkpt lat="43.39278" lon="6.66708">
        <ele>31.5</ele>
        <time>2016-10-09T10:05:06Z</time>
      </trkpt>
      <trkpt lat="43.39277" lon="6.66704">
        <ele>32.1</ele>
        <time>2016-10-09T10:05:08Z</time>
      </trkpt>
      <trkpt lat="43.39277" lon="6.66701">
        <ele>32.5</ele>
        <time>2016-10-09T10:05:10Z</time>
      </trkpt>
      <trkpt lat="43.39276" lon="6.66697">
        <ele>32.8</ele>
        <time>2016-10-09T10:05:12Z</time>
      </trkpt>
      <trkpt lat="43.39275" lon="6.66693">
        <ele>33.1</ele>
        <time>2016-10-09T10:05:14Z</time>
      </trkpt>
      <trkpt lat="43.39274" lon="6.66689">
        <ele>33.6</ele>
        <time>2016-10-09T10:05:16Z</time>
      </trkpt>
      <trkpt lat="43.39272" lon="6.66686">
        <ele>34.9</ele>
        <time>2016-10-09T10:05:18Z</time>
      </trkpt>
      <trkpt lat="43.39271" lon="6.66682">
        <ele>35.4</ele>
        <time>2016-10-09T10:05:20Z</time>
      </trkpt>
      <trkpt lat="43.3927" lon="6.66679">
        <ele>35.8</ele>
        <time>2016-10-09T10:05:22Z</time>
      </trkpt>
      <trkpt lat="43.39268" lon="6.66676">
        <ele>36.1</ele>
        <time>2016-10-09T10:05:24Z</time>
      </trkpt>
      <trkpt lat="43.39266" lon="6.66672">
        <ele>36.4</ele>
        <time>2016-10-09T10:05:26Z</time>
      </trkpt>
      <trkpt lat="43.39264" lon="6.66668">
        <ele>36.7</ele>
        <time>2016-10-09T10:05:28Z</time>
      </trkpt>
      <trkpt lat="43.39264" lon="6.66662">
        <ele>37</ele>
        <time>2016-10-09T10:05:30Z</time>
      </trkpt>
      <trkpt lat="43.39265" lon="6.66652">
        <ele>37.2</ele>
        <time>2016-10-09T10:05:32Z</time>
      </trkpt>
      <trkpt lat="43.39268" lon="6.66644">
        <ele>37.5</ele>
        <time>2016-10-09T10:05:34Z</time>
      </trkpt>
      <trkpt lat="43.39271" lon="6.66637">
        <ele>37.7</ele>
        <time>2016-10-09T10:05:36Z</time>
      </trkpt>
      <trkpt lat="43.39275" lon="6.6663">
        <ele>37.9</ele>
        <time>2016-10-09T10:05:38Z</time>
      </trkpt>
      <trkpt lat="43.39278" lon="6.66623">
        <ele>38</ele>
        <time>2016-10-09T10:05:40Z</time>
      </trkpt>
      <trkpt lat="43.39281" lon="6.66616">
        <ele>37.9</ele>
        <time>2016-10-09T10:05:42Z</time>
      </trkpt>
      <trkpt lat="43.39284" lon="6.66608">
        <ele>37.1</ele>
        <time>2016-10-09T10:05:44Z</time>
      </trkpt>
      <trkpt lat="43.39287" lon="6.66599">
        <ele>37</ele>
        <time>2016-10-09T10:05:46Z</time>
      </trkpt>
      <trkpt lat="43.39288" lon="6.66591">
        <ele>37.1</ele>
        <time>2016-10-09T10:05:48Z</time>
      </trkpt>
      <trkpt lat="43.39288" lon="6.66584">
        <ele>37.3</ele>
        <time>2016-10-09T10:05:50Z</time>
      </trkpt>
      <trkpt lat="43.39288" lon="6.66579">
        <ele>37.4</ele>
        <time>2016-10-09T10:05:52Z</time>
      </trkpt>
      <trkpt lat="43.39288" lon="6.66575">
        <ele>37.5</ele>
        <time>2016-10-09T10:05:54Z</time>
      </trkpt>
      <trkpt lat="43.39288" lon="6.66571">
        <ele>37.8</ele>
        <time>2016-10-09T10:05:56Z</time>
      </trkpt>
      <trkpt lat="43.39288" lon="6.66568">
        <ele>38.2</ele>
        <time>2016-10-09T10:05:58Z</time>
      </trkpt>
      <trkpt lat="43.39288" lon="6.66564">
        <ele>38.5</ele>
        <time>2016-10-09T10:06:00Z</time>
      </trkpt>
      <trkpt lat="43.39289" lon="6.66562">
        <ele>38.7</ele>
        <time>2016-10-09T10:06:02Z</time>
      </trkpt>
      <trkpt lat="43.39289" lon="6.66558">
        <ele>38.9</ele>
        <time>2016-10-09T10:06:04Z</time>
      </trkpt>
      <trkpt lat="43.39289" lon="6.66555">
        <ele>39.3</ele>
        <time>2016-10-09T10:06:06Z</time>
      </trkpt>
      <trkpt lat="43.3929" lon="6.66552">
        <ele>39.7</ele>
        <time>2016-10-09T10:06:08Z</time>
      </trkpt>
      <trkpt lat="43.3929" lon="6.66549">
        <ele>40</ele>
        <time>2016-10-09T10:06:10Z</time>
      </trkpt>
      <trkpt lat="43.3929" lon="6.66546">
        <ele>40.2</ele>
        <time>2016-10-09T10:06:12Z</time>
      </trkpt>
      <trkpt lat="43.3929" lon="6.66543">
        <ele>40.4</ele>
        <time>2016-10-09T10:06:14Z</time>
      </trkpt>
      <trkpt lat="43.39289" lon="6.6654">
        <ele>40.7</ele>
        <time>2016-10-09T10:06:16Z</time>
      </trkpt>
      <trkpt lat="43.39289" lon="6.66536">
        <ele>41.1</ele>
        <time>2016-10-09T10:06:18Z</time>
      </trkpt>
      <trkpt lat="43.39289" lon="6.66533">
        <ele>41.4</ele>
        <time>2016-10-09T10:06:20Z</time>
      </trkpt>
      <trkpt lat="43.39289" lon="6.6653">
        <ele>41.6</ele>
        <time>2016-10-09T10:06:22Z</time>
      </trkpt>
      <trkpt lat="43.39288" lon="6.66526">
        <ele>41.8</ele>
        <time>2016-10-09T10:06:24Z</time>
      </trkpt>
      <trkpt lat="43.39288" lon="6.66523">
        <ele>42.2</ele>
        <time>2016-10-09T10:06:26Z</time>
      </trkpt>
      <trkpt lat="43.39288" lon="6.66519">
        <ele>42.7</ele>
        <time>2016-10-09T10:06:28Z</time>
      </trkpt>
      <trkpt lat="43.39288" lon="6.66516">
        <ele>43.1</ele>
        <time>2016-10-09T10:06:30Z</time>
      </trkpt>
      <trkpt lat="43.39287" lon="6.66513">
        <ele>43.4</ele>
        <time>2016-10-09T10:06:32Z</time>
      </trkpt>
      <trkpt lat="43.39286" lon="6.6651">
        <ele>43.8</ele>
        <time>2016-10-09T10:06:34Z</time>
      </trkpt>
      <trkpt lat="43.39287" lon="6.66506">
        <ele>44.3</ele>
        <time>2016-10-09T10:06:36Z</time>
      </trkpt>
      <trkpt lat="43.39286" lon="6.66502">
        <ele>44.8</ele>
        <time>2016-10-09T10:06:38Z</time>
      </trkpt>
      <trkpt lat="43.39286" lon="6.66499">
        <ele>45</ele>
        <time>2016-10-09T10:06:40Z</time>
      </trkpt>
      <trkpt lat="43.39285" lon="6.66496">
        <ele>45.4</ele>
        <time>2016-10-09T10:06:42Z</time>
      </trkpt>
      <trkpt lat="43.39285" lon="6.66493">
        <ele>45.7</ele>
        <time>2016-10-09T10:06:44Z</time>
      </trkpt>
      <trkpt lat="43.39285" lon="6.6649">
        <ele>46.2</ele>
        <time>2016-10-09T10:06:46Z</time>
      </trkpt>
      <trkpt lat="43.39285" lon="6.66486">
        <ele>46.5</ele>
        <time>2016-10-09T10:06:48Z</time>
      </trkpt>
      <trkpt lat="43.39283" lon="6.66483">
        <ele>46.9</ele>
        <time>2016-10-09T10:06:50Z</time>
      </trkpt>
      <trkpt lat="43.39282" lon="6.66481">
        <ele>47.4</ele>
        <time>2016-10-09T10:06:52Z</time>
      </trkpt>
      <trkpt lat="43.3928" lon="6.66479">
        <ele>47.8</ele>
        <time>2016-10-09T10:06:54Z</time>
      </trkpt>
      <trkpt lat="43.39278" lon="6.66477">
        <ele>48.1</ele>
        <time>2016-10-09T10:06:56Z</time>
      </trkpt>
      <trkpt lat="43.39276" lon="6.66475">
        <ele>48.3</ele>
        <time>2016-10-09T10:06:58Z</time>
      </trkpt>
      <trkpt lat="43.39274" lon="6.66474">
        <ele>48.6</ele>
        <time>2016-10-09T10:07:00Z</time>
      </trkpt>
      <trkpt lat="43.39272" lon="6.66474">
        <ele>48.9</ele>
        <time>2016-10-09T10:07:02Z</time>
      </trkpt>
      <trkpt lat="43.39269" lon="6.66473">
        <ele>49.3</ele>
        <time>2016-10-09T10:07:04Z</time>
      </trkpt>
      <trkpt lat="43.39267" lon="6.66472">
        <ele>49.7</ele>
        <time>2016-10-09T10:07:06Z</time>
      </trkpt>
      <trkpt lat="43.39265" lon="6.66471">
        <ele>49.9</ele>
        <time>2016-10-09T10:07:08Z</time>
      </trkpt>
      <trkpt lat="43.39262" lon="6.66469">
        <ele>50.2</ele>
        <time>2016-10-09T10:07:10Z</time>
      </trkpt>
      <trkpt lat="43.3926" lon="6.66469">
        <ele>50.6</ele>
        <time>2016-10-09T10:07:12Z</time>
      </trkpt>
      <trkpt lat="43.39257" lon="6.66468">
        <ele>51</ele>
        <time>2016-10-09T10:07:14Z</time>
      </trkpt>
      <trkpt lat="43.39255" lon="6.66467">
        <ele>51.3</ele>
        <time>2016-10-09T10:07:16Z</time>
      </trkpt>
      <trkpt lat="43.39253" lon="6.66466">
        <ele>51.4</ele>
        <time>2016-10-09T10:07:18Z</time>
      </trkpt>
      <trkpt lat="43.3925" lon="6.66465">
        <ele>51.6</ele>
        <time>2016-10-09T10:07:20Z</time>
      </trkpt>
      <trkpt lat="43.39248" lon="6.66464">
        <ele>51.9</ele>
        <time>2016-10-09T10:07:22Z</time>
      </trkpt>
      <trkpt lat="43.39245" lon="6.66463">
        <ele>52.2</ele>
        <time>2016-10-09T10:07:24Z</time>
      </trkpt>
      <trkpt lat="43.39241" lon="6.66461">
        <ele>52.7</ele>
        <time>2016-10-09T10:07:26Z</time>
      </trkpt>
      <trkpt lat="43.39238" lon="6.66458">
        <ele>53.3</ele>
        <time>2016-10-09T10:07:28Z</time>
      </trkpt>
      <trkpt lat="43.39234" lon="6.66453">
        <ele>53.7</ele>
        <time>2016-10-09T10:07:30Z</time>
      </trkpt>
      <trkpt lat="43.39231" lon="6.66447">
        <ele>54.1</ele>
        <time>2016-10-09T10:07:32Z</time>
      </trkpt>
      <trkpt lat="43.39228" lon="6.66441">
        <ele>54.4</ele>
        <time>2016-10-09T10:07:34Z</time>
      </trkpt>
      <trkpt lat="43.39226" lon="6.66435">
        <ele>54.8</ele>
        <time>2016-10-09T10:07:36Z</time>
      </trkpt>
      <trkpt lat="43.39224" lon="6.66429">
        <ele>55.1</ele>
        <time>2016-10-09T10:07:38Z</time>
      </trkpt>
      <trkpt lat="43.39222" lon="6.66423">
        <ele>55.4</ele>
        <time>2016-10-09T10:07:40Z</time>
      </trkpt>
      <trkpt lat="43.3922" lon="6.66417">
        <ele>55.6</ele>
        <time>2016-10-09T10:07:42Z</time>
      </trkpt>
      <trkpt lat="43.39218" lon="6.66411">
        <ele>55.8</ele>
        <time>2016-10-09T10:07:44Z</time>
      </trkpt>
      <trkpt lat="43.39216" lon="6.66405">
        <ele>55.8</ele>
        <time>2016-10-09T10:07:46Z</time>
      </trkpt>
      <trkpt lat="43.39214" lon="6.66399">
        <ele>55.9</ele>
        <time>2016-10-09T10:07:48Z</time>
      </trkpt>
      <trkpt lat="43.39212" lon="6.66394">
        <ele>55.9</ele>
        <time>2016-10-09T10:07:50Z</time>
      </trkpt>
      <trkpt lat="43.39209" lon="6.66388">
        <ele>56</ele>
        <time>2016-10-09T10:07:52Z</time>
      </trkpt>
      <trkpt lat="43.39207" lon="6.66382">
        <ele>56</ele>
        <time>2016-10-09T10:07:54Z</time>
      </trkpt>
      <trkpt lat="43.39204" lon="6.66376">
        <ele>55.7</ele>
        <time>2016-10-09T10:07:56Z</time>
      </trkpt>
      <trkpt lat="43.392" lon="6.66369">
        <ele>55.6</ele>
        <time>2016-10-09T10:07:58Z</time>
      </trkpt>
      <trkpt lat="43.39196" lon="6.66362">
        <ele>55.5</ele>
        <time>2016-10-09T10:08:00Z</time>
      </trkpt>
      <trkpt lat="43.39191" lon="6.66354">
        <ele>55.4</ele>
        <time>2016-10-09T10:08:02Z</time>
      </trkpt>
      <trkpt lat="43.39185" lon="6.66347">
        <ele>55.3</ele>
        <time>2016-10-09T10:08:04Z</time>
      </trkpt>
      <trkpt lat="43.39179" lon="6.66342">
        <ele>55.2</ele>
        <time>2016-10-09T10:08:06Z</time>
      </trkpt>
      <trkpt lat="43.39171" lon="6.66338">
        <ele>55.1</ele>
        <time>2016-10-09T10:08:08Z</time>
      </trkpt>
      <trkpt lat="43.39164" lon="6.66334">
        <ele>55.1</ele>
        <time>2016-10-09T10:08:10Z</time>
      </trkpt>
      <trkpt lat="43.39156" lon="6.66331">
        <ele>55</ele>
        <time>2016-10-09T10:08:12Z</time>
      </trkpt>
      <trkpt lat="43.3915" lon="6.66329">
        <ele>55</ele>
        <time>2016-10-09T10:08:14Z</time>
      </trkpt>
      <trkpt lat="43.39143" lon="6.66326">
        <ele>55</ele>
        <time>2016-10-09T10:08:16Z</time>
      </trkpt>
      <trkpt lat="43.39138" lon="6.66323">
        <ele>55</ele>
        <time>2016-10-09T10:08:18Z</time>
      </trkpt>
      <trkpt lat="43.39132" lon="6.6632">
        <ele>55.1</ele>
        <time>2016-10-09T10:08:20Z</time>
      </trkpt>
      <trkpt lat="43.39127" lon="6.66317">
        <ele>55.2</ele>
        <time>2016-10-09T10:08:22Z</time>
      </trkpt>
      <trkpt lat="43.39122" lon="6.66313">
        <ele>55.5</ele>
        <time>2016-10-09T10:08:24Z</time>
      </trkpt>
      <trkpt lat="43.39117" lon="6.66309">
        <ele>55.8</ele>
        <time>2016-10-09T10:08:26Z</time>
      </trkpt>
      <trkpt lat="43.39113" lon="6.66304">
        <ele>56.1</ele>
        <time>2016-10-09T10:08:28Z</time>
      </trkpt>
      <trkpt lat="43.39108" lon="6.66299">
        <ele>56.3</ele>
        <time>2016-10-09T10:08:30Z</time>
      </trkpt>
      <trkpt lat="43.39105" lon="6.66293">
        <ele>56.4</ele>
        <time>2016-10-09T10:08:32Z</time>
      </trkpt>
      <trkpt lat="43.39101" lon="6.66288">
        <ele>56.5</ele>
        <time>2016-10-09T10:08:34Z</time>
      </trkpt>
      <trkpt lat="43.39097" lon="6.66283">
        <ele>56.6</ele>
        <time>2016-10-09T10:08:36Z</time>
      </trkpt>
      <trkpt lat="43.39093" lon="6.66277">
        <ele>56.9</ele>
        <time>2016-10-09T10:08:38Z</time>
      </trkpt>
      <trkpt lat="43.39089" lon="6.66271">
        <ele>57.2</ele>
        <time>2016-10-09T10:08:40Z</time>
      </trkpt>
      <trkpt lat="43.39086" lon="6.66266">
        <ele>57.4</ele>
        <time>2016-10-09T10:08:42Z</time>
      </trkpt>
      <trkpt lat="43.39081" lon="6.6626">
        <ele>57.6</ele>
        <time>2016-10-09T10:08:44Z</time>
      </trkpt>
      <trkpt lat="43.39077" lon="6.66254">
        <ele>57.7</ele>
        <time>2016-10-09T10:08:46Z</time>
      </trkpt>
      <trkpt lat="43.39073" lon="6.6625">
        <ele>57.8</ele>
        <time>2016-10-09T10:08:48Z</time>
      </trkpt>
      <trkpt lat="43.39069" lon="6.66245">
        <ele>57.9</ele>
        <time>2016-10-09T10:08:50Z</time>
      </trkpt>
      <trkpt lat="43.39064" lon="6.66241">
        <ele>58.1</ele>
        <time>2016-10-09T10:08:52Z</time>
      </trkpt>
      <trkpt lat="43.3906" lon="6.66237">
        <ele>58.3</ele>
        <time>2016-10-09T10:08:54Z</time>
      </trkpt>
      <trkpt lat="43.39056" lon="6.66234">
        <ele>58.7</ele>
        <time>2016-10-09T10:08:56Z</time>
      </trkpt>
      <trkpt lat="43.39051" lon="6.66231">
        <ele>59.1</ele>
        <time>2016-10-09T10:08:58Z</time>
      </trkpt>
      <trkpt lat="43.39047" lon="6.66229">
        <ele>59.4</ele>
        <time>2016-10-09T10:09:00Z</time>
      </trkpt>
      <trkpt lat="43.39043" lon="6.66228">
        <ele>59.8</ele>
        <time>2016-10-09T10:09:02Z</time>
      </trkpt>
      <trkpt lat="43.39039" lon="6.66227">
        <ele>60.3</ele>
        <time>2016-10-09T10:09:04Z</time>
      </trkpt>
      <trkpt lat="43.39035" lon="6.66226">
        <ele>60.6</ele>
        <time>2016-10-09T10:09:06Z</time>
      </trkpt>
      <trkpt lat="43.39032" lon="6.66226">
        <ele>60.9</ele>
        <time>2016-10-09T10:09:08Z</time>
      </trkpt>
      <trkpt lat="43.39029" lon="6.66224">
        <ele>61.1</ele>
        <time>2016-10-09T10:09:10Z</time>
      </trkpt>
      <trkpt lat="43.39026" lon="6.66223">
        <ele>61.3</ele>
        <time>2016-10-09T10:09:12Z</time>
      </trkpt>
      <trkpt lat="43.39023" lon="6.6622">
        <ele>61.6</ele>
        <time>2016-10-09T10:09:14Z</time>
      </trkpt>
      <trkpt lat="43.3902" lon="6.66217">
        <ele>62</ele>
        <time>2016-10-09T10:09:16Z</time>
      </trkpt>
      <trkpt lat="43.39018" lon="6.66214">
        <ele>62.3</ele>
        <time>2016-10-09T10:09:18Z</time>
      </trkpt>
      <trkpt lat="43.39016" lon="6.66211">
        <ele>62.5</ele>
        <time>2016-10-09T10:09:20Z</time>
      </trkpt>
      <trkpt lat="43.39014" lon="6.66207">
        <ele>62.8</ele>
        <time>2016-10-09T10:09:22Z</time>
      </trkpt>
      <trkpt lat="43.39012" lon="6.66203">
        <ele>63.2</ele>
        <time>2016-10-09T10:09:24Z</time>
      </trkpt>
      <trkpt lat="43.39011" lon="6.662">
        <ele>63.5</ele>
        <time>2016-10-09T10:09:26Z</time>
      </trkpt>
      <trkpt lat="43.3901" lon="6.66196">
        <ele>63.6</ele>
        <time>2016-10-09T10:09:28Z</time>
      </trkpt>
      <trkpt lat="43.39009" lon="6.66191">
        <ele>63.7</ele>
        <time>2016-10-09T10:09:30Z</time>
      </trkpt>
      <trkpt lat="43.39009" lon="6.66186">
        <ele>63.8</ele>
        <time>2016-10-09T10:09:32Z</time>
      </trkpt>
      <trkpt lat="43.3901" lon="6.66179">
        <ele>63.9</ele>
        <time>2016-10-09T10:09:34Z</time>
      </trkpt>
      <trkpt lat="43.3901" lon="6.66174">
        <ele>64.2</ele>
        <time>2016-10-09T10:09:36Z</time>
      </trkpt>
      <trkpt lat="43.39011" lon="6.66167">
        <ele>64.4</ele>
        <time>2016-10-09T10:09:38Z</time>
      </trkpt>
      <trkpt lat="43.39011" lon="6.6616">
        <ele>64.7</ele>
        <time>2016-10-09T10:09:40Z</time>
      </trkpt>
      <trkpt lat="43.39011" lon="6.66152">
        <ele>64.9</ele>
        <time>2016-10-09T10:09:42Z</time>
      </trkpt>
      <trkpt lat="43.39012" lon="6.66144">
        <ele>65</ele>
        <time>2016-10-09T10:09:44Z</time>
      </trkpt>
      <trkpt lat="43.39012" lon="6.66136">
        <ele>65.1</ele>
        <time>2016-10-09T10:09:46Z</time>
      </trkpt>
      <trkpt lat="43.39012" lon="6.66128">
        <ele>65.2</ele>
        <time>2016-10-09T10:09:48Z</time>
      </trkpt>
      <trkpt lat="43.39011" lon="6.6612">
        <ele>65.2</ele>
        <time>2016-10-09T10:09:50Z</time>
      </trkpt>
      <trkpt lat="43.39011" lon="6.66112">
        <ele>65.3</ele>
        <time>2016-10-09T10:09:52Z</time>
      </trkpt>
      <trkpt lat="43.39011" lon="6.66105">
        <ele>65.5</ele>
        <time>2016-10-09T10:09:54Z</time>
      </trkpt>
      <trkpt lat="43.39012" lon="6.66097">
        <ele>65.6</ele>
        <time>2016-10-09T10:09:56Z</time>
      </trkpt>
      <trkpt lat="43.39014" lon="6.66089">
        <ele>65.9</ele>
        <time>2016-10-09T10:09:58Z</time>
      </trkpt>
      <trkpt lat="43.39014" lon="6.66081">
        <ele>66.1</ele>
        <time>2016-10-09T10:10:00Z</time>
      </trkpt>
      <trkpt lat="43.39015" lon="6.66072">
        <ele>66.2</ele>
        <time>2016-10-09T10:10:02Z</time>
      </trkpt>
      <trkpt lat="43.39016" lon="6.66063">
        <ele>66.2</ele>
        <time>2016-10-09T10:10:04Z</time>
      </trkpt>
      <trkpt lat="43.39016" lon="6.66053">
        <ele>66.3</ele>
        <time>2016-10-09T10:10:06Z</time>
      </trkpt>
      <trkpt lat="43.39016" lon="6.66044">
        <ele>66.3</ele>
        <time>2016-10-09T10:10:08Z</time>
      </trkpt>
      <trkpt lat="43.39013" lon="6.66036">
        <ele>66.3</ele>
        <time>2016-10-09T10:10:10Z</time>
      </trkpt>
      <trkpt lat="43.39009" lon="6.66029">
        <ele>66.3</ele>
        <time>2016-10-09T10:10:12Z</time>
      </trkpt>
      <trkpt lat="43.39003" lon="6.66024">
        <ele>66.3</ele>
        <time>2016-10-09T10:10:14Z</time>
      </trkpt>
      <trkpt lat="43.38997" lon="6.6602">
        <ele>66.3</ele>
        <time>2016-10-09T10:10:16Z</time>
      </trkpt>
      <trkpt lat="43.3899" lon="6.66016">
        <ele>66.3</ele>
        <time>2016-10-09T10:10:18Z</time>
      </trkpt>
      <trkpt lat="43.38983" lon="6.66013">
        <ele>66.3</ele>
        <time>2016-10-09T10:10:20Z</time>
      </trkpt>
      <trkpt lat="43.38976" lon="6.66011">
        <ele>66.3</ele>
        <time>2016-10-09T10:10:22Z</time>
      </trkpt>
      <trkpt lat="43.38969" lon="6.6601">
        <ele>66.3</ele>
        <time>2016-10-09T10:10:24Z</time>
      </trkpt>
      <trkpt lat="43.38961" lon="6.66007">
        <ele>66.3</ele>
        <time>2016-10-09T10:10:26Z</time>
      </trkpt>
      <trkpt lat="43.38955" lon="6.66004">
        <ele>66.4</ele>
        <time>2016-10-09T10:10:28Z</time>
      </trkpt>
      <trkpt lat="43.38949" lon="6.65998">
        <ele>66.5</ele>
        <time>2016-10-09T10:10:30Z</time>
      </trkpt>
      <trkpt lat="43.38944" lon="6.65992">
        <ele>66.7</ele>
        <time>2016-10-09T10:10:32Z</time>
      </trkpt>
      <trkpt lat="43.38939" lon="6.65986">
        <ele>67</ele>
        <time>2016-10-09T10:10:34Z</time>
      </trkpt>
      <trkpt lat="43.38935" lon="6.6598">
        <ele>67.2</ele>
        <time>2016-10-09T10:10:36Z</time>
      </trkpt>
      <trkpt lat="43.38932" lon="6.65974">
        <ele>67.5</ele>
        <time>2016-10-09T10:10:38Z</time>
      </trkpt>
      <trkpt lat="43.38928" lon="6.65969">
        <ele>67.6</ele>
        <time>2016-10-09T10:10:40Z</time>
      </trkpt>
      <trkpt lat="43.38924" lon="6.65964">
        <ele>67.8</ele>
        <time>2016-10-09T10:10:42Z</time>
      </trkpt>
      <trkpt lat="43.38919" lon="6.6596">
        <ele>68.1</ele>
        <time>2016-10-09T10:10:44Z</time>
      </trkpt>
      <trkpt lat="43.38914" lon="6.65956">
        <ele>68.4</ele>
        <time>2016-10-09T10:10:46Z</time>
      </trkpt>
      <trkpt lat="43.38909" lon="6.65953">
        <ele>68.6</ele>
        <time>2016-10-09T10:10:48Z</time>
      </trkpt>
      <trkpt lat="43.38903" lon="6.65949">
        <ele>68.7</ele>
        <time>2016-10-09T10:10:50Z</time>
      </trkpt>
      <trkpt lat="43.38897" lon="6.65945">
        <ele>68.8</ele>
        <time>2016-10-09T10:10:52Z</time>
      </trkpt>
      <trkpt lat="43.38892" lon="6.6594">
        <ele>69</ele>
        <time>2016-10-09T10:10:54Z</time>
      </trkpt>
      <trkpt lat="43.38886" lon="6.65936">
        <ele>69.1</ele>
        <time>2016-10-09T10:10:56Z</time>
      </trkpt>
      <trkpt lat="43.38882" lon="6.65931">
        <ele>69.4</ele>
        <time>2016-10-09T10:10:58Z</time>
      </trkpt>
      <trkpt lat="43.38877" lon="6.65927">
        <ele>69.6</ele>
        <time>2016-10-09T10:11:00Z</time>
      </trkpt>
      <trkpt lat="43.38872" lon="6.65922">
        <ele>69.8</ele>
        <time>2016-10-09T10:11:02Z</time>
      </trkpt>
      <trkpt lat="43.38866" lon="6.65918">
        <ele>69.8</ele>
        <time>2016-10-09T10:11:04Z</time>
      </trkpt>
      <trkpt lat="43.38859" lon="6.65916">
        <ele>69.9</ele>
        <time>2016-10-09T10:11:06Z</time>
      </trkpt>
      <trkpt lat="43.3885" lon="6.65915">
        <ele>69.9</ele>
        <time>2016-10-09T10:11:08Z</time>
      </trkpt>
      <trkpt lat="43.38842" lon="6.65913">
        <ele>69.8</ele>
        <time>2016-10-09T10:11:10Z</time>
      </trkpt>
      <trkpt lat="43.38835" lon="6.65912">
        <ele>69.8</ele>
        <time>2016-10-09T10:11:12Z</time>
      </trkpt>
      <trkpt lat="43.38828" lon="6.65911">
        <ele>69.8</ele>
        <time>2016-10-09T10:11:14Z</time>
      </trkpt>
      <trkpt lat="43.38822" lon="6.65909">
        <ele>69.8</ele>
        <time>2016-10-09T10:11:16Z</time>
      </trkpt>
      <trkpt lat="43.38815" lon="6.65908">
        <ele>69.7</ele>
        <time>2016-10-09T10:11:18Z</time>
      </trkpt>
      <trkpt lat="43.38808" lon="6.65909">
        <ele>69.7</ele>
        <time>2016-10-09T10:11:20Z</time>
      </trkpt>
      <trkpt lat="43.38801" lon="6.65912">
        <ele>69.6</ele>
        <time>2016-10-09T10:11:22Z</time>
      </trkpt>
      <trkpt lat="43.38794" lon="6.65917">
        <ele>69.5</ele>
        <time>2016-10-09T10:11:24Z</time>
      </trkpt>
      <trkpt lat="43.38788" lon="6.65922">
        <ele>69.5</ele>
        <time>2016-10-09T10:11:26Z</time>
      </trkpt>
      <trkpt lat="43.38782" lon="6.6593">
        <ele>69.4</ele>
        <time>2016-10-09T10:11:28Z</time>
      </trkpt>
      <trkpt lat="43.38776" lon="6.65941">
        <ele>69.3</ele>
        <time>2016-10-09T10:11:30Z</time>
      </trkpt>
      <trkpt lat="43.38773" lon="6.65957">
        <ele>69.1</ele>
        <time>2016-10-09T10:11:32Z</time>
      </trkpt>
      <trkpt lat="43.38768" lon="6.65973">
        <ele>68.9</ele>
        <time>2016-10-09T10:11:34Z</time>
      </trkpt>
      <trkpt lat="43.38762" lon="6.65987">
        <ele>68.7</ele>
        <time>2016-10-09T10:11:36Z</time>
      </trkpt>
      <trkpt lat="43.38754" lon="6.66">
        <ele>68.3</ele>
        <time>2016-10-09T10:11:38Z</time>
      </trkpt>
      <trkpt lat="43.38746" lon="6.66011">
        <ele>67.9</ele>
        <time>2016-10-09T10:11:40Z</time>
      </trkpt>
      <trkpt lat="43.38739" lon="6.66019">
        <ele>67.3</ele>
        <time>2016-10-09T10:11:42Z</time>
      </trkpt>
      <trkpt lat="43.38731" lon="6.66027">
        <ele>66.8</ele>
        <time>2016-10-09T10:11:44Z</time>
      </trkpt>
      <trkpt lat="43.38725" lon="6.66035">
        <ele>66.5</ele>
        <time>2016-10-09T10:11:46Z</time>
      </trkpt>
      <trkpt lat="43.3872" lon="6.66045">
        <ele>66.4</ele>
        <time>2016-10-09T10:11:48Z</time>
      </trkpt>
      <trkpt lat="43.38715" lon="6.66053">
        <ele>66.3</ele>
        <time>2016-10-09T10:11:50Z</time>
      </trkpt>
      <trkpt lat="43.3871" lon="6.66061">
        <ele>66.3</ele>
        <time>2016-10-09T10:11:52Z</time>
      </trkpt>
      <trkpt lat="43.38704" lon="6.66068">
        <ele>66.2</ele>
        <time>2016-10-09T10:11:54Z</time>
      </trkpt>
      <trkpt lat="43.38699" lon="6.66076">
        <ele>66.2</ele>
        <time>2016-10-09T10:11:56Z</time>
      </trkpt>
      <trkpt lat="43.38693" lon="6.66084">
        <ele>66.1</ele>
        <time>2016-10-09T10:11:58Z</time>
      </trkpt>
      <trkpt lat="43.38689" lon="6.66095">
        <ele>66.1</ele>
        <time>2016-10-09T10:12:00Z</time>
      </trkpt>
      <trkpt lat="43.38686" lon="6.66104">
        <ele>66</ele>
        <time>2016-10-09T10:12:02Z</time>
      </trkpt>
      <trkpt lat="43.38683" lon="6.66112">
        <ele>66</ele>
        <time>2016-10-09T10:12:04Z</time>
      </trkpt>
      <trkpt lat="43.3868" lon="6.6612">
        <ele>66.1</ele>
        <time>2016-10-09T10:12:06Z</time>
      </trkpt>
      <trkpt lat="43.38676" lon="6.66128">
        <ele>66.1</ele>
        <time>2016-10-09T10:12:08Z</time>
      </trkpt>
      <trkpt lat="43.38672" lon="6.66137">
        <ele>66.1</ele>
        <time>2016-10-09T10:12:10Z</time>
      </trkpt>
      <trkpt lat="43.38668" lon="6.66146">
        <ele>66.2</ele>
        <time>2016-10-09T10:12:12Z</time>
      </trkpt>
      <trkpt lat="43.38665" lon="6.66155">
        <ele>66.4</ele>
        <time>2016-10-09T10:12:14Z</time>
      </trkpt>
      <trkpt lat="43.38662" lon="6.66162">
        <ele>66.6</ele>
        <time>2016-10-09T10:12:16Z</time>
      </trkpt>
      <trkpt lat="43.3866" lon="6.6617">
        <ele>66.9</ele>
        <time>2016-10-09T10:12:18Z</time>
      </trkpt>
      <trkpt lat="43.38657" lon="6.66177">
        <ele>67.1</ele>
        <time>2016-10-09T10:12:20Z</time>
      </trkpt>
      <trkpt lat="43.38654" lon="6.66183">
        <ele>67.2</ele>
        <time>2016-10-09T10:12:22Z</time>
      </trkpt>
      <trkpt lat="43.38649" lon="6.66188">
        <ele>67.4</ele>
        <time>2016-10-09T10:12:24Z</time>
      </trkpt>
      <trkpt lat="43.38644" lon="6.66192">
        <ele>67.7</ele>
        <time>2016-10-09T10:12:26Z</time>
      </trkpt>
      <trkpt lat="43.38637" lon="6.66195">
        <ele>67.9</ele>
        <time>2016-10-09T10:12:28Z</time>
      </trkpt>
      <trkpt lat="43.3863" lon="6.66196">
        <ele>68.2</ele>
        <time>2016-10-09T10:12:30Z</time>
      </trkpt>
      <trkpt lat="43.38622" lon="6.66196">
        <ele>68.3</ele>
        <time>2016-10-09T10:12:32Z</time>
      </trkpt>
      <trkpt lat="43.38614" lon="6.66196">
        <ele>68.3</ele>
        <time>2016-10-09T10:12:34Z</time>
      </trkpt>
      <trkpt lat="43.38606" lon="6.66195">
        <ele>68.3</ele>
        <time>2016-10-09T10:12:36Z</time>
      </trkpt>
      <trkpt lat="43.38597" lon="6.66191">
        <ele>68.2</ele>
        <time>2016-10-09T10:12:38Z</time>
      </trkpt>
      <trkpt lat="43.38589" lon="6.66186">
        <ele>68.1</ele>
        <time>2016-10-09T10:12:40Z</time>
      </trkpt>
      <trkpt lat="43.38582" lon="6.66179">
        <ele>68</ele>
        <time>2016-10-09T10:12:42Z</time>
      </trkpt>
      <trkpt lat="43.38576" lon="6.66171">
        <ele>68</ele>
        <time>2016-10-09T10:12:44Z</time>
      </trkpt>
      <trkpt lat="43.38571" lon="6.66161">
        <ele>68</ele>
        <time>2016-10-09T10:12:46Z</time>
      </trkpt>
      <trkpt lat="43.38567" lon="6.66148">
        <ele>67.9</ele>
        <time>2016-10-09T10:12:48Z</time>
      </trkpt>
      <trkpt lat="43.38565" lon="6.66133">
        <ele>67.9</ele>
        <time>2016-10-09T10:12:50Z</time>
      </trkpt>
      <trkpt lat="43.38562" lon="6.6612">
        <ele>67.9</ele>
        <time>2016-10-09T10:12:52Z</time>
      </trkpt>
      <trkpt lat="43.38559" lon="6.66108">
        <ele>67.8</ele>
        <time>2016-10-09T10:12:54Z</time>
      </trkpt>
      <trkpt lat="43.38557" lon="6.66098">
        <ele>67.8</ele>
        <time>2016-10-09T10:12:56Z</time>
      </trkpt>
      <trkpt lat="43.38557" lon="6.66087">
        <ele>67.7</ele>
        <time>2016-10-09T10:12:58Z</time>
      </trkpt>
      <trkpt lat="43.38561" lon="6.66078">
        <ele>67.6</ele>
        <time>2016-10-09T10:13:00Z</time>
      </trkpt>
      <trkpt lat="43.38565" lon="6.66072">
        <ele>67.5</ele>
        <time>2016-10-09T10:13:02Z</time>
      </trkpt>
      <trkpt lat="43.3857" lon="6.66066">
        <ele>67.4</ele>
        <time>2016-10-09T10:13:04Z</time>
      </trkpt>
      <trkpt lat="43.38573" lon="6.66059">
        <ele>69.3</ele>
        <time>2016-10-09T10:13:06Z</time>
      </trkpt>
      <trkpt lat="43.38575" lon="6.66053">
        <ele>71</ele>
        <time>2016-10-09T10:13:08Z</time>
      </trkpt>
      <trkpt lat="43.38578" lon="6.6605">
        <ele>71.9</ele>
        <time>2016-10-09T10:13:10Z</time>
      </trkpt>
      <trkpt lat="43.3858" lon="6.66047">
        <ele>72.7</ele>
        <time>2016-10-09T10:13:12Z</time>
      </trkpt>
      <trkpt lat="43.38582" lon="6.66043">
        <ele>73.6</ele>
        <time>2016-10-09T10:13:14Z</time>
      </trkpt>
      <trkpt lat="43.38582" lon="6.6604">
        <ele>74.3</ele>
        <time>2016-10-09T10:13:18Z</time>
      </trkpt>
      <trkpt lat="43.38582" lon="6.66037">
        <ele>74.8</ele>
        <time>2016-10-09T10:13:20Z</time>
      </trkpt>
      <trkpt lat="43.38582" lon="6.66035">
        <ele>75.1</ele>
        <time>2016-10-09T10:13:22Z</time>
      </trkpt>
      <trkpt lat="43.38582" lon="6.66034">
        <ele>75.4</ele>
        <time>2016-10-09T10:13:24Z</time>
      </trkpt>
      <trkpt lat="43.38581" lon="6.66031">
        <ele>75.8</ele>
        <time>2016-10-09T10:13:26Z</time>
      </trkpt>
      <trkpt lat="43.38581" lon="6.66029">
        <ele>76.1</ele>
        <time>2016-10-09T10:13:28Z</time>
      </trkpt>
      <trkpt lat="43.38581" lon="6.66026">
        <ele>76.5</ele>
        <time>2016-10-09T10:13:30Z</time>
      </trkpt>
      <trkpt lat="43.38582" lon="6.66024">
        <ele>76.9</ele>
        <time>2016-10-09T10:13:32Z</time>
      </trkpt>
      <trkpt lat="43.38582" lon="6.66021">
        <ele>77.6</ele>
        <time>2016-10-09T10:13:34Z</time>
      </trkpt>
      <trkpt lat="43.38583" lon="6.66018">
        <ele>78.1</ele>
        <time>2016-10-09T10:13:36Z</time>
      </trkpt>
      <trkpt lat="43.38583" lon="6.66016">
        <ele>78.5</ele>
        <time>2016-10-09T10:13:38Z</time>
      </trkpt>
      <trkpt lat="43.38583" lon="6.66013">
        <ele>78.8</ele>
        <time>2016-10-09T10:13:40Z</time>
      </trkpt>
      <trkpt lat="43.38585" lon="6.66011">
        <ele>79.2</ele>
        <time>2016-10-09T10:13:42Z</time>
      </trkpt>
      <trkpt lat="43.38586" lon="6.66009">
        <ele>79.5</ele>
        <time>2016-10-09T10:13:44Z</time>
      </trkpt>
      <trkpt lat="43.38587" lon="6.66006">
        <ele>79.9</ele>
        <time>2016-10-09T10:13:46Z</time>
      </trkpt>
      <trkpt lat="43.38588" lon="6.66004">
        <ele>80.2</ele>
        <time>2016-10-09T10:13:48Z</time>
      </trkpt>
      <trkpt lat="43.38589" lon="6.66003">
        <ele>80.5</ele>
        <time>2016-10-09T10:13:50Z</time>
      </trkpt>
      <trkpt lat="43.3859" lon="6.66">
        <ele>81</ele>
        <time>2016-10-09T10:13:52Z</time>
      </trkpt>
      <trkpt lat="43.38592" lon="6.65999">
        <ele>81.4</ele>
        <time>2016-10-09T10:13:54Z</time>
      </trkpt>
      <trkpt lat="43.38594" lon="6.65999">
        <ele>81.8</ele>
        <time>2016-10-09T10:13:56Z</time>
      </trkpt>
      <trkpt lat="43.38596" lon="6.65998">
        <ele>82.3</ele>
        <time>2016-10-09T10:13:58Z</time>
      </trkpt>
      <trkpt lat="43.38598" lon="6.65998">
        <ele>82.7</ele>
        <time>2016-10-09T10:14:00Z</time>
      </trkpt>
      <trkpt lat="43.38601" lon="6.65997">
        <ele>83.1</ele>
        <time>2016-10-09T10:14:02Z</time>
      </trkpt>
      <trkpt lat="43.38603" lon="6.65996">
        <ele>83.6</ele>
        <time>2016-10-09T10:14:04Z</time>
      </trkpt>
      <trkpt lat="43.38605" lon="6.65997">
        <ele>84</ele>
        <time>2016-10-09T10:14:06Z</time>
      </trkpt>
      <trkpt lat="43.38606" lon="6.65997">
        <ele>84.2</ele>
        <time>2016-10-09T10:14:08Z</time>
      </trkpt>
      <trkpt lat="43.38608" lon="6.65997">
        <ele>84.4</ele>
        <time>2016-10-09T10:14:10Z</time>
      </trkpt>
      <trkpt lat="43.3861" lon="6.65997">
        <ele>84.6</ele>
        <time>2016-10-09T10:14:12Z</time>
      </trkpt>
      <trkpt lat="43.38612" lon="6.65997">
        <ele>84.8</ele>
        <time>2016-10-09T10:14:14Z</time>
      </trkpt>
      <trkpt lat="43.38614" lon="6.65997">
        <ele>84.9</ele>
        <time>2016-10-09T10:14:16Z</time>
      </trkpt>
      <trkpt lat="43.38616" lon="6.65998">
        <ele>85.1</ele>
        <time>2016-10-09T10:14:18Z</time>
      </trkpt>
      <trkpt lat="43.38618" lon="6.65997">
        <ele>85.2</ele>
        <time>2016-10-09T10:14:20Z</time>
      </trkpt>
      <trkpt lat="43.3862" lon="6.65996">
        <ele>85.4</ele>
        <time>2016-10-09T10:14:22Z</time>
      </trkpt>
      <trkpt lat="43.38622" lon="6.65996">
        <ele>85.6</ele>
        <time>2016-10-09T10:14:24Z</time>
      </trkpt>
      <trkpt lat="43.38624" lon="6.65995">
        <ele>85.8</ele>
        <time>2016-10-09T10:14:26Z</time>
      </trkpt>
      <trkpt lat="43.38625" lon="6.65994">
        <ele>85.9</ele>
        <time>2016-10-09T10:14:28Z</time>
      </trkpt>
      <trkpt lat="43.38627" lon="6.65994">
        <ele>86.1</ele>
        <time>2016-10-09T10:14:30Z</time>
      </trkpt>
      <trkpt lat="43.38629" lon="6.65993">
        <ele>86.4</ele>
        <time>2016-10-09T10:14:32Z</time>
      </trkpt>
      <trkpt lat="43.3863" lon="6.65993">
        <ele>86.6</ele>
        <time>2016-10-09T10:14:34Z</time>
      </trkpt>
      <trkpt lat="43.38632" lon="6.65993">
        <ele>86.8</ele>
        <time>2016-10-09T10:14:36Z</time>
      </trkpt>
      <trkpt lat="43.38633" lon="6.65992">
        <ele>87</ele>
        <time>2016-10-09T10:14:38Z</time>
      </trkpt>
      <trkpt lat="43.38635" lon="6.65992">
        <ele>87.2</ele>
        <time>2016-10-09T10:14:40Z</time>
      </trkpt>
      <trkpt lat="43.38637" lon="6.6599">
        <ele>87.4</ele>
        <time>2016-10-09T10:14:42Z</time>
      </trkpt>
      <trkpt lat="43.3864" lon="6.65987">
        <ele>87.7</ele>
        <time>2016-10-09T10:14:44Z</time>
      </trkpt>
      <trkpt lat="43.38643" lon="6.65985">
        <ele>88.1</ele>
        <time>2016-10-09T10:14:46Z</time>
      </trkpt>
      <trkpt lat="43.38645" lon="6.65981">
        <ele>88.4</ele>
        <time>2016-10-09T10:14:48Z</time>
      </trkpt>
      <trkpt lat="43.38647" lon="6.65976">
        <ele>88.8</ele>
        <time>2016-10-09T10:14:50Z</time>
      </trkpt>
      <trkpt lat="43.38648" lon="6.6597">
        <ele>89.1</ele>
        <time>2016-10-09T10:14:52Z</time>
      </trkpt>
      <trkpt lat="43.38648" lon="6.65965">
        <ele>89.5</ele>
        <time>2016-10-09T10:14:54Z</time>
      </trkpt>
      <trkpt lat="43.38648" lon="6.6596">
        <ele>89.9</ele>
        <time>2016-10-09T10:14:56Z</time>
      </trkpt>
      <trkpt lat="43.38649" lon="6.65956">
        <ele>90.3</ele>
        <time>2016-10-09T10:14:58Z</time>
      </trkpt>
      <trkpt lat="43.38649" lon="6.65952">
        <ele>90.7</ele>
        <time>2016-10-09T10:15:00Z</time>
      </trkpt>
      <trkpt lat="43.38651" lon="6.65948">
        <ele>91</ele>
        <time>2016-10-09T10:15:02Z</time>
      </trkpt>
      <trkpt lat="43.38652" lon="6.65944">
        <ele>91.3</ele>
        <time>2016-10-09T10:15:04Z</time>
      </trkpt>
      <trkpt lat="43.38652" lon="6.65941">
        <ele>91.5</ele>
        <time>2016-10-09T10:15:06Z</time>
      </trkpt>
      <trkpt lat="43.38653" lon="6.65938">
        <ele>91.8</ele>
        <time>2016-10-09T10:15:08Z</time>
      </trkpt>
      <trkpt lat="43.38653" lon="6.65934">
        <ele>92</ele>
        <time>2016-10-09T10:15:10Z</time>
      </trkpt>
      <trkpt lat="43.38654" lon="6.65931">
        <ele>92.4</ele>
        <time>2016-10-09T10:15:12Z</time>
      </trkpt>
      <trkpt lat="43.38654" lon="6.65927">
        <ele>92.8</ele>
        <time>2016-10-09T10:15:14Z</time>
      </trkpt>
      <trkpt lat="43.38654" lon="6.65924">
        <ele>93.1</ele>
        <time>2016-10-09T10:15:16Z</time>
      </trkpt>
      <trkpt lat="43.38654" lon="6.65921">
        <ele>93.4</ele>
        <time>2016-10-09T10:15:18Z</time>
      </trkpt>
      <trkpt lat="43.38654" lon="6.65918">
        <ele>93.7</ele>
        <time>2016-10-09T10:15:20Z</time>
      </trkpt>
      <trkpt lat="43.38654" lon="6.65915">
        <ele>94</ele>
        <time>2016-10-09T10:15:22Z</time>
      </trkpt>
      <trkpt lat="43.38655" lon="6.65912">
        <ele>94.4</ele>
        <time>2016-10-09T10:15:24Z</time>
      </trkpt>
      <trkpt lat="43.38655" lon="6.65909">
        <ele>94.7</ele>
        <time>2016-10-09T10:15:26Z</time>
      </trkpt>
      <trkpt lat="43.38656" lon="6.65904">
        <ele>95.3</ele>
        <time>2016-10-09T10:15:30Z</time>
      </trkpt>
      <trkpt lat="43.38657" lon="6.659">
        <ele>95.7</ele>
        <time>2016-10-09T10:15:32Z</time>
      </trkpt>
      <trkpt lat="43.38657" lon="6.65897">
        <ele>96.2</ele>
        <time>2016-10-09T10:15:34Z</time>
      </trkpt>
      <trkpt lat="43.38658" lon="6.65893">
        <ele>96.6</ele>
        <time>2016-10-09T10:15:36Z</time>
      </trkpt>
      <trkpt lat="43.38659" lon="6.65889">
        <ele>97.2</ele>
        <time>2016-10-09T10:15:38Z</time>
      </trkpt>
      <trkpt lat="43.3866" lon="6.65885">
        <ele>97.9</ele>
        <time>2016-10-09T10:15:40Z</time>
      </trkpt>
      <trkpt lat="43.3866" lon="6.65882">
        <ele>98.4</ele>
        <time>2016-10-09T10:15:42Z</time>
      </trkpt>
      <trkpt lat="43.3866" lon="6.65879">
        <ele>98.8</ele>
        <time>2016-10-09T10:15:44Z</time>
      </trkpt>
      <trkpt lat="43.38661" lon="6.65875">
        <ele>99.4</ele>
        <time>2016-10-09T10:15:46Z</time>
      </trkpt>
      <trkpt lat="43.38661" lon="6.65872">
        <ele>99.8</ele>
        <time>2016-10-09T10:15:48Z</time>
      </trkpt>
      <trkpt lat="43.38662" lon="6.65869">
        <ele>100.2</ele>
        <time>2016-10-09T10:15:50Z</time>
      </trkpt>
      <trkpt lat="43.38662" lon="6.65867">
        <ele>100.6</ele>
        <time>2016-10-09T10:15:52Z</time>
      </trkpt>
      <trkpt lat="43.38662" lon="6.65858">
        <ele>101.6</ele>
        <time>2016-10-09T10:16:12Z</time>
      </trkpt>
      <trkpt lat="43.38662" lon="6.65856">
        <ele>101.8</ele>
        <time>2016-10-09T10:16:14Z</time>
      </trkpt>
      <trkpt lat="43.38662" lon="6.65854">
        <ele>102</ele>
        <time>2016-10-09T10:16:16Z</time>
      </trkpt>
      <trkpt lat="43.38663" lon="6.65848">
        <ele>102.6</ele>
        <time>2016-10-09T10:16:30Z</time>
      </trkpt>
      <trkpt lat="43.38663" lon="6.65846">
        <ele>102.7</ele>
        <time>2016-10-09T10:16:32Z</time>
      </trkpt>
      <trkpt lat="43.38664" lon="6.65844">
        <ele>102.9</ele>
        <time>2016-10-09T10:16:34Z</time>
      </trkpt>
      <trkpt lat="43.38664" lon="6.65842">
        <ele>103</ele>
        <time>2016-10-09T10:16:36Z</time>
      </trkpt>
      <trkpt lat="43.38665" lon="6.65837">
        <ele>103.3</ele>
        <time>2016-10-09T10:17:35Z</time>
      </trkpt>
      <trkpt lat="43.38668" lon="6.65829">
        <ele>103.8</ele>
        <time>2016-10-09T10:17:37Z</time>
      </trkpt>
      <trkpt lat="43.38669" lon="6.65822">
        <ele>104.2</ele>
        <time>2016-10-09T10:18:49Z</time>
      </trkpt>
      <trkpt lat="43.38669" lon="6.6582">
        <ele>104.3</ele>
        <time>2016-10-09T10:18:58Z</time>
      </trkpt>
      <trkpt lat="43.38669" lon="6.65818">
        <ele>104.4</ele>
        <time>2016-10-09T10:19:00Z</time>
      </trkpt>
      <trkpt lat="43.38669" lon="6.65805">
        <ele>105.1</ele>
        <time>2016-10-09T10:19:02Z</time>
      </trkpt>
      <trkpt lat="43.38669" lon="6.65804">
        <ele>105.2</ele>
        <time>2016-10-09T10:19:04Z</time>
      </trkpt>
      <trkpt lat="43.38669" lon="6.65801">
        <ele>105.4</ele>
        <time>2016-10-09T10:19:10Z</time>
      </trkpt>
      <trkpt lat="43.3867" lon="6.65799">
        <ele>105.5</ele>
        <time>2016-10-09T10:19:12Z</time>
      </trkpt>
      <trkpt lat="43.3867" lon="6.65798">
        <ele>105.6</ele>
        <time>2016-10-09T10:19:14Z</time>
      </trkpt>
      <trkpt lat="43.3867" lon="6.65796">
        <ele>105.7</ele>
        <time>2016-10-09T10:19:16Z</time>
      </trkpt>
      <trkpt lat="43.3867" lon="6.65794">
        <ele>105.8</ele>
        <time>2016-10-09T10:19:18Z</time>
      </trkpt>
      <trkpt lat="43.3867" lon="6.6579">
        <ele>106</ele>
        <time>2016-10-09T10:19:26Z</time>
      </trkpt>
      <trkpt lat="43.38671" lon="6.65788">
        <ele>106.1</ele>
        <time>2016-10-09T10:19:28Z</time>
      </trkpt>
      <trkpt lat="43.38672" lon="6.65786">
        <ele>106.2</ele>
        <time>2016-10-09T10:19:30Z</time>
      </trkpt>
      <trkpt lat="43.38672" lon="6.65783">
        <ele>106.3</ele>
        <time>2016-10-09T10:19:50Z</time>
      </trkpt>
      <trkpt lat="43.38673" lon="6.65779">
        <ele>106.5</ele>
        <time>2016-10-09T10:19:52Z</time>
      </trkpt>
      <trkpt lat="43.38673" lon="6.65777">
        <ele>106.6</ele>
        <time>2016-10-09T10:21:20Z</time>
      </trkpt>
      <trkpt lat="43.38674" lon="6.65773">
        <ele>106.8</ele>
        <time>2016-10-09T10:23:31Z</time>
      </trkpt>
      <trkpt lat="43.3868" lon="6.65747">
        <ele>107.4</ele>
        <time>2016-10-09T10:23:33Z</time>
      </trkpt>
      <trkpt lat="43.3868" lon="6.65746">
        <ele>107.4</ele>
        <time>2016-10-09T10:23:35Z</time>
      </trkpt>
      <trkpt lat="43.38681" lon="6.65744">
        <ele>107.4</ele>
        <time>2016-10-09T10:23:37Z</time>
      </trkpt>
      <trkpt lat="43.38683" lon="6.6574">
        <ele>107.4</ele>
        <time>2016-10-09T10:24:54Z</time>
      </trkpt>
      <trkpt lat="43.38688" lon="6.65733">
        <ele>107.2</ele>
        <time>2016-10-09T10:24:56Z</time>
      </trkpt>
      <trkpt lat="43.38689" lon="6.65731">
        <ele>107.2</ele>
        <time>2016-10-09T10:25:18Z</time>
      </trkpt>
      <trkpt lat="43.38691" lon="6.6573">
        <ele>107.2</ele>
        <time>2016-10-09T10:25:20Z</time>
      </trkpt>
      <trkpt lat="43.38717" lon="6.65703">
        <ele>107.1</ele>
        <time>2016-10-09T10:27:58Z</time>
      </trkpt>
      <trkpt lat="43.38718" lon="6.65702">
        <ele>107.2</ele>
        <time>2016-10-09T10:28:00Z</time>
      </trkpt>
      <trkpt lat="43.38719" lon="6.65701">
        <ele>107.2</ele>
        <time>2016-10-09T10:28:02Z</time>
      </trkpt>
      <trkpt lat="43.3872" lon="6.657">
        <ele>107.2</ele>
        <time>2016-10-09T10:28:04Z</time>
      </trkpt>
      <trkpt lat="43.38722" lon="6.65698">
        <ele>107.2</ele>
        <time>2016-10-09T10:28:06Z</time>
      </trkpt>
      <trkpt lat="43.38723" lon="6.65697">
        <ele>107.3</ele>
        <time>2016-10-09T10:28:38Z</time>
      </trkpt>
      <trkpt lat="43.38734" lon="6.65692">
        <ele>108.1</ele>
        <time>2016-10-09T10:29:08Z</time>
      </trkpt>
      <trkpt lat="43.38735" lon="6.65691">
        <ele>108.1</ele>
        <time>2016-10-09T10:29:10Z</time>
      </trkpt>
      <trkpt lat="43.38736" lon="6.65691">
        <ele>108.3</ele>
        <time>2016-10-09T10:29:12Z</time>
      </trkpt>
      <trkpt lat="43.38738" lon="6.65691">
        <ele>108.4</ele>
        <time>2016-10-09T10:29:14Z</time>
      </trkpt>
      <trkpt lat="43.38739" lon="6.65691">
        <ele>108.5</ele>
        <time>2016-10-09T10:29:16Z</time>
      </trkpt>
      <trkpt lat="43.3874" lon="6.65691">
        <ele>108.6</ele>
        <time>2016-10-09T10:29:18Z</time>
      </trkpt>
      <trkpt lat="43.38742" lon="6.65691">
        <ele>108.9</ele>
        <time>2016-10-09T10:29:22Z</time>
      </trkpt>
      <trkpt lat="43.38746" lon="6.6569">
        <ele>109.3</ele>
        <time>2016-10-09T10:29:52Z</time>
      </trkpt>
      <trkpt lat="43.38747" lon="6.6569">
        <ele>109.4</ele>
        <time>2016-10-09T10:29:54Z</time>
      </trkpt>
      <trkpt lat="43.38751" lon="6.65689">
        <ele>109.7</ele>
        <time>2016-10-09T10:29:56Z</time>
      </trkpt>
      <trkpt lat="43.38752" lon="6.6569">
        <ele>109.8</ele>
        <time>2016-10-09T10:29:58Z</time>
      </trkpt>
      <trkpt lat="43.38754" lon="6.6569">
        <ele>109.9</ele>
        <time>2016-10-09T10:30:00Z</time>
      </trkpt>
      <trkpt lat="43.38755" lon="6.6569">
        <ele>110</ele>
        <time>2016-10-09T10:30:02Z</time>
      </trkpt>
      <trkpt lat="43.38761" lon="6.6569">
        <ele>110.6</ele>
        <time>2016-10-09T10:31:29Z</time>
      </trkpt>
      <trkpt lat="43.38768" lon="6.65688">
        <ele>111.1</ele>
        <time>2016-10-09T10:31:31Z</time>
      </trkpt>
      <trkpt lat="43.3877" lon="6.65688">
        <ele>111.1</ele>
        <time>2016-10-09T10:31:33Z</time>
      </trkpt>
      <trkpt lat="43.38772" lon="6.65688">
        <ele>111.2</ele>
        <time>2016-10-09T10:31:35Z</time>
      </trkpt>
      <trkpt lat="43.38773" lon="6.65688">
        <ele>111.2</ele>
        <time>2016-10-09T10:31:37Z</time>
      </trkpt>
      <trkpt lat="43.38774" lon="6.65688">
        <ele>111.3</ele>
        <time>2016-10-09T10:31:39Z</time>
      </trkpt>
      <trkpt lat="43.38776" lon="6.65687">
        <ele>111.3</ele>
        <time>2016-10-09T10:31:41Z</time>
      </trkpt>
      <trkpt lat="43.38777" lon="6.65686">
        <ele>111.4</ele>
        <time>2016-10-09T10:31:43Z</time>
      </trkpt>
      <trkpt lat="43.38778" lon="6.65686">
        <ele>111.4</ele>
        <time>2016-10-09T10:31:45Z</time>
      </trkpt>
      <trkpt lat="43.38779" lon="6.65685">
        <ele>111.5</ele>
        <time>2016-10-09T10:31:47Z</time>
      </trkpt>
      <trkpt lat="43.38781" lon="6.65684">
        <ele>111.5</ele>
        <time>2016-10-09T10:31:49Z</time>
      </trkpt>
      <trkpt lat="43.38782" lon="6.65684">
        <ele>111.5</ele>
        <time>2016-10-09T10:31:51Z</time>
      </trkpt>
      <trkpt lat="43.38783" lon="6.65683">
        <ele>111.6</ele>
        <time>2016-10-09T10:31:53Z</time>
      </trkpt>
      <trkpt lat="43.38785" lon="6.65682">
        <ele>111.6</ele>
        <time>2016-10-09T10:31:57Z</time>
      </trkpt>
      <trkpt lat="43.38791" lon="6.65676">
        <ele>111.9</ele>
        <time>2016-10-09T10:32:11Z</time>
      </trkpt>
      <trkpt lat="43.38792" lon="6.65675">
        <ele>111.9</ele>
        <time>2016-10-09T10:32:13Z</time>
      </trkpt>
      <trkpt lat="43.38793" lon="6.65674">
        <ele>112</ele>
        <time>2016-10-09T10:32:15Z</time>
      </trkpt>
      <trkpt lat="43.38794" lon="6.65673">
        <ele>112.1</ele>
        <time>2016-10-09T10:32:17Z</time>
      </trkpt>
      <trkpt lat="43.38796" lon="6.65672">
        <ele>112.2</ele>
        <time>2016-10-09T10:32:19Z</time>
      </trkpt>
      <trkpt lat="43.38797" lon="6.65671">
        <ele>112.3</ele>
        <time>2016-10-09T10:32:21Z</time>
      </trkpt>
      <trkpt lat="43.388" lon="6.6567">
        <ele>112.4</ele>
        <time>2016-10-09T10:32:23Z</time>
      </trkpt>
      <trkpt lat="43.38802" lon="6.65669">
        <ele>112.5</ele>
        <time>2016-10-09T10:32:25Z</time>
      </trkpt>
      <trkpt lat="43.38804" lon="6.65668">
        <ele>112.6</ele>
        <time>2016-10-09T10:32:27Z</time>
      </trkpt>
      <trkpt lat="43.38806" lon="6.65667">
        <ele>112.7</ele>
        <time>2016-10-09T10:32:29Z</time>
      </trkpt>
      <trkpt lat="43.38808" lon="6.65667">
        <ele>112.8</ele>
        <time>2016-10-09T10:32:31Z</time>
      </trkpt>
      <trkpt lat="43.38812" lon="6.65666">
        <ele>113</ele>
        <time>2016-10-09T10:32:48Z</time>
      </trkpt>
      <trkpt lat="43.38813" lon="6.65666">
        <ele>113</ele>
        <time>2016-10-09T10:32:50Z</time>
      </trkpt>
      <trkpt lat="43.38814" lon="6.65667">
        <ele>113.1</ele>
        <time>2016-10-09T10:32:52Z</time>
      </trkpt>
      <trkpt lat="43.38816" lon="6.65667">
        <ele>113.3</ele>
        <time>2016-10-09T10:32:54Z</time>
      </trkpt>
      <trkpt lat="43.38817" lon="6.65667">
        <ele>113.4</ele>
        <time>2016-10-09T10:32:56Z</time>
      </trkpt>
      <trkpt lat="43.38819" lon="6.65668">
        <ele>113.6</ele>
        <time>2016-10-09T10:32:58Z</time>
      </trkpt>
      <trkpt lat="43.38821" lon="6.65669">
        <ele>113.8</ele>
        <time>2016-10-09T10:33:13Z</time>
      </trkpt>
      <trkpt lat="43.38822" lon="6.65669">
        <ele>113.9</ele>
        <time>2016-10-09T10:33:15Z</time>
      </trkpt>
      <trkpt lat="43.38823" lon="6.65669">
        <ele>114</ele>
        <time>2016-10-09T10:33:17Z</time>
      </trkpt>
      <trkpt lat="43.38826" lon="6.6567">
        <ele>114.2</ele>
        <time>2016-10-09T10:33:21Z</time>
      </trkpt>
      <trkpt lat="43.38829" lon="6.6567">
        <ele>114.5</ele>
        <time>2016-10-09T10:33:31Z</time>
      </trkpt>
      <trkpt lat="43.3883" lon="6.6567">
        <ele>114.6</ele>
        <time>2016-10-09T10:33:33Z</time>
      </trkpt>
      <trkpt lat="43.38832" lon="6.65671">
        <ele>114.8</ele>
        <time>2016-10-09T10:33:35Z</time>
      </trkpt>
      <trkpt lat="43.38834" lon="6.65671">
        <ele>115</ele>
        <time>2016-10-09T10:33:37Z</time>
      </trkpt>
      <trkpt lat="43.38835" lon="6.65672">
        <ele>115.1</ele>
        <time>2016-10-09T10:33:39Z</time>
      </trkpt>
      <trkpt lat="43.38837" lon="6.65672">
        <ele>115.3</ele>
        <time>2016-10-09T10:33:41Z</time>
      </trkpt>
      <trkpt lat="43.38839" lon="6.65673">
        <ele>115.5</ele>
        <time>2016-10-09T10:33:43Z</time>
      </trkpt>
      <trkpt lat="43.3884" lon="6.65673">
        <ele>115.7</ele>
        <time>2016-10-09T10:33:45Z</time>
      </trkpt>
      <trkpt lat="43.38846" lon="6.65674">
        <ele>116.4</ele>
        <time>2016-10-09T10:33:57Z</time>
      </trkpt>
      <trkpt lat="43.38847" lon="6.65674">
        <ele>116.6</ele>
        <time>2016-10-09T10:33:59Z</time>
      </trkpt>
      <trkpt lat="43.38851" lon="6.65675">
        <ele>117.3</ele>
        <time>2016-10-09T10:34:09Z</time>
      </trkpt>
      <trkpt lat="43.38854" lon="6.65676">
        <ele>117.8</ele>
        <time>2016-10-09T10:34:15Z</time>
      </trkpt>
      <trkpt lat="43.38856" lon="6.65676">
        <ele>118</ele>
        <time>2016-10-09T10:34:17Z</time>
      </trkpt>
      <trkpt lat="43.38858" lon="6.65677">
        <ele>118.3</ele>
        <time>2016-10-09T10:34:19Z</time>
      </trkpt>
      <trkpt lat="43.3886" lon="6.65678">
        <ele>118.6</ele>
        <time>2016-10-09T10:34:21Z</time>
      </trkpt>
      <trkpt lat="43.38862" lon="6.65678">
        <ele>118.8</ele>
        <time>2016-10-09T10:34:23Z</time>
      </trkpt>
      <trkpt lat="43.38864" lon="6.65679">
        <ele>119.1</ele>
        <time>2016-10-09T10:34:25Z</time>
      </trkpt>
      <trkpt lat="43.38866" lon="6.65679">
        <ele>119.4</ele>
        <time>2016-10-09T10:34:27Z</time>
      </trkpt>
      <trkpt lat="43.38867" lon="6.65679">
        <ele>119.6</ele>
        <time>2016-10-09T10:34:29Z</time>
      </trkpt>
      <trkpt lat="43.38869" lon="6.65679">
        <ele>119.9</ele>
        <time>2016-10-09T10:34:31Z</time>
      </trkpt>
      <trkpt lat="43.38871" lon="6.6568">
        <ele>120.2</ele>
        <time>2016-10-09T10:34:35Z</time>
      </trkpt>
      <trkpt lat="43.38873" lon="6.6568">
        <ele>120.5</ele>
        <time>2016-10-09T10:34:37Z</time>
      </trkpt>
      <trkpt lat="43.38874" lon="6.65681">
        <ele>120.8</ele>
        <time>2016-10-09T10:34:39Z</time>
      </trkpt>
      <trkpt lat="43.38876" lon="6.65681">
        <ele>121</ele>
        <time>2016-10-09T10:34:41Z</time>
      </trkpt>
      <trkpt lat="43.38878" lon="6.65682">
        <ele>121.2</ele>
        <time>2016-10-09T10:34:43Z</time>
      </trkpt>
      <trkpt lat="43.3888" lon="6.65682">
        <ele>121.4</ele>
        <time>2016-10-09T10:34:45Z</time>
      </trkpt>
      <trkpt lat="43.38882" lon="6.65682">
        <ele>121.7</ele>
        <time>2016-10-09T10:34:47Z</time>
      </trkpt>
      <trkpt lat="43.38884" lon="6.65683">
        <ele>121.9</ele>
        <time>2016-10-09T10:34:49Z</time>
      </trkpt>
      <trkpt lat="43.38886" lon="6.65683">
        <ele>122.1</ele>
        <time>2016-10-09T10:34:51Z</time>
      </trkpt>
      <trkpt lat="43.38888" lon="6.65684">
        <ele>122.3</ele>
        <time>2016-10-09T10:34:53Z</time>
      </trkpt>
      <trkpt lat="43.3889" lon="6.65684">
        <ele>122.5</ele>
        <time>2016-10-09T10:34:55Z</time>
      </trkpt>
      <trkpt lat="43.38892" lon="6.65685">
        <ele>122.7</ele>
        <time>2016-10-09T10:34:57Z</time>
      </trkpt>
      <trkpt lat="43.38893" lon="6.65685">
        <ele>122.9</ele>
        <time>2016-10-09T10:34:59Z</time>
      </trkpt>
      <trkpt lat="43.38894" lon="6.65686">
        <ele>123.1</ele>
        <time>2016-10-09T10:35:01Z</time>
      </trkpt>
      <trkpt lat="43.38896" lon="6.65686">
        <ele>123.4</ele>
        <time>2016-10-09T10:35:03Z</time>
      </trkpt>
      <trkpt lat="43.38897" lon="6.65687">
        <ele>123.5</ele>
        <time>2016-10-09T10:35:05Z</time>
      </trkpt>
      <trkpt lat="43.38899" lon="6.65687">
        <ele>123.7</ele>
        <time>2016-10-09T10:35:07Z</time>
      </trkpt>
      <trkpt lat="43.389" lon="6.65687">
        <ele>123.8</ele>
        <time>2016-10-09T10:35:09Z</time>
      </trkpt>
      <trkpt lat="43.38901" lon="6.65687">
        <ele>124</ele>
        <time>2016-10-09T10:35:11Z</time>
      </trkpt>
      <trkpt lat="43.38903" lon="6.65686">
        <ele>124.2</ele>
        <time>2016-10-09T10:35:13Z</time>
      </trkpt>
      <trkpt lat="43.38905" lon="6.65686">
        <ele>124.4</ele>
        <time>2016-10-09T10:35:15Z</time>
      </trkpt>
      <trkpt lat="43.38907" lon="6.65686">
        <ele>124.6</ele>
        <time>2016-10-09T10:35:17Z</time>
      </trkpt>
      <trkpt lat="43.38908" lon="6.65686">
        <ele>124.8</ele>
        <time>2016-10-09T10:35:19Z</time>
      </trkpt>
      <trkpt lat="43.3891" lon="6.65687">
        <ele>125.1</ele>
        <time>2016-10-09T10:35:21Z</time>
      </trkpt>
      <trkpt lat="43.38911" lon="6.65687">
        <ele>125.4</ele>
        <time>2016-10-09T10:35:23Z</time>
      </trkpt>
      <trkpt lat="43.38913" lon="6.65688">
        <ele>125.7</ele>
        <time>2016-10-09T10:35:25Z</time>
      </trkpt>
      <trkpt lat="43.38915" lon="6.65688">
        <ele>126</ele>
        <time>2016-10-09T10:35:27Z</time>
      </trkpt>
      <trkpt lat="43.38916" lon="6.6569">
        <ele>126.3</ele>
        <time>2016-10-09T10:35:29Z</time>
      </trkpt>
      <trkpt lat="43.38917" lon="6.65691">
        <ele>126.6</ele>
        <time>2016-10-09T10:35:31Z</time>
      </trkpt>
      <trkpt lat="43.38919" lon="6.65692">
        <ele>126.9</ele>
        <time>2016-10-09T10:35:33Z</time>
      </trkpt>
      <trkpt lat="43.3892" lon="6.65694">
        <ele>127.3</ele>
        <time>2016-10-09T10:35:35Z</time>
      </trkpt>
      <trkpt lat="43.38922" lon="6.65695">
        <ele>127.6</ele>
        <time>2016-10-09T10:35:37Z</time>
      </trkpt>
      <trkpt lat="43.38923" lon="6.65696">
        <ele>128</ele>
        <time>2016-10-09T10:35:39Z</time>
      </trkpt>
      <trkpt lat="43.38926" lon="6.65698">
        <ele>128.7</ele>
        <time>2016-10-09T10:35:43Z</time>
      </trkpt>
      <trkpt lat="43.38927" lon="6.65699">
        <ele>129</ele>
        <time>2016-10-09T10:35:45Z</time>
      </trkpt>
      <trkpt lat="43.38928" lon="6.65699">
        <ele>129.3</ele>
        <time>2016-10-09T10:35:47Z</time>
      </trkpt>
      <trkpt lat="43.38929" lon="6.657">
        <ele>129.6</ele>
        <time>2016-10-09T10:35:49Z</time>
      </trkpt>
      <trkpt lat="43.38931" lon="6.65701">
        <ele>129.9</ele>
        <time>2016-10-09T10:35:51Z</time>
      </trkpt>
      <trkpt lat="43.38933" lon="6.65701">
        <ele>130.2</ele>
        <time>2016-10-09T10:35:53Z</time>
      </trkpt>
      <trkpt lat="43.38934" lon="6.65701">
        <ele>130.4</ele>
        <time>2016-10-09T10:35:55Z</time>
      </trkpt>
      <trkpt lat="43.38936" lon="6.65702">
        <ele>130.7</ele>
        <time>2016-10-09T10:35:57Z</time>
      </trkpt>
      <trkpt lat="43.38937" lon="6.65702">
        <ele>130.8</ele>
        <time>2016-10-09T10:35:59Z</time>
      </trkpt>
      <trkpt lat="43.38939" lon="6.65703">
        <ele>131.1</ele>
        <time>2016-10-09T10:36:01Z</time>
      </trkpt>
      <trkpt lat="43.3894" lon="6.65704">
        <ele>131.3</ele>
        <time>2016-10-09T10:36:03Z</time>
      </trkpt>
      <trkpt lat="43.38941" lon="6.65704">
        <ele>131.5</ele>
        <time>2016-10-09T10:36:05Z</time>
      </trkpt>
      <trkpt lat="43.38943" lon="6.65704">
        <ele>131.9</ele>
        <time>2016-10-09T10:36:09Z</time>
      </trkpt>
      <trkpt lat="43.38947" lon="6.65704">
        <ele>132.8</ele>
        <time>2016-10-09T10:36:25Z</time>
      </trkpt>
      <trkpt lat="43.38948" lon="6.65704">
        <ele>133.1</ele>
        <time>2016-10-09T10:36:27Z</time>
      </trkpt>
      <trkpt lat="43.3895" lon="6.65705">
        <ele>133.4</ele>
        <time>2016-10-09T10:36:29Z</time>
      </trkpt>
      <trkpt lat="43.38952" lon="6.65706">
        <ele>133.9</ele>
        <time>2016-10-09T10:36:31Z</time>
      </trkpt>
      <trkpt lat="43.38953" lon="6.65706">
        <ele>134.1</ele>
        <time>2016-10-09T10:36:33Z</time>
      </trkpt>
      <trkpt lat="43.38954" lon="6.65706">
        <ele>134.2</ele>
        <time>2016-10-09T10:36:35Z</time>
      </trkpt>
      <trkpt lat="43.38956" lon="6.65706">
        <ele>134.4</ele>
        <time>2016-10-09T10:36:37Z</time>
      </trkpt>
      <trkpt lat="43.38957" lon="6.65706">
        <ele>134.6</ele>
        <time>2016-10-09T10:36:39Z</time>
      </trkpt>
      <trkpt lat="43.3896" lon="6.65707">
        <ele>134.9</ele>
        <time>2016-10-09T10:36:44Z</time>
      </trkpt>
      <trkpt lat="43.38961" lon="6.65707">
        <ele>135.1</ele>
        <time>2016-10-09T10:36:46Z</time>
      </trkpt>
      <trkpt lat="43.38962" lon="6.65707">
        <ele>135.3</ele>
        <time>2016-10-09T10:36:58Z</time>
      </trkpt>
      <trkpt lat="43.38965" lon="6.65707">
        <ele>135.6</ele>
        <time>2016-10-09T10:37:00Z</time>
      </trkpt>
      <trkpt lat="43.38966" lon="6.65708">
        <ele>135.9</ele>
        <time>2016-10-09T10:37:02Z</time>
      </trkpt>
      <trkpt lat="43.38968" lon="6.65708">
        <ele>136.3</ele>
        <time>2016-10-09T10:37:04Z</time>
      </trkpt>
      <trkpt lat="43.38969" lon="6.65708">
        <ele>136.4</ele>
        <time>2016-10-09T10:37:06Z</time>
      </trkpt>
      <trkpt lat="43.3897" lon="6.65708">
        <ele>136.8</ele>
        <time>2016-10-09T10:37:08Z</time>
      </trkpt>
      <trkpt lat="43.38972" lon="6.65708">
        <ele>137.3</ele>
        <time>2016-10-09T10:37:10Z</time>
      </trkpt>
      <trkpt lat="43.38974" lon="6.65708">
        <ele>137.7</ele>
        <time>2016-10-09T10:37:12Z</time>
      </trkpt>
      <trkpt lat="43.38976" lon="6.65709">
        <ele>138.1</ele>
        <time>2016-10-09T10:37:14Z</time>
      </trkpt>
      <trkpt lat="43.38977" lon="6.65709">
        <ele>138.5</ele>
        <time>2016-10-09T10:37:16Z</time>
      </trkpt>
      <trkpt lat="43.38978" lon="6.65709">
        <ele>138.8</ele>
        <time>2016-10-09T10:37:18Z</time>
      </trkpt>
      <trkpt lat="43.38979" lon="6.65709">
        <ele>139.1</ele>
        <time>2016-10-09T10:37:20Z</time>
      </trkpt>
      <trkpt lat="43.38982" lon="6.6571">
        <ele>139.8</ele>
        <time>2016-10-09T10:37:26Z</time>
      </trkpt>
      <trkpt lat="43.38983" lon="6.6571">
        <ele>140.2</ele>
        <time>2016-10-09T10:37:28Z</time>
      </trkpt>
      <trkpt lat="43.38985" lon="6.6571">
        <ele>140.6</ele>
        <time>2016-10-09T10:37:30Z</time>
      </trkpt>
      <trkpt lat="43.38986" lon="6.6571">
        <ele>141</ele>
        <time>2016-10-09T10:37:32Z</time>
      </trkpt>
      <trkpt lat="43.38988" lon="6.6571">
        <ele>141.4</ele>
        <time>2016-10-09T10:37:34Z</time>
      </trkpt>
      <trkpt lat="43.38989" lon="6.65711">
        <ele>141.7</ele>
        <time>2016-10-09T10:37:36Z</time>
      </trkpt>
      <trkpt lat="43.3899" lon="6.65711">
        <ele>142</ele>
        <time>2016-10-09T10:37:38Z</time>
      </trkpt>
      <trkpt lat="43.38991" lon="6.65711">
        <ele>142.4</ele>
        <time>2016-10-09T10:37:40Z</time>
      </trkpt>
      <trkpt lat="43.38992" lon="6.65711">
        <ele>142.7</ele>
        <time>2016-10-09T10:37:42Z</time>
      </trkpt>
      <trkpt lat="43.38997" lon="6.65713">
        <ele>143.7</ele>
        <time>2016-10-09T10:37:50Z</time>
      </trkpt>
      <trkpt lat="43.38998" lon="6.65713">
        <ele>144</ele>
        <time>2016-10-09T10:37:52Z</time>
      </trkpt>
      <trkpt lat="43.38999" lon="6.65713">
        <ele>144.2</ele>
        <time>2016-10-09T10:37:54Z</time>
      </trkpt>
      <trkpt lat="43.39001" lon="6.65714">
        <ele>144.5</ele>
        <time>2016-10-09T10:37:58Z</time>
      </trkpt>
      <trkpt lat="43.39004" lon="6.65714">
        <ele>145</ele>
        <time>2016-10-09T10:38:00Z</time>
      </trkpt>
      <trkpt lat="43.39008" lon="6.65714">
        <ele>145.5</ele>
        <time>2016-10-09T10:38:02Z</time>
      </trkpt>
      <trkpt lat="43.39011" lon="6.65716">
        <ele>145.9</ele>
        <time>2016-10-09T10:38:04Z</time>
      </trkpt>
      <trkpt lat="43.39014" lon="6.65717">
        <ele>146.4</ele>
        <time>2016-10-09T10:38:06Z</time>
      </trkpt>
      <trkpt lat="43.39017" lon="6.65718">
        <ele>146.8</ele>
        <time>2016-10-09T10:38:08Z</time>
      </trkpt>
      <trkpt lat="43.3902" lon="6.65718">
        <ele>147.2</ele>
        <time>2016-10-09T10:38:10Z</time>
      </trkpt>
      <trkpt lat="43.39024" lon="6.65718">
        <ele>147.7</ele>
        <time>2016-10-09T10:38:12Z</time>
      </trkpt>
      <trkpt lat="43.39027" lon="6.65718">
        <ele>148</ele>
        <time>2016-10-09T10:38:14Z</time>
      </trkpt>
      <trkpt lat="43.39031" lon="6.65718">
        <ele>148.3</ele>
        <time>2016-10-09T10:38:16Z</time>
      </trkpt>
      <trkpt lat="43.39034" lon="6.65718">
        <ele>148.6</ele>
        <time>2016-10-09T10:38:18Z</time>
      </trkpt>
      <trkpt lat="43.39037" lon="6.65718">
        <ele>148.9</ele>
        <time>2016-10-09T10:38:20Z</time>
      </trkpt>
      <trkpt lat="43.3904" lon="6.65717">
        <ele>149.2</ele>
        <time>2016-10-09T10:38:22Z</time>
      </trkpt>
      <trkpt lat="43.39044" lon="6.65718">
        <ele>149.6</ele>
        <time>2016-10-09T10:38:24Z</time>
      </trkpt>
      <trkpt lat="43.39047" lon="6.65718">
        <ele>149.9</ele>
        <time>2016-10-09T10:38:26Z</time>
      </trkpt>
      <trkpt lat="43.39051" lon="6.65718">
        <ele>150.4</ele>
        <time>2016-10-09T10:38:28Z</time>
      </trkpt>
      <trkpt lat="43.39055" lon="6.65718">
        <ele>151</ele>
        <time>2016-10-09T10:38:30Z</time>
      </trkpt>
      <trkpt lat="43.39058" lon="6.65719">
        <ele>151.6</ele>
        <time>2016-10-09T10:38:32Z</time>
      </trkpt>
      <trkpt lat="43.39062" lon="6.65718">
        <ele>152.3</ele>
        <time>2016-10-09T10:38:34Z</time>
      </trkpt>
      <trkpt lat="43.39065" lon="6.65718">
        <ele>152.9</ele>
        <time>2016-10-09T10:38:36Z</time>
      </trkpt>
      <trkpt lat="43.39069" lon="6.65717">
        <ele>153.5</ele>
        <time>2016-10-09T10:38:38Z</time>
      </trkpt>
      <trkpt lat="43.39072" lon="6.65717">
        <ele>154</ele>
        <time>2016-10-09T10:38:40Z</time>
      </trkpt>
      <trkpt lat="43.39075" lon="6.65716">
        <ele>154.5</ele>
        <time>2016-10-09T10:38:42Z</time>
      </trkpt>
      <trkpt lat="43.39079" lon="6.65715">
        <ele>154.9</ele>
        <time>2016-10-09T10:38:44Z</time>
      </trkpt>
      <trkpt lat="43.39082" lon="6.65715">
        <ele>155.4</ele>
        <time>2016-10-09T10:38:46Z</time>
      </trkpt>
      <trkpt lat="43.39085" lon="6.65714">
        <ele>155.9</ele>
        <time>2016-10-09T10:38:48Z</time>
      </trkpt>
      <trkpt lat="43.39088" lon="6.65714">
        <ele>156.3</ele>
        <time>2016-10-09T10:38:50Z</time>
      </trkpt>
      <trkpt lat="43.39091" lon="6.65715">
        <ele>156.7</ele>
        <time>2016-10-09T10:38:52Z</time>
      </trkpt>
      <trkpt lat="43.39094" lon="6.65714">
        <ele>157.1</ele>
        <time>2016-10-09T10:38:54Z</time>
      </trkpt>
      <trkpt lat="43.39097" lon="6.65713">
        <ele>157.4</ele>
        <time>2016-10-09T10:38:56Z</time>
      </trkpt>
      <trkpt lat="43.39101" lon="6.65713">
        <ele>157.8</ele>
        <time>2016-10-09T10:38:58Z</time>
      </trkpt>
      <trkpt lat="43.39105" lon="6.65713">
        <ele>158</ele>
        <time>2016-10-09T10:39:00Z</time>
      </trkpt>
      <trkpt lat="43.39109" lon="6.65714">
        <ele>158.3</ele>
        <time>2016-10-09T10:39:02Z</time>
      </trkpt>
      <trkpt lat="43.39113" lon="6.65714">
        <ele>158.5</ele>
        <time>2016-10-09T10:39:04Z</time>
      </trkpt>
      <trkpt lat="43.39117" lon="6.65714">
        <ele>158.9</ele>
        <time>2016-10-09T10:39:06Z</time>
      </trkpt>
      <trkpt lat="43.39122" lon="6.65713">
        <ele>159.3</ele>
        <time>2016-10-09T10:39:08Z</time>
      </trkpt>
      <trkpt lat="43.39126" lon="6.65712">
        <ele>159.7</ele>
        <time>2016-10-09T10:39:10Z</time>
      </trkpt>
      <trkpt lat="43.3913" lon="6.65713">
        <ele>160</ele>
        <time>2016-10-09T10:39:12Z</time>
      </trkpt>
      <trkpt lat="43.39135" lon="6.65712">
        <ele>160.2</ele>
        <time>2016-10-09T10:39:14Z</time>
      </trkpt>
      <trkpt lat="43.39138" lon="6.65712">
        <ele>160.4</ele>
        <time>2016-10-09T10:39:16Z</time>
      </trkpt>
      <trkpt lat="43.39142" lon="6.6571">
        <ele>160.6</ele>
        <time>2016-10-09T10:39:18Z</time>
      </trkpt>
      <trkpt lat="43.39144" lon="6.65706">
        <ele>160.8</ele>
        <time>2016-10-09T10:39:20Z</time>
      </trkpt>
      <trkpt lat="43.39146" lon="6.65702">
        <ele>161.2</ele>
        <time>2016-10-09T10:39:22Z</time>
      </trkpt>
      <trkpt lat="43.39146" lon="6.65698">
        <ele>161.3</ele>
        <time>2016-10-09T10:39:24Z</time>
      </trkpt>
      <trkpt lat="43.39146" lon="6.65693">
        <ele>161.5</ele>
        <time>2016-10-09T10:39:26Z</time>
      </trkpt>
      <trkpt lat="43.39147" lon="6.65689">
        <ele>161.6</ele>
        <time>2016-10-09T10:39:28Z</time>
      </trkpt>
      <trkpt lat="43.39148" lon="6.65684">
        <ele>161.8</ele>
        <time>2016-10-09T10:39:30Z</time>
      </trkpt>
      <trkpt lat="43.3915" lon="6.65679">
        <ele>162</ele>
        <time>2016-10-09T10:39:32Z</time>
      </trkpt>
      <trkpt lat="43.39151" lon="6.65673">
        <ele>162.2</ele>
        <time>2016-10-09T10:39:34Z</time>
      </trkpt>
      <trkpt lat="43.39152" lon="6.65667">
        <ele>162.4</ele>
        <time>2016-10-09T10:39:36Z</time>
      </trkpt>
      <trkpt lat="43.39153" lon="6.6566">
        <ele>162.6</ele>
        <time>2016-10-09T10:39:38Z</time>
      </trkpt>
      <trkpt lat="43.39154" lon="6.65653">
        <ele>162.9</ele>
        <time>2016-10-09T10:39:40Z</time>
      </trkpt>
      <trkpt lat="43.39156" lon="6.65644">
        <ele>162.5</ele>
        <time>2016-10-09T10:39:42Z</time>
      </trkpt>
      <trkpt lat="43.3916" lon="6.65636">
        <ele>161.2</ele>
        <time>2016-10-09T10:39:44Z</time>
      </trkpt>
      <trkpt lat="43.39164" lon="6.65626">
        <ele>159.3</ele>
        <time>2016-10-09T10:39:46Z</time>
      </trkpt>
      <trkpt lat="43.39166" lon="6.65612">
        <ele>157.9</ele>
        <time>2016-10-09T10:39:48Z</time>
      </trkpt>
      <trkpt lat="43.39165" lon="6.65596">
        <ele>156.9</ele>
        <time>2016-10-09T10:39:50Z</time>
      </trkpt>
      <trkpt lat="43.39159" lon="6.65581">
        <ele>155.6</ele>
        <time>2016-10-09T10:39:52Z</time>
      </trkpt>
      <trkpt lat="43.39151" lon="6.65568">
        <ele>153</ele>
        <time>2016-10-09T10:39:54Z</time>
      </trkpt>
      <trkpt lat="43.3915" lon="6.65555">
        <ele>149.9</ele>
        <time>2016-10-09T10:39:56Z</time>
      </trkpt>
      <trkpt lat="43.39158" lon="6.65544">
        <ele>146.5</ele>
        <time>2016-10-09T10:39:58Z</time>
      </trkpt>
      <trkpt lat="43.3917" lon="6.65533">
        <ele>143</ele>
        <time>2016-10-09T10:40:00Z</time>
      </trkpt>
      <trkpt lat="43.39182" lon="6.6552">
        <ele>142</ele>
        <time>2016-10-09T10:40:02Z</time>
      </trkpt>
      <trkpt lat="43.39196" lon="6.65508">
        <ele>141.2</ele>
        <time>2016-10-09T10:40:04Z</time>
      </trkpt>
      <trkpt lat="43.39209" lon="6.65493">
        <ele>140.8</ele>
        <time>2016-10-09T10:40:06Z</time>
      </trkpt>
      <trkpt lat="43.39222" lon="6.65479">
        <ele>141</ele>
        <time>2016-10-09T10:40:08Z</time>
      </trkpt>
      <trkpt lat="43.39234" lon="6.65468">
        <ele>141.6</ele>
        <time>2016-10-09T10:40:10Z</time>
      </trkpt>
      <trkpt lat="43.39245" lon="6.65459">
        <ele>142.4</ele>
        <time>2016-10-09T10:40:12Z</time>
      </trkpt>
      <trkpt lat="43.3925" lon="6.65448">
        <ele>143.2</ele>
        <time>2016-10-09T10:40:14Z</time>
      </trkpt>
      <trkpt lat="43.39253" lon="6.65436">
        <ele>144</ele>
        <time>2016-10-09T10:40:16Z</time>
      </trkpt>
      <trkpt lat="43.39256" lon="6.65427">
        <ele>144.7</ele>
        <time>2016-10-09T10:40:18Z</time>
      </trkpt>
      <trkpt lat="43.39259" lon="6.6542">
        <ele>145.2</ele>
        <time>2016-10-09T10:40:20Z</time>
      </trkpt>
      <trkpt lat="43.39261" lon="6.65412">
        <ele>145.7</ele>
        <time>2016-10-09T10:40:22Z</time>
      </trkpt>
      <trkpt lat="43.39263" lon="6.65405">
        <ele>146.2</ele>
        <time>2016-10-09T10:40:24Z</time>
      </trkpt>
      <trkpt lat="43.39265" lon="6.65398">
        <ele>146.7</ele>
        <time>2016-10-09T10:40:26Z</time>
      </trkpt>
      <trkpt lat="43.39267" lon="6.65393">
        <ele>147.1</ele>
        <time>2016-10-09T10:40:28Z</time>
      </trkpt>
      <trkpt lat="43.39269" lon="6.65388">
        <ele>147.5</ele>
        <time>2016-10-09T10:40:30Z</time>
      </trkpt>
      <trkpt lat="43.39271" lon="6.65384">
        <ele>147.9</ele>
        <time>2016-10-09T10:40:32Z</time>
      </trkpt>
      <trkpt lat="43.39274" lon="6.6538">
        <ele>148.3</ele>
        <time>2016-10-09T10:40:34Z</time>
      </trkpt>
      <trkpt lat="43.39276" lon="6.65376">
        <ele>148.8</ele>
        <time>2016-10-09T10:40:36Z</time>
      </trkpt>
      <trkpt lat="43.39277" lon="6.65373">
        <ele>149.1</ele>
        <time>2016-10-09T10:40:38Z</time>
      </trkpt>
      <trkpt lat="43.39279" lon="6.65369">
        <ele>149.5</ele>
        <time>2016-10-09T10:40:40Z</time>
      </trkpt>
      <trkpt lat="43.3928" lon="6.65365">
        <ele>149.9</ele>
        <time>2016-10-09T10:40:42Z</time>
      </trkpt>
      <trkpt lat="43.39282" lon="6.65362">
        <ele>150.3</ele>
        <time>2016-10-09T10:40:44Z</time>
      </trkpt>
      <trkpt lat="43.39283" lon="6.65358">
        <ele>150.7</ele>
        <time>2016-10-09T10:40:46Z</time>
      </trkpt>
      <trkpt lat="43.39283" lon="6.65355">
        <ele>151</ele>
        <time>2016-10-09T10:40:48Z</time>
      </trkpt>
      <trkpt lat="43.39284" lon="6.65351">
        <ele>151.4</ele>
        <time>2016-10-09T10:40:50Z</time>
      </trkpt>
      <trkpt lat="43.39285" lon="6.65348">
        <ele>151.8</ele>
        <time>2016-10-09T10:40:52Z</time>
      </trkpt>
      <trkpt lat="43.39286" lon="6.65344">
        <ele>152.1</ele>
        <time>2016-10-09T10:40:54Z</time>
      </trkpt>
      <trkpt lat="43.39287" lon="6.6534">
        <ele>153.1</ele>
        <time>2016-10-09T10:40:56Z</time>
      </trkpt>
      <trkpt lat="43.39288" lon="6.65337">
        <ele>154.1</ele>
        <time>2016-10-09T10:40:58Z</time>
      </trkpt>
      <trkpt lat="43.39289" lon="6.65334">
        <ele>154.9</ele>
        <time>2016-10-09T10:41:00Z</time>
      </trkpt>
      <trkpt lat="43.39289" lon="6.6533">
        <ele>155.7</ele>
        <time>2016-10-09T10:41:02Z</time>
      </trkpt>
      <trkpt lat="43.3929" lon="6.65327">
        <ele>156.6</ele>
        <time>2016-10-09T10:41:04Z</time>
      </trkpt>
      <trkpt lat="43.39292" lon="6.65324">
        <ele>157.6</ele>
        <time>2016-10-09T10:41:06Z</time>
      </trkpt>
      <trkpt lat="43.39293" lon="6.65321">
        <ele>158.6</ele>
        <time>2016-10-09T10:41:08Z</time>
      </trkpt>
      <trkpt lat="43.39294" lon="6.65318">
        <ele>159.3</ele>
        <time>2016-10-09T10:41:10Z</time>
      </trkpt>
      <trkpt lat="43.39295" lon="6.65315">
        <ele>160</ele>
        <time>2016-10-09T10:41:12Z</time>
      </trkpt>
      <trkpt lat="43.39296" lon="6.65314">
        <ele>160.6</ele>
        <time>2016-10-09T10:41:14Z</time>
      </trkpt>
      <trkpt lat="43.39298" lon="6.65313">
        <ele>161.1</ele>
        <time>2016-10-09T10:41:20Z</time>
      </trkpt>
      <trkpt lat="43.39298" lon="6.65311">
        <ele>161.5</ele>
        <time>2016-10-09T10:41:22Z</time>
      </trkpt>
      <trkpt lat="43.39298" lon="6.65309">
        <ele>162</ele>
        <time>2016-10-09T10:41:24Z</time>
      </trkpt>
      <trkpt lat="43.39298" lon="6.65308">
        <ele>162.3</ele>
        <time>2016-10-09T10:41:26Z</time>
      </trkpt>
      <trkpt lat="43.39298" lon="6.65305">
        <ele>163</ele>
        <time>2016-10-09T10:41:30Z</time>
      </trkpt>
      <trkpt lat="43.39299" lon="6.65303">
        <ele>163.5</ele>
        <time>2016-10-09T10:41:32Z</time>
      </trkpt>
      <trkpt lat="43.39299" lon="6.65302">
        <ele>163.8</ele>
        <time>2016-10-09T10:41:34Z</time>
      </trkpt>
      <trkpt lat="43.39299" lon="6.653">
        <ele>164.2</ele>
        <time>2016-10-09T10:41:36Z</time>
      </trkpt>
      <trkpt lat="43.39299" lon="6.65299">
        <ele>164.5</ele>
        <time>2016-10-09T10:41:38Z</time>
      </trkpt>
      <trkpt lat="43.39298" lon="6.65296">
        <ele>165.3</ele>
        <time>2016-10-09T10:41:42Z</time>
      </trkpt>
      <trkpt lat="43.39298" lon="6.65294">
        <ele>165.7</ele>
        <time>2016-10-09T10:41:44Z</time>
      </trkpt>
      <trkpt lat="43.39298" lon="6.65292">
        <ele>166</ele>
        <time>2016-10-09T10:41:46Z</time>
      </trkpt>
      <trkpt lat="43.39298" lon="6.6529">
        <ele>166.5</ele>
        <time>2016-10-09T10:41:48Z</time>
      </trkpt>
      <trkpt lat="43.39298" lon="6.65289">
        <ele>167</ele>
        <time>2016-10-09T10:41:50Z</time>
      </trkpt>
      <trkpt lat="43.39298" lon="6.65287">
        <ele>167.4</ele>
        <time>2016-10-09T10:41:52Z</time>
      </trkpt>
      <trkpt lat="43.39297" lon="6.65285">
        <ele>167.8</ele>
        <time>2016-10-09T10:41:54Z</time>
      </trkpt>
      <trkpt lat="43.39297" lon="6.65283">
        <ele>168.4</ele>
        <time>2016-10-09T10:41:56Z</time>
      </trkpt>
      <trkpt lat="43.39297" lon="6.65281">
        <ele>168.8</ele>
        <time>2016-10-09T10:41:58Z</time>
      </trkpt>
      <trkpt lat="43.39297" lon="6.65279">
        <ele>169.2</ele>
        <time>2016-10-09T10:42:00Z</time>
      </trkpt>
      <trkpt lat="43.39297" lon="6.65278">
        <ele>169.6</ele>
        <time>2016-10-09T10:42:02Z</time>
      </trkpt>
      <trkpt lat="43.39298" lon="6.65276">
        <ele>170</ele>
        <time>2016-10-09T10:42:04Z</time>
      </trkpt>
      <trkpt lat="43.39298" lon="6.65274">
        <ele>170.4</ele>
        <time>2016-10-09T10:42:06Z</time>
      </trkpt>
      <trkpt lat="43.39298" lon="6.65272">
        <ele>170.8</ele>
        <time>2016-10-09T10:42:08Z</time>
      </trkpt>
      <trkpt lat="43.39298" lon="6.6527">
        <ele>171.2</ele>
        <time>2016-10-09T10:42:10Z</time>
      </trkpt>
      <trkpt lat="43.39298" lon="6.65268">
        <ele>171.7</ele>
        <time>2016-10-09T10:42:12Z</time>
      </trkpt>
      <trkpt lat="43.39299" lon="6.65267">
        <ele>172</ele>
        <time>2016-10-09T10:42:14Z</time>
      </trkpt>
      <trkpt lat="43.39299" lon="6.65263">
        <ele>172.8</ele>
        <time>2016-10-09T10:42:30Z</time>
      </trkpt>
      <trkpt lat="43.39299" lon="6.65261">
        <ele>173.4</ele>
        <time>2016-10-09T10:42:32Z</time>
      </trkpt>
      <trkpt lat="43.39301" lon="6.65259">
        <ele>173.9</ele>
        <time>2016-10-09T10:42:34Z</time>
      </trkpt>
      <trkpt lat="43.39301" lon="6.65256">
        <ele>174.1</ele>
        <time>2016-10-09T10:42:36Z</time>
      </trkpt>
      <trkpt lat="43.39302" lon="6.65255">
        <ele>174.4</ele>
        <time>2016-10-09T10:42:38Z</time>
      </trkpt>
      <trkpt lat="43.39303" lon="6.65253">
        <ele>174.7</ele>
        <time>2016-10-09T10:42:40Z</time>
      </trkpt>
      <trkpt lat="43.39305" lon="6.65251">
        <ele>175</ele>
        <time>2016-10-09T10:42:42Z</time>
      </trkpt>
      <trkpt lat="43.39307" lon="6.6525">
        <ele>175.4</ele>
        <time>2016-10-09T10:42:44Z</time>
      </trkpt>
      <trkpt lat="43.39308" lon="6.65248">
        <ele>175.7</ele>
        <time>2016-10-09T10:42:46Z</time>
      </trkpt>
      <trkpt lat="43.3931" lon="6.65246">
        <ele>176.1</ele>
        <time>2016-10-09T10:42:48Z</time>
      </trkpt>
      <trkpt lat="43.39312" lon="6.65245">
        <ele>176.5</ele>
        <time>2016-10-09T10:42:50Z</time>
      </trkpt>
      <trkpt lat="43.39315" lon="6.65244">
        <ele>177</ele>
        <time>2016-10-09T10:42:52Z</time>
      </trkpt>
      <trkpt lat="43.39318" lon="6.65242">
        <ele>177.5</ele>
        <time>2016-10-09T10:42:54Z</time>
      </trkpt>
      <trkpt lat="43.39321" lon="6.6524">
        <ele>178</ele>
        <time>2016-10-09T10:42:56Z</time>
      </trkpt>
      <trkpt lat="43.39325" lon="6.65239">
        <ele>178.7</ele>
        <time>2016-10-09T10:42:58Z</time>
      </trkpt>
      <trkpt lat="43.3933" lon="6.65238">
        <ele>179.3</ele>
        <time>2016-10-09T10:43:00Z</time>
      </trkpt>
      <trkpt lat="43.39333" lon="6.65237">
        <ele>179.9</ele>
        <time>2016-10-09T10:43:02Z</time>
      </trkpt>
      <trkpt lat="43.39336" lon="6.65236">
        <ele>180.6</ele>
        <time>2016-10-09T10:43:04Z</time>
      </trkpt>
      <trkpt lat="43.3934" lon="6.65233">
        <ele>181.5</ele>
        <time>2016-10-09T10:43:06Z</time>
      </trkpt>
      <trkpt lat="43.39343" lon="6.65227">
        <ele>181.9</ele>
        <time>2016-10-09T10:43:08Z</time>
      </trkpt>
      <trkpt lat="43.39344" lon="6.65222">
        <ele>181.6</ele>
        <time>2016-10-09T10:43:10Z</time>
      </trkpt>
      <trkpt lat="43.39344" lon="6.65217">
        <ele>181.2</ele>
        <time>2016-10-09T10:43:12Z</time>
      </trkpt>
      <trkpt lat="43.39344" lon="6.65212">
        <ele>180.8</ele>
        <time>2016-10-09T10:43:14Z</time>
      </trkpt>
      <trkpt lat="43.39344" lon="6.65206">
        <ele>180.4</ele>
        <time>2016-10-09T10:43:16Z</time>
      </trkpt>
      <trkpt lat="43.39344" lon="6.652">
        <ele>180</ele>
        <time>2016-10-09T10:43:18Z</time>
      </trkpt>
      <trkpt lat="43.39345" lon="6.65191">
        <ele>179.6</ele>
        <time>2016-10-09T10:43:20Z</time>
      </trkpt>
      <trkpt lat="43.39346" lon="6.65181">
        <ele>179</ele>
        <time>2016-10-09T10:43:22Z</time>
      </trkpt>
      <trkpt lat="43.39351" lon="6.65173">
        <ele>178.3</ele>
        <time>2016-10-09T10:43:24Z</time>
      </trkpt>
      <trkpt lat="43.39357" lon="6.65169">
        <ele>177.5</ele>
        <time>2016-10-09T10:43:26Z</time>
      </trkpt>
      <trkpt lat="43.39362" lon="6.65163">
        <ele>176.7</ele>
        <time>2016-10-09T10:43:28Z</time>
      </trkpt>
      <trkpt lat="43.39366" lon="6.65156">
        <ele>176</ele>
        <time>2016-10-09T10:43:30Z</time>
      </trkpt>
      <trkpt lat="43.39372" lon="6.65151">
        <ele>175.2</ele>
        <time>2016-10-09T10:43:32Z</time>
      </trkpt>
      <trkpt lat="43.39379" lon="6.6515">
        <ele>174.4</ele>
        <time>2016-10-09T10:43:34Z</time>
      </trkpt>
      <trkpt lat="43.39383" lon="6.65155">
        <ele>174</ele>
        <time>2016-10-09T10:43:36Z</time>
      </trkpt>
      <trkpt lat="43.39388" lon="6.65161">
        <ele>173.6</ele>
        <time>2016-10-09T10:43:38Z</time>
      </trkpt>
      <trkpt lat="43.39391" lon="6.65168">
        <ele>178.1</ele>
        <time>2016-10-09T10:43:40Z</time>
      </trkpt>
      <trkpt lat="43.39395" lon="6.65175">
        <ele>180.6</ele>
        <time>2016-10-09T10:43:42Z</time>
      </trkpt>
      <trkpt lat="43.39399" lon="6.65181">
        <ele>181.9</ele>
        <time>2016-10-09T10:43:44Z</time>
      </trkpt>
      <trkpt lat="43.39404" lon="6.65186">
        <ele>183.2</ele>
        <time>2016-10-09T10:43:46Z</time>
      </trkpt>
      <trkpt lat="43.39409" lon="6.65194">
        <ele>184.8</ele>
        <time>2016-10-09T10:43:48Z</time>
      </trkpt>
      <trkpt lat="43.39415" lon="6.65202">
        <ele>186.6</ele>
        <time>2016-10-09T10:43:50Z</time>
      </trkpt>
      <trkpt lat="43.3942" lon="6.65211">
        <ele>188.1</ele>
        <time>2016-10-09T10:43:52Z</time>
      </trkpt>
      <trkpt lat="43.39427" lon="6.65219">
        <ele>189.4</ele>
        <time>2016-10-09T10:43:54Z</time>
      </trkpt>
      <trkpt lat="43.39434" lon="6.65224">
        <ele>190.5</ele>
        <time>2016-10-09T10:43:56Z</time>
      </trkpt>
      <trkpt lat="43.39441" lon="6.65227">
        <ele>191.6</ele>
        <time>2016-10-09T10:43:58Z</time>
      </trkpt>
      <trkpt lat="43.39448" lon="6.65226">
        <ele>194</ele>
        <time>2016-10-09T10:44:00Z</time>
      </trkpt>
      <trkpt lat="43.39452" lon="6.65224">
        <ele>194.7</ele>
        <time>2016-10-09T10:44:02Z</time>
      </trkpt>
      <trkpt lat="43.39456" lon="6.65222">
        <ele>195.4</ele>
        <time>2016-10-09T10:44:04Z</time>
      </trkpt>
      <trkpt lat="43.3946" lon="6.65221">
        <ele>195.8</ele>
        <time>2016-10-09T10:44:06Z</time>
      </trkpt>
      <trkpt lat="43.39463" lon="6.6522">
        <ele>196.1</ele>
        <time>2016-10-09T10:44:08Z</time>
      </trkpt>
      <trkpt lat="43.39467" lon="6.6522">
        <ele>196.3</ele>
        <time>2016-10-09T10:44:10Z</time>
      </trkpt>
      <trkpt lat="43.3947" lon="6.65219">
        <ele>196.7</ele>
        <time>2016-10-09T10:44:12Z</time>
      </trkpt>
      <trkpt lat="43.39473" lon="6.6522">
        <ele>197.4</ele>
        <time>2016-10-09T10:44:14Z</time>
      </trkpt>
      <trkpt lat="43.39476" lon="6.6522">
        <ele>197.9</ele>
        <time>2016-10-09T10:44:16Z</time>
      </trkpt>
      <trkpt lat="43.39478" lon="6.6522">
        <ele>198.3</ele>
        <time>2016-10-09T10:44:18Z</time>
      </trkpt>
      <trkpt lat="43.39481" lon="6.6522">
        <ele>198.7</ele>
        <time>2016-10-09T10:44:20Z</time>
      </trkpt>
      <trkpt lat="43.39484" lon="6.6522">
        <ele>199.2</ele>
        <time>2016-10-09T10:44:22Z</time>
      </trkpt>
      <trkpt lat="43.39486" lon="6.6522">
        <ele>199.6</ele>
        <time>2016-10-09T10:44:24Z</time>
      </trkpt>
      <trkpt lat="43.39489" lon="6.6522">
        <ele>200.3</ele>
        <time>2016-10-09T10:44:26Z</time>
      </trkpt>
      <trkpt lat="43.39492" lon="6.6522">
        <ele>200.7</ele>
        <time>2016-10-09T10:44:28Z</time>
      </trkpt>
      <trkpt lat="43.39495" lon="6.65219">
        <ele>201.1</ele>
        <time>2016-10-09T10:44:30Z</time>
      </trkpt>
      <trkpt lat="43.39497" lon="6.65219">
        <ele>201.6</ele>
        <time>2016-10-09T10:44:32Z</time>
      </trkpt>
      <trkpt lat="43.395" lon="6.65219">
        <ele>202.1</ele>
        <time>2016-10-09T10:44:34Z</time>
      </trkpt>
      <trkpt lat="43.39502" lon="6.65219">
        <ele>202.5</ele>
        <time>2016-10-09T10:44:36Z</time>
      </trkpt>
      <trkpt lat="43.39505" lon="6.65219">
        <ele>202.9</ele>
        <time>2016-10-09T10:44:38Z</time>
      </trkpt>
      <trkpt lat="43.39508" lon="6.65219">
        <ele>203.2</ele>
        <time>2016-10-09T10:44:40Z</time>
      </trkpt>
      <trkpt lat="43.3951" lon="6.65218">
        <ele>203.6</ele>
        <time>2016-10-09T10:44:42Z</time>
      </trkpt>
      <trkpt lat="43.39513" lon="6.65218">
        <ele>204.1</ele>
        <time>2016-10-09T10:44:44Z</time>
      </trkpt>
      <trkpt lat="43.39516" lon="6.65217">
        <ele>204.6</ele>
        <time>2016-10-09T10:44:46Z</time>
      </trkpt>
      <trkpt lat="43.39519" lon="6.65217">
        <ele>205.1</ele>
        <time>2016-10-09T10:44:48Z</time>
      </trkpt>
      <trkpt lat="43.39521" lon="6.65216">
        <ele>205.3</ele>
        <time>2016-10-09T10:44:50Z</time>
      </trkpt>
      <trkpt lat="43.39525" lon="6.65216">
        <ele>205.6</ele>
        <time>2016-10-09T10:44:52Z</time>
      </trkpt>
      <trkpt lat="43.39527" lon="6.65216">
        <ele>205.8</ele>
        <time>2016-10-09T10:44:54Z</time>
      </trkpt>
      <trkpt lat="43.39529" lon="6.65216">
        <ele>206.2</ele>
        <time>2016-10-09T10:44:56Z</time>
      </trkpt>
      <trkpt lat="43.39532" lon="6.65215">
        <ele>206.6</ele>
        <time>2016-10-09T10:44:58Z</time>
      </trkpt>
      <trkpt lat="43.39535" lon="6.65215">
        <ele>206.9</ele>
        <time>2016-10-09T10:45:00Z</time>
      </trkpt>
      <trkpt lat="43.39538" lon="6.65215">
        <ele>207.1</ele>
        <time>2016-10-09T10:45:02Z</time>
      </trkpt>
      <trkpt lat="43.39541" lon="6.65215">
        <ele>207.3</ele>
        <time>2016-10-09T10:45:04Z</time>
      </trkpt>
      <trkpt lat="43.39543" lon="6.65215">
        <ele>207.5</ele>
        <time>2016-10-09T10:45:06Z</time>
      </trkpt>
      <trkpt lat="43.39546" lon="6.65215">
        <ele>207.7</ele>
        <time>2016-10-09T10:45:08Z</time>
      </trkpt>
      <trkpt lat="43.39549" lon="6.65215">
        <ele>207.8</ele>
        <time>2016-10-09T10:45:10Z</time>
      </trkpt>
      <trkpt lat="43.39551" lon="6.65216">
        <ele>208</ele>
        <time>2016-10-09T10:45:12Z</time>
      </trkpt>
      <trkpt lat="43.39554" lon="6.65216">
        <ele>208.4</ele>
        <time>2016-10-09T10:45:14Z</time>
      </trkpt>
      <trkpt lat="43.39557" lon="6.65216">
        <ele>208.8</ele>
        <time>2016-10-09T10:45:16Z</time>
      </trkpt>
      <trkpt lat="43.3956" lon="6.65216">
        <ele>209.3</ele>
        <time>2016-10-09T10:45:18Z</time>
      </trkpt>
      <trkpt lat="43.39563" lon="6.65217">
        <ele>209.8</ele>
        <time>2016-10-09T10:45:20Z</time>
      </trkpt>
      <trkpt lat="43.39565" lon="6.65217">
        <ele>210</ele>
        <time>2016-10-09T10:45:22Z</time>
      </trkpt>
      <trkpt lat="43.39568" lon="6.65217">
        <ele>210.3</ele>
        <time>2016-10-09T10:45:24Z</time>
      </trkpt>
      <trkpt lat="43.3957" lon="6.65217">
        <ele>210.6</ele>
        <time>2016-10-09T10:45:26Z</time>
      </trkpt>
      <trkpt lat="43.39573" lon="6.65217">
        <ele>211.2</ele>
        <time>2016-10-09T10:45:28Z</time>
      </trkpt>
      <trkpt lat="43.39576" lon="6.65217">
        <ele>211.9</ele>
        <time>2016-10-09T10:45:30Z</time>
      </trkpt>
      <trkpt lat="43.39578" lon="6.65217">
        <ele>212.5</ele>
        <time>2016-10-09T10:45:32Z</time>
      </trkpt>
      <trkpt lat="43.39581" lon="6.65217">
        <ele>213.1</ele>
        <time>2016-10-09T10:45:34Z</time>
      </trkpt>
      <trkpt lat="43.39583" lon="6.65217">
        <ele>213.7</ele>
        <time>2016-10-09T10:45:36Z</time>
      </trkpt>
      <trkpt lat="43.39586" lon="6.65218">
        <ele>214.2</ele>
        <time>2016-10-09T10:45:38Z</time>
      </trkpt>
      <trkpt lat="43.39588" lon="6.65218">
        <ele>214.6</ele>
        <time>2016-10-09T10:45:40Z</time>
      </trkpt>
      <trkpt lat="43.39591" lon="6.65218">
        <ele>214.8</ele>
        <time>2016-10-09T10:45:42Z</time>
      </trkpt>
      <trkpt lat="43.39592" lon="6.65218">
        <ele>215.2</ele>
        <time>2016-10-09T10:45:44Z</time>
      </trkpt>
      <trkpt lat="43.39595" lon="6.65218">
        <ele>215.7</ele>
        <time>2016-10-09T10:45:46Z</time>
      </trkpt>
      <trkpt lat="43.39597" lon="6.65218">
        <ele>216.2</ele>
        <time>2016-10-09T10:45:48Z</time>
      </trkpt>
      <trkpt lat="43.39599" lon="6.65218">
        <ele>216.6</ele>
        <time>2016-10-09T10:45:50Z</time>
      </trkpt>
      <trkpt lat="43.39602" lon="6.65217">
        <ele>216.9</ele>
        <time>2016-10-09T10:45:52Z</time>
      </trkpt>
      <trkpt lat="43.39604" lon="6.65217">
        <ele>217.3</ele>
        <time>2016-10-09T10:45:54Z</time>
      </trkpt>
      <trkpt lat="43.39606" lon="6.65217">
        <ele>217.8</ele>
        <time>2016-10-09T10:45:56Z</time>
      </trkpt>
      <trkpt lat="43.39608" lon="6.65217">
        <ele>218.3</ele>
        <time>2016-10-09T10:45:58Z</time>
      </trkpt>
      <trkpt lat="43.39611" lon="6.65217">
        <ele>218.8</ele>
        <time>2016-10-09T10:46:00Z</time>
      </trkpt>
      <trkpt lat="43.39613" lon="6.65216">
        <ele>219.2</ele>
        <time>2016-10-09T10:46:02Z</time>
      </trkpt>
      <trkpt lat="43.39615" lon="6.65216">
        <ele>219.5</ele>
        <time>2016-10-09T10:46:04Z</time>
      </trkpt>
      <trkpt lat="43.39617" lon="6.65216">
        <ele>220.1</ele>
        <time>2016-10-09T10:46:06Z</time>
      </trkpt>
      <trkpt lat="43.39619" lon="6.65216">
        <ele>220.7</ele>
        <time>2016-10-09T10:46:08Z</time>
      </trkpt>
      <trkpt lat="43.39621" lon="6.65216">
        <ele>221.3</ele>
        <time>2016-10-09T10:46:10Z</time>
      </trkpt>
      <trkpt lat="43.39624" lon="6.65215">
        <ele>221.9</ele>
        <time>2016-10-09T10:46:12Z</time>
      </trkpt>
      <trkpt lat="43.39626" lon="6.65214">
        <ele>222.5</ele>
        <time>2016-10-09T10:46:14Z</time>
      </trkpt>
      <trkpt lat="43.39628" lon="6.65213">
        <ele>223.1</ele>
        <time>2016-10-09T10:46:16Z</time>
      </trkpt>
      <trkpt lat="43.3963" lon="6.65212">
        <ele>223.7</ele>
        <time>2016-10-09T10:46:18Z</time>
      </trkpt>
      <trkpt lat="43.39632" lon="6.65211">
        <ele>224.1</ele>
        <time>2016-10-09T10:46:20Z</time>
      </trkpt>
      <trkpt lat="43.39633" lon="6.65211">
        <ele>224.5</ele>
        <time>2016-10-09T10:46:22Z</time>
      </trkpt>
      <trkpt lat="43.39635" lon="6.6521">
        <ele>225</ele>
        <time>2016-10-09T10:46:24Z</time>
      </trkpt>
      <trkpt lat="43.39637" lon="6.65209">
        <ele>225.5</ele>
        <time>2016-10-09T10:46:26Z</time>
      </trkpt>
      <trkpt lat="43.3964" lon="6.65207">
        <ele>226</ele>
        <time>2016-10-09T10:46:28Z</time>
      </trkpt>
      <trkpt lat="43.39642" lon="6.65205">
        <ele>226.4</ele>
        <time>2016-10-09T10:46:30Z</time>
      </trkpt>
      <trkpt lat="43.39644" lon="6.65203">
        <ele>226.9</ele>
        <time>2016-10-09T10:46:32Z</time>
      </trkpt>
      <trkpt lat="43.39645" lon="6.65201">
        <ele>227.4</ele>
        <time>2016-10-09T10:46:34Z</time>
      </trkpt>
      <trkpt lat="43.39647" lon="6.65199">
        <ele>227.8</ele>
        <time>2016-10-09T10:46:36Z</time>
      </trkpt>
      <trkpt lat="43.39648" lon="6.65196">
        <ele>228.1</ele>
        <time>2016-10-09T10:46:38Z</time>
      </trkpt>
      <trkpt lat="43.3965" lon="6.65194">
        <ele>228.4</ele>
        <time>2016-10-09T10:46:40Z</time>
      </trkpt>
      <trkpt lat="43.39652" lon="6.65192">
        <ele>228.8</ele>
        <time>2016-10-09T10:46:42Z</time>
      </trkpt>
      <trkpt lat="43.39653" lon="6.6519">
        <ele>229.2</ele>
        <time>2016-10-09T10:46:44Z</time>
      </trkpt>
      <trkpt lat="43.39654" lon="6.65187">
        <ele>229.7</ele>
        <time>2016-10-09T10:46:46Z</time>
      </trkpt>
      <trkpt lat="43.39656" lon="6.65185">
        <ele>230.1</ele>
        <time>2016-10-09T10:46:48Z</time>
      </trkpt>
      <trkpt lat="43.39657" lon="6.65182">
        <ele>230.4</ele>
        <time>2016-10-09T10:46:50Z</time>
      </trkpt>
      <trkpt lat="43.39658" lon="6.6518">
        <ele>230.7</ele>
        <time>2016-10-09T10:46:52Z</time>
      </trkpt>
      <trkpt lat="43.39659" lon="6.65177">
        <ele>231.2</ele>
        <time>2016-10-09T10:46:54Z</time>
      </trkpt>
      <trkpt lat="43.3966" lon="6.65174">
        <ele>231.6</ele>
        <time>2016-10-09T10:46:56Z</time>
      </trkpt>
      <trkpt lat="43.39661" lon="6.65171">
        <ele>232.1</ele>
        <time>2016-10-09T10:46:58Z</time>
      </trkpt>
      <trkpt lat="43.39663" lon="6.65169">
        <ele>232.6</ele>
        <time>2016-10-09T10:47:00Z</time>
      </trkpt>
      <trkpt lat="43.39664" lon="6.65166">
        <ele>233</ele>
        <time>2016-10-09T10:47:02Z</time>
      </trkpt>
      <trkpt lat="43.39665" lon="6.65164">
        <ele>233.4</ele>
        <time>2016-10-09T10:47:04Z</time>
      </trkpt>
      <trkpt lat="43.39667" lon="6.6516">
        <ele>233.9</ele>
        <time>2016-10-09T10:47:06Z</time>
      </trkpt>
      <trkpt lat="43.39668" lon="6.65157">
        <ele>234.5</ele>
        <time>2016-10-09T10:47:08Z</time>
      </trkpt>
      <trkpt lat="43.39669" lon="6.65153">
        <ele>234.8</ele>
        <time>2016-10-09T10:47:10Z</time>
      </trkpt>
      <trkpt lat="43.39671" lon="6.6515">
        <ele>235</ele>
        <time>2016-10-09T10:47:12Z</time>
      </trkpt>
      <trkpt lat="43.39672" lon="6.65147">
        <ele>235.2</ele>
        <time>2016-10-09T10:47:14Z</time>
      </trkpt>
      <trkpt lat="43.39673" lon="6.65143">
        <ele>235.4</ele>
        <time>2016-10-09T10:47:16Z</time>
      </trkpt>
      <trkpt lat="43.39675" lon="6.6514">
        <ele>235.9</ele>
        <time>2016-10-09T10:47:18Z</time>
      </trkpt>
      <trkpt lat="43.39677" lon="6.65137">
        <ele>236.5</ele>
        <time>2016-10-09T10:47:20Z</time>
      </trkpt>
      <trkpt lat="43.39678" lon="6.65133">
        <ele>236.9</ele>
        <time>2016-10-09T10:47:22Z</time>
      </trkpt>
      <trkpt lat="43.3968" lon="6.6513">
        <ele>237.1</ele>
        <time>2016-10-09T10:47:24Z</time>
      </trkpt>
      <trkpt lat="43.39682" lon="6.65126">
        <ele>237.4</ele>
        <time>2016-10-09T10:47:26Z</time>
      </trkpt>
      <trkpt lat="43.39683" lon="6.65122">
        <ele>237.7</ele>
        <time>2016-10-09T10:47:28Z</time>
      </trkpt>
      <trkpt lat="43.39684" lon="6.65119">
        <ele>238</ele>
        <time>2016-10-09T10:47:30Z</time>
      </trkpt>
      <trkpt lat="43.39685" lon="6.65115">
        <ele>238.5</ele>
        <time>2016-10-09T10:47:32Z</time>
      </trkpt>
      <trkpt lat="43.39686" lon="6.65111">
        <ele>238.8</ele>
        <time>2016-10-09T10:47:34Z</time>
      </trkpt>
      <trkpt lat="43.39687" lon="6.65107">
        <ele>239.1</ele>
        <time>2016-10-09T10:47:36Z</time>
      </trkpt>
      <trkpt lat="43.39689" lon="6.65104">
        <ele>239.3</ele>
        <time>2016-10-09T10:47:38Z</time>
      </trkpt>
      <trkpt lat="43.3969" lon="6.651">
        <ele>239.4</ele>
        <time>2016-10-09T10:47:40Z</time>
      </trkpt>
      <trkpt lat="43.39691" lon="6.65096">
        <ele>239.6</ele>
        <time>2016-10-09T10:47:42Z</time>
      </trkpt>
      <trkpt lat="43.39692" lon="6.65093">
        <ele>239.7</ele>
        <time>2016-10-09T10:47:44Z</time>
      </trkpt>
      <trkpt lat="43.39694" lon="6.65089">
        <ele>239.8</ele>
        <time>2016-10-09T10:47:46Z</time>
      </trkpt>
      <trkpt lat="43.39695" lon="6.65085">
        <ele>239.9</ele>
        <time>2016-10-09T10:47:48Z</time>
      </trkpt>
      <trkpt lat="43.39696" lon="6.65081">
        <ele>240</ele>
        <time>2016-10-09T10:47:50Z</time>
      </trkpt>
      <trkpt lat="43.39697" lon="6.65077">
        <ele>240</ele>
        <time>2016-10-09T10:47:52Z</time>
      </trkpt>
      <trkpt lat="43.39698" lon="6.65074">
        <ele>240</ele>
        <time>2016-10-09T10:47:54Z</time>
      </trkpt>
      <trkpt lat="43.397" lon="6.65071">
        <ele>240</ele>
        <time>2016-10-09T10:47:56Z</time>
      </trkpt>
      <trkpt lat="43.39702" lon="6.65067">
        <ele>240</ele>
        <time>2016-10-09T10:47:58Z</time>
      </trkpt>
      <trkpt lat="43.39705" lon="6.65064">
        <ele>240</ele>
        <time>2016-10-09T10:48:00Z</time>
      </trkpt>
      <trkpt lat="43.39706" lon="6.65061">
        <ele>240</ele>
        <time>2016-10-09T10:48:02Z</time>
      </trkpt>
      <trkpt lat="43.39709" lon="6.65058">
        <ele>240.1</ele>
        <time>2016-10-09T10:48:04Z</time>
      </trkpt>
      <trkpt lat="43.39711" lon="6.65054">
        <ele>240.5</ele>
        <time>2016-10-09T10:48:06Z</time>
      </trkpt>
      <trkpt lat="43.39714" lon="6.65051">
        <ele>241.2</ele>
        <time>2016-10-09T10:48:08Z</time>
      </trkpt>
      <trkpt lat="43.39717" lon="6.65049">
        <ele>242.1</ele>
        <time>2016-10-09T10:48:10Z</time>
      </trkpt>
      <trkpt lat="43.3972" lon="6.65047">
        <ele>242.9</ele>
        <time>2016-10-09T10:48:12Z</time>
      </trkpt>
      <trkpt lat="43.39724" lon="6.65045">
        <ele>243.6</ele>
        <time>2016-10-09T10:48:14Z</time>
      </trkpt>
      <trkpt lat="43.39727" lon="6.65044">
        <ele>244</ele>
        <time>2016-10-09T10:48:16Z</time>
      </trkpt>
      <trkpt lat="43.3973" lon="6.65043">
        <ele>244.2</ele>
        <time>2016-10-09T10:48:18Z</time>
      </trkpt>
      <trkpt lat="43.39734" lon="6.65042">
        <ele>244.3</ele>
        <time>2016-10-09T10:48:20Z</time>
      </trkpt>
      <trkpt lat="43.39737" lon="6.6504">
        <ele>244.4</ele>
        <time>2016-10-09T10:48:22Z</time>
      </trkpt>
      <trkpt lat="43.3974" lon="6.65039">
        <ele>244.5</ele>
        <time>2016-10-09T10:48:24Z</time>
      </trkpt>
      <trkpt lat="43.39744" lon="6.65039">
        <ele>244.5</ele>
        <time>2016-10-09T10:48:26Z</time>
      </trkpt>
      <trkpt lat="43.39747" lon="6.65037">
        <ele>244.6</ele>
        <time>2016-10-09T10:48:28Z</time>
      </trkpt>
      <trkpt lat="43.3975" lon="6.65035">
        <ele>244.7</ele>
        <time>2016-10-09T10:48:30Z</time>
      </trkpt>
      <trkpt lat="43.39753" lon="6.65033">
        <ele>244.8</ele>
        <time>2016-10-09T10:48:32Z</time>
      </trkpt>
      <trkpt lat="43.39755" lon="6.65031">
        <ele>244.9</ele>
        <time>2016-10-09T10:48:34Z</time>
      </trkpt>
      <trkpt lat="43.39758" lon="6.65028">
        <ele>245.1</ele>
        <time>2016-10-09T10:48:36Z</time>
      </trkpt>
      <trkpt lat="43.3976" lon="6.65025">
        <ele>246.1</ele>
        <time>2016-10-09T10:48:38Z</time>
      </trkpt>
      <trkpt lat="43.39763" lon="6.65023">
        <ele>247</ele>
        <time>2016-10-09T10:48:40Z</time>
      </trkpt>
      <trkpt lat="43.39766" lon="6.6502">
        <ele>247.7</ele>
        <time>2016-10-09T10:48:42Z</time>
      </trkpt>
      <trkpt lat="43.39769" lon="6.65018">
        <ele>248.2</ele>
        <time>2016-10-09T10:48:44Z</time>
      </trkpt>
      <trkpt lat="43.39772" lon="6.65017">
        <ele>248.5</ele>
        <time>2016-10-09T10:48:46Z</time>
      </trkpt>
      <trkpt lat="43.39775" lon="6.65016">
        <ele>248.9</ele>
        <time>2016-10-09T10:48:48Z</time>
      </trkpt>
      <trkpt lat="43.39778" lon="6.65014">
        <ele>249.3</ele>
        <time>2016-10-09T10:48:50Z</time>
      </trkpt>
      <trkpt lat="43.39781" lon="6.65014">
        <ele>249.8</ele>
        <time>2016-10-09T10:48:52Z</time>
      </trkpt>
      <trkpt lat="43.39784" lon="6.65013">
        <ele>250.2</ele>
        <time>2016-10-09T10:48:54Z</time>
      </trkpt>
      <trkpt lat="43.39787" lon="6.65013">
        <ele>250.4</ele>
        <time>2016-10-09T10:48:56Z</time>
      </trkpt>
      <trkpt lat="43.3979" lon="6.65012">
        <ele>250.5</ele>
        <time>2016-10-09T10:48:58Z</time>
      </trkpt>
      <trkpt lat="43.39793" lon="6.65012">
        <ele>250.7</ele>
        <time>2016-10-09T10:49:00Z</time>
      </trkpt>
      <trkpt lat="43.39795" lon="6.65011">
        <ele>250.9</ele>
        <time>2016-10-09T10:49:02Z</time>
      </trkpt>
      <trkpt lat="43.39798" lon="6.65011">
        <ele>251.3</ele>
        <time>2016-10-09T10:49:04Z</time>
      </trkpt>
      <trkpt lat="43.39801" lon="6.6501">
        <ele>251.7</ele>
        <time>2016-10-09T10:49:06Z</time>
      </trkpt>
      <trkpt lat="43.39803" lon="6.6501">
        <ele>252.2</ele>
        <time>2016-10-09T10:49:08Z</time>
      </trkpt>
      <trkpt lat="43.39806" lon="6.65009">
        <ele>252.6</ele>
        <time>2016-10-09T10:49:10Z</time>
      </trkpt>
      <trkpt lat="43.39809" lon="6.65008">
        <ele>252.9</ele>
        <time>2016-10-09T10:49:12Z</time>
      </trkpt>
      <trkpt lat="43.39812" lon="6.65007">
        <ele>253.2</ele>
        <time>2016-10-09T10:49:14Z</time>
      </trkpt>
      <trkpt lat="43.39815" lon="6.65007">
        <ele>253.7</ele>
        <time>2016-10-09T10:49:16Z</time>
      </trkpt>
      <trkpt lat="43.39817" lon="6.65006">
        <ele>254.1</ele>
        <time>2016-10-09T10:49:18Z</time>
      </trkpt>
      <trkpt lat="43.3982" lon="6.65005">
        <ele>254.6</ele>
        <time>2016-10-09T10:49:20Z</time>
      </trkpt>
      <trkpt lat="43.39822" lon="6.65004">
        <ele>254.8</ele>
        <time>2016-10-09T10:49:22Z</time>
      </trkpt>
      <trkpt lat="43.39825" lon="6.65003">
        <ele>255.1</ele>
        <time>2016-10-09T10:49:24Z</time>
      </trkpt>
      <trkpt lat="43.39827" lon="6.65003">
        <ele>255.3</ele>
        <time>2016-10-09T10:49:26Z</time>
      </trkpt>
      <trkpt lat="43.3983" lon="6.65001">
        <ele>255.9</ele>
        <time>2016-10-09T10:49:28Z</time>
      </trkpt>
      <trkpt lat="43.39833" lon="6.65">
        <ele>256.6</ele>
        <time>2016-10-09T10:49:30Z</time>
      </trkpt>
      <trkpt lat="43.39835" lon="6.64999">
        <ele>257</ele>
        <time>2016-10-09T10:49:32Z</time>
      </trkpt>
      <trkpt lat="43.39838" lon="6.64998">
        <ele>257.3</ele>
        <time>2016-10-09T10:49:34Z</time>
      </trkpt>
      <trkpt lat="43.3984" lon="6.64996">
        <ele>257.6</ele>
        <time>2016-10-09T10:49:36Z</time>
      </trkpt>
      <trkpt lat="43.39842" lon="6.64995">
        <ele>258</ele>
        <time>2016-10-09T10:49:38Z</time>
      </trkpt>
      <trkpt lat="43.39844" lon="6.64993">
        <ele>258.5</ele>
        <time>2016-10-09T10:49:40Z</time>
      </trkpt>
      <trkpt lat="43.39846" lon="6.64991">
        <ele>259</ele>
        <time>2016-10-09T10:49:42Z</time>
      </trkpt>
      <trkpt lat="43.39848" lon="6.64989">
        <ele>259.4</ele>
        <time>2016-10-09T10:49:44Z</time>
      </trkpt>
      <trkpt lat="43.3985" lon="6.64988">
        <ele>259.7</ele>
        <time>2016-10-09T10:49:46Z</time>
      </trkpt>
      <trkpt lat="43.39852" lon="6.64986">
        <ele>259.9</ele>
        <time>2016-10-09T10:49:48Z</time>
      </trkpt>
      <trkpt lat="43.39854" lon="6.64985">
        <ele>260.2</ele>
        <time>2016-10-09T10:49:50Z</time>
      </trkpt>
      <trkpt lat="43.39856" lon="6.64983">
        <ele>260.7</ele>
        <time>2016-10-09T10:49:52Z</time>
      </trkpt>
      <trkpt lat="43.39859" lon="6.64981">
        <ele>261.3</ele>
        <time>2016-10-09T10:49:54Z</time>
      </trkpt>
      <trkpt lat="43.39861" lon="6.64979">
        <ele>261.5</ele>
        <time>2016-10-09T10:49:56Z</time>
      </trkpt>
      <trkpt lat="43.39864" lon="6.64978">
        <ele>261.7</ele>
        <time>2016-10-09T10:49:58Z</time>
      </trkpt>
      <trkpt lat="43.39866" lon="6.64976">
        <ele>262</ele>
        <time>2016-10-09T10:50:00Z</time>
      </trkpt>
      <trkpt lat="43.39869" lon="6.64975">
        <ele>262.4</ele>
        <time>2016-10-09T10:50:02Z</time>
      </trkpt>
      <trkpt lat="43.39872" lon="6.64974">
        <ele>263</ele>
        <time>2016-10-09T10:50:04Z</time>
      </trkpt>
      <trkpt lat="43.39874" lon="6.64973">
        <ele>263.4</ele>
        <time>2016-10-09T10:50:06Z</time>
      </trkpt>
      <trkpt lat="43.39876" lon="6.64971">
        <ele>263.6</ele>
        <time>2016-10-09T10:50:08Z</time>
      </trkpt>
      <trkpt lat="43.39879" lon="6.6497">
        <ele>263.8</ele>
        <time>2016-10-09T10:50:10Z</time>
      </trkpt>
      <trkpt lat="43.39881" lon="6.64969">
        <ele>264.1</ele>
        <time>2016-10-09T10:50:12Z</time>
      </trkpt>
      <trkpt lat="43.39883" lon="6.64968">
        <ele>264.3</ele>
        <time>2016-10-09T10:50:14Z</time>
      </trkpt>
      <trkpt lat="43.39885" lon="6.64967">
        <ele>264.6</ele>
        <time>2016-10-09T10:50:16Z</time>
      </trkpt>
      <trkpt lat="43.39888" lon="6.64967">
        <ele>265</ele>
        <time>2016-10-09T10:50:18Z</time>
      </trkpt>
      <trkpt lat="43.3989" lon="6.64966">
        <ele>265.5</ele>
        <time>2016-10-09T10:50:20Z</time>
      </trkpt>
      <trkpt lat="43.39892" lon="6.64966">
        <ele>265.6</ele>
        <time>2016-10-09T10:50:22Z</time>
      </trkpt>
      <trkpt lat="43.39895" lon="6.64965">
        <ele>265.8</ele>
        <time>2016-10-09T10:50:24Z</time>
      </trkpt>
      <trkpt lat="43.39897" lon="6.64964">
        <ele>266</ele>
        <time>2016-10-09T10:50:26Z</time>
      </trkpt>
      <trkpt lat="43.39899" lon="6.64964">
        <ele>266.1</ele>
        <time>2016-10-09T10:50:28Z</time>
      </trkpt>
      <trkpt lat="43.39901" lon="6.64964">
        <ele>266.3</ele>
        <time>2016-10-09T10:50:30Z</time>
      </trkpt>
      <trkpt lat="43.39903" lon="6.64963">
        <ele>266.7</ele>
        <time>2016-10-09T10:50:32Z</time>
      </trkpt>
      <trkpt lat="43.39905" lon="6.64963">
        <ele>267.2</ele>
        <time>2016-10-09T10:50:34Z</time>
      </trkpt>
      <trkpt lat="43.39908" lon="6.64962">
        <ele>267.6</ele>
        <time>2016-10-09T10:50:36Z</time>
      </trkpt>
      <trkpt lat="43.39911" lon="6.64961">
        <ele>268.1</ele>
        <time>2016-10-09T10:50:38Z</time>
      </trkpt>
      <trkpt lat="43.39912" lon="6.6496">
        <ele>268.3</ele>
        <time>2016-10-09T10:50:40Z</time>
      </trkpt>
      <trkpt lat="43.39915" lon="6.64959">
        <ele>268.6</ele>
        <time>2016-10-09T10:50:42Z</time>
      </trkpt>
      <trkpt lat="43.39917" lon="6.64958">
        <ele>268.9</ele>
        <time>2016-10-09T10:50:44Z</time>
      </trkpt>
      <trkpt lat="43.39919" lon="6.64957">
        <ele>269.3</ele>
        <time>2016-10-09T10:50:46Z</time>
      </trkpt>
      <trkpt lat="43.39922" lon="6.64955">
        <ele>269.8</ele>
        <time>2016-10-09T10:50:48Z</time>
      </trkpt>
      <trkpt lat="43.39924" lon="6.64953">
        <ele>270.2</ele>
        <time>2016-10-09T10:50:50Z</time>
      </trkpt>
      <trkpt lat="43.39925" lon="6.64951">
        <ele>270.6</ele>
        <time>2016-10-09T10:50:52Z</time>
      </trkpt>
      <trkpt lat="43.39927" lon="6.64949">
        <ele>270.9</ele>
        <time>2016-10-09T10:50:54Z</time>
      </trkpt>
      <trkpt lat="43.3993" lon="6.64949">
        <ele>271.4</ele>
        <time>2016-10-09T10:50:56Z</time>
      </trkpt>
      <trkpt lat="43.39933" lon="6.64947">
        <ele>272.1</ele>
        <time>2016-10-09T10:50:58Z</time>
      </trkpt>
      <trkpt lat="43.39935" lon="6.64946">
        <ele>272.7</ele>
        <time>2016-10-09T10:51:00Z</time>
      </trkpt>
      <trkpt lat="43.39937" lon="6.64944">
        <ele>273.3</ele>
        <time>2016-10-09T10:51:02Z</time>
      </trkpt>
      <trkpt lat="43.3994" lon="6.64943">
        <ele>274</ele>
        <time>2016-10-09T10:51:04Z</time>
      </trkpt>
      <trkpt lat="43.39942" lon="6.64941">
        <ele>274.6</ele>
        <time>2016-10-09T10:51:06Z</time>
      </trkpt>
      <trkpt lat="43.39945" lon="6.6494">
        <ele>275</ele>
        <time>2016-10-09T10:51:08Z</time>
      </trkpt>
      <trkpt lat="43.39948" lon="6.64941">
        <ele>275.4</ele>
        <time>2016-10-09T10:51:10Z</time>
      </trkpt>
      <trkpt lat="43.39951" lon="6.64941">
        <ele>276</ele>
        <time>2016-10-09T10:51:12Z</time>
      </trkpt>
      <trkpt lat="43.39954" lon="6.64941">
        <ele>276.6</ele>
        <time>2016-10-09T10:51:14Z</time>
      </trkpt>
      <trkpt lat="43.39957" lon="6.64941">
        <ele>277.2</ele>
        <time>2016-10-09T10:51:16Z</time>
      </trkpt>
      <trkpt lat="43.39959" lon="6.6494">
        <ele>277.7</ele>
        <time>2016-10-09T10:51:18Z</time>
      </trkpt>
      <trkpt lat="43.39962" lon="6.6494">
        <ele>278.4</ele>
        <time>2016-10-09T10:51:20Z</time>
      </trkpt>
      <trkpt lat="43.39964" lon="6.6494">
        <ele>279</ele>
        <time>2016-10-09T10:51:22Z</time>
      </trkpt>
      <trkpt lat="43.39967" lon="6.6494">
        <ele>279.6</ele>
        <time>2016-10-09T10:51:24Z</time>
      </trkpt>
      <trkpt lat="43.39969" lon="6.6494">
        <ele>280</ele>
        <time>2016-10-09T10:51:26Z</time>
      </trkpt>
      <trkpt lat="43.39972" lon="6.6494">
        <ele>280.6</ele>
        <time>2016-10-09T10:51:28Z</time>
      </trkpt>
      <trkpt lat="43.39974" lon="6.64941">
        <ele>281.3</ele>
        <time>2016-10-09T10:51:30Z</time>
      </trkpt>
      <trkpt lat="43.39976" lon="6.64942">
        <ele>281.9</ele>
        <time>2016-10-09T10:51:32Z</time>
      </trkpt>
      <trkpt lat="43.39978" lon="6.64942">
        <ele>282.4</ele>
        <time>2016-10-09T10:51:34Z</time>
      </trkpt>
      <trkpt lat="43.3998" lon="6.64942">
        <ele>283.1</ele>
        <time>2016-10-09T10:51:36Z</time>
      </trkpt>
      <trkpt lat="43.39982" lon="6.64943">
        <ele>283.6</ele>
        <time>2016-10-09T10:51:38Z</time>
      </trkpt>
      <trkpt lat="43.39985" lon="6.64944">
        <ele>284.1</ele>
        <time>2016-10-09T10:51:40Z</time>
      </trkpt>
      <trkpt lat="43.39986" lon="6.64945">
        <ele>284.4</ele>
        <time>2016-10-09T10:51:42Z</time>
      </trkpt>
      <trkpt lat="43.39988" lon="6.64946">
        <ele>284.8</ele>
        <time>2016-10-09T10:51:44Z</time>
      </trkpt>
      <trkpt lat="43.3999" lon="6.64945">
        <ele>285.3</ele>
        <time>2016-10-09T10:51:46Z</time>
      </trkpt>
      <trkpt lat="43.39992" lon="6.64945">
        <ele>285.9</ele>
        <time>2016-10-09T10:51:48Z</time>
      </trkpt>
      <trkpt lat="43.39994" lon="6.64945">
        <ele>286.3</ele>
        <time>2016-10-09T10:51:50Z</time>
      </trkpt>
      <trkpt lat="43.39996" lon="6.64944">
        <ele>286.6</ele>
        <time>2016-10-09T10:51:52Z</time>
      </trkpt>
      <trkpt lat="43.39999" lon="6.64943">
        <ele>287</ele>
        <time>2016-10-09T10:51:54Z</time>
      </trkpt>
      <trkpt lat="43.40001" lon="6.64943">
        <ele>287.6</ele>
        <time>2016-10-09T10:51:56Z</time>
      </trkpt>
      <trkpt lat="43.40003" lon="6.64943">
        <ele>288</ele>
        <time>2016-10-09T10:51:58Z</time>
      </trkpt>
      <trkpt lat="43.40006" lon="6.64942">
        <ele>288.5</ele>
        <time>2016-10-09T10:52:00Z</time>
      </trkpt>
      <trkpt lat="43.40007" lon="6.64942">
        <ele>288.9</ele>
        <time>2016-10-09T10:52:02Z</time>
      </trkpt>
      <trkpt lat="43.4001" lon="6.64941">
        <ele>289.3</ele>
        <time>2016-10-09T10:52:04Z</time>
      </trkpt>
      <trkpt lat="43.40012" lon="6.64941">
        <ele>289.7</ele>
        <time>2016-10-09T10:52:06Z</time>
      </trkpt>
      <trkpt lat="43.40014" lon="6.6494">
        <ele>290.3</ele>
        <time>2016-10-09T10:52:08Z</time>
      </trkpt>
      <trkpt lat="43.40016" lon="6.64939">
        <ele>290.7</ele>
        <time>2016-10-09T10:52:10Z</time>
      </trkpt>
      <trkpt lat="43.40019" lon="6.64939">
        <ele>291.3</ele>
        <time>2016-10-09T10:52:12Z</time>
      </trkpt>
      <trkpt lat="43.40021" lon="6.64939">
        <ele>291.8</ele>
        <time>2016-10-09T10:52:14Z</time>
      </trkpt>
      <trkpt lat="43.40023" lon="6.64938">
        <ele>292.2</ele>
        <time>2016-10-09T10:52:16Z</time>
      </trkpt>
      <trkpt lat="43.40025" lon="6.64937">
        <ele>292.7</ele>
        <time>2016-10-09T10:52:18Z</time>
      </trkpt>
      <trkpt lat="43.40027" lon="6.64935">
        <ele>293.1</ele>
        <time>2016-10-09T10:52:20Z</time>
      </trkpt>
      <trkpt lat="43.40029" lon="6.64933">
        <ele>293.6</ele>
        <time>2016-10-09T10:52:22Z</time>
      </trkpt>
      <trkpt lat="43.40031" lon="6.64931">
        <ele>294.1</ele>
        <time>2016-10-09T10:52:24Z</time>
      </trkpt>
      <trkpt lat="43.40032" lon="6.64929">
        <ele>294.5</ele>
        <time>2016-10-09T10:52:26Z</time>
      </trkpt>
      <trkpt lat="43.40034" lon="6.64927">
        <ele>295</ele>
        <time>2016-10-09T10:52:28Z</time>
      </trkpt>
      <trkpt lat="43.40036" lon="6.64925">
        <ele>295.5</ele>
        <time>2016-10-09T10:52:30Z</time>
      </trkpt>
      <trkpt lat="43.40038" lon="6.64924">
        <ele>295.9</ele>
        <time>2016-10-09T10:52:32Z</time>
      </trkpt>
      <trkpt lat="43.40039" lon="6.64922">
        <ele>296.3</ele>
        <time>2016-10-09T10:52:34Z</time>
      </trkpt>
      <trkpt lat="43.40041" lon="6.6492">
        <ele>296.8</ele>
        <time>2016-10-09T10:52:36Z</time>
      </trkpt>
      <trkpt lat="43.40042" lon="6.64919">
        <ele>297.3</ele>
        <time>2016-10-09T10:52:38Z</time>
      </trkpt>
      <trkpt lat="43.40044" lon="6.64917">
        <ele>297.9</ele>
        <time>2016-10-09T10:52:40Z</time>
      </trkpt>
      <trkpt lat="43.40046" lon="6.64915">
        <ele>298.2</ele>
        <time>2016-10-09T10:52:42Z</time>
      </trkpt>
      <trkpt lat="43.40047" lon="6.64913">
        <ele>298.5</ele>
        <time>2016-10-09T10:52:44Z</time>
      </trkpt>
      <trkpt lat="43.40048" lon="6.64911">
        <ele>299.1</ele>
        <time>2016-10-09T10:52:46Z</time>
      </trkpt>
      <trkpt lat="43.4005" lon="6.64909">
        <ele>299.7</ele>
        <time>2016-10-09T10:52:48Z</time>
      </trkpt>
      <trkpt lat="43.40052" lon="6.64907">
        <ele>300</ele>
        <time>2016-10-09T10:52:50Z</time>
      </trkpt>
      <trkpt lat="43.40054" lon="6.64905">
        <ele>300.4</ele>
        <time>2016-10-09T10:52:52Z</time>
      </trkpt>
      <trkpt lat="43.40056" lon="6.64903">
        <ele>300.9</ele>
        <time>2016-10-09T10:52:54Z</time>
      </trkpt>
      <trkpt lat="43.40058" lon="6.64901">
        <ele>301.4</ele>
        <time>2016-10-09T10:52:56Z</time>
      </trkpt>
      <trkpt lat="43.4006" lon="6.649">
        <ele>301.9</ele>
        <time>2016-10-09T10:52:58Z</time>
      </trkpt>
      <trkpt lat="43.40062" lon="6.64898">
        <ele>302.5</ele>
        <time>2016-10-09T10:53:00Z</time>
      </trkpt>
      <trkpt lat="43.40064" lon="6.64896">
        <ele>302.9</ele>
        <time>2016-10-09T10:53:02Z</time>
      </trkpt>
      <trkpt lat="43.40066" lon="6.64894">
        <ele>303.5</ele>
        <time>2016-10-09T10:53:04Z</time>
      </trkpt>
      <trkpt lat="43.40069" lon="6.64892">
        <ele>304.3</ele>
        <time>2016-10-09T10:53:06Z</time>
      </trkpt>
      <trkpt lat="43.40072" lon="6.6489">
        <ele>304.9</ele>
        <time>2016-10-09T10:53:08Z</time>
      </trkpt>
      <trkpt lat="43.40074" lon="6.64889">
        <ele>305.5</ele>
        <time>2016-10-09T10:53:10Z</time>
      </trkpt>
      <trkpt lat="43.40076" lon="6.64888">
        <ele>306.1</ele>
        <time>2016-10-09T10:53:12Z</time>
      </trkpt>
      <trkpt lat="43.40078" lon="6.64887">
        <ele>306.6</ele>
        <time>2016-10-09T10:53:14Z</time>
      </trkpt>
      <trkpt lat="43.40081" lon="6.64885">
        <ele>306.9</ele>
        <time>2016-10-09T10:53:16Z</time>
      </trkpt>
      <trkpt lat="43.40083" lon="6.64883">
        <ele>307.2</ele>
        <time>2016-10-09T10:53:18Z</time>
      </trkpt>
      <trkpt lat="43.40085" lon="6.64882">
        <ele>307.4</ele>
        <time>2016-10-09T10:53:20Z</time>
      </trkpt>
      <trkpt lat="43.40087" lon="6.64881">
        <ele>307.9</ele>
        <time>2016-10-09T10:53:22Z</time>
      </trkpt>
      <trkpt lat="43.40089" lon="6.6488">
        <ele>308.2</ele>
        <time>2016-10-09T10:53:24Z</time>
      </trkpt>
      <trkpt lat="43.40091" lon="6.64879">
        <ele>308.4</ele>
        <time>2016-10-09T10:53:26Z</time>
      </trkpt>
      <trkpt lat="43.40093" lon="6.64878">
        <ele>308.5</ele>
        <time>2016-10-09T10:53:28Z</time>
      </trkpt>
      <trkpt lat="43.40095" lon="6.64877">
        <ele>308.5</ele>
        <time>2016-10-09T10:53:30Z</time>
      </trkpt>
      <trkpt lat="43.40097" lon="6.64875">
        <ele>308.6</ele>
        <time>2016-10-09T10:53:32Z</time>
      </trkpt>
      <trkpt lat="43.401" lon="6.64874">
        <ele>308.7</ele>
        <time>2016-10-09T10:53:34Z</time>
      </trkpt>
      <trkpt lat="43.40102" lon="6.64872">
        <ele>308.8</ele>
        <time>2016-10-09T10:53:36Z</time>
      </trkpt>
      <trkpt lat="43.40104" lon="6.6487">
        <ele>308.9</ele>
        <time>2016-10-09T10:53:38Z</time>
      </trkpt>
      <trkpt lat="43.40107" lon="6.64868">
        <ele>309</ele>
        <time>2016-10-09T10:53:40Z</time>
      </trkpt>
      <trkpt lat="43.40109" lon="6.64866">
        <ele>309.1</ele>
        <time>2016-10-09T10:53:42Z</time>
      </trkpt>
      <trkpt lat="43.40111" lon="6.64863">
        <ele>309.2</ele>
        <time>2016-10-09T10:53:44Z</time>
      </trkpt>
      <trkpt lat="43.40113" lon="6.64861">
        <ele>309.4</ele>
        <time>2016-10-09T10:53:46Z</time>
      </trkpt>
      <trkpt lat="43.40115" lon="6.64858">
        <ele>309.5</ele>
        <time>2016-10-09T10:53:48Z</time>
      </trkpt>
      <trkpt lat="43.40118" lon="6.64854">
        <ele>309.7</ele>
        <time>2016-10-09T10:53:50Z</time>
      </trkpt>
      <trkpt lat="43.40119" lon="6.64851">
        <ele>309.9</ele>
        <time>2016-10-09T10:53:52Z</time>
      </trkpt>
      <trkpt lat="43.40122" lon="6.64848">
        <ele>310.1</ele>
        <time>2016-10-09T10:53:54Z</time>
      </trkpt>
      <trkpt lat="43.40124" lon="6.64844">
        <ele>310.4</ele>
        <time>2016-10-09T10:53:56Z</time>
      </trkpt>
      <trkpt lat="43.40126" lon="6.64838">
        <ele>310.7</ele>
        <time>2016-10-09T10:53:58Z</time>
      </trkpt>
      <trkpt lat="43.4013" lon="6.64833">
        <ele>310.8</ele>
        <time>2016-10-09T10:54:00Z</time>
      </trkpt>
      <trkpt lat="43.40133" lon="6.64827">
        <ele>310.9</ele>
        <time>2016-10-09T10:54:02Z</time>
      </trkpt>
      <trkpt lat="43.40136" lon="6.6482">
        <ele>311</ele>
        <time>2016-10-09T10:54:04Z</time>
      </trkpt>
      <trkpt lat="43.40141" lon="6.64812">
        <ele>311.1</ele>
        <time>2016-10-09T10:54:06Z</time>
      </trkpt>
      <trkpt lat="43.40146" lon="6.64803">
        <ele>311.2</ele>
        <time>2016-10-09T10:54:08Z</time>
      </trkpt>
      <trkpt lat="43.40152" lon="6.64794">
        <ele>311.2</ele>
        <time>2016-10-09T10:54:10Z</time>
      </trkpt>
      <trkpt lat="43.40159" lon="6.64785">
        <ele>311.2</ele>
        <time>2016-10-09T10:54:12Z</time>
      </trkpt>
      <trkpt lat="43.40167" lon="6.64777">
        <ele>311.2</ele>
        <time>2016-10-09T10:54:14Z</time>
      </trkpt>
      <trkpt lat="43.40176" lon="6.6477">
        <ele>311.1</ele>
        <time>2016-10-09T10:54:16Z</time>
      </trkpt>
      <trkpt lat="43.40189" lon="6.64765">
        <ele>311</ele>
        <time>2016-10-09T10:54:18Z</time>
      </trkpt>
      <trkpt lat="43.40202" lon="6.64762">
        <ele>310.2</ele>
        <time>2016-10-09T10:54:20Z</time>
      </trkpt>
      <trkpt lat="43.40217" lon="6.6476">
        <ele>309.2</ele>
        <time>2016-10-09T10:54:22Z</time>
      </trkpt>
      <trkpt lat="43.40233" lon="6.64757">
        <ele>308.2</ele>
        <time>2016-10-09T10:54:24Z</time>
      </trkpt>
      <trkpt lat="43.40247" lon="6.64755">
        <ele>307.4</ele>
        <time>2016-10-09T10:54:26Z</time>
      </trkpt>
      <trkpt lat="43.40262" lon="6.64752">
        <ele>306.5</ele>
        <time>2016-10-09T10:54:28Z</time>
      </trkpt>
      <trkpt lat="43.40276" lon="6.64748">
        <ele>305.5</ele>
        <time>2016-10-09T10:54:30Z</time>
      </trkpt>
      <trkpt lat="43.40289" lon="6.64744">
        <ele>305</ele>
        <time>2016-10-09T10:54:32Z</time>
      </trkpt>
      <trkpt lat="43.40299" lon="6.64743">
        <ele>304.7</ele>
        <time>2016-10-09T10:54:34Z</time>
      </trkpt>
      <trkpt lat="43.40307" lon="6.64742">
        <ele>304.5</ele>
        <time>2016-10-09T10:54:36Z</time>
      </trkpt>
      <trkpt lat="43.40315" lon="6.64742">
        <ele>304.4</ele>
        <time>2016-10-09T10:54:38Z</time>
      </trkpt>
      <trkpt lat="43.40325" lon="6.64743">
        <ele>304.2</ele>
        <time>2016-10-09T10:54:40Z</time>
      </trkpt>
      <trkpt lat="43.40336" lon="6.64745">
        <ele>304.1</ele>
        <time>2016-10-09T10:54:42Z</time>
      </trkpt>
      <trkpt lat="43.40348" lon="6.6475">
        <ele>303.9</ele>
        <time>2016-10-09T10:54:44Z</time>
      </trkpt>
      <trkpt lat="43.40363" lon="6.64755">
        <ele>303.8</ele>
        <time>2016-10-09T10:54:46Z</time>
      </trkpt>
      <trkpt lat="43.40376" lon="6.64759">
        <ele>303.7</ele>
        <time>2016-10-09T10:54:48Z</time>
      </trkpt>
      <trkpt lat="43.40389" lon="6.64764">
        <ele>303.5</ele>
        <time>2016-10-09T10:54:50Z</time>
      </trkpt>
      <trkpt lat="43.40399" lon="6.64768">
        <ele>303.4</ele>
        <time>2016-10-09T10:54:52Z</time>
      </trkpt>
      <trkpt lat="43.40408" lon="6.64771">
        <ele>303.3</ele>
        <time>2016-10-09T10:54:54Z</time>
      </trkpt>
      <trkpt lat="43.40417" lon="6.64772">
        <ele>303.1</ele>
        <time>2016-10-09T10:54:56Z</time>
      </trkpt>
      <trkpt lat="43.40426" lon="6.64774">
        <ele>302.6</ele>
        <time>2016-10-09T10:54:58Z</time>
      </trkpt>
      <trkpt lat="43.40437" lon="6.64776">
        <ele>302</ele>
        <time>2016-10-09T10:55:00Z</time>
      </trkpt>
      <trkpt lat="43.40448" lon="6.64779">
        <ele>301.3</ele>
        <time>2016-10-09T10:55:02Z</time>
      </trkpt>
      <trkpt lat="43.40461" lon="6.64782">
        <ele>300.7</ele>
        <time>2016-10-09T10:55:04Z</time>
      </trkpt>
      <trkpt lat="43.40474" lon="6.64785">
        <ele>300.4</ele>
        <time>2016-10-09T10:55:06Z</time>
      </trkpt>
      <trkpt lat="43.40487" lon="6.64787">
        <ele>300.1</ele>
        <time>2016-10-09T10:55:08Z</time>
      </trkpt>
      <trkpt lat="43.40501" lon="6.64788">
        <ele>299.9</ele>
        <time>2016-10-09T10:55:10Z</time>
      </trkpt>
      <trkpt lat="43.40516" lon="6.6479">
        <ele>299.2</ele>
        <time>2016-10-09T10:55:12Z</time>
      </trkpt>
      <trkpt lat="43.4053" lon="6.64792">
        <ele>298.5</ele>
        <time>2016-10-09T10:55:14Z</time>
      </trkpt>
      <trkpt lat="43.40544" lon="6.64794">
        <ele>297.8</ele>
        <time>2016-10-09T10:55:16Z</time>
      </trkpt>
      <trkpt lat="43.40558" lon="6.64797">
        <ele>297.4</ele>
        <time>2016-10-09T10:55:18Z</time>
      </trkpt>
      <trkpt lat="43.4057" lon="6.64797">
        <ele>297</ele>
        <time>2016-10-09T10:55:20Z</time>
      </trkpt>
      <trkpt lat="43.40575" lon="6.6479">
        <ele>297</ele>
        <time>2016-10-09T10:55:22Z</time>
      </trkpt>
      <trkpt lat="43.40575" lon="6.64785">
        <ele>297</ele>
        <time>2016-10-09T10:55:24Z</time>
      </trkpt>
      <trkpt lat="43.40576" lon="6.64779">
        <ele>297</ele>
        <time>2016-10-09T10:55:26Z</time>
      </trkpt>
      <trkpt lat="43.40576" lon="6.64774">
        <ele>297</ele>
        <time>2016-10-09T10:55:28Z</time>
      </trkpt>
      <trkpt lat="43.40577" lon="6.6477">
        <ele>297</ele>
        <time>2016-10-09T10:55:30Z</time>
      </trkpt>
      <trkpt lat="43.40578" lon="6.64765">
        <ele>297</ele>
        <time>2016-10-09T10:55:32Z</time>
      </trkpt>
      <trkpt lat="43.40579" lon="6.64761">
        <ele>297</ele>
        <time>2016-10-09T10:55:34Z</time>
      </trkpt>
      <trkpt lat="43.40579" lon="6.64757">
        <ele>297</ele>
        <time>2016-10-09T10:55:36Z</time>
      </trkpt>
      <trkpt lat="43.40577" lon="6.64756">
        <ele>296.9</ele>
        <time>2016-10-09T10:55:38Z</time>
      </trkpt>
      <trkpt lat="43.40577" lon="6.64754">
        <ele>296.9</ele>
        <time>2016-10-09T10:55:49Z</time>
      </trkpt>
      <trkpt lat="43.40575" lon="6.64754">
        <ele>296.9</ele>
        <time>2016-10-09T10:55:51Z</time>
      </trkpt>
      <trkpt lat="43.40572" lon="6.64753">
        <ele>296.8</ele>
        <time>2016-10-09T10:55:53Z</time>
      </trkpt>
      <trkpt lat="43.4057" lon="6.64751">
        <ele>296.8</ele>
        <time>2016-10-09T10:55:55Z</time>
      </trkpt>
      <trkpt lat="43.40568" lon="6.64749">
        <ele>296.8</ele>
        <time>2016-10-09T10:55:57Z</time>
      </trkpt>
      <trkpt lat="43.40566" lon="6.64748">
        <ele>296.8</ele>
        <time>2016-10-09T10:55:59Z</time>
      </trkpt>
      <trkpt lat="43.40563" lon="6.64746">
        <ele>296.8</ele>
        <time>2016-10-09T10:56:01Z</time>
      </trkpt>
      <trkpt lat="43.40561" lon="6.64743">
        <ele>296.8</ele>
        <time>2016-10-09T10:56:03Z</time>
      </trkpt>
      <trkpt lat="43.40559" lon="6.6474">
        <ele>296.9</ele>
        <time>2016-10-09T10:56:05Z</time>
      </trkpt>
      <trkpt lat="43.40556" lon="6.64737">
        <ele>297.1</ele>
        <time>2016-10-09T10:56:07Z</time>
      </trkpt>
      <trkpt lat="43.40553" lon="6.64735">
        <ele>297.3</ele>
        <time>2016-10-09T10:56:09Z</time>
      </trkpt>
      <trkpt lat="43.4055" lon="6.64734">
        <ele>297.5</ele>
        <time>2016-10-09T10:56:11Z</time>
      </trkpt>
      <trkpt lat="43.40547" lon="6.64733">
        <ele>297.6</ele>
        <time>2016-10-09T10:56:13Z</time>
      </trkpt>
      <trkpt lat="43.40545" lon="6.64732">
        <ele>297.7</ele>
        <time>2016-10-09T10:56:15Z</time>
      </trkpt>
      <trkpt lat="43.40542" lon="6.64731">
        <ele>297.8</ele>
        <time>2016-10-09T10:56:17Z</time>
      </trkpt>
      <trkpt lat="43.40538" lon="6.6473">
        <ele>298</ele>
        <time>2016-10-09T10:56:19Z</time>
      </trkpt>
      <trkpt lat="43.40535" lon="6.64728">
        <ele>298.2</ele>
        <time>2016-10-09T10:56:21Z</time>
      </trkpt>
      <trkpt lat="43.40533" lon="6.64725">
        <ele>298.4</ele>
        <time>2016-10-09T10:56:23Z</time>
      </trkpt>
      <trkpt lat="43.4053" lon="6.64723">
        <ele>298.7</ele>
        <time>2016-10-09T10:56:25Z</time>
      </trkpt>
      <trkpt lat="43.40527" lon="6.64721">
        <ele>298.9</ele>
        <time>2016-10-09T10:56:27Z</time>
      </trkpt>
      <trkpt lat="43.40523" lon="6.64718">
        <ele>299</ele>
        <time>2016-10-09T10:56:29Z</time>
      </trkpt>
      <trkpt lat="43.4052" lon="6.64717">
        <ele>299.3</ele>
        <time>2016-10-09T10:56:31Z</time>
      </trkpt>
      <trkpt lat="43.40517" lon="6.64714">
        <ele>299.5</ele>
        <time>2016-10-09T10:56:33Z</time>
      </trkpt>
      <trkpt lat="43.40513" lon="6.64712">
        <ele>299.8</ele>
        <time>2016-10-09T10:56:35Z</time>
      </trkpt>
      <trkpt lat="43.40509" lon="6.64709">
        <ele>299.9</ele>
        <time>2016-10-09T10:56:37Z</time>
      </trkpt>
      <trkpt lat="43.40505" lon="6.64707">
        <ele>300</ele>
        <time>2016-10-09T10:56:39Z</time>
      </trkpt>
      <trkpt lat="43.40501" lon="6.64705">
        <ele>300.2</ele>
        <time>2016-10-09T10:56:41Z</time>
      </trkpt>
      <trkpt lat="43.40497" lon="6.64703">
        <ele>300.5</ele>
        <time>2016-10-09T10:56:43Z</time>
      </trkpt>
      <trkpt lat="43.40492" lon="6.64702">
        <ele>300.7</ele>
        <time>2016-10-09T10:56:45Z</time>
      </trkpt>
      <trkpt lat="43.40487" lon="6.64701">
        <ele>300.9</ele>
        <time>2016-10-09T10:56:47Z</time>
      </trkpt>
      <trkpt lat="43.40482" lon="6.64699">
        <ele>301</ele>
        <time>2016-10-09T10:56:49Z</time>
      </trkpt>
      <trkpt lat="43.40478" lon="6.64699">
        <ele>301.1</ele>
        <time>2016-10-09T10:56:51Z</time>
      </trkpt>
      <trkpt lat="43.40473" lon="6.64699">
        <ele>301.1</ele>
        <time>2016-10-09T10:56:53Z</time>
      </trkpt>
      <trkpt lat="43.40469" lon="6.64699">
        <ele>301.2</ele>
        <time>2016-10-09T10:56:55Z</time>
      </trkpt>
      <trkpt lat="43.40464" lon="6.64697">
        <ele>301.2</ele>
        <time>2016-10-09T10:56:57Z</time>
      </trkpt>
      <trkpt lat="43.40461" lon="6.64695">
        <ele>301.3</ele>
        <time>2016-10-09T10:56:59Z</time>
      </trkpt>
      <trkpt lat="43.40459" lon="6.64694">
        <ele>301.5</ele>
        <time>2016-10-09T10:57:01Z</time>
      </trkpt>
      <trkpt lat="43.40456" lon="6.64692">
        <ele>301.6</ele>
        <time>2016-10-09T10:57:03Z</time>
      </trkpt>
      <trkpt lat="43.40454" lon="6.6469">
        <ele>301.9</ele>
        <time>2016-10-09T10:57:05Z</time>
      </trkpt>
      <trkpt lat="43.40452" lon="6.64689">
        <ele>302.1</ele>
        <time>2016-10-09T10:57:07Z</time>
      </trkpt>
      <trkpt lat="43.4045" lon="6.64687">
        <ele>302.2</ele>
        <time>2016-10-09T10:57:09Z</time>
      </trkpt>
      <trkpt lat="43.40448" lon="6.64686">
        <ele>302.4</ele>
        <time>2016-10-09T10:57:11Z</time>
      </trkpt>
      <trkpt lat="43.40445" lon="6.64684">
        <ele>302.6</ele>
        <time>2016-10-09T10:57:13Z</time>
      </trkpt>
      <trkpt lat="43.40443" lon="6.64682">
        <ele>302.9</ele>
        <time>2016-10-09T10:57:15Z</time>
      </trkpt>
      <trkpt lat="43.4044" lon="6.6468">
        <ele>303.2</ele>
        <time>2016-10-09T10:57:17Z</time>
      </trkpt>
      <trkpt lat="43.40437" lon="6.64678">
        <ele>303.5</ele>
        <time>2016-10-09T10:57:19Z</time>
      </trkpt>
      <trkpt lat="43.40434" lon="6.64676">
        <ele>303.8</ele>
        <time>2016-10-09T10:57:21Z</time>
      </trkpt>
      <trkpt lat="43.40432" lon="6.64675">
        <ele>304</ele>
        <time>2016-10-09T10:57:23Z</time>
      </trkpt>
      <trkpt lat="43.40429" lon="6.64673">
        <ele>304.1</ele>
        <time>2016-10-09T10:57:25Z</time>
      </trkpt>
      <trkpt lat="43.40426" lon="6.64672">
        <ele>304.2</ele>
        <time>2016-10-09T10:57:27Z</time>
      </trkpt>
      <trkpt lat="43.40423" lon="6.64671">
        <ele>304.3</ele>
        <time>2016-10-09T10:57:29Z</time>
      </trkpt>
      <trkpt lat="43.4042" lon="6.6467">
        <ele>304.4</ele>
        <time>2016-10-09T10:57:31Z</time>
      </trkpt>
      <trkpt lat="43.40416" lon="6.6467">
        <ele>304.5</ele>
        <time>2016-10-09T10:57:33Z</time>
      </trkpt>
      <trkpt lat="43.40412" lon="6.64669">
        <ele>304.7</ele>
        <time>2016-10-09T10:57:35Z</time>
      </trkpt>
      <trkpt lat="43.40407" lon="6.64667">
        <ele>304.9</ele>
        <time>2016-10-09T10:57:37Z</time>
      </trkpt>
      <trkpt lat="43.40403" lon="6.64666">
        <ele>305.1</ele>
        <time>2016-10-09T10:57:39Z</time>
      </trkpt>
      <trkpt lat="43.40399" lon="6.64665">
        <ele>305.2</ele>
        <time>2016-10-09T10:57:41Z</time>
      </trkpt>
      <trkpt lat="43.40395" lon="6.64664">
        <ele>305.3</ele>
        <time>2016-10-09T10:57:43Z</time>
      </trkpt>
      <trkpt lat="43.40392" lon="6.64663">
        <ele>305.4</ele>
        <time>2016-10-09T10:57:45Z</time>
      </trkpt>
      <trkpt lat="43.40389" lon="6.64663">
        <ele>305.5</ele>
        <time>2016-10-09T10:57:47Z</time>
      </trkpt>
      <trkpt lat="43.40385" lon="6.64663">
        <ele>305.6</ele>
        <time>2016-10-09T10:57:49Z</time>
      </trkpt>
      <trkpt lat="43.40382" lon="6.64663">
        <ele>305.8</ele>
        <time>2016-10-09T10:57:51Z</time>
      </trkpt>
      <trkpt lat="43.40379" lon="6.64663">
        <ele>306</ele>
        <time>2016-10-09T10:57:53Z</time>
      </trkpt>
      <trkpt lat="43.40376" lon="6.64663">
        <ele>306.2</ele>
        <time>2016-10-09T10:57:55Z</time>
      </trkpt>
      <trkpt lat="43.40373" lon="6.64664">
        <ele>306.3</ele>
        <time>2016-10-09T10:57:57Z</time>
      </trkpt>
      <trkpt lat="43.4037" lon="6.64664">
        <ele>306.4</ele>
        <time>2016-10-09T10:57:59Z</time>
      </trkpt>
      <trkpt lat="43.40367" lon="6.64664">
        <ele>306.6</ele>
        <time>2016-10-09T10:58:01Z</time>
      </trkpt>
      <trkpt lat="43.40365" lon="6.64665">
        <ele>306.7</ele>
        <time>2016-10-09T10:58:03Z</time>
      </trkpt>
      <trkpt lat="43.40361" lon="6.64666">
        <ele>306.9</ele>
        <time>2016-10-09T10:58:05Z</time>
      </trkpt>
      <trkpt lat="43.40359" lon="6.64667">
        <ele>307.1</ele>
        <time>2016-10-09T10:58:07Z</time>
      </trkpt>
      <trkpt lat="43.40356" lon="6.64669">
        <ele>307.2</ele>
        <time>2016-10-09T10:58:09Z</time>
      </trkpt>
      <trkpt lat="43.40352" lon="6.64671">
        <ele>307.3</ele>
        <time>2016-10-09T10:58:11Z</time>
      </trkpt>
      <trkpt lat="43.40346" lon="6.64674">
        <ele>307.3</ele>
        <time>2016-10-09T10:58:13Z</time>
      </trkpt>
      <trkpt lat="43.40339" lon="6.64678">
        <ele>307.3</ele>
        <time>2016-10-09T10:58:15Z</time>
      </trkpt>
      <trkpt lat="43.40332" lon="6.64679">
        <ele>307.3</ele>
        <time>2016-10-09T10:58:17Z</time>
      </trkpt>
      <trkpt lat="43.40327" lon="6.64678">
        <ele>307.4</ele>
        <time>2016-10-09T10:58:19Z</time>
      </trkpt>
      <trkpt lat="43.40323" lon="6.64678">
        <ele>307.4</ele>
        <time>2016-10-09T10:58:21Z</time>
      </trkpt>
      <trkpt lat="43.4032" lon="6.64677">
        <ele>307.4</ele>
        <time>2016-10-09T10:58:23Z</time>
      </trkpt>
      <trkpt lat="43.40316" lon="6.64677">
        <ele>307.5</ele>
        <time>2016-10-09T10:58:25Z</time>
      </trkpt>
      <trkpt lat="43.40313" lon="6.64677">
        <ele>307.5</ele>
        <time>2016-10-09T10:58:27Z</time>
      </trkpt>
      <trkpt lat="43.40311" lon="6.64676">
        <ele>307.6</ele>
        <time>2016-10-09T10:58:29Z</time>
      </trkpt>
      <trkpt lat="43.40308" lon="6.64675">
        <ele>307.8</ele>
        <time>2016-10-09T10:58:31Z</time>
      </trkpt>
      <trkpt lat="43.40305" lon="6.64675">
        <ele>308</ele>
        <time>2016-10-09T10:58:33Z</time>
      </trkpt>
      <trkpt lat="43.40302" lon="6.64674">
        <ele>308.3</ele>
        <time>2016-10-09T10:58:35Z</time>
      </trkpt>
      <trkpt lat="43.40299" lon="6.64674">
        <ele>308.6</ele>
        <time>2016-10-09T10:58:37Z</time>
      </trkpt>
      <trkpt lat="43.40296" lon="6.64672">
        <ele>308.9</ele>
        <time>2016-10-09T10:58:39Z</time>
      </trkpt>
      <trkpt lat="43.40294" lon="6.64671">
        <ele>309.1</ele>
        <time>2016-10-09T10:58:41Z</time>
      </trkpt>
      <trkpt lat="43.40291" lon="6.6467">
        <ele>309.4</ele>
        <time>2016-10-09T10:58:43Z</time>
      </trkpt>
      <trkpt lat="43.40289" lon="6.64669">
        <ele>309.5</ele>
        <time>2016-10-09T10:58:45Z</time>
      </trkpt>
      <trkpt lat="43.40287" lon="6.64667">
        <ele>309.6</ele>
        <time>2016-10-09T10:58:47Z</time>
      </trkpt>
      <trkpt lat="43.40284" lon="6.64666">
        <ele>309.7</ele>
        <time>2016-10-09T10:58:49Z</time>
      </trkpt>
      <trkpt lat="43.40282" lon="6.64665">
        <ele>309.8</ele>
        <time>2016-10-09T10:58:51Z</time>
      </trkpt>
      <trkpt lat="43.40279" lon="6.64663">
        <ele>310</ele>
        <time>2016-10-09T10:58:53Z</time>
      </trkpt>
      <trkpt lat="43.40277" lon="6.64662">
        <ele>310.3</ele>
        <time>2016-10-09T10:58:55Z</time>
      </trkpt>
      <trkpt lat="43.40274" lon="6.6466">
        <ele>310.5</ele>
        <time>2016-10-09T10:58:57Z</time>
      </trkpt>
      <trkpt lat="43.40271" lon="6.64658">
        <ele>310.6</ele>
        <time>2016-10-09T10:58:59Z</time>
      </trkpt>
      <trkpt lat="43.40268" lon="6.64656">
        <ele>310.7</ele>
        <time>2016-10-09T10:59:01Z</time>
      </trkpt>
      <trkpt lat="43.40265" lon="6.64654">
        <ele>310.8</ele>
        <time>2016-10-09T10:59:03Z</time>
      </trkpt>
      <trkpt lat="43.40261" lon="6.64652">
        <ele>311</ele>
        <time>2016-10-09T10:59:05Z</time>
      </trkpt>
      <trkpt lat="43.40255" lon="6.64651">
        <ele>311.2</ele>
        <time>2016-10-09T10:59:07Z</time>
      </trkpt>
      <trkpt lat="43.40248" lon="6.6465">
        <ele>311.4</ele>
        <time>2016-10-09T10:59:09Z</time>
      </trkpt>
      <trkpt lat="43.40241" lon="6.6465">
        <ele>311.5</ele>
        <time>2016-10-09T10:59:11Z</time>
      </trkpt>
      <trkpt lat="43.40235" lon="6.6465">
        <ele>311.5</ele>
        <time>2016-10-09T10:59:13Z</time>
      </trkpt>
      <trkpt lat="43.40229" lon="6.6465">
        <ele>311.5</ele>
        <time>2016-10-09T10:59:15Z</time>
      </trkpt>
      <trkpt lat="43.40221" lon="6.6465">
        <ele>311.5</ele>
        <time>2016-10-09T10:59:17Z</time>
      </trkpt>
      <trkpt lat="43.40212" lon="6.64649">
        <ele>311.4</ele>
        <time>2016-10-09T10:59:19Z</time>
      </trkpt>
      <trkpt lat="43.40205" lon="6.6465">
        <ele>311.4</ele>
        <time>2016-10-09T10:59:21Z</time>
      </trkpt>
      <trkpt lat="43.40197" lon="6.6465">
        <ele>311.3</ele>
        <time>2016-10-09T10:59:23Z</time>
      </trkpt>
      <trkpt lat="43.40189" lon="6.6465">
        <ele>311.3</ele>
        <time>2016-10-09T10:59:25Z</time>
      </trkpt>
      <trkpt lat="43.40182" lon="6.6465">
        <ele>311.2</ele>
        <time>2016-10-09T10:59:27Z</time>
      </trkpt>
      <trkpt lat="43.40175" lon="6.64652">
        <ele>311.1</ele>
        <time>2016-10-09T10:59:29Z</time>
      </trkpt>
      <trkpt lat="43.40168" lon="6.64654">
        <ele>311</ele>
        <time>2016-10-09T10:59:31Z</time>
      </trkpt>
      <trkpt lat="43.40159" lon="6.64658">
        <ele>310.8</ele>
        <time>2016-10-09T10:59:33Z</time>
      </trkpt>
      <trkpt lat="43.40149" lon="6.64664">
        <ele>310.6</ele>
        <time>2016-10-09T10:59:35Z</time>
      </trkpt>
      <trkpt lat="43.40141" lon="6.64674">
        <ele>310.4</ele>
        <time>2016-10-09T10:59:37Z</time>
      </trkpt>
      <trkpt lat="43.40134" lon="6.64683">
        <ele>310.3</ele>
        <time>2016-10-09T10:59:39Z</time>
      </trkpt>
      <trkpt lat="43.4013" lon="6.64689">
        <ele>310.2</ele>
        <time>2016-10-09T10:59:41Z</time>
      </trkpt>
      <trkpt lat="43.40125" lon="6.64697">
        <ele>310.1</ele>
        <time>2016-10-09T10:59:43Z</time>
      </trkpt>
      <trkpt lat="43.40118" lon="6.64704">
        <ele>310</ele>
        <time>2016-10-09T10:59:45Z</time>
      </trkpt>
      <trkpt lat="43.40111" lon="6.64708">
        <ele>309.9</ele>
        <time>2016-10-09T10:59:47Z</time>
      </trkpt>
      <trkpt lat="43.40103" lon="6.6471">
        <ele>309.8</ele>
        <time>2016-10-09T10:59:49Z</time>
      </trkpt>
      <trkpt lat="43.40096" lon="6.64715">
        <ele>309.8</ele>
        <time>2016-10-09T10:59:51Z</time>
      </trkpt>
      <trkpt lat="43.40089" lon="6.64722">
        <ele>309.7</ele>
        <time>2016-10-09T10:59:53Z</time>
      </trkpt>
      <trkpt lat="43.40083" lon="6.64729">
        <ele>309.7</ele>
        <time>2016-10-09T10:59:55Z</time>
      </trkpt>
      <trkpt lat="43.40077" lon="6.64737">
        <ele>309.7</ele>
        <time>2016-10-09T10:59:57Z</time>
      </trkpt>
      <trkpt lat="43.4007" lon="6.64746">
        <ele>309.7</ele>
        <time>2016-10-09T10:59:59Z</time>
      </trkpt>
      <trkpt lat="43.40064" lon="6.64754">
        <ele>309.8</ele>
        <time>2016-10-09T11:00:01Z</time>
      </trkpt>
      <trkpt lat="43.40058" lon="6.64762">
        <ele>309.9</ele>
        <time>2016-10-09T11:00:03Z</time>
      </trkpt>
      <trkpt lat="43.40055" lon="6.6477">
        <ele>310</ele>
        <time>2016-10-09T11:00:05Z</time>
      </trkpt>
      <trkpt lat="43.40052" lon="6.64777">
        <ele>309.9</ele>
        <time>2016-10-09T11:00:07Z</time>
      </trkpt>
      <trkpt lat="43.40048" lon="6.64785">
        <ele>309.8</ele>
        <time>2016-10-09T11:00:09Z</time>
      </trkpt>
      <trkpt lat="43.40043" lon="6.64794">
        <ele>309.6</ele>
        <time>2016-10-09T11:00:11Z</time>
      </trkpt>
      <trkpt lat="43.4004" lon="6.64806">
        <ele>309.2</ele>
        <time>2016-10-09T11:00:13Z</time>
      </trkpt>
      <trkpt lat="43.40038" lon="6.64817">
        <ele>308.8</ele>
        <time>2016-10-09T11:00:15Z</time>
      </trkpt>
      <trkpt lat="43.40033" lon="6.64822">
        <ele>308.2</ele>
        <time>2016-10-09T11:00:17Z</time>
      </trkpt>
      <trkpt lat="43.40027" lon="6.64822">
        <ele>307.5</ele>
        <time>2016-10-09T11:00:19Z</time>
      </trkpt>
      <trkpt lat="43.40022" lon="6.64822">
        <ele>306.9</ele>
        <time>2016-10-09T11:00:21Z</time>
      </trkpt>
      <trkpt lat="43.4002" lon="6.64825">
        <ele>306.6</ele>
        <time>2016-10-09T11:00:39Z</time>
      </trkpt>
      <trkpt lat="43.40016" lon="6.64825">
        <ele>306</ele>
        <time>2016-10-09T11:00:41Z</time>
      </trkpt>
      <trkpt lat="43.4001" lon="6.64823">
        <ele>305.2</ele>
        <time>2016-10-09T11:00:43Z</time>
      </trkpt>
      <trkpt lat="43.40002" lon="6.64822">
        <ele>304</ele>
        <time>2016-10-09T11:00:45Z</time>
      </trkpt>
      <trkpt lat="43.39993" lon="6.64821">
        <ele>302.4</ele>
        <time>2016-10-09T11:00:47Z</time>
      </trkpt>
      <trkpt lat="43.39983" lon="6.64824">
        <ele>300.9</ele>
        <time>2016-10-09T11:00:49Z</time>
      </trkpt>
      <trkpt lat="43.39974" lon="6.64829">
        <ele>299.1</ele>
        <time>2016-10-09T11:00:51Z</time>
      </trkpt>
      <trkpt lat="43.39965" lon="6.64833">
        <ele>297.4</ele>
        <time>2016-10-09T11:00:53Z</time>
      </trkpt>
      <trkpt lat="43.39957" lon="6.64835">
        <ele>295.4</ele>
        <time>2016-10-09T11:00:55Z</time>
      </trkpt>
      <trkpt lat="43.39947" lon="6.64836">
        <ele>292.9</ele>
        <time>2016-10-09T11:00:57Z</time>
      </trkpt>
      <trkpt lat="43.39938" lon="6.64841">
        <ele>290.3</ele>
        <time>2016-10-09T11:00:59Z</time>
      </trkpt>
      <trkpt lat="43.39931" lon="6.64843">
        <ele>287.7</ele>
        <time>2016-10-09T11:01:01Z</time>
      </trkpt>
      <trkpt lat="43.39921" lon="6.64843">
        <ele>284.2</ele>
        <time>2016-10-09T11:01:03Z</time>
      </trkpt>
      <trkpt lat="43.39909" lon="6.64841">
        <ele>280.6</ele>
        <time>2016-10-09T11:01:05Z</time>
      </trkpt>
      <trkpt lat="43.39898" lon="6.64845">
        <ele>278.1</ele>
        <time>2016-10-09T11:01:07Z</time>
      </trkpt>
      <trkpt lat="43.39887" lon="6.64851">
        <ele>275.9</ele>
        <time>2016-10-09T11:01:09Z</time>
      </trkpt>
      <trkpt lat="43.39881" lon="6.64859">
        <ele>274.5</ele>
        <time>2016-10-09T11:01:11Z</time>
      </trkpt>
      <trkpt lat="43.39879" lon="6.64869">
        <ele>273.1</ele>
        <time>2016-10-09T11:01:13Z</time>
      </trkpt>
      <trkpt lat="43.39877" lon="6.64876">
        <ele>271.9</ele>
        <time>2016-10-09T11:01:15Z</time>
      </trkpt>
      <trkpt lat="43.39874" lon="6.6488">
        <ele>270.8</ele>
        <time>2016-10-09T11:01:17Z</time>
      </trkpt>
      <trkpt lat="43.39869" lon="6.64881">
        <ele>269.5</ele>
        <time>2016-10-09T11:01:19Z</time>
      </trkpt>
      <trkpt lat="43.39864" lon="6.64882">
        <ele>268.4</ele>
        <time>2016-10-09T11:01:21Z</time>
      </trkpt>
      <trkpt lat="43.39858" lon="6.64886">
        <ele>266.9</ele>
        <time>2016-10-09T11:01:23Z</time>
      </trkpt>
      <trkpt lat="43.39854" lon="6.64895">
        <ele>265.4</ele>
        <time>2016-10-09T11:01:25Z</time>
      </trkpt>
      <trkpt lat="43.39849" lon="6.64905">
        <ele>263.9</ele>
        <time>2016-10-09T11:01:27Z</time>
      </trkpt>
      <trkpt lat="43.39843" lon="6.64914">
        <ele>262.6</ele>
        <time>2016-10-09T11:01:29Z</time>
      </trkpt>
      <trkpt lat="43.39837" lon="6.6492">
        <ele>261.7</ele>
        <time>2016-10-09T11:01:31Z</time>
      </trkpt>
      <trkpt lat="43.39831" lon="6.64923">
        <ele>260.7</ele>
        <time>2016-10-09T11:01:33Z</time>
      </trkpt>
      <trkpt lat="43.39821" lon="6.64928">
        <ele>258.9</ele>
        <time>2016-10-09T11:01:35Z</time>
      </trkpt>
      <trkpt lat="43.39813" lon="6.64939">
        <ele>256.4</ele>
        <time>2016-10-09T11:01:37Z</time>
      </trkpt>
      <trkpt lat="43.39806" lon="6.64948">
        <ele>254.3</ele>
        <time>2016-10-09T11:01:39Z</time>
      </trkpt>
      <trkpt lat="43.398" lon="6.64953">
        <ele>252.6</ele>
        <time>2016-10-09T11:01:41Z</time>
      </trkpt>
      <trkpt lat="43.39793" lon="6.64958">
        <ele>251</ele>
        <time>2016-10-09T11:01:43Z</time>
      </trkpt>
      <trkpt lat="43.39787" lon="6.64961">
        <ele>249.5</ele>
        <time>2016-10-09T11:01:45Z</time>
      </trkpt>
      <trkpt lat="43.3978" lon="6.64963">
        <ele>247.8</ele>
        <time>2016-10-09T11:01:47Z</time>
      </trkpt>
      <trkpt lat="43.39772" lon="6.64964">
        <ele>246.3</ele>
        <time>2016-10-09T11:01:49Z</time>
      </trkpt>
      <trkpt lat="43.39764" lon="6.64963">
        <ele>244.7</ele>
        <time>2016-10-09T11:01:51Z</time>
      </trkpt>
      <trkpt lat="43.39755" lon="6.64966">
        <ele>242.6</ele>
        <time>2016-10-09T11:01:53Z</time>
      </trkpt>
      <trkpt lat="43.39746" lon="6.64971">
        <ele>240.6</ele>
        <time>2016-10-09T11:01:55Z</time>
      </trkpt>
      <trkpt lat="43.39737" lon="6.64977">
        <ele>238.9</ele>
        <time>2016-10-09T11:01:57Z</time>
      </trkpt>
      <trkpt lat="43.39728" lon="6.64984">
        <ele>237.2</ele>
        <time>2016-10-09T11:01:59Z</time>
      </trkpt>
      <trkpt lat="43.39719" lon="6.64991">
        <ele>235.6</ele>
        <time>2016-10-09T11:02:01Z</time>
      </trkpt>
      <trkpt lat="43.39709" lon="6.64998">
        <ele>234.2</ele>
        <time>2016-10-09T11:02:03Z</time>
      </trkpt>
      <trkpt lat="43.39699" lon="6.65004">
        <ele>232.8</ele>
        <time>2016-10-09T11:02:05Z</time>
      </trkpt>
      <trkpt lat="43.39688" lon="6.65016">
        <ele>231.1</ele>
        <time>2016-10-09T11:02:08Z</time>
      </trkpt>
      <trkpt lat="43.39682" lon="6.65025">
        <ele>230</ele>
        <time>2016-10-09T11:02:48Z</time>
      </trkpt>
      <trkpt lat="43.39671" lon="6.65037">
        <ele>228.1</ele>
        <time>2016-10-09T11:02:50Z</time>
      </trkpt>
      <trkpt lat="43.39661" lon="6.65047">
        <ele>226.4</ele>
        <time>2016-10-09T11:02:52Z</time>
      </trkpt>
      <trkpt lat="43.39651" lon="6.6506">
        <ele>224.7</ele>
        <time>2016-10-09T11:02:54Z</time>
      </trkpt>
      <trkpt lat="43.39643" lon="6.65067">
        <ele>223.6</ele>
        <time>2016-10-09T11:02:56Z</time>
      </trkpt>
      <trkpt lat="43.39635" lon="6.65067">
        <ele>221.4</ele>
        <time>2016-10-09T11:02:58Z</time>
      </trkpt>
      <trkpt lat="43.39626" lon="6.65063">
        <ele>219.8</ele>
        <time>2016-10-09T11:03:00Z</time>
      </trkpt>
      <trkpt lat="43.39617" lon="6.6506">
        <ele>218.3</ele>
        <time>2016-10-09T11:03:02Z</time>
      </trkpt>
      <trkpt lat="43.39606" lon="6.65058">
        <ele>216.6</ele>
        <time>2016-10-09T11:03:04Z</time>
      </trkpt>
      <trkpt lat="43.39597" lon="6.65063">
        <ele>215.1</ele>
        <time>2016-10-09T11:03:06Z</time>
      </trkpt>
      <trkpt lat="43.39592" lon="6.65069">
        <ele>213.8</ele>
        <time>2016-10-09T11:03:08Z</time>
      </trkpt>
      <trkpt lat="43.39589" lon="6.65072">
        <ele>213.2</ele>
        <time>2016-10-09T11:03:10Z</time>
      </trkpt>
      <trkpt lat="43.39587" lon="6.65073">
        <ele>212.7</ele>
        <time>2016-10-09T11:03:12Z</time>
      </trkpt>
      <trkpt lat="43.39584" lon="6.65073">
        <ele>212.3</ele>
        <time>2016-10-09T11:03:14Z</time>
      </trkpt>
      <trkpt lat="43.39583" lon="6.65074">
        <ele>212</ele>
        <time>2016-10-09T11:03:20Z</time>
      </trkpt>
      <trkpt lat="43.39581" lon="6.65074">
        <ele>211.6</ele>
        <time>2016-10-09T11:03:22Z</time>
      </trkpt>
      <trkpt lat="43.39578" lon="6.65075">
        <ele>210.9</ele>
        <time>2016-10-09T11:03:26Z</time>
      </trkpt>
      <trkpt lat="43.39576" lon="6.65077">
        <ele>210.4</ele>
        <time>2016-10-09T11:03:28Z</time>
      </trkpt>
      <trkpt lat="43.39573" lon="6.65078">
        <ele>209.8</ele>
        <time>2016-10-09T11:03:30Z</time>
      </trkpt>
      <trkpt lat="43.39571" lon="6.65078">
        <ele>209.3</ele>
        <time>2016-10-09T11:03:32Z</time>
      </trkpt>
      <trkpt lat="43.39568" lon="6.65078">
        <ele>208.8</ele>
        <time>2016-10-09T11:03:34Z</time>
      </trkpt>
      <trkpt lat="43.39564" lon="6.65079">
        <ele>208</ele>
        <time>2016-10-09T11:03:36Z</time>
      </trkpt>
      <trkpt lat="43.39561" lon="6.65081">
        <ele>207.3</ele>
        <time>2016-10-09T11:03:38Z</time>
      </trkpt>
      <trkpt lat="43.39558" lon="6.65084">
        <ele>206.5</ele>
        <time>2016-10-09T11:03:40Z</time>
      </trkpt>
      <trkpt lat="43.39555" lon="6.65089">
        <ele>205.4</ele>
        <time>2016-10-09T11:03:55Z</time>
      </trkpt>
      <trkpt lat="43.39553" lon="6.6509">
        <ele>205</ele>
        <time>2016-10-09T11:06:51Z</time>
      </trkpt>
      <trkpt lat="43.39551" lon="6.65093">
        <ele>204.5</ele>
        <time>2016-10-09T11:06:53Z</time>
      </trkpt>
      <trkpt lat="43.39539" lon="6.6511">
        <ele>200.7</ele>
        <time>2016-10-09T11:06:55Z</time>
      </trkpt>
      <trkpt lat="43.39538" lon="6.65111">
        <ele>200.3</ele>
        <time>2016-10-09T11:06:57Z</time>
      </trkpt>
      <trkpt lat="43.39536" lon="6.65112">
        <ele>200</ele>
        <time>2016-10-09T11:06:59Z</time>
      </trkpt>
      <trkpt lat="43.39533" lon="6.65111">
        <ele>199.2</ele>
        <time>2016-10-09T11:08:14Z</time>
      </trkpt>
      <trkpt lat="43.39531" lon="6.6511">
        <ele>198.5</ele>
        <time>2016-10-09T11:08:16Z</time>
      </trkpt>
      <trkpt lat="43.39529" lon="6.65109">
        <ele>197.9</ele>
        <time>2016-10-09T11:08:18Z</time>
      </trkpt>
      <trkpt lat="43.39526" lon="6.65109">
        <ele>197.2</ele>
        <time>2016-10-09T11:08:20Z</time>
      </trkpt>
      <trkpt lat="43.39525" lon="6.65108">
        <ele>196.7</ele>
        <time>2016-10-09T11:08:22Z</time>
      </trkpt>
      <trkpt lat="43.39523" lon="6.65108">
        <ele>196.1</ele>
        <time>2016-10-09T11:08:24Z</time>
      </trkpt>
      <trkpt lat="43.39522" lon="6.65108">
        <ele>195.8</ele>
        <time>2016-10-09T11:08:26Z</time>
      </trkpt>
      <trkpt lat="43.39521" lon="6.65108">
        <ele>195.3</ele>
        <time>2016-10-09T11:08:28Z</time>
      </trkpt>
      <trkpt lat="43.3952" lon="6.65107">
        <ele>195</ele>
        <time>2016-10-09T11:08:30Z</time>
      </trkpt>
      <trkpt lat="43.39519" lon="6.65107">
        <ele>194.6</ele>
        <time>2016-10-09T11:08:32Z</time>
      </trkpt>
      <trkpt lat="43.39517" lon="6.65107">
        <ele>194.2</ele>
        <time>2016-10-09T11:08:34Z</time>
      </trkpt>
      <trkpt lat="43.39515" lon="6.65107">
        <ele>193.5</ele>
        <time>2016-10-09T11:08:36Z</time>
      </trkpt>
      <trkpt lat="43.39513" lon="6.65107">
        <ele>193.2</ele>
        <time>2016-10-09T11:08:38Z</time>
      </trkpt>
      <trkpt lat="43.39511" lon="6.65105">
        <ele>192.5</ele>
        <time>2016-10-09T11:08:53Z</time>
      </trkpt>
      <trkpt lat="43.3951" lon="6.65104">
        <ele>191.8</ele>
        <time>2016-10-09T11:08:55Z</time>
      </trkpt>
      <trkpt lat="43.39505" lon="6.65099">
        <ele>190.9</ele>
        <time>2016-10-09T11:09:55Z</time>
      </trkpt>
      <trkpt lat="43.395" lon="6.65096">
        <ele>189.5</ele>
        <time>2016-10-09T11:09:57Z</time>
      </trkpt>
      <trkpt lat="43.39499" lon="6.65095">
        <ele>189.2</ele>
        <time>2016-10-09T11:09:59Z</time>
      </trkpt>
      <trkpt lat="43.39497" lon="6.65094">
        <ele>188.6</ele>
        <time>2016-10-09T11:10:04Z</time>
      </trkpt>
      <trkpt lat="43.39496" lon="6.65093">
        <ele>187.9</ele>
        <time>2016-10-09T11:10:06Z</time>
      </trkpt>
      <trkpt lat="43.39494" lon="6.65092">
        <ele>187.1</ele>
        <time>2016-10-09T11:10:08Z</time>
      </trkpt>
      <trkpt lat="43.39492" lon="6.65091">
        <ele>186.8</ele>
        <time>2016-10-09T11:10:10Z</time>
      </trkpt>
      <trkpt lat="43.39491" lon="6.65089">
        <ele>185.6</ele>
        <time>2016-10-09T11:10:12Z</time>
      </trkpt>
      <trkpt lat="43.39489" lon="6.65088">
        <ele>185.3</ele>
        <time>2016-10-09T11:10:14Z</time>
      </trkpt>
      <trkpt lat="43.39486" lon="6.65087">
        <ele>184.4</ele>
        <time>2016-10-09T11:10:16Z</time>
      </trkpt>
      <trkpt lat="43.39484" lon="6.65086">
        <ele>183.5</ele>
        <time>2016-10-09T11:10:18Z</time>
      </trkpt>
      <trkpt lat="43.39481" lon="6.65084">
        <ele>182.2</ele>
        <time>2016-10-09T11:10:26Z</time>
      </trkpt>
      <trkpt lat="43.39481" lon="6.65081">
        <ele>181.9</ele>
        <time>2016-10-09T11:10:30Z</time>
      </trkpt>
      <trkpt lat="43.3948" lon="6.6508">
        <ele>181.1</ele>
        <time>2016-10-09T11:10:32Z</time>
      </trkpt>
      <trkpt lat="43.39478" lon="6.65078">
        <ele>180.1</ele>
        <time>2016-10-09T11:10:40Z</time>
      </trkpt>
      <trkpt lat="43.39476" lon="6.65076">
        <ele>179.1</ele>
        <time>2016-10-09T11:10:45Z</time>
      </trkpt>
      <trkpt lat="43.3947" lon="6.65073">
        <ele>177.5</ele>
        <time>2016-10-09T11:11:29Z</time>
      </trkpt>
      <trkpt lat="43.39463" lon="6.65071">
        <ele>173.6</ele>
        <time>2016-10-09T11:11:31Z</time>
      </trkpt>
      <trkpt lat="43.39461" lon="6.65072">
        <ele>174</ele>
        <time>2016-10-09T11:11:33Z</time>
      </trkpt>
      <trkpt lat="43.39459" lon="6.65074">
        <ele>172.6</ele>
        <time>2016-10-09T11:11:49Z</time>
      </trkpt>
      <trkpt lat="43.39456" lon="6.65076">
        <ele>171.8</ele>
        <time>2016-10-09T11:11:51Z</time>
      </trkpt>
      <trkpt lat="43.39452" lon="6.65081">
        <ele>170.9</ele>
        <time>2016-10-09T11:11:53Z</time>
      </trkpt>
      <trkpt lat="43.39448" lon="6.65082">
        <ele>171</ele>
        <time>2016-10-09T11:11:55Z</time>
      </trkpt>
      <trkpt lat="43.39446" lon="6.65081">
        <ele>171</ele>
        <time>2016-10-09T11:11:57Z</time>
      </trkpt>
      <trkpt lat="43.39443" lon="6.65081">
        <ele>171.1</ele>
        <time>2016-10-09T11:11:59Z</time>
      </trkpt>
      <trkpt lat="43.39439" lon="6.65084">
        <ele>171.3</ele>
        <time>2016-10-09T11:12:01Z</time>
      </trkpt>
      <trkpt lat="43.39437" lon="6.65086">
        <ele>171.4</ele>
        <time>2016-10-09T11:12:03Z</time>
      </trkpt>
      <trkpt lat="43.39433" lon="6.65088">
        <ele>171.6</ele>
        <time>2016-10-09T11:12:07Z</time>
      </trkpt>
      <trkpt lat="43.3943" lon="6.65088">
        <ele>171.7</ele>
        <time>2016-10-09T11:12:09Z</time>
      </trkpt>
      <trkpt lat="43.39428" lon="6.65086">
        <ele>171.7</ele>
        <time>2016-10-09T11:12:11Z</time>
      </trkpt>
      <trkpt lat="43.39428" lon="6.65084">
        <ele>171.6</ele>
        <time>2016-10-09T11:12:13Z</time>
      </trkpt>
      <trkpt lat="43.39429" lon="6.6508">
        <ele>171.5</ele>
        <time>2016-10-09T11:12:15Z</time>
      </trkpt>
      <trkpt lat="43.39431" lon="6.65077">
        <ele>171.3</ele>
        <time>2016-10-09T11:12:17Z</time>
      </trkpt>
      <trkpt lat="43.39434" lon="6.65073">
        <ele>171.1</ele>
        <time>2016-10-09T11:12:19Z</time>
      </trkpt>
      <trkpt lat="43.39438" lon="6.65068">
        <ele>170.9</ele>
        <time>2016-10-09T11:12:21Z</time>
      </trkpt>
      <trkpt lat="43.39443" lon="6.65062">
        <ele>170.7</ele>
        <time>2016-10-09T11:12:23Z</time>
      </trkpt>
      <trkpt lat="43.39449" lon="6.65054">
        <ele>170.5</ele>
        <time>2016-10-09T11:12:25Z</time>
      </trkpt>
      <trkpt lat="43.39455" lon="6.65047">
        <ele>170.2</ele>
        <time>2016-10-09T11:12:27Z</time>
      </trkpt>
      <trkpt lat="43.39463" lon="6.65041">
        <ele>169.9</ele>
        <time>2016-10-09T11:12:29Z</time>
      </trkpt>
      <trkpt lat="43.39472" lon="6.65037">
        <ele>169.6</ele>
        <time>2016-10-09T11:12:31Z</time>
      </trkpt>
      <trkpt lat="43.39481" lon="6.65032">
        <ele>169.2</ele>
        <time>2016-10-09T11:12:33Z</time>
      </trkpt>
      <trkpt lat="43.39487" lon="6.65025">
        <ele>168.8</ele>
        <time>2016-10-09T11:12:35Z</time>
      </trkpt>
      <trkpt lat="43.39491" lon="6.65016">
        <ele>168.5</ele>
        <time>2016-10-09T11:12:37Z</time>
      </trkpt>
      <trkpt lat="43.39495" lon="6.65005">
        <ele>168.2</ele>
        <time>2016-10-09T11:12:39Z</time>
      </trkpt>
      <trkpt lat="43.39497" lon="6.64992">
        <ele>169.6</ele>
        <time>2016-10-09T11:12:41Z</time>
      </trkpt>
      <trkpt lat="43.39498" lon="6.64979">
        <ele>172.3</ele>
        <time>2016-10-09T11:12:43Z</time>
      </trkpt>
      <trkpt lat="43.39498" lon="6.64963">
        <ele>173.8</ele>
        <time>2016-10-09T11:12:45Z</time>
      </trkpt>
      <trkpt lat="43.39499" lon="6.64946">
        <ele>175</ele>
        <time>2016-10-09T11:12:47Z</time>
      </trkpt>
      <trkpt lat="43.39502" lon="6.64928">
        <ele>176</ele>
        <time>2016-10-09T11:12:49Z</time>
      </trkpt>
      <trkpt lat="43.39507" lon="6.64911">
        <ele>177</ele>
        <time>2016-10-09T11:12:51Z</time>
      </trkpt>
      <trkpt lat="43.39514" lon="6.64896">
        <ele>178.1</ele>
        <time>2016-10-09T11:12:53Z</time>
      </trkpt>
      <trkpt lat="43.39522" lon="6.64882">
        <ele>179.1</ele>
        <time>2016-10-09T11:12:55Z</time>
      </trkpt>
      <trkpt lat="43.39533" lon="6.64871">
        <ele>180.7</ele>
        <time>2016-10-09T11:12:57Z</time>
      </trkpt>
      <trkpt lat="43.39545" lon="6.64862">
        <ele>182.3</ele>
        <time>2016-10-09T11:12:59Z</time>
      </trkpt>
      <trkpt lat="43.39556" lon="6.64853">
        <ele>183.6</ele>
        <time>2016-10-09T11:13:01Z</time>
      </trkpt>
      <trkpt lat="43.39568" lon="6.64846">
        <ele>185.1</ele>
        <time>2016-10-09T11:13:03Z</time>
      </trkpt>
      <trkpt lat="43.39579" lon="6.64841">
        <ele>185.9</ele>
        <time>2016-10-09T11:13:05Z</time>
      </trkpt>
      <trkpt lat="43.39588" lon="6.64838">
        <ele>186.6</ele>
        <time>2016-10-09T11:13:07Z</time>
      </trkpt>
      <trkpt lat="43.39596" lon="6.64836">
        <ele>187.2</ele>
        <time>2016-10-09T11:13:09Z</time>
      </trkpt>
      <trkpt lat="43.39604" lon="6.64834">
        <ele>187.7</ele>
        <time>2016-10-09T11:13:11Z</time>
      </trkpt>
      <trkpt lat="43.39611" lon="6.6483">
        <ele>188.3</ele>
        <time>2016-10-09T11:13:13Z</time>
      </trkpt>
      <trkpt lat="43.39618" lon="6.64823">
        <ele>189</ele>
        <time>2016-10-09T11:13:15Z</time>
      </trkpt>
      <trkpt lat="43.39623" lon="6.64813">
        <ele>189.7</ele>
        <time>2016-10-09T11:13:17Z</time>
      </trkpt>
      <trkpt lat="43.39628" lon="6.64803">
        <ele>190.5</ele>
        <time>2016-10-09T11:13:19Z</time>
      </trkpt>
      <trkpt lat="43.39632" lon="6.64791">
        <ele>191.4</ele>
        <time>2016-10-09T11:13:21Z</time>
      </trkpt>
      <trkpt lat="43.39633" lon="6.64776">
        <ele>194.3</ele>
        <time>2016-10-09T11:13:23Z</time>
      </trkpt>
      <trkpt lat="43.39631" lon="6.64759">
        <ele>197.2</ele>
        <time>2016-10-09T11:13:25Z</time>
      </trkpt>
      <trkpt lat="43.39626" lon="6.64742">
        <ele>201</ele>
        <time>2016-10-09T11:13:27Z</time>
      </trkpt>
      <trkpt lat="43.39614" lon="6.6473">
        <ele>204.9</ele>
        <time>2016-10-09T11:13:29Z</time>
      </trkpt>
      <trkpt lat="43.396" lon="6.64731">
        <ele>203.8</ele>
        <time>2016-10-09T11:13:31Z</time>
      </trkpt>
      <trkpt lat="43.39587" lon="6.6474">
        <ele>202.9</ele>
        <time>2016-10-09T11:13:33Z</time>
      </trkpt>
      <trkpt lat="43.39573" lon="6.64745">
        <ele>202.1</ele>
        <time>2016-10-09T11:13:35Z</time>
      </trkpt>
      <trkpt lat="43.39558" lon="6.64747">
        <ele>200.5</ele>
        <time>2016-10-09T11:13:37Z</time>
      </trkpt>
      <trkpt lat="43.39544" lon="6.64745">
        <ele>199.6</ele>
        <time>2016-10-09T11:13:39Z</time>
      </trkpt>
      <trkpt lat="43.39531" lon="6.64741">
        <ele>198.6</ele>
        <time>2016-10-09T11:13:41Z</time>
      </trkpt>
      <trkpt lat="43.39518" lon="6.64738">
        <ele>197.8</ele>
        <time>2016-10-09T11:13:43Z</time>
      </trkpt>
      <trkpt lat="43.39504" lon="6.64738">
        <ele>196.7</ele>
        <time>2016-10-09T11:13:45Z</time>
      </trkpt>
      <trkpt lat="43.3949" lon="6.6474">
        <ele>195.6</ele>
        <time>2016-10-09T11:13:47Z</time>
      </trkpt>
      <trkpt lat="43.39475" lon="6.64741">
        <ele>194.7</ele>
        <time>2016-10-09T11:13:49Z</time>
      </trkpt>
      <trkpt lat="43.39461" lon="6.6474">
        <ele>194</ele>
        <time>2016-10-09T11:13:51Z</time>
      </trkpt>
      <trkpt lat="43.39447" lon="6.64739">
        <ele>191</ele>
        <time>2016-10-09T11:13:53Z</time>
      </trkpt>
      <trkpt lat="43.39433" lon="6.64737">
        <ele>189.5</ele>
        <time>2016-10-09T11:13:55Z</time>
      </trkpt>
      <trkpt lat="43.3942" lon="6.64731">
        <ele>189</ele>
        <time>2016-10-09T11:13:57Z</time>
      </trkpt>
      <trkpt lat="43.39409" lon="6.64724">
        <ele>188.6</ele>
        <time>2016-10-09T11:13:59Z</time>
      </trkpt>
      <trkpt lat="43.39399" lon="6.64718">
        <ele>188.2</ele>
        <time>2016-10-09T11:14:01Z</time>
      </trkpt>
      <trkpt lat="43.39391" lon="6.64713">
        <ele>187.8</ele>
        <time>2016-10-09T11:14:03Z</time>
      </trkpt>
      <trkpt lat="43.39386" lon="6.64709">
        <ele>187.5</ele>
        <time>2016-10-09T11:14:05Z</time>
      </trkpt>
      <trkpt lat="43.39381" lon="6.64704">
        <ele>187.2</ele>
        <time>2016-10-09T11:14:07Z</time>
      </trkpt>
      <trkpt lat="43.39377" lon="6.64699">
        <ele>187</ele>
        <time>2016-10-09T11:14:09Z</time>
      </trkpt>
      <trkpt lat="43.39373" lon="6.64694">
        <ele>186.8</ele>
        <time>2016-10-09T11:14:11Z</time>
      </trkpt>
      <trkpt lat="43.39369" lon="6.6469">
        <ele>186.6</ele>
        <time>2016-10-09T11:14:13Z</time>
      </trkpt>
      <trkpt lat="43.39365" lon="6.64685">
        <ele>186.5</ele>
        <time>2016-10-09T11:14:15Z</time>
      </trkpt>
      <trkpt lat="43.39361" lon="6.64681">
        <ele>186.4</ele>
        <time>2016-10-09T11:14:17Z</time>
      </trkpt>
      <trkpt lat="43.39358" lon="6.64677">
        <ele>186.2</ele>
        <time>2016-10-09T11:14:19Z</time>
      </trkpt>
      <trkpt lat="43.39354" lon="6.64674">
        <ele>186</ele>
        <time>2016-10-09T11:14:21Z</time>
      </trkpt>
      <trkpt lat="43.39351" lon="6.6467">
        <ele>185.7</ele>
        <time>2016-10-09T11:14:23Z</time>
      </trkpt>
      <trkpt lat="43.39348" lon="6.64666">
        <ele>185.4</ele>
        <time>2016-10-09T11:14:25Z</time>
      </trkpt>
      <trkpt lat="43.39345" lon="6.64661">
        <ele>185</ele>
        <time>2016-10-09T11:14:27Z</time>
      </trkpt>
      <trkpt lat="43.39344" lon="6.64655">
        <ele>184.6</ele>
        <time>2016-10-09T11:14:29Z</time>
      </trkpt>
      <trkpt lat="43.39343" lon="6.6465">
        <ele>184.3</ele>
        <time>2016-10-09T11:14:31Z</time>
      </trkpt>
      <trkpt lat="43.39343" lon="6.64645">
        <ele>184.8</ele>
        <time>2016-10-09T11:14:33Z</time>
      </trkpt>
      <trkpt lat="43.39345" lon="6.64641">
        <ele>185.3</ele>
        <time>2016-10-09T11:14:35Z</time>
      </trkpt>
      <trkpt lat="43.39348" lon="6.64639">
        <ele>185.8</ele>
        <time>2016-10-09T11:14:37Z</time>
      </trkpt>
      <trkpt lat="43.39351" lon="6.64639">
        <ele>186.2</ele>
        <time>2016-10-09T11:14:39Z</time>
      </trkpt>
      <trkpt lat="43.39354" lon="6.64638">
        <ele>186.5</ele>
        <time>2016-10-09T11:14:41Z</time>
      </trkpt>
      <trkpt lat="43.39356" lon="6.64636">
        <ele>186.8</ele>
        <time>2016-10-09T11:14:43Z</time>
      </trkpt>
      <trkpt lat="43.39358" lon="6.64635">
        <ele>187</ele>
        <time>2016-10-09T11:14:45Z</time>
      </trkpt>
      <trkpt lat="43.3936" lon="6.64634">
        <ele>187.2</ele>
        <time>2016-10-09T11:14:47Z</time>
      </trkpt>
      <trkpt lat="43.39362" lon="6.64634">
        <ele>187.4</ele>
        <time>2016-10-09T11:14:49Z</time>
      </trkpt>
      <trkpt lat="43.39365" lon="6.64635">
        <ele>187.6</ele>
        <time>2016-10-09T11:14:51Z</time>
      </trkpt>
      <trkpt lat="43.39367" lon="6.64636">
        <ele>187.7</ele>
        <time>2016-10-09T11:14:53Z</time>
      </trkpt>
      <trkpt lat="43.39369" lon="6.64637">
        <ele>187.8</ele>
        <time>2016-10-09T11:14:55Z</time>
      </trkpt>
      <trkpt lat="43.39372" lon="6.64638">
        <ele>187.9</ele>
        <time>2016-10-09T11:14:57Z</time>
      </trkpt>
      <trkpt lat="43.39373" lon="6.64638">
        <ele>188</ele>
        <time>2016-10-09T11:14:59Z</time>
      </trkpt>
      <trkpt lat="43.39376" lon="6.64639">
        <ele>188.1</ele>
        <time>2016-10-09T11:15:01Z</time>
      </trkpt>
      <trkpt lat="43.39378" lon="6.6464">
        <ele>188.2</ele>
        <time>2016-10-09T11:15:03Z</time>
      </trkpt>
      <trkpt lat="43.3938" lon="6.6464">
        <ele>188.3</ele>
        <time>2016-10-09T11:15:05Z</time>
      </trkpt>
      <trkpt lat="43.39382" lon="6.6464">
        <ele>188.4</ele>
        <time>2016-10-09T11:15:07Z</time>
      </trkpt>
      <trkpt lat="43.39384" lon="6.64641">
        <ele>188.5</ele>
        <time>2016-10-09T11:15:09Z</time>
      </trkpt>
      <trkpt lat="43.39386" lon="6.64641">
        <ele>188.6</ele>
        <time>2016-10-09T11:15:11Z</time>
      </trkpt>
      <trkpt lat="43.39389" lon="6.64641">
        <ele>188.6</ele>
        <time>2016-10-09T11:15:13Z</time>
      </trkpt>
      <trkpt lat="43.39391" lon="6.64641">
        <ele>188.7</ele>
        <time>2016-10-09T11:15:15Z</time>
      </trkpt>
      <trkpt lat="43.39393" lon="6.64641">
        <ele>188.8</ele>
        <time>2016-10-09T11:15:17Z</time>
      </trkpt>
      <trkpt lat="43.39396" lon="6.64642">
        <ele>188.9</ele>
        <time>2016-10-09T11:15:19Z</time>
      </trkpt>
      <trkpt lat="43.39397" lon="6.64643">
        <ele>188.9</ele>
        <time>2016-10-09T11:15:21Z</time>
      </trkpt>
      <trkpt lat="43.39399" lon="6.64646">
        <ele>189</ele>
        <time>2016-10-09T11:15:23Z</time>
      </trkpt>
      <trkpt lat="43.39402" lon="6.64648">
        <ele>189.1</ele>
        <time>2016-10-09T11:15:25Z</time>
      </trkpt>
      <trkpt lat="43.39404" lon="6.6465">
        <ele>189.2</ele>
        <time>2016-10-09T11:15:27Z</time>
      </trkpt>
      <trkpt lat="43.39406" lon="6.64652">
        <ele>189.4</ele>
        <time>2016-10-09T11:15:29Z</time>
      </trkpt>
      <trkpt lat="43.39409" lon="6.64654">
        <ele>189.7</ele>
        <time>2016-10-09T11:15:31Z</time>
      </trkpt>
      <trkpt lat="43.39412" lon="6.64655">
        <ele>190.1</ele>
        <time>2016-10-09T11:15:33Z</time>
      </trkpt>
      <trkpt lat="43.39415" lon="6.64656">
        <ele>190.4</ele>
        <time>2016-10-09T11:15:35Z</time>
      </trkpt>
      <trkpt lat="43.39418" lon="6.64657">
        <ele>190.8</ele>
        <time>2016-10-09T11:15:37Z</time>
      </trkpt>
      <trkpt lat="43.39421" lon="6.64658">
        <ele>191.2</ele>
        <time>2016-10-09T11:15:39Z</time>
      </trkpt>
      <trkpt lat="43.39426" lon="6.64658">
        <ele>191.8</ele>
        <time>2016-10-09T11:15:41Z</time>
      </trkpt>
      <trkpt lat="43.3943" lon="6.64658">
        <ele>192.3</ele>
        <time>2016-10-09T11:15:43Z</time>
      </trkpt>
      <trkpt lat="43.39434" lon="6.64657">
        <ele>192.9</ele>
        <time>2016-10-09T11:15:45Z</time>
      </trkpt>
      <trkpt lat="43.39439" lon="6.64656">
        <ele>193.3</ele>
        <time>2016-10-09T11:15:47Z</time>
      </trkpt>
      <trkpt lat="43.39442" lon="6.64654">
        <ele>193.7</ele>
        <time>2016-10-09T11:15:49Z</time>
      </trkpt>
      <trkpt lat="43.39447" lon="6.64652">
        <ele>194</ele>
        <time>2016-10-09T11:15:51Z</time>
      </trkpt>
      <trkpt lat="43.39451" lon="6.6465">
        <ele>194.2</ele>
        <time>2016-10-09T11:15:53Z</time>
      </trkpt>
      <trkpt lat="43.39454" lon="6.64649">
        <ele>194.4</ele>
        <time>2016-10-09T11:15:55Z</time>
      </trkpt>
      <trkpt lat="43.39457" lon="6.64647">
        <ele>194.6</ele>
        <time>2016-10-09T11:15:57Z</time>
      </trkpt>
      <trkpt lat="43.3946" lon="6.64646">
        <ele>194.7</ele>
        <time>2016-10-09T11:15:59Z</time>
      </trkpt>
      <trkpt lat="43.39463" lon="6.64643">
        <ele>195.1</ele>
        <time>2016-10-09T11:16:01Z</time>
      </trkpt>
      <trkpt lat="43.39466" lon="6.64641">
        <ele>195.5</ele>
        <time>2016-10-09T11:16:03Z</time>
      </trkpt>
      <trkpt lat="43.39468" lon="6.64639">
        <ele>195.8</ele>
        <time>2016-10-09T11:16:05Z</time>
      </trkpt>
      <trkpt lat="43.39471" lon="6.64638">
        <ele>196.1</ele>
        <time>2016-10-09T11:16:07Z</time>
      </trkpt>
      <trkpt lat="43.39473" lon="6.64637">
        <ele>196.5</ele>
        <time>2016-10-09T11:16:09Z</time>
      </trkpt>
      <trkpt lat="43.39475" lon="6.64635">
        <ele>196.8</ele>
        <time>2016-10-09T11:16:11Z</time>
      </trkpt>
      <trkpt lat="43.39477" lon="6.64634">
        <ele>197.1</ele>
        <time>2016-10-09T11:16:13Z</time>
      </trkpt>
      <trkpt lat="43.39479" lon="6.64634">
        <ele>197.5</ele>
        <time>2016-10-09T11:16:15Z</time>
      </trkpt>
      <trkpt lat="43.39481" lon="6.64633">
        <ele>197.8</ele>
        <time>2016-10-09T11:16:17Z</time>
      </trkpt>
      <trkpt lat="43.39484" lon="6.64632">
        <ele>198.3</ele>
        <time>2016-10-09T11:16:19Z</time>
      </trkpt>
      <trkpt lat="43.39487" lon="6.64631">
        <ele>198.7</ele>
        <time>2016-10-09T11:16:21Z</time>
      </trkpt>
      <trkpt lat="43.39489" lon="6.64629">
        <ele>199.1</ele>
        <time>2016-10-09T11:16:23Z</time>
      </trkpt>
      <trkpt lat="43.39491" lon="6.64627">
        <ele>199.5</ele>
        <time>2016-10-09T11:16:25Z</time>
      </trkpt>
      <trkpt lat="43.39493" lon="6.64625">
        <ele>200</ele>
        <time>2016-10-09T11:16:27Z</time>
      </trkpt>
      <trkpt lat="43.39495" lon="6.64624">
        <ele>200.4</ele>
        <time>2016-10-09T11:16:29Z</time>
      </trkpt>
      <trkpt lat="43.39497" lon="6.64624">
        <ele>200.7</ele>
        <time>2016-10-09T11:16:31Z</time>
      </trkpt>
      <trkpt lat="43.39499" lon="6.64623">
        <ele>201</ele>
        <time>2016-10-09T11:16:33Z</time>
      </trkpt>
      <trkpt lat="43.395" lon="6.64622">
        <ele>201.4</ele>
        <time>2016-10-09T11:16:35Z</time>
      </trkpt>
      <trkpt lat="43.39502" lon="6.6462">
        <ele>201.7</ele>
        <time>2016-10-09T11:16:37Z</time>
      </trkpt>
      <trkpt lat="43.39505" lon="6.64619">
        <ele>202.3</ele>
        <time>2016-10-09T11:16:39Z</time>
      </trkpt>
      <trkpt lat="43.39507" lon="6.64618">
        <ele>202.7</ele>
        <time>2016-10-09T11:16:41Z</time>
      </trkpt>
      <trkpt lat="43.3951" lon="6.64616">
        <ele>203.3</ele>
        <time>2016-10-09T11:16:43Z</time>
      </trkpt>
      <trkpt lat="43.39512" lon="6.64615">
        <ele>203.8</ele>
        <time>2016-10-09T11:16:45Z</time>
      </trkpt>
      <trkpt lat="43.39513" lon="6.64613">
        <ele>204.3</ele>
        <time>2016-10-09T11:16:47Z</time>
      </trkpt>
      <trkpt lat="43.39516" lon="6.64611">
        <ele>205</ele>
        <time>2016-10-09T11:16:49Z</time>
      </trkpt>
      <trkpt lat="43.3952" lon="6.6461">
        <ele>205.7</ele>
        <time>2016-10-09T11:16:51Z</time>
      </trkpt>
      <trkpt lat="43.39522" lon="6.64609">
        <ele>206.3</ele>
        <time>2016-10-09T11:16:53Z</time>
      </trkpt>
      <trkpt lat="43.39525" lon="6.64608">
        <ele>207</ele>
        <time>2016-10-09T11:16:55Z</time>
      </trkpt>
      <trkpt lat="43.39528" lon="6.64606">
        <ele>207.5</ele>
        <time>2016-10-09T11:16:57Z</time>
      </trkpt>
      <trkpt lat="43.3953" lon="6.64604">
        <ele>208.1</ele>
        <time>2016-10-09T11:16:59Z</time>
      </trkpt>
      <trkpt lat="43.39532" lon="6.64602">
        <ele>208.5</ele>
        <time>2016-10-09T11:17:01Z</time>
      </trkpt>
      <trkpt lat="43.39534" lon="6.646">
        <ele>209.1</ele>
        <time>2016-10-09T11:17:03Z</time>
      </trkpt>
      <trkpt lat="43.39539" lon="6.64599">
        <ele>210</ele>
        <time>2016-10-09T11:17:19Z</time>
      </trkpt>
      <trkpt lat="43.39542" lon="6.64599">
        <ele>210.3</ele>
        <time>2016-10-09T11:17:21Z</time>
      </trkpt>
      <trkpt lat="43.39545" lon="6.64599">
        <ele>210.7</ele>
        <time>2016-10-09T11:17:23Z</time>
      </trkpt>
      <trkpt lat="43.39547" lon="6.64599">
        <ele>210.9</ele>
        <time>2016-10-09T11:17:25Z</time>
      </trkpt>
      <trkpt lat="43.39549" lon="6.64599">
        <ele>211.1</ele>
        <time>2016-10-09T11:17:27Z</time>
      </trkpt>
      <trkpt lat="43.39551" lon="6.64598">
        <ele>211.5</ele>
        <time>2016-10-09T11:17:29Z</time>
      </trkpt>
      <trkpt lat="43.39553" lon="6.64597">
        <ele>211.7</ele>
        <time>2016-10-09T11:17:31Z</time>
      </trkpt>
      <trkpt lat="43.39554" lon="6.64597">
        <ele>212</ele>
        <time>2016-10-09T11:17:33Z</time>
      </trkpt>
      <trkpt lat="43.39557" lon="6.64597">
        <ele>212.4</ele>
        <time>2016-10-09T11:17:43Z</time>
      </trkpt>
      <trkpt lat="43.39559" lon="6.64597">
        <ele>212.7</ele>
        <time>2016-10-09T11:17:45Z</time>
      </trkpt>
      <trkpt lat="43.39561" lon="6.64595">
        <ele>213</ele>
        <time>2016-10-09T11:17:47Z</time>
      </trkpt>
      <trkpt lat="43.39562" lon="6.64594">
        <ele>213.2</ele>
        <time>2016-10-09T11:17:49Z</time>
      </trkpt>
      <trkpt lat="43.39565" lon="6.64592">
        <ele>213.6</ele>
        <time>2016-10-09T11:17:51Z</time>
      </trkpt>
      <trkpt lat="43.39566" lon="6.6459">
        <ele>214</ele>
        <time>2016-10-09T11:17:53Z</time>
      </trkpt>
      <trkpt lat="43.39568" lon="6.64588">
        <ele>214.3</ele>
        <time>2016-10-09T11:17:55Z</time>
      </trkpt>
      <trkpt lat="43.39571" lon="6.64587">
        <ele>214.7</ele>
        <time>2016-10-09T11:17:57Z</time>
      </trkpt>
      <trkpt lat="43.39573" lon="6.64585">
        <ele>215</ele>
        <time>2016-10-09T11:17:59Z</time>
      </trkpt>
      <trkpt lat="43.39576" lon="6.64583">
        <ele>215.7</ele>
        <time>2016-10-09T11:18:01Z</time>
      </trkpt>
      <trkpt lat="43.39578" lon="6.64581">
        <ele>216.4</ele>
        <time>2016-10-09T11:18:05Z</time>
      </trkpt>
      <trkpt lat="43.3958" lon="6.6458">
        <ele>217.1</ele>
        <time>2016-10-09T11:18:07Z</time>
      </trkpt>
      <trkpt lat="43.39581" lon="6.64579">
        <ele>217.7</ele>
        <time>2016-10-09T11:18:09Z</time>
      </trkpt>
      <trkpt lat="43.39583" lon="6.64578">
        <ele>218.3</ele>
        <time>2016-10-09T11:18:11Z</time>
      </trkpt>
      <trkpt lat="43.39584" lon="6.64577">
        <ele>219.1</ele>
        <time>2016-10-09T11:18:13Z</time>
      </trkpt>
      <trkpt lat="43.39586" lon="6.64576">
        <ele>219.7</ele>
        <time>2016-10-09T11:18:15Z</time>
      </trkpt>
      <trkpt lat="43.39587" lon="6.64575">
        <ele>220.3</ele>
        <time>2016-10-09T11:18:17Z</time>
      </trkpt>
      <trkpt lat="43.39589" lon="6.64574">
        <ele>220.8</ele>
        <time>2016-10-09T11:18:19Z</time>
      </trkpt>
      <trkpt lat="43.3959" lon="6.64572">
        <ele>221.4</ele>
        <time>2016-10-09T11:18:21Z</time>
      </trkpt>
      <trkpt lat="43.39591" lon="6.6457">
        <ele>221.9</ele>
        <time>2016-10-09T11:18:23Z</time>
      </trkpt>
      <trkpt lat="43.39592" lon="6.64568">
        <ele>222.7</ele>
        <time>2016-10-09T11:18:31Z</time>
      </trkpt>
      <trkpt lat="43.39594" lon="6.64566">
        <ele>223.2</ele>
        <time>2016-10-09T11:18:33Z</time>
      </trkpt>
      <trkpt lat="43.39595" lon="6.64564">
        <ele>223.7</ele>
        <time>2016-10-09T11:18:35Z</time>
      </trkpt>
      <trkpt lat="43.39597" lon="6.64563">
        <ele>224.2</ele>
        <time>2016-10-09T11:18:37Z</time>
      </trkpt>
      <trkpt lat="43.39599" lon="6.64561">
        <ele>224.7</ele>
        <time>2016-10-09T11:18:42Z</time>
      </trkpt>
      <trkpt lat="43.396" lon="6.64558">
        <ele>225.2</ele>
        <time>2016-10-09T11:18:44Z</time>
      </trkpt>
      <trkpt lat="43.39601" lon="6.64555">
        <ele>225.7</ele>
        <time>2016-10-09T11:18:46Z</time>
      </trkpt>
      <trkpt lat="43.39603" lon="6.64552">
        <ele>226.3</ele>
        <time>2016-10-09T11:18:48Z</time>
      </trkpt>
      <trkpt lat="43.39605" lon="6.64549">
        <ele>226.7</ele>
        <time>2016-10-09T11:18:50Z</time>
      </trkpt>
      <trkpt lat="43.39608" lon="6.64547">
        <ele>227.3</ele>
        <time>2016-10-09T11:18:52Z</time>
      </trkpt>
      <trkpt lat="43.39611" lon="6.64545">
        <ele>227.8</ele>
        <time>2016-10-09T11:18:54Z</time>
      </trkpt>
      <trkpt lat="43.39615" lon="6.64543">
        <ele>228.3</ele>
        <time>2016-10-09T11:18:56Z</time>
      </trkpt>
      <trkpt lat="43.39618" lon="6.64541">
        <ele>228.7</ele>
        <time>2016-10-09T11:18:58Z</time>
      </trkpt>
      <trkpt lat="43.3962" lon="6.6454">
        <ele>229.1</ele>
        <time>2016-10-09T11:19:00Z</time>
      </trkpt>
      <trkpt lat="43.39624" lon="6.64539">
        <ele>229.6</ele>
        <time>2016-10-09T11:19:02Z</time>
      </trkpt>
      <trkpt lat="43.39627" lon="6.64537">
        <ele>230</ele>
        <time>2016-10-09T11:19:04Z</time>
      </trkpt>
      <trkpt lat="43.39631" lon="6.64536">
        <ele>230.4</ele>
        <time>2016-10-09T11:19:06Z</time>
      </trkpt>
      <trkpt lat="43.39634" lon="6.64535">
        <ele>230.7</ele>
        <time>2016-10-09T11:19:08Z</time>
      </trkpt>
      <trkpt lat="43.39637" lon="6.64534">
        <ele>231</ele>
        <time>2016-10-09T11:19:10Z</time>
      </trkpt>
      <trkpt lat="43.3964" lon="6.64533">
        <ele>231.4</ele>
        <time>2016-10-09T11:19:12Z</time>
      </trkpt>
      <trkpt lat="43.39642" lon="6.64532">
        <ele>231.6</ele>
        <time>2016-10-09T11:19:14Z</time>
      </trkpt>
      <trkpt lat="43.39645" lon="6.64532">
        <ele>231.9</ele>
        <time>2016-10-09T11:19:16Z</time>
      </trkpt>
      <trkpt lat="43.39648" lon="6.64532">
        <ele>232.2</ele>
        <time>2016-10-09T11:19:18Z</time>
      </trkpt>
      <trkpt lat="43.39651" lon="6.64531">
        <ele>232.5</ele>
        <time>2016-10-09T11:19:20Z</time>
      </trkpt>
      <trkpt lat="43.39654" lon="6.6453">
        <ele>232.8</ele>
        <time>2016-10-09T11:19:22Z</time>
      </trkpt>
      <trkpt lat="43.39657" lon="6.6453">
        <ele>233</ele>
        <time>2016-10-09T11:19:24Z</time>
      </trkpt>
      <trkpt lat="43.3966" lon="6.64529">
        <ele>233.2</ele>
        <time>2016-10-09T11:19:26Z</time>
      </trkpt>
      <trkpt lat="43.39662" lon="6.64528">
        <ele>233.5</ele>
        <time>2016-10-09T11:19:28Z</time>
      </trkpt>
      <trkpt lat="43.39665" lon="6.64528">
        <ele>233.7</ele>
        <time>2016-10-09T11:19:30Z</time>
      </trkpt>
      <trkpt lat="43.39668" lon="6.64527">
        <ele>233.9</ele>
        <time>2016-10-09T11:19:32Z</time>
      </trkpt>
      <trkpt lat="43.39671" lon="6.64527">
        <ele>234.1</ele>
        <time>2016-10-09T11:19:34Z</time>
      </trkpt>
      <trkpt lat="43.39675" lon="6.64527">
        <ele>234.3</ele>
        <time>2016-10-09T11:19:36Z</time>
      </trkpt>
      <trkpt lat="43.39678" lon="6.64526">
        <ele>234.5</ele>
        <time>2016-10-09T11:19:38Z</time>
      </trkpt>
      <trkpt lat="43.39681" lon="6.64526">
        <ele>234.6</ele>
        <time>2016-10-09T11:19:40Z</time>
      </trkpt>
      <trkpt lat="43.39683" lon="6.64528">
        <ele>234.8</ele>
        <time>2016-10-09T11:19:42Z</time>
      </trkpt>
      <trkpt lat="43.39686" lon="6.64528">
        <ele>234.9</ele>
        <time>2016-10-09T11:19:44Z</time>
      </trkpt>
      <trkpt lat="43.39689" lon="6.64527">
        <ele>235</ele>
        <time>2016-10-09T11:19:46Z</time>
      </trkpt>
      <trkpt lat="43.39692" lon="6.64525">
        <ele>235.1</ele>
        <time>2016-10-09T11:19:48Z</time>
      </trkpt>
      <trkpt lat="43.39694" lon="6.64522">
        <ele>235.2</ele>
        <time>2016-10-09T11:19:50Z</time>
      </trkpt>
      <trkpt lat="43.39697" lon="6.64519">
        <ele>235.3</ele>
        <time>2016-10-09T11:19:52Z</time>
      </trkpt>
      <trkpt lat="43.39699" lon="6.64515">
        <ele>235.4</ele>
        <time>2016-10-09T11:19:54Z</time>
      </trkpt>
      <trkpt lat="43.39704" lon="6.6451">
        <ele>235.6</ele>
        <time>2016-10-09T11:19:56Z</time>
      </trkpt>
      <trkpt lat="43.3971" lon="6.64507">
        <ele>236</ele>
        <time>2016-10-09T11:19:58Z</time>
      </trkpt>
      <trkpt lat="43.39716" lon="6.64507">
        <ele>236.6</ele>
        <time>2016-10-09T11:20:00Z</time>
      </trkpt>
      <trkpt lat="43.39722" lon="6.64508">
        <ele>237.1</ele>
        <time>2016-10-09T11:20:02Z</time>
      </trkpt>
      <trkpt lat="43.39727" lon="6.64509">
        <ele>237.5</ele>
        <time>2016-10-09T11:20:04Z</time>
      </trkpt>
      <trkpt lat="43.39732" lon="6.64511">
        <ele>237.7</ele>
        <time>2016-10-09T11:20:06Z</time>
      </trkpt>
      <trkpt lat="43.39736" lon="6.64512">
        <ele>237.8</ele>
        <time>2016-10-09T11:20:08Z</time>
      </trkpt>
      <trkpt lat="43.39742" lon="6.64514">
        <ele>238</ele>
        <time>2016-10-09T11:20:10Z</time>
      </trkpt>
      <trkpt lat="43.39748" lon="6.64515">
        <ele>238</ele>
        <time>2016-10-09T11:20:12Z</time>
      </trkpt>
      <trkpt lat="43.39755" lon="6.64516">
        <ele>237.8</ele>
        <time>2016-10-09T11:20:14Z</time>
      </trkpt>
      <trkpt lat="43.39761" lon="6.64517">
        <ele>237.6</ele>
        <time>2016-10-09T11:20:16Z</time>
      </trkpt>
      <trkpt lat="43.39769" lon="6.64518">
        <ele>237.5</ele>
        <time>2016-10-09T11:20:18Z</time>
      </trkpt>
      <trkpt lat="43.39777" lon="6.6452">
        <ele>237.4</ele>
        <time>2016-10-09T11:20:20Z</time>
      </trkpt>
      <trkpt lat="43.39785" lon="6.64526">
        <ele>237.3</ele>
        <time>2016-10-09T11:20:22Z</time>
      </trkpt>
      <trkpt lat="43.39795" lon="6.6453">
        <ele>237.1</ele>
        <time>2016-10-09T11:20:24Z</time>
      </trkpt>
      <trkpt lat="43.39806" lon="6.64527">
        <ele>236.2</ele>
        <time>2016-10-09T11:20:26Z</time>
      </trkpt>
      <trkpt lat="43.39815" lon="6.6452">
        <ele>234.9</ele>
        <time>2016-10-09T11:20:28Z</time>
      </trkpt>
      <trkpt lat="43.39822" lon="6.64514">
        <ele>234.3</ele>
        <time>2016-10-09T11:20:30Z</time>
      </trkpt>
      <trkpt lat="43.39832" lon="6.64511">
        <ele>232.7</ele>
        <time>2016-10-09T11:20:32Z</time>
      </trkpt>
      <trkpt lat="43.3984" lon="6.64501">
        <ele>230</ele>
        <time>2016-10-09T11:20:34Z</time>
      </trkpt>
      <trkpt lat="43.39845" lon="6.64492">
        <ele>227.9</ele>
        <time>2016-10-09T11:20:36Z</time>
      </trkpt>
      <trkpt lat="43.39852" lon="6.64485">
        <ele>225.8</ele>
        <time>2016-10-09T11:20:38Z</time>
      </trkpt>
      <trkpt lat="43.39859" lon="6.64476">
        <ele>222</ele>
        <time>2016-10-09T11:20:40Z</time>
      </trkpt>
      <trkpt lat="43.39869" lon="6.64468">
        <ele>216.6</ele>
        <time>2016-10-09T11:20:42Z</time>
      </trkpt>
      <trkpt lat="43.39877" lon="6.64459">
        <ele>216.5</ele>
        <time>2016-10-09T11:20:44Z</time>
      </trkpt>
      <trkpt lat="43.39888" lon="6.64452">
        <ele>216.8</ele>
        <time>2016-10-09T11:20:46Z</time>
      </trkpt>
      <trkpt lat="43.399" lon="6.64448">
        <ele>216.6</ele>
        <time>2016-10-09T11:20:48Z</time>
      </trkpt>
      <trkpt lat="43.3991" lon="6.64447">
        <ele>216</ele>
        <time>2016-10-09T11:20:50Z</time>
      </trkpt>
      <trkpt lat="43.39922" lon="6.64445">
        <ele>216.1</ele>
        <time>2016-10-09T11:20:52Z</time>
      </trkpt>
      <trkpt lat="43.39931" lon="6.64436">
        <ele>216.6</ele>
        <time>2016-10-09T11:20:54Z</time>
      </trkpt>
      <trkpt lat="43.39938" lon="6.64426">
        <ele>217.4</ele>
        <time>2016-10-09T11:20:56Z</time>
      </trkpt>
      <trkpt lat="43.39944" lon="6.64416">
        <ele>218.2</ele>
        <time>2016-10-09T11:20:58Z</time>
      </trkpt>
      <trkpt lat="43.39948" lon="6.64405">
        <ele>218.9</ele>
        <time>2016-10-09T11:21:00Z</time>
      </trkpt>
      <trkpt lat="43.39951" lon="6.64397">
        <ele>219.4</ele>
        <time>2016-10-09T11:21:02Z</time>
      </trkpt>
      <trkpt lat="43.39954" lon="6.64389">
        <ele>219.8</ele>
        <time>2016-10-09T11:21:04Z</time>
      </trkpt>
      <trkpt lat="43.39957" lon="6.64382">
        <ele>220</ele>
        <time>2016-10-09T11:21:06Z</time>
      </trkpt>
      <trkpt lat="43.3996" lon="6.64377">
        <ele>220.2</ele>
        <time>2016-10-09T11:21:08Z</time>
      </trkpt>
      <trkpt lat="43.39964" lon="6.64372">
        <ele>220.1</ele>
        <time>2016-10-09T11:21:10Z</time>
      </trkpt>
      <trkpt lat="43.3997" lon="6.64369">
        <ele>219.9</ele>
        <time>2016-10-09T11:21:12Z</time>
      </trkpt>
      <trkpt lat="43.39978" lon="6.64365">
        <ele>219.4</ele>
        <time>2016-10-09T11:21:14Z</time>
      </trkpt>
      <trkpt lat="43.39986" lon="6.64361">
        <ele>217.2</ele>
        <time>2016-10-09T11:21:16Z</time>
      </trkpt>
      <trkpt lat="43.39994" lon="6.64357">
        <ele>214.9</ele>
        <time>2016-10-09T11:21:18Z</time>
      </trkpt>
      <trkpt lat="43.40002" lon="6.64351">
        <ele>212.5</ele>
        <time>2016-10-09T11:21:20Z</time>
      </trkpt>
      <trkpt lat="43.40011" lon="6.64349">
        <ele>211.6</ele>
        <time>2016-10-09T11:21:22Z</time>
      </trkpt>
      <trkpt lat="43.40019" lon="6.6435">
        <ele>211.2</ele>
        <time>2016-10-09T11:21:24Z</time>
      </trkpt>
      <trkpt lat="43.40025" lon="6.6435">
        <ele>210.7</ele>
        <time>2016-10-09T11:21:26Z</time>
      </trkpt>
      <trkpt lat="43.40028" lon="6.64348">
        <ele>210.1</ele>
        <time>2016-10-09T11:21:28Z</time>
      </trkpt>
      <trkpt lat="43.40031" lon="6.64348">
        <ele>208.9</ele>
        <time>2016-10-09T11:21:30Z</time>
      </trkpt>
      <trkpt lat="43.40033" lon="6.64348">
        <ele>208.3</ele>
        <time>2016-10-09T11:21:32Z</time>
      </trkpt>
      <trkpt lat="43.40035" lon="6.64346">
        <ele>208.1</ele>
        <time>2016-10-09T11:21:34Z</time>
      </trkpt>
      <trkpt lat="43.40037" lon="6.64345">
        <ele>207.8</ele>
        <time>2016-10-09T11:21:36Z</time>
      </trkpt>
      <trkpt lat="43.4004" lon="6.64344">
        <ele>207.4</ele>
        <time>2016-10-09T11:21:42Z</time>
      </trkpt>
      <trkpt lat="43.40042" lon="6.64343">
        <ele>207.2</ele>
        <time>2016-10-09T11:21:44Z</time>
      </trkpt>
      <trkpt lat="43.40044" lon="6.64342">
        <ele>207.1</ele>
        <time>2016-10-09T11:21:46Z</time>
      </trkpt>
      <trkpt lat="43.40046" lon="6.64341">
        <ele>207</ele>
        <time>2016-10-09T11:21:48Z</time>
      </trkpt>
      <trkpt lat="43.40047" lon="6.64339">
        <ele>206.9</ele>
        <time>2016-10-09T11:21:50Z</time>
      </trkpt>
      <trkpt lat="43.40049" lon="6.64338">
        <ele>206.8</ele>
        <time>2016-10-09T11:21:52Z</time>
      </trkpt>
      <trkpt lat="43.4005" lon="6.64336">
        <ele>206.7</ele>
        <time>2016-10-09T11:21:54Z</time>
      </trkpt>
      <trkpt lat="43.40051" lon="6.64335">
        <ele>206.4</ele>
        <time>2016-10-09T11:21:56Z</time>
      </trkpt>
      <trkpt lat="43.40052" lon="6.64333">
        <ele>206.2</ele>
        <time>2016-10-09T11:21:58Z</time>
      </trkpt>
      <trkpt lat="43.40053" lon="6.64331">
        <ele>205.2</ele>
        <time>2016-10-09T11:22:00Z</time>
      </trkpt>
      <trkpt lat="43.40056" lon="6.64329">
        <ele>203.6</ele>
        <time>2016-10-09T11:22:04Z</time>
      </trkpt>
      <trkpt lat="43.40056" lon="6.64326">
        <ele>202.2</ele>
        <time>2016-10-09T11:22:08Z</time>
      </trkpt>
      <trkpt lat="43.40058" lon="6.64321">
        <ele>200.8</ele>
        <time>2016-10-09T11:22:10Z</time>
      </trkpt>
      <trkpt lat="43.4006" lon="6.64316">
        <ele>199.6</ele>
        <time>2016-10-09T11:22:12Z</time>
      </trkpt>
      <trkpt lat="43.40062" lon="6.6431">
        <ele>198.5</ele>
        <time>2016-10-09T11:22:14Z</time>
      </trkpt>
      <trkpt lat="43.40063" lon="6.64305">
        <ele>198</ele>
        <time>2016-10-09T11:22:16Z</time>
      </trkpt>
      <trkpt lat="43.40064" lon="6.64301">
        <ele>197.1</ele>
        <time>2016-10-09T11:22:18Z</time>
      </trkpt>
      <trkpt lat="43.40065" lon="6.64298">
        <ele>196.3</ele>
        <time>2016-10-09T11:22:20Z</time>
      </trkpt>
      <trkpt lat="43.40067" lon="6.64295">
        <ele>195.6</ele>
        <time>2016-10-09T11:22:22Z</time>
      </trkpt>
      <trkpt lat="43.4007" lon="6.64292">
        <ele>195.9</ele>
        <time>2016-10-09T11:22:24Z</time>
      </trkpt>
      <trkpt lat="43.40072" lon="6.64288">
        <ele>197</ele>
        <time>2016-10-09T11:22:26Z</time>
      </trkpt>
      <trkpt lat="43.40073" lon="6.64284">
        <ele>198.8</ele>
        <time>2016-10-09T11:22:30Z</time>
      </trkpt>
      <trkpt lat="43.40073" lon="6.6428">
        <ele>200.1</ele>
        <time>2016-10-09T11:22:32Z</time>
      </trkpt>
      <trkpt lat="43.40074" lon="6.64276">
        <ele>200.3</ele>
        <time>2016-10-09T11:22:34Z</time>
      </trkpt>
      <trkpt lat="43.40073" lon="6.64273">
        <ele>200.6</ele>
        <time>2016-10-09T11:22:36Z</time>
      </trkpt>
      <trkpt lat="43.40074" lon="6.64271">
        <ele>200.7</ele>
        <time>2016-10-09T11:22:40Z</time>
      </trkpt>
      <trkpt lat="43.40074" lon="6.64268">
        <ele>200.7</ele>
        <time>2016-10-09T11:22:42Z</time>
      </trkpt>
      <trkpt lat="43.40075" lon="6.64262">
        <ele>200.4</ele>
        <time>2016-10-09T11:22:52Z</time>
      </trkpt>
      <trkpt lat="43.40073" lon="6.64255">
        <ele>198.7</ele>
        <time>2016-10-09T11:22:54Z</time>
      </trkpt>
      <trkpt lat="43.40067" lon="6.64252">
        <ele>195.8</ele>
        <time>2016-10-09T11:22:56Z</time>
      </trkpt>
      <trkpt lat="43.40062" lon="6.64247">
        <ele>193.9</ele>
        <time>2016-10-09T11:22:58Z</time>
      </trkpt>
      <trkpt lat="43.40056" lon="6.64239">
        <ele>191.9</ele>
        <time>2016-10-09T11:23:00Z</time>
      </trkpt>
      <trkpt lat="43.40051" lon="6.64228">
        <ele>189</ele>
        <time>2016-10-09T11:23:02Z</time>
      </trkpt>
      <trkpt lat="43.40049" lon="6.64215">
        <ele>189</ele>
        <time>2016-10-09T11:23:04Z</time>
      </trkpt>
      <trkpt lat="43.40049" lon="6.64203">
        <ele>189</ele>
        <time>2016-10-09T11:23:06Z</time>
      </trkpt>
      <trkpt lat="43.40045" lon="6.64198">
        <ele>189</ele>
        <time>2016-10-09T11:23:08Z</time>
      </trkpt>
      <trkpt lat="43.40041" lon="6.64196">
        <ele>189</ele>
        <time>2016-10-09T11:23:10Z</time>
      </trkpt>
      <trkpt lat="43.40037" lon="6.64195">
        <ele>188.8</ele>
        <time>2016-10-09T11:23:12Z</time>
      </trkpt>
      <trkpt lat="43.40035" lon="6.64189">
        <ele>188.6</ele>
        <time>2016-10-09T11:27:03Z</time>
      </trkpt>
      <trkpt lat="43.40033" lon="6.64188">
        <ele>188.5</ele>
        <time>2016-10-09T11:27:14Z</time>
      </trkpt>
      <trkpt lat="43.40032" lon="6.64188">
        <ele>188.5</ele>
        <time>2016-10-09T11:27:18Z</time>
      </trkpt>
      <trkpt lat="43.40031" lon="6.6419">
        <ele>188.4</ele>
        <time>2016-10-09T11:27:20Z</time>
      </trkpt>
      <trkpt lat="43.4003" lon="6.64193">
        <ele>188.3</ele>
        <time>2016-10-09T11:27:22Z</time>
      </trkpt>
      <trkpt lat="43.40029" lon="6.64196">
        <ele>188.1</ele>
        <time>2016-10-09T11:27:24Z</time>
      </trkpt>
      <trkpt lat="43.40027" lon="6.64199">
        <ele>187.9</ele>
        <time>2016-10-09T11:27:26Z</time>
      </trkpt>
      <trkpt lat="43.40025" lon="6.642">
        <ele>187.8</ele>
        <time>2016-10-09T11:27:28Z</time>
      </trkpt>
      <trkpt lat="43.40022" lon="6.64204">
        <ele>187.3</ele>
        <time>2016-10-09T11:27:51Z</time>
      </trkpt>
      <trkpt lat="43.40015" lon="6.6421">
        <ele>186.4</ele>
        <time>2016-10-09T11:27:53Z</time>
      </trkpt>
      <trkpt lat="43.40007" lon="6.64214">
        <ele>185.6</ele>
        <time>2016-10-09T11:27:55Z</time>
      </trkpt>
      <trkpt lat="43.39997" lon="6.64217">
        <ele>184.9</ele>
        <time>2016-10-09T11:27:57Z</time>
      </trkpt>
      <trkpt lat="43.39988" lon="6.6422">
        <ele>183.7</ele>
        <time>2016-10-09T11:27:59Z</time>
      </trkpt>
      <trkpt lat="43.3998" lon="6.64224">
        <ele>182.5</ele>
        <time>2016-10-09T11:28:01Z</time>
      </trkpt>
      <trkpt lat="43.39972" lon="6.64225">
        <ele>181.4</ele>
        <time>2016-10-09T11:28:03Z</time>
      </trkpt>
      <trkpt lat="43.39963" lon="6.64225">
        <ele>180.6</ele>
        <time>2016-10-09T11:28:05Z</time>
      </trkpt>
      <trkpt lat="43.39952" lon="6.64225">
        <ele>180.1</ele>
        <time>2016-10-09T11:28:07Z</time>
      </trkpt>
      <trkpt lat="43.3994" lon="6.64223">
        <ele>179.6</ele>
        <time>2016-10-09T11:28:09Z</time>
      </trkpt>
      <trkpt lat="43.39925" lon="6.64221">
        <ele>179.2</ele>
        <time>2016-10-09T11:28:11Z</time>
      </trkpt>
      <trkpt lat="43.39911" lon="6.64222">
        <ele>179</ele>
        <time>2016-10-09T11:28:13Z</time>
      </trkpt>
      <trkpt lat="43.39896" lon="6.64228">
        <ele>178.8</ele>
        <time>2016-10-09T11:28:15Z</time>
      </trkpt>
      <trkpt lat="43.39884" lon="6.64238">
        <ele>178.9</ele>
        <time>2016-10-09T11:28:17Z</time>
      </trkpt>
      <trkpt lat="43.39874" lon="6.64253">
        <ele>178.9</ele>
        <time>2016-10-09T11:28:19Z</time>
      </trkpt>
      <trkpt lat="43.39864" lon="6.64268">
        <ele>179.5</ele>
        <time>2016-10-09T11:28:21Z</time>
      </trkpt>
      <trkpt lat="43.39859" lon="6.64283">
        <ele>180.1</ele>
        <time>2016-10-09T11:28:23Z</time>
      </trkpt>
      <trkpt lat="43.39856" lon="6.64298">
        <ele>180.7</ele>
        <time>2016-10-09T11:28:25Z</time>
      </trkpt>
      <trkpt lat="43.39849" lon="6.64308">
        <ele>181.2</ele>
        <time>2016-10-09T11:28:27Z</time>
      </trkpt>
      <trkpt lat="43.39841" lon="6.64311">
        <ele>181.5</ele>
        <time>2016-10-09T11:28:29Z</time>
      </trkpt>
      <trkpt lat="43.39833" lon="6.64313">
        <ele>181.8</ele>
        <time>2016-10-09T11:28:31Z</time>
      </trkpt>
      <trkpt lat="43.39827" lon="6.64313">
        <ele>182</ele>
        <time>2016-10-09T11:28:33Z</time>
      </trkpt>
      <trkpt lat="43.39824" lon="6.64313">
        <ele>182.1</ele>
        <time>2016-10-09T11:28:35Z</time>
      </trkpt>
      <trkpt lat="43.39823" lon="6.64313">
        <ele>182.2</ele>
        <time>2016-10-09T11:28:37Z</time>
      </trkpt>
      <trkpt lat="43.39819" lon="6.64313">
        <ele>182.3</ele>
        <time>2016-10-09T11:28:52Z</time>
      </trkpt>
      <trkpt lat="43.39817" lon="6.64313">
        <ele>182.4</ele>
        <time>2016-10-09T11:28:54Z</time>
      </trkpt>
      <trkpt lat="43.39813" lon="6.64313">
        <ele>182.5</ele>
        <time>2016-10-09T11:28:56Z</time>
      </trkpt>
      <trkpt lat="43.39807" lon="6.64314">
        <ele>182.7</ele>
        <time>2016-10-09T11:28:58Z</time>
      </trkpt>
      <trkpt lat="43.39801" lon="6.64313">
        <ele>182.8</ele>
        <time>2016-10-09T11:29:00Z</time>
      </trkpt>
      <trkpt lat="43.39795" lon="6.64313">
        <ele>182.8</ele>
        <time>2016-10-09T11:29:02Z</time>
      </trkpt>
      <trkpt lat="43.3979" lon="6.64313">
        <ele>182.8</ele>
        <time>2016-10-09T11:29:04Z</time>
      </trkpt>
      <trkpt lat="43.39784" lon="6.64313">
        <ele>182.9</ele>
        <time>2016-10-09T11:29:06Z</time>
      </trkpt>
      <trkpt lat="43.39779" lon="6.64314">
        <ele>182.9</ele>
        <time>2016-10-09T11:29:08Z</time>
      </trkpt>
      <trkpt lat="43.39773" lon="6.64315">
        <ele>182.9</ele>
        <time>2016-10-09T11:29:10Z</time>
      </trkpt>
      <trkpt lat="43.39767" lon="6.64316">
        <ele>182.9</ele>
        <time>2016-10-09T11:29:12Z</time>
      </trkpt>
      <trkpt lat="43.39761" lon="6.64318">
        <ele>182.9</ele>
        <time>2016-10-09T11:29:14Z</time>
      </trkpt>
      <trkpt lat="43.39756" lon="6.64319">
        <ele>182.9</ele>
        <time>2016-10-09T11:29:16Z</time>
      </trkpt>
      <trkpt lat="43.3975" lon="6.6432">
        <ele>182.9</ele>
        <time>2016-10-09T11:29:18Z</time>
      </trkpt>
      <trkpt lat="43.39744" lon="6.64321">
        <ele>183</ele>
        <time>2016-10-09T11:29:20Z</time>
      </trkpt>
      <trkpt lat="43.39738" lon="6.64323">
        <ele>183.1</ele>
        <time>2016-10-09T11:29:22Z</time>
      </trkpt>
      <trkpt lat="43.39732" lon="6.64326">
        <ele>183.2</ele>
        <time>2016-10-09T11:29:24Z</time>
      </trkpt>
      <trkpt lat="43.39726" lon="6.64328">
        <ele>183.3</ele>
        <time>2016-10-09T11:29:26Z</time>
      </trkpt>
      <trkpt lat="43.3972" lon="6.64331">
        <ele>183.5</ele>
        <time>2016-10-09T11:29:28Z</time>
      </trkpt>
      <trkpt lat="43.39714" lon="6.64332">
        <ele>183.6</ele>
        <time>2016-10-09T11:29:30Z</time>
      </trkpt>
      <trkpt lat="43.39708" lon="6.64333">
        <ele>183.6</ele>
        <time>2016-10-09T11:29:32Z</time>
      </trkpt>
      <trkpt lat="43.39702" lon="6.64334">
        <ele>183.7</ele>
        <time>2016-10-09T11:29:34Z</time>
      </trkpt>
      <trkpt lat="43.39696" lon="6.64335">
        <ele>183.7</ele>
        <time>2016-10-09T11:29:36Z</time>
      </trkpt>
      <trkpt lat="43.3969" lon="6.64337">
        <ele>183.7</ele>
        <time>2016-10-09T11:29:38Z</time>
      </trkpt>
      <trkpt lat="43.39684" lon="6.64339">
        <ele>183.7</ele>
        <time>2016-10-09T11:29:40Z</time>
      </trkpt>
      <trkpt lat="43.39679" lon="6.64343">
        <ele>183.7</ele>
        <time>2016-10-09T11:29:42Z</time>
      </trkpt>
      <trkpt lat="43.39674" lon="6.64347">
        <ele>183.7</ele>
        <time>2016-10-09T11:29:44Z</time>
      </trkpt>
      <trkpt lat="43.39669" lon="6.64352">
        <ele>183.6</ele>
        <time>2016-10-09T11:29:46Z</time>
      </trkpt>
      <trkpt lat="43.39664" lon="6.64355">
        <ele>183.6</ele>
        <time>2016-10-09T11:29:48Z</time>
      </trkpt>
      <trkpt lat="43.39658" lon="6.64359">
        <ele>183.6</ele>
        <time>2016-10-09T11:29:50Z</time>
      </trkpt>
      <trkpt lat="43.39653" lon="6.64361">
        <ele>183.5</ele>
        <time>2016-10-09T11:29:52Z</time>
      </trkpt>
      <trkpt lat="43.39647" lon="6.64365">
        <ele>183.5</ele>
        <time>2016-10-09T11:29:54Z</time>
      </trkpt>
      <trkpt lat="43.39641" lon="6.64368">
        <ele>183.4</ele>
        <time>2016-10-09T11:29:56Z</time>
      </trkpt>
      <trkpt lat="43.39635" lon="6.64371">
        <ele>183.4</ele>
        <time>2016-10-09T11:29:58Z</time>
      </trkpt>
      <trkpt lat="43.39629" lon="6.64373">
        <ele>183.4</ele>
        <time>2016-10-09T11:30:00Z</time>
      </trkpt>
      <trkpt lat="43.39623" lon="6.64376">
        <ele>183.3</ele>
        <time>2016-10-09T11:30:02Z</time>
      </trkpt>
      <trkpt lat="43.39616" lon="6.64379">
        <ele>183.3</ele>
        <time>2016-10-09T11:30:04Z</time>
      </trkpt>
      <trkpt lat="43.3961" lon="6.64383">
        <ele>183.3</ele>
        <time>2016-10-09T11:30:06Z</time>
      </trkpt>
      <trkpt lat="43.39603" lon="6.64386">
        <ele>183.2</ele>
        <time>2016-10-09T11:30:08Z</time>
      </trkpt>
      <trkpt lat="43.39596" lon="6.64389">
        <ele>183.2</ele>
        <time>2016-10-09T11:30:10Z</time>
      </trkpt>
      <trkpt lat="43.39589" lon="6.64393">
        <ele>183.2</ele>
        <time>2016-10-09T11:30:12Z</time>
      </trkpt>
      <trkpt lat="43.39582" lon="6.64397">
        <ele>183.1</ele>
        <time>2016-10-09T11:30:14Z</time>
      </trkpt>
      <trkpt lat="43.39574" lon="6.644">
        <ele>183.1</ele>
        <time>2016-10-09T11:30:16Z</time>
      </trkpt>
      <trkpt lat="43.39566" lon="6.64404">
        <ele>183</ele>
        <time>2016-10-09T11:30:18Z</time>
      </trkpt>
      <trkpt lat="43.39558" lon="6.64409">
        <ele>183</ele>
        <time>2016-10-09T11:30:20Z</time>
      </trkpt>
      <trkpt lat="43.39551" lon="6.64414">
        <ele>183</ele>
        <time>2016-10-09T11:30:22Z</time>
      </trkpt>
      <trkpt lat="43.39543" lon="6.64419">
        <ele>182.9</ele>
        <time>2016-10-09T11:30:24Z</time>
      </trkpt>
      <trkpt lat="43.39535" lon="6.64424">
        <ele>182.9</ele>
        <time>2016-10-09T11:30:26Z</time>
      </trkpt>
      <trkpt lat="43.39527" lon="6.6443">
        <ele>182.9</ele>
        <time>2016-10-09T11:30:28Z</time>
      </trkpt>
      <trkpt lat="43.39519" lon="6.64439">
        <ele>182.9</ele>
        <time>2016-10-09T11:30:30Z</time>
      </trkpt>
      <trkpt lat="43.39513" lon="6.64451">
        <ele>183.1</ele>
        <time>2016-10-09T11:30:32Z</time>
      </trkpt>
      <trkpt lat="43.39507" lon="6.64463">
        <ele>183.4</ele>
        <time>2016-10-09T11:30:34Z</time>
      </trkpt>
      <trkpt lat="43.39503" lon="6.64475">
        <ele>183.5</ele>
        <time>2016-10-09T11:30:36Z</time>
      </trkpt>
      <trkpt lat="43.39499" lon="6.64486">
        <ele>183.5</ele>
        <time>2016-10-09T11:30:38Z</time>
      </trkpt>
      <trkpt lat="43.39495" lon="6.64498">
        <ele>183.5</ele>
        <time>2016-10-09T11:30:40Z</time>
      </trkpt>
      <trkpt lat="43.39491" lon="6.64511">
        <ele>183.6</ele>
        <time>2016-10-09T11:30:42Z</time>
      </trkpt>
      <trkpt lat="43.39485" lon="6.64523">
        <ele>183.6</ele>
        <time>2016-10-09T11:30:44Z</time>
      </trkpt>
      <trkpt lat="43.39478" lon="6.64533">
        <ele>183.6</ele>
        <time>2016-10-09T11:30:46Z</time>
      </trkpt>
      <trkpt lat="43.39472" lon="6.64543">
        <ele>183.6</ele>
        <time>2016-10-09T11:30:48Z</time>
      </trkpt>
      <trkpt lat="43.39465" lon="6.64554">
        <ele>183.5</ele>
        <time>2016-10-09T11:30:50Z</time>
      </trkpt>
      <trkpt lat="43.39457" lon="6.64564">
        <ele>183.5</ele>
        <time>2016-10-09T11:30:52Z</time>
      </trkpt>
      <trkpt lat="43.39448" lon="6.64574">
        <ele>183.4</ele>
        <time>2016-10-09T11:30:54Z</time>
      </trkpt>
      <trkpt lat="43.39439" lon="6.64583">
        <ele>183.4</ele>
        <time>2016-10-09T11:30:56Z</time>
      </trkpt>
      <trkpt lat="43.3943" lon="6.6459">
        <ele>183.4</ele>
        <time>2016-10-09T11:30:58Z</time>
      </trkpt>
      <trkpt lat="43.39421" lon="6.64596">
        <ele>183.5</ele>
        <time>2016-10-09T11:31:00Z</time>
      </trkpt>
      <trkpt lat="43.39413" lon="6.64599">
        <ele>183.6</ele>
        <time>2016-10-09T11:31:02Z</time>
      </trkpt>
      <trkpt lat="43.39404" lon="6.64601">
        <ele>183.8</ele>
        <time>2016-10-09T11:31:04Z</time>
      </trkpt>
      <trkpt lat="43.39396" lon="6.64603">
        <ele>184</ele>
        <time>2016-10-09T11:31:06Z</time>
      </trkpt>
      <trkpt lat="43.39388" lon="6.64606">
        <ele>184.1</ele>
        <time>2016-10-09T11:31:08Z</time>
      </trkpt>
      <trkpt lat="43.3938" lon="6.64609">
        <ele>184.2</ele>
        <time>2016-10-09T11:31:10Z</time>
      </trkpt>
      <trkpt lat="43.39372" lon="6.64612">
        <ele>184.2</ele>
        <time>2016-10-09T11:31:12Z</time>
      </trkpt>
      <trkpt lat="43.39364" lon="6.64614">
        <ele>184.3</ele>
        <time>2016-10-09T11:31:14Z</time>
      </trkpt>
      <trkpt lat="43.39358" lon="6.64618">
        <ele>184.2</ele>
        <time>2016-10-09T11:31:16Z</time>
      </trkpt>
      <trkpt lat="43.39352" lon="6.64621">
        <ele>184.2</ele>
        <time>2016-10-09T11:31:18Z</time>
      </trkpt>
      <trkpt lat="43.39347" lon="6.64623">
        <ele>184.2</ele>
        <time>2016-10-09T11:31:20Z</time>
      </trkpt>
      <trkpt lat="43.39341" lon="6.64623">
        <ele>184.1</ele>
        <time>2016-10-09T11:31:22Z</time>
      </trkpt>
      <trkpt lat="43.39336" lon="6.64619">
        <ele>182</ele>
        <time>2016-10-09T11:31:24Z</time>
      </trkpt>
      <trkpt lat="43.39333" lon="6.64613">
        <ele>181.3</ele>
        <time>2016-10-09T11:31:26Z</time>
      </trkpt>
      <trkpt lat="43.39329" lon="6.64606">
        <ele>179.7</ele>
        <time>2016-10-09T11:31:28Z</time>
      </trkpt>
      <trkpt lat="43.39324" lon="6.64598">
        <ele>176.7</ele>
        <time>2016-10-09T11:31:30Z</time>
      </trkpt>
      <trkpt lat="43.39316" lon="6.64591">
        <ele>174.4</ele>
        <time>2016-10-09T11:31:32Z</time>
      </trkpt>
      <trkpt lat="43.39305" lon="6.64586">
        <ele>171.2</ele>
        <time>2016-10-09T11:31:34Z</time>
      </trkpt>
      <trkpt lat="43.39291" lon="6.64583">
        <ele>164.9</ele>
        <time>2016-10-09T11:31:36Z</time>
      </trkpt>
      <trkpt lat="43.39277" lon="6.64581">
        <ele>160.7</ele>
        <time>2016-10-09T11:31:38Z</time>
      </trkpt>
      <trkpt lat="43.39262" lon="6.64581">
        <ele>159.8</ele>
        <time>2016-10-09T11:31:40Z</time>
      </trkpt>
      <trkpt lat="43.39246" lon="6.64585">
        <ele>159.5</ele>
        <time>2016-10-09T11:31:42Z</time>
      </trkpt>
      <trkpt lat="43.39232" lon="6.64591">
        <ele>158.5</ele>
        <time>2016-10-09T11:31:44Z</time>
      </trkpt>
      <trkpt lat="43.39217" lon="6.64596">
        <ele>157.8</ele>
        <time>2016-10-09T11:31:46Z</time>
      </trkpt>
      <trkpt lat="43.39202" lon="6.646">
        <ele>155.9</ele>
        <time>2016-10-09T11:31:48Z</time>
      </trkpt>
      <trkpt lat="43.39185" lon="6.64605">
        <ele>154.3</ele>
        <time>2016-10-09T11:31:50Z</time>
      </trkpt>
      <trkpt lat="43.39166" lon="6.64612">
        <ele>152.8</ele>
        <time>2016-10-09T11:31:52Z</time>
      </trkpt>
      <trkpt lat="43.39146" lon="6.64612">
        <ele>152.3</ele>
        <time>2016-10-09T11:31:54Z</time>
      </trkpt>
      <trkpt lat="43.39127" lon="6.64609">
        <ele>151.4</ele>
        <time>2016-10-09T11:31:56Z</time>
      </trkpt>
      <trkpt lat="43.39109" lon="6.6461">
        <ele>150.1</ele>
        <time>2016-10-09T11:31:58Z</time>
      </trkpt>
      <trkpt lat="43.39093" lon="6.64614">
        <ele>148.1</ele>
        <time>2016-10-09T11:32:00Z</time>
      </trkpt>
      <trkpt lat="43.39074" lon="6.64619">
        <ele>146.5</ele>
        <time>2016-10-09T11:32:02Z</time>
      </trkpt>
      <trkpt lat="43.39056" lon="6.64623">
        <ele>144.6</ele>
        <time>2016-10-09T11:32:04Z</time>
      </trkpt>
      <trkpt lat="43.3904" lon="6.64628">
        <ele>143.1</ele>
        <time>2016-10-09T11:32:06Z</time>
      </trkpt>
      <trkpt lat="43.39027" lon="6.64636">
        <ele>141.8</ele>
        <time>2016-10-09T11:32:08Z</time>
      </trkpt>
      <trkpt lat="43.39014" lon="6.64649">
        <ele>140.2</ele>
        <time>2016-10-09T11:32:10Z</time>
      </trkpt>
      <trkpt lat="43.39003" lon="6.64663">
        <ele>137.8</ele>
        <time>2016-10-09T11:32:12Z</time>
      </trkpt>
      <trkpt lat="43.38993" lon="6.64676">
        <ele>135.5</ele>
        <time>2016-10-09T11:32:14Z</time>
      </trkpt>
      <trkpt lat="43.38983" lon="6.64686">
        <ele>133.5</ele>
        <time>2016-10-09T11:32:16Z</time>
      </trkpt>
      <trkpt lat="43.3897" lon="6.64695">
        <ele>132.6</ele>
        <time>2016-10-09T11:32:18Z</time>
      </trkpt>
      <trkpt lat="43.38955" lon="6.64704">
        <ele>132.1</ele>
        <time>2016-10-09T11:32:20Z</time>
      </trkpt>
      <trkpt lat="43.3894" lon="6.64711">
        <ele>131</ele>
        <time>2016-10-09T11:32:22Z</time>
      </trkpt>
      <trkpt lat="43.38929" lon="6.64715">
        <ele>130.4</ele>
        <time>2016-10-09T11:32:24Z</time>
      </trkpt>
      <trkpt lat="43.38919" lon="6.64719">
        <ele>129.2</ele>
        <time>2016-10-09T11:32:26Z</time>
      </trkpt>
      <trkpt lat="43.38906" lon="6.64727">
        <ele>127.7</ele>
        <time>2016-10-09T11:32:28Z</time>
      </trkpt>
      <trkpt lat="43.38892" lon="6.64738">
        <ele>126</ele>
        <time>2016-10-09T11:32:30Z</time>
      </trkpt>
      <trkpt lat="43.38878" lon="6.64748">
        <ele>124.9</ele>
        <time>2016-10-09T11:32:32Z</time>
      </trkpt>
      <trkpt lat="43.38863" lon="6.64753">
        <ele>123.6</ele>
        <time>2016-10-09T11:32:34Z</time>
      </trkpt>
      <trkpt lat="43.38849" lon="6.64749">
        <ele>122.2</ele>
        <time>2016-10-09T11:32:36Z</time>
      </trkpt>
      <trkpt lat="43.38832" lon="6.64743">
        <ele>120.1</ele>
        <time>2016-10-09T11:32:38Z</time>
      </trkpt>
      <trkpt lat="43.38816" lon="6.64741">
        <ele>118.2</ele>
        <time>2016-10-09T11:32:40Z</time>
      </trkpt>
      <trkpt lat="43.388" lon="6.64741">
        <ele>116.9</ele>
        <time>2016-10-09T11:32:42Z</time>
      </trkpt>
      <trkpt lat="43.38786" lon="6.64741">
        <ele>118.2</ele>
        <time>2016-10-09T11:32:44Z</time>
      </trkpt>
      <trkpt lat="43.38775" lon="6.64744">
        <ele>121.2</ele>
        <time>2016-10-09T11:32:46Z</time>
      </trkpt>
      <trkpt lat="43.3877" lon="6.64751">
        <ele>123.3</ele>
        <time>2016-10-09T11:32:48Z</time>
      </trkpt>
      <trkpt lat="43.38766" lon="6.64757">
        <ele>124.9</ele>
        <time>2016-10-09T11:32:50Z</time>
      </trkpt>
      <trkpt lat="43.38763" lon="6.64754">
        <ele>126.7</ele>
        <time>2016-10-09T11:32:52Z</time>
      </trkpt>
      <trkpt lat="43.38762" lon="6.64747">
        <ele>124.5</ele>
        <time>2016-10-09T11:32:54Z</time>
      </trkpt>
      <trkpt lat="43.38765" lon="6.64736">
        <ele>121.2</ele>
        <time>2016-10-09T11:32:56Z</time>
      </trkpt>
      <trkpt lat="43.38769" lon="6.64723">
        <ele>117.4</ele>
        <time>2016-10-09T11:32:58Z</time>
      </trkpt>
      <trkpt lat="43.38777" lon="6.64712">
        <ele>116</ele>
        <time>2016-10-09T11:33:00Z</time>
      </trkpt>
      <trkpt lat="43.38788" lon="6.64707">
        <ele>116</ele>
        <time>2016-10-09T11:33:02Z</time>
      </trkpt>
      <trkpt lat="43.388" lon="6.64704">
        <ele>115.3</ele>
        <time>2016-10-09T11:33:04Z</time>
      </trkpt>
      <trkpt lat="43.38814" lon="6.64704">
        <ele>115.8</ele>
        <time>2016-10-09T11:33:06Z</time>
      </trkpt>
      <trkpt lat="43.38828" lon="6.64703">
        <ele>117</ele>
        <time>2016-10-09T11:33:08Z</time>
      </trkpt>
      <trkpt lat="43.3884" lon="6.64704">
        <ele>118.4</ele>
        <time>2016-10-09T11:33:10Z</time>
      </trkpt>
      <trkpt lat="43.38852" lon="6.64705">
        <ele>118.8</ele>
        <time>2016-10-09T11:33:12Z</time>
      </trkpt>
      <trkpt lat="43.38863" lon="6.64699">
        <ele>116.7</ele>
        <time>2016-10-09T11:33:14Z</time>
      </trkpt>
      <trkpt lat="43.38873" lon="6.6469">
        <ele>114.2</ele>
        <time>2016-10-09T11:33:16Z</time>
      </trkpt>
      <trkpt lat="43.38882" lon="6.64682">
        <ele>112.4</ele>
        <time>2016-10-09T11:33:18Z</time>
      </trkpt>
      <trkpt lat="43.3889" lon="6.64676">
        <ele>112.6</ele>
        <time>2016-10-09T11:33:20Z</time>
      </trkpt>
      <trkpt lat="43.38898" lon="6.64671">
        <ele>112.2</ele>
        <time>2016-10-09T11:33:22Z</time>
      </trkpt>
      <trkpt lat="43.38907" lon="6.64666">
        <ele>112.3</ele>
        <time>2016-10-09T11:33:24Z</time>
      </trkpt>
      <trkpt lat="43.38915" lon="6.64661">
        <ele>112.7</ele>
        <time>2016-10-09T11:33:26Z</time>
      </trkpt>
      <trkpt lat="43.38923" lon="6.64658">
        <ele>113.1</ele>
        <time>2016-10-09T11:33:28Z</time>
      </trkpt>
      <trkpt lat="43.38932" lon="6.64654">
        <ele>114</ele>
        <time>2016-10-09T11:33:30Z</time>
      </trkpt>
      <trkpt lat="43.38941" lon="6.64649">
        <ele>116.6</ele>
        <time>2016-10-09T11:33:32Z</time>
      </trkpt>
      <trkpt lat="43.38949" lon="6.64641">
        <ele>119.2</ele>
        <time>2016-10-09T11:33:34Z</time>
      </trkpt>
      <trkpt lat="43.38953" lon="6.64632">
        <ele>117.3</ele>
        <time>2016-10-09T11:33:36Z</time>
      </trkpt>
      <trkpt lat="43.38956" lon="6.64624">
        <ele>115.3</ele>
        <time>2016-10-09T11:33:38Z</time>
      </trkpt>
      <trkpt lat="43.38958" lon="6.64617">
        <ele>113.6</ele>
        <time>2016-10-09T11:33:40Z</time>
      </trkpt>
      <trkpt lat="43.38959" lon="6.64609">
        <ele>112.4</ele>
        <time>2016-10-09T11:33:42Z</time>
      </trkpt>
      <trkpt lat="43.3896" lon="6.64599">
        <ele>110.1</ele>
        <time>2016-10-09T11:33:44Z</time>
      </trkpt>
      <trkpt lat="43.38961" lon="6.64588">
        <ele>108.4</ele>
        <time>2016-10-09T11:33:46Z</time>
      </trkpt>
      <trkpt lat="43.38961" lon="6.64575">
        <ele>107.8</ele>
        <time>2016-10-09T11:33:48Z</time>
      </trkpt>
      <trkpt lat="43.38963" lon="6.64561">
        <ele>106.6</ele>
        <time>2016-10-09T11:33:50Z</time>
      </trkpt>
      <trkpt lat="43.38968" lon="6.64546">
        <ele>106.2</ele>
        <time>2016-10-09T11:33:52Z</time>
      </trkpt>
      <trkpt lat="43.38974" lon="6.64534">
        <ele>106.9</ele>
        <time>2016-10-09T11:33:54Z</time>
      </trkpt>
      <trkpt lat="43.38984" lon="6.64526">
        <ele>108.8</ele>
        <time>2016-10-09T11:33:56Z</time>
      </trkpt>
      <trkpt lat="43.38994" lon="6.64521">
        <ele>111.1</ele>
        <time>2016-10-09T11:33:58Z</time>
      </trkpt>
      <trkpt lat="43.39002" lon="6.64516">
        <ele>112.6</ele>
        <time>2016-10-09T11:34:00Z</time>
      </trkpt>
      <trkpt lat="43.39011" lon="6.6451">
        <ele>113.7</ele>
        <time>2016-10-09T11:34:02Z</time>
      </trkpt>
      <trkpt lat="43.39018" lon="6.64504">
        <ele>113.9</ele>
        <time>2016-10-09T11:34:04Z</time>
      </trkpt>
      <trkpt lat="43.39027" lon="6.64497">
        <ele>112.8</ele>
        <time>2016-10-09T11:34:06Z</time>
      </trkpt>
      <trkpt lat="43.39037" lon="6.64487">
        <ele>112</ele>
        <time>2016-10-09T11:34:08Z</time>
      </trkpt>
      <trkpt lat="43.39048" lon="6.64478">
        <ele>111.2</ele>
        <time>2016-10-09T11:34:10Z</time>
      </trkpt>
      <trkpt lat="43.39059" lon="6.64468">
        <ele>111.3</ele>
        <time>2016-10-09T11:34:12Z</time>
      </trkpt>
      <trkpt lat="43.39071" lon="6.64458">
        <ele>110.7</ele>
        <time>2016-10-09T11:34:14Z</time>
      </trkpt>
      <trkpt lat="43.39082" lon="6.6445">
        <ele>108.8</ele>
        <time>2016-10-09T11:34:16Z</time>
      </trkpt>
      <trkpt lat="43.39095" lon="6.64442">
        <ele>105.8</ele>
        <time>2016-10-09T11:34:18Z</time>
      </trkpt>
      <trkpt lat="43.39109" lon="6.64436">
        <ele>104.7</ele>
        <time>2016-10-09T11:34:20Z</time>
      </trkpt>
      <trkpt lat="43.39124" lon="6.64429">
        <ele>105.6</ele>
        <time>2016-10-09T11:34:22Z</time>
      </trkpt>
      <trkpt lat="43.39138" lon="6.64422">
        <ele>106.5</ele>
        <time>2016-10-09T11:34:24Z</time>
      </trkpt>
      <trkpt lat="43.39153" lon="6.64414">
        <ele>106.9</ele>
        <time>2016-10-09T11:34:26Z</time>
      </trkpt>
      <trkpt lat="43.39168" lon="6.64405">
        <ele>106.9</ele>
        <time>2016-10-09T11:34:28Z</time>
      </trkpt>
      <trkpt lat="43.39184" lon="6.64397">
        <ele>105</ele>
        <time>2016-10-09T11:34:30Z</time>
      </trkpt>
      <trkpt lat="43.392" lon="6.64394">
        <ele>103.4</ele>
        <time>2016-10-09T11:34:32Z</time>
      </trkpt>
      <trkpt lat="43.39214" lon="6.64397">
        <ele>103.3</ele>
        <time>2016-10-09T11:34:34Z</time>
      </trkpt>
      <trkpt lat="43.39225" lon="6.64401">
        <ele>104.8</ele>
        <time>2016-10-09T11:34:36Z</time>
      </trkpt>
      <trkpt lat="43.39234" lon="6.64404">
        <ele>106.5</ele>
        <time>2016-10-09T11:34:38Z</time>
      </trkpt>
      <trkpt lat="43.39245" lon="6.64404">
        <ele>108.9</ele>
        <time>2016-10-09T11:34:40Z</time>
      </trkpt>
      <trkpt lat="43.39254" lon="6.64403">
        <ele>110.1</ele>
        <time>2016-10-09T11:34:42Z</time>
      </trkpt>
      <trkpt lat="43.39262" lon="6.64398">
        <ele>117.6</ele>
        <time>2016-10-09T11:34:44Z</time>
      </trkpt>
      <trkpt lat="43.39267" lon="6.64388">
        <ele>125.2</ele>
        <time>2016-10-09T11:34:46Z</time>
      </trkpt>
      <trkpt lat="43.39269" lon="6.64376">
        <ele>133</ele>
        <time>2016-10-09T11:34:48Z</time>
      </trkpt>
      <trkpt lat="43.39271" lon="6.64364">
        <ele>133.9</ele>
        <time>2016-10-09T11:34:50Z</time>
      </trkpt>
      <trkpt lat="43.39274" lon="6.64352">
        <ele>135.2</ele>
        <time>2016-10-09T11:34:52Z</time>
      </trkpt>
      <trkpt lat="43.39279" lon="6.64345">
        <ele>136.1</ele>
        <time>2016-10-09T11:34:54Z</time>
      </trkpt>
      <trkpt lat="43.39286" lon="6.6434">
        <ele>137.2</ele>
        <time>2016-10-09T11:34:56Z</time>
      </trkpt>
      <trkpt lat="43.39292" lon="6.64338">
        <ele>138</ele>
        <time>2016-10-09T11:34:58Z</time>
      </trkpt>
      <trkpt lat="43.39298" lon="6.64337">
        <ele>138.1</ele>
        <time>2016-10-09T11:35:00Z</time>
      </trkpt>
      <trkpt lat="43.39304" lon="6.64335">
        <ele>138.6</ele>
        <time>2016-10-09T11:35:02Z</time>
      </trkpt>
      <trkpt lat="43.39311" lon="6.64333">
        <ele>139.2</ele>
        <time>2016-10-09T11:35:04Z</time>
      </trkpt>
      <trkpt lat="43.39317" lon="6.6433">
        <ele>140.1</ele>
        <time>2016-10-09T11:35:06Z</time>
      </trkpt>
      <trkpt lat="43.39322" lon="6.64326">
        <ele>141.6</ele>
        <time>2016-10-09T11:35:08Z</time>
      </trkpt>
      <trkpt lat="43.39328" lon="6.64322">
        <ele>143.3</ele>
        <time>2016-10-09T11:35:10Z</time>
      </trkpt>
      <trkpt lat="43.39332" lon="6.64317">
        <ele>145</ele>
        <time>2016-10-09T11:35:12Z</time>
      </trkpt>
      <trkpt lat="43.39336" lon="6.64312">
        <ele>146.4</ele>
        <time>2016-10-09T11:35:14Z</time>
      </trkpt>
      <trkpt lat="43.39339" lon="6.64307">
        <ele>147.8</ele>
        <time>2016-10-09T11:35:16Z</time>
      </trkpt>
      <trkpt lat="43.39341" lon="6.64301">
        <ele>149.1</ele>
        <time>2016-10-09T11:35:18Z</time>
      </trkpt>
      <trkpt lat="43.39343" lon="6.64296">
        <ele>150.4</ele>
        <time>2016-10-09T11:35:20Z</time>
      </trkpt>
      <trkpt lat="43.39344" lon="6.6429">
        <ele>151.5</ele>
        <time>2016-10-09T11:35:22Z</time>
      </trkpt>
      <trkpt lat="43.39346" lon="6.64284">
        <ele>152.5</ele>
        <time>2016-10-09T11:35:24Z</time>
      </trkpt>
      <trkpt lat="43.39347" lon="6.64278">
        <ele>153.5</ele>
        <time>2016-10-09T11:35:26Z</time>
      </trkpt>
      <trkpt lat="43.39349" lon="6.64274">
        <ele>154.4</ele>
        <time>2016-10-09T11:35:28Z</time>
      </trkpt>
      <trkpt lat="43.39352" lon="6.6427">
        <ele>155.7</ele>
        <time>2016-10-09T11:35:30Z</time>
      </trkpt>
      <trkpt lat="43.39355" lon="6.64267">
        <ele>156.4</ele>
        <time>2016-10-09T11:35:32Z</time>
      </trkpt>
      <trkpt lat="43.39358" lon="6.64265">
        <ele>157</ele>
        <time>2016-10-09T11:35:34Z</time>
      </trkpt>
      <trkpt lat="43.39361" lon="6.64264">
        <ele>157.6</ele>
        <time>2016-10-09T11:35:36Z</time>
      </trkpt>
      <trkpt lat="43.39364" lon="6.64263">
        <ele>158.3</ele>
        <time>2016-10-09T11:35:38Z</time>
      </trkpt>
      <trkpt lat="43.39367" lon="6.64262">
        <ele>159.1</ele>
        <time>2016-10-09T11:35:40Z</time>
      </trkpt>
      <trkpt lat="43.39369" lon="6.64261">
        <ele>159.6</ele>
        <time>2016-10-09T11:35:42Z</time>
      </trkpt>
      <trkpt lat="43.39372" lon="6.64259">
        <ele>160.1</ele>
        <time>2016-10-09T11:35:44Z</time>
      </trkpt>
      <trkpt lat="43.39374" lon="6.64258">
        <ele>160.4</ele>
        <time>2016-10-09T11:35:46Z</time>
      </trkpt>
      <trkpt lat="43.39376" lon="6.64256">
        <ele>161</ele>
        <time>2016-10-09T11:35:48Z</time>
      </trkpt>
      <trkpt lat="43.39379" lon="6.64255">
        <ele>161.7</ele>
        <time>2016-10-09T11:35:50Z</time>
      </trkpt>
      <trkpt lat="43.39381" lon="6.64253">
        <ele>162.4</ele>
        <time>2016-10-09T11:35:52Z</time>
      </trkpt>
      <trkpt lat="43.39383" lon="6.64252">
        <ele>163.1</ele>
        <time>2016-10-09T11:35:54Z</time>
      </trkpt>
      <trkpt lat="43.39385" lon="6.6425">
        <ele>163.7</ele>
        <time>2016-10-09T11:35:56Z</time>
      </trkpt>
      <trkpt lat="43.39388" lon="6.64249">
        <ele>164.4</ele>
        <time>2016-10-09T11:35:58Z</time>
      </trkpt>
      <trkpt lat="43.39389" lon="6.64247">
        <ele>164.9</ele>
        <time>2016-10-09T11:36:00Z</time>
      </trkpt>
      <trkpt lat="43.39392" lon="6.64245">
        <ele>165.4</ele>
        <time>2016-10-09T11:36:02Z</time>
      </trkpt>
      <trkpt lat="43.39394" lon="6.64243">
        <ele>165.9</ele>
        <time>2016-10-09T11:36:04Z</time>
      </trkpt>
      <trkpt lat="43.39397" lon="6.64241">
        <ele>166.4</ele>
        <time>2016-10-09T11:36:06Z</time>
      </trkpt>
      <trkpt lat="43.39399" lon="6.6424">
        <ele>166.8</ele>
        <time>2016-10-09T11:36:08Z</time>
      </trkpt>
      <trkpt lat="43.39402" lon="6.64238">
        <ele>167.2</ele>
        <time>2016-10-09T11:36:10Z</time>
      </trkpt>
      <trkpt lat="43.39404" lon="6.64237">
        <ele>167.4</ele>
        <time>2016-10-09T11:36:12Z</time>
      </trkpt>
      <trkpt lat="43.39407" lon="6.64236">
        <ele>167.8</ele>
        <time>2016-10-09T11:36:14Z</time>
      </trkpt>
      <trkpt lat="43.3941" lon="6.64234">
        <ele>168.2</ele>
        <time>2016-10-09T11:36:16Z</time>
      </trkpt>
      <trkpt lat="43.39413" lon="6.64233">
        <ele>168.6</ele>
        <time>2016-10-09T11:36:18Z</time>
      </trkpt>
      <trkpt lat="43.39416" lon="6.64231">
        <ele>169</ele>
        <time>2016-10-09T11:36:20Z</time>
      </trkpt>
      <trkpt lat="43.3942" lon="6.6423">
        <ele>169</ele>
        <time>2016-10-09T11:36:22Z</time>
      </trkpt>
      <trkpt lat="43.39423" lon="6.64229">
        <ele>169</ele>
        <time>2016-10-09T11:36:24Z</time>
      </trkpt>
      <trkpt lat="43.39427" lon="6.64227">
        <ele>168.8</ele>
        <time>2016-10-09T11:36:26Z</time>
      </trkpt>
      <trkpt lat="43.39432" lon="6.64226">
        <ele>168.6</ele>
        <time>2016-10-09T11:36:28Z</time>
      </trkpt>
      <trkpt lat="43.39437" lon="6.64224">
        <ele>167.8</ele>
        <time>2016-10-09T11:36:30Z</time>
      </trkpt>
      <trkpt lat="43.39444" lon="6.64221">
        <ele>166.7</ele>
        <time>2016-10-09T11:36:32Z</time>
      </trkpt>
      <trkpt lat="43.39452" lon="6.64217">
        <ele>166.1</ele>
        <time>2016-10-09T11:36:34Z</time>
      </trkpt>
      <trkpt lat="43.39458" lon="6.64211">
        <ele>165.3</ele>
        <time>2016-10-09T11:36:36Z</time>
      </trkpt>
      <trkpt lat="43.39463" lon="6.64204">
        <ele>165.5</ele>
        <time>2016-10-09T11:36:38Z</time>
      </trkpt>
      <trkpt lat="43.39467" lon="6.64195">
        <ele>167.1</ele>
        <time>2016-10-09T11:36:40Z</time>
      </trkpt>
      <trkpt lat="43.39468" lon="6.64186">
        <ele>168.8</ele>
        <time>2016-10-09T11:36:42Z</time>
      </trkpt>
      <trkpt lat="43.39469" lon="6.64177">
        <ele>170</ele>
        <time>2016-10-09T11:36:44Z</time>
      </trkpt>
      <trkpt lat="43.3947" lon="6.64167">
        <ele>171.6</ele>
        <time>2016-10-09T11:36:46Z</time>
      </trkpt>
      <trkpt lat="43.39474" lon="6.64155">
        <ele>172.3</ele>
        <time>2016-10-09T11:36:48Z</time>
      </trkpt>
      <trkpt lat="43.39481" lon="6.64144">
        <ele>172.6</ele>
        <time>2016-10-09T11:36:50Z</time>
      </trkpt>
      <trkpt lat="43.39491" lon="6.64141">
        <ele>172.7</ele>
        <time>2016-10-09T11:36:52Z</time>
      </trkpt>
      <trkpt lat="43.39499" lon="6.64146">
        <ele>171.7</ele>
        <time>2016-10-09T11:36:54Z</time>
      </trkpt>
      <trkpt lat="43.39502" lon="6.64152">
        <ele>170.9</ele>
        <time>2016-10-09T11:36:56Z</time>
      </trkpt>
      <trkpt lat="43.39506" lon="6.64156">
        <ele>170</ele>
        <time>2016-10-09T11:36:58Z</time>
      </trkpt>
      <trkpt lat="43.39509" lon="6.64161">
        <ele>169.2</ele>
        <time>2016-10-09T11:37:00Z</time>
      </trkpt>
      <trkpt lat="43.39512" lon="6.64166">
        <ele>168.6</ele>
        <time>2016-10-09T11:37:02Z</time>
      </trkpt>
      <trkpt lat="43.39514" lon="6.64171">
        <ele>167.9</ele>
        <time>2016-10-09T11:37:04Z</time>
      </trkpt>
      <trkpt lat="43.39516" lon="6.64176">
        <ele>167.3</ele>
        <time>2016-10-09T11:37:06Z</time>
      </trkpt>
      <trkpt lat="43.39518" lon="6.64183">
        <ele>166.6</ele>
        <time>2016-10-09T11:37:08Z</time>
      </trkpt>
      <trkpt lat="43.3952" lon="6.6419">
        <ele>166.2</ele>
        <time>2016-10-09T11:37:10Z</time>
      </trkpt>
      <trkpt lat="43.39524" lon="6.64195">
        <ele>166.2</ele>
        <time>2016-10-09T11:37:12Z</time>
      </trkpt>
      <trkpt lat="43.39529" lon="6.64197">
        <ele>166.8</ele>
        <time>2016-10-09T11:37:14Z</time>
      </trkpt>
      <trkpt lat="43.39533" lon="6.64196">
        <ele>167.4</ele>
        <time>2016-10-09T11:37:16Z</time>
      </trkpt>
      <trkpt lat="43.39536" lon="6.64193">
        <ele>167.9</ele>
        <time>2016-10-09T11:37:18Z</time>
      </trkpt>
      <trkpt lat="43.39538" lon="6.64191">
        <ele>168.4</ele>
        <time>2016-10-09T11:37:20Z</time>
      </trkpt>
      <trkpt lat="43.39541" lon="6.64188">
        <ele>168.9</ele>
        <time>2016-10-09T11:37:22Z</time>
      </trkpt>
      <trkpt lat="43.39542" lon="6.64185">
        <ele>169.5</ele>
        <time>2016-10-09T11:37:24Z</time>
      </trkpt>
      <trkpt lat="43.39545" lon="6.64182">
        <ele>170.2</ele>
        <time>2016-10-09T11:37:26Z</time>
      </trkpt>
      <trkpt lat="43.39547" lon="6.6418">
        <ele>170.7</ele>
        <time>2016-10-09T11:37:28Z</time>
      </trkpt>
      <trkpt lat="43.39549" lon="6.64177">
        <ele>171.7</ele>
        <time>2016-10-09T11:37:30Z</time>
      </trkpt>
      <trkpt lat="43.39551" lon="6.64175">
        <ele>172.6</ele>
        <time>2016-10-09T11:37:32Z</time>
      </trkpt>
      <trkpt lat="43.39554" lon="6.64173">
        <ele>173.5</ele>
        <time>2016-10-09T11:37:34Z</time>
      </trkpt>
      <trkpt lat="43.39557" lon="6.64172">
        <ele>174</ele>
        <time>2016-10-09T11:37:36Z</time>
      </trkpt>
      <trkpt lat="43.39559" lon="6.6417">
        <ele>174.5</ele>
        <time>2016-10-09T11:37:38Z</time>
      </trkpt>
      <trkpt lat="43.39562" lon="6.64168">
        <ele>175</ele>
        <time>2016-10-09T11:37:40Z</time>
      </trkpt>
      <trkpt lat="43.39565" lon="6.64167">
        <ele>175.6</ele>
        <time>2016-10-09T11:37:42Z</time>
      </trkpt>
      <trkpt lat="43.39569" lon="6.64165">
        <ele>176.1</ele>
        <time>2016-10-09T11:37:44Z</time>
      </trkpt>
      <trkpt lat="43.39573" lon="6.64163">
        <ele>176.7</ele>
        <time>2016-10-09T11:37:46Z</time>
      </trkpt>
      <trkpt lat="43.39576" lon="6.64161">
        <ele>177.1</ele>
        <time>2016-10-09T11:37:48Z</time>
      </trkpt>
      <trkpt lat="43.3958" lon="6.6416">
        <ele>177.5</ele>
        <time>2016-10-09T11:37:50Z</time>
      </trkpt>
      <trkpt lat="43.39583" lon="6.64158">
        <ele>177.8</ele>
        <time>2016-10-09T11:37:52Z</time>
      </trkpt>
      <trkpt lat="43.39587" lon="6.64156">
        <ele>178.2</ele>
        <time>2016-10-09T11:37:54Z</time>
      </trkpt>
      <trkpt lat="43.39592" lon="6.64154">
        <ele>178.8</ele>
        <time>2016-10-09T11:37:56Z</time>
      </trkpt>
      <trkpt lat="43.39598" lon="6.64152">
        <ele>179.3</ele>
        <time>2016-10-09T11:37:58Z</time>
      </trkpt>
      <trkpt lat="43.39603" lon="6.6415">
        <ele>179.4</ele>
        <time>2016-10-09T11:38:00Z</time>
      </trkpt>
      <trkpt lat="43.39609" lon="6.64149">
        <ele>180.1</ele>
        <time>2016-10-09T11:38:02Z</time>
      </trkpt>
      <trkpt lat="43.39614" lon="6.64148">
        <ele>180.5</ele>
        <time>2016-10-09T11:38:04Z</time>
      </trkpt>
      <trkpt lat="43.3962" lon="6.64146">
        <ele>180.6</ele>
        <time>2016-10-09T11:38:06Z</time>
      </trkpt>
      <trkpt lat="43.39625" lon="6.64144">
        <ele>181.4</ele>
        <time>2016-10-09T11:38:08Z</time>
      </trkpt>
      <trkpt lat="43.3963" lon="6.64142">
        <ele>182.1</ele>
        <time>2016-10-09T11:38:10Z</time>
      </trkpt>
      <trkpt lat="43.39634" lon="6.64138">
        <ele>182.6</ele>
        <time>2016-10-09T11:38:12Z</time>
      </trkpt>
      <trkpt lat="43.39638" lon="6.64134">
        <ele>182.9</ele>
        <time>2016-10-09T11:38:14Z</time>
      </trkpt>
      <trkpt lat="43.39642" lon="6.6413">
        <ele>183.3</ele>
        <time>2016-10-09T11:38:16Z</time>
      </trkpt>
      <trkpt lat="43.39646" lon="6.64126">
        <ele>183.8</ele>
        <time>2016-10-09T11:38:18Z</time>
      </trkpt>
      <trkpt lat="43.39651" lon="6.64124">
        <ele>184</ele>
        <time>2016-10-09T11:38:20Z</time>
      </trkpt>
      <trkpt lat="43.39656" lon="6.64123">
        <ele>184.4</ele>
        <time>2016-10-09T11:38:22Z</time>
      </trkpt>
      <trkpt lat="43.39662" lon="6.64124">
        <ele>184.6</ele>
        <time>2016-10-09T11:38:24Z</time>
      </trkpt>
      <trkpt lat="43.39667" lon="6.64129">
        <ele>183.5</ele>
        <time>2016-10-09T11:38:26Z</time>
      </trkpt>
      <trkpt lat="43.39672" lon="6.64132">
        <ele>182.2</ele>
        <time>2016-10-09T11:38:28Z</time>
      </trkpt>
      <trkpt lat="43.39679" lon="6.64135">
        <ele>181.8</ele>
        <time>2016-10-09T11:38:30Z</time>
      </trkpt>
      <trkpt lat="43.39686" lon="6.64137">
        <ele>181.8</ele>
        <time>2016-10-09T11:38:32Z</time>
      </trkpt>
      <trkpt lat="43.39693" lon="6.64139">
        <ele>182.1</ele>
        <time>2016-10-09T11:38:34Z</time>
      </trkpt>
      <trkpt lat="43.397" lon="6.6414">
        <ele>183</ele>
        <time>2016-10-09T11:38:36Z</time>
      </trkpt>
      <trkpt lat="43.39707" lon="6.64141">
        <ele>183.9</ele>
        <time>2016-10-09T11:38:38Z</time>
      </trkpt>
      <trkpt lat="43.39714" lon="6.64142">
        <ele>184.2</ele>
        <time>2016-10-09T11:38:40Z</time>
      </trkpt>
      <trkpt lat="43.39722" lon="6.64141">
        <ele>184.8</ele>
        <time>2016-10-09T11:38:42Z</time>
      </trkpt>
      <trkpt lat="43.3973" lon="6.64141">
        <ele>184.8</ele>
        <time>2016-10-09T11:38:44Z</time>
      </trkpt>
      <trkpt lat="43.39738" lon="6.64142">
        <ele>185.3</ele>
        <time>2016-10-09T11:38:46Z</time>
      </trkpt>
      <trkpt lat="43.39745" lon="6.64145">
        <ele>184.3</ele>
        <time>2016-10-09T11:38:48Z</time>
      </trkpt>
      <trkpt lat="43.39752" lon="6.64147">
        <ele>183</ele>
        <time>2016-10-09T11:38:50Z</time>
      </trkpt>
      <trkpt lat="43.39759" lon="6.64149">
        <ele>183.1</ele>
        <time>2016-10-09T11:38:52Z</time>
      </trkpt>
      <trkpt lat="43.39764" lon="6.6415">
        <ele>183.7</ele>
        <time>2016-10-09T11:38:54Z</time>
      </trkpt>
      <trkpt lat="43.3977" lon="6.6415">
        <ele>184.3</ele>
        <time>2016-10-09T11:38:56Z</time>
      </trkpt>
      <trkpt lat="43.39776" lon="6.64151">
        <ele>184.7</ele>
        <time>2016-10-09T11:38:58Z</time>
      </trkpt>
      <trkpt lat="43.39784" lon="6.64151">
        <ele>184.8</ele>
        <time>2016-10-09T11:39:00Z</time>
      </trkpt>
      <trkpt lat="43.3979" lon="6.64151">
        <ele>184.7</ele>
        <time>2016-10-09T11:39:02Z</time>
      </trkpt>
      <trkpt lat="43.39796" lon="6.64151">
        <ele>184.5</ele>
        <time>2016-10-09T11:39:04Z</time>
      </trkpt>
      <trkpt lat="43.398" lon="6.64151">
        <ele>184.3</ele>
        <time>2016-10-09T11:39:06Z</time>
      </trkpt>
      <trkpt lat="43.39803" lon="6.64151">
        <ele>184.2</ele>
        <time>2016-10-09T11:39:08Z</time>
      </trkpt>
      <trkpt lat="43.39806" lon="6.64151">
        <ele>184.2</ele>
        <time>2016-10-09T11:39:10Z</time>
      </trkpt>
      <trkpt lat="43.3981" lon="6.6415">
        <ele>184.2</ele>
        <time>2016-10-09T11:39:12Z</time>
      </trkpt>
      <trkpt lat="43.39813" lon="6.6415">
        <ele>184.4</ele>
        <time>2016-10-09T11:39:14Z</time>
      </trkpt>
      <trkpt lat="43.39816" lon="6.64149">
        <ele>184.7</ele>
        <time>2016-10-09T11:39:16Z</time>
      </trkpt>
      <trkpt lat="43.39819" lon="6.64147">
        <ele>185</ele>
        <time>2016-10-09T11:39:18Z</time>
      </trkpt>
      <trkpt lat="43.39821" lon="6.64145">
        <ele>185.4</ele>
        <time>2016-10-09T11:39:20Z</time>
      </trkpt>
      <trkpt lat="43.39823" lon="6.64142">
        <ele>185.9</ele>
        <time>2016-10-09T11:39:22Z</time>
      </trkpt>
      <trkpt lat="43.39824" lon="6.64139">
        <ele>186.4</ele>
        <time>2016-10-09T11:39:24Z</time>
      </trkpt>
      <trkpt lat="43.39825" lon="6.64136">
        <ele>187.2</ele>
        <time>2016-10-09T11:39:26Z</time>
      </trkpt>
      <trkpt lat="43.39825" lon="6.64132">
        <ele>188</ele>
        <time>2016-10-09T11:39:28Z</time>
      </trkpt>
      <trkpt lat="43.39825" lon="6.64129">
        <ele>188.8</ele>
        <time>2016-10-09T11:39:30Z</time>
      </trkpt>
      <trkpt lat="43.39825" lon="6.64126">
        <ele>189.2</ele>
        <time>2016-10-09T11:39:32Z</time>
      </trkpt>
      <trkpt lat="43.39823" lon="6.64123">
        <ele>189.8</ele>
        <time>2016-10-09T11:39:34Z</time>
      </trkpt>
      <trkpt lat="43.39822" lon="6.6412">
        <ele>190.2</ele>
        <time>2016-10-09T11:39:36Z</time>
      </trkpt>
      <trkpt lat="43.3982" lon="6.64118">
        <ele>190.3</ele>
        <time>2016-10-09T11:39:38Z</time>
      </trkpt>
      <trkpt lat="43.39818" lon="6.64116">
        <ele>190.4</ele>
        <time>2016-10-09T11:39:40Z</time>
      </trkpt>
      <trkpt lat="43.39816" lon="6.64115">
        <ele>190.4</ele>
        <time>2016-10-09T11:39:42Z</time>
      </trkpt>
      <trkpt lat="43.39814" lon="6.64113">
        <ele>190.8</ele>
        <time>2016-10-09T11:39:44Z</time>
      </trkpt>
      <trkpt lat="43.39812" lon="6.64111">
        <ele>191.3</ele>
        <time>2016-10-09T11:39:46Z</time>
      </trkpt>
      <trkpt lat="43.3981" lon="6.64108">
        <ele>191.8</ele>
        <time>2016-10-09T11:39:48Z</time>
      </trkpt>
      <trkpt lat="43.39808" lon="6.64105">
        <ele>192.1</ele>
        <time>2016-10-09T11:39:50Z</time>
      </trkpt>
      <trkpt lat="43.39806" lon="6.64104">
        <ele>192.4</ele>
        <time>2016-10-09T11:39:52Z</time>
      </trkpt>
      <trkpt lat="43.39803" lon="6.64102">
        <ele>192.6</ele>
        <time>2016-10-09T11:39:54Z</time>
      </trkpt>
      <trkpt lat="43.39801" lon="6.64102">
        <ele>193</ele>
        <time>2016-10-09T11:39:56Z</time>
      </trkpt>
      <trkpt lat="43.39798" lon="6.64102">
        <ele>193.4</ele>
        <time>2016-10-09T11:39:58Z</time>
      </trkpt>
      <trkpt lat="43.39796" lon="6.64102">
        <ele>193.6</ele>
        <time>2016-10-09T11:40:00Z</time>
      </trkpt>
      <trkpt lat="43.39793" lon="6.64102">
        <ele>193.6</ele>
        <time>2016-10-09T11:40:02Z</time>
      </trkpt>
      <trkpt lat="43.3979" lon="6.64101">
        <ele>193.6</ele>
        <time>2016-10-09T11:40:04Z</time>
      </trkpt>
      <trkpt lat="43.39788" lon="6.641">
        <ele>193.6</ele>
        <time>2016-10-09T11:40:06Z</time>
      </trkpt>
      <trkpt lat="43.39785" lon="6.64099">
        <ele>193.6</ele>
        <time>2016-10-09T11:40:08Z</time>
      </trkpt>
      <trkpt lat="43.39784" lon="6.64096">
        <ele>193.7</ele>
        <time>2016-10-09T11:40:10Z</time>
      </trkpt>
      <trkpt lat="43.39781" lon="6.64094">
        <ele>194.6</ele>
        <time>2016-10-09T11:40:12Z</time>
      </trkpt>
      <trkpt lat="43.3978" lon="6.64092">
        <ele>195.4</ele>
        <time>2016-10-09T11:40:14Z</time>
      </trkpt>
      <trkpt lat="43.39778" lon="6.64089">
        <ele>196.2</ele>
        <time>2016-10-09T11:40:16Z</time>
      </trkpt>
      <trkpt lat="43.39776" lon="6.64086">
        <ele>196.9</ele>
        <time>2016-10-09T11:40:18Z</time>
      </trkpt>
      <trkpt lat="43.39774" lon="6.64084">
        <ele>197.6</ele>
        <time>2016-10-09T11:40:20Z</time>
      </trkpt>
      <trkpt lat="43.39773" lon="6.64081">
        <ele>198</ele>
        <time>2016-10-09T11:40:22Z</time>
      </trkpt>
      <trkpt lat="43.39771" lon="6.64078">
        <ele>198.3</ele>
        <time>2016-10-09T11:40:24Z</time>
      </trkpt>
      <trkpt lat="43.39769" lon="6.64076">
        <ele>198.6</ele>
        <time>2016-10-09T11:40:26Z</time>
      </trkpt>
      <trkpt lat="43.39768" lon="6.64073">
        <ele>199.8</ele>
        <time>2016-10-09T11:40:28Z</time>
      </trkpt>
      <trkpt lat="43.39765" lon="6.64068">
        <ele>201.4</ele>
        <time>2016-10-09T11:40:32Z</time>
      </trkpt>
      <trkpt lat="43.39764" lon="6.64066">
        <ele>202.1</ele>
        <time>2016-10-09T11:40:34Z</time>
      </trkpt>
      <trkpt lat="43.39763" lon="6.64064">
        <ele>202.2</ele>
        <time>2016-10-09T11:40:36Z</time>
      </trkpt>
      <trkpt lat="43.39761" lon="6.64062">
        <ele>202.3</ele>
        <time>2016-10-09T11:40:38Z</time>
      </trkpt>
      <trkpt lat="43.39758" lon="6.64061">
        <ele>202.5</ele>
        <time>2016-10-09T11:40:40Z</time>
      </trkpt>
      <trkpt lat="43.39755" lon="6.6406">
        <ele>202.8</ele>
        <time>2016-10-09T11:40:42Z</time>
      </trkpt>
      <trkpt lat="43.39752" lon="6.64059">
        <ele>203</ele>
        <time>2016-10-09T11:40:44Z</time>
      </trkpt>
      <trkpt lat="43.39749" lon="6.64058">
        <ele>203.3</ele>
        <time>2016-10-09T11:40:46Z</time>
      </trkpt>
      <trkpt lat="43.39747" lon="6.64057">
        <ele>203.6</ele>
        <time>2016-10-09T11:40:48Z</time>
      </trkpt>
      <trkpt lat="43.39743" lon="6.64056">
        <ele>203.8</ele>
        <time>2016-10-09T11:40:50Z</time>
      </trkpt>
      <trkpt lat="43.3974" lon="6.64055">
        <ele>204.1</ele>
        <time>2016-10-09T11:40:52Z</time>
      </trkpt>
      <trkpt lat="43.39736" lon="6.64055">
        <ele>204.4</ele>
        <time>2016-10-09T11:40:54Z</time>
      </trkpt>
      <trkpt lat="43.39733" lon="6.64055">
        <ele>204.6</ele>
        <time>2016-10-09T11:40:56Z</time>
      </trkpt>
      <trkpt lat="43.39731" lon="6.64056">
        <ele>204.7</ele>
        <time>2016-10-09T11:40:58Z</time>
      </trkpt>
      <trkpt lat="43.39727" lon="6.64057">
        <ele>204.9</ele>
        <time>2016-10-09T11:41:00Z</time>
      </trkpt>
      <trkpt lat="43.39724" lon="6.64058">
        <ele>205</ele>
        <time>2016-10-09T11:41:02Z</time>
      </trkpt>
      <trkpt lat="43.3972" lon="6.64058">
        <ele>205</ele>
        <time>2016-10-09T11:41:04Z</time>
      </trkpt>
      <trkpt lat="43.39714" lon="6.64058">
        <ele>205.1</ele>
        <time>2016-10-09T11:41:06Z</time>
      </trkpt>
      <trkpt lat="43.39706" lon="6.64057">
        <ele>205.1</ele>
        <time>2016-10-09T11:41:08Z</time>
      </trkpt>
      <trkpt lat="43.39698" lon="6.64055">
        <ele>205.2</ele>
        <time>2016-10-09T11:41:10Z</time>
      </trkpt>
      <trkpt lat="43.39689" lon="6.64051">
        <ele>205.2</ele>
        <time>2016-10-09T11:41:12Z</time>
      </trkpt>
      <trkpt lat="43.3968" lon="6.64045">
        <ele>205.2</ele>
        <time>2016-10-09T11:41:14Z</time>
      </trkpt>
      <trkpt lat="43.39671" lon="6.64038">
        <ele>205.2</ele>
        <time>2016-10-09T11:41:16Z</time>
      </trkpt>
      <trkpt lat="43.39663" lon="6.64033">
        <ele>205.2</ele>
        <time>2016-10-09T11:41:18Z</time>
      </trkpt>
      <trkpt lat="43.39656" lon="6.64029">
        <ele>205.2</ele>
        <time>2016-10-09T11:41:20Z</time>
      </trkpt>
      <trkpt lat="43.3965" lon="6.64028">
        <ele>205.2</ele>
        <time>2016-10-09T11:41:22Z</time>
      </trkpt>
      <trkpt lat="43.39646" lon="6.64027">
        <ele>205.3</ele>
        <time>2016-10-09T11:41:24Z</time>
      </trkpt>
      <trkpt lat="43.39641" lon="6.64027">
        <ele>205.3</ele>
        <time>2016-10-09T11:41:26Z</time>
      </trkpt>
      <trkpt lat="43.39637" lon="6.64026">
        <ele>205.3</ele>
        <time>2016-10-09T11:41:28Z</time>
      </trkpt>
      <trkpt lat="43.39632" lon="6.64025">
        <ele>205.4</ele>
        <time>2016-10-09T11:41:30Z</time>
      </trkpt>
      <trkpt lat="43.39629" lon="6.64024">
        <ele>205.5</ele>
        <time>2016-10-09T11:41:32Z</time>
      </trkpt>
      <trkpt lat="43.39626" lon="6.64022">
        <ele>205.7</ele>
        <time>2016-10-09T11:41:34Z</time>
      </trkpt>
      <trkpt lat="43.39623" lon="6.64019">
        <ele>205.9</ele>
        <time>2016-10-09T11:41:36Z</time>
      </trkpt>
      <trkpt lat="43.39619" lon="6.64016">
        <ele>206.1</ele>
        <time>2016-10-09T11:41:38Z</time>
      </trkpt>
      <trkpt lat="43.39617" lon="6.64013">
        <ele>206.3</ele>
        <time>2016-10-09T11:41:40Z</time>
      </trkpt>
      <trkpt lat="43.39614" lon="6.64009">
        <ele>206.3</ele>
        <time>2016-10-09T11:41:42Z</time>
      </trkpt>
      <trkpt lat="43.39611" lon="6.64004">
        <ele>206.3</ele>
        <time>2016-10-09T11:41:44Z</time>
      </trkpt>
      <trkpt lat="43.39608" lon="6.63998">
        <ele>206.4</ele>
        <time>2016-10-09T11:41:46Z</time>
      </trkpt>
      <trkpt lat="43.39606" lon="6.63991">
        <ele>206.4</ele>
        <time>2016-10-09T11:41:48Z</time>
      </trkpt>
      <trkpt lat="43.39603" lon="6.63983">
        <ele>206.4</ele>
        <time>2016-10-09T11:41:50Z</time>
      </trkpt>
      <trkpt lat="43.396" lon="6.63973">
        <ele>206.4</ele>
        <time>2016-10-09T11:41:52Z</time>
      </trkpt>
      <trkpt lat="43.39598" lon="6.63963">
        <ele>206.4</ele>
        <time>2016-10-09T11:41:54Z</time>
      </trkpt>
      <trkpt lat="43.39596" lon="6.63954">
        <ele>206.5</ele>
        <time>2016-10-09T11:41:56Z</time>
      </trkpt>
      <trkpt lat="43.39592" lon="6.63945">
        <ele>206.6</ele>
        <time>2016-10-09T11:41:58Z</time>
      </trkpt>
      <trkpt lat="43.39585" lon="6.63939">
        <ele>206.8</ele>
        <time>2016-10-09T11:42:00Z</time>
      </trkpt>
      <trkpt lat="43.39576" lon="6.63934">
        <ele>207.1</ele>
        <time>2016-10-09T11:42:02Z</time>
      </trkpt>
      <trkpt lat="43.39567" lon="6.6393">
        <ele>207.3</ele>
        <time>2016-10-09T11:42:04Z</time>
      </trkpt>
      <trkpt lat="43.39557" lon="6.6393">
        <ele>207.4</ele>
        <time>2016-10-09T11:42:06Z</time>
      </trkpt>
      <trkpt lat="43.3955" lon="6.63937">
        <ele>207.4</ele>
        <time>2016-10-09T11:42:08Z</time>
      </trkpt>
      <trkpt lat="43.39542" lon="6.63945">
        <ele>207.3</ele>
        <time>2016-10-09T11:42:10Z</time>
      </trkpt>
      <trkpt lat="43.39535" lon="6.63952">
        <ele>207.3</ele>
        <time>2016-10-09T11:42:12Z</time>
      </trkpt>
      <trkpt lat="43.39527" lon="6.63957">
        <ele>207.3</ele>
        <time>2016-10-09T11:42:14Z</time>
      </trkpt>
      <trkpt lat="43.3952" lon="6.63961">
        <ele>207.2</ele>
        <time>2016-10-09T11:42:16Z</time>
      </trkpt>
      <trkpt lat="43.39512" lon="6.63963">
        <ele>207.2</ele>
        <time>2016-10-09T11:42:18Z</time>
      </trkpt>
      <trkpt lat="43.39505" lon="6.63964">
        <ele>207.1</ele>
        <time>2016-10-09T11:42:20Z</time>
      </trkpt>
      <trkpt lat="43.39497" lon="6.63963">
        <ele>207.1</ele>
        <time>2016-10-09T11:42:22Z</time>
      </trkpt>
      <trkpt lat="43.39488" lon="6.63959">
        <ele>207</ele>
        <time>2016-10-09T11:42:24Z</time>
      </trkpt>
      <trkpt lat="43.3948" lon="6.63953">
        <ele>207</ele>
        <time>2016-10-09T11:42:26Z</time>
      </trkpt>
      <trkpt lat="43.39475" lon="6.63948">
        <ele>206.9</ele>
        <time>2016-10-09T11:42:28Z</time>
      </trkpt>
      <trkpt lat="43.3947" lon="6.63945">
        <ele>206.9</ele>
        <time>2016-10-09T11:42:30Z</time>
      </trkpt>
      <trkpt lat="43.39466" lon="6.63943">
        <ele>206.9</ele>
        <time>2016-10-09T11:42:32Z</time>
      </trkpt>
      <trkpt lat="43.39461" lon="6.63942">
        <ele>206.9</ele>
        <time>2016-10-09T11:42:34Z</time>
      </trkpt>
      <trkpt lat="43.39457" lon="6.63942">
        <ele>207</ele>
        <time>2016-10-09T11:42:36Z</time>
      </trkpt>
      <trkpt lat="43.39452" lon="6.63943">
        <ele>207</ele>
        <time>2016-10-09T11:42:38Z</time>
      </trkpt>
      <trkpt lat="43.39447" lon="6.63946">
        <ele>207.1</ele>
        <time>2016-10-09T11:42:40Z</time>
      </trkpt>
      <trkpt lat="43.39441" lon="6.63949">
        <ele>207.2</ele>
        <time>2016-10-09T11:42:42Z</time>
      </trkpt>
      <trkpt lat="43.39434" lon="6.6395">
        <ele>207.6</ele>
        <time>2016-10-09T11:42:44Z</time>
      </trkpt>
      <trkpt lat="43.39424" lon="6.63949">
        <ele>207.9</ele>
        <time>2016-10-09T11:42:46Z</time>
      </trkpt>
      <trkpt lat="43.39415" lon="6.63946">
        <ele>208</ele>
        <time>2016-10-09T11:42:48Z</time>
      </trkpt>
      <trkpt lat="43.39406" lon="6.63944">
        <ele>208</ele>
        <time>2016-10-09T11:42:50Z</time>
      </trkpt>
      <trkpt lat="43.39399" lon="6.63943">
        <ele>208.1</ele>
        <time>2016-10-09T11:42:52Z</time>
      </trkpt>
      <trkpt lat="43.39393" lon="6.63941">
        <ele>208.1</ele>
        <time>2016-10-09T11:42:54Z</time>
      </trkpt>
      <trkpt lat="43.39389" lon="6.6394">
        <ele>208.2</ele>
        <time>2016-10-09T11:42:56Z</time>
      </trkpt>
      <trkpt lat="43.39385" lon="6.63939">
        <ele>208.2</ele>
        <time>2016-10-09T11:42:58Z</time>
      </trkpt>
      <trkpt lat="43.39381" lon="6.63939">
        <ele>208.2</ele>
        <time>2016-10-09T11:43:00Z</time>
      </trkpt>
      <trkpt lat="43.39378" lon="6.63939">
        <ele>208.3</ele>
        <time>2016-10-09T11:43:02Z</time>
      </trkpt>
      <trkpt lat="43.39374" lon="6.63938">
        <ele>208.3</ele>
        <time>2016-10-09T11:43:04Z</time>
      </trkpt>
      <trkpt lat="43.3937" lon="6.63938">
        <ele>208.4</ele>
        <time>2016-10-09T11:43:06Z</time>
      </trkpt>
      <trkpt lat="43.39367" lon="6.63938">
        <ele>208.5</ele>
        <time>2016-10-09T11:43:08Z</time>
      </trkpt>
      <trkpt lat="43.39363" lon="6.63938">
        <ele>208.6</ele>
        <time>2016-10-09T11:43:10Z</time>
      </trkpt>
      <trkpt lat="43.3936" lon="6.63939">
        <ele>208.8</ele>
        <time>2016-10-09T11:43:12Z</time>
      </trkpt>
      <trkpt lat="43.39356" lon="6.6394">
        <ele>209.1</ele>
        <time>2016-10-09T11:43:14Z</time>
      </trkpt>
      <trkpt lat="43.39353" lon="6.6394">
        <ele>209.4</ele>
        <time>2016-10-09T11:43:16Z</time>
      </trkpt>
      <trkpt lat="43.39349" lon="6.63941">
        <ele>209.7</ele>
        <time>2016-10-09T11:43:18Z</time>
      </trkpt>
      <trkpt lat="43.39346" lon="6.63942">
        <ele>209.9</ele>
        <time>2016-10-09T11:43:20Z</time>
      </trkpt>
      <trkpt lat="43.39343" lon="6.63942">
        <ele>210</ele>
        <time>2016-10-09T11:43:22Z</time>
      </trkpt>
      <trkpt lat="43.3934" lon="6.63943">
        <ele>210.2</ele>
        <time>2016-10-09T11:43:24Z</time>
      </trkpt>
      <trkpt lat="43.39337" lon="6.63944">
        <ele>210.3</ele>
        <time>2016-10-09T11:43:26Z</time>
      </trkpt>
      <trkpt lat="43.39333" lon="6.63945">
        <ele>210.6</ele>
        <time>2016-10-09T11:43:28Z</time>
      </trkpt>
      <trkpt lat="43.3933" lon="6.63946">
        <ele>211</ele>
        <time>2016-10-09T11:43:30Z</time>
      </trkpt>
      <trkpt lat="43.39326" lon="6.63947">
        <ele>211.4</ele>
        <time>2016-10-09T11:43:32Z</time>
      </trkpt>
      <trkpt lat="43.39322" lon="6.63948">
        <ele>211.7</ele>
        <time>2016-10-09T11:43:34Z</time>
      </trkpt>
      <trkpt lat="43.39318" lon="6.6395">
        <ele>211.9</ele>
        <time>2016-10-09T11:43:36Z</time>
      </trkpt>
      <trkpt lat="43.39314" lon="6.63952">
        <ele>212.4</ele>
        <time>2016-10-09T11:43:38Z</time>
      </trkpt>
      <trkpt lat="43.39309" lon="6.63955">
        <ele>212.9</ele>
        <time>2016-10-09T11:43:40Z</time>
      </trkpt>
      <trkpt lat="43.39305" lon="6.63958">
        <ele>213.5</ele>
        <time>2016-10-09T11:43:42Z</time>
      </trkpt>
      <trkpt lat="43.393" lon="6.6396">
        <ele>214.1</ele>
        <time>2016-10-09T11:43:44Z</time>
      </trkpt>
      <trkpt lat="43.39296" lon="6.63963">
        <ele>214.6</ele>
        <time>2016-10-09T11:43:46Z</time>
      </trkpt>
      <trkpt lat="43.39291" lon="6.63966">
        <ele>215</ele>
        <time>2016-10-09T11:43:48Z</time>
      </trkpt>
      <trkpt lat="43.39287" lon="6.6397">
        <ele>214.7</ele>
        <time>2016-10-09T11:43:50Z</time>
      </trkpt>
      <trkpt lat="43.39285" lon="6.63974">
        <ele>214.4</ele>
        <time>2016-10-09T11:43:52Z</time>
      </trkpt>
      <trkpt lat="43.39283" lon="6.63979">
        <ele>214.1</ele>
        <time>2016-10-09T11:43:54Z</time>
      </trkpt>
      <trkpt lat="43.39283" lon="6.63984">
        <ele>213.8</ele>
        <time>2016-10-09T11:43:56Z</time>
      </trkpt>
      <trkpt lat="43.39282" lon="6.63989">
        <ele>213.3</ele>
        <time>2016-10-09T11:43:58Z</time>
      </trkpt>
      <trkpt lat="43.39281" lon="6.63994">
        <ele>212.9</ele>
        <time>2016-10-09T11:44:00Z</time>
      </trkpt>
      <trkpt lat="43.39279" lon="6.63998">
        <ele>212.4</ele>
        <time>2016-10-09T11:44:02Z</time>
      </trkpt>
      <trkpt lat="43.39277" lon="6.64002">
        <ele>211.8</ele>
        <time>2016-10-09T11:44:04Z</time>
      </trkpt>
      <trkpt lat="43.39274" lon="6.64005">
        <ele>211.3</ele>
        <time>2016-10-09T11:44:06Z</time>
      </trkpt>
      <trkpt lat="43.39272" lon="6.64008">
        <ele>210.8</ele>
        <time>2016-10-09T11:44:08Z</time>
      </trkpt>
      <trkpt lat="43.39268" lon="6.64009">
        <ele>210.2</ele>
        <time>2016-10-09T11:44:10Z</time>
      </trkpt>
      <trkpt lat="43.39265" lon="6.64009">
        <ele>209.8</ele>
        <time>2016-10-09T11:44:12Z</time>
      </trkpt>
      <trkpt lat="43.39261" lon="6.64009">
        <ele>209.4</ele>
        <time>2016-10-09T11:44:14Z</time>
      </trkpt>
      <trkpt lat="43.39258" lon="6.64008">
        <ele>209</ele>
        <time>2016-10-09T11:44:16Z</time>
      </trkpt>
      <trkpt lat="43.39255" lon="6.64007">
        <ele>208.6</ele>
        <time>2016-10-09T11:44:18Z</time>
      </trkpt>
      <trkpt lat="43.39252" lon="6.64005">
        <ele>208.2</ele>
        <time>2016-10-09T11:44:20Z</time>
      </trkpt>
      <trkpt lat="43.39249" lon="6.64004">
        <ele>207.7</ele>
        <time>2016-10-09T11:44:22Z</time>
      </trkpt>
      <trkpt lat="43.39245" lon="6.64001">
        <ele>207.2</ele>
        <time>2016-10-09T11:44:24Z</time>
      </trkpt>
      <trkpt lat="43.39242" lon="6.64">
        <ele>207</ele>
        <time>2016-10-09T11:44:26Z</time>
      </trkpt>
      <trkpt lat="43.39238" lon="6.63998">
        <ele>207.1</ele>
        <time>2016-10-09T11:44:28Z</time>
      </trkpt>
      <trkpt lat="43.39233" lon="6.63996">
        <ele>207.2</ele>
        <time>2016-10-09T11:44:30Z</time>
      </trkpt>
      <trkpt lat="43.39229" lon="6.63994">
        <ele>207.3</ele>
        <time>2016-10-09T11:44:32Z</time>
      </trkpt>
      <trkpt lat="43.39225" lon="6.63992">
        <ele>207.3</ele>
        <time>2016-10-09T11:44:34Z</time>
      </trkpt>
      <trkpt lat="43.3922" lon="6.63989">
        <ele>207.5</ele>
        <time>2016-10-09T11:44:36Z</time>
      </trkpt>
      <trkpt lat="43.39217" lon="6.63987">
        <ele>207.6</ele>
        <time>2016-10-09T11:44:38Z</time>
      </trkpt>
      <trkpt lat="43.39212" lon="6.63984">
        <ele>207.8</ele>
        <time>2016-10-09T11:44:40Z</time>
      </trkpt>
      <trkpt lat="43.39208" lon="6.63981">
        <ele>207.9</ele>
        <time>2016-10-09T11:44:42Z</time>
      </trkpt>
      <trkpt lat="43.39204" lon="6.63977">
        <ele>207.9</ele>
        <time>2016-10-09T11:44:44Z</time>
      </trkpt>
      <trkpt lat="43.39202" lon="6.63972">
        <ele>208</ele>
        <time>2016-10-09T11:44:46Z</time>
      </trkpt>
      <trkpt lat="43.39201" lon="6.63966">
        <ele>208</ele>
        <time>2016-10-09T11:44:48Z</time>
      </trkpt>
      <trkpt lat="43.392" lon="6.63959">
        <ele>208</ele>
        <time>2016-10-09T11:44:50Z</time>
      </trkpt>
      <trkpt lat="43.39199" lon="6.63954">
        <ele>208</ele>
        <time>2016-10-09T11:44:52Z</time>
      </trkpt>
      <trkpt lat="43.39201" lon="6.63947">
        <ele>208</ele>
        <time>2016-10-09T11:45:09Z</time>
      </trkpt>
      <trkpt lat="43.39203" lon="6.63942">
        <ele>208</ele>
        <time>2016-10-09T11:45:11Z</time>
      </trkpt>
      <trkpt lat="43.39205" lon="6.63935">
        <ele>208</ele>
        <time>2016-10-09T11:45:13Z</time>
      </trkpt>
      <trkpt lat="43.39208" lon="6.63927">
        <ele>208</ele>
        <time>2016-10-09T11:45:15Z</time>
      </trkpt>
      <trkpt lat="43.39212" lon="6.63917">
        <ele>207.9</ele>
        <time>2016-10-09T11:45:17Z</time>
      </trkpt>
      <trkpt lat="43.39218" lon="6.63907">
        <ele>207.6</ele>
        <time>2016-10-09T11:45:19Z</time>
      </trkpt>
      <trkpt lat="43.39224" lon="6.63894">
        <ele>206.7</ele>
        <time>2016-10-09T11:45:21Z</time>
      </trkpt>
      <trkpt lat="43.39225" lon="6.63877">
        <ele>204.6</ele>
        <time>2016-10-09T11:45:23Z</time>
      </trkpt>
      <trkpt lat="43.39221" lon="6.6386">
        <ele>200.1</ele>
        <time>2016-10-09T11:45:25Z</time>
      </trkpt>
      <trkpt lat="43.39217" lon="6.63843">
        <ele>199.2</ele>
        <time>2016-10-09T11:45:27Z</time>
      </trkpt>
      <trkpt lat="43.39212" lon="6.63824">
        <ele>198.1</ele>
        <time>2016-10-09T11:45:29Z</time>
      </trkpt>
      <trkpt lat="43.39204" lon="6.63805">
        <ele>196.9</ele>
        <time>2016-10-09T11:45:31Z</time>
      </trkpt>
      <trkpt lat="43.39194" lon="6.63785">
        <ele>195.7</ele>
        <time>2016-10-09T11:45:33Z</time>
      </trkpt>
      <trkpt lat="43.39186" lon="6.63765">
        <ele>194.5</ele>
        <time>2016-10-09T11:45:35Z</time>
      </trkpt>
      <trkpt lat="43.39177" lon="6.63745">
        <ele>193.2</ele>
        <time>2016-10-09T11:45:37Z</time>
      </trkpt>
      <trkpt lat="43.39167" lon="6.63726">
        <ele>192</ele>
        <time>2016-10-09T11:45:39Z</time>
      </trkpt>
      <trkpt lat="43.3916" lon="6.6371">
        <ele>191</ele>
        <time>2016-10-09T11:45:41Z</time>
      </trkpt>
      <trkpt lat="43.39157" lon="6.63694">
        <ele>190.1</ele>
        <time>2016-10-09T11:45:43Z</time>
      </trkpt>
      <trkpt lat="43.39154" lon="6.63685">
        <ele>189.5</ele>
        <time>2016-10-09T11:45:45Z</time>
      </trkpt>
      <trkpt lat="43.39148" lon="6.63685">
        <ele>189.1</ele>
        <time>2016-10-09T11:45:47Z</time>
      </trkpt>
      <trkpt lat="43.39143" lon="6.63692">
        <ele>188.6</ele>
        <time>2016-10-09T11:45:49Z</time>
      </trkpt>
      <trkpt lat="43.39142" lon="6.63702">
        <ele>188.1</ele>
        <time>2016-10-09T11:45:51Z</time>
      </trkpt>
      <trkpt lat="43.39142" lon="6.63713">
        <ele>187.5</ele>
        <time>2016-10-09T11:45:53Z</time>
      </trkpt>
      <trkpt lat="43.39146" lon="6.63726">
        <ele>186.7</ele>
        <time>2016-10-09T11:45:55Z</time>
      </trkpt>
      <trkpt lat="43.39152" lon="6.63739">
        <ele>185.9</ele>
        <time>2016-10-09T11:45:57Z</time>
      </trkpt>
      <trkpt lat="43.39156" lon="6.63753">
        <ele>185.1</ele>
        <time>2016-10-09T11:45:59Z</time>
      </trkpt>
      <trkpt lat="43.39159" lon="6.63768">
        <ele>184.3</ele>
        <time>2016-10-09T11:46:01Z</time>
      </trkpt>
      <trkpt lat="43.3916" lon="6.63785">
        <ele>183.4</ele>
        <time>2016-10-09T11:46:03Z</time>
      </trkpt>
      <trkpt lat="43.39158" lon="6.63802">
        <ele>182.5</ele>
        <time>2016-10-09T11:46:05Z</time>
      </trkpt>
      <trkpt lat="43.39149" lon="6.63811">
        <ele>181.7</ele>
        <time>2016-10-09T11:46:07Z</time>
      </trkpt>
      <trkpt lat="43.39138" lon="6.63813">
        <ele>180.9</ele>
        <time>2016-10-09T11:46:09Z</time>
      </trkpt>
      <trkpt lat="43.39127" lon="6.63813">
        <ele>180.1</ele>
        <time>2016-10-09T11:46:11Z</time>
      </trkpt>
      <trkpt lat="43.39116" lon="6.63816">
        <ele>179.3</ele>
        <time>2016-10-09T11:46:13Z</time>
      </trkpt>
      <trkpt lat="43.39108" lon="6.63826">
        <ele>178.5</ele>
        <time>2016-10-09T11:46:15Z</time>
      </trkpt>
      <trkpt lat="43.39098" lon="6.63837">
        <ele>177.6</ele>
        <time>2016-10-09T11:46:17Z</time>
      </trkpt>
      <trkpt lat="43.39086" lon="6.63842">
        <ele>176.6</ele>
        <time>2016-10-09T11:46:19Z</time>
      </trkpt>
      <trkpt lat="43.39075" lon="6.63839">
        <ele>175.8</ele>
        <time>2016-10-09T11:46:21Z</time>
      </trkpt>
      <trkpt lat="43.39064" lon="6.63833">
        <ele>174.9</ele>
        <time>2016-10-09T11:46:23Z</time>
      </trkpt>
      <trkpt lat="43.39053" lon="6.63821">
        <ele>173.9</ele>
        <time>2016-10-09T11:46:25Z</time>
      </trkpt>
      <trkpt lat="43.39042" lon="6.63808">
        <ele>172.8</ele>
        <time>2016-10-09T11:46:27Z</time>
      </trkpt>
      <trkpt lat="43.39028" lon="6.63794">
        <ele>171.6</ele>
        <time>2016-10-09T11:46:29Z</time>
      </trkpt>
      <trkpt lat="43.39016" lon="6.63779">
        <ele>170.4</ele>
        <time>2016-10-09T11:46:31Z</time>
      </trkpt>
      <trkpt lat="43.39005" lon="6.63761">
        <ele>169.2</ele>
        <time>2016-10-09T11:46:33Z</time>
      </trkpt>
      <trkpt lat="43.38995" lon="6.63749">
        <ele>168.2</ele>
        <time>2016-10-09T11:46:35Z</time>
      </trkpt>
      <trkpt lat="43.38982" lon="6.6374">
        <ele>167.1</ele>
        <time>2016-10-09T11:46:37Z</time>
      </trkpt>
      <trkpt lat="43.38968" lon="6.6373">
        <ele>166</ele>
        <time>2016-10-09T11:46:39Z</time>
      </trkpt>
      <trkpt lat="43.38956" lon="6.63718">
        <ele>164.9</ele>
        <time>2016-10-09T11:46:41Z</time>
      </trkpt>
      <trkpt lat="43.38947" lon="6.63701">
        <ele>163.8</ele>
        <time>2016-10-09T11:46:43Z</time>
      </trkpt>
      <trkpt lat="43.38941" lon="6.63682">
        <ele>162.7</ele>
        <time>2016-10-09T11:46:45Z</time>
      </trkpt>
      <trkpt lat="43.38937" lon="6.63663">
        <ele>161.6</ele>
        <time>2016-10-09T11:46:47Z</time>
      </trkpt>
      <trkpt lat="43.38932" lon="6.63643">
        <ele>160.5</ele>
        <time>2016-10-09T11:46:49Z</time>
      </trkpt>
      <trkpt lat="43.38925" lon="6.63621">
        <ele>159.2</ele>
        <time>2016-10-09T11:46:51Z</time>
      </trkpt>
      <trkpt lat="43.38916" lon="6.636">
        <ele>157.9</ele>
        <time>2016-10-09T11:46:53Z</time>
      </trkpt>
      <trkpt lat="43.38907" lon="6.6358">
        <ele>156.7</ele>
        <time>2016-10-09T11:46:55Z</time>
      </trkpt>
      <trkpt lat="43.38896" lon="6.6356">
        <ele>155.4</ele>
        <time>2016-10-09T11:46:57Z</time>
      </trkpt>
      <trkpt lat="43.38884" lon="6.63543">
        <ele>154.1</ele>
        <time>2016-10-09T11:46:59Z</time>
      </trkpt>
      <trkpt lat="43.38872" lon="6.63526">
        <ele>152.8</ele>
        <time>2016-10-09T11:47:01Z</time>
      </trkpt>
      <trkpt lat="43.3886" lon="6.63516">
        <ele>151.8</ele>
        <time>2016-10-09T11:47:03Z</time>
      </trkpt>
      <trkpt lat="43.38844" lon="6.63511">
        <ele>150.6</ele>
        <time>2016-10-09T11:47:05Z</time>
      </trkpt>
      <trkpt lat="43.38826" lon="6.63507">
        <ele>149.3</ele>
        <time>2016-10-09T11:47:07Z</time>
      </trkpt>
      <trkpt lat="43.38809" lon="6.63507">
        <ele>148</ele>
        <time>2016-10-09T11:47:09Z</time>
      </trkpt>
      <trkpt lat="43.38796" lon="6.63506">
        <ele>143.7</ele>
        <time>2016-10-09T11:47:11Z</time>
      </trkpt>
      <trkpt lat="43.38788" lon="6.63498">
        <ele>142.6</ele>
        <time>2016-10-09T11:47:13Z</time>
      </trkpt>
      <trkpt lat="43.38779" lon="6.63489">
        <ele>141.9</ele>
        <time>2016-10-09T11:47:15Z</time>
      </trkpt>
      <trkpt lat="43.38766" lon="6.63484">
        <ele>141.4</ele>
        <time>2016-10-09T11:47:17Z</time>
      </trkpt>
      <trkpt lat="43.38752" lon="6.63486">
        <ele>140.7</ele>
        <time>2016-10-09T11:47:19Z</time>
      </trkpt>
      <trkpt lat="43.38741" lon="6.63494">
        <ele>140</ele>
        <time>2016-10-09T11:47:21Z</time>
      </trkpt>
      <trkpt lat="43.38732" lon="6.63503">
        <ele>138.9</ele>
        <time>2016-10-09T11:47:23Z</time>
      </trkpt>
      <trkpt lat="43.38724" lon="6.63508">
        <ele>136.8</ele>
        <time>2016-10-09T11:47:25Z</time>
      </trkpt>
      <trkpt lat="43.38716" lon="6.63505">
        <ele>133.9</ele>
        <time>2016-10-09T11:47:27Z</time>
      </trkpt>
      <trkpt lat="43.38704" lon="6.63496">
        <ele>129.5</ele>
        <time>2016-10-09T11:47:29Z</time>
      </trkpt>
      <trkpt lat="43.3869" lon="6.63489">
        <ele>125.8</ele>
        <time>2016-10-09T11:47:31Z</time>
      </trkpt>
      <trkpt lat="43.38677" lon="6.63484">
        <ele>123.2</ele>
        <time>2016-10-09T11:47:33Z</time>
      </trkpt>
      <trkpt lat="43.38667" lon="6.63472">
        <ele>120.8</ele>
        <time>2016-10-09T11:47:35Z</time>
      </trkpt>
      <trkpt lat="43.38659" lon="6.63456">
        <ele>117.8</ele>
        <time>2016-10-09T11:47:37Z</time>
      </trkpt>
      <trkpt lat="43.38653" lon="6.63438">
        <ele>114.7</ele>
        <time>2016-10-09T11:47:39Z</time>
      </trkpt>
      <trkpt lat="43.38648" lon="6.63419">
        <ele>111.4</ele>
        <time>2016-10-09T11:47:41Z</time>
      </trkpt>
      <trkpt lat="43.3864" lon="6.63403">
        <ele>108.5</ele>
        <time>2016-10-09T11:47:43Z</time>
      </trkpt>
      <trkpt lat="43.38631" lon="6.63397">
        <ele>110.4</ele>
        <time>2016-10-09T11:47:45Z</time>
      </trkpt>
      <trkpt lat="43.38625" lon="6.63397">
        <ele>111.5</ele>
        <time>2016-10-09T11:47:47Z</time>
      </trkpt>
      <trkpt lat="43.3862" lon="6.63401">
        <ele>112.2</ele>
        <time>2016-10-09T11:47:49Z</time>
      </trkpt>
      <trkpt lat="43.38615" lon="6.63405">
        <ele>112.8</ele>
        <time>2016-10-09T11:47:51Z</time>
      </trkpt>
      <trkpt lat="43.38608" lon="6.63407">
        <ele>113.3</ele>
        <time>2016-10-09T11:47:53Z</time>
      </trkpt>
      <trkpt lat="43.38601" lon="6.63404">
        <ele>113.9</ele>
        <time>2016-10-09T11:47:55Z</time>
      </trkpt>
      <trkpt lat="43.38593" lon="6.63401">
        <ele>114.6</ele>
        <time>2016-10-09T11:47:57Z</time>
      </trkpt>
      <trkpt lat="43.38586" lon="6.63401">
        <ele>115.3</ele>
        <time>2016-10-09T11:47:59Z</time>
      </trkpt>
      <trkpt lat="43.38579" lon="6.634">
        <ele>115.8</ele>
        <time>2016-10-09T11:48:01Z</time>
      </trkpt>
      <trkpt lat="43.38572" lon="6.63399">
        <ele>116.3</ele>
        <time>2016-10-09T11:48:03Z</time>
      </trkpt>
      <trkpt lat="43.38566" lon="6.63396">
        <ele>116.9</ele>
        <time>2016-10-09T11:48:05Z</time>
      </trkpt>
      <trkpt lat="43.38561" lon="6.63391">
        <ele>117.4</ele>
        <time>2016-10-09T11:48:07Z</time>
      </trkpt>
      <trkpt lat="43.38554" lon="6.63388">
        <ele>117.9</ele>
        <time>2016-10-09T11:48:09Z</time>
      </trkpt>
      <trkpt lat="43.38545" lon="6.63392">
        <ele>116.7</ele>
        <time>2016-10-09T11:48:11Z</time>
      </trkpt>
      <trkpt lat="43.38537" lon="6.634">
        <ele>115.6</ele>
        <time>2016-10-09T11:48:13Z</time>
      </trkpt>
      <trkpt lat="43.3853" lon="6.63408">
        <ele>114.6</ele>
        <time>2016-10-09T11:48:15Z</time>
      </trkpt>
      <trkpt lat="43.38521" lon="6.63415">
        <ele>113.7</ele>
        <time>2016-10-09T11:48:17Z</time>
      </trkpt>
      <trkpt lat="43.38514" lon="6.63421">
        <ele>113</ele>
        <time>2016-10-09T11:48:19Z</time>
      </trkpt>
      <trkpt lat="43.38506" lon="6.63428">
        <ele>112.4</ele>
        <time>2016-10-09T11:48:21Z</time>
      </trkpt>
      <trkpt lat="43.38499" lon="6.63436">
        <ele>112</ele>
        <time>2016-10-09T11:48:23Z</time>
      </trkpt>
      <trkpt lat="43.38491" lon="6.63446">
        <ele>111.6</ele>
        <time>2016-10-09T11:48:25Z</time>
      </trkpt>
      <trkpt lat="43.38484" lon="6.63457">
        <ele>111.1</ele>
        <time>2016-10-09T11:48:27Z</time>
      </trkpt>
      <trkpt lat="43.38476" lon="6.63468">
        <ele>110.4</ele>
        <time>2016-10-09T11:48:29Z</time>
      </trkpt>
      <trkpt lat="43.38467" lon="6.63477">
        <ele>109.6</ele>
        <time>2016-10-09T11:48:31Z</time>
      </trkpt>
      <trkpt lat="43.38457" lon="6.63486">
        <ele>108.9</ele>
        <time>2016-10-09T11:48:33Z</time>
      </trkpt>
      <trkpt lat="43.38447" lon="6.63496">
        <ele>108.6</ele>
        <time>2016-10-09T11:48:35Z</time>
      </trkpt>
      <trkpt lat="43.38437" lon="6.63508">
        <ele>108.2</ele>
        <time>2016-10-09T11:48:37Z</time>
      </trkpt>
      <trkpt lat="43.38429" lon="6.63522">
        <ele>107.5</ele>
        <time>2016-10-09T11:48:39Z</time>
      </trkpt>
      <trkpt lat="43.38424" lon="6.63537">
        <ele>106.7</ele>
        <time>2016-10-09T11:48:41Z</time>
      </trkpt>
      <trkpt lat="43.38422" lon="6.63552">
        <ele>105.9</ele>
        <time>2016-10-09T11:48:43Z</time>
      </trkpt>
      <trkpt lat="43.38416" lon="6.63566">
        <ele>105.3</ele>
        <time>2016-10-09T11:48:45Z</time>
      </trkpt>
      <trkpt lat="43.38409" lon="6.63577">
        <ele>104.5</ele>
        <time>2016-10-09T11:48:47Z</time>
      </trkpt>
      <trkpt lat="43.38401" lon="6.63588">
        <ele>103.7</ele>
        <time>2016-10-09T11:48:49Z</time>
      </trkpt>
      <trkpt lat="43.38394" lon="6.63597">
        <ele>103</ele>
        <time>2016-10-09T11:48:51Z</time>
      </trkpt>
      <trkpt lat="43.38389" lon="6.63605">
        <ele>102.5</ele>
        <time>2016-10-09T11:48:53Z</time>
      </trkpt>
      <trkpt lat="43.38384" lon="6.63613">
        <ele>102.2</ele>
        <time>2016-10-09T11:48:55Z</time>
      </trkpt>
      <trkpt lat="43.38379" lon="6.6362">
        <ele>101.9</ele>
        <time>2016-10-09T11:48:57Z</time>
      </trkpt>
      <trkpt lat="43.38374" lon="6.63627">
        <ele>101.4</ele>
        <time>2016-10-09T11:48:59Z</time>
      </trkpt>
      <trkpt lat="43.38368" lon="6.63634">
        <ele>100.7</ele>
        <time>2016-10-09T11:49:01Z</time>
      </trkpt>
      <trkpt lat="43.38363" lon="6.63639">
        <ele>100</ele>
        <time>2016-10-09T11:49:03Z</time>
      </trkpt>
      <trkpt lat="43.38358" lon="6.63643">
        <ele>99.3</ele>
        <time>2016-10-09T11:49:05Z</time>
      </trkpt>
      <trkpt lat="43.38353" lon="6.63645">
        <ele>99</ele>
        <time>2016-10-09T11:49:07Z</time>
      </trkpt>
      <trkpt lat="43.38349" lon="6.63646">
        <ele>98.9</ele>
        <time>2016-10-09T11:49:09Z</time>
      </trkpt>
      <trkpt lat="43.38345" lon="6.63648">
        <ele>98.7</ele>
        <time>2016-10-09T11:49:11Z</time>
      </trkpt>
      <trkpt lat="43.38342" lon="6.6365">
        <ele>98.4</ele>
        <time>2016-10-09T11:49:13Z</time>
      </trkpt>
      <trkpt lat="43.38338" lon="6.63653">
        <ele>98.2</ele>
        <time>2016-10-09T11:49:15Z</time>
      </trkpt>
      <trkpt lat="43.38335" lon="6.63657">
        <ele>97.9</ele>
        <time>2016-10-09T11:49:17Z</time>
      </trkpt>
      <trkpt lat="43.38331" lon="6.6366">
        <ele>97.6</ele>
        <time>2016-10-09T11:49:19Z</time>
      </trkpt>
      <trkpt lat="43.38328" lon="6.63664">
        <ele>97.4</ele>
        <time>2016-10-09T11:49:21Z</time>
      </trkpt>
      <trkpt lat="43.38325" lon="6.63667">
        <ele>97.2</ele>
        <time>2016-10-09T11:49:23Z</time>
      </trkpt>
      <trkpt lat="43.38322" lon="6.63671">
        <ele>97.1</ele>
        <time>2016-10-09T11:49:25Z</time>
      </trkpt>
      <trkpt lat="43.38319" lon="6.63675">
        <ele>96.9</ele>
        <time>2016-10-09T11:49:27Z</time>
      </trkpt>
      <trkpt lat="43.38315" lon="6.63679">
        <ele>96.8</ele>
        <time>2016-10-09T11:49:29Z</time>
      </trkpt>
      <trkpt lat="43.38311" lon="6.63683">
        <ele>96.6</ele>
        <time>2016-10-09T11:49:31Z</time>
      </trkpt>
      <trkpt lat="43.38308" lon="6.63687">
        <ele>96.4</ele>
        <time>2016-10-09T11:49:33Z</time>
      </trkpt>
      <trkpt lat="43.38304" lon="6.63691">
        <ele>96.2</ele>
        <time>2016-10-09T11:49:35Z</time>
      </trkpt>
      <trkpt lat="43.383" lon="6.63694">
        <ele>96.2</ele>
        <time>2016-10-09T11:49:37Z</time>
      </trkpt>
      <trkpt lat="43.38297" lon="6.63698">
        <ele>96.1</ele>
        <time>2016-10-09T11:49:39Z</time>
      </trkpt>
      <trkpt lat="43.38294" lon="6.63702">
        <ele>96</ele>
        <time>2016-10-09T11:49:41Z</time>
      </trkpt>
      <trkpt lat="43.38291" lon="6.63705">
        <ele>95.8</ele>
        <time>2016-10-09T11:49:43Z</time>
      </trkpt>
      <trkpt lat="43.38288" lon="6.63708">
        <ele>95.6</ele>
        <time>2016-10-09T11:49:45Z</time>
      </trkpt>
      <trkpt lat="43.38284" lon="6.6371">
        <ele>95.5</ele>
        <time>2016-10-09T11:49:47Z</time>
      </trkpt>
      <trkpt lat="43.38281" lon="6.63712">
        <ele>95.4</ele>
        <time>2016-10-09T11:49:49Z</time>
      </trkpt>
      <trkpt lat="43.38277" lon="6.63714">
        <ele>95.3</ele>
        <time>2016-10-09T11:49:51Z</time>
      </trkpt>
      <trkpt lat="43.38273" lon="6.63716">
        <ele>95.1</ele>
        <time>2016-10-09T11:49:53Z</time>
      </trkpt>
      <trkpt lat="43.38269" lon="6.63718">
        <ele>95</ele>
        <time>2016-10-09T11:49:55Z</time>
      </trkpt>
      <trkpt lat="43.38263" lon="6.63719">
        <ele>94.9</ele>
        <time>2016-10-09T11:49:57Z</time>
      </trkpt>
      <trkpt lat="43.38256" lon="6.63718">
        <ele>94.8</ele>
        <time>2016-10-09T11:49:59Z</time>
      </trkpt>
      <trkpt lat="43.38248" lon="6.63715">
        <ele>94.5</ele>
        <time>2016-10-09T11:50:01Z</time>
      </trkpt>
      <trkpt lat="43.38239" lon="6.63712">
        <ele>94.2</ele>
        <time>2016-10-09T11:50:03Z</time>
      </trkpt>
      <trkpt lat="43.38231" lon="6.63707">
        <ele>93.9</ele>
        <time>2016-10-09T11:50:05Z</time>
      </trkpt>
      <trkpt lat="43.38223" lon="6.63702">
        <ele>93.5</ele>
        <time>2016-10-09T11:50:07Z</time>
      </trkpt>
      <trkpt lat="43.38215" lon="6.63697">
        <ele>93.1</ele>
        <time>2016-10-09T11:50:09Z</time>
      </trkpt>
      <trkpt lat="43.38208" lon="6.63691">
        <ele>93.3</ele>
        <time>2016-10-09T11:50:11Z</time>
      </trkpt>
      <trkpt lat="43.38202" lon="6.63686">
        <ele>93.8</ele>
        <time>2016-10-09T11:50:13Z</time>
      </trkpt>
      <trkpt lat="43.38195" lon="6.63681">
        <ele>94.3</ele>
        <time>2016-10-09T11:50:15Z</time>
      </trkpt>
      <trkpt lat="43.38187" lon="6.63673">
        <ele>95</ele>
        <time>2016-10-09T11:50:17Z</time>
      </trkpt>
      <trkpt lat="43.3818" lon="6.63663">
        <ele>96.2</ele>
        <time>2016-10-09T11:50:19Z</time>
      </trkpt>
      <trkpt lat="43.38173" lon="6.63652">
        <ele>97</ele>
        <time>2016-10-09T11:50:21Z</time>
      </trkpt>
      <trkpt lat="43.38168" lon="6.63641">
        <ele>97.7</ele>
        <time>2016-10-09T11:50:23Z</time>
      </trkpt>
      <trkpt lat="43.38165" lon="6.63629">
        <ele>98.8</ele>
        <time>2016-10-09T11:50:25Z</time>
      </trkpt>
      <trkpt lat="43.38162" lon="6.63617">
        <ele>99.5</ele>
        <time>2016-10-09T11:50:27Z</time>
      </trkpt>
      <trkpt lat="43.38157" lon="6.63608">
        <ele>100</ele>
        <time>2016-10-09T11:50:29Z</time>
      </trkpt>
      <trkpt lat="43.38152" lon="6.63605">
        <ele>100.4</ele>
        <time>2016-10-09T11:50:31Z</time>
      </trkpt>
      <trkpt lat="43.38146" lon="6.63603">
        <ele>100.8</ele>
        <time>2016-10-09T11:50:33Z</time>
      </trkpt>
      <trkpt lat="43.38143" lon="6.63604">
        <ele>101</ele>
        <time>2016-10-09T11:50:35Z</time>
      </trkpt>
      <trkpt lat="43.38141" lon="6.63605">
        <ele>101.1</ele>
        <time>2016-10-09T11:50:37Z</time>
      </trkpt>
      <trkpt lat="43.38141" lon="6.63609">
        <ele>101.2</ele>
        <time>2016-10-09T11:50:39Z</time>
      </trkpt>
      <trkpt lat="43.3814" lon="6.63615">
        <ele>101.3</ele>
        <time>2016-10-09T11:50:41Z</time>
      </trkpt>
      <trkpt lat="43.38139" lon="6.63623">
        <ele>101.4</ele>
        <time>2016-10-09T11:50:43Z</time>
      </trkpt>
      <trkpt lat="43.38138" lon="6.63631">
        <ele>101.5</ele>
        <time>2016-10-09T11:50:45Z</time>
      </trkpt>
      <trkpt lat="43.38138" lon="6.63639">
        <ele>101.6</ele>
        <time>2016-10-09T11:50:47Z</time>
      </trkpt>
      <trkpt lat="43.38138" lon="6.63646">
        <ele>101.7</ele>
        <time>2016-10-09T11:50:49Z</time>
      </trkpt>
      <trkpt lat="43.38138" lon="6.63652">
        <ele>101.8</ele>
        <time>2016-10-09T11:50:51Z</time>
      </trkpt>
      <trkpt lat="43.38138" lon="6.63657">
        <ele>101.8</ele>
        <time>2016-10-09T11:50:53Z</time>
      </trkpt>
      <trkpt lat="43.38137" lon="6.6366">
        <ele>101.9</ele>
        <time>2016-10-09T11:50:55Z</time>
      </trkpt>
      <trkpt lat="43.38137" lon="6.63663">
        <ele>101.9</ele>
        <time>2016-10-09T11:50:57Z</time>
      </trkpt>
      <trkpt lat="43.38137" lon="6.63665">
        <ele>101.9</ele>
        <time>2016-10-09T11:50:59Z</time>
      </trkpt>
      <trkpt lat="43.38137" lon="6.6367">
        <ele>101.9</ele>
        <time>2016-10-09T11:51:09Z</time>
      </trkpt>
      <trkpt lat="43.38137" lon="6.63673">
        <ele>102</ele>
        <time>2016-10-09T11:51:11Z</time>
      </trkpt>
      <trkpt lat="43.38138" lon="6.63676">
        <ele>102</ele>
        <time>2016-10-09T11:51:13Z</time>
      </trkpt>
      <trkpt lat="43.38138" lon="6.63678">
        <ele>102</ele>
        <time>2016-10-09T11:51:15Z</time>
      </trkpt>
      <trkpt lat="43.38139" lon="6.6368">
        <ele>102.1</ele>
        <time>2016-10-09T11:51:17Z</time>
      </trkpt>
      <trkpt lat="43.38139" lon="6.63683">
        <ele>102.1</ele>
        <time>2016-10-09T11:51:19Z</time>
      </trkpt>
      <trkpt lat="43.3814" lon="6.63686">
        <ele>102.1</ele>
        <time>2016-10-09T11:51:21Z</time>
      </trkpt>
      <trkpt lat="43.38141" lon="6.63689">
        <ele>102.2</ele>
        <time>2016-10-09T11:51:23Z</time>
      </trkpt>
      <trkpt lat="43.38141" lon="6.63692">
        <ele>102.2</ele>
        <time>2016-10-09T11:51:25Z</time>
      </trkpt>
      <trkpt lat="43.38142" lon="6.63695">
        <ele>102.3</ele>
        <time>2016-10-09T11:51:27Z</time>
      </trkpt>
      <trkpt lat="43.38142" lon="6.63697">
        <ele>102.3</ele>
        <time>2016-10-09T11:51:29Z</time>
      </trkpt>
      <trkpt lat="43.38142" lon="6.637">
        <ele>102.3</ele>
        <time>2016-10-09T11:51:31Z</time>
      </trkpt>
      <trkpt lat="43.38142" lon="6.63702">
        <ele>102.4</ele>
        <time>2016-10-09T11:51:33Z</time>
      </trkpt>
      <trkpt lat="43.38143" lon="6.63704">
        <ele>102.4</ele>
        <time>2016-10-09T11:51:35Z</time>
      </trkpt>
      <trkpt lat="43.38144" lon="6.63706">
        <ele>102.5</ele>
        <time>2016-10-09T11:51:37Z</time>
      </trkpt>
      <trkpt lat="43.38144" lon="6.63708">
        <ele>102.6</ele>
        <time>2016-10-09T11:51:39Z</time>
      </trkpt>
      <trkpt lat="43.38145" lon="6.63711">
        <ele>102.6</ele>
        <time>2016-10-09T11:51:41Z</time>
      </trkpt>
      <trkpt lat="43.38146" lon="6.63714">
        <ele>102.7</ele>
        <time>2016-10-09T11:51:43Z</time>
      </trkpt>
      <trkpt lat="43.38147" lon="6.63716">
        <ele>102.8</ele>
        <time>2016-10-09T11:51:45Z</time>
      </trkpt>
      <trkpt lat="43.38148" lon="6.63719">
        <ele>102.8</ele>
        <time>2016-10-09T11:51:47Z</time>
      </trkpt>
      <trkpt lat="43.38149" lon="6.63722">
        <ele>102.9</ele>
        <time>2016-10-09T11:51:49Z</time>
      </trkpt>
      <trkpt lat="43.38149" lon="6.63724">
        <ele>102.9</ele>
        <time>2016-10-09T11:51:53Z</time>
      </trkpt>
      <trkpt lat="43.3815" lon="6.63726">
        <ele>103</ele>
        <time>2016-10-09T11:51:55Z</time>
      </trkpt>
      <trkpt lat="43.38151" lon="6.63729">
        <ele>103</ele>
        <time>2016-10-09T11:51:57Z</time>
      </trkpt>
      <trkpt lat="43.38152" lon="6.63732">
        <ele>103.1</ele>
        <time>2016-10-09T11:51:59Z</time>
      </trkpt>
      <trkpt lat="43.38154" lon="6.63736">
        <ele>103.2</ele>
        <time>2016-10-09T11:52:01Z</time>
      </trkpt>
      <trkpt lat="43.38155" lon="6.63739">
        <ele>103.3</ele>
        <time>2016-10-09T11:52:03Z</time>
      </trkpt>
      <trkpt lat="43.38156" lon="6.63742">
        <ele>103.5</ele>
        <time>2016-10-09T11:52:05Z</time>
      </trkpt>
      <trkpt lat="43.38157" lon="6.63745">
        <ele>103.6</ele>
        <time>2016-10-09T11:52:07Z</time>
      </trkpt>
      <trkpt lat="43.38158" lon="6.63747">
        <ele>103.8</ele>
        <time>2016-10-09T11:52:09Z</time>
      </trkpt>
      <trkpt lat="43.38158" lon="6.63749">
        <ele>103.9</ele>
        <time>2016-10-09T11:52:11Z</time>
      </trkpt>
      <trkpt lat="43.38159" lon="6.6375">
        <ele>104.1</ele>
        <time>2016-10-09T11:52:13Z</time>
      </trkpt>
      <trkpt lat="43.3816" lon="6.63752">
        <ele>104.3</ele>
        <time>2016-10-09T11:52:15Z</time>
      </trkpt>
      <trkpt lat="43.38162" lon="6.63755">
        <ele>104.6</ele>
        <time>2016-10-09T11:52:17Z</time>
      </trkpt>
      <trkpt lat="43.38163" lon="6.63758">
        <ele>105</ele>
        <time>2016-10-09T11:52:19Z</time>
      </trkpt>
      <trkpt lat="43.38165" lon="6.63762">
        <ele>105.4</ele>
        <time>2016-10-09T11:52:21Z</time>
      </trkpt>
      <trkpt lat="43.38167" lon="6.63765">
        <ele>105.8</ele>
        <time>2016-10-09T11:52:23Z</time>
      </trkpt>
      <trkpt lat="43.38169" lon="6.63769">
        <ele>106.2</ele>
        <time>2016-10-09T11:52:25Z</time>
      </trkpt>
      <trkpt lat="43.3817" lon="6.63772">
        <ele>106.6</ele>
        <time>2016-10-09T11:52:27Z</time>
      </trkpt>
      <trkpt lat="43.38172" lon="6.63775">
        <ele>107.1</ele>
        <time>2016-10-09T11:52:29Z</time>
      </trkpt>
      <trkpt lat="43.38173" lon="6.63778">
        <ele>107.6</ele>
        <time>2016-10-09T11:52:31Z</time>
      </trkpt>
      <trkpt lat="43.38175" lon="6.63781">
        <ele>108.1</ele>
        <time>2016-10-09T11:52:33Z</time>
      </trkpt>
      <trkpt lat="43.38176" lon="6.63784">
        <ele>108.5</ele>
        <time>2016-10-09T11:52:35Z</time>
      </trkpt>
      <trkpt lat="43.38178" lon="6.63787">
        <ele>108.9</ele>
        <time>2016-10-09T11:52:37Z</time>
      </trkpt>
      <trkpt lat="43.38179" lon="6.6379">
        <ele>109.3</ele>
        <time>2016-10-09T11:52:39Z</time>
      </trkpt>
      <trkpt lat="43.38182" lon="6.63793">
        <ele>109.9</ele>
        <time>2016-10-09T11:52:41Z</time>
      </trkpt>
      <trkpt lat="43.38183" lon="6.63796">
        <ele>110.4</ele>
        <time>2016-10-09T11:52:43Z</time>
      </trkpt>
      <trkpt lat="43.38185" lon="6.63799">
        <ele>110.9</ele>
        <time>2016-10-09T11:52:45Z</time>
      </trkpt>
      <trkpt lat="43.38187" lon="6.63802">
        <ele>111.4</ele>
        <time>2016-10-09T11:52:47Z</time>
      </trkpt>
      <trkpt lat="43.38189" lon="6.63804">
        <ele>111.8</ele>
        <time>2016-10-09T11:52:49Z</time>
      </trkpt>
      <trkpt lat="43.3819" lon="6.63807">
        <ele>112</ele>
        <time>2016-10-09T11:52:51Z</time>
      </trkpt>
      <trkpt lat="43.38192" lon="6.6381">
        <ele>112.2</ele>
        <time>2016-10-09T11:52:53Z</time>
      </trkpt>
      <trkpt lat="43.38194" lon="6.63813">
        <ele>112.4</ele>
        <time>2016-10-09T11:52:55Z</time>
      </trkpt>
      <trkpt lat="43.38195" lon="6.63816">
        <ele>112.6</ele>
        <time>2016-10-09T11:52:57Z</time>
      </trkpt>
      <trkpt lat="43.38198" lon="6.63819">
        <ele>112.8</ele>
        <time>2016-10-09T11:52:59Z</time>
      </trkpt>
      <trkpt lat="43.382" lon="6.63821">
        <ele>113.3</ele>
        <time>2016-10-09T11:53:01Z</time>
      </trkpt>
      <trkpt lat="43.38202" lon="6.63824">
        <ele>113.7</ele>
        <time>2016-10-09T11:53:03Z</time>
      </trkpt>
      <trkpt lat="43.38204" lon="6.63826">
        <ele>114.2</ele>
        <time>2016-10-09T11:53:05Z</time>
      </trkpt>
      <trkpt lat="43.38207" lon="6.63829">
        <ele>114.7</ele>
        <time>2016-10-09T11:53:07Z</time>
      </trkpt>
      <trkpt lat="43.38208" lon="6.63832">
        <ele>115.2</ele>
        <time>2016-10-09T11:53:09Z</time>
      </trkpt>
      <trkpt lat="43.3821" lon="6.63836">
        <ele>115.5</ele>
        <time>2016-10-09T11:53:11Z</time>
      </trkpt>
      <trkpt lat="43.38211" lon="6.6384">
        <ele>116.3</ele>
        <time>2016-10-09T11:53:13Z</time>
      </trkpt>
      <trkpt lat="43.38209" lon="6.63843">
        <ele>116.6</ele>
        <time>2016-10-09T11:53:15Z</time>
      </trkpt>
      <trkpt lat="43.38207" lon="6.63844">
        <ele>116.9</ele>
        <time>2016-10-09T11:53:17Z</time>
      </trkpt>
      <trkpt lat="43.38204" lon="6.63843">
        <ele>117.3</ele>
        <time>2016-10-09T11:53:19Z</time>
      </trkpt>
      <trkpt lat="43.38202" lon="6.63842">
        <ele>117.7</ele>
        <time>2016-10-09T11:53:21Z</time>
      </trkpt>
      <trkpt lat="43.38199" lon="6.6384">
        <ele>117.9</ele>
        <time>2016-10-09T11:53:23Z</time>
      </trkpt>
      <trkpt lat="43.38197" lon="6.63839">
        <ele>118.1</ele>
        <time>2016-10-09T11:53:25Z</time>
      </trkpt>
      <trkpt lat="43.38195" lon="6.63837">
        <ele>118.3</ele>
        <time>2016-10-09T11:53:27Z</time>
      </trkpt>
      <trkpt lat="43.38193" lon="6.63835">
        <ele>118.6</ele>
        <time>2016-10-09T11:53:29Z</time>
      </trkpt>
      <trkpt lat="43.38191" lon="6.63832">
        <ele>119</ele>
        <time>2016-10-09T11:53:31Z</time>
      </trkpt>
      <trkpt lat="43.38189" lon="6.6383">
        <ele>119.4</ele>
        <time>2016-10-09T11:53:33Z</time>
      </trkpt>
      <trkpt lat="43.38187" lon="6.63829">
        <ele>119.6</ele>
        <time>2016-10-09T11:53:35Z</time>
      </trkpt>
      <trkpt lat="43.38185" lon="6.63828">
        <ele>119.8</ele>
        <time>2016-10-09T11:53:37Z</time>
      </trkpt>
      <trkpt lat="43.38183" lon="6.63827">
        <ele>119.9</ele>
        <time>2016-10-09T11:53:39Z</time>
      </trkpt>
      <trkpt lat="43.3818" lon="6.63826">
        <ele>120</ele>
        <time>2016-10-09T11:53:41Z</time>
      </trkpt>
      <trkpt lat="43.38178" lon="6.63825">
        <ele>120.2</ele>
        <time>2016-10-09T11:53:43Z</time>
      </trkpt>
      <trkpt lat="43.38175" lon="6.63825">
        <ele>120.3</ele>
        <time>2016-10-09T11:53:45Z</time>
      </trkpt>
      <trkpt lat="43.38173" lon="6.63824">
        <ele>120.6</ele>
        <time>2016-10-09T11:53:47Z</time>
      </trkpt>
      <trkpt lat="43.3817" lon="6.63824">
        <ele>120.9</ele>
        <time>2016-10-09T11:53:49Z</time>
      </trkpt>
      <trkpt lat="43.38167" lon="6.63823">
        <ele>121.3</ele>
        <time>2016-10-09T11:53:51Z</time>
      </trkpt>
      <trkpt lat="43.38164" lon="6.63822">
        <ele>121.5</ele>
        <time>2016-10-09T11:53:53Z</time>
      </trkpt>
      <trkpt lat="43.38162" lon="6.6382">
        <ele>121.6</ele>
        <time>2016-10-09T11:53:55Z</time>
      </trkpt>
      <trkpt lat="43.38159" lon="6.63819">
        <ele>121.8</ele>
        <time>2016-10-09T11:53:57Z</time>
      </trkpt>
      <trkpt lat="43.38156" lon="6.63818">
        <ele>122</ele>
        <time>2016-10-09T11:53:59Z</time>
      </trkpt>
      <trkpt lat="43.38154" lon="6.63816">
        <ele>122.2</ele>
        <time>2016-10-09T11:54:01Z</time>
      </trkpt>
      <trkpt lat="43.38151" lon="6.63814">
        <ele>122.5</ele>
        <time>2016-10-09T11:54:03Z</time>
      </trkpt>
      <trkpt lat="43.38149" lon="6.63813">
        <ele>122.8</ele>
        <time>2016-10-09T11:54:05Z</time>
      </trkpt>
      <trkpt lat="43.38146" lon="6.63812">
        <ele>123.1</ele>
        <time>2016-10-09T11:54:07Z</time>
      </trkpt>
      <trkpt lat="43.38144" lon="6.63811">
        <ele>123.2</ele>
        <time>2016-10-09T11:54:09Z</time>
      </trkpt>
      <trkpt lat="43.38141" lon="6.6381">
        <ele>123.3</ele>
        <time>2016-10-09T11:54:11Z</time>
      </trkpt>
      <trkpt lat="43.38138" lon="6.63809">
        <ele>123.5</ele>
        <time>2016-10-09T11:54:13Z</time>
      </trkpt>
      <trkpt lat="43.38136" lon="6.63809">
        <ele>123.6</ele>
        <time>2016-10-09T11:54:15Z</time>
      </trkpt>
      <trkpt lat="43.38133" lon="6.63808">
        <ele>123.7</ele>
        <time>2016-10-09T11:54:17Z</time>
      </trkpt>
      <trkpt lat="43.38129" lon="6.63807">
        <ele>123.9</ele>
        <time>2016-10-09T11:54:19Z</time>
      </trkpt>
      <trkpt lat="43.38127" lon="6.63806">
        <ele>124</ele>
        <time>2016-10-09T11:54:21Z</time>
      </trkpt>
      <trkpt lat="43.38125" lon="6.63804">
        <ele>124.3</ele>
        <time>2016-10-09T11:54:23Z</time>
      </trkpt>
      <trkpt lat="43.38122" lon="6.63803">
        <ele>124.6</ele>
        <time>2016-10-09T11:54:25Z</time>
      </trkpt>
      <trkpt lat="43.3812" lon="6.63803">
        <ele>124.9</ele>
        <time>2016-10-09T11:54:27Z</time>
      </trkpt>
      <trkpt lat="43.38117" lon="6.63803">
        <ele>125.2</ele>
        <time>2016-10-09T11:54:29Z</time>
      </trkpt>
      <trkpt lat="43.38114" lon="6.63802">
        <ele>125.3</ele>
        <time>2016-10-09T11:54:31Z</time>
      </trkpt>
      <trkpt lat="43.3811" lon="6.63802">
        <ele>125.5</ele>
        <time>2016-10-09T11:54:33Z</time>
      </trkpt>
      <trkpt lat="43.38106" lon="6.63801">
        <ele>125.8</ele>
        <time>2016-10-09T11:54:35Z</time>
      </trkpt>
      <trkpt lat="43.38104" lon="6.63799">
        <ele>126.1</ele>
        <time>2016-10-09T11:54:37Z</time>
      </trkpt>
      <trkpt lat="43.38101" lon="6.63798">
        <ele>126.4</ele>
        <time>2016-10-09T11:54:39Z</time>
      </trkpt>
      <trkpt lat="43.38098" lon="6.63797">
        <ele>126.8</ele>
        <time>2016-10-09T11:54:41Z</time>
      </trkpt>
      <trkpt lat="43.38096" lon="6.63796">
        <ele>127.1</ele>
        <time>2016-10-09T11:54:43Z</time>
      </trkpt>
      <trkpt lat="43.38093" lon="6.63794">
        <ele>127.4</ele>
        <time>2016-10-09T11:54:45Z</time>
      </trkpt>
      <trkpt lat="43.3809" lon="6.63792">
        <ele>127.6</ele>
        <time>2016-10-09T11:54:47Z</time>
      </trkpt>
      <trkpt lat="43.38088" lon="6.6379">
        <ele>127.8</ele>
        <time>2016-10-09T11:54:49Z</time>
      </trkpt>
      <trkpt lat="43.38085" lon="6.63789">
        <ele>128.2</ele>
        <time>2016-10-09T11:54:51Z</time>
      </trkpt>
      <trkpt lat="43.38082" lon="6.63788">
        <ele>128.6</ele>
        <time>2016-10-09T11:54:53Z</time>
      </trkpt>
      <trkpt lat="43.38079" lon="6.63786">
        <ele>128.9</ele>
        <time>2016-10-09T11:54:55Z</time>
      </trkpt>
      <trkpt lat="43.38076" lon="6.63784">
        <ele>129.1</ele>
        <time>2016-10-09T11:54:57Z</time>
      </trkpt>
      <trkpt lat="43.38074" lon="6.63782">
        <ele>129.2</ele>
        <time>2016-10-09T11:54:59Z</time>
      </trkpt>
      <trkpt lat="43.38071" lon="6.6378">
        <ele>129.4</ele>
        <time>2016-10-09T11:55:01Z</time>
      </trkpt>
      <trkpt lat="43.38069" lon="6.63779">
        <ele>129.6</ele>
        <time>2016-10-09T11:55:03Z</time>
      </trkpt>
      <trkpt lat="43.38066" lon="6.63778">
        <ele>130</ele>
        <time>2016-10-09T11:55:05Z</time>
      </trkpt>
      <trkpt lat="43.38063" lon="6.63777">
        <ele>130.3</ele>
        <time>2016-10-09T11:55:07Z</time>
      </trkpt>
      <trkpt lat="43.38059" lon="6.63777">
        <ele>130.6</ele>
        <time>2016-10-09T11:55:09Z</time>
      </trkpt>
      <trkpt lat="43.38056" lon="6.63777">
        <ele>130.7</ele>
        <time>2016-10-09T11:55:11Z</time>
      </trkpt>
      <trkpt lat="43.38052" lon="6.63777">
        <ele>130.9</ele>
        <time>2016-10-09T11:55:13Z</time>
      </trkpt>
      <trkpt lat="43.38049" lon="6.63777">
        <ele>131</ele>
        <time>2016-10-09T11:55:15Z</time>
      </trkpt>
      <trkpt lat="43.38046" lon="6.63776">
        <ele>131.2</ele>
        <time>2016-10-09T11:55:17Z</time>
      </trkpt>
      <trkpt lat="43.38042" lon="6.63775">
        <ele>131.3</ele>
        <time>2016-10-09T11:55:19Z</time>
      </trkpt>
      <trkpt lat="43.38039" lon="6.63774">
        <ele>131.5</ele>
        <time>2016-10-09T11:55:21Z</time>
      </trkpt>
      <trkpt lat="43.38036" lon="6.63772">
        <ele>131.8</ele>
        <time>2016-10-09T11:55:23Z</time>
      </trkpt>
      <trkpt lat="43.38033" lon="6.63771">
        <ele>132.2</ele>
        <time>2016-10-09T11:55:25Z</time>
      </trkpt>
      <trkpt lat="43.3803" lon="6.6377">
        <ele>132.6</ele>
        <time>2016-10-09T11:55:27Z</time>
      </trkpt>
      <trkpt lat="43.38027" lon="6.63769">
        <ele>132.9</ele>
        <time>2016-10-09T11:55:29Z</time>
      </trkpt>
      <trkpt lat="43.38023" lon="6.63767">
        <ele>133</ele>
        <time>2016-10-09T11:55:31Z</time>
      </trkpt>
      <trkpt lat="43.3802" lon="6.63766">
        <ele>133.2</ele>
        <time>2016-10-09T11:55:33Z</time>
      </trkpt>
      <trkpt lat="43.38017" lon="6.63765">
        <ele>133.4</ele>
        <time>2016-10-09T11:55:35Z</time>
      </trkpt>
      <trkpt lat="43.38014" lon="6.63764">
        <ele>133.7</ele>
        <time>2016-10-09T11:55:37Z</time>
      </trkpt>
      <trkpt lat="43.38011" lon="6.63762">
        <ele>134.1</ele>
        <time>2016-10-09T11:55:39Z</time>
      </trkpt>
      <trkpt lat="43.38008" lon="6.63761">
        <ele>134.3</ele>
        <time>2016-10-09T11:55:41Z</time>
      </trkpt>
      <trkpt lat="43.38005" lon="6.6376">
        <ele>134.5</ele>
        <time>2016-10-09T11:55:43Z</time>
      </trkpt>
      <trkpt lat="43.38002" lon="6.6376">
        <ele>134.7</ele>
        <time>2016-10-09T11:55:45Z</time>
      </trkpt>
      <trkpt lat="43.37999" lon="6.63759">
        <ele>135.1</ele>
        <time>2016-10-09T11:55:47Z</time>
      </trkpt>
      <trkpt lat="43.37995" lon="6.63759">
        <ele>135.6</ele>
        <time>2016-10-09T11:55:49Z</time>
      </trkpt>
      <trkpt lat="43.37992" lon="6.63758">
        <ele>136</ele>
        <time>2016-10-09T11:55:51Z</time>
      </trkpt>
      <trkpt lat="43.37988" lon="6.63758">
        <ele>136.2</ele>
        <time>2016-10-09T11:55:53Z</time>
      </trkpt>
      <trkpt lat="43.37985" lon="6.63758">
        <ele>136.4</ele>
        <time>2016-10-09T11:55:55Z</time>
      </trkpt>
      <trkpt lat="43.37982" lon="6.63758">
        <ele>136.5</ele>
        <time>2016-10-09T11:55:57Z</time>
      </trkpt>
      <trkpt lat="43.37978" lon="6.63759">
        <ele>136.7</ele>
        <time>2016-10-09T11:55:59Z</time>
      </trkpt>
      <trkpt lat="43.37975" lon="6.63758">
        <ele>136.9</ele>
        <time>2016-10-09T11:56:01Z</time>
      </trkpt>
      <trkpt lat="43.37972" lon="6.63759">
        <ele>137.1</ele>
        <time>2016-10-09T11:56:03Z</time>
      </trkpt>
      <trkpt lat="43.37968" lon="6.63759">
        <ele>137.4</ele>
        <time>2016-10-09T11:56:05Z</time>
      </trkpt>
      <trkpt lat="43.37965" lon="6.63759">
        <ele>137.7</ele>
        <time>2016-10-09T11:56:07Z</time>
      </trkpt>
      <trkpt lat="43.37962" lon="6.63759">
        <ele>138.1</ele>
        <time>2016-10-09T11:56:09Z</time>
      </trkpt>
      <trkpt lat="43.37959" lon="6.6376">
        <ele>138.3</ele>
        <time>2016-10-09T11:56:11Z</time>
      </trkpt>
      <trkpt lat="43.37955" lon="6.6376">
        <ele>138.5</ele>
        <time>2016-10-09T11:56:13Z</time>
      </trkpt>
      <trkpt lat="43.37952" lon="6.63761">
        <ele>138.6</ele>
        <time>2016-10-09T11:56:15Z</time>
      </trkpt>
      <trkpt lat="43.37949" lon="6.63762">
        <ele>138.9</ele>
        <time>2016-10-09T11:56:17Z</time>
      </trkpt>
      <trkpt lat="43.37945" lon="6.63762">
        <ele>139.2</ele>
        <time>2016-10-09T11:56:19Z</time>
      </trkpt>
      <trkpt lat="43.37941" lon="6.63762">
        <ele>139.6</ele>
        <time>2016-10-09T11:56:21Z</time>
      </trkpt>
      <trkpt lat="43.37938" lon="6.63762">
        <ele>140</ele>
        <time>2016-10-09T11:56:23Z</time>
      </trkpt>
      <trkpt lat="43.37935" lon="6.63763">
        <ele>140.4</ele>
        <time>2016-10-09T11:56:25Z</time>
      </trkpt>
      <trkpt lat="43.37931" lon="6.63764">
        <ele>140.5</ele>
        <time>2016-10-09T11:56:27Z</time>
      </trkpt>
      <trkpt lat="43.37928" lon="6.63765">
        <ele>140.7</ele>
        <time>2016-10-09T11:56:29Z</time>
      </trkpt>
      <trkpt lat="43.37924" lon="6.63765">
        <ele>140.8</ele>
        <time>2016-10-09T11:56:31Z</time>
      </trkpt>
      <trkpt lat="43.37921" lon="6.63766">
        <ele>140.9</ele>
        <time>2016-10-09T11:56:33Z</time>
      </trkpt>
      <trkpt lat="43.37917" lon="6.63766">
        <ele>141.1</ele>
        <time>2016-10-09T11:56:35Z</time>
      </trkpt>
      <trkpt lat="43.37914" lon="6.63767">
        <ele>141.5</ele>
        <time>2016-10-09T11:56:37Z</time>
      </trkpt>
      <trkpt lat="43.37911" lon="6.63768">
        <ele>141.9</ele>
        <time>2016-10-09T11:56:39Z</time>
      </trkpt>
      <trkpt lat="43.37907" lon="6.63768">
        <ele>142.1</ele>
        <time>2016-10-09T11:56:41Z</time>
      </trkpt>
      <trkpt lat="43.37904" lon="6.63769">
        <ele>142.3</ele>
        <time>2016-10-09T11:56:43Z</time>
      </trkpt>
      <trkpt lat="43.379" lon="6.63769">
        <ele>142.5</ele>
        <time>2016-10-09T11:56:45Z</time>
      </trkpt>
      <trkpt lat="43.37897" lon="6.63769">
        <ele>142.7</ele>
        <time>2016-10-09T11:56:47Z</time>
      </trkpt>
      <trkpt lat="43.37893" lon="6.63768">
        <ele>142.9</ele>
        <time>2016-10-09T11:56:49Z</time>
      </trkpt>
      <trkpt lat="43.37889" lon="6.63768">
        <ele>143.1</ele>
        <time>2016-10-09T11:56:51Z</time>
      </trkpt>
      <trkpt lat="43.37886" lon="6.63768">
        <ele>143.4</ele>
        <time>2016-10-09T11:56:53Z</time>
      </trkpt>
      <trkpt lat="43.37882" lon="6.63769">
        <ele>143.7</ele>
        <time>2016-10-09T11:56:55Z</time>
      </trkpt>
      <trkpt lat="43.37878" lon="6.63768">
        <ele>143.9</ele>
        <time>2016-10-09T11:56:57Z</time>
      </trkpt>
      <trkpt lat="43.37874" lon="6.63767">
        <ele>144</ele>
        <time>2016-10-09T11:56:59Z</time>
      </trkpt>
      <trkpt lat="43.37871" lon="6.63766">
        <ele>144.1</ele>
        <time>2016-10-09T11:57:01Z</time>
      </trkpt>
      <trkpt lat="43.37868" lon="6.63766">
        <ele>144.2</ele>
        <time>2016-10-09T11:57:03Z</time>
      </trkpt>
      <trkpt lat="43.37865" lon="6.63764">
        <ele>144.3</ele>
        <time>2016-10-09T11:57:05Z</time>
      </trkpt>
      <trkpt lat="43.37862" lon="6.63763">
        <ele>144.4</ele>
        <time>2016-10-09T11:57:07Z</time>
      </trkpt>
      <trkpt lat="43.37859" lon="6.63762">
        <ele>144.5</ele>
        <time>2016-10-09T11:57:09Z</time>
      </trkpt>
      <trkpt lat="43.37856" lon="6.63761">
        <ele>144.6</ele>
        <time>2016-10-09T11:57:11Z</time>
      </trkpt>
      <trkpt lat="43.37853" lon="6.63761">
        <ele>144.7</ele>
        <time>2016-10-09T11:57:13Z</time>
      </trkpt>
      <trkpt lat="43.37849" lon="6.6376">
        <ele>144.9</ele>
        <time>2016-10-09T11:57:15Z</time>
      </trkpt>
      <trkpt lat="43.37846" lon="6.6376">
        <ele>145.2</ele>
        <time>2016-10-09T11:57:17Z</time>
      </trkpt>
      <trkpt lat="43.37842" lon="6.6376">
        <ele>145.6</ele>
        <time>2016-10-09T11:57:19Z</time>
      </trkpt>
      <trkpt lat="43.37838" lon="6.6376">
        <ele>146</ele>
        <time>2016-10-09T11:57:21Z</time>
      </trkpt>
      <trkpt lat="43.37835" lon="6.6376">
        <ele>146.3</ele>
        <time>2016-10-09T11:57:23Z</time>
      </trkpt>
      <trkpt lat="43.37832" lon="6.6376">
        <ele>146.4</ele>
        <time>2016-10-09T11:57:25Z</time>
      </trkpt>
      <trkpt lat="43.37828" lon="6.6376">
        <ele>146.6</ele>
        <time>2016-10-09T11:57:27Z</time>
      </trkpt>
      <trkpt lat="43.37825" lon="6.6376">
        <ele>146.7</ele>
        <time>2016-10-09T11:57:29Z</time>
      </trkpt>
      <trkpt lat="43.37822" lon="6.6376">
        <ele>146.9</ele>
        <time>2016-10-09T11:57:31Z</time>
      </trkpt>
      <trkpt lat="43.37819" lon="6.6376">
        <ele>147.1</ele>
        <time>2016-10-09T11:57:33Z</time>
      </trkpt>
      <trkpt lat="43.37816" lon="6.6376">
        <ele>147.4</ele>
        <time>2016-10-09T11:57:35Z</time>
      </trkpt>
      <trkpt lat="43.37813" lon="6.6376">
        <ele>147.7</ele>
        <time>2016-10-09T11:57:37Z</time>
      </trkpt>
      <trkpt lat="43.3781" lon="6.63759">
        <ele>148</ele>
        <time>2016-10-09T11:57:39Z</time>
      </trkpt>
      <trkpt lat="43.37808" lon="6.63758">
        <ele>148.2</ele>
        <time>2016-10-09T11:57:41Z</time>
      </trkpt>
      <trkpt lat="43.37805" lon="6.63756">
        <ele>148.4</ele>
        <time>2016-10-09T11:57:43Z</time>
      </trkpt>
      <trkpt lat="43.37803" lon="6.63754">
        <ele>148.5</ele>
        <time>2016-10-09T11:57:45Z</time>
      </trkpt>
      <trkpt lat="43.378" lon="6.63753">
        <ele>148.7</ele>
        <time>2016-10-09T11:57:47Z</time>
      </trkpt>
      <trkpt lat="43.37798" lon="6.63753">
        <ele>148.8</ele>
        <time>2016-10-09T11:57:49Z</time>
      </trkpt>
      <trkpt lat="43.37796" lon="6.63752">
        <ele>148.9</ele>
        <time>2016-10-09T11:57:51Z</time>
      </trkpt>
      <trkpt lat="43.37793" lon="6.63751">
        <ele>149.2</ele>
        <time>2016-10-09T11:57:53Z</time>
      </trkpt>
      <trkpt lat="43.3779" lon="6.63751">
        <ele>149.6</ele>
        <time>2016-10-09T11:57:55Z</time>
      </trkpt>
      <trkpt lat="43.37787" lon="6.63752">
        <ele>149.9</ele>
        <time>2016-10-09T11:57:57Z</time>
      </trkpt>
      <trkpt lat="43.37785" lon="6.63751">
        <ele>150.1</ele>
        <time>2016-10-09T11:57:59Z</time>
      </trkpt>
      <trkpt lat="43.37782" lon="6.63751">
        <ele>150.3</ele>
        <time>2016-10-09T11:58:01Z</time>
      </trkpt>
      <trkpt lat="43.37779" lon="6.6375">
        <ele>150.4</ele>
        <time>2016-10-09T11:58:03Z</time>
      </trkpt>
      <trkpt lat="43.37776" lon="6.6375">
        <ele>150.5</ele>
        <time>2016-10-09T11:58:05Z</time>
      </trkpt>
      <trkpt lat="43.37773" lon="6.6375">
        <ele>150.7</ele>
        <time>2016-10-09T11:58:07Z</time>
      </trkpt>
      <trkpt lat="43.3777" lon="6.63749">
        <ele>151</ele>
        <time>2016-10-09T11:58:09Z</time>
      </trkpt>
      <trkpt lat="43.37767" lon="6.6375">
        <ele>151.3</ele>
        <time>2016-10-09T11:58:11Z</time>
      </trkpt>
      <trkpt lat="43.37765" lon="6.63749">
        <ele>151.6</ele>
        <time>2016-10-09T11:58:13Z</time>
      </trkpt>
      <trkpt lat="43.37762" lon="6.63748">
        <ele>151.9</ele>
        <time>2016-10-09T11:58:15Z</time>
      </trkpt>
      <trkpt lat="43.37759" lon="6.63746">
        <ele>152.1</ele>
        <time>2016-10-09T11:58:17Z</time>
      </trkpt>
      <trkpt lat="43.37757" lon="6.63744">
        <ele>152.3</ele>
        <time>2016-10-09T11:58:19Z</time>
      </trkpt>
      <trkpt lat="43.37756" lon="6.6374">
        <ele>152.4</ele>
        <time>2016-10-09T11:58:21Z</time>
      </trkpt>
      <trkpt lat="43.37755" lon="6.63736">
        <ele>152.6</ele>
        <time>2016-10-09T11:58:23Z</time>
      </trkpt>
      <trkpt lat="43.37754" lon="6.63731">
        <ele>152.9</ele>
        <time>2016-10-09T11:58:25Z</time>
      </trkpt>
      <trkpt lat="43.37754" lon="6.63727">
        <ele>153.2</ele>
        <time>2016-10-09T11:58:27Z</time>
      </trkpt>
      <trkpt lat="43.37754" lon="6.63722">
        <ele>153.5</ele>
        <time>2016-10-09T11:58:29Z</time>
      </trkpt>
      <trkpt lat="43.37753" lon="6.63718">
        <ele>153.8</ele>
        <time>2016-10-09T11:58:31Z</time>
      </trkpt>
      <trkpt lat="43.37752" lon="6.63712">
        <ele>154</ele>
        <time>2016-10-09T11:58:33Z</time>
      </trkpt>
      <trkpt lat="43.3775" lon="6.63707">
        <ele>154.1</ele>
        <time>2016-10-09T11:58:35Z</time>
      </trkpt>
      <trkpt lat="43.37746" lon="6.63703">
        <ele>154.2</ele>
        <time>2016-10-09T11:58:37Z</time>
      </trkpt>
      <trkpt lat="43.37742" lon="6.637">
        <ele>154.3</ele>
        <time>2016-10-09T11:58:39Z</time>
      </trkpt>
      <trkpt lat="43.37737" lon="6.63696">
        <ele>154.4</ele>
        <time>2016-10-09T11:58:41Z</time>
      </trkpt>
      <trkpt lat="43.37733" lon="6.63689">
        <ele>154.6</ele>
        <time>2016-10-09T11:58:43Z</time>
      </trkpt>
      <trkpt lat="43.3773" lon="6.63682">
        <ele>154.8</ele>
        <time>2016-10-09T11:58:45Z</time>
      </trkpt>
      <trkpt lat="43.37728" lon="6.63675">
        <ele>155.2</ele>
        <time>2016-10-09T11:58:47Z</time>
      </trkpt>
      <trkpt lat="43.37725" lon="6.63668">
        <ele>155.5</ele>
        <time>2016-10-09T11:58:49Z</time>
      </trkpt>
      <trkpt lat="43.37722" lon="6.63662">
        <ele>155.6</ele>
        <time>2016-10-09T11:58:51Z</time>
      </trkpt>
      <trkpt lat="43.37719" lon="6.63655">
        <ele>155.7</ele>
        <time>2016-10-09T11:58:53Z</time>
      </trkpt>
      <trkpt lat="43.37714" lon="6.63648">
        <ele>155.8</ele>
        <time>2016-10-09T11:58:55Z</time>
      </trkpt>
      <trkpt lat="43.3771" lon="6.63642">
        <ele>155.9</ele>
        <time>2016-10-09T11:58:57Z</time>
      </trkpt>
      <trkpt lat="43.37708" lon="6.63636">
        <ele>155.9</ele>
        <time>2016-10-09T11:58:59Z</time>
      </trkpt>
      <trkpt lat="43.37706" lon="6.6363">
        <ele>155.9</ele>
        <time>2016-10-09T11:59:01Z</time>
      </trkpt>
      <trkpt lat="43.37705" lon="6.63622">
        <ele>155.9</ele>
        <time>2016-10-09T11:59:03Z</time>
      </trkpt>
      <trkpt lat="43.37708" lon="6.63614">
        <ele>155.8</ele>
        <time>2016-10-09T11:59:05Z</time>
      </trkpt>
      <trkpt lat="43.37712" lon="6.63609">
        <ele>155.8</ele>
        <time>2016-10-09T11:59:07Z</time>
      </trkpt>
      <trkpt lat="43.37718" lon="6.63604">
        <ele>155.8</ele>
        <time>2016-10-09T11:59:09Z</time>
      </trkpt>
      <trkpt lat="43.37723" lon="6.63597">
        <ele>155.8</ele>
        <time>2016-10-09T11:59:11Z</time>
      </trkpt>
      <trkpt lat="43.37727" lon="6.63588">
        <ele>155.8</ele>
        <time>2016-10-09T11:59:13Z</time>
      </trkpt>
      <trkpt lat="43.37728" lon="6.63577">
        <ele>155.8</ele>
        <time>2016-10-09T11:59:15Z</time>
      </trkpt>
      <trkpt lat="43.37727" lon="6.63566">
        <ele>155.7</ele>
        <time>2016-10-09T11:59:17Z</time>
      </trkpt>
      <trkpt lat="43.37727" lon="6.63555">
        <ele>155.7</ele>
        <time>2016-10-09T11:59:19Z</time>
      </trkpt>
      <trkpt lat="43.37727" lon="6.63545">
        <ele>155.7</ele>
        <time>2016-10-09T11:59:21Z</time>
      </trkpt>
      <trkpt lat="43.37728" lon="6.63536">
        <ele>155.7</ele>
        <time>2016-10-09T11:59:23Z</time>
      </trkpt>
      <trkpt lat="43.3773" lon="6.63526">
        <ele>155.7</ele>
        <time>2016-10-09T11:59:25Z</time>
      </trkpt>
      <trkpt lat="43.37734" lon="6.63517">
        <ele>155.7</ele>
        <time>2016-10-09T11:59:27Z</time>
      </trkpt>
      <trkpt lat="43.37736" lon="6.63507">
        <ele>155.7</ele>
        <time>2016-10-09T11:59:29Z</time>
      </trkpt>
      <trkpt lat="43.37738" lon="6.63496">
        <ele>155.7</ele>
        <time>2016-10-09T11:59:31Z</time>
      </trkpt>
      <trkpt lat="43.37739" lon="6.63486">
        <ele>155.7</ele>
        <time>2016-10-09T11:59:33Z</time>
      </trkpt>
      <trkpt lat="43.3774" lon="6.63476">
        <ele>155.7</ele>
        <time>2016-10-09T11:59:35Z</time>
      </trkpt>
      <trkpt lat="43.37741" lon="6.63466">
        <ele>155.7</ele>
        <time>2016-10-09T11:59:37Z</time>
      </trkpt>
      <trkpt lat="43.37741" lon="6.63457">
        <ele>155.8</ele>
        <time>2016-10-09T11:59:39Z</time>
      </trkpt>
      <trkpt lat="43.3774" lon="6.63449">
        <ele>155.8</ele>
        <time>2016-10-09T11:59:41Z</time>
      </trkpt>
      <trkpt lat="43.37738" lon="6.63443">
        <ele>155.9</ele>
        <time>2016-10-09T11:59:43Z</time>
      </trkpt>
      <trkpt lat="43.37735" lon="6.63437">
        <ele>156</ele>
        <time>2016-10-09T11:59:45Z</time>
      </trkpt>
      <trkpt lat="43.37733" lon="6.63432">
        <ele>156.1</ele>
        <time>2016-10-09T11:59:47Z</time>
      </trkpt>
      <trkpt lat="43.3773" lon="6.63427">
        <ele>156.3</ele>
        <time>2016-10-09T11:59:49Z</time>
      </trkpt>
      <trkpt lat="43.37729" lon="6.63423">
        <ele>156.6</ele>
        <time>2016-10-09T11:59:51Z</time>
      </trkpt>
      <trkpt lat="43.37727" lon="6.63417">
        <ele>157.1</ele>
        <time>2016-10-09T11:59:53Z</time>
      </trkpt>
      <trkpt lat="43.37725" lon="6.6341">
        <ele>157.6</ele>
        <time>2016-10-09T11:59:55Z</time>
      </trkpt>
      <trkpt lat="43.37723" lon="6.63404">
        <ele>158</ele>
        <time>2016-10-09T11:59:57Z</time>
      </trkpt>
      <trkpt lat="43.37722" lon="6.63399">
        <ele>158.4</ele>
        <time>2016-10-09T11:59:59Z</time>
      </trkpt>
      <trkpt lat="43.37721" lon="6.63393">
        <ele>158.8</ele>
        <time>2016-10-09T12:00:01Z</time>
      </trkpt>
      <trkpt lat="43.37719" lon="6.63388">
        <ele>159.2</ele>
        <time>2016-10-09T12:00:03Z</time>
      </trkpt>
      <trkpt lat="43.37718" lon="6.63382">
        <ele>159.4</ele>
        <time>2016-10-09T12:00:05Z</time>
      </trkpt>
      <trkpt lat="43.37717" lon="6.63377">
        <ele>159.6</ele>
        <time>2016-10-09T12:00:07Z</time>
      </trkpt>
      <trkpt lat="43.37714" lon="6.63372">
        <ele>159.8</ele>
        <time>2016-10-09T12:00:09Z</time>
      </trkpt>
      <trkpt lat="43.37712" lon="6.63369">
        <ele>160</ele>
        <time>2016-10-09T12:00:11Z</time>
      </trkpt>
      <trkpt lat="43.37708" lon="6.63367">
        <ele>160.4</ele>
        <time>2016-10-09T12:00:13Z</time>
      </trkpt>
      <trkpt lat="43.37705" lon="6.63366">
        <ele>161.7</ele>
        <time>2016-10-09T12:00:15Z</time>
      </trkpt>
      <trkpt lat="43.37701" lon="6.63366">
        <ele>162</ele>
        <time>2016-10-09T12:00:17Z</time>
      </trkpt>
      <trkpt lat="43.37697" lon="6.63366">
        <ele>162.5</ele>
        <time>2016-10-09T12:00:19Z</time>
      </trkpt>
      <trkpt lat="43.37693" lon="6.63367">
        <ele>162.9</ele>
        <time>2016-10-09T12:00:21Z</time>
      </trkpt>
      <trkpt lat="43.3769" lon="6.63367">
        <ele>163.3</ele>
        <time>2016-10-09T12:00:23Z</time>
      </trkpt>
      <trkpt lat="43.37686" lon="6.63368">
        <ele>163.7</ele>
        <time>2016-10-09T12:00:25Z</time>
      </trkpt>
      <trkpt lat="43.37683" lon="6.63368">
        <ele>164.1</ele>
        <time>2016-10-09T12:00:27Z</time>
      </trkpt>
      <trkpt lat="43.37679" lon="6.63368">
        <ele>164.5</ele>
        <time>2016-10-09T12:00:29Z</time>
      </trkpt>
      <trkpt lat="43.37676" lon="6.63368">
        <ele>164.6</ele>
        <time>2016-10-09T12:00:31Z</time>
      </trkpt>
      <trkpt lat="43.37672" lon="6.63368">
        <ele>164.8</ele>
        <time>2016-10-09T12:00:33Z</time>
      </trkpt>
      <trkpt lat="43.37668" lon="6.63369">
        <ele>164.9</ele>
        <time>2016-10-09T12:00:35Z</time>
      </trkpt>
      <trkpt lat="43.37664" lon="6.63368">
        <ele>165.1</ele>
        <time>2016-10-09T12:00:37Z</time>
      </trkpt>
      <trkpt lat="43.3766" lon="6.63369">
        <ele>165.3</ele>
        <time>2016-10-09T12:00:39Z</time>
      </trkpt>
      <trkpt lat="43.37656" lon="6.63369">
        <ele>165.4</ele>
        <time>2016-10-09T12:00:41Z</time>
      </trkpt>
      <trkpt lat="43.37652" lon="6.6337">
        <ele>165.5</ele>
        <time>2016-10-09T12:00:43Z</time>
      </trkpt>
      <trkpt lat="43.37648" lon="6.63371">
        <ele>165.6</ele>
        <time>2016-10-09T12:00:45Z</time>
      </trkpt>
      <trkpt lat="43.37645" lon="6.63372">
        <ele>165.7</ele>
        <time>2016-10-09T12:00:47Z</time>
      </trkpt>
      <trkpt lat="43.37645" lon="6.63375">
        <ele>167.4</ele>
        <time>2016-10-09T12:00:49Z</time>
      </trkpt>
      <trkpt lat="43.37646" lon="6.63379">
        <ele>167.7</ele>
        <time>2016-10-09T12:00:51Z</time>
      </trkpt>
      <trkpt lat="43.37647" lon="6.63382">
        <ele>167.9</ele>
        <time>2016-10-09T12:00:53Z</time>
      </trkpt>
      <trkpt lat="43.3765" lon="6.63386">
        <ele>168.1</ele>
        <time>2016-10-09T12:00:55Z</time>
      </trkpt>
      <trkpt lat="43.37652" lon="6.63388">
        <ele>168.4</ele>
        <time>2016-10-09T12:00:57Z</time>
      </trkpt>
      <trkpt lat="43.37655" lon="6.63391">
        <ele>168.8</ele>
        <time>2016-10-09T12:00:59Z</time>
      </trkpt>
      <trkpt lat="43.37657" lon="6.63394">
        <ele>169.1</ele>
        <time>2016-10-09T12:01:01Z</time>
      </trkpt>
      <trkpt lat="43.3766" lon="6.63397">
        <ele>169.4</ele>
        <time>2016-10-09T12:01:03Z</time>
      </trkpt>
      <trkpt lat="43.37662" lon="6.634">
        <ele>169.6</ele>
        <time>2016-10-09T12:01:05Z</time>
      </trkpt>
      <trkpt lat="43.37664" lon="6.63403">
        <ele>169.8</ele>
        <time>2016-10-09T12:01:07Z</time>
      </trkpt>
      <trkpt lat="43.37666" lon="6.63406">
        <ele>170</ele>
        <time>2016-10-09T12:01:09Z</time>
      </trkpt>
      <trkpt lat="43.37668" lon="6.6341">
        <ele>170.2</ele>
        <time>2016-10-09T12:01:11Z</time>
      </trkpt>
      <trkpt lat="43.3767" lon="6.63413">
        <ele>170.3</ele>
        <time>2016-10-09T12:01:13Z</time>
      </trkpt>
      <trkpt lat="43.37672" lon="6.63416">
        <ele>170.4</ele>
        <time>2016-10-09T12:01:15Z</time>
      </trkpt>
      <trkpt lat="43.37674" lon="6.6342">
        <ele>170.5</ele>
        <time>2016-10-09T12:01:17Z</time>
      </trkpt>
      <trkpt lat="43.37675" lon="6.63425">
        <ele>170.9</ele>
        <time>2016-10-09T12:01:19Z</time>
      </trkpt>
      <trkpt lat="43.37676" lon="6.6343">
        <ele>171.3</ele>
        <time>2016-10-09T12:01:21Z</time>
      </trkpt>
      <trkpt lat="43.37677" lon="6.63435">
        <ele>171.8</ele>
        <time>2016-10-09T12:01:23Z</time>
      </trkpt>
      <trkpt lat="43.37677" lon="6.6344">
        <ele>172.2</ele>
        <time>2016-10-09T12:01:25Z</time>
      </trkpt>
      <trkpt lat="43.37676" lon="6.63446">
        <ele>172.4</ele>
        <time>2016-10-09T12:01:27Z</time>
      </trkpt>
      <trkpt lat="43.37675" lon="6.6345">
        <ele>172.6</ele>
        <time>2016-10-09T12:01:29Z</time>
      </trkpt>
      <trkpt lat="43.37675" lon="6.63455">
        <ele>172.7</ele>
        <time>2016-10-09T12:01:31Z</time>
      </trkpt>
      <trkpt lat="43.37675" lon="6.63459">
        <ele>172.9</ele>
        <time>2016-10-09T12:01:33Z</time>
      </trkpt>
      <trkpt lat="43.37675" lon="6.63463">
        <ele>173</ele>
        <time>2016-10-09T12:01:35Z</time>
      </trkpt>
      <trkpt lat="43.37675" lon="6.63468">
        <ele>173.3</ele>
        <time>2016-10-09T12:01:37Z</time>
      </trkpt>
      <trkpt lat="43.37674" lon="6.63474">
        <ele>173.7</ele>
        <time>2016-10-09T12:01:39Z</time>
      </trkpt>
      <trkpt lat="43.37674" lon="6.63481">
        <ele>174.1</ele>
        <time>2016-10-09T12:01:41Z</time>
      </trkpt>
      <trkpt lat="43.37672" lon="6.63489">
        <ele>174.3</ele>
        <time>2016-10-09T12:01:43Z</time>
      </trkpt>
      <trkpt lat="43.37671" lon="6.63497">
        <ele>174.5</ele>
        <time>2016-10-09T12:01:45Z</time>
      </trkpt>
      <trkpt lat="43.37668" lon="6.63505">
        <ele>174.7</ele>
        <time>2016-10-09T12:01:47Z</time>
      </trkpt>
      <trkpt lat="43.37665" lon="6.63513">
        <ele>174.7</ele>
        <time>2016-10-09T12:01:49Z</time>
      </trkpt>
      <trkpt lat="43.37661" lon="6.63522">
        <ele>174.8</ele>
        <time>2016-10-09T12:01:51Z</time>
      </trkpt>
      <trkpt lat="43.37657" lon="6.6353">
        <ele>174.9</ele>
        <time>2016-10-09T12:01:53Z</time>
      </trkpt>
      <trkpt lat="43.37653" lon="6.63538">
        <ele>175</ele>
        <time>2016-10-09T12:01:55Z</time>
      </trkpt>
      <trkpt lat="43.3765" lon="6.63546">
        <ele>175.1</ele>
        <time>2016-10-09T12:01:57Z</time>
      </trkpt>
      <trkpt lat="43.37645" lon="6.63554">
        <ele>175.1</ele>
        <time>2016-10-09T12:01:59Z</time>
      </trkpt>
      <trkpt lat="43.37641" lon="6.63561">
        <ele>175.2</ele>
        <time>2016-10-09T12:02:01Z</time>
      </trkpt>
      <trkpt lat="43.37637" lon="6.63567">
        <ele>175.6</ele>
        <time>2016-10-09T12:02:03Z</time>
      </trkpt>
      <trkpt lat="43.37634" lon="6.63574">
        <ele>176.1</ele>
        <time>2016-10-09T12:02:05Z</time>
      </trkpt>
      <trkpt lat="43.37629" lon="6.6358">
        <ele>176.7</ele>
        <time>2016-10-09T12:02:07Z</time>
      </trkpt>
      <trkpt lat="43.37625" lon="6.63584">
        <ele>176.9</ele>
        <time>2016-10-09T12:02:09Z</time>
      </trkpt>
      <trkpt lat="43.3762" lon="6.63589">
        <ele>177.1</ele>
        <time>2016-10-09T12:02:11Z</time>
      </trkpt>
      <trkpt lat="43.37616" lon="6.63593">
        <ele>177.3</ele>
        <time>2016-10-09T12:02:13Z</time>
      </trkpt>
      <trkpt lat="43.37613" lon="6.63596">
        <ele>177.5</ele>
        <time>2016-10-09T12:02:15Z</time>
      </trkpt>
      <trkpt lat="43.3761" lon="6.636">
        <ele>177.7</ele>
        <time>2016-10-09T12:02:17Z</time>
      </trkpt>
      <trkpt lat="43.37608" lon="6.63605">
        <ele>178</ele>
        <time>2016-10-09T12:02:19Z</time>
      </trkpt>
      <trkpt lat="43.37606" lon="6.6361">
        <ele>178.4</ele>
        <time>2016-10-09T12:02:21Z</time>
      </trkpt>
      <trkpt lat="43.37605" lon="6.63614">
        <ele>178.8</ele>
        <time>2016-10-09T12:02:23Z</time>
      </trkpt>
      <trkpt lat="43.37605" lon="6.63619">
        <ele>179.2</ele>
        <time>2016-10-09T12:02:25Z</time>
      </trkpt>
      <trkpt lat="43.37605" lon="6.63623">
        <ele>179.5</ele>
        <time>2016-10-09T12:02:27Z</time>
      </trkpt>
      <trkpt lat="43.37605" lon="6.63628">
        <ele>179.8</ele>
        <time>2016-10-09T12:02:29Z</time>
      </trkpt>
      <trkpt lat="43.37605" lon="6.63631">
        <ele>180</ele>
        <time>2016-10-09T12:02:31Z</time>
      </trkpt>
      <trkpt lat="43.37606" lon="6.63635">
        <ele>180.2</ele>
        <time>2016-10-09T12:02:33Z</time>
      </trkpt>
      <trkpt lat="43.37606" lon="6.63639">
        <ele>180.6</ele>
        <time>2016-10-09T12:02:35Z</time>
      </trkpt>
      <trkpt lat="43.37606" lon="6.63643">
        <ele>181.2</ele>
        <time>2016-10-09T12:02:37Z</time>
      </trkpt>
      <trkpt lat="43.37607" lon="6.63646">
        <ele>181.7</ele>
        <time>2016-10-09T12:02:39Z</time>
      </trkpt>
      <trkpt lat="43.37608" lon="6.6365">
        <ele>181.9</ele>
        <time>2016-10-09T12:02:41Z</time>
      </trkpt>
      <trkpt lat="43.37609" lon="6.63653">
        <ele>182.2</ele>
        <time>2016-10-09T12:02:43Z</time>
      </trkpt>
      <trkpt lat="43.3761" lon="6.63656">
        <ele>182.6</ele>
        <time>2016-10-09T12:02:45Z</time>
      </trkpt>
      <trkpt lat="43.37611" lon="6.6366">
        <ele>183.1</ele>
        <time>2016-10-09T12:02:47Z</time>
      </trkpt>
      <trkpt lat="43.37612" lon="6.63664">
        <ele>183.6</ele>
        <time>2016-10-09T12:02:49Z</time>
      </trkpt>
      <trkpt lat="43.37614" lon="6.63669">
        <ele>184</ele>
        <time>2016-10-09T12:02:51Z</time>
      </trkpt>
      <trkpt lat="43.37615" lon="6.63674">
        <ele>184.4</ele>
        <time>2016-10-09T12:02:53Z</time>
      </trkpt>
      <trkpt lat="43.37617" lon="6.63678">
        <ele>184.6</ele>
        <time>2016-10-09T12:02:55Z</time>
      </trkpt>
      <trkpt lat="43.37619" lon="6.63683">
        <ele>184.9</ele>
        <time>2016-10-09T12:02:57Z</time>
      </trkpt>
      <trkpt lat="43.37622" lon="6.63687">
        <ele>185.1</ele>
        <time>2016-10-09T12:02:59Z</time>
      </trkpt>
      <trkpt lat="43.37624" lon="6.6369">
        <ele>185.6</ele>
        <time>2016-10-09T12:03:01Z</time>
      </trkpt>
      <trkpt lat="43.37625" lon="6.63693">
        <ele>185.9</ele>
        <time>2016-10-09T12:03:03Z</time>
      </trkpt>
      <trkpt lat="43.37627" lon="6.63696">
        <ele>186.2</ele>
        <time>2016-10-09T12:03:05Z</time>
      </trkpt>
      <trkpt lat="43.37629" lon="6.637">
        <ele>186.4</ele>
        <time>2016-10-09T12:03:07Z</time>
      </trkpt>
      <trkpt lat="43.37631" lon="6.63705">
        <ele>186.6</ele>
        <time>2016-10-09T12:03:09Z</time>
      </trkpt>
      <trkpt lat="43.37632" lon="6.63709">
        <ele>186.8</ele>
        <time>2016-10-09T12:03:11Z</time>
      </trkpt>
      <trkpt lat="43.37633" lon="6.63713">
        <ele>187</ele>
        <time>2016-10-09T12:03:13Z</time>
      </trkpt>
      <trkpt lat="43.37634" lon="6.63717">
        <ele>187.2</ele>
        <time>2016-10-09T12:03:15Z</time>
      </trkpt>
      <trkpt lat="43.37634" lon="6.63721">
        <ele>187.4</ele>
        <time>2016-10-09T12:03:17Z</time>
      </trkpt>
      <trkpt lat="43.37634" lon="6.63725">
        <ele>187.8</ele>
        <time>2016-10-09T12:03:19Z</time>
      </trkpt>
      <trkpt lat="43.37634" lon="6.63729">
        <ele>188.4</ele>
        <time>2016-10-09T12:03:21Z</time>
      </trkpt>
      <trkpt lat="43.37632" lon="6.63733">
        <ele>188.9</ele>
        <time>2016-10-09T12:03:23Z</time>
      </trkpt>
      <trkpt lat="43.37631" lon="6.63736">
        <ele>189.3</ele>
        <time>2016-10-09T12:03:25Z</time>
      </trkpt>
      <trkpt lat="43.37629" lon="6.6374">
        <ele>189.7</ele>
        <time>2016-10-09T12:03:27Z</time>
      </trkpt>
      <trkpt lat="43.37627" lon="6.63743">
        <ele>190.3</ele>
        <time>2016-10-09T12:03:29Z</time>
      </trkpt>
      <trkpt lat="43.37626" lon="6.63747">
        <ele>190.8</ele>
        <time>2016-10-09T12:03:31Z</time>
      </trkpt>
      <trkpt lat="43.37624" lon="6.6375">
        <ele>191.2</ele>
        <time>2016-10-09T12:03:33Z</time>
      </trkpt>
      <trkpt lat="43.37623" lon="6.63754">
        <ele>191.5</ele>
        <time>2016-10-09T12:03:35Z</time>
      </trkpt>
      <trkpt lat="43.37624" lon="6.63758">
        <ele>191.7</ele>
        <time>2016-10-09T12:03:37Z</time>
      </trkpt>
      <trkpt lat="43.37624" lon="6.63762">
        <ele>191.9</ele>
        <time>2016-10-09T12:03:39Z</time>
      </trkpt>
      <trkpt lat="43.37626" lon="6.63765">
        <ele>192.4</ele>
        <time>2016-10-09T12:03:41Z</time>
      </trkpt>
      <trkpt lat="43.37627" lon="6.63769">
        <ele>192.9</ele>
        <time>2016-10-09T12:03:43Z</time>
      </trkpt>
      <trkpt lat="43.37628" lon="6.63772">
        <ele>193.3</ele>
        <time>2016-10-09T12:03:45Z</time>
      </trkpt>
      <trkpt lat="43.3763" lon="6.63775">
        <ele>193.6</ele>
        <time>2016-10-09T12:03:47Z</time>
      </trkpt>
      <trkpt lat="43.37631" lon="6.63778">
        <ele>193.8</ele>
        <time>2016-10-09T12:03:49Z</time>
      </trkpt>
      <trkpt lat="43.37633" lon="6.63782">
        <ele>194</ele>
        <time>2016-10-09T12:03:51Z</time>
      </trkpt>
      <trkpt lat="43.37634" lon="6.63785">
        <ele>194.1</ele>
        <time>2016-10-09T12:03:53Z</time>
      </trkpt>
      <trkpt lat="43.37635" lon="6.63788">
        <ele>194.3</ele>
        <time>2016-10-09T12:03:55Z</time>
      </trkpt>
      <trkpt lat="43.37637" lon="6.63791">
        <ele>194.6</ele>
        <time>2016-10-09T12:03:57Z</time>
      </trkpt>
      <trkpt lat="43.37638" lon="6.63794">
        <ele>195</ele>
        <time>2016-10-09T12:03:59Z</time>
      </trkpt>
      <trkpt lat="43.37639" lon="6.63797">
        <ele>195.4</ele>
        <time>2016-10-09T12:04:01Z</time>
      </trkpt>
      <trkpt lat="43.3764" lon="6.638">
        <ele>195.8</ele>
        <time>2016-10-09T12:04:03Z</time>
      </trkpt>
      <trkpt lat="43.37642" lon="6.63802">
        <ele>196.1</ele>
        <time>2016-10-09T12:04:05Z</time>
      </trkpt>
      <trkpt lat="43.37643" lon="6.63805">
        <ele>196.4</ele>
        <time>2016-10-09T12:04:07Z</time>
      </trkpt>
      <trkpt lat="43.37644" lon="6.63808">
        <ele>196.6</ele>
        <time>2016-10-09T12:04:09Z</time>
      </trkpt>
      <trkpt lat="43.37645" lon="6.6381">
        <ele>196.9</ele>
        <time>2016-10-09T12:04:11Z</time>
      </trkpt>
      <trkpt lat="43.37647" lon="6.63813">
        <ele>197.1</ele>
        <time>2016-10-09T12:04:13Z</time>
      </trkpt>
      <trkpt lat="43.37648" lon="6.63816">
        <ele>197.6</ele>
        <time>2016-10-09T12:04:15Z</time>
      </trkpt>
      <trkpt lat="43.3765" lon="6.63819">
        <ele>198.2</ele>
        <time>2016-10-09T12:04:17Z</time>
      </trkpt>
      <trkpt lat="43.37652" lon="6.63822">
        <ele>198.6</ele>
        <time>2016-10-09T12:04:19Z</time>
      </trkpt>
      <trkpt lat="43.37654" lon="6.63827">
        <ele>198.9</ele>
        <time>2016-10-09T12:04:21Z</time>
      </trkpt>
      <trkpt lat="43.37656" lon="6.63831">
        <ele>199.3</ele>
        <time>2016-10-09T12:04:23Z</time>
      </trkpt>
      <trkpt lat="43.37658" lon="6.63835">
        <ele>199.8</ele>
        <time>2016-10-09T12:04:25Z</time>
      </trkpt>
      <trkpt lat="43.3766" lon="6.63839">
        <ele>200.4</ele>
        <time>2016-10-09T12:04:27Z</time>
      </trkpt>
      <trkpt lat="43.37661" lon="6.63844">
        <ele>200.7</ele>
        <time>2016-10-09T12:04:29Z</time>
      </trkpt>
      <trkpt lat="43.37663" lon="6.63848">
        <ele>201</ele>
        <time>2016-10-09T12:04:31Z</time>
      </trkpt>
      <trkpt lat="43.37664" lon="6.63852">
        <ele>201.2</ele>
        <time>2016-10-09T12:04:33Z</time>
      </trkpt>
      <trkpt lat="43.37665" lon="6.63856">
        <ele>201.3</ele>
        <time>2016-10-09T12:04:35Z</time>
      </trkpt>
      <trkpt lat="43.37666" lon="6.6386">
        <ele>201.5</ele>
        <time>2016-10-09T12:04:37Z</time>
      </trkpt>
      <trkpt lat="43.37667" lon="6.63863">
        <ele>201.6</ele>
        <time>2016-10-09T12:04:39Z</time>
      </trkpt>
      <trkpt lat="43.37668" lon="6.63867">
        <ele>201.9</ele>
        <time>2016-10-09T12:04:41Z</time>
      </trkpt>
      <trkpt lat="43.37668" lon="6.63871">
        <ele>202.2</ele>
        <time>2016-10-09T12:04:43Z</time>
      </trkpt>
      <trkpt lat="43.37669" lon="6.63874">
        <ele>202.6</ele>
        <time>2016-10-09T12:04:45Z</time>
      </trkpt>
      <trkpt lat="43.37669" lon="6.63878">
        <ele>203</ele>
        <time>2016-10-09T12:04:47Z</time>
      </trkpt>
      <trkpt lat="43.3767" lon="6.63881">
        <ele>203.5</ele>
        <time>2016-10-09T12:04:49Z</time>
      </trkpt>
      <trkpt lat="43.37671" lon="6.63885">
        <ele>203.9</ele>
        <time>2016-10-09T12:04:51Z</time>
      </trkpt>
      <trkpt lat="43.37671" lon="6.63888">
        <ele>204.1</ele>
        <time>2016-10-09T12:04:53Z</time>
      </trkpt>
      <trkpt lat="43.37672" lon="6.63891">
        <ele>204.3</ele>
        <time>2016-10-09T12:04:55Z</time>
      </trkpt>
      <trkpt lat="43.37673" lon="6.63895">
        <ele>204.8</ele>
        <time>2016-10-09T12:04:57Z</time>
      </trkpt>
      <trkpt lat="43.37674" lon="6.63898">
        <ele>205.3</ele>
        <time>2016-10-09T12:04:59Z</time>
      </trkpt>
      <trkpt lat="43.37675" lon="6.63902">
        <ele>205.8</ele>
        <time>2016-10-09T12:05:01Z</time>
      </trkpt>
      <trkpt lat="43.37676" lon="6.63905">
        <ele>206.2</ele>
        <time>2016-10-09T12:05:03Z</time>
      </trkpt>
      <trkpt lat="43.37677" lon="6.63908">
        <ele>206.4</ele>
        <time>2016-10-09T12:05:05Z</time>
      </trkpt>
      <trkpt lat="43.37678" lon="6.63912">
        <ele>206.7</ele>
        <time>2016-10-09T12:05:07Z</time>
      </trkpt>
      <trkpt lat="43.37679" lon="6.63915">
        <ele>207</ele>
        <time>2016-10-09T12:05:09Z</time>
      </trkpt>
      <trkpt lat="43.3768" lon="6.63919">
        <ele>207.7</ele>
        <time>2016-10-09T12:05:11Z</time>
      </trkpt>
      <trkpt lat="43.37681" lon="6.63923">
        <ele>208.2</ele>
        <time>2016-10-09T12:05:13Z</time>
      </trkpt>
      <trkpt lat="43.37682" lon="6.63925">
        <ele>208.6</ele>
        <time>2016-10-09T12:05:15Z</time>
      </trkpt>
      <trkpt lat="43.37684" lon="6.63927">
        <ele>208.9</ele>
        <time>2016-10-09T12:05:17Z</time>
      </trkpt>
      <trkpt lat="43.3769" lon="6.63932">
        <ele>210</ele>
        <time>2016-10-09T12:06:33Z</time>
      </trkpt>
      <trkpt lat="43.37693" lon="6.63934">
        <ele>218.4</ele>
        <time>2016-10-09T12:06:35Z</time>
      </trkpt>
      <trkpt lat="43.37701" lon="6.63939">
        <ele>217.8</ele>
        <time>2016-10-09T12:06:37Z</time>
      </trkpt>
      <trkpt lat="43.37706" lon="6.63943">
        <ele>217</ele>
        <time>2016-10-09T12:06:51Z</time>
      </trkpt>
      <trkpt lat="43.3771" lon="6.63944">
        <ele>216.6</ele>
        <time>2016-10-09T12:07:41Z</time>
      </trkpt>
      <trkpt lat="43.37717" lon="6.63945">
        <ele>215.9</ele>
        <time>2016-10-09T12:07:43Z</time>
      </trkpt>
      <trkpt lat="43.37719" lon="6.63945">
        <ele>215.8</ele>
        <time>2016-10-09T12:07:45Z</time>
      </trkpt>
      <trkpt lat="43.37722" lon="6.63946">
        <ele>215.6</ele>
        <time>2016-10-09T12:07:53Z</time>
      </trkpt>
      <trkpt lat="43.37724" lon="6.63947">
        <ele>215.4</ele>
        <time>2016-10-09T12:08:17Z</time>
      </trkpt>
      <trkpt lat="43.37726" lon="6.63947">
        <ele>215.2</ele>
        <time>2016-10-09T12:08:19Z</time>
      </trkpt>
      <trkpt lat="43.37732" lon="6.63948">
        <ele>214.6</ele>
        <time>2016-10-09T12:10:06Z</time>
      </trkpt>
      <trkpt lat="43.37735" lon="6.63949">
        <ele>214.3</ele>
        <time>2016-10-09T12:10:08Z</time>
      </trkpt>
      <trkpt lat="43.37739" lon="6.63952">
        <ele>213.8</ele>
        <time>2016-10-09T12:10:10Z</time>
      </trkpt>
      <trkpt lat="43.37741" lon="6.63952">
        <ele>213.6</ele>
        <time>2016-10-09T12:10:12Z</time>
      </trkpt>
      <trkpt lat="43.37743" lon="6.63953">
        <ele>213.4</ele>
        <time>2016-10-09T12:10:14Z</time>
      </trkpt>
      <trkpt lat="43.37745" lon="6.63955">
        <ele>213</ele>
        <time>2016-10-09T12:10:18Z</time>
      </trkpt>
      <trkpt lat="43.37747" lon="6.63957">
        <ele>212.6</ele>
        <time>2016-10-09T12:10:20Z</time>
      </trkpt>
      <trkpt lat="43.37747" lon="6.63961">
        <ele>212.3</ele>
        <time>2016-10-09T12:10:35Z</time>
      </trkpt>
      <trkpt lat="43.37746" lon="6.63963">
        <ele>212.2</ele>
        <time>2016-10-09T12:10:37Z</time>
      </trkpt>
      <trkpt lat="43.37744" lon="6.63967">
        <ele>211.8</ele>
        <time>2016-10-09T12:11:00Z</time>
      </trkpt>
      <trkpt lat="43.37741" lon="6.63973">
        <ele>210.8</ele>
        <time>2016-10-09T12:11:31Z</time>
      </trkpt>
      <trkpt lat="43.3774" lon="6.63979">
        <ele>209.9</ele>
        <time>2016-10-09T12:11:33Z</time>
      </trkpt>
      <trkpt lat="43.37738" lon="6.63983">
        <ele>209.5</ele>
        <time>2016-10-09T12:11:37Z</time>
      </trkpt>
      <trkpt lat="43.37736" lon="6.63986">
        <ele>209.4</ele>
        <time>2016-10-09T12:12:19Z</time>
      </trkpt>
      <trkpt lat="43.37734" lon="6.63989">
        <ele>208.9</ele>
        <time>2016-10-09T12:12:21Z</time>
      </trkpt>
      <trkpt lat="43.3773" lon="6.63996">
        <ele>207.3</ele>
        <time>2016-10-09T12:12:48Z</time>
      </trkpt>
      <trkpt lat="43.37726" lon="6.64001">
        <ele>207.2</ele>
        <time>2016-10-09T12:12:50Z</time>
      </trkpt>
      <trkpt lat="43.37724" lon="6.64003">
        <ele>207.1</ele>
        <time>2016-10-09T12:12:52Z</time>
      </trkpt>
      <trkpt lat="43.37722" lon="6.64005">
        <ele>206.4</ele>
        <time>2016-10-09T12:12:54Z</time>
      </trkpt>
      <trkpt lat="43.3772" lon="6.64006">
        <ele>206.7</ele>
        <time>2016-10-09T12:12:56Z</time>
      </trkpt>
      <trkpt lat="43.37718" lon="6.64006">
        <ele>206.6</ele>
        <time>2016-10-09T12:12:58Z</time>
      </trkpt>
      <trkpt lat="43.37717" lon="6.64007">
        <ele>207</ele>
        <time>2016-10-09T12:13:00Z</time>
      </trkpt>
      <trkpt lat="43.37715" lon="6.64007">
        <ele>206.9</ele>
        <time>2016-10-09T12:13:02Z</time>
      </trkpt>
      <trkpt lat="43.37714" lon="6.64007">
        <ele>206.7</ele>
        <time>2016-10-09T12:13:04Z</time>
      </trkpt>
      <trkpt lat="43.37712" lon="6.64009">
        <ele>206.1</ele>
        <time>2016-10-09T12:13:19Z</time>
      </trkpt>
      <trkpt lat="43.37709" lon="6.64011">
        <ele>206.4</ele>
        <time>2016-10-09T12:13:21Z</time>
      </trkpt>
      <trkpt lat="43.37707" lon="6.64011">
        <ele>206.8</ele>
        <time>2016-10-09T12:13:23Z</time>
      </trkpt>
      <trkpt lat="43.37705" lon="6.64011">
        <ele>206.7</ele>
        <time>2016-10-09T12:13:27Z</time>
      </trkpt>
      <trkpt lat="43.37705" lon="6.64012">
        <ele>206.5</ele>
        <time>2016-10-09T12:13:29Z</time>
      </trkpt>
      <trkpt lat="43.37701" lon="6.64012">
        <ele>206.8</ele>
        <time>2016-10-09T12:13:31Z</time>
      </trkpt>
      <trkpt lat="43.37699" lon="6.64013">
        <ele>205.9</ele>
        <time>2016-10-09T12:13:33Z</time>
      </trkpt>
      <trkpt lat="43.37696" lon="6.64015">
        <ele>206</ele>
        <time>2016-10-09T12:13:35Z</time>
      </trkpt>
      <trkpt lat="43.37693" lon="6.64017">
        <ele>205</ele>
        <time>2016-10-09T12:13:37Z</time>
      </trkpt>
      <trkpt lat="43.37688" lon="6.6402">
        <ele>204.9</ele>
        <time>2016-10-09T12:13:39Z</time>
      </trkpt>
      <trkpt lat="43.37684" lon="6.64022">
        <ele>203.8</ele>
        <time>2016-10-09T12:13:41Z</time>
      </trkpt>
      <trkpt lat="43.3768" lon="6.64024">
        <ele>203.6</ele>
        <time>2016-10-09T12:13:43Z</time>
      </trkpt>
      <trkpt lat="43.37676" lon="6.64026">
        <ele>202.6</ele>
        <time>2016-10-09T12:13:45Z</time>
      </trkpt>
      <trkpt lat="43.37673" lon="6.64028">
        <ele>202.5</ele>
        <time>2016-10-09T12:13:47Z</time>
      </trkpt>
      <trkpt lat="43.37672" lon="6.64031">
        <ele>201.6</ele>
        <time>2016-10-09T12:13:49Z</time>
      </trkpt>
      <trkpt lat="43.37672" lon="6.64034">
        <ele>201.3</ele>
        <time>2016-10-09T12:13:51Z</time>
      </trkpt>
      <trkpt lat="43.37672" lon="6.64035">
        <ele>201.1</ele>
        <time>2016-10-09T12:13:53Z</time>
      </trkpt>
      <trkpt lat="43.37674" lon="6.64037">
        <ele>200.8</ele>
        <time>2016-10-09T12:13:57Z</time>
      </trkpt>
      <trkpt lat="43.37674" lon="6.64038">
        <ele>200.7</ele>
        <time>2016-10-09T12:13:59Z</time>
      </trkpt>
      <trkpt lat="43.37676" lon="6.6404">
        <ele>200.4</ele>
        <time>2016-10-09T12:14:01Z</time>
      </trkpt>
      <trkpt lat="43.37677" lon="6.64042">
        <ele>200.1</ele>
        <time>2016-10-09T12:14:03Z</time>
      </trkpt>
      <trkpt lat="43.37678" lon="6.64043">
        <ele>199.9</ele>
        <time>2016-10-09T12:14:05Z</time>
      </trkpt>
      <trkpt lat="43.3768" lon="6.64046">
        <ele>199.3</ele>
        <time>2016-10-09T12:14:11Z</time>
      </trkpt>
      <trkpt lat="43.37681" lon="6.64048">
        <ele>199</ele>
        <time>2016-10-09T12:14:13Z</time>
      </trkpt>
      <trkpt lat="43.37682" lon="6.64051">
        <ele>198.7</ele>
        <time>2016-10-09T12:14:15Z</time>
      </trkpt>
      <trkpt lat="43.37683" lon="6.64053">
        <ele>198.3</ele>
        <time>2016-10-09T12:14:17Z</time>
      </trkpt>
      <trkpt lat="43.37683" lon="6.64057">
        <ele>197.9</ele>
        <time>2016-10-09T12:14:19Z</time>
      </trkpt>
      <trkpt lat="43.3768" lon="6.64059">
        <ele>197.5</ele>
        <time>2016-10-09T12:14:21Z</time>
      </trkpt>
      <trkpt lat="43.37677" lon="6.64062">
        <ele>197</ele>
        <time>2016-10-09T12:14:23Z</time>
      </trkpt>
      <trkpt lat="43.37671" lon="6.64068">
        <ele>196.1</ele>
        <time>2016-10-09T12:14:25Z</time>
      </trkpt>
      <trkpt lat="43.37663" lon="6.64076">
        <ele>195.2</ele>
        <time>2016-10-09T12:14:27Z</time>
      </trkpt>
      <trkpt lat="43.37653" lon="6.64086">
        <ele>194.1</ele>
        <time>2016-10-09T12:14:29Z</time>
      </trkpt>
      <trkpt lat="43.37642" lon="6.64095">
        <ele>192.9</ele>
        <time>2016-10-09T12:14:31Z</time>
      </trkpt>
      <trkpt lat="43.37634" lon="6.64101">
        <ele>191.5</ele>
        <time>2016-10-09T12:14:33Z</time>
      </trkpt>
      <trkpt lat="43.37631" lon="6.64108">
        <ele>190.4</ele>
        <time>2016-10-09T12:14:35Z</time>
      </trkpt>
      <trkpt lat="43.37635" lon="6.64113">
        <ele>189.4</ele>
        <time>2016-10-09T12:14:37Z</time>
      </trkpt>
      <trkpt lat="43.37644" lon="6.64114">
        <ele>187.7</ele>
        <time>2016-10-09T12:14:39Z</time>
      </trkpt>
      <trkpt lat="43.37655" lon="6.64117">
        <ele>186.3</ele>
        <time>2016-10-09T12:14:41Z</time>
      </trkpt>
      <trkpt lat="43.37668" lon="6.64119">
        <ele>185</ele>
        <time>2016-10-09T12:14:43Z</time>
      </trkpt>
      <trkpt lat="43.37679" lon="6.64117">
        <ele>184</ele>
        <time>2016-10-09T12:14:45Z</time>
      </trkpt>
      <trkpt lat="43.37689" lon="6.64109">
        <ele>182.9</ele>
        <time>2016-10-09T12:14:47Z</time>
      </trkpt>
      <trkpt lat="43.37699" lon="6.64104">
        <ele>182</ele>
        <time>2016-10-09T12:14:49Z</time>
      </trkpt>
      <trkpt lat="43.37709" lon="6.64103">
        <ele>181.1</ele>
        <time>2016-10-09T12:14:51Z</time>
      </trkpt>
      <trkpt lat="43.37719" lon="6.64102">
        <ele>180.6</ele>
        <time>2016-10-09T12:14:53Z</time>
      </trkpt>
      <trkpt lat="43.37729" lon="6.64102">
        <ele>180.1</ele>
        <time>2016-10-09T12:14:55Z</time>
      </trkpt>
      <trkpt lat="43.3774" lon="6.64099">
        <ele>179.2</ele>
        <time>2016-10-09T12:14:57Z</time>
      </trkpt>
      <trkpt lat="43.37752" lon="6.64094">
        <ele>177.4</ele>
        <time>2016-10-09T12:14:59Z</time>
      </trkpt>
      <trkpt lat="43.37763" lon="6.64091">
        <ele>175.3</ele>
        <time>2016-10-09T12:15:01Z</time>
      </trkpt>
      <trkpt lat="43.37775" lon="6.64093">
        <ele>173.2</ele>
        <time>2016-10-09T12:15:03Z</time>
      </trkpt>
      <trkpt lat="43.37787" lon="6.64093">
        <ele>171.2</ele>
        <time>2016-10-09T12:15:05Z</time>
      </trkpt>
      <trkpt lat="43.37797" lon="6.6409">
        <ele>169.4</ele>
        <time>2016-10-09T12:15:07Z</time>
      </trkpt>
      <trkpt lat="43.37808" lon="6.64087">
        <ele>167.8</ele>
        <time>2016-10-09T12:15:09Z</time>
      </trkpt>
      <trkpt lat="43.37819" lon="6.64087">
        <ele>166.2</ele>
        <time>2016-10-09T12:15:11Z</time>
      </trkpt>
      <trkpt lat="43.37832" lon="6.64084">
        <ele>164.8</ele>
        <time>2016-10-09T12:15:13Z</time>
      </trkpt>
      <trkpt lat="43.37843" lon="6.64078">
        <ele>163.6</ele>
        <time>2016-10-09T12:15:15Z</time>
      </trkpt>
      <trkpt lat="43.37855" lon="6.64074">
        <ele>162.1</ele>
        <time>2016-10-09T12:15:17Z</time>
      </trkpt>
      <trkpt lat="43.37864" lon="6.64077">
        <ele>160.9</ele>
        <time>2016-10-09T12:15:19Z</time>
      </trkpt>
      <trkpt lat="43.3787" lon="6.64081">
        <ele>160</ele>
        <time>2016-10-09T12:15:21Z</time>
      </trkpt>
      <trkpt lat="43.37875" lon="6.64082">
        <ele>159.2</ele>
        <time>2016-10-09T12:15:23Z</time>
      </trkpt>
      <trkpt lat="43.3788" lon="6.64084">
        <ele>158.5</ele>
        <time>2016-10-09T12:15:25Z</time>
      </trkpt>
      <trkpt lat="43.37887" lon="6.64085">
        <ele>157.3</ele>
        <time>2016-10-09T12:15:27Z</time>
      </trkpt>
      <trkpt lat="43.37895" lon="6.64086">
        <ele>156</ele>
        <time>2016-10-09T12:15:29Z</time>
      </trkpt>
      <trkpt lat="43.37904" lon="6.64087">
        <ele>154.5</ele>
        <time>2016-10-09T12:15:31Z</time>
      </trkpt>
      <trkpt lat="43.37914" lon="6.64091">
        <ele>152.8</ele>
        <time>2016-10-09T12:15:33Z</time>
      </trkpt>
      <trkpt lat="43.37925" lon="6.64096">
        <ele>150.9</ele>
        <time>2016-10-09T12:15:35Z</time>
      </trkpt>
      <trkpt lat="43.37933" lon="6.64098">
        <ele>149.2</ele>
        <time>2016-10-09T12:15:37Z</time>
      </trkpt>
      <trkpt lat="43.3794" lon="6.641">
        <ele>147.9</ele>
        <time>2016-10-09T12:15:39Z</time>
      </trkpt>
      <trkpt lat="43.37948" lon="6.64103">
        <ele>146.1</ele>
        <time>2016-10-09T12:15:41Z</time>
      </trkpt>
      <trkpt lat="43.37957" lon="6.64107">
        <ele>143.6</ele>
        <time>2016-10-09T12:15:43Z</time>
      </trkpt>
      <trkpt lat="43.37965" lon="6.64113">
        <ele>141.6</ele>
        <time>2016-10-09T12:15:45Z</time>
      </trkpt>
      <trkpt lat="43.37973" lon="6.64119">
        <ele>139.8</ele>
        <time>2016-10-09T12:15:47Z</time>
      </trkpt>
      <trkpt lat="43.37982" lon="6.64125">
        <ele>138</ele>
        <time>2016-10-09T12:15:49Z</time>
      </trkpt>
      <trkpt lat="43.37991" lon="6.64131">
        <ele>136.5</ele>
        <time>2016-10-09T12:15:51Z</time>
      </trkpt>
      <trkpt lat="43.38001" lon="6.64137">
        <ele>135.2</ele>
        <time>2016-10-09T12:15:53Z</time>
      </trkpt>
      <trkpt lat="43.3801" lon="6.64144">
        <ele>134.2</ele>
        <time>2016-10-09T12:15:55Z</time>
      </trkpt>
      <trkpt lat="43.38019" lon="6.64153">
        <ele>133.4</ele>
        <time>2016-10-09T12:15:57Z</time>
      </trkpt>
      <trkpt lat="43.38029" lon="6.6416">
        <ele>132.6</ele>
        <time>2016-10-09T12:15:59Z</time>
      </trkpt>
      <trkpt lat="43.38038" lon="6.64169">
        <ele>131.6</ele>
        <time>2016-10-09T12:16:01Z</time>
      </trkpt>
      <trkpt lat="43.38046" lon="6.64177">
        <ele>130.4</ele>
        <time>2016-10-09T12:16:03Z</time>
      </trkpt>
      <trkpt lat="43.38052" lon="6.64186">
        <ele>129</ele>
        <time>2016-10-09T12:16:05Z</time>
      </trkpt>
      <trkpt lat="43.38056" lon="6.64197">
        <ele>128</ele>
        <time>2016-10-09T12:16:07Z</time>
      </trkpt>
      <trkpt lat="43.38059" lon="6.64208">
        <ele>128</ele>
        <time>2016-10-09T12:16:09Z</time>
      </trkpt>
      <trkpt lat="43.3806" lon="6.64217">
        <ele>127.7</ele>
        <time>2016-10-09T12:16:11Z</time>
      </trkpt>
      <trkpt lat="43.38061" lon="6.64221">
        <ele>127.3</ele>
        <time>2016-10-09T12:16:13Z</time>
      </trkpt>
      <trkpt lat="43.38062" lon="6.64225">
        <ele>126.9</ele>
        <time>2016-10-09T12:16:15Z</time>
      </trkpt>
      <trkpt lat="43.38063" lon="6.6423">
        <ele>126.5</ele>
        <time>2016-10-09T12:16:17Z</time>
      </trkpt>
      <trkpt lat="43.38063" lon="6.64235">
        <ele>126.1</ele>
        <time>2016-10-09T12:16:19Z</time>
      </trkpt>
      <trkpt lat="43.38063" lon="6.6424">
        <ele>125.7</ele>
        <time>2016-10-09T12:16:21Z</time>
      </trkpt>
      <trkpt lat="43.38062" lon="6.64246">
        <ele>125.2</ele>
        <time>2016-10-09T12:16:23Z</time>
      </trkpt>
      <trkpt lat="43.38062" lon="6.64251">
        <ele>124.8</ele>
        <time>2016-10-09T12:16:25Z</time>
      </trkpt>
      <trkpt lat="43.38062" lon="6.64255">
        <ele>124.5</ele>
        <time>2016-10-09T12:16:27Z</time>
      </trkpt>
      <trkpt lat="43.38062" lon="6.64259">
        <ele>124.2</ele>
        <time>2016-10-09T12:16:29Z</time>
      </trkpt>
      <trkpt lat="43.38063" lon="6.64263">
        <ele>123.9</ele>
        <time>2016-10-09T12:16:38Z</time>
      </trkpt>
      <trkpt lat="43.38064" lon="6.64266">
        <ele>123.8</ele>
        <time>2016-10-09T12:16:42Z</time>
      </trkpt>
      <trkpt lat="43.38065" lon="6.64268">
        <ele>123.6</ele>
        <time>2016-10-09T12:16:46Z</time>
      </trkpt>
      <trkpt lat="43.38066" lon="6.64271">
        <ele>123.5</ele>
        <time>2016-10-09T12:16:48Z</time>
      </trkpt>
      <trkpt lat="43.38068" lon="6.64273">
        <ele>123.4</ele>
        <time>2016-10-09T12:16:50Z</time>
      </trkpt>
      <trkpt lat="43.3807" lon="6.64275">
        <ele>123.3</ele>
        <time>2016-10-09T12:16:52Z</time>
      </trkpt>
      <trkpt lat="43.38071" lon="6.64277">
        <ele>123.2</ele>
        <time>2016-10-09T12:16:56Z</time>
      </trkpt>
      <trkpt lat="43.38075" lon="6.64278">
        <ele>123</ele>
        <time>2016-10-09T12:17:00Z</time>
      </trkpt>
      <trkpt lat="43.38076" lon="6.64279">
        <ele>122.9</ele>
        <time>2016-10-09T12:17:02Z</time>
      </trkpt>
      <trkpt lat="43.38077" lon="6.64279">
        <ele>122.8</ele>
        <time>2016-10-09T12:17:04Z</time>
      </trkpt>
      <trkpt lat="43.3808" lon="6.64281">
        <ele>122.7</ele>
        <time>2016-10-09T12:17:06Z</time>
      </trkpt>
      <trkpt lat="43.38085" lon="6.64282">
        <ele>122.4</ele>
        <time>2016-10-09T12:17:08Z</time>
      </trkpt>
      <trkpt lat="43.38091" lon="6.64283">
        <ele>122.1</ele>
        <time>2016-10-09T12:17:10Z</time>
      </trkpt>
      <trkpt lat="43.38096" lon="6.64282">
        <ele>121.8</ele>
        <time>2016-10-09T12:17:12Z</time>
      </trkpt>
      <trkpt lat="43.38099" lon="6.64281">
        <ele>121.7</ele>
        <time>2016-10-09T12:17:14Z</time>
      </trkpt>
      <trkpt lat="43.38101" lon="6.64278">
        <ele>121.5</ele>
        <time>2016-10-09T12:17:16Z</time>
      </trkpt>
      <trkpt lat="43.38104" lon="6.64275">
        <ele>121.3</ele>
        <time>2016-10-09T12:17:18Z</time>
      </trkpt>
      <trkpt lat="43.38109" lon="6.64271">
        <ele>121</ele>
        <time>2016-10-09T12:17:20Z</time>
      </trkpt>
      <trkpt lat="43.38115" lon="6.64269">
        <ele>120.9</ele>
        <time>2016-10-09T12:17:22Z</time>
      </trkpt>
      <trkpt lat="43.38122" lon="6.64266">
        <ele>120.7</ele>
        <time>2016-10-09T12:17:24Z</time>
      </trkpt>
      <trkpt lat="43.38129" lon="6.64268">
        <ele>120.5</ele>
        <time>2016-10-09T12:17:26Z</time>
      </trkpt>
      <trkpt lat="43.38138" lon="6.64269">
        <ele>120.1</ele>
        <time>2016-10-09T12:17:28Z</time>
      </trkpt>
      <trkpt lat="43.38148" lon="6.64264">
        <ele>119.6</ele>
        <time>2016-10-09T12:17:30Z</time>
      </trkpt>
      <trkpt lat="43.38158" lon="6.64257">
        <ele>119</ele>
        <time>2016-10-09T12:17:32Z</time>
      </trkpt>
      <trkpt lat="43.38166" lon="6.64251">
        <ele>118.6</ele>
        <time>2016-10-09T12:17:34Z</time>
      </trkpt>
      <trkpt lat="43.38174" lon="6.64247">
        <ele>118.3</ele>
        <time>2016-10-09T12:17:36Z</time>
      </trkpt>
      <trkpt lat="43.38181" lon="6.64244">
        <ele>118</ele>
        <time>2016-10-09T12:17:38Z</time>
      </trkpt>
      <trkpt lat="43.38187" lon="6.64235">
        <ele>117.4</ele>
        <time>2016-10-09T12:17:40Z</time>
      </trkpt>
      <trkpt lat="43.38194" lon="6.64226">
        <ele>116.7</ele>
        <time>2016-10-09T12:17:42Z</time>
      </trkpt>
      <trkpt lat="43.38204" lon="6.64226">
        <ele>115.4</ele>
        <time>2016-10-09T12:17:44Z</time>
      </trkpt>
      <trkpt lat="43.38213" lon="6.64232">
        <ele>113.3</ele>
        <time>2016-10-09T12:17:46Z</time>
      </trkpt>
      <trkpt lat="43.38219" lon="6.64242">
        <ele>111.5</ele>
        <time>2016-10-09T12:17:48Z</time>
      </trkpt>
      <trkpt lat="43.38219" lon="6.64257">
        <ele>109.6</ele>
        <time>2016-10-09T12:17:50Z</time>
      </trkpt>
      <trkpt lat="43.38218" lon="6.64272">
        <ele>108</ele>
        <time>2016-10-09T12:17:52Z</time>
      </trkpt>
      <trkpt lat="43.38221" lon="6.64284">
        <ele>106.9</ele>
        <time>2016-10-09T12:17:54Z</time>
      </trkpt>
      <trkpt lat="43.38222" lon="6.64296">
        <ele>104.7</ele>
        <time>2016-10-09T12:17:56Z</time>
      </trkpt>
      <trkpt lat="43.38219" lon="6.64305">
        <ele>103.9</ele>
        <time>2016-10-09T12:17:58Z</time>
      </trkpt>
      <trkpt lat="43.38215" lon="6.64316">
        <ele>103</ele>
        <time>2016-10-09T12:18:00Z</time>
      </trkpt>
      <trkpt lat="43.38207" lon="6.64326">
        <ele>102.2</ele>
        <time>2016-10-09T12:18:02Z</time>
      </trkpt>
      <trkpt lat="43.38198" lon="6.64334">
        <ele>101.6</ele>
        <time>2016-10-09T12:18:04Z</time>
      </trkpt>
      <trkpt lat="43.38186" lon="6.64342">
        <ele>100.7</ele>
        <time>2016-10-09T12:18:06Z</time>
      </trkpt>
      <trkpt lat="43.38174" lon="6.64352">
        <ele>99.3</ele>
        <time>2016-10-09T12:18:08Z</time>
      </trkpt>
      <trkpt lat="43.38164" lon="6.64363">
        <ele>97.9</ele>
        <time>2016-10-09T12:18:10Z</time>
      </trkpt>
      <trkpt lat="43.38155" lon="6.64373">
        <ele>96.9</ele>
        <time>2016-10-09T12:18:12Z</time>
      </trkpt>
      <trkpt lat="43.38149" lon="6.64385">
        <ele>95.9</ele>
        <time>2016-10-09T12:18:14Z</time>
      </trkpt>
      <trkpt lat="43.38143" lon="6.64399">
        <ele>95.3</ele>
        <time>2016-10-09T12:18:16Z</time>
      </trkpt>
      <trkpt lat="43.38136" lon="6.64413">
        <ele>95</ele>
        <time>2016-10-09T12:18:18Z</time>
      </trkpt>
      <trkpt lat="43.38128" lon="6.64427">
        <ele>94.4</ele>
        <time>2016-10-09T12:18:20Z</time>
      </trkpt>
      <trkpt lat="43.38118" lon="6.64438">
        <ele>93.9</ele>
        <time>2016-10-09T12:18:22Z</time>
      </trkpt>
      <trkpt lat="43.38106" lon="6.64441">
        <ele>93.3</ele>
        <time>2016-10-09T12:18:24Z</time>
      </trkpt>
      <trkpt lat="43.38094" lon="6.64432">
        <ele>92.6</ele>
        <time>2016-10-09T12:18:26Z</time>
      </trkpt>
      <trkpt lat="43.38081" lon="6.64425">
        <ele>91.8</ele>
        <time>2016-10-09T12:18:28Z</time>
      </trkpt>
      <trkpt lat="43.38067" lon="6.64422">
        <ele>90.6</ele>
        <time>2016-10-09T12:18:30Z</time>
      </trkpt>
      <trkpt lat="43.38054" lon="6.64428">
        <ele>89.2</ele>
        <time>2016-10-09T12:18:32Z</time>
      </trkpt>
      <trkpt lat="43.38043" lon="6.64438">
        <ele>88.2</ele>
        <time>2016-10-09T12:18:34Z</time>
      </trkpt>
      <trkpt lat="43.38031" lon="6.64449">
        <ele>87.7</ele>
        <time>2016-10-09T12:18:36Z</time>
      </trkpt>
      <trkpt lat="43.38018" lon="6.64454">
        <ele>87.6</ele>
        <time>2016-10-09T12:18:38Z</time>
      </trkpt>
      <trkpt lat="43.38005" lon="6.64454">
        <ele>87.5</ele>
        <time>2016-10-09T12:18:40Z</time>
      </trkpt>
      <trkpt lat="43.37992" lon="6.64452">
        <ele>87.6</ele>
        <time>2016-10-09T12:18:42Z</time>
      </trkpt>
      <trkpt lat="43.37979" lon="6.6445">
        <ele>87.5</ele>
        <time>2016-10-09T12:18:44Z</time>
      </trkpt>
      <trkpt lat="43.37965" lon="6.64448">
        <ele>87.1</ele>
        <time>2016-10-09T12:18:46Z</time>
      </trkpt>
      <trkpt lat="43.37952" lon="6.64446">
        <ele>86.2</ele>
        <time>2016-10-09T12:18:48Z</time>
      </trkpt>
      <trkpt lat="43.3794" lon="6.64447">
        <ele>85.1</ele>
        <time>2016-10-09T12:18:50Z</time>
      </trkpt>
      <trkpt lat="43.37927" lon="6.64449">
        <ele>85.6</ele>
        <time>2016-10-09T12:18:52Z</time>
      </trkpt>
      <trkpt lat="43.37915" lon="6.64451">
        <ele>86.8</ele>
        <time>2016-10-09T12:18:54Z</time>
      </trkpt>
      <trkpt lat="43.37903" lon="6.64452">
        <ele>88.6</ele>
        <time>2016-10-09T12:18:56Z</time>
      </trkpt>
      <trkpt lat="43.37891" lon="6.64455">
        <ele>90.5</ele>
        <time>2016-10-09T12:18:58Z</time>
      </trkpt>
      <trkpt lat="43.3788" lon="6.64457">
        <ele>92</ele>
        <time>2016-10-09T12:19:00Z</time>
      </trkpt>
      <trkpt lat="43.3787" lon="6.64458">
        <ele>92.4</ele>
        <time>2016-10-09T12:19:02Z</time>
      </trkpt>
      <trkpt lat="43.37862" lon="6.64461">
        <ele>92.4</ele>
        <time>2016-10-09T12:19:04Z</time>
      </trkpt>
      <trkpt lat="43.37855" lon="6.64467">
        <ele>92.2</ele>
        <time>2016-10-09T12:19:06Z</time>
      </trkpt>
      <trkpt lat="43.37848" lon="6.64474">
        <ele>91.7</ele>
        <time>2016-10-09T12:19:08Z</time>
      </trkpt>
      <trkpt lat="43.37841" lon="6.64478">
        <ele>91.1</ele>
        <time>2016-10-09T12:19:10Z</time>
      </trkpt>
      <trkpt lat="43.37835" lon="6.64483">
        <ele>91.3</ele>
        <time>2016-10-09T12:19:12Z</time>
      </trkpt>
      <trkpt lat="43.37829" lon="6.64488">
        <ele>91.7</ele>
        <time>2016-10-09T12:19:14Z</time>
      </trkpt>
      <trkpt lat="43.37822" lon="6.64492">
        <ele>92.4</ele>
        <time>2016-10-09T12:19:16Z</time>
      </trkpt>
      <trkpt lat="43.37816" lon="6.64496">
        <ele>93</ele>
        <time>2016-10-09T12:19:18Z</time>
      </trkpt>
      <trkpt lat="43.37809" lon="6.64501">
        <ele>93.8</ele>
        <time>2016-10-09T12:19:20Z</time>
      </trkpt>
      <trkpt lat="43.37803" lon="6.64506">
        <ele>94.8</ele>
        <time>2016-10-09T12:19:22Z</time>
      </trkpt>
      <trkpt lat="43.37797" lon="6.64509">
        <ele>96</ele>
        <time>2016-10-09T12:19:24Z</time>
      </trkpt>
      <trkpt lat="43.37791" lon="6.64512">
        <ele>97.1</ele>
        <time>2016-10-09T12:19:26Z</time>
      </trkpt>
      <trkpt lat="43.37785" lon="6.64514">
        <ele>98.5</ele>
        <time>2016-10-09T12:19:28Z</time>
      </trkpt>
      <trkpt lat="43.37778" lon="6.64517">
        <ele>100.1</ele>
        <time>2016-10-09T12:19:30Z</time>
      </trkpt>
      <trkpt lat="43.37771" lon="6.6452">
        <ele>101.8</ele>
        <time>2016-10-09T12:19:32Z</time>
      </trkpt>
      <trkpt lat="43.37766" lon="6.64525">
        <ele>103.3</ele>
        <time>2016-10-09T12:19:34Z</time>
      </trkpt>
      <trkpt lat="43.37761" lon="6.64531">
        <ele>104.9</ele>
        <time>2016-10-09T12:19:36Z</time>
      </trkpt>
      <trkpt lat="43.37758" lon="6.64538">
        <ele>106.3</ele>
        <time>2016-10-09T12:19:38Z</time>
      </trkpt>
      <trkpt lat="43.37756" lon="6.64542">
        <ele>106.9</ele>
        <time>2016-10-09T12:19:40Z</time>
      </trkpt>
      <trkpt lat="43.37754" lon="6.64547">
        <ele>107.3</ele>
        <time>2016-10-09T12:19:42Z</time>
      </trkpt>
      <trkpt lat="43.37752" lon="6.64551">
        <ele>107.6</ele>
        <time>2016-10-09T12:19:44Z</time>
      </trkpt>
      <trkpt lat="43.37752" lon="6.64554">
        <ele>107.8</ele>
        <time>2016-10-09T12:19:46Z</time>
      </trkpt>
      <trkpt lat="43.37751" lon="6.64558">
        <ele>108</ele>
        <time>2016-10-09T12:19:48Z</time>
      </trkpt>
      <trkpt lat="43.37749" lon="6.64561">
        <ele>108.3</ele>
        <time>2016-10-09T12:19:50Z</time>
      </trkpt>
      <trkpt lat="43.37747" lon="6.64565">
        <ele>108.6</ele>
        <time>2016-10-09T12:19:52Z</time>
      </trkpt>
      <trkpt lat="43.37745" lon="6.64569">
        <ele>108.9</ele>
        <time>2016-10-09T12:19:54Z</time>
      </trkpt>
      <trkpt lat="43.37742" lon="6.64573">
        <ele>109.3</ele>
        <time>2016-10-09T12:19:56Z</time>
      </trkpt>
      <trkpt lat="43.37739" lon="6.64576">
        <ele>109.6</ele>
        <time>2016-10-09T12:19:58Z</time>
      </trkpt>
      <trkpt lat="43.37737" lon="6.64579">
        <ele>109.8</ele>
        <time>2016-10-09T12:20:00Z</time>
      </trkpt>
      <trkpt lat="43.37734" lon="6.64582">
        <ele>110.1</ele>
        <time>2016-10-09T12:20:02Z</time>
      </trkpt>
      <trkpt lat="43.3773" lon="6.64585">
        <ele>110.3</ele>
        <time>2016-10-09T12:20:04Z</time>
      </trkpt>
      <trkpt lat="43.37725" lon="6.64588">
        <ele>110.5</ele>
        <time>2016-10-09T12:20:06Z</time>
      </trkpt>
      <trkpt lat="43.37721" lon="6.6459">
        <ele>110.7</ele>
        <time>2016-10-09T12:20:08Z</time>
      </trkpt>
      <trkpt lat="43.37715" lon="6.64592">
        <ele>111</ele>
        <time>2016-10-09T12:20:10Z</time>
      </trkpt>
      <trkpt lat="43.37709" lon="6.64594">
        <ele>111.2</ele>
        <time>2016-10-09T12:20:12Z</time>
      </trkpt>
      <trkpt lat="43.37703" lon="6.64595">
        <ele>111.5</ele>
        <time>2016-10-09T12:20:14Z</time>
      </trkpt>
      <trkpt lat="43.37698" lon="6.64597">
        <ele>111.8</ele>
        <time>2016-10-09T12:20:16Z</time>
      </trkpt>
      <trkpt lat="43.37691" lon="6.64598">
        <ele>112.1</ele>
        <time>2016-10-09T12:20:18Z</time>
      </trkpt>
      <trkpt lat="43.37685" lon="6.64599">
        <ele>112.3</ele>
        <time>2016-10-09T12:20:20Z</time>
      </trkpt>
      <trkpt lat="43.37679" lon="6.64598">
        <ele>112.5</ele>
        <time>2016-10-09T12:20:22Z</time>
      </trkpt>
      <trkpt lat="43.37674" lon="6.64598">
        <ele>112.8</ele>
        <time>2016-10-09T12:20:24Z</time>
      </trkpt>
      <trkpt lat="43.37669" lon="6.64597">
        <ele>113.1</ele>
        <time>2016-10-09T12:20:26Z</time>
      </trkpt>
      <trkpt lat="43.37664" lon="6.64594">
        <ele>113.3</ele>
        <time>2016-10-09T12:20:28Z</time>
      </trkpt>
      <trkpt lat="43.3766" lon="6.64592">
        <ele>113.5</ele>
        <time>2016-10-09T12:20:30Z</time>
      </trkpt>
      <trkpt lat="43.37656" lon="6.6459">
        <ele>113.8</ele>
        <time>2016-10-09T12:20:32Z</time>
      </trkpt>
      <trkpt lat="43.37651" lon="6.64587">
        <ele>114</ele>
        <time>2016-10-09T12:20:34Z</time>
      </trkpt>
      <trkpt lat="43.37645" lon="6.64583">
        <ele>114.4</ele>
        <time>2016-10-09T12:20:36Z</time>
      </trkpt>
      <trkpt lat="43.37637" lon="6.6458">
        <ele>114.6</ele>
        <time>2016-10-09T12:20:38Z</time>
      </trkpt>
      <trkpt lat="43.37627" lon="6.64579">
        <ele>113.6</ele>
        <time>2016-10-09T12:20:40Z</time>
      </trkpt>
      <trkpt lat="43.37618" lon="6.64579">
        <ele>112.9</ele>
        <time>2016-10-09T12:20:42Z</time>
      </trkpt>
      <trkpt lat="43.37608" lon="6.64581">
        <ele>112.5</ele>
        <time>2016-10-09T12:20:44Z</time>
      </trkpt>
      <trkpt lat="43.37597" lon="6.64584">
        <ele>112.1</ele>
        <time>2016-10-09T12:20:46Z</time>
      </trkpt>
      <trkpt lat="43.37586" lon="6.64588">
        <ele>111.7</ele>
        <time>2016-10-09T12:20:48Z</time>
      </trkpt>
      <trkpt lat="43.37575" lon="6.64593">
        <ele>111.3</ele>
        <time>2016-10-09T12:20:50Z</time>
      </trkpt>
      <trkpt lat="43.37565" lon="6.64601">
        <ele>110.8</ele>
        <time>2016-10-09T12:20:52Z</time>
      </trkpt>
      <trkpt lat="43.37556" lon="6.64609">
        <ele>110.4</ele>
        <time>2016-10-09T12:20:54Z</time>
      </trkpt>
      <trkpt lat="43.37547" lon="6.64616">
        <ele>109.7</ele>
        <time>2016-10-09T12:20:56Z</time>
      </trkpt>
      <trkpt lat="43.37538" lon="6.64623">
        <ele>108.8</ele>
        <time>2016-10-09T12:20:58Z</time>
      </trkpt>
      <trkpt lat="43.37529" lon="6.64631">
        <ele>108</ele>
        <time>2016-10-09T12:21:00Z</time>
      </trkpt>
      <trkpt lat="43.37521" lon="6.64637">
        <ele>107.4</ele>
        <time>2016-10-09T12:21:02Z</time>
      </trkpt>
      <trkpt lat="43.37513" lon="6.64644">
        <ele>107.2</ele>
        <time>2016-10-09T12:21:04Z</time>
      </trkpt>
      <trkpt lat="43.37504" lon="6.64651">
        <ele>107.1</ele>
        <time>2016-10-09T12:21:06Z</time>
      </trkpt>
      <trkpt lat="43.37496" lon="6.64657">
        <ele>107.2</ele>
        <time>2016-10-09T12:21:08Z</time>
      </trkpt>
      <trkpt lat="43.37489" lon="6.64663">
        <ele>107.5</ele>
        <time>2016-10-09T12:21:10Z</time>
      </trkpt>
      <trkpt lat="43.37483" lon="6.64668">
        <ele>107.8</ele>
        <time>2016-10-09T12:21:12Z</time>
      </trkpt>
      <trkpt lat="43.37476" lon="6.64672">
        <ele>108.1</ele>
        <time>2016-10-09T12:21:14Z</time>
      </trkpt>
      <trkpt lat="43.3747" lon="6.64677">
        <ele>108.5</ele>
        <time>2016-10-09T12:21:16Z</time>
      </trkpt>
      <trkpt lat="43.37462" lon="6.64682">
        <ele>109</ele>
        <time>2016-10-09T12:21:18Z</time>
      </trkpt>
      <trkpt lat="43.37455" lon="6.64688">
        <ele>109.4</ele>
        <time>2016-10-09T12:21:20Z</time>
      </trkpt>
      <trkpt lat="43.37448" lon="6.64694">
        <ele>109.6</ele>
        <time>2016-10-09T12:21:22Z</time>
      </trkpt>
      <trkpt lat="43.37441" lon="6.647">
        <ele>109.6</ele>
        <time>2016-10-09T12:21:24Z</time>
      </trkpt>
      <trkpt lat="43.37434" lon="6.64706">
        <ele>109.5</ele>
        <time>2016-10-09T12:21:26Z</time>
      </trkpt>
      <trkpt lat="43.37428" lon="6.64712">
        <ele>109.4</ele>
        <time>2016-10-09T12:21:28Z</time>
      </trkpt>
      <trkpt lat="43.3742" lon="6.64717">
        <ele>109.4</ele>
        <time>2016-10-09T12:21:30Z</time>
      </trkpt>
      <trkpt lat="43.37413" lon="6.64723">
        <ele>109.3</ele>
        <time>2016-10-09T12:21:32Z</time>
      </trkpt>
      <trkpt lat="43.37406" lon="6.64728">
        <ele>109.3</ele>
        <time>2016-10-09T12:21:34Z</time>
      </trkpt>
      <trkpt lat="43.37399" lon="6.64734">
        <ele>109.4</ele>
        <time>2016-10-09T12:21:36Z</time>
      </trkpt>
      <trkpt lat="43.37392" lon="6.64741">
        <ele>109.4</ele>
        <time>2016-10-09T12:21:38Z</time>
      </trkpt>
      <trkpt lat="43.37385" lon="6.64748">
        <ele>109.4</ele>
        <time>2016-10-09T12:21:40Z</time>
      </trkpt>
      <trkpt lat="43.37377" lon="6.64755">
        <ele>109</ele>
        <time>2016-10-09T12:21:42Z</time>
      </trkpt>
      <trkpt lat="43.37369" lon="6.64762">
        <ele>108.1</ele>
        <time>2016-10-09T12:21:44Z</time>
      </trkpt>
      <trkpt lat="43.37361" lon="6.64766">
        <ele>107.2</ele>
        <time>2016-10-09T12:21:46Z</time>
      </trkpt>
      <trkpt lat="43.37352" lon="6.64767">
        <ele>106.4</ele>
        <time>2016-10-09T12:21:48Z</time>
      </trkpt>
      <trkpt lat="43.37344" lon="6.64767">
        <ele>105.9</ele>
        <time>2016-10-09T12:21:50Z</time>
      </trkpt>
      <trkpt lat="43.37335" lon="6.64768">
        <ele>105.8</ele>
        <time>2016-10-09T12:21:52Z</time>
      </trkpt>
      <trkpt lat="43.37327" lon="6.64768">
        <ele>105.8</ele>
        <time>2016-10-09T12:21:54Z</time>
      </trkpt>
      <trkpt lat="43.37319" lon="6.64769">
        <ele>105.9</ele>
        <time>2016-10-09T12:21:56Z</time>
      </trkpt>
      <trkpt lat="43.37312" lon="6.64771">
        <ele>106</ele>
        <time>2016-10-09T12:21:58Z</time>
      </trkpt>
      <trkpt lat="43.37303" lon="6.64772">
        <ele>106</ele>
        <time>2016-10-09T12:22:00Z</time>
      </trkpt>
      <trkpt lat="43.37293" lon="6.64773">
        <ele>106</ele>
        <time>2016-10-09T12:22:02Z</time>
      </trkpt>
      <trkpt lat="43.37283" lon="6.64772">
        <ele>106</ele>
        <time>2016-10-09T12:22:04Z</time>
      </trkpt>
      <trkpt lat="43.37277" lon="6.64768">
        <ele>106.5</ele>
        <time>2016-10-09T12:22:06Z</time>
      </trkpt>
      <trkpt lat="43.37271" lon="6.64764">
        <ele>107.8</ele>
        <time>2016-10-09T12:22:08Z</time>
      </trkpt>
      <trkpt lat="43.37266" lon="6.64758">
        <ele>108.9</ele>
        <time>2016-10-09T12:22:10Z</time>
      </trkpt>
      <trkpt lat="43.37262" lon="6.64752">
        <ele>109.9</ele>
        <time>2016-10-09T12:22:12Z</time>
      </trkpt>
      <trkpt lat="43.37258" lon="6.64746">
        <ele>110.7</ele>
        <time>2016-10-09T12:22:14Z</time>
      </trkpt>
      <trkpt lat="43.37254" lon="6.6474">
        <ele>111.2</ele>
        <time>2016-10-09T12:22:16Z</time>
      </trkpt>
      <trkpt lat="43.37249" lon="6.64733">
        <ele>111.7</ele>
        <time>2016-10-09T12:22:18Z</time>
      </trkpt>
      <trkpt lat="43.37245" lon="6.64726">
        <ele>112</ele>
        <time>2016-10-09T12:22:20Z</time>
      </trkpt>
      <trkpt lat="43.37241" lon="6.64719">
        <ele>112.4</ele>
        <time>2016-10-09T12:22:22Z</time>
      </trkpt>
      <trkpt lat="43.37236" lon="6.64711">
        <ele>112.8</ele>
        <time>2016-10-09T12:22:24Z</time>
      </trkpt>
      <trkpt lat="43.37232" lon="6.64704">
        <ele>113.1</ele>
        <time>2016-10-09T12:22:26Z</time>
      </trkpt>
      <trkpt lat="43.37227" lon="6.64699">
        <ele>113.4</ele>
        <time>2016-10-09T12:22:28Z</time>
      </trkpt>
      <trkpt lat="43.37221" lon="6.64697">
        <ele>113.8</ele>
        <time>2016-10-09T12:22:30Z</time>
      </trkpt>
      <trkpt lat="43.37215" lon="6.64697">
        <ele>114.1</ele>
        <time>2016-10-09T12:22:32Z</time>
      </trkpt>
      <trkpt lat="43.37208" lon="6.64699">
        <ele>114.5</ele>
        <time>2016-10-09T12:22:34Z</time>
      </trkpt>
      <trkpt lat="43.37201" lon="6.647">
        <ele>114.9</ele>
        <time>2016-10-09T12:22:36Z</time>
      </trkpt>
      <trkpt lat="43.37195" lon="6.64702">
        <ele>115.3</ele>
        <time>2016-10-09T12:22:38Z</time>
      </trkpt>
      <trkpt lat="43.3719" lon="6.64704">
        <ele>115.9</ele>
        <time>2016-10-09T12:22:40Z</time>
      </trkpt>
      <trkpt lat="43.37184" lon="6.64706">
        <ele>116.6</ele>
        <time>2016-10-09T12:22:42Z</time>
      </trkpt>
      <trkpt lat="43.37178" lon="6.64708">
        <ele>117.5</ele>
        <time>2016-10-09T12:22:44Z</time>
      </trkpt>
      <trkpt lat="43.37172" lon="6.64712">
        <ele>118.6</ele>
        <time>2016-10-09T12:22:46Z</time>
      </trkpt>
      <trkpt lat="43.37167" lon="6.64714">
        <ele>119.6</ele>
        <time>2016-10-09T12:22:48Z</time>
      </trkpt>
      <trkpt lat="43.37162" lon="6.64717">
        <ele>120.7</ele>
        <time>2016-10-09T12:22:50Z</time>
      </trkpt>
      <trkpt lat="43.37156" lon="6.6472">
        <ele>121.1</ele>
        <time>2016-10-09T12:22:52Z</time>
      </trkpt>
      <trkpt lat="43.37149" lon="6.64724">
        <ele>121.2</ele>
        <time>2016-10-09T12:22:54Z</time>
      </trkpt>
      <trkpt lat="43.37142" lon="6.64726">
        <ele>121.2</ele>
        <time>2016-10-09T12:22:56Z</time>
      </trkpt>
      <trkpt lat="43.37135" lon="6.64729">
        <ele>121.4</ele>
        <time>2016-10-09T12:22:58Z</time>
      </trkpt>
      <trkpt lat="43.37128" lon="6.64731">
        <ele>121.5</ele>
        <time>2016-10-09T12:23:00Z</time>
      </trkpt>
      <trkpt lat="43.3712" lon="6.64733">
        <ele>121.6</ele>
        <time>2016-10-09T12:23:02Z</time>
      </trkpt>
      <trkpt lat="43.37112" lon="6.64737">
        <ele>121.7</ele>
        <time>2016-10-09T12:23:04Z</time>
      </trkpt>
      <trkpt lat="43.37105" lon="6.64741">
        <ele>121.9</ele>
        <time>2016-10-09T12:23:06Z</time>
      </trkpt>
      <trkpt lat="43.37098" lon="6.64745">
        <ele>122.2</ele>
        <time>2016-10-09T12:23:08Z</time>
      </trkpt>
      <trkpt lat="43.37091" lon="6.64749">
        <ele>122.6</ele>
        <time>2016-10-09T12:23:10Z</time>
      </trkpt>
      <trkpt lat="43.37085" lon="6.64753">
        <ele>122.8</ele>
        <time>2016-10-09T12:23:12Z</time>
      </trkpt>
      <trkpt lat="43.37079" lon="6.64757">
        <ele>123</ele>
        <time>2016-10-09T12:23:14Z</time>
      </trkpt>
      <trkpt lat="43.37073" lon="6.64761">
        <ele>123.1</ele>
        <time>2016-10-09T12:23:16Z</time>
      </trkpt>
      <trkpt lat="43.37067" lon="6.64766">
        <ele>123</ele>
        <time>2016-10-09T12:23:18Z</time>
      </trkpt>
      <trkpt lat="43.37059" lon="6.64769">
        <ele>122.9</ele>
        <time>2016-10-09T12:23:20Z</time>
      </trkpt>
      <trkpt lat="43.37052" lon="6.64772">
        <ele>122.6</ele>
        <time>2016-10-09T12:23:22Z</time>
      </trkpt>
      <trkpt lat="43.37046" lon="6.64773">
        <ele>122.3</ele>
        <time>2016-10-09T12:23:24Z</time>
      </trkpt>
      <trkpt lat="43.37039" lon="6.64774">
        <ele>121.8</ele>
        <time>2016-10-09T12:23:26Z</time>
      </trkpt>
      <trkpt lat="43.37032" lon="6.64775">
        <ele>121.4</ele>
        <time>2016-10-09T12:23:28Z</time>
      </trkpt>
      <trkpt lat="43.37026" lon="6.64775">
        <ele>120.9</ele>
        <time>2016-10-09T12:23:30Z</time>
      </trkpt>
      <trkpt lat="43.37018" lon="6.64774">
        <ele>120.5</ele>
        <time>2016-10-09T12:23:32Z</time>
      </trkpt>
      <trkpt lat="43.37011" lon="6.64773">
        <ele>120.1</ele>
        <time>2016-10-09T12:23:34Z</time>
      </trkpt>
      <trkpt lat="43.37003" lon="6.6477">
        <ele>119.8</ele>
        <time>2016-10-09T12:23:36Z</time>
      </trkpt>
      <trkpt lat="43.36996" lon="6.64768">
        <ele>119.8</ele>
        <time>2016-10-09T12:23:38Z</time>
      </trkpt>
      <trkpt lat="43.36988" lon="6.64765">
        <ele>119.8</ele>
        <time>2016-10-09T12:23:40Z</time>
      </trkpt>
      <trkpt lat="43.36981" lon="6.64763">
        <ele>119.8</ele>
        <time>2016-10-09T12:23:42Z</time>
      </trkpt>
      <trkpt lat="43.36974" lon="6.64761">
        <ele>119.9</ele>
        <time>2016-10-09T12:23:44Z</time>
      </trkpt>
      <trkpt lat="43.36966" lon="6.6476">
        <ele>120</ele>
        <time>2016-10-09T12:23:46Z</time>
      </trkpt>
      <trkpt lat="43.36959" lon="6.6476">
        <ele>120.1</ele>
        <time>2016-10-09T12:23:48Z</time>
      </trkpt>
      <trkpt lat="43.36951" lon="6.6476">
        <ele>120.7</ele>
        <time>2016-10-09T12:23:50Z</time>
      </trkpt>
      <trkpt lat="43.36944" lon="6.64761">
        <ele>121.5</ele>
        <time>2016-10-09T12:23:52Z</time>
      </trkpt>
      <trkpt lat="43.36937" lon="6.64762">
        <ele>122.3</ele>
        <time>2016-10-09T12:23:54Z</time>
      </trkpt>
      <trkpt lat="43.3693" lon="6.64764">
        <ele>123</ele>
        <time>2016-10-09T12:23:56Z</time>
      </trkpt>
      <trkpt lat="43.36923" lon="6.64767">
        <ele>123.4</ele>
        <time>2016-10-09T12:23:58Z</time>
      </trkpt>
      <trkpt lat="43.36915" lon="6.6477">
        <ele>123.8</ele>
        <time>2016-10-09T12:24:00Z</time>
      </trkpt>
      <trkpt lat="43.36908" lon="6.64774">
        <ele>123.9</ele>
        <time>2016-10-09T12:24:02Z</time>
      </trkpt>
      <trkpt lat="43.36902" lon="6.64778">
        <ele>123.9</ele>
        <time>2016-10-09T12:24:04Z</time>
      </trkpt>
      <trkpt lat="43.36896" lon="6.64781">
        <ele>124</ele>
        <time>2016-10-09T12:24:06Z</time>
      </trkpt>
      <trkpt lat="43.3689" lon="6.64785">
        <ele>124</ele>
        <time>2016-10-09T12:24:08Z</time>
      </trkpt>
      <trkpt lat="43.36885" lon="6.6479">
        <ele>123.9</ele>
        <time>2016-10-09T12:24:10Z</time>
      </trkpt>
      <trkpt lat="43.36881" lon="6.64797">
        <ele>123.2</ele>
        <time>2016-10-09T12:24:12Z</time>
      </trkpt>
      <trkpt lat="43.36876" lon="6.64804">
        <ele>122.3</ele>
        <time>2016-10-09T12:24:14Z</time>
      </trkpt>
      <trkpt lat="43.36873" lon="6.64812">
        <ele>121.5</ele>
        <time>2016-10-09T12:24:16Z</time>
      </trkpt>
      <trkpt lat="43.36871" lon="6.64821">
        <ele>120.7</ele>
        <time>2016-10-09T12:24:18Z</time>
      </trkpt>
      <trkpt lat="43.3687" lon="6.64829">
        <ele>120</ele>
        <time>2016-10-09T12:24:20Z</time>
      </trkpt>
      <trkpt lat="43.36868" lon="6.64837">
        <ele>119.1</ele>
        <time>2016-10-09T12:24:22Z</time>
      </trkpt>
      <trkpt lat="43.36866" lon="6.64845">
        <ele>118.5</ele>
        <time>2016-10-09T12:24:24Z</time>
      </trkpt>
      <trkpt lat="43.36865" lon="6.6485">
        <ele>118.1</ele>
        <time>2016-10-09T12:24:26Z</time>
      </trkpt>
      <trkpt lat="43.36862" lon="6.64855">
        <ele>117.7</ele>
        <time>2016-10-09T12:24:28Z</time>
      </trkpt>
      <trkpt lat="43.36858" lon="6.64858">
        <ele>117.3</ele>
        <time>2016-10-09T12:24:30Z</time>
      </trkpt>
      <trkpt lat="43.36854" lon="6.64862">
        <ele>117</ele>
        <time>2016-10-09T12:24:32Z</time>
      </trkpt>
      <trkpt lat="43.36848" lon="6.64863">
        <ele>117.1</ele>
        <time>2016-10-09T12:24:34Z</time>
      </trkpt>
      <trkpt lat="43.3684" lon="6.64863">
        <ele>117.1</ele>
        <time>2016-10-09T12:24:36Z</time>
      </trkpt>
      <trkpt lat="43.36833" lon="6.64865">
        <ele>117.2</ele>
        <time>2016-10-09T12:24:38Z</time>
      </trkpt>
      <trkpt lat="43.36826" lon="6.64867">
        <ele>117.3</ele>
        <time>2016-10-09T12:24:40Z</time>
      </trkpt>
      <trkpt lat="43.36819" lon="6.6487">
        <ele>117.4</ele>
        <time>2016-10-09T12:24:42Z</time>
      </trkpt>
      <trkpt lat="43.36813" lon="6.64871">
        <ele>117.7</ele>
        <time>2016-10-09T12:24:44Z</time>
      </trkpt>
      <trkpt lat="43.36806" lon="6.64873">
        <ele>117.9</ele>
        <time>2016-10-09T12:24:46Z</time>
      </trkpt>
      <trkpt lat="43.368" lon="6.64875">
        <ele>118.1</ele>
        <time>2016-10-09T12:24:48Z</time>
      </trkpt>
      <trkpt lat="43.36794" lon="6.64877">
        <ele>118.3</ele>
        <time>2016-10-09T12:24:50Z</time>
      </trkpt>
      <trkpt lat="43.36788" lon="6.64878">
        <ele>118.4</ele>
        <time>2016-10-09T12:24:52Z</time>
      </trkpt>
      <trkpt lat="43.36782" lon="6.64878">
        <ele>118.5</ele>
        <time>2016-10-09T12:24:54Z</time>
      </trkpt>
      <trkpt lat="43.36776" lon="6.64879">
        <ele>118.5</ele>
        <time>2016-10-09T12:24:56Z</time>
      </trkpt>
      <trkpt lat="43.3677" lon="6.64879">
        <ele>118.6</ele>
        <time>2016-10-09T12:24:58Z</time>
      </trkpt>
      <trkpt lat="43.36764" lon="6.6488">
        <ele>118.8</ele>
        <time>2016-10-09T12:25:00Z</time>
      </trkpt>
      <trkpt lat="43.36757" lon="6.64881">
        <ele>119</ele>
        <time>2016-10-09T12:25:02Z</time>
      </trkpt>
      <trkpt lat="43.36751" lon="6.64881">
        <ele>119.2</ele>
        <time>2016-10-09T12:25:04Z</time>
      </trkpt>
      <trkpt lat="43.36744" lon="6.6488">
        <ele>119.4</ele>
        <time>2016-10-09T12:25:06Z</time>
      </trkpt>
      <trkpt lat="43.36738" lon="6.64881">
        <ele>119.6</ele>
        <time>2016-10-09T12:25:08Z</time>
      </trkpt>
      <trkpt lat="43.36731" lon="6.64882">
        <ele>119.8</ele>
        <time>2016-10-09T12:25:10Z</time>
      </trkpt>
      <trkpt lat="43.36726" lon="6.64884">
        <ele>120</ele>
        <time>2016-10-09T12:25:12Z</time>
      </trkpt>
      <trkpt lat="43.3672" lon="6.64886">
        <ele>120.2</ele>
        <time>2016-10-09T12:25:14Z</time>
      </trkpt>
      <trkpt lat="43.36714" lon="6.64888">
        <ele>120.3</ele>
        <time>2016-10-09T12:25:16Z</time>
      </trkpt>
      <trkpt lat="43.36709" lon="6.6489">
        <ele>120.5</ele>
        <time>2016-10-09T12:25:18Z</time>
      </trkpt>
      <trkpt lat="43.36704" lon="6.64892">
        <ele>120.6</ele>
        <time>2016-10-09T12:25:20Z</time>
      </trkpt>
      <trkpt lat="43.36699" lon="6.64894">
        <ele>120.7</ele>
        <time>2016-10-09T12:25:22Z</time>
      </trkpt>
      <trkpt lat="43.36694" lon="6.64896">
        <ele>120.8</ele>
        <time>2016-10-09T12:25:24Z</time>
      </trkpt>
      <trkpt lat="43.36689" lon="6.64898">
        <ele>120.8</ele>
        <time>2016-10-09T12:25:26Z</time>
      </trkpt>
      <trkpt lat="43.36683" lon="6.64901">
        <ele>120.8</ele>
        <time>2016-10-09T12:25:28Z</time>
      </trkpt>
      <trkpt lat="43.36678" lon="6.64903">
        <ele>120.8</ele>
        <time>2016-10-09T12:25:30Z</time>
      </trkpt>
      <trkpt lat="43.36673" lon="6.64906">
        <ele>120.8</ele>
        <time>2016-10-09T12:25:32Z</time>
      </trkpt>
      <trkpt lat="43.36668" lon="6.64908">
        <ele>120.8</ele>
        <time>2016-10-09T12:25:34Z</time>
      </trkpt>
      <trkpt lat="43.36663" lon="6.64911">
        <ele>120.9</ele>
        <time>2016-10-09T12:25:36Z</time>
      </trkpt>
      <trkpt lat="43.36657" lon="6.64914">
        <ele>120.9</ele>
        <time>2016-10-09T12:25:38Z</time>
      </trkpt>
      <trkpt lat="43.36652" lon="6.64917">
        <ele>120.9</ele>
        <time>2016-10-09T12:25:40Z</time>
      </trkpt>
      <trkpt lat="43.36646" lon="6.6492">
        <ele>120.9</ele>
        <time>2016-10-09T12:25:42Z</time>
      </trkpt>
      <trkpt lat="43.36639" lon="6.64923">
        <ele>120.9</ele>
        <time>2016-10-09T12:25:44Z</time>
      </trkpt>
      <trkpt lat="43.36632" lon="6.64926">
        <ele>121</ele>
        <time>2016-10-09T12:25:46Z</time>
      </trkpt>
      <trkpt lat="43.36625" lon="6.6493">
        <ele>121</ele>
        <time>2016-10-09T12:25:48Z</time>
      </trkpt>
      <trkpt lat="43.36617" lon="6.64934">
        <ele>121.1</ele>
        <time>2016-10-09T12:25:50Z</time>
      </trkpt>
      <trkpt lat="43.3661" lon="6.64939">
        <ele>121.2</ele>
        <time>2016-10-09T12:25:52Z</time>
      </trkpt>
      <trkpt lat="43.36604" lon="6.64943">
        <ele>121.3</ele>
        <time>2016-10-09T12:25:54Z</time>
      </trkpt>
      <trkpt lat="43.36598" lon="6.64947">
        <ele>121.8</ele>
        <time>2016-10-09T12:25:56Z</time>
      </trkpt>
      <trkpt lat="43.36593" lon="6.64951">
        <ele>122.4</ele>
        <time>2016-10-09T12:25:58Z</time>
      </trkpt>
      <trkpt lat="43.36587" lon="6.64955">
        <ele>123.2</ele>
        <time>2016-10-09T12:26:00Z</time>
      </trkpt>
      <trkpt lat="43.36583" lon="6.64959">
        <ele>124.4</ele>
        <time>2016-10-09T12:26:02Z</time>
      </trkpt>
      <trkpt lat="43.36578" lon="6.64964">
        <ele>126.1</ele>
        <time>2016-10-09T12:26:04Z</time>
      </trkpt>
      <trkpt lat="43.36574" lon="6.64969">
        <ele>127.5</ele>
        <time>2016-10-09T12:26:06Z</time>
      </trkpt>
      <trkpt lat="43.3657" lon="6.64974">
        <ele>128.6</ele>
        <time>2016-10-09T12:26:08Z</time>
      </trkpt>
      <trkpt lat="43.36567" lon="6.64979">
        <ele>129.6</ele>
        <time>2016-10-09T12:26:10Z</time>
      </trkpt>
      <trkpt lat="43.36565" lon="6.64985">
        <ele>130.3</ele>
        <time>2016-10-09T12:26:12Z</time>
      </trkpt>
      <trkpt lat="43.36564" lon="6.64992">
        <ele>130.8</ele>
        <time>2016-10-09T12:26:14Z</time>
      </trkpt>
      <trkpt lat="43.36563" lon="6.65">
        <ele>131.3</ele>
        <time>2016-10-09T12:26:16Z</time>
      </trkpt>
      <trkpt lat="43.36563" lon="6.65009">
        <ele>131.7</ele>
        <time>2016-10-09T12:26:18Z</time>
      </trkpt>
      <trkpt lat="43.36563" lon="6.65017">
        <ele>132.1</ele>
        <time>2016-10-09T12:26:20Z</time>
      </trkpt>
      <trkpt lat="43.36563" lon="6.65025">
        <ele>132.4</ele>
        <time>2016-10-09T12:26:22Z</time>
      </trkpt>
      <trkpt lat="43.36564" lon="6.65033">
        <ele>132.8</ele>
        <time>2016-10-09T12:26:24Z</time>
      </trkpt>
      <trkpt lat="43.36565" lon="6.65041">
        <ele>133.3</ele>
        <time>2016-10-09T12:26:26Z</time>
      </trkpt>
      <trkpt lat="43.36565" lon="6.65049">
        <ele>133.7</ele>
        <time>2016-10-09T12:26:28Z</time>
      </trkpt>
      <trkpt lat="43.36566" lon="6.65057">
        <ele>134.1</ele>
        <time>2016-10-09T12:26:30Z</time>
      </trkpt>
      <trkpt lat="43.36567" lon="6.65065">
        <ele>134.6</ele>
        <time>2016-10-09T12:26:32Z</time>
      </trkpt>
      <trkpt lat="43.36567" lon="6.65074">
        <ele>135.1</ele>
        <time>2016-10-09T12:26:34Z</time>
      </trkpt>
      <trkpt lat="43.36568" lon="6.65082">
        <ele>136.1</ele>
        <time>2016-10-09T12:26:36Z</time>
      </trkpt>
      <trkpt lat="43.36569" lon="6.65091">
        <ele>137</ele>
        <time>2016-10-09T12:26:38Z</time>
      </trkpt>
      <trkpt lat="43.36571" lon="6.65099">
        <ele>137.3</ele>
        <time>2016-10-09T12:26:40Z</time>
      </trkpt>
      <trkpt lat="43.36573" lon="6.65107">
        <ele>137.6</ele>
        <time>2016-10-09T12:26:42Z</time>
      </trkpt>
      <trkpt lat="43.36576" lon="6.65115">
        <ele>138</ele>
        <time>2016-10-09T12:26:44Z</time>
      </trkpt>
      <trkpt lat="43.36578" lon="6.65122">
        <ele>138.4</ele>
        <time>2016-10-09T12:26:46Z</time>
      </trkpt>
      <trkpt lat="43.3658" lon="6.6513">
        <ele>138.6</ele>
        <time>2016-10-09T12:26:48Z</time>
      </trkpt>
      <trkpt lat="43.36581" lon="6.65139">
        <ele>138.6</ele>
        <time>2016-10-09T12:26:50Z</time>
      </trkpt>
      <trkpt lat="43.36582" lon="6.65147">
        <ele>138.7</ele>
        <time>2016-10-09T12:26:52Z</time>
      </trkpt>
      <trkpt lat="43.36583" lon="6.65156">
        <ele>138.7</ele>
        <time>2016-10-09T12:26:54Z</time>
      </trkpt>
      <trkpt lat="43.36584" lon="6.65164">
        <ele>138.8</ele>
        <time>2016-10-09T12:26:56Z</time>
      </trkpt>
      <trkpt lat="43.36585" lon="6.65173">
        <ele>138.8</ele>
        <time>2016-10-09T12:26:58Z</time>
      </trkpt>
      <trkpt lat="43.36585" lon="6.65181">
        <ele>138.9</ele>
        <time>2016-10-09T12:27:00Z</time>
      </trkpt>
      <trkpt lat="43.36586" lon="6.65189">
        <ele>139</ele>
        <time>2016-10-09T12:27:02Z</time>
      </trkpt>
      <trkpt lat="43.36587" lon="6.65199">
        <ele>139.1</ele>
        <time>2016-10-09T12:27:04Z</time>
      </trkpt>
      <trkpt lat="43.36586" lon="6.65208">
        <ele>139.3</ele>
        <time>2016-10-09T12:27:06Z</time>
      </trkpt>
      <trkpt lat="43.36586" lon="6.65217">
        <ele>139.4</ele>
        <time>2016-10-09T12:27:08Z</time>
      </trkpt>
      <trkpt lat="43.36585" lon="6.65225">
        <ele>139.7</ele>
        <time>2016-10-09T12:27:10Z</time>
      </trkpt>
      <trkpt lat="43.36585" lon="6.65234">
        <ele>140</ele>
        <time>2016-10-09T12:27:12Z</time>
      </trkpt>
      <trkpt lat="43.36584" lon="6.65242">
        <ele>140</ele>
        <time>2016-10-09T12:27:14Z</time>
      </trkpt>
      <trkpt lat="43.36584" lon="6.6525">
        <ele>140.1</ele>
        <time>2016-10-09T12:27:16Z</time>
      </trkpt>
      <trkpt lat="43.36583" lon="6.65258">
        <ele>140.1</ele>
        <time>2016-10-09T12:27:18Z</time>
      </trkpt>
      <trkpt lat="43.36583" lon="6.65266">
        <ele>140.2</ele>
        <time>2016-10-09T12:27:20Z</time>
      </trkpt>
      <trkpt lat="43.36582" lon="6.65274">
        <ele>140.3</ele>
        <time>2016-10-09T12:27:22Z</time>
      </trkpt>
      <trkpt lat="43.36581" lon="6.65281">
        <ele>140.4</ele>
        <time>2016-10-09T12:27:24Z</time>
      </trkpt>
      <trkpt lat="43.36581" lon="6.65289">
        <ele>140.5</ele>
        <time>2016-10-09T12:27:26Z</time>
      </trkpt>
      <trkpt lat="43.36582" lon="6.65296">
        <ele>140.6</ele>
        <time>2016-10-09T12:27:28Z</time>
      </trkpt>
      <trkpt lat="43.36583" lon="6.65303">
        <ele>140.8</ele>
        <time>2016-10-09T12:27:30Z</time>
      </trkpt>
      <trkpt lat="43.36585" lon="6.65311">
        <ele>141.1</ele>
        <time>2016-10-09T12:27:32Z</time>
      </trkpt>
      <trkpt lat="43.36588" lon="6.65317">
        <ele>141.4</ele>
        <time>2016-10-09T12:27:34Z</time>
      </trkpt>
      <trkpt lat="43.3659" lon="6.65325">
        <ele>141.7</ele>
        <time>2016-10-09T12:27:36Z</time>
      </trkpt>
      <trkpt lat="43.36593" lon="6.65333">
        <ele>141.9</ele>
        <time>2016-10-09T12:27:38Z</time>
      </trkpt>
      <trkpt lat="43.36594" lon="6.65342">
        <ele>142.1</ele>
        <time>2016-10-09T12:27:40Z</time>
      </trkpt>
      <trkpt lat="43.36594" lon="6.65352">
        <ele>142.2</ele>
        <time>2016-10-09T12:27:42Z</time>
      </trkpt>
      <trkpt lat="43.36595" lon="6.65362">
        <ele>142.4</ele>
        <time>2016-10-09T12:27:44Z</time>
      </trkpt>
      <trkpt lat="43.36595" lon="6.65372">
        <ele>142.7</ele>
        <time>2016-10-09T12:27:46Z</time>
      </trkpt>
      <trkpt lat="43.36595" lon="6.65382">
        <ele>143.1</ele>
        <time>2016-10-09T12:27:48Z</time>
      </trkpt>
      <trkpt lat="43.36595" lon="6.65391">
        <ele>143.3</ele>
        <time>2016-10-09T12:27:50Z</time>
      </trkpt>
      <trkpt lat="43.36595" lon="6.654">
        <ele>143.4</ele>
        <time>2016-10-09T12:27:52Z</time>
      </trkpt>
      <trkpt lat="43.36596" lon="6.65408">
        <ele>143.4</ele>
        <time>2016-10-09T12:27:54Z</time>
      </trkpt>
      <trkpt lat="43.36596" lon="6.65417">
        <ele>143.4</ele>
        <time>2016-10-09T12:27:56Z</time>
      </trkpt>
      <trkpt lat="43.36597" lon="6.65427">
        <ele>143.4</ele>
        <time>2016-10-09T12:27:58Z</time>
      </trkpt>
      <trkpt lat="43.36597" lon="6.65437">
        <ele>143.5</ele>
        <time>2016-10-09T12:28:00Z</time>
      </trkpt>
      <trkpt lat="43.36598" lon="6.65447">
        <ele>143.5</ele>
        <time>2016-10-09T12:28:02Z</time>
      </trkpt>
      <trkpt lat="43.36598" lon="6.65457">
        <ele>143.5</ele>
        <time>2016-10-09T12:28:04Z</time>
      </trkpt>
      <trkpt lat="43.36598" lon="6.65465">
        <ele>143.6</ele>
        <time>2016-10-09T12:28:06Z</time>
      </trkpt>
      <trkpt lat="43.366" lon="6.65472">
        <ele>143.6</ele>
        <time>2016-10-09T12:28:08Z</time>
      </trkpt>
      <trkpt lat="43.36602" lon="6.65478">
        <ele>143.7</ele>
        <time>2016-10-09T12:28:10Z</time>
      </trkpt>
      <trkpt lat="43.36603" lon="6.65483">
        <ele>143.8</ele>
        <time>2016-10-09T12:28:12Z</time>
      </trkpt>
      <trkpt lat="43.36606" lon="6.65489">
        <ele>143.9</ele>
        <time>2016-10-09T12:28:14Z</time>
      </trkpt>
      <trkpt lat="43.36607" lon="6.65495">
        <ele>144.2</ele>
        <time>2016-10-09T12:28:16Z</time>
      </trkpt>
      <trkpt lat="43.36609" lon="6.655">
        <ele>144.6</ele>
        <time>2016-10-09T12:28:18Z</time>
      </trkpt>
      <trkpt lat="43.3661" lon="6.65506">
        <ele>145</ele>
        <time>2016-10-09T12:28:20Z</time>
      </trkpt>
      <trkpt lat="43.36612" lon="6.65513">
        <ele>145.4</ele>
        <time>2016-10-09T12:28:23Z</time>
      </trkpt>
      <trkpt lat="43.36613" lon="6.65517">
        <ele>145.6</ele>
        <time>2016-10-09T12:28:25Z</time>
      </trkpt>
      <trkpt lat="43.36614" lon="6.65522">
        <ele>145.9</ele>
        <time>2016-10-09T12:28:27Z</time>
      </trkpt>
      <trkpt lat="43.36615" lon="6.65526">
        <ele>146.2</ele>
        <time>2016-10-09T12:28:29Z</time>
      </trkpt>
      <trkpt lat="43.36615" lon="6.65531">
        <ele>146.4</ele>
        <time>2016-10-09T12:28:31Z</time>
      </trkpt>
      <trkpt lat="43.36614" lon="6.65536">
        <ele>146.4</ele>
        <time>2016-10-09T12:28:33Z</time>
      </trkpt>
      <trkpt lat="43.36613" lon="6.65542">
        <ele>146.5</ele>
        <time>2016-10-09T12:28:35Z</time>
      </trkpt>
      <trkpt lat="43.36612" lon="6.65549">
        <ele>146.5</ele>
        <time>2016-10-09T12:28:37Z</time>
      </trkpt>
      <trkpt lat="43.36611" lon="6.65556">
        <ele>146.6</ele>
        <time>2016-10-09T12:28:39Z</time>
      </trkpt>
      <trkpt lat="43.3661" lon="6.65564">
        <ele>146.6</ele>
        <time>2016-10-09T12:28:41Z</time>
      </trkpt>
      <trkpt lat="43.3661" lon="6.65571">
        <ele>146.7</ele>
        <time>2016-10-09T12:28:43Z</time>
      </trkpt>
      <trkpt lat="43.36611" lon="6.6558">
        <ele>146.7</ele>
        <time>2016-10-09T12:28:45Z</time>
      </trkpt>
      <trkpt lat="43.36612" lon="6.65589">
        <ele>146.8</ele>
        <time>2016-10-09T12:28:47Z</time>
      </trkpt>
      <trkpt lat="43.36614" lon="6.65596">
        <ele>146.9</ele>
        <time>2016-10-09T12:28:49Z</time>
      </trkpt>
      <trkpt lat="43.36615" lon="6.656">
        <ele>147.1</ele>
        <time>2016-10-09T12:28:51Z</time>
      </trkpt>
      <trkpt lat="43.36617" lon="6.65605">
        <ele>147.3</ele>
        <time>2016-10-09T12:28:53Z</time>
      </trkpt>
      <trkpt lat="43.36618" lon="6.65609">
        <ele>147.7</ele>
        <time>2016-10-09T12:28:55Z</time>
      </trkpt>
      <trkpt lat="43.3662" lon="6.65614">
        <ele>148.1</ele>
        <time>2016-10-09T12:28:57Z</time>
      </trkpt>
      <trkpt lat="43.36622" lon="6.65618">
        <ele>148.4</ele>
        <time>2016-10-09T12:28:59Z</time>
      </trkpt>
      <trkpt lat="43.36624" lon="6.65622">
        <ele>148.6</ele>
        <time>2016-10-09T12:29:01Z</time>
      </trkpt>
      <trkpt lat="43.36626" lon="6.65627">
        <ele>149</ele>
        <time>2016-10-09T12:29:03Z</time>
      </trkpt>
      <trkpt lat="43.36628" lon="6.65631">
        <ele>149.3</ele>
        <time>2016-10-09T12:29:05Z</time>
      </trkpt>
      <trkpt lat="43.36629" lon="6.65636">
        <ele>149.5</ele>
        <time>2016-10-09T12:29:07Z</time>
      </trkpt>
      <trkpt lat="43.36631" lon="6.65641">
        <ele>149.6</ele>
        <time>2016-10-09T12:29:09Z</time>
      </trkpt>
      <trkpt lat="43.36632" lon="6.65645">
        <ele>149.7</ele>
        <time>2016-10-09T12:29:11Z</time>
      </trkpt>
      <trkpt lat="43.36634" lon="6.6565">
        <ele>149.8</ele>
        <time>2016-10-09T12:29:13Z</time>
      </trkpt>
      <trkpt lat="43.36635" lon="6.65655">
        <ele>149.9</ele>
        <time>2016-10-09T12:29:15Z</time>
      </trkpt>
      <trkpt lat="43.36636" lon="6.6566">
        <ele>150.1</ele>
        <time>2016-10-09T12:29:17Z</time>
      </trkpt>
      <trkpt lat="43.36638" lon="6.65665">
        <ele>150.4</ele>
        <time>2016-10-09T12:29:19Z</time>
      </trkpt>
      <trkpt lat="43.36639" lon="6.6567">
        <ele>150.7</ele>
        <time>2016-10-09T12:29:21Z</time>
      </trkpt>
      <trkpt lat="43.36642" lon="6.65676">
        <ele>151.1</ele>
        <time>2016-10-09T12:29:23Z</time>
      </trkpt>
      <trkpt lat="43.36644" lon="6.65681">
        <ele>151.2</ele>
        <time>2016-10-09T12:29:25Z</time>
      </trkpt>
      <trkpt lat="43.36647" lon="6.65687">
        <ele>151.4</ele>
        <time>2016-10-09T12:29:27Z</time>
      </trkpt>
      <trkpt lat="43.36649" lon="6.65694">
        <ele>151.4</ele>
        <time>2016-10-09T12:29:29Z</time>
      </trkpt>
      <trkpt lat="43.36652" lon="6.657">
        <ele>151.5</ele>
        <time>2016-10-09T12:29:31Z</time>
      </trkpt>
      <trkpt lat="43.36655" lon="6.65706">
        <ele>151.6</ele>
        <time>2016-10-09T12:29:33Z</time>
      </trkpt>
      <trkpt lat="43.36657" lon="6.65712">
        <ele>151.7</ele>
        <time>2016-10-09T12:29:35Z</time>
      </trkpt>
      <trkpt lat="43.3666" lon="6.65718">
        <ele>151.8</ele>
        <time>2016-10-09T12:29:37Z</time>
      </trkpt>
      <trkpt lat="43.36663" lon="6.65724">
        <ele>151.9</ele>
        <time>2016-10-09T12:29:39Z</time>
      </trkpt>
      <trkpt lat="43.36666" lon="6.65728">
        <ele>152</ele>
        <time>2016-10-09T12:29:41Z</time>
      </trkpt>
      <trkpt lat="43.36669" lon="6.65733">
        <ele>152.2</ele>
        <time>2016-10-09T12:29:43Z</time>
      </trkpt>
      <trkpt lat="43.36671" lon="6.65738">
        <ele>152.6</ele>
        <time>2016-10-09T12:29:45Z</time>
      </trkpt>
      <trkpt lat="43.36674" lon="6.65743">
        <ele>153</ele>
        <time>2016-10-09T12:29:47Z</time>
      </trkpt>
      <trkpt lat="43.36676" lon="6.65747">
        <ele>153.2</ele>
        <time>2016-10-09T12:29:49Z</time>
      </trkpt>
      <trkpt lat="43.36677" lon="6.65752">
        <ele>153.4</ele>
        <time>2016-10-09T12:29:51Z</time>
      </trkpt>
      <trkpt lat="43.36678" lon="6.65758">
        <ele>153.8</ele>
        <time>2016-10-09T12:29:53Z</time>
      </trkpt>
      <trkpt lat="43.36679" lon="6.65763">
        <ele>154.2</ele>
        <time>2016-10-09T12:29:55Z</time>
      </trkpt>
      <trkpt lat="43.36678" lon="6.65769">
        <ele>154.5</ele>
        <time>2016-10-09T12:29:57Z</time>
      </trkpt>
      <trkpt lat="43.36678" lon="6.65775">
        <ele>154.7</ele>
        <time>2016-10-09T12:29:59Z</time>
      </trkpt>
      <trkpt lat="43.36676" lon="6.65781">
        <ele>154.9</ele>
        <time>2016-10-09T12:30:01Z</time>
      </trkpt>
      <trkpt lat="43.36674" lon="6.65787">
        <ele>155.2</ele>
        <time>2016-10-09T12:30:03Z</time>
      </trkpt>
      <trkpt lat="43.36671" lon="6.65792">
        <ele>155.5</ele>
        <time>2016-10-09T12:30:05Z</time>
      </trkpt>
      <trkpt lat="43.36668" lon="6.65798">
        <ele>156.1</ele>
        <time>2016-10-09T12:30:07Z</time>
      </trkpt>
      <trkpt lat="43.36666" lon="6.65803">
        <ele>156.5</ele>
        <time>2016-10-09T12:30:09Z</time>
      </trkpt>
      <trkpt lat="43.36663" lon="6.65808">
        <ele>156.7</ele>
        <time>2016-10-09T12:30:11Z</time>
      </trkpt>
      <trkpt lat="43.3666" lon="6.65812">
        <ele>156.9</ele>
        <time>2016-10-09T12:30:13Z</time>
      </trkpt>
      <trkpt lat="43.36657" lon="6.65817">
        <ele>157</ele>
        <time>2016-10-09T12:30:15Z</time>
      </trkpt>
      <trkpt lat="43.36655" lon="6.65822">
        <ele>157.2</ele>
        <time>2016-10-09T12:30:17Z</time>
      </trkpt>
      <trkpt lat="43.36654" lon="6.65828">
        <ele>157.6</ele>
        <time>2016-10-09T12:30:19Z</time>
      </trkpt>
      <trkpt lat="43.36652" lon="6.65834">
        <ele>157.9</ele>
        <time>2016-10-09T12:30:21Z</time>
      </trkpt>
      <trkpt lat="43.36651" lon="6.6584">
        <ele>158.1</ele>
        <time>2016-10-09T12:30:23Z</time>
      </trkpt>
      <trkpt lat="43.36649" lon="6.65847">
        <ele>158.3</ele>
        <time>2016-10-09T12:30:25Z</time>
      </trkpt>
      <trkpt lat="43.36648" lon="6.65855">
        <ele>158.3</ele>
        <time>2016-10-09T12:30:27Z</time>
      </trkpt>
      <trkpt lat="43.36649" lon="6.65863">
        <ele>158.4</ele>
        <time>2016-10-09T12:30:29Z</time>
      </trkpt>
      <trkpt lat="43.36652" lon="6.6587">
        <ele>158.5</ele>
        <time>2016-10-09T12:30:31Z</time>
      </trkpt>
      <trkpt lat="43.36656" lon="6.65874">
        <ele>158.6</ele>
        <time>2016-10-09T12:30:33Z</time>
      </trkpt>
      <trkpt lat="43.3666" lon="6.65875">
        <ele>158.7</ele>
        <time>2016-10-09T12:30:35Z</time>
      </trkpt>
      <trkpt lat="43.36664" lon="6.65874">
        <ele>159</ele>
        <time>2016-10-09T12:30:37Z</time>
      </trkpt>
      <trkpt lat="43.36668" lon="6.65872">
        <ele>159.3</ele>
        <time>2016-10-09T12:30:39Z</time>
      </trkpt>
      <trkpt lat="43.36671" lon="6.65871">
        <ele>159.5</ele>
        <time>2016-10-09T12:30:41Z</time>
      </trkpt>
      <trkpt lat="43.36675" lon="6.6587">
        <ele>159.8</ele>
        <time>2016-10-09T12:30:43Z</time>
      </trkpt>
      <trkpt lat="43.36678" lon="6.65868">
        <ele>160.1</ele>
        <time>2016-10-09T12:30:45Z</time>
      </trkpt>
      <trkpt lat="43.36682" lon="6.65866">
        <ele>160.4</ele>
        <time>2016-10-09T12:30:47Z</time>
      </trkpt>
      <trkpt lat="43.36686" lon="6.65864">
        <ele>160.6</ele>
        <time>2016-10-09T12:30:49Z</time>
      </trkpt>
      <trkpt lat="43.36689" lon="6.65862">
        <ele>161</ele>
        <time>2016-10-09T12:30:51Z</time>
      </trkpt>
      <trkpt lat="43.36693" lon="6.65861">
        <ele>161.3</ele>
        <time>2016-10-09T12:30:53Z</time>
      </trkpt>
      <trkpt lat="43.36697" lon="6.6586">
        <ele>161.6</ele>
        <time>2016-10-09T12:30:55Z</time>
      </trkpt>
      <trkpt lat="43.36701" lon="6.6586">
        <ele>161.8</ele>
        <time>2016-10-09T12:30:57Z</time>
      </trkpt>
      <trkpt lat="43.36704" lon="6.65862">
        <ele>161.9</ele>
        <time>2016-10-09T12:30:59Z</time>
      </trkpt>
      <trkpt lat="43.36707" lon="6.65866">
        <ele>162.1</ele>
        <time>2016-10-09T12:31:01Z</time>
      </trkpt>
      <trkpt lat="43.3671" lon="6.65868">
        <ele>162.3</ele>
        <time>2016-10-09T12:31:03Z</time>
      </trkpt>
      <trkpt lat="43.36712" lon="6.65872">
        <ele>162.6</ele>
        <time>2016-10-09T12:31:05Z</time>
      </trkpt>
      <trkpt lat="43.36714" lon="6.65876">
        <ele>163</ele>
        <time>2016-10-09T12:31:07Z</time>
      </trkpt>
      <trkpt lat="43.36715" lon="6.6588">
        <ele>163.4</ele>
        <time>2016-10-09T12:31:09Z</time>
      </trkpt>
      <trkpt lat="43.36717" lon="6.65884">
        <ele>163.7</ele>
        <time>2016-10-09T12:31:11Z</time>
      </trkpt>
      <trkpt lat="43.36718" lon="6.65888">
        <ele>163.9</ele>
        <time>2016-10-09T12:31:13Z</time>
      </trkpt>
      <trkpt lat="43.36719" lon="6.65892">
        <ele>164.1</ele>
        <time>2016-10-09T12:31:15Z</time>
      </trkpt>
      <trkpt lat="43.36721" lon="6.65896">
        <ele>164.5</ele>
        <time>2016-10-09T12:31:17Z</time>
      </trkpt>
      <trkpt lat="43.36722" lon="6.65899">
        <ele>164.8</ele>
        <time>2016-10-09T12:31:19Z</time>
      </trkpt>
      <trkpt lat="43.36723" lon="6.65903">
        <ele>165.2</ele>
        <time>2016-10-09T12:31:21Z</time>
      </trkpt>
      <trkpt lat="43.36724" lon="6.65907">
        <ele>165.4</ele>
        <time>2016-10-09T12:31:23Z</time>
      </trkpt>
      <trkpt lat="43.36726" lon="6.65911">
        <ele>165.7</ele>
        <time>2016-10-09T12:31:25Z</time>
      </trkpt>
      <trkpt lat="43.36726" lon="6.65915">
        <ele>166.1</ele>
        <time>2016-10-09T12:31:27Z</time>
      </trkpt>
      <trkpt lat="43.36728" lon="6.65919">
        <ele>166.4</ele>
        <time>2016-10-09T12:31:29Z</time>
      </trkpt>
      <trkpt lat="43.36729" lon="6.65922">
        <ele>166.8</ele>
        <time>2016-10-09T12:31:31Z</time>
      </trkpt>
      <trkpt lat="43.36729" lon="6.65926">
        <ele>166.9</ele>
        <time>2016-10-09T12:31:33Z</time>
      </trkpt>
      <trkpt lat="43.3673" lon="6.6593">
        <ele>167.1</ele>
        <time>2016-10-09T12:31:35Z</time>
      </trkpt>
      <trkpt lat="43.36731" lon="6.65934">
        <ele>167.2</ele>
        <time>2016-10-09T12:31:37Z</time>
      </trkpt>
      <trkpt lat="43.36732" lon="6.65938">
        <ele>167.3</ele>
        <time>2016-10-09T12:31:39Z</time>
      </trkpt>
      <trkpt lat="43.36733" lon="6.65942">
        <ele>167.6</ele>
        <time>2016-10-09T12:31:41Z</time>
      </trkpt>
      <trkpt lat="43.36734" lon="6.65946">
        <ele>167.9</ele>
        <time>2016-10-09T12:31:43Z</time>
      </trkpt>
      <trkpt lat="43.36735" lon="6.6595">
        <ele>168.3</ele>
        <time>2016-10-09T12:31:45Z</time>
      </trkpt>
      <trkpt lat="43.36736" lon="6.65954">
        <ele>168.5</ele>
        <time>2016-10-09T12:31:47Z</time>
      </trkpt>
      <trkpt lat="43.36737" lon="6.65959">
        <ele>168.7</ele>
        <time>2016-10-09T12:31:49Z</time>
      </trkpt>
      <trkpt lat="43.36738" lon="6.65962">
        <ele>168.9</ele>
        <time>2016-10-09T12:31:51Z</time>
      </trkpt>
      <trkpt lat="43.36739" lon="6.65966">
        <ele>169.3</ele>
        <time>2016-10-09T12:31:53Z</time>
      </trkpt>
      <trkpt lat="43.3674" lon="6.6597">
        <ele>169.8</ele>
        <time>2016-10-09T12:31:55Z</time>
      </trkpt>
      <trkpt lat="43.36741" lon="6.65975">
        <ele>170.3</ele>
        <time>2016-10-09T12:31:57Z</time>
      </trkpt>
      <trkpt lat="43.36742" lon="6.65979">
        <ele>170.8</ele>
        <time>2016-10-09T12:31:59Z</time>
      </trkpt>
      <trkpt lat="43.36744" lon="6.65984">
        <ele>171.3</ele>
        <time>2016-10-09T12:32:01Z</time>
      </trkpt>
      <trkpt lat="43.36746" lon="6.65989">
        <ele>171.7</ele>
        <time>2016-10-09T12:32:03Z</time>
      </trkpt>
      <trkpt lat="43.36747" lon="6.65994">
        <ele>171.9</ele>
        <time>2016-10-09T12:32:05Z</time>
      </trkpt>
      <trkpt lat="43.36747" lon="6.66">
        <ele>172.1</ele>
        <time>2016-10-09T12:32:07Z</time>
      </trkpt>
      <trkpt lat="43.36749" lon="6.66006">
        <ele>172.2</ele>
        <time>2016-10-09T12:32:09Z</time>
      </trkpt>
      <trkpt lat="43.36749" lon="6.66012">
        <ele>172.3</ele>
        <time>2016-10-09T12:32:11Z</time>
      </trkpt>
      <trkpt lat="43.3675" lon="6.66017">
        <ele>172.4</ele>
        <time>2016-10-09T12:32:13Z</time>
      </trkpt>
      <trkpt lat="43.36751" lon="6.66021">
        <ele>172.6</ele>
        <time>2016-10-09T12:32:15Z</time>
      </trkpt>
      <trkpt lat="43.36752" lon="6.66026">
        <ele>172.7</ele>
        <time>2016-10-09T12:32:17Z</time>
      </trkpt>
      <trkpt lat="43.36754" lon="6.6603">
        <ele>173</ele>
        <time>2016-10-09T12:32:19Z</time>
      </trkpt>
      <trkpt lat="43.36755" lon="6.66035">
        <ele>173.3</ele>
        <time>2016-10-09T12:32:21Z</time>
      </trkpt>
      <trkpt lat="43.36756" lon="6.66039">
        <ele>173.6</ele>
        <time>2016-10-09T12:32:23Z</time>
      </trkpt>
      <trkpt lat="43.36757" lon="6.66044">
        <ele>173.8</ele>
        <time>2016-10-09T12:32:25Z</time>
      </trkpt>
      <trkpt lat="43.36757" lon="6.66049">
        <ele>174</ele>
        <time>2016-10-09T12:32:27Z</time>
      </trkpt>
      <trkpt lat="43.36757" lon="6.66054">
        <ele>174.2</ele>
        <time>2016-10-09T12:32:29Z</time>
      </trkpt>
      <trkpt lat="43.36757" lon="6.66059">
        <ele>174.4</ele>
        <time>2016-10-09T12:32:31Z</time>
      </trkpt>
      <trkpt lat="43.36757" lon="6.66063">
        <ele>174.7</ele>
        <time>2016-10-09T12:32:33Z</time>
      </trkpt>
      <trkpt lat="43.36757" lon="6.66068">
        <ele>175.1</ele>
        <time>2016-10-09T12:32:35Z</time>
      </trkpt>
      <trkpt lat="43.36756" lon="6.66074">
        <ele>175.4</ele>
        <time>2016-10-09T12:32:37Z</time>
      </trkpt>
      <trkpt lat="43.36755" lon="6.66079">
        <ele>175.6</ele>
        <time>2016-10-09T12:32:39Z</time>
      </trkpt>
      <trkpt lat="43.36755" lon="6.66084">
        <ele>175.8</ele>
        <time>2016-10-09T12:32:41Z</time>
      </trkpt>
      <trkpt lat="43.36756" lon="6.66089">
        <ele>176.2</ele>
        <time>2016-10-09T12:32:43Z</time>
      </trkpt>
      <trkpt lat="43.36757" lon="6.66095">
        <ele>176.6</ele>
        <time>2016-10-09T12:32:45Z</time>
      </trkpt>
      <trkpt lat="43.36757" lon="6.661">
        <ele>177</ele>
        <time>2016-10-09T12:32:47Z</time>
      </trkpt>
      <trkpt lat="43.36757" lon="6.66106">
        <ele>177.2</ele>
        <time>2016-10-09T12:32:49Z</time>
      </trkpt>
      <trkpt lat="43.36757" lon="6.66111">
        <ele>177.3</ele>
        <time>2016-10-09T12:32:51Z</time>
      </trkpt>
      <trkpt lat="43.36758" lon="6.66116">
        <ele>177.5</ele>
        <time>2016-10-09T12:32:53Z</time>
      </trkpt>
      <trkpt lat="43.36758" lon="6.66121">
        <ele>177.8</ele>
        <time>2016-10-09T12:32:55Z</time>
      </trkpt>
      <trkpt lat="43.36759" lon="6.66127">
        <ele>178.2</ele>
        <time>2016-10-09T12:32:57Z</time>
      </trkpt>
      <trkpt lat="43.36759" lon="6.66132">
        <ele>178.6</ele>
        <time>2016-10-09T12:32:59Z</time>
      </trkpt>
      <trkpt lat="43.36757" lon="6.66137">
        <ele>178.9</ele>
        <time>2016-10-09T12:33:01Z</time>
      </trkpt>
      <trkpt lat="43.36754" lon="6.66141">
        <ele>179.5</ele>
        <time>2016-10-09T12:33:03Z</time>
      </trkpt>
      <trkpt lat="43.36751" lon="6.66146">
        <ele>179.8</ele>
        <time>2016-10-09T12:33:05Z</time>
      </trkpt>
      <trkpt lat="43.36748" lon="6.6615">
        <ele>180.1</ele>
        <time>2016-10-09T12:33:07Z</time>
      </trkpt>
      <trkpt lat="43.36745" lon="6.66155">
        <ele>180.4</ele>
        <time>2016-10-09T12:33:09Z</time>
      </trkpt>
      <trkpt lat="43.36742" lon="6.6616">
        <ele>180.8</ele>
        <time>2016-10-09T12:33:11Z</time>
      </trkpt>
      <trkpt lat="43.36739" lon="6.66166">
        <ele>184.5</ele>
        <time>2016-10-09T12:33:13Z</time>
      </trkpt>
      <trkpt lat="43.36737" lon="6.66171">
        <ele>188</ele>
        <time>2016-10-09T12:33:15Z</time>
      </trkpt>
      <trkpt lat="43.36734" lon="6.66175">
        <ele>188</ele>
        <time>2016-10-09T12:33:17Z</time>
      </trkpt>
      <trkpt lat="43.36731" lon="6.66179">
        <ele>188</ele>
        <time>2016-10-09T12:33:19Z</time>
      </trkpt>
      <trkpt lat="43.36729" lon="6.66184">
        <ele>188</ele>
        <time>2016-10-09T12:33:21Z</time>
      </trkpt>
      <trkpt lat="43.36727" lon="6.66189">
        <ele>188</ele>
        <time>2016-10-09T12:33:23Z</time>
      </trkpt>
      <trkpt lat="43.36725" lon="6.66194">
        <ele>188</ele>
        <time>2016-10-09T12:33:25Z</time>
      </trkpt>
      <trkpt lat="43.36723" lon="6.66198">
        <ele>188</ele>
        <time>2016-10-09T12:33:27Z</time>
      </trkpt>
      <trkpt lat="43.3672" lon="6.66202">
        <ele>188</ele>
        <time>2016-10-09T12:33:29Z</time>
      </trkpt>
      <trkpt lat="43.36718" lon="6.66207">
        <ele>188</ele>
        <time>2016-10-09T12:33:31Z</time>
      </trkpt>
      <trkpt lat="43.36716" lon="6.66211">
        <ele>188</ele>
        <time>2016-10-09T12:33:33Z</time>
      </trkpt>
      <trkpt lat="43.36713" lon="6.66216">
        <ele>188</ele>
        <time>2016-10-09T12:33:35Z</time>
      </trkpt>
      <trkpt lat="43.36712" lon="6.6622">
        <ele>188</ele>
        <time>2016-10-09T12:33:37Z</time>
      </trkpt>
      <trkpt lat="43.3671" lon="6.66225">
        <ele>188</ele>
        <time>2016-10-09T12:33:39Z</time>
      </trkpt>
      <trkpt lat="43.36709" lon="6.66229">
        <ele>188</ele>
        <time>2016-10-09T12:33:41Z</time>
      </trkpt>
      <trkpt lat="43.36708" lon="6.66227">
        <ele>188</ele>
        <time>2016-10-09T12:34:19Z</time>
      </trkpt>
      <trkpt lat="43.36706" lon="6.66223">
        <ele>188</ele>
        <time>2016-10-09T12:34:21Z</time>
      </trkpt>
      <trkpt lat="43.36706" lon="6.66225">
        <ele>188</ele>
        <time>2016-10-09T12:42:43Z</time>
      </trkpt>
      <trkpt lat="43.36708" lon="6.66232">
        <ele>188.1</ele>
        <time>2016-10-09T12:42:45Z</time>
      </trkpt>
      <trkpt lat="43.3671" lon="6.66245">
        <ele>188.2</ele>
        <time>2016-10-09T12:42:47Z</time>
      </trkpt>
      <trkpt lat="43.36709" lon="6.66248">
        <ele>188.2</ele>
        <time>2016-10-09T12:42:49Z</time>
      </trkpt>
      <trkpt lat="43.36707" lon="6.6625">
        <ele>188.2</ele>
        <time>2016-10-09T12:42:51Z</time>
      </trkpt>
      <trkpt lat="43.36705" lon="6.66252">
        <ele>188.2</ele>
        <time>2016-10-09T12:42:53Z</time>
      </trkpt>
      <trkpt lat="43.36703" lon="6.66253">
        <ele>188.2</ele>
        <time>2016-10-09T12:42:55Z</time>
      </trkpt>
      <trkpt lat="43.36701" lon="6.66255">
        <ele>188.3</ele>
        <time>2016-10-09T12:42:57Z</time>
      </trkpt>
      <trkpt lat="43.367" lon="6.66257">
        <ele>188.3</ele>
        <time>2016-10-09T12:42:59Z</time>
      </trkpt>
      <trkpt lat="43.367" lon="6.66259">
        <ele>188.3</ele>
        <time>2016-10-09T12:43:01Z</time>
      </trkpt>
      <trkpt lat="43.36697" lon="6.6626">
        <ele>188.3</ele>
        <time>2016-10-09T12:44:55Z</time>
      </trkpt>
      <trkpt lat="43.36693" lon="6.66262">
        <ele>188.4</ele>
        <time>2016-10-09T12:44:57Z</time>
      </trkpt>
      <trkpt lat="43.36686" lon="6.66266">
        <ele>188.4</ele>
        <time>2016-10-09T12:44:59Z</time>
      </trkpt>
      <trkpt lat="43.36684" lon="6.66265">
        <ele>188.4</ele>
        <time>2016-10-09T12:45:01Z</time>
      </trkpt>
      <trkpt lat="43.36681" lon="6.66265">
        <ele>188.4</ele>
        <time>2016-10-09T12:45:04Z</time>
      </trkpt>
      <trkpt lat="43.3668" lon="6.66264">
        <ele>188</ele>
        <time>2016-10-09T12:45:06Z</time>
      </trkpt>
      <trkpt lat="43.36678" lon="6.66261">
        <ele>188</ele>
        <time>2016-10-09T12:45:08Z</time>
      </trkpt>
      <trkpt lat="43.36676" lon="6.6626">
        <ele>188</ele>
        <time>2016-10-09T12:45:10Z</time>
      </trkpt>
      <trkpt lat="43.36673" lon="6.66261">
        <ele>188.1</ele>
        <time>2016-10-09T12:45:12Z</time>
      </trkpt>
      <trkpt lat="43.36671" lon="6.66264">
        <ele>188.1</ele>
        <time>2016-10-09T12:45:14Z</time>
      </trkpt>
      <trkpt lat="43.3667" lon="6.66267">
        <ele>188.1</ele>
        <time>2016-10-09T12:45:16Z</time>
      </trkpt>
      <trkpt lat="43.36667" lon="6.66271">
        <ele>188.1</ele>
        <time>2016-10-09T12:45:18Z</time>
      </trkpt>
      <trkpt lat="43.36664" lon="6.66276">
        <ele>188.1</ele>
        <time>2016-10-09T12:45:20Z</time>
      </trkpt>
      <trkpt lat="43.3666" lon="6.66281">
        <ele>188.1</ele>
        <time>2016-10-09T12:45:22Z</time>
      </trkpt>
      <trkpt lat="43.36656" lon="6.66288">
        <ele>188.1</ele>
        <time>2016-10-09T12:45:24Z</time>
      </trkpt>
      <trkpt lat="43.36656" lon="6.66298">
        <ele>188.1</ele>
        <time>2016-10-09T12:45:26Z</time>
      </trkpt>
      <trkpt lat="43.36657" lon="6.66308">
        <ele>188</ele>
        <time>2016-10-09T12:45:28Z</time>
      </trkpt>
      <trkpt lat="43.36657" lon="6.66318">
        <ele>187.9</ele>
        <time>2016-10-09T12:45:30Z</time>
      </trkpt>
      <trkpt lat="43.36658" lon="6.66329">
        <ele>187.9</ele>
        <time>2016-10-09T12:45:32Z</time>
      </trkpt>
      <trkpt lat="43.36657" lon="6.6634">
        <ele>187.9</ele>
        <time>2016-10-09T12:45:34Z</time>
      </trkpt>
      <trkpt lat="43.36657" lon="6.66353">
        <ele>188</ele>
        <time>2016-10-09T12:45:36Z</time>
      </trkpt>
      <trkpt lat="43.36656" lon="6.66368">
        <ele>188</ele>
        <time>2016-10-09T12:45:38Z</time>
      </trkpt>
      <trkpt lat="43.36657" lon="6.66381">
        <ele>187.8</ele>
        <time>2016-10-09T12:45:40Z</time>
      </trkpt>
      <trkpt lat="43.36659" lon="6.66393">
        <ele>187.2</ele>
        <time>2016-10-09T12:45:42Z</time>
      </trkpt>
      <trkpt lat="43.36661" lon="6.66406">
        <ele>186.8</ele>
        <time>2016-10-09T12:45:44Z</time>
      </trkpt>
      <trkpt lat="43.36663" lon="6.66421">
        <ele>186.3</ele>
        <time>2016-10-09T12:45:46Z</time>
      </trkpt>
      <trkpt lat="43.36664" lon="6.66437">
        <ele>185.5</ele>
        <time>2016-10-09T12:45:48Z</time>
      </trkpt>
      <trkpt lat="43.36664" lon="6.66453">
        <ele>183.4</ele>
        <time>2016-10-09T12:45:50Z</time>
      </trkpt>
      <trkpt lat="43.36665" lon="6.66469">
        <ele>181.2</ele>
        <time>2016-10-09T12:45:52Z</time>
      </trkpt>
      <trkpt lat="43.36664" lon="6.66484">
        <ele>180.7</ele>
        <time>2016-10-09T12:45:54Z</time>
      </trkpt>
      <trkpt lat="43.36663" lon="6.665">
        <ele>179</ele>
        <time>2016-10-09T12:45:56Z</time>
      </trkpt>
      <trkpt lat="43.36663" lon="6.66517">
        <ele>177.3</ele>
        <time>2016-10-09T12:45:58Z</time>
      </trkpt>
      <trkpt lat="43.36663" lon="6.66534">
        <ele>177.9</ele>
        <time>2016-10-09T12:46:00Z</time>
      </trkpt>
      <trkpt lat="43.36663" lon="6.66552">
        <ele>180.1</ele>
        <time>2016-10-09T12:46:02Z</time>
      </trkpt>
      <trkpt lat="43.36666" lon="6.6657">
        <ele>181.2</ele>
        <time>2016-10-09T12:46:04Z</time>
      </trkpt>
      <trkpt lat="43.36668" lon="6.66589">
        <ele>183.6</ele>
        <time>2016-10-09T12:46:06Z</time>
      </trkpt>
      <trkpt lat="43.3667" lon="6.66608">
        <ele>184.2</ele>
        <time>2016-10-09T12:46:08Z</time>
      </trkpt>
      <trkpt lat="43.36668" lon="6.66624">
        <ele>185.3</ele>
        <time>2016-10-09T12:46:10Z</time>
      </trkpt>
      <trkpt lat="43.36667" lon="6.66634">
        <ele>184.9</ele>
        <time>2016-10-09T12:46:12Z</time>
      </trkpt>
      <trkpt lat="43.36666" lon="6.6664">
        <ele>183.8</ele>
        <time>2016-10-09T12:46:14Z</time>
      </trkpt>
      <trkpt lat="43.36666" lon="6.66648">
        <ele>181.8</ele>
        <time>2016-10-09T12:46:51Z</time>
      </trkpt>
      <trkpt lat="43.36665" lon="6.66654">
        <ele>180.4</ele>
        <time>2016-10-09T12:46:53Z</time>
      </trkpt>
      <trkpt lat="43.36663" lon="6.66659">
        <ele>179.6</ele>
        <time>2016-10-09T12:46:55Z</time>
      </trkpt>
      <trkpt lat="43.36662" lon="6.66663">
        <ele>178.9</ele>
        <time>2016-10-09T12:46:57Z</time>
      </trkpt>
      <trkpt lat="43.36659" lon="6.66668">
        <ele>178.2</ele>
        <time>2016-10-09T12:46:59Z</time>
      </trkpt>
      <trkpt lat="43.36656" lon="6.66672">
        <ele>177.8</ele>
        <time>2016-10-09T12:47:01Z</time>
      </trkpt>
      <trkpt lat="43.36654" lon="6.66674">
        <ele>177.6</ele>
        <time>2016-10-09T12:47:03Z</time>
      </trkpt>
      <trkpt lat="43.36652" lon="6.66676">
        <ele>177.5</ele>
        <time>2016-10-09T12:47:05Z</time>
      </trkpt>
      <trkpt lat="43.36649" lon="6.66677">
        <ele>177.5</ele>
        <time>2016-10-09T12:47:07Z</time>
      </trkpt>
      <trkpt lat="43.36647" lon="6.66678">
        <ele>177.5</ele>
        <time>2016-10-09T12:47:09Z</time>
      </trkpt>
      <trkpt lat="43.36645" lon="6.66678">
        <ele>177.6</ele>
        <time>2016-10-09T12:47:11Z</time>
      </trkpt>
      <trkpt lat="43.36641" lon="6.66677">
        <ele>177.7</ele>
        <time>2016-10-09T12:47:13Z</time>
      </trkpt>
      <trkpt lat="43.36636" lon="6.66677">
        <ele>177.8</ele>
        <time>2016-10-09T12:47:15Z</time>
      </trkpt>
      <trkpt lat="43.36632" lon="6.66675">
        <ele>178</ele>
        <time>2016-10-09T12:47:17Z</time>
      </trkpt>
      <trkpt lat="43.36628" lon="6.66673">
        <ele>178.1</ele>
        <time>2016-10-09T12:47:19Z</time>
      </trkpt>
      <trkpt lat="43.36622" lon="6.66671">
        <ele>178.2</ele>
        <time>2016-10-09T12:47:21Z</time>
      </trkpt>
      <trkpt lat="43.36616" lon="6.66668">
        <ele>178.3</ele>
        <time>2016-10-09T12:47:23Z</time>
      </trkpt>
      <trkpt lat="43.3661" lon="6.66665">
        <ele>178.3</ele>
        <time>2016-10-09T12:47:25Z</time>
      </trkpt>
      <trkpt lat="43.36606" lon="6.66662">
        <ele>178.2</ele>
        <time>2016-10-09T12:47:27Z</time>
      </trkpt>
      <trkpt lat="43.36601" lon="6.66659">
        <ele>178.2</ele>
        <time>2016-10-09T12:47:29Z</time>
      </trkpt>
      <trkpt lat="43.36595" lon="6.66655">
        <ele>178.1</ele>
        <time>2016-10-09T12:47:31Z</time>
      </trkpt>
      <trkpt lat="43.36591" lon="6.6665">
        <ele>178</ele>
        <time>2016-10-09T12:47:33Z</time>
      </trkpt>
      <trkpt lat="43.36586" lon="6.66645">
        <ele>177.8</ele>
        <time>2016-10-09T12:47:35Z</time>
      </trkpt>
      <trkpt lat="43.36581" lon="6.6664">
        <ele>177.4</ele>
        <time>2016-10-09T12:47:37Z</time>
      </trkpt>
      <trkpt lat="43.36577" lon="6.66633">
        <ele>177</ele>
        <time>2016-10-09T12:47:39Z</time>
      </trkpt>
      <trkpt lat="43.36572" lon="6.66627">
        <ele>176.7</ele>
        <time>2016-10-09T12:47:41Z</time>
      </trkpt>
      <trkpt lat="43.36567" lon="6.6662">
        <ele>176.5</ele>
        <time>2016-10-09T12:47:43Z</time>
      </trkpt>
      <trkpt lat="43.36562" lon="6.66614">
        <ele>176.4</ele>
        <time>2016-10-09T12:47:45Z</time>
      </trkpt>
      <trkpt lat="43.36556" lon="6.66608">
        <ele>176.2</ele>
        <time>2016-10-09T12:47:47Z</time>
      </trkpt>
      <trkpt lat="43.36549" lon="6.66602">
        <ele>175.9</ele>
        <time>2016-10-09T12:47:49Z</time>
      </trkpt>
      <trkpt lat="43.36542" lon="6.66596">
        <ele>175.4</ele>
        <time>2016-10-09T12:47:51Z</time>
      </trkpt>
      <trkpt lat="43.36535" lon="6.66589">
        <ele>174.7</ele>
        <time>2016-10-09T12:47:53Z</time>
      </trkpt>
      <trkpt lat="43.36528" lon="6.66582">
        <ele>174</ele>
        <time>2016-10-09T12:47:55Z</time>
      </trkpt>
      <trkpt lat="43.3652" lon="6.66575">
        <ele>173.3</ele>
        <time>2016-10-09T12:47:57Z</time>
      </trkpt>
      <trkpt lat="43.36512" lon="6.66568">
        <ele>172.7</ele>
        <time>2016-10-09T12:47:59Z</time>
      </trkpt>
      <trkpt lat="43.36504" lon="6.66563">
        <ele>172.3</ele>
        <time>2016-10-09T12:48:01Z</time>
      </trkpt>
      <trkpt lat="43.36498" lon="6.66568">
        <ele>172</ele>
        <time>2016-10-09T12:48:03Z</time>
      </trkpt>
      <trkpt lat="43.36498" lon="6.66577">
        <ele>171.8</ele>
        <time>2016-10-09T12:48:05Z</time>
      </trkpt>
      <trkpt lat="43.36501" lon="6.66587">
        <ele>171.8</ele>
        <time>2016-10-09T12:48:07Z</time>
      </trkpt>
      <trkpt lat="43.36504" lon="6.66598">
        <ele>172</ele>
        <time>2016-10-09T12:48:09Z</time>
      </trkpt>
      <trkpt lat="43.36506" lon="6.66609">
        <ele>172.5</ele>
        <time>2016-10-09T12:48:11Z</time>
      </trkpt>
      <trkpt lat="43.36507" lon="6.66622">
        <ele>173.1</ele>
        <time>2016-10-09T12:48:13Z</time>
      </trkpt>
      <trkpt lat="43.36505" lon="6.66635">
        <ele>173.9</ele>
        <time>2016-10-09T12:48:15Z</time>
      </trkpt>
      <trkpt lat="43.36502" lon="6.66647">
        <ele>174.5</ele>
        <time>2016-10-09T12:48:17Z</time>
      </trkpt>
      <trkpt lat="43.36502" lon="6.6666">
        <ele>175.2</ele>
        <time>2016-10-09T12:48:19Z</time>
      </trkpt>
      <trkpt lat="43.36506" lon="6.6667">
        <ele>175.7</ele>
        <time>2016-10-09T12:48:21Z</time>
      </trkpt>
      <trkpt lat="43.36508" lon="6.66679">
        <ele>176.2</ele>
        <time>2016-10-09T12:48:23Z</time>
      </trkpt>
      <trkpt lat="43.36511" lon="6.66687">
        <ele>176.6</ele>
        <time>2016-10-09T12:48:25Z</time>
      </trkpt>
      <trkpt lat="43.36512" lon="6.66696">
        <ele>177</ele>
        <time>2016-10-09T12:48:27Z</time>
      </trkpt>
      <trkpt lat="43.36513" lon="6.66704">
        <ele>177.4</ele>
        <time>2016-10-09T12:48:29Z</time>
      </trkpt>
      <trkpt lat="43.36514" lon="6.66711">
        <ele>177.8</ele>
        <time>2016-10-09T12:48:31Z</time>
      </trkpt>
      <trkpt lat="43.36514" lon="6.66719">
        <ele>178.2</ele>
        <time>2016-10-09T12:48:33Z</time>
      </trkpt>
      <trkpt lat="43.36515" lon="6.66727">
        <ele>178.6</ele>
        <time>2016-10-09T12:48:35Z</time>
      </trkpt>
      <trkpt lat="43.36515" lon="6.66735">
        <ele>179</ele>
        <time>2016-10-09T12:48:37Z</time>
      </trkpt>
      <trkpt lat="43.36515" lon="6.66743">
        <ele>179.4</ele>
        <time>2016-10-09T12:48:39Z</time>
      </trkpt>
      <trkpt lat="43.36514" lon="6.6675">
        <ele>179.8</ele>
        <time>2016-10-09T12:48:41Z</time>
      </trkpt>
      <trkpt lat="43.36515" lon="6.66758">
        <ele>180.1</ele>
        <time>2016-10-09T12:48:43Z</time>
      </trkpt>
      <trkpt lat="43.36516" lon="6.66764">
        <ele>180.4</ele>
        <time>2016-10-09T12:48:45Z</time>
      </trkpt>
      <trkpt lat="43.36519" lon="6.6677">
        <ele>180.6</ele>
        <time>2016-10-09T12:48:47Z</time>
      </trkpt>
      <trkpt lat="43.36521" lon="6.66776">
        <ele>180.8</ele>
        <time>2016-10-09T12:48:49Z</time>
      </trkpt>
      <trkpt lat="43.36524" lon="6.66782">
        <ele>181</ele>
        <time>2016-10-09T12:48:51Z</time>
      </trkpt>
      <trkpt lat="43.36527" lon="6.66788">
        <ele>181.2</ele>
        <time>2016-10-09T12:48:53Z</time>
      </trkpt>
      <trkpt lat="43.36529" lon="6.66793">
        <ele>181.3</ele>
        <time>2016-10-09T12:48:55Z</time>
      </trkpt>
      <trkpt lat="43.36531" lon="6.66799">
        <ele>181.4</ele>
        <time>2016-10-09T12:48:57Z</time>
      </trkpt>
      <trkpt lat="43.36532" lon="6.66805">
        <ele>181.6</ele>
        <time>2016-10-09T12:48:59Z</time>
      </trkpt>
      <trkpt lat="43.36534" lon="6.66811">
        <ele>181.7</ele>
        <time>2016-10-09T12:49:01Z</time>
      </trkpt>
      <trkpt lat="43.36535" lon="6.66817">
        <ele>181.8</ele>
        <time>2016-10-09T12:49:03Z</time>
      </trkpt>
      <trkpt lat="43.36537" lon="6.66823">
        <ele>181.9</ele>
        <time>2016-10-09T12:49:05Z</time>
      </trkpt>
      <trkpt lat="43.36538" lon="6.66828">
        <ele>182</ele>
        <time>2016-10-09T12:49:07Z</time>
      </trkpt>
      <trkpt lat="43.3654" lon="6.66834">
        <ele>182.1</ele>
        <time>2016-10-09T12:49:09Z</time>
      </trkpt>
      <trkpt lat="43.36541" lon="6.6684">
        <ele>182.3</ele>
        <time>2016-10-09T12:49:11Z</time>
      </trkpt>
      <trkpt lat="43.36543" lon="6.66845">
        <ele>182.4</ele>
        <time>2016-10-09T12:49:13Z</time>
      </trkpt>
      <trkpt lat="43.36544" lon="6.66851">
        <ele>182.5</ele>
        <time>2016-10-09T12:49:15Z</time>
      </trkpt>
      <trkpt lat="43.36546" lon="6.66856">
        <ele>182.7</ele>
        <time>2016-10-09T12:49:17Z</time>
      </trkpt>
      <trkpt lat="43.36547" lon="6.66862">
        <ele>183</ele>
        <time>2016-10-09T12:49:19Z</time>
      </trkpt>
      <trkpt lat="43.36548" lon="6.66868">
        <ele>183.4</ele>
        <time>2016-10-09T12:49:21Z</time>
      </trkpt>
      <trkpt lat="43.3655" lon="6.66875">
        <ele>183.9</ele>
        <time>2016-10-09T12:49:23Z</time>
      </trkpt>
      <trkpt lat="43.36551" lon="6.66882">
        <ele>184.4</ele>
        <time>2016-10-09T12:49:25Z</time>
      </trkpt>
      <trkpt lat="43.36552" lon="6.66889">
        <ele>185.1</ele>
        <time>2016-10-09T12:49:27Z</time>
      </trkpt>
      <trkpt lat="43.36554" lon="6.66895">
        <ele>185.8</ele>
        <time>2016-10-09T12:49:29Z</time>
      </trkpt>
      <trkpt lat="43.36556" lon="6.66901">
        <ele>186.5</ele>
        <time>2016-10-09T12:49:31Z</time>
      </trkpt>
      <trkpt lat="43.36559" lon="6.66906">
        <ele>187.3</ele>
        <time>2016-10-09T12:49:33Z</time>
      </trkpt>
      <trkpt lat="43.36561" lon="6.66912">
        <ele>188</ele>
        <time>2016-10-09T12:49:35Z</time>
      </trkpt>
      <trkpt lat="43.36564" lon="6.66917">
        <ele>188.7</ele>
        <time>2016-10-09T12:49:37Z</time>
      </trkpt>
      <trkpt lat="43.36567" lon="6.66922">
        <ele>189.4</ele>
        <time>2016-10-09T12:49:39Z</time>
      </trkpt>
      <trkpt lat="43.36569" lon="6.66928">
        <ele>189.9</ele>
        <time>2016-10-09T12:49:41Z</time>
      </trkpt>
      <trkpt lat="43.36571" lon="6.66934">
        <ele>190.3</ele>
        <time>2016-10-09T12:49:43Z</time>
      </trkpt>
      <trkpt lat="43.36573" lon="6.6694">
        <ele>190.4</ele>
        <time>2016-10-09T12:49:45Z</time>
      </trkpt>
      <trkpt lat="43.36574" lon="6.66947">
        <ele>190.4</ele>
        <time>2016-10-09T12:49:47Z</time>
      </trkpt>
      <trkpt lat="43.36574" lon="6.66954">
        <ele>190.1</ele>
        <time>2016-10-09T12:49:49Z</time>
      </trkpt>
      <trkpt lat="43.36574" lon="6.66962">
        <ele>189.4</ele>
        <time>2016-10-09T12:49:51Z</time>
      </trkpt>
      <trkpt lat="43.36572" lon="6.66971">
        <ele>188.5</ele>
        <time>2016-10-09T12:49:53Z</time>
      </trkpt>
      <trkpt lat="43.36569" lon="6.66981">
        <ele>186.9</ele>
        <time>2016-10-09T12:49:55Z</time>
      </trkpt>
      <trkpt lat="43.36563" lon="6.6699">
        <ele>184.7</ele>
        <time>2016-10-09T12:49:57Z</time>
      </trkpt>
      <trkpt lat="43.36556" lon="6.66997">
        <ele>182.5</ele>
        <time>2016-10-09T12:49:59Z</time>
      </trkpt>
      <trkpt lat="43.36546" lon="6.67001">
        <ele>181.6</ele>
        <time>2016-10-09T12:50:01Z</time>
      </trkpt>
      <trkpt lat="43.36535" lon="6.67003">
        <ele>181.2</ele>
        <time>2016-10-09T12:50:03Z</time>
      </trkpt>
      <trkpt lat="43.36523" lon="6.67006">
        <ele>180.7</ele>
        <time>2016-10-09T12:50:05Z</time>
      </trkpt>
      <trkpt lat="43.3651" lon="6.6701">
        <ele>179.3</ele>
        <time>2016-10-09T12:50:07Z</time>
      </trkpt>
      <trkpt lat="43.36499" lon="6.67017">
        <ele>178.1</ele>
        <time>2016-10-09T12:50:09Z</time>
      </trkpt>
      <trkpt lat="43.3649" lon="6.67027">
        <ele>177.2</ele>
        <time>2016-10-09T12:50:11Z</time>
      </trkpt>
      <trkpt lat="43.36481" lon="6.67036">
        <ele>176.6</ele>
        <time>2016-10-09T12:50:13Z</time>
      </trkpt>
      <trkpt lat="43.36473" lon="6.67044">
        <ele>176.4</ele>
        <time>2016-10-09T12:50:15Z</time>
      </trkpt>
      <trkpt lat="43.36465" lon="6.67053">
        <ele>176.5</ele>
        <time>2016-10-09T12:50:17Z</time>
      </trkpt>
      <trkpt lat="43.36458" lon="6.67061">
        <ele>176.7</ele>
        <time>2016-10-09T12:50:19Z</time>
      </trkpt>
      <trkpt lat="43.36453" lon="6.67071">
        <ele>177.2</ele>
        <time>2016-10-09T12:50:21Z</time>
      </trkpt>
      <trkpt lat="43.36448" lon="6.67081">
        <ele>177.7</ele>
        <time>2016-10-09T12:50:23Z</time>
      </trkpt>
      <trkpt lat="43.36444" lon="6.6709">
        <ele>178.3</ele>
        <time>2016-10-09T12:50:25Z</time>
      </trkpt>
      <trkpt lat="43.3644" lon="6.67098">
        <ele>178.7</ele>
        <time>2016-10-09T12:50:27Z</time>
      </trkpt>
      <trkpt lat="43.36436" lon="6.67105">
        <ele>179</ele>
        <time>2016-10-09T12:50:29Z</time>
      </trkpt>
      <trkpt lat="43.36431" lon="6.67113">
        <ele>177.5</ele>
        <time>2016-10-09T12:50:31Z</time>
      </trkpt>
      <trkpt lat="43.36426" lon="6.67123">
        <ele>175.6</ele>
        <time>2016-10-09T12:50:33Z</time>
      </trkpt>
      <trkpt lat="43.36421" lon="6.6714">
        <ele>173.8</ele>
        <time>2016-10-09T12:50:35Z</time>
      </trkpt>
      <trkpt lat="43.36416" lon="6.67159">
        <ele>172.5</ele>
        <time>2016-10-09T12:50:37Z</time>
      </trkpt>
      <trkpt lat="43.36409" lon="6.6718">
        <ele>171.7</ele>
        <time>2016-10-09T12:50:39Z</time>
      </trkpt>
      <trkpt lat="43.36403" lon="6.67204">
        <ele>171.1</ele>
        <time>2016-10-09T12:50:41Z</time>
      </trkpt>
      <trkpt lat="43.36395" lon="6.67227">
        <ele>168.5</ele>
        <time>2016-10-09T12:50:43Z</time>
      </trkpt>
      <trkpt lat="43.36387" lon="6.67249">
        <ele>165</ele>
        <time>2016-10-09T12:50:45Z</time>
      </trkpt>
      <trkpt lat="43.36379" lon="6.6727">
        <ele>162.6</ele>
        <time>2016-10-09T12:50:47Z</time>
      </trkpt>
      <trkpt lat="43.36371" lon="6.67287">
        <ele>161.5</ele>
        <time>2016-10-09T12:50:49Z</time>
      </trkpt>
      <trkpt lat="43.36365" lon="6.67304">
        <ele>160.3</ele>
        <time>2016-10-09T12:50:51Z</time>
      </trkpt>
      <trkpt lat="43.36361" lon="6.67318">
        <ele>159.6</ele>
        <time>2016-10-09T12:50:53Z</time>
      </trkpt>
      <trkpt lat="43.36356" lon="6.67328">
        <ele>158.5</ele>
        <time>2016-10-09T12:50:55Z</time>
      </trkpt>
      <trkpt lat="43.36354" lon="6.67337">
        <ele>157.6</ele>
        <time>2016-10-09T12:50:57Z</time>
      </trkpt>
      <trkpt lat="43.36358" lon="6.67345">
        <ele>156.9</ele>
        <time>2016-10-09T12:50:59Z</time>
      </trkpt>
      <trkpt lat="43.36366" lon="6.67349">
        <ele>156.7</ele>
        <time>2016-10-09T12:51:01Z</time>
      </trkpt>
      <trkpt lat="43.36374" lon="6.67353">
        <ele>156.6</ele>
        <time>2016-10-09T12:51:03Z</time>
      </trkpt>
      <trkpt lat="43.36382" lon="6.67357">
        <ele>156.4</ele>
        <time>2016-10-09T12:51:05Z</time>
      </trkpt>
      <trkpt lat="43.36392" lon="6.67363">
        <ele>155.8</ele>
        <time>2016-10-09T12:51:07Z</time>
      </trkpt>
      <trkpt lat="43.36403" lon="6.6737">
        <ele>154.2</ele>
        <time>2016-10-09T12:51:09Z</time>
      </trkpt>
      <trkpt lat="43.36414" lon="6.67379">
        <ele>152.2</ele>
        <time>2016-10-09T12:51:11Z</time>
      </trkpt>
      <trkpt lat="43.36427" lon="6.67389">
        <ele>150.3</ele>
        <time>2016-10-09T12:51:13Z</time>
      </trkpt>
      <trkpt lat="43.36441" lon="6.67397">
        <ele>148.7</ele>
        <time>2016-10-09T12:51:15Z</time>
      </trkpt>
      <trkpt lat="43.36456" lon="6.67403">
        <ele>147.5</ele>
        <time>2016-10-09T12:51:17Z</time>
      </trkpt>
      <trkpt lat="43.36473" lon="6.67404">
        <ele>146.7</ele>
        <time>2016-10-09T12:51:19Z</time>
      </trkpt>
      <trkpt lat="43.36491" lon="6.67401">
        <ele>147.7</ele>
        <time>2016-10-09T12:51:21Z</time>
      </trkpt>
      <trkpt lat="43.36509" lon="6.67403">
        <ele>148.5</ele>
        <time>2016-10-09T12:51:23Z</time>
      </trkpt>
      <trkpt lat="43.36526" lon="6.67411">
        <ele>148.9</ele>
        <time>2016-10-09T12:51:25Z</time>
      </trkpt>
      <trkpt lat="43.3654" lon="6.67427">
        <ele>148.9</ele>
        <time>2016-10-09T12:51:27Z</time>
      </trkpt>
      <trkpt lat="43.36552" lon="6.67448">
        <ele>148.7</ele>
        <time>2016-10-09T12:51:29Z</time>
      </trkpt>
      <trkpt lat="43.36568" lon="6.67455">
        <ele>148.6</ele>
        <time>2016-10-09T12:51:31Z</time>
      </trkpt>
      <trkpt lat="43.36585" lon="6.67447">
        <ele>148</ele>
        <time>2016-10-09T12:51:33Z</time>
      </trkpt>
      <trkpt lat="43.36599" lon="6.67432">
        <ele>147.2</ele>
        <time>2016-10-09T12:51:35Z</time>
      </trkpt>
      <trkpt lat="43.36616" lon="6.67424">
        <ele>146.8</ele>
        <time>2016-10-09T12:51:37Z</time>
      </trkpt>
      <trkpt lat="43.36632" lon="6.67434">
        <ele>146.8</ele>
        <time>2016-10-09T12:51:39Z</time>
      </trkpt>
      <trkpt lat="43.36644" lon="6.67452">
        <ele>146.8</ele>
        <time>2016-10-09T12:51:41Z</time>
      </trkpt>
      <trkpt lat="43.36654" lon="6.67474">
        <ele>146.9</ele>
        <time>2016-10-09T12:51:43Z</time>
      </trkpt>
      <trkpt lat="43.36662" lon="6.67498">
        <ele>147</ele>
        <time>2016-10-09T12:51:45Z</time>
      </trkpt>
      <trkpt lat="43.36668" lon="6.67522">
        <ele>146.7</ele>
        <time>2016-10-09T12:51:47Z</time>
      </trkpt>
      <trkpt lat="43.36673" lon="6.67544">
        <ele>146.2</ele>
        <time>2016-10-09T12:51:49Z</time>
      </trkpt>
      <trkpt lat="43.36679" lon="6.67567">
        <ele>145.6</ele>
        <time>2016-10-09T12:51:51Z</time>
      </trkpt>
      <trkpt lat="43.36681" lon="6.6759">
        <ele>143.4</ele>
        <time>2016-10-09T12:51:53Z</time>
      </trkpt>
      <trkpt lat="43.3668" lon="6.67615">
        <ele>141.5</ele>
        <time>2016-10-09T12:51:55Z</time>
      </trkpt>
      <trkpt lat="43.36684" lon="6.67639">
        <ele>140.8</ele>
        <time>2016-10-09T12:51:57Z</time>
      </trkpt>
      <trkpt lat="43.36692" lon="6.67654">
        <ele>140.1</ele>
        <time>2016-10-09T12:51:59Z</time>
      </trkpt>
      <trkpt lat="43.367" lon="6.67663">
        <ele>139.7</ele>
        <time>2016-10-09T12:52:01Z</time>
      </trkpt>
      <trkpt lat="43.3671" lon="6.67671">
        <ele>139.1</ele>
        <time>2016-10-09T12:52:03Z</time>
      </trkpt>
      <trkpt lat="43.36719" lon="6.67678">
        <ele>138.5</ele>
        <time>2016-10-09T12:52:05Z</time>
      </trkpt>
      <trkpt lat="43.36726" lon="6.67683">
        <ele>137.9</ele>
        <time>2016-10-09T12:52:07Z</time>
      </trkpt>
      <trkpt lat="43.36732" lon="6.67687">
        <ele>137.6</ele>
        <time>2016-10-09T12:52:09Z</time>
      </trkpt>
      <trkpt lat="43.36736" lon="6.67689">
        <ele>137.2</ele>
        <time>2016-10-09T12:52:11Z</time>
      </trkpt>
      <trkpt lat="43.36739" lon="6.67691">
        <ele>137</ele>
        <time>2016-10-09T12:52:13Z</time>
      </trkpt>
      <trkpt lat="43.36741" lon="6.67695">
        <ele>137.5</ele>
        <time>2016-10-09T12:52:19Z</time>
      </trkpt>
      <trkpt lat="43.36742" lon="6.67702">
        <ele>137.8</ele>
        <time>2016-10-09T12:52:21Z</time>
      </trkpt>
      <trkpt lat="43.36743" lon="6.67709">
        <ele>138</ele>
        <time>2016-10-09T12:52:23Z</time>
      </trkpt>
      <trkpt lat="43.36744" lon="6.67716">
        <ele>138.1</ele>
        <time>2016-10-09T12:52:25Z</time>
      </trkpt>
      <trkpt lat="43.36745" lon="6.67723">
        <ele>138.3</ele>
        <time>2016-10-09T12:52:27Z</time>
      </trkpt>
      <trkpt lat="43.36746" lon="6.6773">
        <ele>138.6</ele>
        <time>2016-10-09T12:52:29Z</time>
      </trkpt>
      <trkpt lat="43.36747" lon="6.67738">
        <ele>139.2</ele>
        <time>2016-10-09T12:52:31Z</time>
      </trkpt>
      <trkpt lat="43.36748" lon="6.67746">
        <ele>139.7</ele>
        <time>2016-10-09T12:52:33Z</time>
      </trkpt>
      <trkpt lat="43.3675" lon="6.67753">
        <ele>140.3</ele>
        <time>2016-10-09T12:52:35Z</time>
      </trkpt>
      <trkpt lat="43.36751" lon="6.67759">
        <ele>140.8</ele>
        <time>2016-10-09T12:52:37Z</time>
      </trkpt>
      <trkpt lat="43.36753" lon="6.67764">
        <ele>141</ele>
        <time>2016-10-09T12:52:39Z</time>
      </trkpt>
      <trkpt lat="43.36754" lon="6.67768">
        <ele>141.2</ele>
        <time>2016-10-09T12:52:41Z</time>
      </trkpt>
      <trkpt lat="43.36755" lon="6.67773">
        <ele>141.5</ele>
        <time>2016-10-09T12:52:43Z</time>
      </trkpt>
      <trkpt lat="43.36757" lon="6.67777">
        <ele>142</ele>
        <time>2016-10-09T12:52:45Z</time>
      </trkpt>
      <trkpt lat="43.36758" lon="6.67782">
        <ele>142.4</ele>
        <time>2016-10-09T12:52:47Z</time>
      </trkpt>
      <trkpt lat="43.36759" lon="6.67787">
        <ele>142.8</ele>
        <time>2016-10-09T12:52:49Z</time>
      </trkpt>
      <trkpt lat="43.36759" lon="6.67792">
        <ele>143.1</ele>
        <time>2016-10-09T12:52:51Z</time>
      </trkpt>
      <trkpt lat="43.3676" lon="6.67796">
        <ele>143.6</ele>
        <time>2016-10-09T12:52:53Z</time>
      </trkpt>
      <trkpt lat="43.3676" lon="6.67801">
        <ele>144</ele>
        <time>2016-10-09T12:52:55Z</time>
      </trkpt>
      <trkpt lat="43.36762" lon="6.67805">
        <ele>144.2</ele>
        <time>2016-10-09T12:52:57Z</time>
      </trkpt>
      <trkpt lat="43.36762" lon="6.67809">
        <ele>144.5</ele>
        <time>2016-10-09T12:52:59Z</time>
      </trkpt>
      <trkpt lat="43.36763" lon="6.67813">
        <ele>144.9</ele>
        <time>2016-10-09T12:53:01Z</time>
      </trkpt>
      <trkpt lat="43.36763" lon="6.67817">
        <ele>145.2</ele>
        <time>2016-10-09T12:53:03Z</time>
      </trkpt>
      <trkpt lat="43.36764" lon="6.67821">
        <ele>145.4</ele>
        <time>2016-10-09T12:53:05Z</time>
      </trkpt>
      <trkpt lat="43.36765" lon="6.67824">
        <ele>145.6</ele>
        <time>2016-10-09T12:53:07Z</time>
      </trkpt>
      <trkpt lat="43.36765" lon="6.67828">
        <ele>146</ele>
        <time>2016-10-09T12:53:09Z</time>
      </trkpt>
      <trkpt lat="43.36766" lon="6.67832">
        <ele>146.4</ele>
        <time>2016-10-09T12:53:11Z</time>
      </trkpt>
      <trkpt lat="43.36766" lon="6.67836">
        <ele>146.7</ele>
        <time>2016-10-09T12:53:13Z</time>
      </trkpt>
      <trkpt lat="43.36766" lon="6.6784">
        <ele>146.9</ele>
        <time>2016-10-09T12:53:15Z</time>
      </trkpt>
      <trkpt lat="43.36766" lon="6.67844">
        <ele>147.1</ele>
        <time>2016-10-09T12:53:17Z</time>
      </trkpt>
      <trkpt lat="43.36766" lon="6.67847">
        <ele>147.5</ele>
        <time>2016-10-09T12:53:19Z</time>
      </trkpt>
      <trkpt lat="43.36766" lon="6.67851">
        <ele>147.9</ele>
        <time>2016-10-09T12:53:21Z</time>
      </trkpt>
      <trkpt lat="43.36766" lon="6.67855">
        <ele>148.3</ele>
        <time>2016-10-09T12:53:23Z</time>
      </trkpt>
      <trkpt lat="43.36765" lon="6.67858">
        <ele>148.6</ele>
        <time>2016-10-09T12:53:25Z</time>
      </trkpt>
      <trkpt lat="43.36765" lon="6.67862">
        <ele>148.9</ele>
        <time>2016-10-09T12:53:27Z</time>
      </trkpt>
      <trkpt lat="43.36764" lon="6.67865">
        <ele>149.2</ele>
        <time>2016-10-09T12:53:29Z</time>
      </trkpt>
      <trkpt lat="43.36763" lon="6.67868">
        <ele>149.6</ele>
        <time>2016-10-09T12:53:31Z</time>
      </trkpt>
      <trkpt lat="43.36763" lon="6.67872">
        <ele>150</ele>
        <time>2016-10-09T12:53:33Z</time>
      </trkpt>
      <trkpt lat="43.36763" lon="6.67875">
        <ele>150.2</ele>
        <time>2016-10-09T12:53:35Z</time>
      </trkpt>
      <trkpt lat="43.36763" lon="6.67878">
        <ele>150.4</ele>
        <time>2016-10-09T12:53:37Z</time>
      </trkpt>
      <trkpt lat="43.36763" lon="6.67882">
        <ele>150.8</ele>
        <time>2016-10-09T12:53:39Z</time>
      </trkpt>
      <trkpt lat="43.36763" lon="6.67885">
        <ele>151.3</ele>
        <time>2016-10-09T12:53:41Z</time>
      </trkpt>
      <trkpt lat="43.36763" lon="6.67888">
        <ele>151.7</ele>
        <time>2016-10-09T12:53:43Z</time>
      </trkpt>
      <trkpt lat="43.36764" lon="6.67892">
        <ele>152</ele>
        <time>2016-10-09T12:53:45Z</time>
      </trkpt>
      <trkpt lat="43.36764" lon="6.67895">
        <ele>152.2</ele>
        <time>2016-10-09T12:53:47Z</time>
      </trkpt>
      <trkpt lat="43.36765" lon="6.67898">
        <ele>152.7</ele>
        <time>2016-10-09T12:53:49Z</time>
      </trkpt>
      <trkpt lat="43.36765" lon="6.67902">
        <ele>153.1</ele>
        <time>2016-10-09T12:53:51Z</time>
      </trkpt>
      <trkpt lat="43.36766" lon="6.67905">
        <ele>153.4</ele>
        <time>2016-10-09T12:53:53Z</time>
      </trkpt>
      <trkpt lat="43.36766" lon="6.67909">
        <ele>153.7</ele>
        <time>2016-10-09T12:53:55Z</time>
      </trkpt>
      <trkpt lat="43.36767" lon="6.67912">
        <ele>154.1</ele>
        <time>2016-10-09T12:53:57Z</time>
      </trkpt>
      <trkpt lat="43.36767" lon="6.67916">
        <ele>154.5</ele>
        <time>2016-10-09T12:53:59Z</time>
      </trkpt>
      <trkpt lat="43.36768" lon="6.67919">
        <ele>154.8</ele>
        <time>2016-10-09T12:54:01Z</time>
      </trkpt>
      <trkpt lat="43.36768" lon="6.67923">
        <ele>155</ele>
        <time>2016-10-09T12:54:03Z</time>
      </trkpt>
      <trkpt lat="43.36768" lon="6.67927">
        <ele>155.3</ele>
        <time>2016-10-09T12:54:05Z</time>
      </trkpt>
      <trkpt lat="43.36769" lon="6.67931">
        <ele>155.6</ele>
        <time>2016-10-09T12:54:07Z</time>
      </trkpt>
      <trkpt lat="43.36769" lon="6.67934">
        <ele>156</ele>
        <time>2016-10-09T12:54:09Z</time>
      </trkpt>
      <trkpt lat="43.36769" lon="6.67938">
        <ele>156.3</ele>
        <time>2016-10-09T12:54:11Z</time>
      </trkpt>
      <trkpt lat="43.36768" lon="6.67942">
        <ele>156.5</ele>
        <time>2016-10-09T12:54:13Z</time>
      </trkpt>
      <trkpt lat="43.36767" lon="6.67945">
        <ele>156.7</ele>
        <time>2016-10-09T12:54:15Z</time>
      </trkpt>
      <trkpt lat="43.36765" lon="6.67949">
        <ele>157</ele>
        <time>2016-10-09T12:54:17Z</time>
      </trkpt>
      <trkpt lat="43.36763" lon="6.67953">
        <ele>157</ele>
        <time>2016-10-09T12:54:19Z</time>
      </trkpt>
      <trkpt lat="43.36762" lon="6.67956">
        <ele>157.1</ele>
        <time>2016-10-09T12:54:21Z</time>
      </trkpt>
      <trkpt lat="43.3676" lon="6.67961">
        <ele>157.1</ele>
        <time>2016-10-09T12:54:23Z</time>
      </trkpt>
      <trkpt lat="43.36758" lon="6.67967">
        <ele>157.3</ele>
        <time>2016-10-09T12:54:25Z</time>
      </trkpt>
      <trkpt lat="43.36756" lon="6.67973">
        <ele>157.3</ele>
        <time>2016-10-09T12:54:27Z</time>
      </trkpt>
      <trkpt lat="43.36754" lon="6.67979">
        <ele>157.4</ele>
        <time>2016-10-09T12:54:29Z</time>
      </trkpt>
      <trkpt lat="43.36752" lon="6.67986">
        <ele>157.4</ele>
        <time>2016-10-09T12:54:31Z</time>
      </trkpt>
      <trkpt lat="43.36748" lon="6.67992">
        <ele>157.4</ele>
        <time>2016-10-09T12:54:33Z</time>
      </trkpt>
      <trkpt lat="43.36744" lon="6.67996">
        <ele>157.5</ele>
        <time>2016-10-09T12:54:35Z</time>
      </trkpt>
      <trkpt lat="43.36739" lon="6.67998">
        <ele>157.5</ele>
        <time>2016-10-09T12:54:37Z</time>
      </trkpt>
      <trkpt lat="43.36733" lon="6.68">
        <ele>157.5</ele>
        <time>2016-10-09T12:54:39Z</time>
      </trkpt>
      <trkpt lat="43.36727" lon="6.68001">
        <ele>157.6</ele>
        <time>2016-10-09T12:54:41Z</time>
      </trkpt>
      <trkpt lat="43.36721" lon="6.68002">
        <ele>157.6</ele>
        <time>2016-10-09T12:54:43Z</time>
      </trkpt>
      <trkpt lat="43.36715" lon="6.68003">
        <ele>157.6</ele>
        <time>2016-10-09T12:54:45Z</time>
      </trkpt>
      <trkpt lat="43.3671" lon="6.68005">
        <ele>157.7</ele>
        <time>2016-10-09T12:54:47Z</time>
      </trkpt>
      <trkpt lat="43.36704" lon="6.6801">
        <ele>157.8</ele>
        <time>2016-10-09T12:54:49Z</time>
      </trkpt>
      <trkpt lat="43.367" lon="6.68016">
        <ele>157.9</ele>
        <time>2016-10-09T12:54:51Z</time>
      </trkpt>
      <trkpt lat="43.36697" lon="6.68024">
        <ele>158.1</ele>
        <time>2016-10-09T12:54:53Z</time>
      </trkpt>
      <trkpt lat="43.36696" lon="6.68033">
        <ele>158.3</ele>
        <time>2016-10-09T12:54:55Z</time>
      </trkpt>
      <trkpt lat="43.36696" lon="6.68041">
        <ele>158.6</ele>
        <time>2016-10-09T12:54:57Z</time>
      </trkpt>
      <trkpt lat="43.36696" lon="6.6805">
        <ele>159.1</ele>
        <time>2016-10-09T12:54:59Z</time>
      </trkpt>
      <trkpt lat="43.36697" lon="6.68059">
        <ele>159.7</ele>
        <time>2016-10-09T12:55:01Z</time>
      </trkpt>
      <trkpt lat="43.367" lon="6.68068">
        <ele>160.2</ele>
        <time>2016-10-09T12:55:03Z</time>
      </trkpt>
      <trkpt lat="43.36704" lon="6.68077">
        <ele>160.5</ele>
        <time>2016-10-09T12:55:05Z</time>
      </trkpt>
      <trkpt lat="43.36707" lon="6.68085">
        <ele>160.6</ele>
        <time>2016-10-09T12:55:07Z</time>
      </trkpt>
      <trkpt lat="43.36712" lon="6.68095">
        <ele>160.8</ele>
        <time>2016-10-09T12:55:09Z</time>
      </trkpt>
      <trkpt lat="43.36716" lon="6.68105">
        <ele>160.9</ele>
        <time>2016-10-09T12:55:11Z</time>
      </trkpt>
      <trkpt lat="43.3672" lon="6.68116">
        <ele>161.2</ele>
        <time>2016-10-09T12:55:13Z</time>
      </trkpt>
      <trkpt lat="43.36721" lon="6.68129">
        <ele>161.7</ele>
        <time>2016-10-09T12:55:15Z</time>
      </trkpt>
      <trkpt lat="43.36719" lon="6.68143">
        <ele>162.4</ele>
        <time>2016-10-09T12:55:17Z</time>
      </trkpt>
      <trkpt lat="43.36716" lon="6.68157">
        <ele>162.9</ele>
        <time>2016-10-09T12:55:19Z</time>
      </trkpt>
      <trkpt lat="43.36712" lon="6.6817">
        <ele>163.2</ele>
        <time>2016-10-09T12:55:21Z</time>
      </trkpt>
      <trkpt lat="43.36706" lon="6.68183">
        <ele>163.3</ele>
        <time>2016-10-09T12:55:23Z</time>
      </trkpt>
      <trkpt lat="43.36698" lon="6.68194">
        <ele>163.3</ele>
        <time>2016-10-09T12:55:25Z</time>
      </trkpt>
      <trkpt lat="43.3669" lon="6.68204">
        <ele>163.4</ele>
        <time>2016-10-09T12:55:27Z</time>
      </trkpt>
      <trkpt lat="43.36681" lon="6.68213">
        <ele>163.4</ele>
        <time>2016-10-09T12:55:29Z</time>
      </trkpt>
      <trkpt lat="43.36672" lon="6.68223">
        <ele>163.5</ele>
        <time>2016-10-09T12:55:31Z</time>
      </trkpt>
      <trkpt lat="43.36663" lon="6.68232">
        <ele>163.5</ele>
        <time>2016-10-09T12:55:33Z</time>
      </trkpt>
      <trkpt lat="43.36654" lon="6.6824">
        <ele>163.5</ele>
        <time>2016-10-09T12:55:35Z</time>
      </trkpt>
      <trkpt lat="43.36643" lon="6.68244">
        <ele>163.6</ele>
        <time>2016-10-09T12:55:37Z</time>
      </trkpt>
      <trkpt lat="43.36631" lon="6.68242">
        <ele>163.6</ele>
        <time>2016-10-09T12:55:39Z</time>
      </trkpt>
      <trkpt lat="43.3662" lon="6.68235">
        <ele>163.6</ele>
        <time>2016-10-09T12:55:41Z</time>
      </trkpt>
      <trkpt lat="43.3661" lon="6.68228">
        <ele>163.6</ele>
        <time>2016-10-09T12:55:43Z</time>
      </trkpt>
      <trkpt lat="43.36599" lon="6.68221">
        <ele>163.7</ele>
        <time>2016-10-09T12:55:45Z</time>
      </trkpt>
      <trkpt lat="43.36588" lon="6.68215">
        <ele>163.7</ele>
        <time>2016-10-09T12:55:47Z</time>
      </trkpt>
      <trkpt lat="43.36577" lon="6.6821">
        <ele>163.7</ele>
        <time>2016-10-09T12:55:49Z</time>
      </trkpt>
      <trkpt lat="43.36566" lon="6.68202">
        <ele>163.7</ele>
        <time>2016-10-09T12:55:51Z</time>
      </trkpt>
      <trkpt lat="43.36557" lon="6.68192">
        <ele>163.8</ele>
        <time>2016-10-09T12:55:53Z</time>
      </trkpt>
      <trkpt lat="43.36549" lon="6.68181">
        <ele>163.8</ele>
        <time>2016-10-09T12:55:55Z</time>
      </trkpt>
      <trkpt lat="43.36543" lon="6.68169">
        <ele>163.8</ele>
        <time>2016-10-09T12:55:57Z</time>
      </trkpt>
      <trkpt lat="43.36537" lon="6.68156">
        <ele>163.9</ele>
        <time>2016-10-09T12:55:59Z</time>
      </trkpt>
      <trkpt lat="43.36529" lon="6.68146">
        <ele>163.9</ele>
        <time>2016-10-09T12:56:01Z</time>
      </trkpt>
      <trkpt lat="43.36519" lon="6.6814">
        <ele>164</ele>
        <time>2016-10-09T12:56:03Z</time>
      </trkpt>
      <trkpt lat="43.36508" lon="6.68138">
        <ele>164</ele>
        <time>2016-10-09T12:56:05Z</time>
      </trkpt>
      <trkpt lat="43.36496" lon="6.68135">
        <ele>164</ele>
        <time>2016-10-09T12:56:07Z</time>
      </trkpt>
      <trkpt lat="43.36485" lon="6.68131">
        <ele>164.1</ele>
        <time>2016-10-09T12:56:09Z</time>
      </trkpt>
      <trkpt lat="43.36474" lon="6.68126">
        <ele>164.1</ele>
        <time>2016-10-09T12:56:11Z</time>
      </trkpt>
      <trkpt lat="43.36462" lon="6.68121">
        <ele>164.1</ele>
        <time>2016-10-09T12:56:13Z</time>
      </trkpt>
      <trkpt lat="43.36451" lon="6.68121">
        <ele>164.2</ele>
        <time>2016-10-09T12:56:15Z</time>
      </trkpt>
      <trkpt lat="43.36443" lon="6.6813">
        <ele>164.2</ele>
        <time>2016-10-09T12:56:17Z</time>
      </trkpt>
      <trkpt lat="43.36439" lon="6.68144">
        <ele>164.2</ele>
        <time>2016-10-09T12:56:19Z</time>
      </trkpt>
      <trkpt lat="43.36438" lon="6.68158">
        <ele>164.3</ele>
        <time>2016-10-09T12:56:21Z</time>
      </trkpt>
      <trkpt lat="43.36438" lon="6.68173">
        <ele>164.3</ele>
        <time>2016-10-09T12:56:23Z</time>
      </trkpt>
      <trkpt lat="43.36437" lon="6.68188">
        <ele>164.4</ele>
        <time>2016-10-09T12:56:25Z</time>
      </trkpt>
      <trkpt lat="43.36438" lon="6.68202">
        <ele>164.4</ele>
        <time>2016-10-09T12:56:27Z</time>
      </trkpt>
      <trkpt lat="43.3644" lon="6.68216">
        <ele>164.4</ele>
        <time>2016-10-09T12:56:29Z</time>
      </trkpt>
      <trkpt lat="43.36442" lon="6.68228">
        <ele>164.4</ele>
        <time>2016-10-09T12:56:31Z</time>
      </trkpt>
      <trkpt lat="43.36444" lon="6.6824">
        <ele>164.5</ele>
        <time>2016-10-09T12:56:33Z</time>
      </trkpt>
      <trkpt lat="43.36445" lon="6.68251">
        <ele>164.5</ele>
        <time>2016-10-09T12:56:35Z</time>
      </trkpt>
      <trkpt lat="43.36445" lon="6.68263">
        <ele>164.5</ele>
        <time>2016-10-09T12:56:37Z</time>
      </trkpt>
      <trkpt lat="43.36445" lon="6.68274">
        <ele>164.6</ele>
        <time>2016-10-09T12:56:39Z</time>
      </trkpt>
      <trkpt lat="43.36444" lon="6.68285">
        <ele>164.6</ele>
        <time>2016-10-09T12:56:41Z</time>
      </trkpt>
      <trkpt lat="43.36441" lon="6.68296">
        <ele>164.6</ele>
        <time>2016-10-09T12:56:43Z</time>
      </trkpt>
      <trkpt lat="43.36437" lon="6.68306">
        <ele>164.6</ele>
        <time>2016-10-09T12:56:45Z</time>
      </trkpt>
      <trkpt lat="43.36433" lon="6.68316">
        <ele>164.7</ele>
        <time>2016-10-09T12:56:47Z</time>
      </trkpt>
      <trkpt lat="43.36427" lon="6.68324">
        <ele>164.7</ele>
        <time>2016-10-09T12:56:49Z</time>
      </trkpt>
      <trkpt lat="43.36421" lon="6.68331">
        <ele>164.7</ele>
        <time>2016-10-09T12:56:51Z</time>
      </trkpt>
      <trkpt lat="43.36414" lon="6.68337">
        <ele>164.7</ele>
        <time>2016-10-09T12:56:53Z</time>
      </trkpt>
      <trkpt lat="43.36404" lon="6.68343">
        <ele>164.8</ele>
        <time>2016-10-09T12:56:55Z</time>
      </trkpt>
      <trkpt lat="43.36394" lon="6.68348">
        <ele>164.8</ele>
        <time>2016-10-09T12:56:57Z</time>
      </trkpt>
      <trkpt lat="43.36383" lon="6.68353">
        <ele>164.8</ele>
        <time>2016-10-09T12:56:59Z</time>
      </trkpt>
      <trkpt lat="43.36371" lon="6.68358">
        <ele>164.9</ele>
        <time>2016-10-09T12:57:01Z</time>
      </trkpt>
      <trkpt lat="43.3636" lon="6.68366">
        <ele>164.9</ele>
        <time>2016-10-09T12:57:03Z</time>
      </trkpt>
      <trkpt lat="43.36353" lon="6.68378">
        <ele>164.9</ele>
        <time>2016-10-09T12:57:05Z</time>
      </trkpt>
      <trkpt lat="43.36347" lon="6.68391">
        <ele>165</ele>
        <time>2016-10-09T12:57:07Z</time>
      </trkpt>
      <trkpt lat="43.36342" lon="6.68405">
        <ele>163</ele>
        <time>2016-10-09T12:57:09Z</time>
      </trkpt>
      <trkpt lat="43.36339" lon="6.68419">
        <ele>156.5</ele>
        <time>2016-10-09T12:57:11Z</time>
      </trkpt>
      <trkpt lat="43.36335" lon="6.68435">
        <ele>150.9</ele>
        <time>2016-10-09T12:57:13Z</time>
      </trkpt>
      <trkpt lat="43.36335" lon="6.68443">
        <ele>150.9</ele>
        <time>2016-10-09T12:57:15Z</time>
      </trkpt>
      <trkpt lat="43.36337" lon="6.68447">
        <ele>150.9</ele>
        <time>2016-10-09T12:57:17Z</time>
      </trkpt>
      <trkpt lat="43.36338" lon="6.68451">
        <ele>151</ele>
        <time>2016-10-09T12:57:19Z</time>
      </trkpt>
      <trkpt lat="43.3634" lon="6.68454">
        <ele>151.1</ele>
        <time>2016-10-09T12:57:21Z</time>
      </trkpt>
      <trkpt lat="43.36342" lon="6.68457">
        <ele>151.2</ele>
        <time>2016-10-09T12:57:23Z</time>
      </trkpt>
      <trkpt lat="43.36346" lon="6.68463">
        <ele>151.7</ele>
        <time>2016-10-09T12:57:25Z</time>
      </trkpt>
      <trkpt lat="43.36352" lon="6.68469">
        <ele>152.4</ele>
        <time>2016-10-09T12:57:27Z</time>
      </trkpt>
      <trkpt lat="43.36358" lon="6.68474">
        <ele>152.9</ele>
        <time>2016-10-09T12:57:29Z</time>
      </trkpt>
      <trkpt lat="43.36364" lon="6.68479">
        <ele>153.2</ele>
        <time>2016-10-09T12:57:31Z</time>
      </trkpt>
      <trkpt lat="43.36369" lon="6.68486">
        <ele>153.4</ele>
        <time>2016-10-09T12:57:33Z</time>
      </trkpt>
      <trkpt lat="43.36373" lon="6.68493">
        <ele>153.7</ele>
        <time>2016-10-09T12:57:35Z</time>
      </trkpt>
      <trkpt lat="43.36377" lon="6.68501">
        <ele>154</ele>
        <time>2016-10-09T12:57:37Z</time>
      </trkpt>
      <trkpt lat="43.36382" lon="6.68508">
        <ele>154.4</ele>
        <time>2016-10-09T12:57:39Z</time>
      </trkpt>
      <trkpt lat="43.36386" lon="6.68514">
        <ele>155</ele>
        <time>2016-10-09T12:57:41Z</time>
      </trkpt>
      <trkpt lat="43.3639" lon="6.68521">
        <ele>155.7</ele>
        <time>2016-10-09T12:57:43Z</time>
      </trkpt>
      <trkpt lat="43.36395" lon="6.68527">
        <ele>156.1</ele>
        <time>2016-10-09T12:57:45Z</time>
      </trkpt>
      <trkpt lat="43.364" lon="6.68533">
        <ele>156.4</ele>
        <time>2016-10-09T12:57:47Z</time>
      </trkpt>
      <trkpt lat="43.36405" lon="6.68538">
        <ele>156.7</ele>
        <time>2016-10-09T12:57:49Z</time>
      </trkpt>
      <trkpt lat="43.36411" lon="6.68541">
        <ele>157.4</ele>
        <time>2016-10-09T12:57:51Z</time>
      </trkpt>
      <trkpt lat="43.36416" lon="6.68543">
        <ele>158.1</ele>
        <time>2016-10-09T12:57:53Z</time>
      </trkpt>
      <trkpt lat="43.36421" lon="6.68547">
        <ele>158.6</ele>
        <time>2016-10-09T12:57:55Z</time>
      </trkpt>
      <trkpt lat="43.36426" lon="6.6855">
        <ele>158.7</ele>
        <time>2016-10-09T12:57:57Z</time>
      </trkpt>
      <trkpt lat="43.36432" lon="6.68554">
        <ele>158.8</ele>
        <time>2016-10-09T12:57:59Z</time>
      </trkpt>
      <trkpt lat="43.36436" lon="6.68559">
        <ele>159</ele>
        <time>2016-10-09T12:58:01Z</time>
      </trkpt>
      <trkpt lat="43.36441" lon="6.68563">
        <ele>159.1</ele>
        <time>2016-10-09T12:58:03Z</time>
      </trkpt>
      <trkpt lat="43.36445" lon="6.68567">
        <ele>159.2</ele>
        <time>2016-10-09T12:58:05Z</time>
      </trkpt>
      <trkpt lat="43.36449" lon="6.68573">
        <ele>159.3</ele>
        <time>2016-10-09T12:58:07Z</time>
      </trkpt>
      <trkpt lat="43.36453" lon="6.68579">
        <ele>159.4</ele>
        <time>2016-10-09T12:58:09Z</time>
      </trkpt>
      <trkpt lat="43.36457" lon="6.68586">
        <ele>159.4</ele>
        <time>2016-10-09T12:58:11Z</time>
      </trkpt>
      <trkpt lat="43.36461" lon="6.68594">
        <ele>159.4</ele>
        <time>2016-10-09T12:58:13Z</time>
      </trkpt>
      <trkpt lat="43.36464" lon="6.68601">
        <ele>159.4</ele>
        <time>2016-10-09T12:58:15Z</time>
      </trkpt>
      <trkpt lat="43.36469" lon="6.6861">
        <ele>159.5</ele>
        <time>2016-10-09T12:58:17Z</time>
      </trkpt>
      <trkpt lat="43.36474" lon="6.68619">
        <ele>159.5</ele>
        <time>2016-10-09T12:58:19Z</time>
      </trkpt>
      <trkpt lat="43.36478" lon="6.6863">
        <ele>159.5</ele>
        <time>2016-10-09T12:58:21Z</time>
      </trkpt>
      <trkpt lat="43.36483" lon="6.68641">
        <ele>159.4</ele>
        <time>2016-10-09T12:58:23Z</time>
      </trkpt>
      <trkpt lat="43.36488" lon="6.68652">
        <ele>159.2</ele>
        <time>2016-10-09T12:58:25Z</time>
      </trkpt>
      <trkpt lat="43.36494" lon="6.68662">
        <ele>158.8</ele>
        <time>2016-10-09T12:58:27Z</time>
      </trkpt>
      <trkpt lat="43.36499" lon="6.68674">
        <ele>158.3</ele>
        <time>2016-10-09T12:58:29Z</time>
      </trkpt>
      <trkpt lat="43.36505" lon="6.68687">
        <ele>157.7</ele>
        <time>2016-10-09T12:58:31Z</time>
      </trkpt>
      <trkpt lat="43.3651" lon="6.687">
        <ele>157</ele>
        <time>2016-10-09T12:58:33Z</time>
      </trkpt>
      <trkpt lat="43.36514" lon="6.68713">
        <ele>156.7</ele>
        <time>2016-10-09T12:58:35Z</time>
      </trkpt>
      <trkpt lat="43.36516" lon="6.68728">
        <ele>156.6</ele>
        <time>2016-10-09T12:58:37Z</time>
      </trkpt>
      <trkpt lat="43.36515" lon="6.68741">
        <ele>156.5</ele>
        <time>2016-10-09T12:58:39Z</time>
      </trkpt>
      <trkpt lat="43.36515" lon="6.68754">
        <ele>156.4</ele>
        <time>2016-10-09T12:58:41Z</time>
      </trkpt>
      <trkpt lat="43.36513" lon="6.68767">
        <ele>156.3</ele>
        <time>2016-10-09T12:58:43Z</time>
      </trkpt>
      <trkpt lat="43.3651" lon="6.6878">
        <ele>156.2</ele>
        <time>2016-10-09T12:58:45Z</time>
      </trkpt>
      <trkpt lat="43.36506" lon="6.68792">
        <ele>155.6</ele>
        <time>2016-10-09T12:58:47Z</time>
      </trkpt>
      <trkpt lat="43.365" lon="6.68801">
        <ele>154.9</ele>
        <time>2016-10-09T12:58:49Z</time>
      </trkpt>
      <trkpt lat="43.36493" lon="6.68807">
        <ele>153.9</ele>
        <time>2016-10-09T12:58:51Z</time>
      </trkpt>
      <trkpt lat="43.36486" lon="6.68808">
        <ele>153.2</ele>
        <time>2016-10-09T12:58:53Z</time>
      </trkpt>
      <trkpt lat="43.36481" lon="6.68808">
        <ele>152.6</ele>
        <time>2016-10-09T12:58:55Z</time>
      </trkpt>
      <trkpt lat="43.36475" lon="6.68809">
        <ele>152</ele>
        <time>2016-10-09T12:58:57Z</time>
      </trkpt>
      <trkpt lat="43.3647" lon="6.6881">
        <ele>151.5</ele>
        <time>2016-10-09T12:58:59Z</time>
      </trkpt>
      <trkpt lat="43.36465" lon="6.68815">
        <ele>151</ele>
        <time>2016-10-09T12:59:01Z</time>
      </trkpt>
      <trkpt lat="43.36459" lon="6.68825">
        <ele>150.3</ele>
        <time>2016-10-09T12:59:03Z</time>
      </trkpt>
      <trkpt lat="43.3645" lon="6.68833">
        <ele>149.7</ele>
        <time>2016-10-09T12:59:05Z</time>
      </trkpt>
      <trkpt lat="43.36441" lon="6.68838">
        <ele>149.2</ele>
        <time>2016-10-09T12:59:07Z</time>
      </trkpt>
      <trkpt lat="43.36432" lon="6.68837">
        <ele>149.6</ele>
        <time>2016-10-09T12:59:09Z</time>
      </trkpt>
      <trkpt lat="43.36428" lon="6.68838">
        <ele>150.2</ele>
        <time>2016-10-09T12:59:11Z</time>
      </trkpt>
      <trkpt lat="43.36425" lon="6.68838">
        <ele>150.7</ele>
        <time>2016-10-09T12:59:13Z</time>
      </trkpt>
      <trkpt lat="43.36422" lon="6.68838">
        <ele>151</ele>
        <time>2016-10-09T12:59:15Z</time>
      </trkpt>
      <trkpt lat="43.3642" lon="6.68838">
        <ele>151.2</ele>
        <time>2016-10-09T12:59:17Z</time>
      </trkpt>
      <trkpt lat="43.36417" lon="6.68838">
        <ele>151.3</ele>
        <time>2016-10-09T12:59:19Z</time>
      </trkpt>
      <trkpt lat="43.36414" lon="6.68838">
        <ele>151.5</ele>
        <time>2016-10-09T12:59:21Z</time>
      </trkpt>
      <trkpt lat="43.36412" lon="6.68838">
        <ele>151.6</ele>
        <time>2016-10-09T12:59:23Z</time>
      </trkpt>
      <trkpt lat="43.36408" lon="6.68837">
        <ele>151.8</ele>
        <time>2016-10-09T12:59:25Z</time>
      </trkpt>
      <trkpt lat="43.36404" lon="6.68837">
        <ele>152</ele>
        <time>2016-10-09T12:59:27Z</time>
      </trkpt>
      <trkpt lat="43.36399" lon="6.68839">
        <ele>152.4</ele>
        <time>2016-10-09T12:59:29Z</time>
      </trkpt>
      <trkpt lat="43.36395" lon="6.68841">
        <ele>152.9</ele>
        <time>2016-10-09T12:59:31Z</time>
      </trkpt>
      <trkpt lat="43.36391" lon="6.68843">
        <ele>153.3</ele>
        <time>2016-10-09T12:59:33Z</time>
      </trkpt>
      <trkpt lat="43.36388" lon="6.68844">
        <ele>153.6</ele>
        <time>2016-10-09T12:59:35Z</time>
      </trkpt>
      <trkpt lat="43.36384" lon="6.68846">
        <ele>153.8</ele>
        <time>2016-10-09T12:59:37Z</time>
      </trkpt>
      <trkpt lat="43.36381" lon="6.68848">
        <ele>153.9</ele>
        <time>2016-10-09T12:59:39Z</time>
      </trkpt>
      <trkpt lat="43.36377" lon="6.68849">
        <ele>154</ele>
        <time>2016-10-09T12:59:41Z</time>
      </trkpt>
      <trkpt lat="43.36375" lon="6.68853">
        <ele>154</ele>
        <time>2016-10-09T12:59:43Z</time>
      </trkpt>
      <trkpt lat="43.36372" lon="6.68858">
        <ele>154.1</ele>
        <time>2016-10-09T12:59:45Z</time>
      </trkpt>
      <trkpt lat="43.36369" lon="6.68865">
        <ele>154.3</ele>
        <time>2016-10-09T12:59:47Z</time>
      </trkpt>
      <trkpt lat="43.36366" lon="6.68873">
        <ele>154.4</ele>
        <time>2016-10-09T12:59:49Z</time>
      </trkpt>
      <trkpt lat="43.36363" lon="6.68881">
        <ele>154.5</ele>
        <time>2016-10-09T12:59:51Z</time>
      </trkpt>
      <trkpt lat="43.3636" lon="6.68889">
        <ele>154.5</ele>
        <time>2016-10-09T12:59:53Z</time>
      </trkpt>
      <trkpt lat="43.36357" lon="6.68897">
        <ele>154.6</ele>
        <time>2016-10-09T12:59:55Z</time>
      </trkpt>
      <trkpt lat="43.36354" lon="6.68904">
        <ele>154.7</ele>
        <time>2016-10-09T12:59:57Z</time>
      </trkpt>
      <trkpt lat="43.3635" lon="6.68911">
        <ele>154.8</ele>
        <time>2016-10-09T12:59:59Z</time>
      </trkpt>
      <trkpt lat="43.36345" lon="6.68917">
        <ele>154.9</ele>
        <time>2016-10-09T13:00:01Z</time>
      </trkpt>
      <trkpt lat="43.36341" lon="6.68924">
        <ele>155.2</ele>
        <time>2016-10-09T13:00:03Z</time>
      </trkpt>
      <trkpt lat="43.36337" lon="6.6893">
        <ele>155.5</ele>
        <time>2016-10-09T13:00:05Z</time>
      </trkpt>
      <trkpt lat="43.36334" lon="6.68936">
        <ele>155.9</ele>
        <time>2016-10-09T13:00:07Z</time>
      </trkpt>
      <trkpt lat="43.3633" lon="6.6894">
        <ele>156.7</ele>
        <time>2016-10-09T13:00:09Z</time>
      </trkpt>
      <trkpt lat="43.36327" lon="6.68942">
        <ele>156.8</ele>
        <time>2016-10-09T13:00:11Z</time>
      </trkpt>
      <trkpt lat="43.36323" lon="6.68946">
        <ele>156.8</ele>
        <time>2016-10-09T13:00:13Z</time>
      </trkpt>
      <trkpt lat="43.36315" lon="6.68951">
        <ele>156.5</ele>
        <time>2016-10-09T13:00:15Z</time>
      </trkpt>
      <trkpt lat="43.36306" lon="6.68957">
        <ele>155.5</ele>
        <time>2016-10-09T13:00:17Z</time>
      </trkpt>
      <trkpt lat="43.363" lon="6.68966">
        <ele>154.3</ele>
        <time>2016-10-09T13:00:19Z</time>
      </trkpt>
      <trkpt lat="43.36299" lon="6.68972">
        <ele>154.6</ele>
        <time>2016-10-09T13:00:21Z</time>
      </trkpt>
      <trkpt lat="43.36298" lon="6.68975">
        <ele>154.7</ele>
        <time>2016-10-09T13:00:23Z</time>
      </trkpt>
      <trkpt lat="43.36297" lon="6.68978">
        <ele>154.8</ele>
        <time>2016-10-09T13:00:25Z</time>
      </trkpt>
      <trkpt lat="43.36295" lon="6.68981">
        <ele>154.9</ele>
        <time>2016-10-09T13:00:27Z</time>
      </trkpt>
      <trkpt lat="43.36294" lon="6.68984">
        <ele>155</ele>
        <time>2016-10-09T13:00:29Z</time>
      </trkpt>
      <trkpt lat="43.36293" lon="6.68987">
        <ele>155.2</ele>
        <time>2016-10-09T13:00:31Z</time>
      </trkpt>
      <trkpt lat="43.36293" lon="6.68989">
        <ele>155.4</ele>
        <time>2016-10-09T13:00:33Z</time>
      </trkpt>
      <trkpt lat="43.36291" lon="6.68991">
        <ele>155.5</ele>
        <time>2016-10-09T13:00:35Z</time>
      </trkpt>
      <trkpt lat="43.3629" lon="6.68995">
        <ele>155.7</ele>
        <time>2016-10-09T13:00:39Z</time>
      </trkpt>
      <trkpt lat="43.3629" lon="6.68997">
        <ele>155.8</ele>
        <time>2016-10-09T13:00:41Z</time>
      </trkpt>
      <trkpt lat="43.36289" lon="6.68999">
        <ele>155.9</ele>
        <time>2016-10-09T13:00:43Z</time>
      </trkpt>
      <trkpt lat="43.36288" lon="6.69001">
        <ele>156.1</ele>
        <time>2016-10-09T13:00:45Z</time>
      </trkpt>
      <trkpt lat="43.36287" lon="6.69003">
        <ele>156.3</ele>
        <time>2016-10-09T13:00:47Z</time>
      </trkpt>
      <trkpt lat="43.36286" lon="6.69005">
        <ele>156.5</ele>
        <time>2016-10-09T13:00:49Z</time>
      </trkpt>
      <trkpt lat="43.36285" lon="6.69007">
        <ele>156.9</ele>
        <time>2016-10-09T13:00:51Z</time>
      </trkpt>
      <trkpt lat="43.36285" lon="6.69008">
        <ele>157.3</ele>
        <time>2016-10-09T13:00:53Z</time>
      </trkpt>
      <trkpt lat="43.36284" lon="6.69011">
        <ele>157.7</ele>
        <time>2016-10-09T13:00:55Z</time>
      </trkpt>
      <trkpt lat="43.36284" lon="6.69012">
        <ele>158.1</ele>
        <time>2016-10-09T13:00:57Z</time>
      </trkpt>
      <trkpt lat="43.36283" lon="6.69014">
        <ele>158.4</ele>
        <time>2016-10-09T13:00:59Z</time>
      </trkpt>
      <trkpt lat="43.36283" lon="6.69016">
        <ele>158.8</ele>
        <time>2016-10-09T13:01:01Z</time>
      </trkpt>
      <trkpt lat="43.36282" lon="6.69018">
        <ele>159.4</ele>
        <time>2016-10-09T13:01:03Z</time>
      </trkpt>
      <trkpt lat="43.36282" lon="6.6902">
        <ele>160</ele>
        <time>2016-10-09T13:01:05Z</time>
      </trkpt>
      <trkpt lat="43.36281" lon="6.69022">
        <ele>160.7</ele>
        <time>2016-10-09T13:01:07Z</time>
      </trkpt>
      <trkpt lat="43.3628" lon="6.69024">
        <ele>161.5</ele>
        <time>2016-10-09T13:01:09Z</time>
      </trkpt>
      <trkpt lat="43.3628" lon="6.69026">
        <ele>162.9</ele>
        <time>2016-10-09T13:01:11Z</time>
      </trkpt>
      <trkpt lat="43.36279" lon="6.69027">
        <ele>163.4</ele>
        <time>2016-10-09T13:01:13Z</time>
      </trkpt>
      <trkpt lat="43.36279" lon="6.69029">
        <ele>163.7</ele>
        <time>2016-10-09T13:01:15Z</time>
      </trkpt>
      <trkpt lat="43.36278" lon="6.69031">
        <ele>164.1</ele>
        <time>2016-10-09T13:01:17Z</time>
      </trkpt>
      <trkpt lat="43.36277" lon="6.69033">
        <ele>164.4</ele>
        <time>2016-10-09T13:01:19Z</time>
      </trkpt>
      <trkpt lat="43.36277" lon="6.69036">
        <ele>164.8</ele>
        <time>2016-10-09T13:01:22Z</time>
      </trkpt>
      <trkpt lat="43.36276" lon="6.69038">
        <ele>165.7</ele>
        <time>2016-10-09T13:01:24Z</time>
      </trkpt>
      <trkpt lat="43.36276" lon="6.6904">
        <ele>166.4</ele>
        <time>2016-10-09T13:01:26Z</time>
      </trkpt>
      <trkpt lat="43.36276" lon="6.69042">
        <ele>166.7</ele>
        <time>2016-10-09T13:01:28Z</time>
      </trkpt>
      <trkpt lat="43.36275" lon="6.69045">
        <ele>167.2</ele>
        <time>2016-10-09T13:01:30Z</time>
      </trkpt>
      <trkpt lat="43.36274" lon="6.69046">
        <ele>167.4</ele>
        <time>2016-10-09T13:01:32Z</time>
      </trkpt>
      <trkpt lat="43.36272" lon="6.69049">
        <ele>167.6</ele>
        <time>2016-10-09T13:01:34Z</time>
      </trkpt>
      <trkpt lat="43.36272" lon="6.69051">
        <ele>167.8</ele>
        <time>2016-10-09T13:01:36Z</time>
      </trkpt>
      <trkpt lat="43.36272" lon="6.69056">
        <ele>168.2</ele>
        <time>2016-10-09T13:01:38Z</time>
      </trkpt>
      <trkpt lat="43.36272" lon="6.6906">
        <ele>168.5</ele>
        <time>2016-10-09T13:01:40Z</time>
      </trkpt>
      <trkpt lat="43.36272" lon="6.69065">
        <ele>169</ele>
        <time>2016-10-09T13:01:42Z</time>
      </trkpt>
      <trkpt lat="43.36272" lon="6.69074">
        <ele>169.5</ele>
        <time>2016-10-09T13:01:44Z</time>
      </trkpt>
      <trkpt lat="43.36272" lon="6.69084">
        <ele>170.1</ele>
        <time>2016-10-09T13:01:46Z</time>
      </trkpt>
      <trkpt lat="43.3627" lon="6.69096">
        <ele>170.7</ele>
        <time>2016-10-09T13:01:48Z</time>
      </trkpt>
      <trkpt lat="43.36268" lon="6.69108">
        <ele>171.4</ele>
        <time>2016-10-09T13:01:50Z</time>
      </trkpt>
      <trkpt lat="43.36269" lon="6.69122">
        <ele>172.2</ele>
        <time>2016-10-09T13:01:52Z</time>
      </trkpt>
      <trkpt lat="43.36273" lon="6.69133">
        <ele>173</ele>
        <time>2016-10-09T13:01:54Z</time>
      </trkpt>
      <trkpt lat="43.36279" lon="6.69142">
        <ele>173.7</ele>
        <time>2016-10-09T13:01:56Z</time>
      </trkpt>
      <trkpt lat="43.36282" lon="6.69151">
        <ele>174.3</ele>
        <time>2016-10-09T13:01:58Z</time>
      </trkpt>
      <trkpt lat="43.36283" lon="6.69161">
        <ele>174.9</ele>
        <time>2016-10-09T13:02:00Z</time>
      </trkpt>
      <trkpt lat="43.36283" lon="6.69174">
        <ele>175.5</ele>
        <time>2016-10-09T13:02:02Z</time>
      </trkpt>
      <trkpt lat="43.36284" lon="6.6919">
        <ele>176.4</ele>
        <time>2016-10-09T13:02:04Z</time>
      </trkpt>
      <trkpt lat="43.36285" lon="6.69207">
        <ele>177.8</ele>
        <time>2016-10-09T13:02:06Z</time>
      </trkpt>
      <trkpt lat="43.36289" lon="6.69221">
        <ele>178.8</ele>
        <time>2016-10-09T13:02:08Z</time>
      </trkpt>
      <trkpt lat="43.363" lon="6.69225">
        <ele>177.3</ele>
        <time>2016-10-09T13:02:10Z</time>
      </trkpt>
      <trkpt lat="43.36313" lon="6.69225">
        <ele>175.6</ele>
        <time>2016-10-09T13:02:12Z</time>
      </trkpt>
      <trkpt lat="43.36327" lon="6.69232">
        <ele>173.4</ele>
        <time>2016-10-09T13:02:14Z</time>
      </trkpt>
      <trkpt lat="43.3634" lon="6.69245">
        <ele>171.1</ele>
        <time>2016-10-09T13:02:16Z</time>
      </trkpt>
      <trkpt lat="43.36354" lon="6.6926">
        <ele>168.9</ele>
        <time>2016-10-09T13:02:18Z</time>
      </trkpt>
      <trkpt lat="43.36367" lon="6.69273">
        <ele>167</ele>
        <time>2016-10-09T13:02:20Z</time>
      </trkpt>
      <trkpt lat="43.36381" lon="6.69283">
        <ele>165.3</ele>
        <time>2016-10-09T13:02:22Z</time>
      </trkpt>
      <trkpt lat="43.36396" lon="6.6929">
        <ele>163.6</ele>
        <time>2016-10-09T13:02:24Z</time>
      </trkpt>
      <trkpt lat="43.36413" lon="6.69295">
        <ele>161.6</ele>
        <time>2016-10-09T13:02:26Z</time>
      </trkpt>
      <trkpt lat="43.36429" lon="6.69303">
        <ele>159.5</ele>
        <time>2016-10-09T13:02:28Z</time>
      </trkpt>
      <trkpt lat="43.36441" lon="6.69318">
        <ele>157.3</ele>
        <time>2016-10-09T13:02:30Z</time>
      </trkpt>
      <trkpt lat="43.3645" lon="6.69338">
        <ele>155.2</ele>
        <time>2016-10-09T13:02:32Z</time>
      </trkpt>
      <trkpt lat="43.36454" lon="6.69357">
        <ele>153.4</ele>
        <time>2016-10-09T13:02:34Z</time>
      </trkpt>
      <trkpt lat="43.36457" lon="6.69375">
        <ele>152.4</ele>
        <time>2016-10-09T13:02:36Z</time>
      </trkpt>
      <trkpt lat="43.36456" lon="6.69393">
        <ele>152</ele>
        <time>2016-10-09T13:02:38Z</time>
      </trkpt>
      <trkpt lat="43.36454" lon="6.6941">
        <ele>151.7</ele>
        <time>2016-10-09T13:02:40Z</time>
      </trkpt>
      <trkpt lat="43.36452" lon="6.69427">
        <ele>151.4</ele>
        <time>2016-10-09T13:02:42Z</time>
      </trkpt>
      <trkpt lat="43.36452" lon="6.69446">
        <ele>150.9</ele>
        <time>2016-10-09T13:02:44Z</time>
      </trkpt>
      <trkpt lat="43.36459" lon="6.69465">
        <ele>149.8</ele>
        <time>2016-10-09T13:02:46Z</time>
      </trkpt>
      <trkpt lat="43.36469" lon="6.69481">
        <ele>148.4</ele>
        <time>2016-10-09T13:02:48Z</time>
      </trkpt>
      <trkpt lat="43.36482" lon="6.6949">
        <ele>146.8</ele>
        <time>2016-10-09T13:02:50Z</time>
      </trkpt>
      <trkpt lat="43.36494" lon="6.69503">
        <ele>145.2</ele>
        <time>2016-10-09T13:02:52Z</time>
      </trkpt>
      <trkpt lat="43.36503" lon="6.69521">
        <ele>143.5</ele>
        <time>2016-10-09T13:02:54Z</time>
      </trkpt>
      <trkpt lat="43.3651" lon="6.69541">
        <ele>142</ele>
        <time>2016-10-09T13:02:56Z</time>
      </trkpt>
      <trkpt lat="43.36517" lon="6.6956">
        <ele>140.6</ele>
        <time>2016-10-09T13:02:58Z</time>
      </trkpt>
      <trkpt lat="43.36525" lon="6.69578">
        <ele>139.7</ele>
        <time>2016-10-09T13:03:00Z</time>
      </trkpt>
      <trkpt lat="43.36533" lon="6.69595">
        <ele>139.1</ele>
        <time>2016-10-09T13:03:02Z</time>
      </trkpt>
      <trkpt lat="43.36539" lon="6.69613">
        <ele>138.3</ele>
        <time>2016-10-09T13:03:04Z</time>
      </trkpt>
      <trkpt lat="43.36543" lon="6.69633">
        <ele>137.2</ele>
        <time>2016-10-09T13:03:06Z</time>
      </trkpt>
      <trkpt lat="43.36549" lon="6.69653">
        <ele>136</ele>
        <time>2016-10-09T13:03:08Z</time>
      </trkpt>
      <trkpt lat="43.36556" lon="6.69672">
        <ele>135.1</ele>
        <time>2016-10-09T13:03:10Z</time>
      </trkpt>
      <trkpt lat="43.36563" lon="6.6969">
        <ele>133.7</ele>
        <time>2016-10-09T13:03:12Z</time>
      </trkpt>
      <trkpt lat="43.36567" lon="6.69704">
        <ele>132.3</ele>
        <time>2016-10-09T13:03:14Z</time>
      </trkpt>
      <trkpt lat="43.36573" lon="6.69718">
        <ele>130.7</ele>
        <time>2016-10-09T13:03:16Z</time>
      </trkpt>
      <trkpt lat="43.36577" lon="6.6973">
        <ele>129.4</ele>
        <time>2016-10-09T13:03:18Z</time>
      </trkpt>
      <trkpt lat="43.36575" lon="6.69736">
        <ele>128.7</ele>
        <time>2016-10-09T13:03:20Z</time>
      </trkpt>
      <trkpt lat="43.36572" lon="6.69735">
        <ele>128</ele>
        <time>2016-10-09T13:03:22Z</time>
      </trkpt>
      <trkpt lat="43.3657" lon="6.69732">
        <ele>128</ele>
        <time>2016-10-09T13:03:24Z</time>
      </trkpt>
      <trkpt lat="43.36567" lon="6.69729">
        <ele>128</ele>
        <time>2016-10-09T13:03:26Z</time>
      </trkpt>
      <trkpt lat="43.36564" lon="6.69726">
        <ele>128</ele>
        <time>2016-10-09T13:03:28Z</time>
      </trkpt>
      <trkpt lat="43.36561" lon="6.69722">
        <ele>128</ele>
        <time>2016-10-09T13:03:30Z</time>
      </trkpt>
      <trkpt lat="43.36558" lon="6.69718">
        <ele>128.1</ele>
        <time>2016-10-09T13:03:32Z</time>
      </trkpt>
      <trkpt lat="43.36556" lon="6.69714">
        <ele>128.1</ele>
        <time>2016-10-09T13:03:34Z</time>
      </trkpt>
      <trkpt lat="43.36552" lon="6.69711">
        <ele>128.2</ele>
        <time>2016-10-09T13:03:36Z</time>
      </trkpt>
      <trkpt lat="43.36549" lon="6.69707">
        <ele>128.2</ele>
        <time>2016-10-09T13:03:38Z</time>
      </trkpt>
      <trkpt lat="43.36546" lon="6.69703">
        <ele>128.3</ele>
        <time>2016-10-09T13:03:40Z</time>
      </trkpt>
      <trkpt lat="43.36542" lon="6.697">
        <ele>128.6</ele>
        <time>2016-10-09T13:03:42Z</time>
      </trkpt>
      <trkpt lat="43.36538" lon="6.69696">
        <ele>128.9</ele>
        <time>2016-10-09T13:03:44Z</time>
      </trkpt>
      <trkpt lat="43.36534" lon="6.69693">
        <ele>129.3</ele>
        <time>2016-10-09T13:03:46Z</time>
      </trkpt>
      <trkpt lat="43.36531" lon="6.69689">
        <ele>129.7</ele>
        <time>2016-10-09T13:03:48Z</time>
      </trkpt>
      <trkpt lat="43.36527" lon="6.69686">
        <ele>129.9</ele>
        <time>2016-10-09T13:03:50Z</time>
      </trkpt>
      <trkpt lat="43.36523" lon="6.69684">
        <ele>130.2</ele>
        <time>2016-10-09T13:03:52Z</time>
      </trkpt>
      <trkpt lat="43.36519" lon="6.69682">
        <ele>130.5</ele>
        <time>2016-10-09T13:03:54Z</time>
      </trkpt>
      <trkpt lat="43.36515" lon="6.69679">
        <ele>131</ele>
        <time>2016-10-09T13:03:56Z</time>
      </trkpt>
      <trkpt lat="43.36512" lon="6.69677">
        <ele>131.4</ele>
        <time>2016-10-09T13:03:58Z</time>
      </trkpt>
      <trkpt lat="43.36508" lon="6.69674">
        <ele>131.7</ele>
        <time>2016-10-09T13:04:00Z</time>
      </trkpt>
      <trkpt lat="43.36504" lon="6.69674">
        <ele>131.9</ele>
        <time>2016-10-09T13:04:02Z</time>
      </trkpt>
      <trkpt lat="43.365" lon="6.69674">
        <ele>132.3</ele>
        <time>2016-10-09T13:04:04Z</time>
      </trkpt>
      <trkpt lat="43.36496" lon="6.69676">
        <ele>132.6</ele>
        <time>2016-10-09T13:04:06Z</time>
      </trkpt>
      <trkpt lat="43.36493" lon="6.6968">
        <ele>132.9</ele>
        <time>2016-10-09T13:04:08Z</time>
      </trkpt>
      <trkpt lat="43.3649" lon="6.69684">
        <ele>133</ele>
        <time>2016-10-09T13:04:10Z</time>
      </trkpt>
      <trkpt lat="43.36487" lon="6.69689">
        <ele>133.1</ele>
        <time>2016-10-09T13:04:12Z</time>
      </trkpt>
      <trkpt lat="43.36484" lon="6.69696">
        <ele>133.2</ele>
        <time>2016-10-09T13:04:14Z</time>
      </trkpt>
      <trkpt lat="43.36481" lon="6.69703">
        <ele>133.4</ele>
        <time>2016-10-09T13:04:16Z</time>
      </trkpt>
      <trkpt lat="43.36477" lon="6.69709">
        <ele>133.5</ele>
        <time>2016-10-09T13:04:18Z</time>
      </trkpt>
      <trkpt lat="43.36471" lon="6.69714">
        <ele>133.6</ele>
        <time>2016-10-09T13:04:20Z</time>
      </trkpt>
      <trkpt lat="43.36466" lon="6.69718">
        <ele>133.8</ele>
        <time>2016-10-09T13:04:22Z</time>
      </trkpt>
      <trkpt lat="43.36461" lon="6.69722">
        <ele>133.9</ele>
        <time>2016-10-09T13:04:24Z</time>
      </trkpt>
      <trkpt lat="43.36457" lon="6.69725">
        <ele>134.1</ele>
        <time>2016-10-09T13:04:26Z</time>
      </trkpt>
      <trkpt lat="43.36453" lon="6.69726">
        <ele>134.4</ele>
        <time>2016-10-09T13:04:28Z</time>
      </trkpt>
      <trkpt lat="43.3645" lon="6.69728">
        <ele>134.8</ele>
        <time>2016-10-09T13:04:30Z</time>
      </trkpt>
      <trkpt lat="43.36447" lon="6.69728">
        <ele>135.1</ele>
        <time>2016-10-09T13:04:32Z</time>
      </trkpt>
      <trkpt lat="43.36443" lon="6.69728">
        <ele>135.3</ele>
        <time>2016-10-09T13:04:34Z</time>
      </trkpt>
      <trkpt lat="43.36441" lon="6.69728">
        <ele>135.6</ele>
        <time>2016-10-09T13:04:36Z</time>
      </trkpt>
      <trkpt lat="43.36437" lon="6.69728">
        <ele>136.2</ele>
        <time>2016-10-09T13:04:38Z</time>
      </trkpt>
      <trkpt lat="43.36434" lon="6.69728">
        <ele>136.7</ele>
        <time>2016-10-09T13:04:40Z</time>
      </trkpt>
      <trkpt lat="43.36432" lon="6.69728">
        <ele>137.1</ele>
        <time>2016-10-09T13:04:42Z</time>
      </trkpt>
      <trkpt lat="43.36429" lon="6.69727">
        <ele>137.4</ele>
        <time>2016-10-09T13:04:44Z</time>
      </trkpt>
      <trkpt lat="43.36426" lon="6.69726">
        <ele>137.8</ele>
        <time>2016-10-09T13:04:46Z</time>
      </trkpt>
      <trkpt lat="43.36424" lon="6.69725">
        <ele>138.2</ele>
        <time>2016-10-09T13:04:48Z</time>
      </trkpt>
      <trkpt lat="43.36421" lon="6.69724">
        <ele>138.6</ele>
        <time>2016-10-09T13:04:50Z</time>
      </trkpt>
      <trkpt lat="43.36419" lon="6.69723">
        <ele>138.9</ele>
        <time>2016-10-09T13:04:52Z</time>
      </trkpt>
      <trkpt lat="43.36416" lon="6.69722">
        <ele>139.1</ele>
        <time>2016-10-09T13:04:54Z</time>
      </trkpt>
      <trkpt lat="43.36414" lon="6.69721">
        <ele>139.4</ele>
        <time>2016-10-09T13:04:56Z</time>
      </trkpt>
      <trkpt lat="43.36412" lon="6.6972">
        <ele>139.8</ele>
        <time>2016-10-09T13:04:58Z</time>
      </trkpt>
      <trkpt lat="43.3641" lon="6.69718">
        <ele>140.2</ele>
        <time>2016-10-09T13:05:00Z</time>
      </trkpt>
      <trkpt lat="43.36408" lon="6.69717">
        <ele>140.5</ele>
        <time>2016-10-09T13:05:02Z</time>
      </trkpt>
      <trkpt lat="43.36406" lon="6.69715">
        <ele>140.6</ele>
        <time>2016-10-09T13:05:04Z</time>
      </trkpt>
      <trkpt lat="43.36403" lon="6.69713">
        <ele>140.8</ele>
        <time>2016-10-09T13:05:06Z</time>
      </trkpt>
      <trkpt lat="43.36401" lon="6.69712">
        <ele>140.9</ele>
        <time>2016-10-09T13:05:08Z</time>
      </trkpt>
      <trkpt lat="43.36398" lon="6.6971">
        <ele>141.2</ele>
        <time>2016-10-09T13:05:10Z</time>
      </trkpt>
      <trkpt lat="43.36396" lon="6.69708">
        <ele>141.7</ele>
        <time>2016-10-09T13:05:12Z</time>
      </trkpt>
      <trkpt lat="43.36394" lon="6.69706">
        <ele>142</ele>
        <time>2016-10-09T13:05:14Z</time>
      </trkpt>
      <trkpt lat="43.36392" lon="6.69704">
        <ele>142.3</ele>
        <time>2016-10-09T13:05:16Z</time>
      </trkpt>
      <trkpt lat="43.36389" lon="6.69703">
        <ele>142.6</ele>
        <time>2016-10-09T13:05:18Z</time>
      </trkpt>
      <trkpt lat="43.36387" lon="6.69701">
        <ele>142.9</ele>
        <time>2016-10-09T13:05:20Z</time>
      </trkpt>
      <trkpt lat="43.36385" lon="6.697">
        <ele>143.3</ele>
        <time>2016-10-09T13:05:22Z</time>
      </trkpt>
      <trkpt lat="43.36383" lon="6.69698">
        <ele>143.6</ele>
        <time>2016-10-09T13:05:24Z</time>
      </trkpt>
      <trkpt lat="43.36381" lon="6.69697">
        <ele>143.9</ele>
        <time>2016-10-09T13:05:26Z</time>
      </trkpt>
      <trkpt lat="43.36379" lon="6.69695">
        <ele>144.1</ele>
        <time>2016-10-09T13:05:28Z</time>
      </trkpt>
      <trkpt lat="43.36377" lon="6.69693">
        <ele>144.3</ele>
        <time>2016-10-09T13:05:30Z</time>
      </trkpt>
      <trkpt lat="43.36375" lon="6.69692">
        <ele>144.5</ele>
        <time>2016-10-09T13:05:32Z</time>
      </trkpt>
      <trkpt lat="43.36374" lon="6.6969">
        <ele>144.8</ele>
        <time>2016-10-09T13:05:34Z</time>
      </trkpt>
      <trkpt lat="43.36372" lon="6.69688">
        <ele>145.4</ele>
        <time>2016-10-09T13:05:36Z</time>
      </trkpt>
      <trkpt lat="43.36369" lon="6.69686">
        <ele>145.7</ele>
        <time>2016-10-09T13:05:38Z</time>
      </trkpt>
      <trkpt lat="43.36367" lon="6.69684">
        <ele>146</ele>
        <time>2016-10-09T13:05:40Z</time>
      </trkpt>
      <trkpt lat="43.36365" lon="6.69683">
        <ele>146.3</ele>
        <time>2016-10-09T13:05:42Z</time>
      </trkpt>
      <trkpt lat="43.36363" lon="6.69682">
        <ele>146.8</ele>
        <time>2016-10-09T13:05:44Z</time>
      </trkpt>
      <trkpt lat="43.3636" lon="6.69681">
        <ele>147.4</ele>
        <time>2016-10-09T13:05:46Z</time>
      </trkpt>
      <trkpt lat="43.36357" lon="6.69681">
        <ele>147.7</ele>
        <time>2016-10-09T13:05:48Z</time>
      </trkpt>
      <trkpt lat="43.36354" lon="6.6968">
        <ele>148.2</ele>
        <time>2016-10-09T13:05:50Z</time>
      </trkpt>
      <trkpt lat="43.36352" lon="6.69679">
        <ele>148.8</ele>
        <time>2016-10-09T13:05:52Z</time>
      </trkpt>
      <trkpt lat="43.3635" lon="6.69679">
        <ele>149.3</ele>
        <time>2016-10-09T13:05:54Z</time>
      </trkpt>
      <trkpt lat="43.36347" lon="6.69679">
        <ele>149.6</ele>
        <time>2016-10-09T13:05:56Z</time>
      </trkpt>
      <trkpt lat="43.36345" lon="6.69678">
        <ele>150.1</ele>
        <time>2016-10-09T13:05:58Z</time>
      </trkpt>
      <trkpt lat="43.36342" lon="6.69678">
        <ele>150.5</ele>
        <time>2016-10-09T13:06:00Z</time>
      </trkpt>
      <trkpt lat="43.3634" lon="6.69679">
        <ele>151</ele>
        <time>2016-10-09T13:06:02Z</time>
      </trkpt>
      <trkpt lat="43.36338" lon="6.69679">
        <ele>151.3</ele>
        <time>2016-10-09T13:06:04Z</time>
      </trkpt>
      <trkpt lat="43.36336" lon="6.69678">
        <ele>151.6</ele>
        <time>2016-10-09T13:06:06Z</time>
      </trkpt>
      <trkpt lat="43.36334" lon="6.69678">
        <ele>152.2</ele>
        <time>2016-10-09T13:06:08Z</time>
      </trkpt>
      <trkpt lat="43.36331" lon="6.69677">
        <ele>152.7</ele>
        <time>2016-10-09T13:06:10Z</time>
      </trkpt>
      <trkpt lat="43.3633" lon="6.69678">
        <ele>152.9</ele>
        <time>2016-10-09T13:06:12Z</time>
      </trkpt>
      <trkpt lat="43.36328" lon="6.69676">
        <ele>153.2</ele>
        <time>2016-10-09T13:06:14Z</time>
      </trkpt>
      <trkpt lat="43.36326" lon="6.69676">
        <ele>153.7</ele>
        <time>2016-10-09T13:06:16Z</time>
      </trkpt>
      <trkpt lat="43.36323" lon="6.69675">
        <ele>154.3</ele>
        <time>2016-10-09T13:06:18Z</time>
      </trkpt>
      <trkpt lat="43.36321" lon="6.69675">
        <ele>154.6</ele>
        <time>2016-10-09T13:06:20Z</time>
      </trkpt>
      <trkpt lat="43.36319" lon="6.69675">
        <ele>154.9</ele>
        <time>2016-10-09T13:06:22Z</time>
      </trkpt>
      <trkpt lat="43.36317" lon="6.69674">
        <ele>155.3</ele>
        <time>2016-10-09T13:06:24Z</time>
      </trkpt>
      <trkpt lat="43.36314" lon="6.69674">
        <ele>155.9</ele>
        <time>2016-10-09T13:06:26Z</time>
      </trkpt>
      <trkpt lat="43.36312" lon="6.69673">
        <ele>156.4</ele>
        <time>2016-10-09T13:06:28Z</time>
      </trkpt>
      <trkpt lat="43.3631" lon="6.69672">
        <ele>156.7</ele>
        <time>2016-10-09T13:06:30Z</time>
      </trkpt>
      <trkpt lat="43.36308" lon="6.69671">
        <ele>157.1</ele>
        <time>2016-10-09T13:06:32Z</time>
      </trkpt>
      <trkpt lat="43.36305" lon="6.69669">
        <ele>157.6</ele>
        <time>2016-10-09T13:06:34Z</time>
      </trkpt>
      <trkpt lat="43.36303" lon="6.69668">
        <ele>157.9</ele>
        <time>2016-10-09T13:06:36Z</time>
      </trkpt>
      <trkpt lat="43.36302" lon="6.69667">
        <ele>158.2</ele>
        <time>2016-10-09T13:06:38Z</time>
      </trkpt>
      <trkpt lat="43.363" lon="6.69665">
        <ele>158.4</ele>
        <time>2016-10-09T13:06:40Z</time>
      </trkpt>
      <trkpt lat="43.36298" lon="6.69664">
        <ele>158.6</ele>
        <time>2016-10-09T13:06:42Z</time>
      </trkpt>
      <trkpt lat="43.36296" lon="6.69662">
        <ele>158.7</ele>
        <time>2016-10-09T13:06:44Z</time>
      </trkpt>
      <trkpt lat="43.36295" lon="6.6966">
        <ele>159.1</ele>
        <time>2016-10-09T13:06:46Z</time>
      </trkpt>
      <trkpt lat="43.36293" lon="6.69659">
        <ele>159.4</ele>
        <time>2016-10-09T13:06:48Z</time>
      </trkpt>
      <trkpt lat="43.36292" lon="6.69658">
        <ele>159.6</ele>
        <time>2016-10-09T13:06:50Z</time>
      </trkpt>
      <trkpt lat="43.3629" lon="6.69656">
        <ele>159.8</ele>
        <time>2016-10-09T13:06:52Z</time>
      </trkpt>
      <trkpt lat="43.36288" lon="6.69654">
        <ele>160</ele>
        <time>2016-10-09T13:06:54Z</time>
      </trkpt>
      <trkpt lat="43.36286" lon="6.69652">
        <ele>160.1</ele>
        <time>2016-10-09T13:06:56Z</time>
      </trkpt>
      <trkpt lat="43.36285" lon="6.6965">
        <ele>160.2</ele>
        <time>2016-10-09T13:06:58Z</time>
      </trkpt>
      <trkpt lat="43.36283" lon="6.69649">
        <ele>160.4</ele>
        <time>2016-10-09T13:07:00Z</time>
      </trkpt>
      <trkpt lat="43.36281" lon="6.69647">
        <ele>160.6</ele>
        <time>2016-10-09T13:07:02Z</time>
      </trkpt>
      <trkpt lat="43.36279" lon="6.69644">
        <ele>160.9</ele>
        <time>2016-10-09T13:07:04Z</time>
      </trkpt>
      <trkpt lat="43.36277" lon="6.69642">
        <ele>161.3</ele>
        <time>2016-10-09T13:07:06Z</time>
      </trkpt>
      <trkpt lat="43.36276" lon="6.6964">
        <ele>161.4</ele>
        <time>2016-10-09T13:07:08Z</time>
      </trkpt>
      <trkpt lat="43.36273" lon="6.69637">
        <ele>161.6</ele>
        <time>2016-10-09T13:07:10Z</time>
      </trkpt>
      <trkpt lat="43.36272" lon="6.69635">
        <ele>161.9</ele>
        <time>2016-10-09T13:07:12Z</time>
      </trkpt>
      <trkpt lat="43.36271" lon="6.69632">
        <ele>162</ele>
        <time>2016-10-09T13:07:14Z</time>
      </trkpt>
      <trkpt lat="43.36269" lon="6.69629">
        <ele>162.2</ele>
        <time>2016-10-09T13:07:16Z</time>
      </trkpt>
      <trkpt lat="43.36267" lon="6.69627">
        <ele>162.4</ele>
        <time>2016-10-09T13:07:18Z</time>
      </trkpt>
      <trkpt lat="43.36265" lon="6.69625">
        <ele>162.7</ele>
        <time>2016-10-09T13:07:20Z</time>
      </trkpt>
      <trkpt lat="43.36264" lon="6.69622">
        <ele>163</ele>
        <time>2016-10-09T13:07:22Z</time>
      </trkpt>
      <trkpt lat="43.36263" lon="6.6962">
        <ele>163.2</ele>
        <time>2016-10-09T13:07:24Z</time>
      </trkpt>
      <trkpt lat="43.36261" lon="6.69617">
        <ele>163.4</ele>
        <time>2016-10-09T13:07:26Z</time>
      </trkpt>
      <trkpt lat="43.36259" lon="6.69615">
        <ele>163.6</ele>
        <time>2016-10-09T13:07:28Z</time>
      </trkpt>
      <trkpt lat="43.36256" lon="6.69613">
        <ele>163.9</ele>
        <time>2016-10-09T13:07:30Z</time>
      </trkpt>
      <trkpt lat="43.36255" lon="6.6961">
        <ele>164.4</ele>
        <time>2016-10-09T13:07:32Z</time>
      </trkpt>
      <trkpt lat="43.36252" lon="6.69608">
        <ele>165.1</ele>
        <time>2016-10-09T13:07:34Z</time>
      </trkpt>
      <trkpt lat="43.3625" lon="6.69606">
        <ele>165.4</ele>
        <time>2016-10-09T13:07:36Z</time>
      </trkpt>
      <trkpt lat="43.36248" lon="6.69604">
        <ele>165.7</ele>
        <time>2016-10-09T13:07:38Z</time>
      </trkpt>
      <trkpt lat="43.36246" lon="6.69602">
        <ele>166.2</ele>
        <time>2016-10-09T13:07:40Z</time>
      </trkpt>
      <trkpt lat="43.36243" lon="6.69599">
        <ele>166.7</ele>
        <time>2016-10-09T13:07:42Z</time>
      </trkpt>
      <trkpt lat="43.36241" lon="6.69597">
        <ele>167</ele>
        <time>2016-10-09T13:07:44Z</time>
      </trkpt>
      <trkpt lat="43.36239" lon="6.69595">
        <ele>167.2</ele>
        <time>2016-10-09T13:07:46Z</time>
      </trkpt>
      <trkpt lat="43.36237" lon="6.69593">
        <ele>167.5</ele>
        <time>2016-10-09T13:07:48Z</time>
      </trkpt>
      <trkpt lat="43.36236" lon="6.69591">
        <ele>167.9</ele>
        <time>2016-10-09T13:07:50Z</time>
      </trkpt>
      <trkpt lat="43.36234" lon="6.69589">
        <ele>168.3</ele>
        <time>2016-10-09T13:07:52Z</time>
      </trkpt>
      <trkpt lat="43.36232" lon="6.69586">
        <ele>168.7</ele>
        <time>2016-10-09T13:07:54Z</time>
      </trkpt>
      <trkpt lat="43.36231" lon="6.69584">
        <ele>168.8</ele>
        <time>2016-10-09T13:07:56Z</time>
      </trkpt>
      <trkpt lat="43.36229" lon="6.69582">
        <ele>168.9</ele>
        <time>2016-10-09T13:07:58Z</time>
      </trkpt>
      <trkpt lat="43.36227" lon="6.6958">
        <ele>169.1</ele>
        <time>2016-10-09T13:08:00Z</time>
      </trkpt>
      <trkpt lat="43.36226" lon="6.69577">
        <ele>169.2</ele>
        <time>2016-10-09T13:08:02Z</time>
      </trkpt>
      <trkpt lat="43.36224" lon="6.69575">
        <ele>169.5</ele>
        <time>2016-10-09T13:08:04Z</time>
      </trkpt>
      <trkpt lat="43.36223" lon="6.69573">
        <ele>169.8</ele>
        <time>2016-10-09T13:08:06Z</time>
      </trkpt>
      <trkpt lat="43.36222" lon="6.6957">
        <ele>170</ele>
        <time>2016-10-09T13:08:08Z</time>
      </trkpt>
      <trkpt lat="43.36221" lon="6.69567">
        <ele>170.2</ele>
        <time>2016-10-09T13:08:10Z</time>
      </trkpt>
      <trkpt lat="43.3622" lon="6.69565">
        <ele>170.4</ele>
        <time>2016-10-09T13:08:12Z</time>
      </trkpt>
      <trkpt lat="43.36219" lon="6.69562">
        <ele>170.5</ele>
        <time>2016-10-09T13:08:14Z</time>
      </trkpt>
      <trkpt lat="43.36218" lon="6.69558">
        <ele>170.7</ele>
        <time>2016-10-09T13:08:16Z</time>
      </trkpt>
      <trkpt lat="43.36217" lon="6.69555">
        <ele>170.8</ele>
        <time>2016-10-09T13:08:18Z</time>
      </trkpt>
      <trkpt lat="43.36216" lon="6.69552">
        <ele>171.2</ele>
        <time>2016-10-09T13:08:20Z</time>
      </trkpt>
      <trkpt lat="43.36214" lon="6.69549">
        <ele>171.5</ele>
        <time>2016-10-09T13:08:22Z</time>
      </trkpt>
      <trkpt lat="43.36212" lon="6.69547">
        <ele>172</ele>
        <time>2016-10-09T13:08:24Z</time>
      </trkpt>
      <trkpt lat="43.3621" lon="6.69544">
        <ele>172.3</ele>
        <time>2016-10-09T13:08:26Z</time>
      </trkpt>
      <trkpt lat="43.36208" lon="6.6954">
        <ele>172.9</ele>
        <time>2016-10-09T13:08:28Z</time>
      </trkpt>
      <trkpt lat="43.36206" lon="6.69538">
        <ele>173.5</ele>
        <time>2016-10-09T13:08:30Z</time>
      </trkpt>
      <trkpt lat="43.36203" lon="6.69537">
        <ele>174.1</ele>
        <time>2016-10-09T13:08:32Z</time>
      </trkpt>
      <trkpt lat="43.362" lon="6.69535">
        <ele>174.7</ele>
        <time>2016-10-09T13:08:34Z</time>
      </trkpt>
      <trkpt lat="43.36198" lon="6.69534">
        <ele>175.2</ele>
        <time>2016-10-09T13:08:36Z</time>
      </trkpt>
      <trkpt lat="43.36196" lon="6.69532">
        <ele>175.8</ele>
        <time>2016-10-09T13:08:38Z</time>
      </trkpt>
      <trkpt lat="43.36194" lon="6.69531">
        <ele>176.1</ele>
        <time>2016-10-09T13:08:40Z</time>
      </trkpt>
      <trkpt lat="43.36192" lon="6.6953">
        <ele>176.4</ele>
        <time>2016-10-09T13:08:42Z</time>
      </trkpt>
      <trkpt lat="43.36189" lon="6.69528">
        <ele>176.9</ele>
        <time>2016-10-09T13:08:44Z</time>
      </trkpt>
      <trkpt lat="43.36187" lon="6.69526">
        <ele>177.4</ele>
        <time>2016-10-09T13:08:46Z</time>
      </trkpt>
      <trkpt lat="43.36185" lon="6.69525">
        <ele>177.6</ele>
        <time>2016-10-09T13:08:48Z</time>
      </trkpt>
      <trkpt lat="43.36182" lon="6.69523">
        <ele>177.8</ele>
        <time>2016-10-09T13:08:50Z</time>
      </trkpt>
      <trkpt lat="43.36181" lon="6.69522">
        <ele>177.9</ele>
        <time>2016-10-09T13:08:52Z</time>
      </trkpt>
      <trkpt lat="43.36178" lon="6.6952">
        <ele>178.3</ele>
        <time>2016-10-09T13:08:54Z</time>
      </trkpt>
      <trkpt lat="43.36176" lon="6.69518">
        <ele>178.6</ele>
        <time>2016-10-09T13:08:56Z</time>
      </trkpt>
      <trkpt lat="43.36174" lon="6.69516">
        <ele>178.9</ele>
        <time>2016-10-09T13:08:58Z</time>
      </trkpt>
      <trkpt lat="43.36172" lon="6.69513">
        <ele>179</ele>
        <time>2016-10-09T13:09:00Z</time>
      </trkpt>
      <trkpt lat="43.3617" lon="6.69511">
        <ele>179.1</ele>
        <time>2016-10-09T13:09:02Z</time>
      </trkpt>
      <trkpt lat="43.36168" lon="6.69508">
        <ele>179.3</ele>
        <time>2016-10-09T13:09:04Z</time>
      </trkpt>
      <trkpt lat="43.36166" lon="6.69506">
        <ele>179.4</ele>
        <time>2016-10-09T13:09:06Z</time>
      </trkpt>
      <trkpt lat="43.36164" lon="6.69504">
        <ele>179.5</ele>
        <time>2016-10-09T13:09:08Z</time>
      </trkpt>
      <trkpt lat="43.36163" lon="6.69502">
        <ele>179.6</ele>
        <time>2016-10-09T13:09:10Z</time>
      </trkpt>
      <trkpt lat="43.36161" lon="6.69499">
        <ele>179.9</ele>
        <time>2016-10-09T13:09:12Z</time>
      </trkpt>
      <trkpt lat="43.36159" lon="6.69498">
        <ele>180.1</ele>
        <time>2016-10-09T13:09:14Z</time>
      </trkpt>
      <trkpt lat="43.36157" lon="6.69496">
        <ele>180.5</ele>
        <time>2016-10-09T13:09:16Z</time>
      </trkpt>
      <trkpt lat="43.36154" lon="6.69494">
        <ele>180.8</ele>
        <time>2016-10-09T13:09:18Z</time>
      </trkpt>
      <trkpt lat="43.36153" lon="6.69492">
        <ele>180.9</ele>
        <time>2016-10-09T13:09:20Z</time>
      </trkpt>
      <trkpt lat="43.3615" lon="6.6949">
        <ele>181.1</ele>
        <time>2016-10-09T13:09:22Z</time>
      </trkpt>
      <trkpt lat="43.36148" lon="6.69488">
        <ele>181.2</ele>
        <time>2016-10-09T13:09:24Z</time>
      </trkpt>
      <trkpt lat="43.36146" lon="6.69485">
        <ele>181.5</ele>
        <time>2016-10-09T13:09:26Z</time>
      </trkpt>
      <trkpt lat="43.36144" lon="6.69483">
        <ele>181.9</ele>
        <time>2016-10-09T13:09:28Z</time>
      </trkpt>
      <trkpt lat="43.36141" lon="6.69481">
        <ele>182.2</ele>
        <time>2016-10-09T13:09:30Z</time>
      </trkpt>
      <trkpt lat="43.36138" lon="6.6948">
        <ele>182.5</ele>
        <time>2016-10-09T13:09:32Z</time>
      </trkpt>
      <trkpt lat="43.36135" lon="6.69479">
        <ele>182.7</ele>
        <time>2016-10-09T13:09:34Z</time>
      </trkpt>
      <trkpt lat="43.36132" lon="6.69477">
        <ele>182.8</ele>
        <time>2016-10-09T13:09:36Z</time>
      </trkpt>
      <trkpt lat="43.36129" lon="6.69476">
        <ele>183</ele>
        <time>2016-10-09T13:09:38Z</time>
      </trkpt>
      <trkpt lat="43.36126" lon="6.69476">
        <ele>183.1</ele>
        <time>2016-10-09T13:09:40Z</time>
      </trkpt>
      <trkpt lat="43.36124" lon="6.69476">
        <ele>183.2</ele>
        <time>2016-10-09T13:09:42Z</time>
      </trkpt>
      <trkpt lat="43.36121" lon="6.69476">
        <ele>183.5</ele>
        <time>2016-10-09T13:09:44Z</time>
      </trkpt>
      <trkpt lat="43.36117" lon="6.69476">
        <ele>183.9</ele>
        <time>2016-10-09T13:09:46Z</time>
      </trkpt>
      <trkpt lat="43.36115" lon="6.69476">
        <ele>184.2</ele>
        <time>2016-10-09T13:09:48Z</time>
      </trkpt>
      <trkpt lat="43.36111" lon="6.69476">
        <ele>184.5</ele>
        <time>2016-10-09T13:09:50Z</time>
      </trkpt>
      <trkpt lat="43.36108" lon="6.69475">
        <ele>184.7</ele>
        <time>2016-10-09T13:09:52Z</time>
      </trkpt>
      <trkpt lat="43.36104" lon="6.69476">
        <ele>185</ele>
        <time>2016-10-09T13:09:54Z</time>
      </trkpt>
      <trkpt lat="43.36101" lon="6.69475">
        <ele>185.3</ele>
        <time>2016-10-09T13:09:56Z</time>
      </trkpt>
      <trkpt lat="43.36097" lon="6.69475">
        <ele>185.6</ele>
        <time>2016-10-09T13:09:58Z</time>
      </trkpt>
      <trkpt lat="43.36092" lon="6.69476">
        <ele>185.7</ele>
        <time>2016-10-09T13:10:00Z</time>
      </trkpt>
      <trkpt lat="43.36086" lon="6.69475">
        <ele>185.7</ele>
        <time>2016-10-09T13:10:02Z</time>
      </trkpt>
      <trkpt lat="43.36079" lon="6.69472">
        <ele>185.6</ele>
        <time>2016-10-09T13:10:04Z</time>
      </trkpt>
      <trkpt lat="43.36071" lon="6.69476">
        <ele>185.6</ele>
        <time>2016-10-09T13:10:06Z</time>
      </trkpt>
      <trkpt lat="43.36066" lon="6.69487">
        <ele>185.3</ele>
        <time>2016-10-09T13:10:08Z</time>
      </trkpt>
      <trkpt lat="43.36062" lon="6.69497">
        <ele>184.9</ele>
        <time>2016-10-09T13:10:10Z</time>
      </trkpt>
      <trkpt lat="43.36058" lon="6.69506">
        <ele>184.3</ele>
        <time>2016-10-09T13:10:12Z</time>
      </trkpt>
      <trkpt lat="43.36057" lon="6.69521">
        <ele>183.4</ele>
        <time>2016-10-09T13:10:14Z</time>
      </trkpt>
      <trkpt lat="43.36057" lon="6.69536">
        <ele>183</ele>
        <time>2016-10-09T13:10:16Z</time>
      </trkpt>
      <trkpt lat="43.36055" lon="6.69543">
        <ele>182.7</ele>
        <time>2016-10-09T13:10:18Z</time>
      </trkpt>
      <trkpt lat="43.3605" lon="6.69544">
        <ele>183.3</ele>
        <time>2016-10-09T13:10:20Z</time>
      </trkpt>
      <trkpt lat="43.36048" lon="6.69541">
        <ele>183.6</ele>
        <time>2016-10-09T13:10:22Z</time>
      </trkpt>
      <trkpt lat="43.36046" lon="6.69538">
        <ele>184</ele>
        <time>2016-10-09T13:10:24Z</time>
      </trkpt>
      <trkpt lat="43.36044" lon="6.69536">
        <ele>184.4</ele>
        <time>2016-10-09T13:10:26Z</time>
      </trkpt>
      <trkpt lat="43.36042" lon="6.69533">
        <ele>184.7</ele>
        <time>2016-10-09T13:10:28Z</time>
      </trkpt>
      <trkpt lat="43.3604" lon="6.6953">
        <ele>185.1</ele>
        <time>2016-10-09T13:10:30Z</time>
      </trkpt>
      <trkpt lat="43.36037" lon="6.69528">
        <ele>185.5</ele>
        <time>2016-10-09T13:10:32Z</time>
      </trkpt>
      <trkpt lat="43.36035" lon="6.69526">
        <ele>185.9</ele>
        <time>2016-10-09T13:10:34Z</time>
      </trkpt>
      <trkpt lat="43.36033" lon="6.69524">
        <ele>186.3</ele>
        <time>2016-10-09T13:10:36Z</time>
      </trkpt>
      <trkpt lat="43.36031" lon="6.69521">
        <ele>186.6</ele>
        <time>2016-10-09T13:10:38Z</time>
      </trkpt>
      <trkpt lat="43.36029" lon="6.69519">
        <ele>187</ele>
        <time>2016-10-09T13:10:40Z</time>
      </trkpt>
      <trkpt lat="43.36027" lon="6.69517">
        <ele>187.5</ele>
        <time>2016-10-09T13:10:42Z</time>
      </trkpt>
      <trkpt lat="43.36025" lon="6.69515">
        <ele>187.8</ele>
        <time>2016-10-09T13:10:44Z</time>
      </trkpt>
      <trkpt lat="43.36023" lon="6.69513">
        <ele>188</ele>
        <time>2016-10-09T13:10:46Z</time>
      </trkpt>
      <trkpt lat="43.36021" lon="6.69511">
        <ele>188.2</ele>
        <time>2016-10-09T13:10:48Z</time>
      </trkpt>
      <trkpt lat="43.36019" lon="6.69509">
        <ele>188.4</ele>
        <time>2016-10-09T13:10:50Z</time>
      </trkpt>
      <trkpt lat="43.36017" lon="6.69507">
        <ele>188.8</ele>
        <time>2016-10-09T13:10:52Z</time>
      </trkpt>
      <trkpt lat="43.36014" lon="6.69505">
        <ele>189.1</ele>
        <time>2016-10-09T13:10:54Z</time>
      </trkpt>
      <trkpt lat="43.36012" lon="6.69502">
        <ele>189.3</ele>
        <time>2016-10-09T13:10:56Z</time>
      </trkpt>
      <trkpt lat="43.3601" lon="6.695">
        <ele>189.5</ele>
        <time>2016-10-09T13:10:58Z</time>
      </trkpt>
      <trkpt lat="43.36008" lon="6.69498">
        <ele>189.7</ele>
        <time>2016-10-09T13:11:00Z</time>
      </trkpt>
      <trkpt lat="43.36005" lon="6.69496">
        <ele>190.1</ele>
        <time>2016-10-09T13:11:02Z</time>
      </trkpt>
      <trkpt lat="43.36004" lon="6.69493">
        <ele>190.4</ele>
        <time>2016-10-09T13:11:04Z</time>
      </trkpt>
      <trkpt lat="43.36001" lon="6.69491">
        <ele>190.7</ele>
        <time>2016-10-09T13:11:06Z</time>
      </trkpt>
      <trkpt lat="43.35999" lon="6.69488">
        <ele>191</ele>
        <time>2016-10-09T13:11:08Z</time>
      </trkpt>
      <trkpt lat="43.35997" lon="6.69486">
        <ele>191.3</ele>
        <time>2016-10-09T13:11:10Z</time>
      </trkpt>
      <trkpt lat="43.35996" lon="6.69483">
        <ele>191.6</ele>
        <time>2016-10-09T13:11:12Z</time>
      </trkpt>
      <trkpt lat="43.35994" lon="6.69479">
        <ele>192</ele>
        <time>2016-10-09T13:11:14Z</time>
      </trkpt>
      <trkpt lat="43.35993" lon="6.69476">
        <ele>192.2</ele>
        <time>2016-10-09T13:11:16Z</time>
      </trkpt>
      <trkpt lat="43.35991" lon="6.69473">
        <ele>192.4</ele>
        <time>2016-10-09T13:11:18Z</time>
      </trkpt>
      <trkpt lat="43.35989" lon="6.69469">
        <ele>192.6</ele>
        <time>2016-10-09T13:11:20Z</time>
      </trkpt>
      <trkpt lat="43.35988" lon="6.69466">
        <ele>192.7</ele>
        <time>2016-10-09T13:11:22Z</time>
      </trkpt>
      <trkpt lat="43.35986" lon="6.69462">
        <ele>192.9</ele>
        <time>2016-10-09T13:11:24Z</time>
      </trkpt>
      <trkpt lat="43.35984" lon="6.69458">
        <ele>193.1</ele>
        <time>2016-10-09T13:11:26Z</time>
      </trkpt>
      <trkpt lat="43.35983" lon="6.69454">
        <ele>193.3</ele>
        <time>2016-10-09T13:11:28Z</time>
      </trkpt>
      <trkpt lat="43.35981" lon="6.6945">
        <ele>193.5</ele>
        <time>2016-10-09T13:11:30Z</time>
      </trkpt>
      <trkpt lat="43.35979" lon="6.69447">
        <ele>193.9</ele>
        <time>2016-10-09T13:11:32Z</time>
      </trkpt>
      <trkpt lat="43.35977" lon="6.69443">
        <ele>194.1</ele>
        <time>2016-10-09T13:11:34Z</time>
      </trkpt>
      <trkpt lat="43.35975" lon="6.69439">
        <ele>194.3</ele>
        <time>2016-10-09T13:11:36Z</time>
      </trkpt>
      <trkpt lat="43.35973" lon="6.69436">
        <ele>194.5</ele>
        <time>2016-10-09T13:11:38Z</time>
      </trkpt>
      <trkpt lat="43.35971" lon="6.69433">
        <ele>194.7</ele>
        <time>2016-10-09T13:11:40Z</time>
      </trkpt>
      <trkpt lat="43.35968" lon="6.6943">
        <ele>194.9</ele>
        <time>2016-10-09T13:11:42Z</time>
      </trkpt>
      <trkpt lat="43.35966" lon="6.69427">
        <ele>195.1</ele>
        <time>2016-10-09T13:11:44Z</time>
      </trkpt>
      <trkpt lat="43.35963" lon="6.69424">
        <ele>195.2</ele>
        <time>2016-10-09T13:11:46Z</time>
      </trkpt>
      <trkpt lat="43.3596" lon="6.69421">
        <ele>195.3</ele>
        <time>2016-10-09T13:11:48Z</time>
      </trkpt>
      <trkpt lat="43.35957" lon="6.69418">
        <ele>195.4</ele>
        <time>2016-10-09T13:11:50Z</time>
      </trkpt>
      <trkpt lat="43.35952" lon="6.69416">
        <ele>195.4</ele>
        <time>2016-10-09T13:11:52Z</time>
      </trkpt>
      <trkpt lat="43.35947" lon="6.69414">
        <ele>195.4</ele>
        <time>2016-10-09T13:11:54Z</time>
      </trkpt>
      <trkpt lat="43.35941" lon="6.69413">
        <ele>195.5</ele>
        <time>2016-10-09T13:11:56Z</time>
      </trkpt>
      <trkpt lat="43.35936" lon="6.69412">
        <ele>195.5</ele>
        <time>2016-10-09T13:11:58Z</time>
      </trkpt>
      <trkpt lat="43.35929" lon="6.69411">
        <ele>195.5</ele>
        <time>2016-10-09T13:12:00Z</time>
      </trkpt>
      <trkpt lat="43.35922" lon="6.69411">
        <ele>195.4</ele>
        <time>2016-10-09T13:12:02Z</time>
      </trkpt>
      <trkpt lat="43.35915" lon="6.69411">
        <ele>195.4</ele>
        <time>2016-10-09T13:12:04Z</time>
      </trkpt>
      <trkpt lat="43.35907" lon="6.6941">
        <ele>195.3</ele>
        <time>2016-10-09T13:12:06Z</time>
      </trkpt>
      <trkpt lat="43.359" lon="6.6941">
        <ele>195.2</ele>
        <time>2016-10-09T13:12:08Z</time>
      </trkpt>
      <trkpt lat="43.35893" lon="6.69413">
        <ele>195</ele>
        <time>2016-10-09T13:12:10Z</time>
      </trkpt>
      <trkpt lat="43.35886" lon="6.69416">
        <ele>194.9</ele>
        <time>2016-10-09T13:12:12Z</time>
      </trkpt>
      <trkpt lat="43.3588" lon="6.69421">
        <ele>194.9</ele>
        <time>2016-10-09T13:12:14Z</time>
      </trkpt>
      <trkpt lat="43.35874" lon="6.69428">
        <ele>194.8</ele>
        <time>2016-10-09T13:12:16Z</time>
      </trkpt>
      <trkpt lat="43.35867" lon="6.69435">
        <ele>194.8</ele>
        <time>2016-10-09T13:12:18Z</time>
      </trkpt>
      <trkpt lat="43.3586" lon="6.69443">
        <ele>194.9</ele>
        <time>2016-10-09T13:12:20Z</time>
      </trkpt>
      <trkpt lat="43.35853" lon="6.6945">
        <ele>195</ele>
        <time>2016-10-09T13:12:22Z</time>
      </trkpt>
      <trkpt lat="43.35848" lon="6.69457">
        <ele>195.2</ele>
        <time>2016-10-09T13:12:24Z</time>
      </trkpt>
      <trkpt lat="43.35843" lon="6.69464">
        <ele>195.4</ele>
        <time>2016-10-09T13:12:26Z</time>
      </trkpt>
      <trkpt lat="43.35839" lon="6.69469">
        <ele>195.6</ele>
        <time>2016-10-09T13:12:28Z</time>
      </trkpt>
      <trkpt lat="43.35836" lon="6.69473">
        <ele>195.8</ele>
        <time>2016-10-09T13:12:30Z</time>
      </trkpt>
      <trkpt lat="43.35833" lon="6.69478">
        <ele>196</ele>
        <time>2016-10-09T13:12:32Z</time>
      </trkpt>
      <trkpt lat="43.35831" lon="6.69481">
        <ele>196.2</ele>
        <time>2016-10-09T13:12:34Z</time>
      </trkpt>
      <trkpt lat="43.35828" lon="6.69485">
        <ele>196.4</ele>
        <time>2016-10-09T13:12:36Z</time>
      </trkpt>
      <trkpt lat="43.35825" lon="6.69489">
        <ele>196.7</ele>
        <time>2016-10-09T13:12:38Z</time>
      </trkpt>
      <trkpt lat="43.35822" lon="6.69492">
        <ele>197</ele>
        <time>2016-10-09T13:12:40Z</time>
      </trkpt>
      <trkpt lat="43.35819" lon="6.69495">
        <ele>197.4</ele>
        <time>2016-10-09T13:12:42Z</time>
      </trkpt>
      <trkpt lat="43.35815" lon="6.69498">
        <ele>197.9</ele>
        <time>2016-10-09T13:12:44Z</time>
      </trkpt>
      <trkpt lat="43.35812" lon="6.695">
        <ele>198.3</ele>
        <time>2016-10-09T13:12:46Z</time>
      </trkpt>
      <trkpt lat="43.35808" lon="6.69501">
        <ele>198.7</ele>
        <time>2016-10-09T13:12:48Z</time>
      </trkpt>
      <trkpt lat="43.35805" lon="6.69501">
        <ele>199</ele>
        <time>2016-10-09T13:12:50Z</time>
      </trkpt>
      <trkpt lat="43.35801" lon="6.69501">
        <ele>199.3</ele>
        <time>2016-10-09T13:12:52Z</time>
      </trkpt>
      <trkpt lat="43.35798" lon="6.695">
        <ele>199.7</ele>
        <time>2016-10-09T13:12:54Z</time>
      </trkpt>
      <trkpt lat="43.35795" lon="6.695">
        <ele>200</ele>
        <time>2016-10-09T13:12:56Z</time>
      </trkpt>
      <trkpt lat="43.35792" lon="6.69501">
        <ele>199.5</ele>
        <time>2016-10-09T13:12:58Z</time>
      </trkpt>
      <trkpt lat="43.35792" lon="6.69501">
        <ele>199.4</ele>
        <time>2016-10-09T13:13:04Z</time>
      </trkpt>
      <trkpt lat="43.35794" lon="6.69505">
        <ele>198.8</ele>
        <time>2016-10-09T13:14:22Z</time>
      </trkpt>
      <trkpt lat="43.35796" lon="6.69511">
        <ele>197.7</ele>
        <time>2016-10-09T13:14:24Z</time>
      </trkpt>
      <trkpt lat="43.35798" lon="6.69521">
        <ele>196</ele>
        <time>2016-10-09T13:14:26Z</time>
      </trkpt>
      <trkpt lat="43.35798" lon="6.69529">
        <ele>194.5</ele>
        <time>2016-10-09T13:14:28Z</time>
      </trkpt>
      <trkpt lat="43.35797" lon="6.69538">
        <ele>193</ele>
        <time>2016-10-09T13:14:30Z</time>
      </trkpt>
      <trkpt lat="43.35799" lon="6.69547">
        <ele>191.4</ele>
        <time>2016-10-09T13:14:32Z</time>
      </trkpt>
      <trkpt lat="43.35796" lon="6.6956">
        <ele>189.5</ele>
        <time>2016-10-09T13:14:34Z</time>
      </trkpt>
      <trkpt lat="43.35791" lon="6.69573">
        <ele>188.3</ele>
        <time>2016-10-09T13:14:36Z</time>
      </trkpt>
      <trkpt lat="43.35787" lon="6.69585">
        <ele>187.5</ele>
        <time>2016-10-09T13:14:38Z</time>
      </trkpt>
      <trkpt lat="43.35785" lon="6.69599">
        <ele>186.8</ele>
        <time>2016-10-09T13:14:40Z</time>
      </trkpt>
      <trkpt lat="43.35778" lon="6.69613">
        <ele>185.5</ele>
        <time>2016-10-09T13:14:42Z</time>
      </trkpt>
      <trkpt lat="43.35771" lon="6.69627">
        <ele>184.1</ele>
        <time>2016-10-09T13:14:44Z</time>
      </trkpt>
      <trkpt lat="43.35766" lon="6.69641">
        <ele>183.4</ele>
        <time>2016-10-09T13:14:46Z</time>
      </trkpt>
      <trkpt lat="43.35763" lon="6.69654">
        <ele>182.9</ele>
        <time>2016-10-09T13:14:48Z</time>
      </trkpt>
      <trkpt lat="43.35761" lon="6.69667">
        <ele>182.4</ele>
        <time>2016-10-09T13:14:50Z</time>
      </trkpt>
      <trkpt lat="43.35759" lon="6.69678">
        <ele>182</ele>
        <time>2016-10-09T13:14:52Z</time>
      </trkpt>
      <trkpt lat="43.35758" lon="6.69689">
        <ele>181.5</ele>
        <time>2016-10-09T13:14:54Z</time>
      </trkpt>
      <trkpt lat="43.35758" lon="6.697">
        <ele>181</ele>
        <time>2016-10-09T13:14:56Z</time>
      </trkpt>
      <trkpt lat="43.35756" lon="6.69711">
        <ele>180.3</ele>
        <time>2016-10-09T13:14:58Z</time>
      </trkpt>
      <trkpt lat="43.35752" lon="6.69721">
        <ele>179.7</ele>
        <time>2016-10-09T13:15:00Z</time>
      </trkpt>
      <trkpt lat="43.35745" lon="6.69727">
        <ele>178.8</ele>
        <time>2016-10-09T13:15:02Z</time>
      </trkpt>
      <trkpt lat="43.35737" lon="6.69727">
        <ele>177.9</ele>
        <time>2016-10-09T13:15:04Z</time>
      </trkpt>
      <trkpt lat="43.35729" lon="6.69722">
        <ele>176.9</ele>
        <time>2016-10-09T13:15:06Z</time>
      </trkpt>
      <trkpt lat="43.35719" lon="6.69721">
        <ele>176.2</ele>
        <time>2016-10-09T13:15:08Z</time>
      </trkpt>
      <trkpt lat="43.35709" lon="6.69725">
        <ele>175.7</ele>
        <time>2016-10-09T13:15:10Z</time>
      </trkpt>
      <trkpt lat="43.357" lon="6.69732">
        <ele>175.2</ele>
        <time>2016-10-09T13:15:12Z</time>
      </trkpt>
      <trkpt lat="43.35692" lon="6.6974">
        <ele>174.8</ele>
        <time>2016-10-09T13:15:14Z</time>
      </trkpt>
      <trkpt lat="43.35686" lon="6.69748">
        <ele>174.5</ele>
        <time>2016-10-09T13:15:16Z</time>
      </trkpt>
      <trkpt lat="43.3568" lon="6.69757">
        <ele>174.1</ele>
        <time>2016-10-09T13:15:18Z</time>
      </trkpt>
      <trkpt lat="43.35674" lon="6.69766">
        <ele>173.6</ele>
        <time>2016-10-09T13:15:20Z</time>
      </trkpt>
      <trkpt lat="43.35669" lon="6.69775">
        <ele>173.1</ele>
        <time>2016-10-09T13:15:22Z</time>
      </trkpt>
      <trkpt lat="43.35664" lon="6.69785">
        <ele>172.8</ele>
        <time>2016-10-09T13:15:24Z</time>
      </trkpt>
      <trkpt lat="43.35659" lon="6.69796">
        <ele>172.3</ele>
        <time>2016-10-09T13:15:26Z</time>
      </trkpt>
      <trkpt lat="43.35654" lon="6.69809">
        <ele>172.1</ele>
        <time>2016-10-09T13:15:28Z</time>
      </trkpt>
      <trkpt lat="43.35648" lon="6.69823">
        <ele>171.8</ele>
        <time>2016-10-09T13:15:30Z</time>
      </trkpt>
      <trkpt lat="43.35643" lon="6.69837">
        <ele>171.6</ele>
        <time>2016-10-09T13:15:32Z</time>
      </trkpt>
      <trkpt lat="43.35636" lon="6.69854">
        <ele>171.2</ele>
        <time>2016-10-09T13:15:34Z</time>
      </trkpt>
      <trkpt lat="43.35628" lon="6.6987">
        <ele>170.8</ele>
        <time>2016-10-09T13:15:36Z</time>
      </trkpt>
      <trkpt lat="43.35619" lon="6.69887">
        <ele>170.3</ele>
        <time>2016-10-09T13:15:38Z</time>
      </trkpt>
      <trkpt lat="43.3561" lon="6.69904">
        <ele>168.9</ele>
        <time>2016-10-09T13:15:40Z</time>
      </trkpt>
      <trkpt lat="43.35602" lon="6.69921">
        <ele>167.2</ele>
        <time>2016-10-09T13:15:42Z</time>
      </trkpt>
      <trkpt lat="43.35597" lon="6.69938">
        <ele>165.6</ele>
        <time>2016-10-09T13:15:44Z</time>
      </trkpt>
      <trkpt lat="43.35592" lon="6.69957">
        <ele>163.9</ele>
        <time>2016-10-09T13:15:46Z</time>
      </trkpt>
      <trkpt lat="43.35588" lon="6.69976">
        <ele>162.4</ele>
        <time>2016-10-09T13:15:48Z</time>
      </trkpt>
      <trkpt lat="43.35583" lon="6.69996">
        <ele>160.9</ele>
        <time>2016-10-09T13:15:50Z</time>
      </trkpt>
      <trkpt lat="43.35579" lon="6.70015">
        <ele>160</ele>
        <time>2016-10-09T13:15:52Z</time>
      </trkpt>
      <trkpt lat="43.35574" lon="6.70031">
        <ele>159.2</ele>
        <time>2016-10-09T13:15:54Z</time>
      </trkpt>
      <trkpt lat="43.35569" lon="6.70047">
        <ele>157.6</ele>
        <time>2016-10-09T13:15:56Z</time>
      </trkpt>
      <trkpt lat="43.35568" lon="6.70063">
        <ele>157.1</ele>
        <time>2016-10-09T13:15:58Z</time>
      </trkpt>
      <trkpt lat="43.35571" lon="6.70078">
        <ele>157.2</ele>
        <time>2016-10-09T13:16:00Z</time>
      </trkpt>
      <trkpt lat="43.35576" lon="6.70092">
        <ele>157.4</ele>
        <time>2016-10-09T13:16:02Z</time>
      </trkpt>
      <trkpt lat="43.35582" lon="6.70105">
        <ele>157.6</ele>
        <time>2016-10-09T13:16:04Z</time>
      </trkpt>
      <trkpt lat="43.35588" lon="6.70118">
        <ele>157.7</ele>
        <time>2016-10-09T13:16:06Z</time>
      </trkpt>
      <trkpt lat="43.35594" lon="6.7013">
        <ele>157.9</ele>
        <time>2016-10-09T13:16:08Z</time>
      </trkpt>
      <trkpt lat="43.356" lon="6.70143">
        <ele>158</ele>
        <time>2016-10-09T13:16:10Z</time>
      </trkpt>
      <trkpt lat="43.35606" lon="6.70157">
        <ele>158.2</ele>
        <time>2016-10-09T13:16:12Z</time>
      </trkpt>
      <trkpt lat="43.35611" lon="6.70173">
        <ele>158.3</ele>
        <time>2016-10-09T13:16:14Z</time>
      </trkpt>
      <trkpt lat="43.35617" lon="6.70188">
        <ele>158.4</ele>
        <time>2016-10-09T13:16:16Z</time>
      </trkpt>
      <trkpt lat="43.35622" lon="6.70205">
        <ele>158.4</ele>
        <time>2016-10-09T13:16:18Z</time>
      </trkpt>
      <trkpt lat="43.35627" lon="6.70221">
        <ele>158.2</ele>
        <time>2016-10-09T13:16:20Z</time>
      </trkpt>
      <trkpt lat="43.35635" lon="6.70239">
        <ele>157.6</ele>
        <time>2016-10-09T13:16:22Z</time>
      </trkpt>
      <trkpt lat="43.35642" lon="6.70259">
        <ele>156.9</ele>
        <time>2016-10-09T13:16:24Z</time>
      </trkpt>
      <trkpt lat="43.35648" lon="6.70279">
        <ele>156.1</ele>
        <time>2016-10-09T13:16:26Z</time>
      </trkpt>
      <trkpt lat="43.35656" lon="6.70297">
        <ele>155.4</ele>
        <time>2016-10-09T13:16:28Z</time>
      </trkpt>
      <trkpt lat="43.35666" lon="6.70312">
        <ele>154.8</ele>
        <time>2016-10-09T13:16:30Z</time>
      </trkpt>
      <trkpt lat="43.35674" lon="6.70327">
        <ele>154.3</ele>
        <time>2016-10-09T13:16:32Z</time>
      </trkpt>
      <trkpt lat="43.35683" lon="6.7034">
        <ele>154</ele>
        <time>2016-10-09T13:16:34Z</time>
      </trkpt>
      <trkpt lat="43.3569" lon="6.70355">
        <ele>153.7</ele>
        <time>2016-10-09T13:16:36Z</time>
      </trkpt>
      <trkpt lat="43.35694" lon="6.70374">
        <ele>153.3</ele>
        <time>2016-10-09T13:16:38Z</time>
      </trkpt>
      <trkpt lat="43.35693" lon="6.70392">
        <ele>152.8</ele>
        <time>2016-10-09T13:16:40Z</time>
      </trkpt>
      <trkpt lat="43.35693" lon="6.7041">
        <ele>152.1</ele>
        <time>2016-10-09T13:16:42Z</time>
      </trkpt>
      <trkpt lat="43.35693" lon="6.70426">
        <ele>151.4</ele>
        <time>2016-10-09T13:16:44Z</time>
      </trkpt>
      <trkpt lat="43.357" lon="6.70439">
        <ele>150.7</ele>
        <time>2016-10-09T13:16:46Z</time>
      </trkpt>
      <trkpt lat="43.35708" lon="6.70448">
        <ele>150</ele>
        <time>2016-10-09T13:16:48Z</time>
      </trkpt>
      <trkpt lat="43.35714" lon="6.70457">
        <ele>149.5</ele>
        <time>2016-10-09T13:16:50Z</time>
      </trkpt>
      <trkpt lat="43.35719" lon="6.70466">
        <ele>149.1</ele>
        <time>2016-10-09T13:16:52Z</time>
      </trkpt>
      <trkpt lat="43.35726" lon="6.70473">
        <ele>148.6</ele>
        <time>2016-10-09T13:16:54Z</time>
      </trkpt>
      <trkpt lat="43.35734" lon="6.7048">
        <ele>148.1</ele>
        <time>2016-10-09T13:16:56Z</time>
      </trkpt>
      <trkpt lat="43.35742" lon="6.70483">
        <ele>147.4</ele>
        <time>2016-10-09T13:16:58Z</time>
      </trkpt>
      <trkpt lat="43.3575" lon="6.70483">
        <ele>146.8</ele>
        <time>2016-10-09T13:17:00Z</time>
      </trkpt>
      <trkpt lat="43.35757" lon="6.70483">
        <ele>146.1</ele>
        <time>2016-10-09T13:17:02Z</time>
      </trkpt>
      <trkpt lat="43.35766" lon="6.70484">
        <ele>145.3</ele>
        <time>2016-10-09T13:17:04Z</time>
      </trkpt>
      <trkpt lat="43.35774" lon="6.70487">
        <ele>144.4</ele>
        <time>2016-10-09T13:17:06Z</time>
      </trkpt>
      <trkpt lat="43.35782" lon="6.70494">
        <ele>143.5</ele>
        <time>2016-10-09T13:17:08Z</time>
      </trkpt>
      <trkpt lat="43.35791" lon="6.70503">
        <ele>142.4</ele>
        <time>2016-10-09T13:17:10Z</time>
      </trkpt>
      <trkpt lat="43.35799" lon="6.70512">
        <ele>141.5</ele>
        <time>2016-10-09T13:17:12Z</time>
      </trkpt>
      <trkpt lat="43.35807" lon="6.7052">
        <ele>140.6</ele>
        <time>2016-10-09T13:17:14Z</time>
      </trkpt>
      <trkpt lat="43.35814" lon="6.70528">
        <ele>139.8</ele>
        <time>2016-10-09T13:17:16Z</time>
      </trkpt>
      <trkpt lat="43.3582" lon="6.70533">
        <ele>139.1</ele>
        <time>2016-10-09T13:17:18Z</time>
      </trkpt>
      <trkpt lat="43.35826" lon="6.70537">
        <ele>138.4</ele>
        <time>2016-10-09T13:17:20Z</time>
      </trkpt>
      <trkpt lat="43.35832" lon="6.70542">
        <ele>137.7</ele>
        <time>2016-10-09T13:17:22Z</time>
      </trkpt>
      <trkpt lat="43.35836" lon="6.70549">
        <ele>136.9</ele>
        <time>2016-10-09T13:17:24Z</time>
      </trkpt>
      <trkpt lat="43.35843" lon="6.70556">
        <ele>136</ele>
        <time>2016-10-09T13:17:26Z</time>
      </trkpt>
      <trkpt lat="43.35849" lon="6.70562">
        <ele>135.1</ele>
        <time>2016-10-09T13:17:28Z</time>
      </trkpt>
      <trkpt lat="43.35857" lon="6.70566">
        <ele>134.2</ele>
        <time>2016-10-09T13:17:30Z</time>
      </trkpt>
      <trkpt lat="43.35864" lon="6.70568">
        <ele>133.4</ele>
        <time>2016-10-09T13:17:32Z</time>
      </trkpt>
      <trkpt lat="43.35873" lon="6.70567">
        <ele>132.6</ele>
        <time>2016-10-09T13:17:34Z</time>
      </trkpt>
      <trkpt lat="43.35881" lon="6.70567">
        <ele>131.8</ele>
        <time>2016-10-09T13:17:36Z</time>
      </trkpt>
      <trkpt lat="43.35888" lon="6.70574">
        <ele>130.9</ele>
        <time>2016-10-09T13:17:38Z</time>
      </trkpt>
      <trkpt lat="43.35894" lon="6.70582">
        <ele>130</ele>
        <time>2016-10-09T13:17:40Z</time>
      </trkpt>
      <trkpt lat="43.35902" lon="6.70589">
        <ele>129.1</ele>
        <time>2016-10-09T13:17:42Z</time>
      </trkpt>
      <trkpt lat="43.3591" lon="6.70597">
        <ele>128.2</ele>
        <time>2016-10-09T13:17:44Z</time>
      </trkpt>
      <trkpt lat="43.35919" lon="6.70597">
        <ele>127.5</ele>
        <time>2016-10-09T13:17:46Z</time>
      </trkpt>
      <trkpt lat="43.35926" lon="6.70591">
        <ele>126.9</ele>
        <time>2016-10-09T13:17:48Z</time>
      </trkpt>
      <trkpt lat="43.35932" lon="6.70585">
        <ele>126.3</ele>
        <time>2016-10-09T13:17:50Z</time>
      </trkpt>
      <trkpt lat="43.35939" lon="6.70581">
        <ele>125.9</ele>
        <time>2016-10-09T13:17:52Z</time>
      </trkpt>
      <trkpt lat="43.35945" lon="6.70581">
        <ele>125.5</ele>
        <time>2016-10-09T13:17:54Z</time>
      </trkpt>
      <trkpt lat="43.35949" lon="6.70584">
        <ele>125.3</ele>
        <time>2016-10-09T13:17:56Z</time>
      </trkpt>
      <trkpt lat="43.35952" lon="6.70586">
        <ele>125</ele>
        <time>2016-10-09T13:17:58Z</time>
      </trkpt>
      <trkpt lat="43.35955" lon="6.70589">
        <ele>124.8</ele>
        <time>2016-10-09T13:18:00Z</time>
      </trkpt>
      <trkpt lat="43.35957" lon="6.70591">
        <ele>124.6</ele>
        <time>2016-10-09T13:18:02Z</time>
      </trkpt>
      <trkpt lat="43.35959" lon="6.70589">
        <ele>124.5</ele>
        <time>2016-10-09T13:18:04Z</time>
      </trkpt>
      <trkpt lat="43.35959" lon="6.70587">
        <ele>124</ele>
        <time>2016-10-09T13:18:06Z</time>
      </trkpt>
      <trkpt lat="43.35957" lon="6.70585">
        <ele>124</ele>
        <time>2016-10-09T13:18:08Z</time>
      </trkpt>
      <trkpt lat="43.35957" lon="6.70582">
        <ele>124</ele>
        <time>2016-10-09T13:18:10Z</time>
      </trkpt>
      <trkpt lat="43.35955" lon="6.70579">
        <ele>124.1</ele>
        <time>2016-10-09T13:18:12Z</time>
      </trkpt>
      <trkpt lat="43.35952" lon="6.70577">
        <ele>124.2</ele>
        <time>2016-10-09T13:18:14Z</time>
      </trkpt>
      <trkpt lat="43.3595" lon="6.70575">
        <ele>124.3</ele>
        <time>2016-10-09T13:18:16Z</time>
      </trkpt>
      <trkpt lat="43.35947" lon="6.70572">
        <ele>124.5</ele>
        <time>2016-10-09T13:18:18Z</time>
      </trkpt>
      <trkpt lat="43.35941" lon="6.7057">
        <ele>124.9</ele>
        <time>2016-10-09T13:18:21Z</time>
      </trkpt>
      <trkpt lat="43.35938" lon="6.70568">
        <ele>125.4</ele>
        <time>2016-10-09T13:18:23Z</time>
      </trkpt>
      <trkpt lat="43.35934" lon="6.70566">
        <ele>125.9</ele>
        <time>2016-10-09T13:18:25Z</time>
      </trkpt>
      <trkpt lat="43.35931" lon="6.70564">
        <ele>126.4</ele>
        <time>2016-10-09T13:18:27Z</time>
      </trkpt>
      <trkpt lat="43.35928" lon="6.70562">
        <ele>126.7</ele>
        <time>2016-10-09T13:18:29Z</time>
      </trkpt>
      <trkpt lat="43.35925" lon="6.7056">
        <ele>127.1</ele>
        <time>2016-10-09T13:18:31Z</time>
      </trkpt>
      <trkpt lat="43.35922" lon="6.70558">
        <ele>127.7</ele>
        <time>2016-10-09T13:18:33Z</time>
      </trkpt>
      <trkpt lat="43.35919" lon="6.70556">
        <ele>128.1</ele>
        <time>2016-10-09T13:18:35Z</time>
      </trkpt>
      <trkpt lat="43.35916" lon="6.70553">
        <ele>128.5</ele>
        <time>2016-10-09T13:18:37Z</time>
      </trkpt>
      <trkpt lat="43.35914" lon="6.70551">
        <ele>128.7</ele>
        <time>2016-10-09T13:18:39Z</time>
      </trkpt>
      <trkpt lat="43.35911" lon="6.70549">
        <ele>128.9</ele>
        <time>2016-10-09T13:18:41Z</time>
      </trkpt>
      <trkpt lat="43.35908" lon="6.70547">
        <ele>129.1</ele>
        <time>2016-10-09T13:18:43Z</time>
      </trkpt>
      <trkpt lat="43.35906" lon="6.70544">
        <ele>129.3</ele>
        <time>2016-10-09T13:18:45Z</time>
      </trkpt>
      <trkpt lat="43.35903" lon="6.70541">
        <ele>129.6</ele>
        <time>2016-10-09T13:18:47Z</time>
      </trkpt>
      <trkpt lat="43.35901" lon="6.70539">
        <ele>130</ele>
        <time>2016-10-09T13:18:49Z</time>
      </trkpt>
      <trkpt lat="43.35898" lon="6.70536">
        <ele>130.5</ele>
        <time>2016-10-09T13:18:51Z</time>
      </trkpt>
      <trkpt lat="43.35895" lon="6.70534">
        <ele>130.8</ele>
        <time>2016-10-09T13:18:53Z</time>
      </trkpt>
      <trkpt lat="43.35892" lon="6.70532">
        <ele>131</ele>
        <time>2016-10-09T13:18:55Z</time>
      </trkpt>
      <trkpt lat="43.35889" lon="6.70531">
        <ele>131.2</ele>
        <time>2016-10-09T13:18:57Z</time>
      </trkpt>
      <trkpt lat="43.35885" lon="6.7053">
        <ele>131.5</ele>
        <time>2016-10-09T13:18:59Z</time>
      </trkpt>
      <trkpt lat="43.35881" lon="6.70529">
        <ele>131.8</ele>
        <time>2016-10-09T13:19:01Z</time>
      </trkpt>
      <trkpt lat="43.35878" lon="6.70528">
        <ele>132.3</ele>
        <time>2016-10-09T13:19:03Z</time>
      </trkpt>
      <trkpt lat="43.35874" lon="6.70528">
        <ele>132.6</ele>
        <time>2016-10-09T13:19:05Z</time>
      </trkpt>
      <trkpt lat="43.35871" lon="6.70527">
        <ele>132.8</ele>
        <time>2016-10-09T13:19:07Z</time>
      </trkpt>
      <trkpt lat="43.35867" lon="6.70525">
        <ele>133.1</ele>
        <time>2016-10-09T13:19:09Z</time>
      </trkpt>
      <trkpt lat="43.35865" lon="6.70523">
        <ele>133.3</ele>
        <time>2016-10-09T13:19:11Z</time>
      </trkpt>
      <trkpt lat="43.35862" lon="6.70521">
        <ele>133.5</ele>
        <time>2016-10-09T13:19:13Z</time>
      </trkpt>
      <trkpt lat="43.35859" lon="6.7052">
        <ele>133.8</ele>
        <time>2016-10-09T13:19:15Z</time>
      </trkpt>
      <trkpt lat="43.35857" lon="6.70518">
        <ele>134.3</ele>
        <time>2016-10-09T13:19:17Z</time>
      </trkpt>
      <trkpt lat="43.35854" lon="6.70516">
        <ele>134.7</ele>
        <time>2016-10-09T13:19:19Z</time>
      </trkpt>
      <trkpt lat="43.35852" lon="6.70514">
        <ele>134.9</ele>
        <time>2016-10-09T13:19:21Z</time>
      </trkpt>
      <trkpt lat="43.3585" lon="6.70511">
        <ele>135.2</ele>
        <time>2016-10-09T13:19:23Z</time>
      </trkpt>
      <trkpt lat="43.35848" lon="6.70509">
        <ele>135.4</ele>
        <time>2016-10-09T13:19:25Z</time>
      </trkpt>
      <trkpt lat="43.35846" lon="6.70507">
        <ele>135.6</ele>
        <time>2016-10-09T13:19:27Z</time>
      </trkpt>
      <trkpt lat="43.35844" lon="6.70505">
        <ele>135.8</ele>
        <time>2016-10-09T13:19:29Z</time>
      </trkpt>
      <trkpt lat="43.35842" lon="6.70504">
        <ele>136.1</ele>
        <time>2016-10-09T13:19:31Z</time>
      </trkpt>
      <trkpt lat="43.3584" lon="6.70501">
        <ele>136.5</ele>
        <time>2016-10-09T13:19:33Z</time>
      </trkpt>
      <trkpt lat="43.35838" lon="6.70499">
        <ele>137</ele>
        <time>2016-10-09T13:19:35Z</time>
      </trkpt>
      <trkpt lat="43.35835" lon="6.70497">
        <ele>137.2</ele>
        <time>2016-10-09T13:19:37Z</time>
      </trkpt>
      <trkpt lat="43.35833" lon="6.70494">
        <ele>137.4</ele>
        <time>2016-10-09T13:19:39Z</time>
      </trkpt>
      <trkpt lat="43.35831" lon="6.70492">
        <ele>137.7</ele>
        <time>2016-10-09T13:19:41Z</time>
      </trkpt>
      <trkpt lat="43.35828" lon="6.70489">
        <ele>138</ele>
        <time>2016-10-09T13:19:43Z</time>
      </trkpt>
      <trkpt lat="43.35825" lon="6.70487">
        <ele>138.5</ele>
        <time>2016-10-09T13:19:45Z</time>
      </trkpt>
      <trkpt lat="43.35822" lon="6.70484">
        <ele>139</ele>
        <time>2016-10-09T13:19:47Z</time>
      </trkpt>
      <trkpt lat="43.35819" lon="6.70482">
        <ele>139.3</ele>
        <time>2016-10-09T13:19:49Z</time>
      </trkpt>
      <trkpt lat="43.35816" lon="6.70479">
        <ele>139.5</ele>
        <time>2016-10-09T13:19:51Z</time>
      </trkpt>
      <trkpt lat="43.35814" lon="6.70477">
        <ele>139.7</ele>
        <time>2016-10-09T13:19:53Z</time>
      </trkpt>
      <trkpt lat="43.35811" lon="6.70475">
        <ele>139.8</ele>
        <time>2016-10-09T13:19:55Z</time>
      </trkpt>
      <trkpt lat="43.35808" lon="6.70473">
        <ele>140</ele>
        <time>2016-10-09T13:19:57Z</time>
      </trkpt>
      <trkpt lat="43.35805" lon="6.70471">
        <ele>140.2</ele>
        <time>2016-10-09T13:19:59Z</time>
      </trkpt>
      <trkpt lat="43.35802" lon="6.70468">
        <ele>140.6</ele>
        <time>2016-10-09T13:20:01Z</time>
      </trkpt>
      <trkpt lat="43.35799" lon="6.70466">
        <ele>141.1</ele>
        <time>2016-10-09T13:20:03Z</time>
      </trkpt>
      <trkpt lat="43.35796" lon="6.70464">
        <ele>141.3</ele>
        <time>2016-10-09T13:20:05Z</time>
      </trkpt>
      <trkpt lat="43.35792" lon="6.70462">
        <ele>141.6</ele>
        <time>2016-10-09T13:20:07Z</time>
      </trkpt>
      <trkpt lat="43.3579" lon="6.7046">
        <ele>141.8</ele>
        <time>2016-10-09T13:20:09Z</time>
      </trkpt>
      <trkpt lat="43.35786" lon="6.70458">
        <ele>142.1</ele>
        <time>2016-10-09T13:20:11Z</time>
      </trkpt>
      <trkpt lat="43.35783" lon="6.70457">
        <ele>142.4</ele>
        <time>2016-10-09T13:20:13Z</time>
      </trkpt>
      <trkpt lat="43.35781" lon="6.70456">
        <ele>142.8</ele>
        <time>2016-10-09T13:20:15Z</time>
      </trkpt>
      <trkpt lat="43.35778" lon="6.70455">
        <ele>143.2</ele>
        <time>2016-10-09T13:20:17Z</time>
      </trkpt>
      <trkpt lat="43.35775" lon="6.70455">
        <ele>143.3</ele>
        <time>2016-10-09T13:20:19Z</time>
      </trkpt>
      <trkpt lat="43.35772" lon="6.70454">
        <ele>143.5</ele>
        <time>2016-10-09T13:20:21Z</time>
      </trkpt>
      <trkpt lat="43.35769" lon="6.70453">
        <ele>143.7</ele>
        <time>2016-10-09T13:20:23Z</time>
      </trkpt>
      <trkpt lat="43.35766" lon="6.70452">
        <ele>143.9</ele>
        <time>2016-10-09T13:20:25Z</time>
      </trkpt>
      <trkpt lat="43.35762" lon="6.7045">
        <ele>144.1</ele>
        <time>2016-10-09T13:20:27Z</time>
      </trkpt>
      <trkpt lat="43.3576" lon="6.70447">
        <ele>144.5</ele>
        <time>2016-10-09T13:20:29Z</time>
      </trkpt>
      <trkpt lat="43.35758" lon="6.70444">
        <ele>144.8</ele>
        <time>2016-10-09T13:20:31Z</time>
      </trkpt>
      <trkpt lat="43.35756" lon="6.70441">
        <ele>145.2</ele>
        <time>2016-10-09T13:20:33Z</time>
      </trkpt>
      <trkpt lat="43.35754" lon="6.70437">
        <ele>145.5</ele>
        <time>2016-10-09T13:20:35Z</time>
      </trkpt>
      <trkpt lat="43.35753" lon="6.70433">
        <ele>145.7</ele>
        <time>2016-10-09T13:20:37Z</time>
      </trkpt>
      <trkpt lat="43.3575" lon="6.7043">
        <ele>145.9</ele>
        <time>2016-10-09T13:20:39Z</time>
      </trkpt>
      <trkpt lat="43.35749" lon="6.70428">
        <ele>146</ele>
        <time>2016-10-09T13:20:41Z</time>
      </trkpt>
      <trkpt lat="43.35746" lon="6.70426">
        <ele>146.2</ele>
        <time>2016-10-09T13:20:43Z</time>
      </trkpt>
      <trkpt lat="43.35744" lon="6.70423">
        <ele>146.4</ele>
        <time>2016-10-09T13:20:45Z</time>
      </trkpt>
      <trkpt lat="43.35742" lon="6.7042">
        <ele>146.7</ele>
        <time>2016-10-09T13:20:47Z</time>
      </trkpt>
      <trkpt lat="43.3574" lon="6.70417">
        <ele>147.1</ele>
        <time>2016-10-09T13:20:49Z</time>
      </trkpt>
      <trkpt lat="43.35739" lon="6.70413">
        <ele>147.3</ele>
        <time>2016-10-09T13:20:51Z</time>
      </trkpt>
      <trkpt lat="43.35738" lon="6.70409">
        <ele>147.6</ele>
        <time>2016-10-09T13:20:53Z</time>
      </trkpt>
      <trkpt lat="43.35738" lon="6.70405">
        <ele>147.8</ele>
        <time>2016-10-09T13:20:55Z</time>
      </trkpt>
      <trkpt lat="43.35738" lon="6.704">
        <ele>148</ele>
        <time>2016-10-09T13:20:57Z</time>
      </trkpt>
      <trkpt lat="43.35738" lon="6.70396">
        <ele>148.2</ele>
        <time>2016-10-09T13:20:59Z</time>
      </trkpt>
      <trkpt lat="43.35738" lon="6.70392">
        <ele>148.3</ele>
        <time>2016-10-09T13:21:01Z</time>
      </trkpt>
      <trkpt lat="43.35738" lon="6.70387">
        <ele>148.6</ele>
        <time>2016-10-09T13:21:03Z</time>
      </trkpt>
      <trkpt lat="43.3574" lon="6.70382">
        <ele>148.9</ele>
        <time>2016-10-09T13:21:05Z</time>
      </trkpt>
      <trkpt lat="43.35741" lon="6.70377">
        <ele>149.4</ele>
        <time>2016-10-09T13:21:07Z</time>
      </trkpt>
      <trkpt lat="43.35741" lon="6.70372">
        <ele>149.7</ele>
        <time>2016-10-09T13:21:09Z</time>
      </trkpt>
      <trkpt lat="43.35742" lon="6.70367">
        <ele>149.9</ele>
        <time>2016-10-09T13:21:11Z</time>
      </trkpt>
      <trkpt lat="43.35743" lon="6.70362">
        <ele>150.1</ele>
        <time>2016-10-09T13:21:13Z</time>
      </trkpt>
      <trkpt lat="43.35744" lon="6.70356">
        <ele>150.3</ele>
        <time>2016-10-09T13:21:15Z</time>
      </trkpt>
      <trkpt lat="43.35744" lon="6.70351">
        <ele>150.6</ele>
        <time>2016-10-09T13:21:17Z</time>
      </trkpt>
      <trkpt lat="43.35744" lon="6.70345">
        <ele>150.9</ele>
        <time>2016-10-09T13:21:19Z</time>
      </trkpt>
      <trkpt lat="43.35743" lon="6.70341">
        <ele>151.3</ele>
        <time>2016-10-09T13:21:21Z</time>
      </trkpt>
      <trkpt lat="43.35742" lon="6.70336">
        <ele>151.7</ele>
        <time>2016-10-09T13:21:23Z</time>
      </trkpt>
      <trkpt lat="43.35741" lon="6.70332">
        <ele>152.1</ele>
        <time>2016-10-09T13:21:25Z</time>
      </trkpt>
      <trkpt lat="43.3574" lon="6.70328">
        <ele>152.4</ele>
        <time>2016-10-09T13:21:27Z</time>
      </trkpt>
      <trkpt lat="43.35738" lon="6.70324">
        <ele>152.5</ele>
        <time>2016-10-09T13:21:29Z</time>
      </trkpt>
      <trkpt lat="43.35737" lon="6.7032">
        <ele>152.7</ele>
        <time>2016-10-09T13:21:31Z</time>
      </trkpt>
      <trkpt lat="43.35735" lon="6.70316">
        <ele>152.8</ele>
        <time>2016-10-09T13:21:33Z</time>
      </trkpt>
      <trkpt lat="43.35733" lon="6.70313">
        <ele>153</ele>
        <time>2016-10-09T13:21:35Z</time>
      </trkpt>
      <trkpt lat="43.35732" lon="6.7031">
        <ele>153.3</ele>
        <time>2016-10-09T13:21:37Z</time>
      </trkpt>
      <trkpt lat="43.35729" lon="6.70307">
        <ele>153.7</ele>
        <time>2016-10-09T13:21:39Z</time>
      </trkpt>
      <trkpt lat="43.35727" lon="6.70304">
        <ele>154.1</ele>
        <time>2016-10-09T13:21:41Z</time>
      </trkpt>
      <trkpt lat="43.35724" lon="6.70302">
        <ele>154.3</ele>
        <time>2016-10-09T13:21:43Z</time>
      </trkpt>
      <trkpt lat="43.35722" lon="6.70299">
        <ele>154.5</ele>
        <time>2016-10-09T13:21:45Z</time>
      </trkpt>
      <trkpt lat="43.3572" lon="6.70297">
        <ele>154.7</ele>
        <time>2016-10-09T13:21:47Z</time>
      </trkpt>
      <trkpt lat="43.35717" lon="6.70295">
        <ele>154.9</ele>
        <time>2016-10-09T13:21:49Z</time>
      </trkpt>
      <trkpt lat="43.35714" lon="6.70293">
        <ele>155.1</ele>
        <time>2016-10-09T13:21:51Z</time>
      </trkpt>
      <trkpt lat="43.35712" lon="6.7029">
        <ele>155.4</ele>
        <time>2016-10-09T13:21:53Z</time>
      </trkpt>
      <trkpt lat="43.35709" lon="6.70288">
        <ele>155.8</ele>
        <time>2016-10-09T13:21:55Z</time>
      </trkpt>
      <trkpt lat="43.35706" lon="6.70285">
        <ele>156.1</ele>
        <time>2016-10-09T13:21:57Z</time>
      </trkpt>
      <trkpt lat="43.35703" lon="6.70283">
        <ele>156.3</ele>
        <time>2016-10-09T13:21:59Z</time>
      </trkpt>
      <trkpt lat="43.357" lon="6.7028">
        <ele>156.4</ele>
        <time>2016-10-09T13:22:01Z</time>
      </trkpt>
      <trkpt lat="43.35698" lon="6.70277">
        <ele>156.5</ele>
        <time>2016-10-09T13:22:03Z</time>
      </trkpt>
      <trkpt lat="43.35696" lon="6.70274">
        <ele>156.6</ele>
        <time>2016-10-09T13:22:05Z</time>
      </trkpt>
      <trkpt lat="43.35693" lon="6.7027">
        <ele>156.8</ele>
        <time>2016-10-09T13:22:07Z</time>
      </trkpt>
      <trkpt lat="43.35691" lon="6.70266">
        <ele>156.9</ele>
        <time>2016-10-09T13:22:09Z</time>
      </trkpt>
      <trkpt lat="43.35689" lon="6.70262">
        <ele>157.1</ele>
        <time>2016-10-09T13:22:11Z</time>
      </trkpt>
      <trkpt lat="43.35687" lon="6.70257">
        <ele>157.5</ele>
        <time>2016-10-09T13:22:13Z</time>
      </trkpt>
      <trkpt lat="43.35685" lon="6.70253">
        <ele>157.9</ele>
        <time>2016-10-09T13:22:15Z</time>
      </trkpt>
      <trkpt lat="43.35684" lon="6.70249">
        <ele>158.1</ele>
        <time>2016-10-09T13:22:17Z</time>
      </trkpt>
      <trkpt lat="43.35682" lon="6.70245">
        <ele>158.2</ele>
        <time>2016-10-09T13:22:19Z</time>
      </trkpt>
      <trkpt lat="43.3568" lon="6.70241">
        <ele>158.3</ele>
        <time>2016-10-09T13:22:21Z</time>
      </trkpt>
      <trkpt lat="43.35677" lon="6.70236">
        <ele>158.4</ele>
        <time>2016-10-09T13:22:23Z</time>
      </trkpt>
      <trkpt lat="43.35676" lon="6.70229">
        <ele>158.4</ele>
        <time>2016-10-09T13:22:25Z</time>
      </trkpt>
      <trkpt lat="43.35674" lon="6.70223">
        <ele>158.5</ele>
        <time>2016-10-09T13:22:27Z</time>
      </trkpt>
      <trkpt lat="43.35674" lon="6.70216">
        <ele>158.5</ele>
        <time>2016-10-09T13:22:29Z</time>
      </trkpt>
      <trkpt lat="43.35673" lon="6.70208">
        <ele>158.6</ele>
        <time>2016-10-09T13:22:31Z</time>
      </trkpt>
      <trkpt lat="43.35674" lon="6.70199">
        <ele>158.7</ele>
        <time>2016-10-09T13:22:33Z</time>
      </trkpt>
      <trkpt lat="43.35675" lon="6.70192">
        <ele>158.7</ele>
        <time>2016-10-09T13:22:35Z</time>
      </trkpt>
      <trkpt lat="43.35676" lon="6.70186">
        <ele>158.8</ele>
        <time>2016-10-09T13:22:37Z</time>
      </trkpt>
      <trkpt lat="43.35677" lon="6.70178">
        <ele>158.9</ele>
        <time>2016-10-09T13:22:39Z</time>
      </trkpt>
      <trkpt lat="43.35676" lon="6.70168">
        <ele>159.1</ele>
        <time>2016-10-09T13:22:41Z</time>
      </trkpt>
      <trkpt lat="43.35675" lon="6.70158">
        <ele>159.4</ele>
        <time>2016-10-09T13:22:43Z</time>
      </trkpt>
      <trkpt lat="43.35674" lon="6.70147">
        <ele>160</ele>
        <time>2016-10-09T13:22:45Z</time>
      </trkpt>
      <trkpt lat="43.35672" lon="6.70135">
        <ele>160.3</ele>
        <time>2016-10-09T13:22:47Z</time>
      </trkpt>
      <trkpt lat="43.35668" lon="6.70126">
        <ele>160.5</ele>
        <time>2016-10-09T13:22:49Z</time>
      </trkpt>
      <trkpt lat="43.35663" lon="6.70118">
        <ele>160.6</ele>
        <time>2016-10-09T13:22:51Z</time>
      </trkpt>
      <trkpt lat="43.35656" lon="6.70109">
        <ele>160.7</ele>
        <time>2016-10-09T13:22:53Z</time>
      </trkpt>
      <trkpt lat="43.35649" lon="6.70099">
        <ele>160.7</ele>
        <time>2016-10-09T13:22:55Z</time>
      </trkpt>
      <trkpt lat="43.35644" lon="6.7009">
        <ele>160.7</ele>
        <time>2016-10-09T13:22:57Z</time>
      </trkpt>
      <trkpt lat="43.35639" lon="6.70081">
        <ele>160.7</ele>
        <time>2016-10-09T13:22:59Z</time>
      </trkpt>
      <trkpt lat="43.35636" lon="6.70071">
        <ele>160.7</ele>
        <time>2016-10-09T13:23:01Z</time>
      </trkpt>
      <trkpt lat="43.35635" lon="6.70062">
        <ele>160.7</ele>
        <time>2016-10-09T13:23:03Z</time>
      </trkpt>
      <trkpt lat="43.35638" lon="6.70053">
        <ele>160.8</ele>
        <time>2016-10-09T13:23:05Z</time>
      </trkpt>
      <trkpt lat="43.35645" lon="6.70046">
        <ele>160.8</ele>
        <time>2016-10-09T13:23:07Z</time>
      </trkpt>
      <trkpt lat="43.35651" lon="6.70036">
        <ele>160.8</ele>
        <time>2016-10-09T13:23:09Z</time>
      </trkpt>
      <trkpt lat="43.35657" lon="6.70025">
        <ele>160.8</ele>
        <time>2016-10-09T13:23:11Z</time>
      </trkpt>
      <trkpt lat="43.35663" lon="6.70014">
        <ele>160.8</ele>
        <time>2016-10-09T13:23:13Z</time>
      </trkpt>
      <trkpt lat="43.35669" lon="6.70004">
        <ele>160.8</ele>
        <time>2016-10-09T13:23:15Z</time>
      </trkpt>
      <trkpt lat="43.35674" lon="6.69993">
        <ele>160.9</ele>
        <time>2016-10-09T13:23:17Z</time>
      </trkpt>
      <trkpt lat="43.35677" lon="6.69982">
        <ele>160.9</ele>
        <time>2016-10-09T13:23:19Z</time>
      </trkpt>
      <trkpt lat="43.35678" lon="6.69971">
        <ele>161</ele>
        <time>2016-10-09T13:23:21Z</time>
      </trkpt>
      <trkpt lat="43.35677" lon="6.6996">
        <ele>161</ele>
        <time>2016-10-09T13:23:23Z</time>
      </trkpt>
      <trkpt lat="43.35676" lon="6.6995">
        <ele>161.2</ele>
        <time>2016-10-09T13:23:25Z</time>
      </trkpt>
      <trkpt lat="43.35675" lon="6.6994">
        <ele>161.3</ele>
        <time>2016-10-09T13:23:27Z</time>
      </trkpt>
      <trkpt lat="43.35677" lon="6.69932">
        <ele>161.5</ele>
        <time>2016-10-09T13:23:29Z</time>
      </trkpt>
      <trkpt lat="43.35683" lon="6.69924">
        <ele>161.7</ele>
        <time>2016-10-09T13:23:31Z</time>
      </trkpt>
      <trkpt lat="43.3569" lon="6.69915">
        <ele>162.4</ele>
        <time>2016-10-09T13:23:33Z</time>
      </trkpt>
      <trkpt lat="43.357" lon="6.69911">
        <ele>162.8</ele>
        <time>2016-10-09T13:23:35Z</time>
      </trkpt>
      <trkpt lat="43.35711" lon="6.69906">
        <ele>163</ele>
        <time>2016-10-09T13:23:37Z</time>
      </trkpt>
      <trkpt lat="43.35722" lon="6.69895">
        <ele>163</ele>
        <time>2016-10-09T13:23:39Z</time>
      </trkpt>
      <trkpt lat="43.3573" lon="6.6988">
        <ele>162.9</ele>
        <time>2016-10-09T13:23:41Z</time>
      </trkpt>
      <trkpt lat="43.35737" lon="6.69863">
        <ele>162.8</ele>
        <time>2016-10-09T13:23:43Z</time>
      </trkpt>
      <trkpt lat="43.35743" lon="6.69849">
        <ele>162.5</ele>
        <time>2016-10-09T13:23:45Z</time>
      </trkpt>
      <trkpt lat="43.35751" lon="6.69844">
        <ele>162</ele>
        <time>2016-10-09T13:23:47Z</time>
      </trkpt>
      <trkpt lat="43.35762" lon="6.69846">
        <ele>161.3</ele>
        <time>2016-10-09T13:23:49Z</time>
      </trkpt>
      <trkpt lat="43.35774" lon="6.69847">
        <ele>160.4</ele>
        <time>2016-10-09T13:23:51Z</time>
      </trkpt>
      <trkpt lat="43.35786" lon="6.69851">
        <ele>160</ele>
        <time>2016-10-09T13:23:53Z</time>
      </trkpt>
      <trkpt lat="43.35801" lon="6.69858">
        <ele>160.2</ele>
        <time>2016-10-09T13:23:55Z</time>
      </trkpt>
      <trkpt lat="43.35816" lon="6.69867">
        <ele>160</ele>
        <time>2016-10-09T13:23:57Z</time>
      </trkpt>
      <trkpt lat="43.3583" lon="6.69879">
        <ele>159.6</ele>
        <time>2016-10-09T13:23:59Z</time>
      </trkpt>
      <trkpt lat="43.35844" lon="6.69891">
        <ele>159.1</ele>
        <time>2016-10-09T13:24:01Z</time>
      </trkpt>
      <trkpt lat="43.35856" lon="6.69897">
        <ele>158.5</ele>
        <time>2016-10-09T13:24:03Z</time>
      </trkpt>
      <trkpt lat="43.35867" lon="6.69889">
        <ele>157.9</ele>
        <time>2016-10-09T13:24:05Z</time>
      </trkpt>
      <trkpt lat="43.35873" lon="6.69874">
        <ele>156.9</ele>
        <time>2016-10-09T13:24:07Z</time>
      </trkpt>
      <trkpt lat="43.35876" lon="6.69856">
        <ele>156</ele>
        <time>2016-10-09T13:24:09Z</time>
      </trkpt>
      <trkpt lat="43.35877" lon="6.69836">
        <ele>155.4</ele>
        <time>2016-10-09T13:24:11Z</time>
      </trkpt>
      <trkpt lat="43.35876" lon="6.69816">
        <ele>155.1</ele>
        <time>2016-10-09T13:24:13Z</time>
      </trkpt>
      <trkpt lat="43.35878" lon="6.69796">
        <ele>154.7</ele>
        <time>2016-10-09T13:24:15Z</time>
      </trkpt>
      <trkpt lat="43.35881" lon="6.69774">
        <ele>154.4</ele>
        <time>2016-10-09T13:24:17Z</time>
      </trkpt>
      <trkpt lat="43.35882" lon="6.69753">
        <ele>154</ele>
        <time>2016-10-09T13:24:19Z</time>
      </trkpt>
      <trkpt lat="43.3588" lon="6.69732">
        <ele>153.5</ele>
        <time>2016-10-09T13:24:21Z</time>
      </trkpt>
      <trkpt lat="43.35878" lon="6.69711">
        <ele>153</ele>
        <time>2016-10-09T13:24:23Z</time>
      </trkpt>
      <trkpt lat="43.35879" lon="6.69696">
        <ele>152.5</ele>
        <time>2016-10-09T13:24:25Z</time>
      </trkpt>
      <trkpt lat="43.35889" lon="6.69692">
        <ele>151.9</ele>
        <time>2016-10-09T13:24:27Z</time>
      </trkpt>
      <trkpt lat="43.35901" lon="6.69695">
        <ele>151</ele>
        <time>2016-10-09T13:24:29Z</time>
      </trkpt>
      <trkpt lat="43.35911" lon="6.69694">
        <ele>149.9</ele>
        <time>2016-10-09T13:24:31Z</time>
      </trkpt>
      <trkpt lat="43.35919" lon="6.69688">
        <ele>148.8</ele>
        <time>2016-10-09T13:24:33Z</time>
      </trkpt>
      <trkpt lat="43.35926" lon="6.69677">
        <ele>147.9</ele>
        <time>2016-10-09T13:24:35Z</time>
      </trkpt>
      <trkpt lat="43.3593" lon="6.69663">
        <ele>147.2</ele>
        <time>2016-10-09T13:24:37Z</time>
      </trkpt>
      <trkpt lat="43.35934" lon="6.69653">
        <ele>146.7</ele>
        <time>2016-10-09T13:24:39Z</time>
      </trkpt>
      <trkpt lat="43.35941" lon="6.69652">
        <ele>146.5</ele>
        <time>2016-10-09T13:24:41Z</time>
      </trkpt>
      <trkpt lat="43.35945" lon="6.69658">
        <ele>143.3</ele>
        <time>2016-10-09T13:24:43Z</time>
      </trkpt>
      <trkpt lat="43.35946" lon="6.69669">
        <ele>140.4</ele>
        <time>2016-10-09T13:24:45Z</time>
      </trkpt>
      <trkpt lat="43.35947" lon="6.6968">
        <ele>137.3</ele>
        <time>2016-10-09T13:24:47Z</time>
      </trkpt>
      <trkpt lat="43.35948" lon="6.69693">
        <ele>133.9</ele>
        <time>2016-10-09T13:24:49Z</time>
      </trkpt>
      <trkpt lat="43.35949" lon="6.69707">
        <ele>131</ele>
        <time>2016-10-09T13:24:51Z</time>
      </trkpt>
      <trkpt lat="43.35953" lon="6.69721">
        <ele>130</ele>
        <time>2016-10-09T13:24:53Z</time>
      </trkpt>
      <trkpt lat="43.35959" lon="6.69735">
        <ele>128.8</ele>
        <time>2016-10-09T13:24:55Z</time>
      </trkpt>
      <trkpt lat="43.35966" lon="6.69749">
        <ele>127.4</ele>
        <time>2016-10-09T13:24:57Z</time>
      </trkpt>
      <trkpt lat="43.35968" lon="6.69761">
        <ele>126.3</ele>
        <time>2016-10-09T13:24:59Z</time>
      </trkpt>
      <trkpt lat="43.35969" lon="6.69775">
        <ele>125.3</ele>
        <time>2016-10-09T13:25:01Z</time>
      </trkpt>
      <trkpt lat="43.35973" lon="6.69789">
        <ele>124.3</ele>
        <time>2016-10-09T13:25:03Z</time>
      </trkpt>
      <trkpt lat="43.35977" lon="6.69802">
        <ele>123.3</ele>
        <time>2016-10-09T13:25:05Z</time>
      </trkpt>
      <trkpt lat="43.35984" lon="6.69812">
        <ele>122.2</ele>
        <time>2016-10-09T13:25:07Z</time>
      </trkpt>
      <trkpt lat="43.35993" lon="6.69822">
        <ele>121</ele>
        <time>2016-10-09T13:25:09Z</time>
      </trkpt>
      <trkpt lat="43.36002" lon="6.69835">
        <ele>119.8</ele>
        <time>2016-10-09T13:25:11Z</time>
      </trkpt>
      <trkpt lat="43.3601" lon="6.69849">
        <ele>119</ele>
        <time>2016-10-09T13:25:13Z</time>
      </trkpt>
      <trkpt lat="43.36018" lon="6.69865">
        <ele>118.1</ele>
        <time>2016-10-09T13:25:15Z</time>
      </trkpt>
      <trkpt lat="43.36026" lon="6.69881">
        <ele>117</ele>
        <time>2016-10-09T13:25:17Z</time>
      </trkpt>
      <trkpt lat="43.36033" lon="6.69893">
        <ele>116</ele>
        <time>2016-10-09T13:25:19Z</time>
      </trkpt>
      <trkpt lat="43.36037" lon="6.69905">
        <ele>115</ele>
        <time>2016-10-09T13:25:21Z</time>
      </trkpt>
      <trkpt lat="43.3604" lon="6.6992">
        <ele>113.9</ele>
        <time>2016-10-09T13:25:23Z</time>
      </trkpt>
      <trkpt lat="43.36044" lon="6.69935">
        <ele>113.1</ele>
        <time>2016-10-09T13:25:25Z</time>
      </trkpt>
      <trkpt lat="43.3605" lon="6.69948">
        <ele>112.2</ele>
        <time>2016-10-09T13:25:27Z</time>
      </trkpt>
      <trkpt lat="43.36055" lon="6.6996">
        <ele>111.3</ele>
        <time>2016-10-09T13:25:29Z</time>
      </trkpt>
      <trkpt lat="43.36057" lon="6.69974">
        <ele>110.2</ele>
        <time>2016-10-09T13:25:31Z</time>
      </trkpt>
      <trkpt lat="43.36059" lon="6.69988">
        <ele>108.8</ele>
        <time>2016-10-09T13:25:33Z</time>
      </trkpt>
      <trkpt lat="43.36063" lon="6.70005">
        <ele>107.3</ele>
        <time>2016-10-09T13:25:35Z</time>
      </trkpt>
      <trkpt lat="43.36069" lon="6.7002">
        <ele>106</ele>
        <time>2016-10-09T13:25:37Z</time>
      </trkpt>
      <trkpt lat="43.36076" lon="6.70032">
        <ele>105.4</ele>
        <time>2016-10-09T13:25:39Z</time>
      </trkpt>
      <trkpt lat="43.36081" lon="6.70046">
        <ele>104.9</ele>
        <time>2016-10-09T13:25:41Z</time>
      </trkpt>
      <trkpt lat="43.36085" lon="6.70061">
        <ele>104.1</ele>
        <time>2016-10-09T13:25:43Z</time>
      </trkpt>
      <trkpt lat="43.3609" lon="6.70076">
        <ele>103</ele>
        <time>2016-10-09T13:25:45Z</time>
      </trkpt>
      <trkpt lat="43.36096" lon="6.70091">
        <ele>101.9</ele>
        <time>2016-10-09T13:25:47Z</time>
      </trkpt>
      <trkpt lat="43.36102" lon="6.70104">
        <ele>100.7</ele>
        <time>2016-10-09T13:25:49Z</time>
      </trkpt>
      <trkpt lat="43.36107" lon="6.70117">
        <ele>99.6</ele>
        <time>2016-10-09T13:25:51Z</time>
      </trkpt>
      <trkpt lat="43.36111" lon="6.70131">
        <ele>98.4</ele>
        <time>2016-10-09T13:25:53Z</time>
      </trkpt>
      <trkpt lat="43.36118" lon="6.70143">
        <ele>97.2</ele>
        <time>2016-10-09T13:25:55Z</time>
      </trkpt>
      <trkpt lat="43.36128" lon="6.70151">
        <ele>96.2</ele>
        <time>2016-10-09T13:25:57Z</time>
      </trkpt>
      <trkpt lat="43.36138" lon="6.70156">
        <ele>95.3</ele>
        <time>2016-10-09T13:25:59Z</time>
      </trkpt>
      <trkpt lat="43.36148" lon="6.7016">
        <ele>94.4</ele>
        <time>2016-10-09T13:26:01Z</time>
      </trkpt>
      <trkpt lat="43.36158" lon="6.70161">
        <ele>93.6</ele>
        <time>2016-10-09T13:26:03Z</time>
      </trkpt>
      <trkpt lat="43.36169" lon="6.70155">
        <ele>92.5</ele>
        <time>2016-10-09T13:26:05Z</time>
      </trkpt>
      <trkpt lat="43.36177" lon="6.70148">
        <ele>91.5</ele>
        <time>2016-10-09T13:26:07Z</time>
      </trkpt>
      <trkpt lat="43.36186" lon="6.7015">
        <ele>90.6</ele>
        <time>2016-10-09T13:26:09Z</time>
      </trkpt>
      <trkpt lat="43.36195" lon="6.70157">
        <ele>89.5</ele>
        <time>2016-10-09T13:26:11Z</time>
      </trkpt>
      <trkpt lat="43.36205" lon="6.70166">
        <ele>88.4</ele>
        <time>2016-10-09T13:26:13Z</time>
      </trkpt>
      <trkpt lat="43.3621" lon="6.70178">
        <ele>87.4</ele>
        <time>2016-10-09T13:26:15Z</time>
      </trkpt>
      <trkpt lat="43.36214" lon="6.70192">
        <ele>86.3</ele>
        <time>2016-10-09T13:26:17Z</time>
      </trkpt>
      <trkpt lat="43.36223" lon="6.70203">
        <ele>85.4</ele>
        <time>2016-10-09T13:26:19Z</time>
      </trkpt>
      <trkpt lat="43.36228" lon="6.70215">
        <ele>84.3</ele>
        <time>2016-10-09T13:26:21Z</time>
      </trkpt>
      <trkpt lat="43.36231" lon="6.70227">
        <ele>83.4</ele>
        <time>2016-10-09T13:26:23Z</time>
      </trkpt>
      <trkpt lat="43.36232" lon="6.70239">
        <ele>82.7</ele>
        <time>2016-10-09T13:26:25Z</time>
      </trkpt>
      <trkpt lat="43.36236" lon="6.70251">
        <ele>81.8</ele>
        <time>2016-10-09T13:26:27Z</time>
      </trkpt>
      <trkpt lat="43.36241" lon="6.70261">
        <ele>80.9</ele>
        <time>2016-10-09T13:26:29Z</time>
      </trkpt>
      <trkpt lat="43.36242" lon="6.7027">
        <ele>80.2</ele>
        <time>2016-10-09T13:26:31Z</time>
      </trkpt>
      <trkpt lat="43.36244" lon="6.70281">
        <ele>79.2</ele>
        <time>2016-10-09T13:26:33Z</time>
      </trkpt>
      <trkpt lat="43.3625" lon="6.70293">
        <ele>78</ele>
        <time>2016-10-09T13:26:35Z</time>
      </trkpt>
      <trkpt lat="43.36257" lon="6.70301">
        <ele>76.8</ele>
        <time>2016-10-09T13:26:37Z</time>
      </trkpt>
      <trkpt lat="43.36265" lon="6.70309">
        <ele>75.7</ele>
        <time>2016-10-09T13:26:39Z</time>
      </trkpt>
      <trkpt lat="43.36271" lon="6.70311">
        <ele>75</ele>
        <time>2016-10-09T13:26:41Z</time>
      </trkpt>
      <trkpt lat="43.36278" lon="6.70311">
        <ele>74.5</ele>
        <time>2016-10-09T13:26:43Z</time>
      </trkpt>
      <trkpt lat="43.36285" lon="6.70309">
        <ele>74.1</ele>
        <time>2016-10-09T13:26:45Z</time>
      </trkpt>
      <trkpt lat="43.36292" lon="6.70303">
        <ele>73.4</ele>
        <time>2016-10-09T13:26:47Z</time>
      </trkpt>
      <trkpt lat="43.36298" lon="6.70294">
        <ele>72.6</ele>
        <time>2016-10-09T13:26:49Z</time>
      </trkpt>
      <trkpt lat="43.36304" lon="6.70285">
        <ele>71.8</ele>
        <time>2016-10-09T13:26:51Z</time>
      </trkpt>
      <trkpt lat="43.3631" lon="6.70281">
        <ele>71.4</ele>
        <time>2016-10-09T13:26:53Z</time>
      </trkpt>
      <trkpt lat="43.36319" lon="6.70286">
        <ele>70.6</ele>
        <time>2016-10-09T13:26:55Z</time>
      </trkpt>
      <trkpt lat="43.36326" lon="6.70293">
        <ele>69.7</ele>
        <time>2016-10-09T13:26:57Z</time>
      </trkpt>
      <trkpt lat="43.36332" lon="6.70301">
        <ele>68.4</ele>
        <time>2016-10-09T13:26:59Z</time>
      </trkpt>
      <trkpt lat="43.36334" lon="6.70309">
        <ele>67.6</ele>
        <time>2016-10-09T13:27:01Z</time>
      </trkpt>
      <trkpt lat="43.36335" lon="6.7032">
        <ele>66.7</ele>
        <time>2016-10-09T13:27:03Z</time>
      </trkpt>
      <trkpt lat="43.36336" lon="6.70332">
        <ele>65.9</ele>
        <time>2016-10-09T13:27:05Z</time>
      </trkpt>
      <trkpt lat="43.36337" lon="6.70344">
        <ele>65</ele>
        <time>2016-10-09T13:27:07Z</time>
      </trkpt>
      <trkpt lat="43.36337" lon="6.70357">
        <ele>64</ele>
        <time>2016-10-09T13:27:09Z</time>
      </trkpt>
      <trkpt lat="43.36338" lon="6.7037">
        <ele>63</ele>
        <time>2016-10-09T13:27:11Z</time>
      </trkpt>
      <trkpt lat="43.36338" lon="6.70383">
        <ele>62.3</ele>
        <time>2016-10-09T13:27:13Z</time>
      </trkpt>
      <trkpt lat="43.36336" lon="6.70397">
        <ele>61.5</ele>
        <time>2016-10-09T13:27:15Z</time>
      </trkpt>
      <trkpt lat="43.36332" lon="6.70411">
        <ele>60.6</ele>
        <time>2016-10-09T13:27:17Z</time>
      </trkpt>
      <trkpt lat="43.36332" lon="6.70426">
        <ele>59.7</ele>
        <time>2016-10-09T13:27:19Z</time>
      </trkpt>
      <trkpt lat="43.36332" lon="6.70443">
        <ele>59</ele>
        <time>2016-10-09T13:27:21Z</time>
      </trkpt>
      <trkpt lat="43.36329" lon="6.7046">
        <ele>58.1</ele>
        <time>2016-10-09T13:27:23Z</time>
      </trkpt>
      <trkpt lat="43.36328" lon="6.70479">
        <ele>57</ele>
        <time>2016-10-09T13:27:25Z</time>
      </trkpt>
      <trkpt lat="43.3633" lon="6.70495">
        <ele>55.9</ele>
        <time>2016-10-09T13:27:27Z</time>
      </trkpt>
      <trkpt lat="43.36338" lon="6.70505">
        <ele>54.8</ele>
        <time>2016-10-09T13:27:29Z</time>
      </trkpt>
      <trkpt lat="43.36348" lon="6.70508">
        <ele>53.9</ele>
        <time>2016-10-09T13:27:31Z</time>
      </trkpt>
      <trkpt lat="43.36358" lon="6.70512">
        <ele>53.2</ele>
        <time>2016-10-09T13:27:33Z</time>
      </trkpt>
      <trkpt lat="43.36368" lon="6.70516">
        <ele>52.2</ele>
        <time>2016-10-09T13:27:35Z</time>
      </trkpt>
      <trkpt lat="43.36378" lon="6.70521">
        <ele>51.1</ele>
        <time>2016-10-09T13:27:37Z</time>
      </trkpt>
      <trkpt lat="43.36386" lon="6.70519">
        <ele>50.1</ele>
        <time>2016-10-09T13:27:39Z</time>
      </trkpt>
      <trkpt lat="43.36391" lon="6.70512">
        <ele>49</ele>
        <time>2016-10-09T13:27:41Z</time>
      </trkpt>
      <trkpt lat="43.36399" lon="6.70513">
        <ele>48</ele>
        <time>2016-10-09T13:27:43Z</time>
      </trkpt>
      <trkpt lat="43.36408" lon="6.70517">
        <ele>47.2</ele>
        <time>2016-10-09T13:27:45Z</time>
      </trkpt>
      <trkpt lat="43.36417" lon="6.7052">
        <ele>46.4</ele>
        <time>2016-10-09T13:27:47Z</time>
      </trkpt>
      <trkpt lat="43.36427" lon="6.7052">
        <ele>45.5</ele>
        <time>2016-10-09T13:27:49Z</time>
      </trkpt>
      <trkpt lat="43.36438" lon="6.7052">
        <ele>44.7</ele>
        <time>2016-10-09T13:27:51Z</time>
      </trkpt>
      <trkpt lat="43.36449" lon="6.70516">
        <ele>43.9</ele>
        <time>2016-10-09T13:27:53Z</time>
      </trkpt>
      <trkpt lat="43.36459" lon="6.70511">
        <ele>42.9</ele>
        <time>2016-10-09T13:27:55Z</time>
      </trkpt>
      <trkpt lat="43.36468" lon="6.70505">
        <ele>42</ele>
        <time>2016-10-09T13:27:57Z</time>
      </trkpt>
      <trkpt lat="43.36474" lon="6.70497">
        <ele>41.1</ele>
        <time>2016-10-09T13:27:59Z</time>
      </trkpt>
      <trkpt lat="43.36477" lon="6.70487">
        <ele>40.1</ele>
        <time>2016-10-09T13:28:01Z</time>
      </trkpt>
      <trkpt lat="43.36482" lon="6.70481">
        <ele>39.1</ele>
        <time>2016-10-09T13:28:03Z</time>
      </trkpt>
      <trkpt lat="43.36488" lon="6.70486">
        <ele>37.9</ele>
        <time>2016-10-09T13:28:05Z</time>
      </trkpt>
      <trkpt lat="43.36494" lon="6.70493">
        <ele>36.8</ele>
        <time>2016-10-09T13:28:07Z</time>
      </trkpt>
      <trkpt lat="43.36501" lon="6.70497">
        <ele>36.2</ele>
        <time>2016-10-09T13:28:09Z</time>
      </trkpt>
      <trkpt lat="43.36506" lon="6.70498">
        <ele>35.7</ele>
        <time>2016-10-09T13:28:11Z</time>
      </trkpt>
      <trkpt lat="43.36514" lon="6.70497">
        <ele>35</ele>
        <time>2016-10-09T13:28:13Z</time>
      </trkpt>
      <trkpt lat="43.3652" lon="6.70501">
        <ele>34.2</ele>
        <time>2016-10-09T13:28:15Z</time>
      </trkpt>
      <trkpt lat="43.36528" lon="6.70508">
        <ele>33.5</ele>
        <time>2016-10-09T13:28:17Z</time>
      </trkpt>
      <trkpt lat="43.36537" lon="6.70509">
        <ele>32.9</ele>
        <time>2016-10-09T13:28:19Z</time>
      </trkpt>
      <trkpt lat="43.36548" lon="6.70507">
        <ele>32</ele>
        <time>2016-10-09T13:28:21Z</time>
      </trkpt>
      <trkpt lat="43.36557" lon="6.705">
        <ele>31.3</ele>
        <time>2016-10-09T13:28:23Z</time>
      </trkpt>
      <trkpt lat="43.36565" lon="6.70501">
        <ele>30.8</ele>
        <time>2016-10-09T13:28:25Z</time>
      </trkpt>
      <trkpt lat="43.36569" lon="6.70512">
        <ele>30.3</ele>
        <time>2016-10-09T13:28:27Z</time>
      </trkpt>
      <trkpt lat="43.36567" lon="6.70525">
        <ele>29.4</ele>
        <time>2016-10-09T13:28:29Z</time>
      </trkpt>
      <trkpt lat="43.36564" lon="6.70539">
        <ele>28.3</ele>
        <time>2016-10-09T13:28:31Z</time>
      </trkpt>
      <trkpt lat="43.36563" lon="6.70553">
        <ele>27.3</ele>
        <time>2016-10-09T13:28:33Z</time>
      </trkpt>
      <trkpt lat="43.36565" lon="6.70566">
        <ele>26.4</ele>
        <time>2016-10-09T13:28:35Z</time>
      </trkpt>
      <trkpt lat="43.36569" lon="6.70579">
        <ele>25.8</ele>
        <time>2016-10-09T13:28:37Z</time>
      </trkpt>
      <trkpt lat="43.36574" lon="6.70593">
        <ele>25.5</ele>
        <time>2016-10-09T13:28:39Z</time>
      </trkpt>
      <trkpt lat="43.36579" lon="6.70605">
        <ele>25.3</ele>
        <time>2016-10-09T13:28:41Z</time>
      </trkpt>
      <trkpt lat="43.36585" lon="6.70615">
        <ele>25.2</ele>
        <time>2016-10-09T13:28:43Z</time>
      </trkpt>
      <trkpt lat="43.36591" lon="6.70619">
        <ele>25.1</ele>
        <time>2016-10-09T13:28:45Z</time>
      </trkpt>
      <trkpt lat="43.36599" lon="6.70625">
        <ele>25.1</ele>
        <time>2016-10-09T13:28:47Z</time>
      </trkpt>
      <trkpt lat="43.36607" lon="6.70631">
        <ele>25.1</ele>
        <time>2016-10-09T13:28:49Z</time>
      </trkpt>
      <trkpt lat="43.36614" lon="6.70639">
        <ele>25.2</ele>
        <time>2016-10-09T13:28:51Z</time>
      </trkpt>
      <trkpt lat="43.3662" lon="6.70649">
        <ele>25.3</ele>
        <time>2016-10-09T13:28:53Z</time>
      </trkpt>
      <trkpt lat="43.36626" lon="6.70659">
        <ele>25.4</ele>
        <time>2016-10-09T13:28:55Z</time>
      </trkpt>
      <trkpt lat="43.36632" lon="6.70667">
        <ele>25.3</ele>
        <time>2016-10-09T13:28:57Z</time>
      </trkpt>
      <trkpt lat="43.3664" lon="6.70672">
        <ele>25.3</ele>
        <time>2016-10-09T13:28:59Z</time>
      </trkpt>
      <trkpt lat="43.36646" lon="6.70672">
        <ele>25.2</ele>
        <time>2016-10-09T13:29:01Z</time>
      </trkpt>
      <trkpt lat="43.36652" lon="6.7067">
        <ele>25.1</ele>
        <time>2016-10-09T13:29:03Z</time>
      </trkpt>
      <trkpt lat="43.36661" lon="6.70665">
        <ele>24.9</ele>
        <time>2016-10-09T13:29:05Z</time>
      </trkpt>
      <trkpt lat="43.36671" lon="6.7066">
        <ele>24.9</ele>
        <time>2016-10-09T13:29:07Z</time>
      </trkpt>
      <trkpt lat="43.36682" lon="6.70659">
        <ele>24.8</ele>
        <time>2016-10-09T13:29:09Z</time>
      </trkpt>
      <trkpt lat="43.36692" lon="6.70666">
        <ele>24.7</ele>
        <time>2016-10-09T13:29:11Z</time>
      </trkpt>
      <trkpt lat="43.36701" lon="6.70679">
        <ele>24.5</ele>
        <time>2016-10-09T13:29:13Z</time>
      </trkpt>
      <trkpt lat="43.36709" lon="6.70695">
        <ele>23.9</ele>
        <time>2016-10-09T13:29:15Z</time>
      </trkpt>
      <trkpt lat="43.36715" lon="6.70707">
        <ele>23.2</ele>
        <time>2016-10-09T13:29:17Z</time>
      </trkpt>
      <trkpt lat="43.3672" lon="6.70706">
        <ele>22.9</ele>
        <time>2016-10-09T13:29:19Z</time>
      </trkpt>
      <trkpt lat="43.36722" lon="6.70698">
        <ele>22.8</ele>
        <time>2016-10-09T13:29:21Z</time>
      </trkpt>
      <trkpt lat="43.36723" lon="6.70686">
        <ele>22.6</ele>
        <time>2016-10-09T13:29:23Z</time>
      </trkpt>
      <trkpt lat="43.36725" lon="6.70673">
        <ele>22.4</ele>
        <time>2016-10-09T13:29:25Z</time>
      </trkpt>
      <trkpt lat="43.36726" lon="6.70658">
        <ele>22.2</ele>
        <time>2016-10-09T13:29:27Z</time>
      </trkpt>
      <trkpt lat="43.3673" lon="6.70644">
        <ele>21.9</ele>
        <time>2016-10-09T13:29:29Z</time>
      </trkpt>
      <trkpt lat="43.36739" lon="6.70634">
        <ele>21.7</ele>
        <time>2016-10-09T13:29:31Z</time>
      </trkpt>
      <trkpt lat="43.3675" lon="6.70632">
        <ele>21.1</ele>
        <time>2016-10-09T13:29:33Z</time>
      </trkpt>
      <trkpt lat="43.36759" lon="6.70641">
        <ele>19.8</ele>
        <time>2016-10-09T13:29:35Z</time>
      </trkpt>
      <trkpt lat="43.36766" lon="6.70652">
        <ele>17.7</ele>
        <time>2016-10-09T13:29:37Z</time>
      </trkpt>
      <trkpt lat="43.36774" lon="6.70653">
        <ele>16.5</ele>
        <time>2016-10-09T13:29:39Z</time>
      </trkpt>
      <trkpt lat="43.36779" lon="6.70643">
        <ele>15</ele>
        <time>2016-10-09T13:29:41Z</time>
      </trkpt>
      <trkpt lat="43.36783" lon="6.70632">
        <ele>15.6</ele>
        <time>2016-10-09T13:29:43Z</time>
      </trkpt>
      <trkpt lat="43.36788" lon="6.70622">
        <ele>16.2</ele>
        <time>2016-10-09T13:29:45Z</time>
      </trkpt>
      <trkpt lat="43.3679" lon="6.7061">
        <ele>16.8</ele>
        <time>2016-10-09T13:29:47Z</time>
      </trkpt>
      <trkpt lat="43.36789" lon="6.70597">
        <ele>17.3</ele>
        <time>2016-10-09T13:29:49Z</time>
      </trkpt>
      <trkpt lat="43.36786" lon="6.70586">
        <ele>17.9</ele>
        <time>2016-10-09T13:29:51Z</time>
      </trkpt>
      <trkpt lat="43.36785" lon="6.70576">
        <ele>18.5</ele>
        <time>2016-10-09T13:29:53Z</time>
      </trkpt>
      <trkpt lat="43.36786" lon="6.70568">
        <ele>18.9</ele>
        <time>2016-10-09T13:29:55Z</time>
      </trkpt>
      <trkpt lat="43.36791" lon="6.70559">
        <ele>19</ele>
        <time>2016-10-09T13:29:57Z</time>
      </trkpt>
      <trkpt lat="43.36791" lon="6.70548">
        <ele>19.7</ele>
        <time>2016-10-09T13:29:59Z</time>
      </trkpt>
      <trkpt lat="43.36788" lon="6.70538">
        <ele>20.1</ele>
        <time>2016-10-09T13:30:01Z</time>
      </trkpt>
      <trkpt lat="43.36787" lon="6.70526">
        <ele>20.5</ele>
        <time>2016-10-09T13:30:03Z</time>
      </trkpt>
      <trkpt lat="43.36786" lon="6.70513">
        <ele>20.9</ele>
        <time>2016-10-09T13:30:05Z</time>
      </trkpt>
      <trkpt lat="43.36787" lon="6.70501">
        <ele>21.2</ele>
        <time>2016-10-09T13:30:07Z</time>
      </trkpt>
      <trkpt lat="43.36787" lon="6.70489">
        <ele>21.4</ele>
        <time>2016-10-09T13:30:09Z</time>
      </trkpt>
      <trkpt lat="43.36789" lon="6.70477">
        <ele>21.7</ele>
        <time>2016-10-09T13:30:11Z</time>
      </trkpt>
      <trkpt lat="43.3679" lon="6.70466">
        <ele>22.1</ele>
        <time>2016-10-09T13:30:13Z</time>
      </trkpt>
      <trkpt lat="43.36792" lon="6.70455">
        <ele>22.5</ele>
        <time>2016-10-09T13:30:15Z</time>
      </trkpt>
      <trkpt lat="43.36794" lon="6.70444">
        <ele>22.9</ele>
        <time>2016-10-09T13:30:17Z</time>
      </trkpt>
      <trkpt lat="43.36799" lon="6.70436">
        <ele>24</ele>
        <time>2016-10-09T13:30:19Z</time>
      </trkpt>
      <trkpt lat="43.36806" lon="6.70434">
        <ele>23.9</ele>
        <time>2016-10-09T13:30:21Z</time>
      </trkpt>
      <trkpt lat="43.36813" lon="6.70436">
        <ele>23.4</ele>
        <time>2016-10-09T13:30:23Z</time>
      </trkpt>
      <trkpt lat="43.3682" lon="6.70438">
        <ele>22.9</ele>
        <time>2016-10-09T13:30:25Z</time>
      </trkpt>
      <trkpt lat="43.36826" lon="6.70442">
        <ele>22.3</ele>
        <time>2016-10-09T13:30:28Z</time>
      </trkpt>
      <trkpt lat="43.36832" lon="6.70446">
        <ele>21.6</ele>
        <time>2016-10-09T13:30:31Z</time>
      </trkpt>
      <trkpt lat="43.36836" lon="6.70449">
        <ele>21.3</ele>
        <time>2016-10-09T13:30:33Z</time>
      </trkpt>
      <trkpt lat="43.3684" lon="6.70452">
        <ele>21</ele>
        <time>2016-10-09T13:30:35Z</time>
      </trkpt>
      <trkpt lat="43.36843" lon="6.70455">
        <ele>20.8</ele>
        <time>2016-10-09T13:30:37Z</time>
      </trkpt>
      <trkpt lat="43.36846" lon="6.70458">
        <ele>20.4</ele>
        <time>2016-10-09T13:30:39Z</time>
      </trkpt>
      <trkpt lat="43.36849" lon="6.70461">
        <ele>20.1</ele>
        <time>2016-10-09T13:30:41Z</time>
      </trkpt>
      <trkpt lat="43.36851" lon="6.70465">
        <ele>19.8</ele>
        <time>2016-10-09T13:30:43Z</time>
      </trkpt>
      <trkpt lat="43.36853" lon="6.70469">
        <ele>19.5</ele>
        <time>2016-10-09T13:30:45Z</time>
      </trkpt>
      <trkpt lat="43.36856" lon="6.70473">
        <ele>19.3</ele>
        <time>2016-10-09T13:30:47Z</time>
      </trkpt>
      <trkpt lat="43.36858" lon="6.70477">
        <ele>19.1</ele>
        <time>2016-10-09T13:30:49Z</time>
      </trkpt>
      <trkpt lat="43.36861" lon="6.70481">
        <ele>18.9</ele>
        <time>2016-10-09T13:30:51Z</time>
      </trkpt>
      <trkpt lat="43.36864" lon="6.70485">
        <ele>18.6</ele>
        <time>2016-10-09T13:30:53Z</time>
      </trkpt>
      <trkpt lat="43.36866" lon="6.70489">
        <ele>18.4</ele>
        <time>2016-10-09T13:30:55Z</time>
      </trkpt>
      <trkpt lat="43.36869" lon="6.70494">
        <ele>18.2</ele>
        <time>2016-10-09T13:30:57Z</time>
      </trkpt>
      <trkpt lat="43.36871" lon="6.70498">
        <ele>18</ele>
        <time>2016-10-09T13:30:59Z</time>
      </trkpt>
      <trkpt lat="43.36873" lon="6.70503">
        <ele>17.7</ele>
        <time>2016-10-09T13:31:01Z</time>
      </trkpt>
      <trkpt lat="43.36874" lon="6.70508">
        <ele>17.5</ele>
        <time>2016-10-09T13:31:03Z</time>
      </trkpt>
      <trkpt lat="43.36876" lon="6.70512">
        <ele>17.3</ele>
        <time>2016-10-09T13:31:05Z</time>
      </trkpt>
      <trkpt lat="43.36877" lon="6.70516">
        <ele>17.2</ele>
        <time>2016-10-09T13:31:07Z</time>
      </trkpt>
      <trkpt lat="43.36877" lon="6.7052">
        <ele>17.2</ele>
        <time>2016-10-09T13:31:09Z</time>
      </trkpt>
      <trkpt lat="43.36877" lon="6.70524">
        <ele>17.1</ele>
        <time>2016-10-09T13:31:11Z</time>
      </trkpt>
      <trkpt lat="43.36878" lon="6.70528">
        <ele>17</ele>
        <time>2016-10-09T13:31:13Z</time>
      </trkpt>
      <trkpt lat="43.36879" lon="6.70532">
        <ele>16.9</ele>
        <time>2016-10-09T13:31:15Z</time>
      </trkpt>
      <trkpt lat="43.3688" lon="6.70536">
        <ele>16.7</ele>
        <time>2016-10-09T13:31:17Z</time>
      </trkpt>
      <trkpt lat="43.36881" lon="6.70539">
        <ele>16.4</ele>
        <time>2016-10-09T13:31:19Z</time>
      </trkpt>
      <trkpt lat="43.36881" lon="6.70543">
        <ele>16.1</ele>
        <time>2016-10-09T13:31:21Z</time>
      </trkpt>
      <trkpt lat="43.36881" lon="6.70547">
        <ele>15.9</ele>
        <time>2016-10-09T13:31:23Z</time>
      </trkpt>
      <trkpt lat="43.36882" lon="6.70551">
        <ele>15.7</ele>
        <time>2016-10-09T13:31:25Z</time>
      </trkpt>
      <trkpt lat="43.36882" lon="6.70554">
        <ele>15.4</ele>
        <time>2016-10-09T13:31:27Z</time>
      </trkpt>
      <trkpt lat="43.36882" lon="6.70557">
        <ele>15</ele>
        <time>2016-10-09T13:31:29Z</time>
      </trkpt>
      <trkpt lat="43.36886" lon="6.70556">
        <ele>14.6</ele>
        <time>2016-10-09T13:34:43Z</time>
      </trkpt>
      <trkpt lat="43.36895" lon="6.7055">
        <ele>16.8</ele>
        <time>2016-10-09T13:34:48Z</time>
      </trkpt>
      <trkpt lat="43.36898" lon="6.7055">
        <ele>17.5</ele>
        <time>2016-10-09T13:34:50Z</time>
      </trkpt>
      <trkpt lat="43.369" lon="6.70548">
        <ele>18.1</ele>
        <time>2016-10-09T13:34:52Z</time>
      </trkpt>
      <trkpt lat="43.36903" lon="6.70547">
        <ele>18.8</ele>
        <time>2016-10-09T13:34:54Z</time>
      </trkpt>
      <trkpt lat="43.36905" lon="6.70545">
        <ele>19.4</ele>
        <time>2016-10-09T13:34:56Z</time>
      </trkpt>
      <trkpt lat="43.36908" lon="6.70544">
        <ele>20.1</ele>
        <time>2016-10-09T13:34:58Z</time>
      </trkpt>
      <trkpt lat="43.36911" lon="6.70543">
        <ele>20.8</ele>
        <time>2016-10-09T13:35:00Z</time>
      </trkpt>
      <trkpt lat="43.36913" lon="6.70543">
        <ele>21.4</ele>
        <time>2016-10-09T13:35:02Z</time>
      </trkpt>
      <trkpt lat="43.36915" lon="6.70541">
        <ele>21.8</ele>
        <time>2016-10-09T13:35:04Z</time>
      </trkpt>
      <trkpt lat="43.36918" lon="6.7054">
        <ele>22.4</ele>
        <time>2016-10-09T13:35:06Z</time>
      </trkpt>
      <trkpt lat="43.36919" lon="6.70539">
        <ele>23</ele>
        <time>2016-10-09T13:35:08Z</time>
      </trkpt>
      <trkpt lat="43.36921" lon="6.70538">
        <ele>23.5</ele>
        <time>2016-10-09T13:35:10Z</time>
      </trkpt>
      <trkpt lat="43.36923" lon="6.70537">
        <ele>23.8</ele>
        <time>2016-10-09T13:35:12Z</time>
      </trkpt>
      <trkpt lat="43.36925" lon="6.70536">
        <ele>24.1</ele>
        <time>2016-10-09T13:35:14Z</time>
      </trkpt>
      <trkpt lat="43.36926" lon="6.70535">
        <ele>24.5</ele>
        <time>2016-10-09T13:35:16Z</time>
      </trkpt>
      <trkpt lat="43.36928" lon="6.70534">
        <ele>25</ele>
        <time>2016-10-09T13:35:18Z</time>
      </trkpt>
      <trkpt lat="43.3693" lon="6.70533">
        <ele>25.6</ele>
        <time>2016-10-09T13:35:20Z</time>
      </trkpt>
      <trkpt lat="43.36932" lon="6.70532">
        <ele>25.9</ele>
        <time>2016-10-09T13:35:22Z</time>
      </trkpt>
      <trkpt lat="43.36933" lon="6.70531">
        <ele>26.3</ele>
        <time>2016-10-09T13:35:24Z</time>
      </trkpt>
      <trkpt lat="43.36935" lon="6.70529">
        <ele>26.7</ele>
        <time>2016-10-09T13:35:26Z</time>
      </trkpt>
      <trkpt lat="43.36936" lon="6.70528">
        <ele>27.2</ele>
        <time>2016-10-09T13:35:28Z</time>
      </trkpt>
      <trkpt lat="43.36938" lon="6.70527">
        <ele>27.6</ele>
        <time>2016-10-09T13:35:30Z</time>
      </trkpt>
      <trkpt lat="43.3694" lon="6.70526">
        <ele>28.1</ele>
        <time>2016-10-09T13:35:32Z</time>
      </trkpt>
      <trkpt lat="43.36941" lon="6.70526">
        <ele>28.3</ele>
        <time>2016-10-09T13:35:34Z</time>
      </trkpt>
      <trkpt lat="43.36943" lon="6.70526">
        <ele>28.5</ele>
        <time>2016-10-09T13:35:36Z</time>
      </trkpt>
      <trkpt lat="43.36945" lon="6.70525">
        <ele>28.8</ele>
        <time>2016-10-09T13:35:38Z</time>
      </trkpt>
      <trkpt lat="43.36947" lon="6.70524">
        <ele>29.2</ele>
        <time>2016-10-09T13:35:40Z</time>
      </trkpt>
      <trkpt lat="43.36948" lon="6.70523">
        <ele>29.7</ele>
        <time>2016-10-09T13:35:42Z</time>
      </trkpt>
      <trkpt lat="43.3695" lon="6.70522">
        <ele>30.2</ele>
        <time>2016-10-09T13:35:44Z</time>
      </trkpt>
      <trkpt lat="43.36952" lon="6.70521">
        <ele>30.6</ele>
        <time>2016-10-09T13:35:46Z</time>
      </trkpt>
      <trkpt lat="43.36954" lon="6.7052">
        <ele>30.9</ele>
        <time>2016-10-09T13:35:48Z</time>
      </trkpt>
      <trkpt lat="43.36956" lon="6.70519">
        <ele>31.1</ele>
        <time>2016-10-09T13:35:50Z</time>
      </trkpt>
      <trkpt lat="43.36958" lon="6.70519">
        <ele>31.4</ele>
        <time>2016-10-09T13:35:52Z</time>
      </trkpt>
      <trkpt lat="43.3696" lon="6.70518">
        <ele>31.9</ele>
        <time>2016-10-09T13:35:54Z</time>
      </trkpt>
      <trkpt lat="43.36962" lon="6.70517">
        <ele>32.4</ele>
        <time>2016-10-09T13:35:56Z</time>
      </trkpt>
      <trkpt lat="43.36964" lon="6.70516">
        <ele>32.8</ele>
        <time>2016-10-09T13:35:58Z</time>
      </trkpt>
      <trkpt lat="43.36966" lon="6.70515">
        <ele>33.1</ele>
        <time>2016-10-09T13:36:00Z</time>
      </trkpt>
      <trkpt lat="43.36968" lon="6.70514">
        <ele>33.3</ele>
        <time>2016-10-09T13:36:02Z</time>
      </trkpt>
      <trkpt lat="43.3697" lon="6.70514">
        <ele>33.6</ele>
        <time>2016-10-09T13:36:04Z</time>
      </trkpt>
      <trkpt lat="43.36972" lon="6.70513">
        <ele>33.8</ele>
        <time>2016-10-09T13:36:06Z</time>
      </trkpt>
      <trkpt lat="43.36974" lon="6.70512">
        <ele>34.2</ele>
        <time>2016-10-09T13:36:08Z</time>
      </trkpt>
      <trkpt lat="43.36976" lon="6.7051">
        <ele>34.6</ele>
        <time>2016-10-09T13:36:10Z</time>
      </trkpt>
      <trkpt lat="43.36979" lon="6.70509">
        <ele>35</ele>
        <time>2016-10-09T13:36:12Z</time>
      </trkpt>
      <trkpt lat="43.36981" lon="6.70508">
        <ele>35.5</ele>
        <time>2016-10-09T13:36:14Z</time>
      </trkpt>
      <trkpt lat="43.36983" lon="6.70506">
        <ele>35.6</ele>
        <time>2016-10-09T13:36:16Z</time>
      </trkpt>
      <trkpt lat="43.36985" lon="6.70504">
        <ele>35.8</ele>
        <time>2016-10-09T13:36:18Z</time>
      </trkpt>
      <trkpt lat="43.36987" lon="6.70503">
        <ele>35.9</ele>
        <time>2016-10-09T13:36:20Z</time>
      </trkpt>
      <trkpt lat="43.36989" lon="6.70501">
        <ele>36.1</ele>
        <time>2016-10-09T13:36:22Z</time>
      </trkpt>
      <trkpt lat="43.36991" lon="6.70499">
        <ele>36.2</ele>
        <time>2016-10-09T13:36:24Z</time>
      </trkpt>
      <trkpt lat="43.36992" lon="6.70497">
        <ele>36.4</ele>
        <time>2016-10-09T13:36:26Z</time>
      </trkpt>
      <trkpt lat="43.36995" lon="6.70495">
        <ele>36.7</ele>
        <time>2016-10-09T13:36:28Z</time>
      </trkpt>
      <trkpt lat="43.36997" lon="6.70493">
        <ele>37.2</ele>
        <time>2016-10-09T13:36:30Z</time>
      </trkpt>
      <trkpt lat="43.36999" lon="6.70491">
        <ele>37.4</ele>
        <time>2016-10-09T13:36:32Z</time>
      </trkpt>
      <trkpt lat="43.37001" lon="6.70488">
        <ele>37.6</ele>
        <time>2016-10-09T13:36:34Z</time>
      </trkpt>
      <trkpt lat="43.37003" lon="6.70486">
        <ele>37.7</ele>
        <time>2016-10-09T13:36:36Z</time>
      </trkpt>
      <trkpt lat="43.37005" lon="6.70483">
        <ele>37.9</ele>
        <time>2016-10-09T13:36:38Z</time>
      </trkpt>
      <trkpt lat="43.37007" lon="6.70481">
        <ele>38.1</ele>
        <time>2016-10-09T13:36:40Z</time>
      </trkpt>
      <trkpt lat="43.37009" lon="6.70478">
        <ele>38.3</ele>
        <time>2016-10-09T13:36:42Z</time>
      </trkpt>
      <trkpt lat="43.3701" lon="6.70475">
        <ele>38.6</ele>
        <time>2016-10-09T13:36:44Z</time>
      </trkpt>
      <trkpt lat="43.37013" lon="6.70472">
        <ele>39.1</ele>
        <time>2016-10-09T13:36:46Z</time>
      </trkpt>
      <trkpt lat="43.37014" lon="6.7047">
        <ele>39.5</ele>
        <time>2016-10-09T13:36:48Z</time>
      </trkpt>
      <trkpt lat="43.37016" lon="6.70468">
        <ele>39.8</ele>
        <time>2016-10-09T13:36:50Z</time>
      </trkpt>
      <trkpt lat="43.37018" lon="6.70465">
        <ele>40</ele>
        <time>2016-10-09T13:36:52Z</time>
      </trkpt>
      <trkpt lat="43.3702" lon="6.70463">
        <ele>40.1</ele>
        <time>2016-10-09T13:36:54Z</time>
      </trkpt>
      <trkpt lat="43.37022" lon="6.7046">
        <ele>40.3</ele>
        <time>2016-10-09T13:36:56Z</time>
      </trkpt>
      <trkpt lat="43.37024" lon="6.70457">
        <ele>40.5</ele>
        <time>2016-10-09T13:36:58Z</time>
      </trkpt>
      <trkpt lat="43.37026" lon="6.70454">
        <ele>40.6</ele>
        <time>2016-10-09T13:37:00Z</time>
      </trkpt>
      <trkpt lat="43.37029" lon="6.70451">
        <ele>41</ele>
        <time>2016-10-09T13:37:02Z</time>
      </trkpt>
      <trkpt lat="43.3703" lon="6.70448">
        <ele>41.4</ele>
        <time>2016-10-09T13:37:04Z</time>
      </trkpt>
      <trkpt lat="43.37032" lon="6.70445">
        <ele>41.8</ele>
        <time>2016-10-09T13:37:06Z</time>
      </trkpt>
      <trkpt lat="43.37034" lon="6.70442">
        <ele>41.9</ele>
        <time>2016-10-09T13:37:08Z</time>
      </trkpt>
      <trkpt lat="43.37036" lon="6.7044">
        <ele>42</ele>
        <time>2016-10-09T13:37:10Z</time>
      </trkpt>
      <trkpt lat="43.37038" lon="6.70437">
        <ele>42.2</ele>
        <time>2016-10-09T13:37:12Z</time>
      </trkpt>
      <trkpt lat="43.3704" lon="6.70434">
        <ele>42.3</ele>
        <time>2016-10-09T13:37:14Z</time>
      </trkpt>
      <trkpt lat="43.37042" lon="6.70431">
        <ele>42.5</ele>
        <time>2016-10-09T13:37:16Z</time>
      </trkpt>
      <trkpt lat="43.37043" lon="6.70428">
        <ele>42.6</ele>
        <time>2016-10-09T13:37:18Z</time>
      </trkpt>
      <trkpt lat="43.37045" lon="6.70426">
        <ele>42.8</ele>
        <time>2016-10-09T13:37:20Z</time>
      </trkpt>
      <trkpt lat="43.37047" lon="6.70423">
        <ele>42.9</ele>
        <time>2016-10-09T13:37:22Z</time>
      </trkpt>
      <trkpt lat="43.3705" lon="6.70419">
        <ele>43.1</ele>
        <time>2016-10-09T13:37:24Z</time>
      </trkpt>
      <trkpt lat="43.37053" lon="6.70415">
        <ele>43.5</ele>
        <time>2016-10-09T13:37:26Z</time>
      </trkpt>
      <trkpt lat="43.37055" lon="6.70411">
        <ele>43.9</ele>
        <time>2016-10-09T13:37:28Z</time>
      </trkpt>
      <trkpt lat="43.37058" lon="6.70406">
        <ele>44.5</ele>
        <time>2016-10-09T13:37:30Z</time>
      </trkpt>
      <trkpt lat="43.3706" lon="6.70401">
        <ele>44.7</ele>
        <time>2016-10-09T13:37:32Z</time>
      </trkpt>
      <trkpt lat="43.37063" lon="6.70397">
        <ele>44.9</ele>
        <time>2016-10-09T13:37:34Z</time>
      </trkpt>
      <trkpt lat="43.37066" lon="6.70393">
        <ele>45.1</ele>
        <time>2016-10-09T13:37:36Z</time>
      </trkpt>
      <trkpt lat="43.37069" lon="6.70389">
        <ele>45.3</ele>
        <time>2016-10-09T13:37:38Z</time>
      </trkpt>
      <trkpt lat="43.37071" lon="6.70384">
        <ele>45.4</ele>
        <time>2016-10-09T13:37:40Z</time>
      </trkpt>
      <trkpt lat="43.37074" lon="6.70381">
        <ele>45.7</ele>
        <time>2016-10-09T13:37:42Z</time>
      </trkpt>
      <trkpt lat="43.37077" lon="6.70377">
        <ele>46.1</ele>
        <time>2016-10-09T13:37:44Z</time>
      </trkpt>
      <trkpt lat="43.37079" lon="6.70373">
        <ele>46.4</ele>
        <time>2016-10-09T13:37:46Z</time>
      </trkpt>
      <trkpt lat="43.37083" lon="6.70368">
        <ele>46.5</ele>
        <time>2016-10-09T13:37:48Z</time>
      </trkpt>
      <trkpt lat="43.37086" lon="6.70363">
        <ele>46.6</ele>
        <time>2016-10-09T13:37:50Z</time>
      </trkpt>
      <trkpt lat="43.3709" lon="6.70357">
        <ele>46.8</ele>
        <time>2016-10-09T13:37:52Z</time>
      </trkpt>
      <trkpt lat="43.37093" lon="6.70351">
        <ele>46.9</ele>
        <time>2016-10-09T13:37:54Z</time>
      </trkpt>
      <trkpt lat="43.37096" lon="6.70343">
        <ele>47</ele>
        <time>2016-10-09T13:37:56Z</time>
      </trkpt>
      <trkpt lat="43.37098" lon="6.70335">
        <ele>47.1</ele>
        <time>2016-10-09T13:37:58Z</time>
      </trkpt>
      <trkpt lat="43.37101" lon="6.70327">
        <ele>47.2</ele>
        <time>2016-10-09T13:38:00Z</time>
      </trkpt>
      <trkpt lat="43.37104" lon="6.70318">
        <ele>47.3</ele>
        <time>2016-10-09T13:38:02Z</time>
      </trkpt>
      <trkpt lat="43.37107" lon="6.70309">
        <ele>47.4</ele>
        <time>2016-10-09T13:38:04Z</time>
      </trkpt>
      <trkpt lat="43.37111" lon="6.70299">
        <ele>47.5</ele>
        <time>2016-10-09T13:38:06Z</time>
      </trkpt>
      <trkpt lat="43.37113" lon="6.7029">
        <ele>47.5</ele>
        <time>2016-10-09T13:38:08Z</time>
      </trkpt>
      <trkpt lat="43.37116" lon="6.70281">
        <ele>47.6</ele>
        <time>2016-10-09T13:38:10Z</time>
      </trkpt>
      <trkpt lat="43.37117" lon="6.70273">
        <ele>47.8</ele>
        <time>2016-10-09T13:38:12Z</time>
      </trkpt>
      <trkpt lat="43.37119" lon="6.70266">
        <ele>47.9</ele>
        <time>2016-10-09T13:38:14Z</time>
      </trkpt>
      <trkpt lat="43.37121" lon="6.70259">
        <ele>48.1</ele>
        <time>2016-10-09T13:38:16Z</time>
      </trkpt>
      <trkpt lat="43.37122" lon="6.70252">
        <ele>48.3</ele>
        <time>2016-10-09T13:38:18Z</time>
      </trkpt>
      <trkpt lat="43.37124" lon="6.70246">
        <ele>48.5</ele>
        <time>2016-10-09T13:38:20Z</time>
      </trkpt>
      <trkpt lat="43.37126" lon="6.70241">
        <ele>48.9</ele>
        <time>2016-10-09T13:38:22Z</time>
      </trkpt>
      <trkpt lat="43.37128" lon="6.70235">
        <ele>49.6</ele>
        <time>2016-10-09T13:38:24Z</time>
      </trkpt>
      <trkpt lat="43.3713" lon="6.70229">
        <ele>50</ele>
        <time>2016-10-09T13:38:26Z</time>
      </trkpt>
      <trkpt lat="43.37133" lon="6.70224">
        <ele>50.4</ele>
        <time>2016-10-09T13:38:28Z</time>
      </trkpt>
      <trkpt lat="43.37136" lon="6.70218">
        <ele>50.9</ele>
        <time>2016-10-09T13:38:30Z</time>
      </trkpt>
      <trkpt lat="43.37138" lon="6.70213">
        <ele>51.5</ele>
        <time>2016-10-09T13:38:32Z</time>
      </trkpt>
      <trkpt lat="43.37141" lon="6.70208">
        <ele>51.9</ele>
        <time>2016-10-09T13:38:34Z</time>
      </trkpt>
      <trkpt lat="43.37144" lon="6.70204">
        <ele>52.1</ele>
        <time>2016-10-09T13:38:36Z</time>
      </trkpt>
      <trkpt lat="43.37148" lon="6.702">
        <ele>52.2</ele>
        <time>2016-10-09T13:38:38Z</time>
      </trkpt>
      <trkpt lat="43.37151" lon="6.70197">
        <ele>52.4</ele>
        <time>2016-10-09T13:38:40Z</time>
      </trkpt>
      <trkpt lat="43.37155" lon="6.70195">
        <ele>52.6</ele>
        <time>2016-10-09T13:38:42Z</time>
      </trkpt>
      <trkpt lat="43.37159" lon="6.70193">
        <ele>52.9</ele>
        <time>2016-10-09T13:38:44Z</time>
      </trkpt>
      <trkpt lat="43.37163" lon="6.70191">
        <ele>53.5</ele>
        <time>2016-10-09T13:38:46Z</time>
      </trkpt>
      <trkpt lat="43.37167" lon="6.70189">
        <ele>54</ele>
        <time>2016-10-09T13:38:48Z</time>
      </trkpt>
      <trkpt lat="43.37171" lon="6.70188">
        <ele>54.5</ele>
        <time>2016-10-09T13:38:50Z</time>
      </trkpt>
      <trkpt lat="43.37175" lon="6.70186">
        <ele>54.8</ele>
        <time>2016-10-09T13:38:52Z</time>
      </trkpt>
      <trkpt lat="43.3718" lon="6.70184">
        <ele>55.1</ele>
        <time>2016-10-09T13:38:54Z</time>
      </trkpt>
      <trkpt lat="43.37183" lon="6.70183">
        <ele>55.3</ele>
        <time>2016-10-09T13:38:56Z</time>
      </trkpt>
      <trkpt lat="43.37187" lon="6.70182">
        <ele>55.6</ele>
        <time>2016-10-09T13:38:58Z</time>
      </trkpt>
      <trkpt lat="43.37191" lon="6.7018">
        <ele>56</ele>
        <time>2016-10-09T13:39:00Z</time>
      </trkpt>
      <trkpt lat="43.37194" lon="6.70179">
        <ele>56.4</ele>
        <time>2016-10-09T13:39:02Z</time>
      </trkpt>
      <trkpt lat="43.37197" lon="6.70178">
        <ele>56.8</ele>
        <time>2016-10-09T13:39:04Z</time>
      </trkpt>
      <trkpt lat="43.372" lon="6.70177">
        <ele>57.1</ele>
        <time>2016-10-09T13:39:06Z</time>
      </trkpt>
      <trkpt lat="43.37203" lon="6.70176">
        <ele>57.3</ele>
        <time>2016-10-09T13:39:08Z</time>
      </trkpt>
      <trkpt lat="43.37206" lon="6.70174">
        <ele>57.5</ele>
        <time>2016-10-09T13:39:10Z</time>
      </trkpt>
      <trkpt lat="43.37209" lon="6.70173">
        <ele>57.7</ele>
        <time>2016-10-09T13:39:12Z</time>
      </trkpt>
      <trkpt lat="43.37212" lon="6.70172">
        <ele>57.9</ele>
        <time>2016-10-09T13:39:14Z</time>
      </trkpt>
      <trkpt lat="43.37214" lon="6.70171">
        <ele>58.2</ele>
        <time>2016-10-09T13:39:16Z</time>
      </trkpt>
      <trkpt lat="43.37217" lon="6.7017">
        <ele>58.7</ele>
        <time>2016-10-09T13:39:18Z</time>
      </trkpt>
      <trkpt lat="43.3722" lon="6.70169">
        <ele>59.3</ele>
        <time>2016-10-09T13:39:20Z</time>
      </trkpt>
      <trkpt lat="43.37223" lon="6.70169">
        <ele>59.6</ele>
        <time>2016-10-09T13:39:22Z</time>
      </trkpt>
      <trkpt lat="43.37226" lon="6.70168">
        <ele>59.9</ele>
        <time>2016-10-09T13:39:24Z</time>
      </trkpt>
      <trkpt lat="43.37228" lon="6.70167">
        <ele>60.1</ele>
        <time>2016-10-09T13:39:26Z</time>
      </trkpt>
      <trkpt lat="43.37231" lon="6.70167">
        <ele>60.7</ele>
        <time>2016-10-09T13:39:28Z</time>
      </trkpt>
      <trkpt lat="43.37234" lon="6.70166">
        <ele>61.3</ele>
        <time>2016-10-09T13:39:30Z</time>
      </trkpt>
      <trkpt lat="43.37236" lon="6.70166">
        <ele>61.8</ele>
        <time>2016-10-09T13:39:32Z</time>
      </trkpt>
      <trkpt lat="43.37239" lon="6.70165">
        <ele>62</ele>
        <time>2016-10-09T13:39:34Z</time>
      </trkpt>
      <trkpt lat="43.37242" lon="6.70165">
        <ele>62.3</ele>
        <time>2016-10-09T13:39:36Z</time>
      </trkpt>
      <trkpt lat="43.37245" lon="6.70164">
        <ele>62.7</ele>
        <time>2016-10-09T13:39:38Z</time>
      </trkpt>
      <trkpt lat="43.37248" lon="6.70164">
        <ele>63.3</ele>
        <time>2016-10-09T13:39:40Z</time>
      </trkpt>
      <trkpt lat="43.3725" lon="6.70164">
        <ele>63.8</ele>
        <time>2016-10-09T13:39:42Z</time>
      </trkpt>
      <trkpt lat="43.37253" lon="6.70163">
        <ele>64.2</ele>
        <time>2016-10-09T13:39:44Z</time>
      </trkpt>
      <trkpt lat="43.37256" lon="6.70163">
        <ele>64.6</ele>
        <time>2016-10-09T13:39:46Z</time>
      </trkpt>
      <trkpt lat="43.37258" lon="6.70163">
        <ele>64.9</ele>
        <time>2016-10-09T13:39:48Z</time>
      </trkpt>
      <trkpt lat="43.3726" lon="6.70162">
        <ele>65.2</ele>
        <time>2016-10-09T13:39:50Z</time>
      </trkpt>
      <trkpt lat="43.37263" lon="6.70162">
        <ele>65.7</ele>
        <time>2016-10-09T13:39:52Z</time>
      </trkpt>
      <trkpt lat="43.37266" lon="6.70162">
        <ele>66.2</ele>
        <time>2016-10-09T13:39:54Z</time>
      </trkpt>
      <trkpt lat="43.37269" lon="6.70161">
        <ele>66.5</ele>
        <time>2016-10-09T13:39:56Z</time>
      </trkpt>
      <trkpt lat="43.37272" lon="6.70161">
        <ele>66.8</ele>
        <time>2016-10-09T13:39:58Z</time>
      </trkpt>
      <trkpt lat="43.37274" lon="6.7016">
        <ele>66.9</ele>
        <time>2016-10-09T13:40:00Z</time>
      </trkpt>
      <trkpt lat="43.37277" lon="6.70159">
        <ele>67.1</ele>
        <time>2016-10-09T13:40:02Z</time>
      </trkpt>
      <trkpt lat="43.3728" lon="6.70158">
        <ele>67.4</ele>
        <time>2016-10-09T13:40:04Z</time>
      </trkpt>
      <trkpt lat="43.37283" lon="6.70156">
        <ele>67.8</ele>
        <time>2016-10-09T13:40:06Z</time>
      </trkpt>
      <trkpt lat="43.37286" lon="6.70154">
        <ele>68.3</ele>
        <time>2016-10-09T13:40:08Z</time>
      </trkpt>
      <trkpt lat="43.37289" lon="6.70153">
        <ele>68.6</ele>
        <time>2016-10-09T13:40:10Z</time>
      </trkpt>
      <trkpt lat="43.37292" lon="6.70151">
        <ele>68.8</ele>
        <time>2016-10-09T13:40:12Z</time>
      </trkpt>
      <trkpt lat="43.37294" lon="6.70149">
        <ele>68.9</ele>
        <time>2016-10-09T13:40:14Z</time>
      </trkpt>
      <trkpt lat="43.37297" lon="6.70147">
        <ele>69.1</ele>
        <time>2016-10-09T13:40:16Z</time>
      </trkpt>
      <trkpt lat="43.37299" lon="6.70145">
        <ele>69.3</ele>
        <time>2016-10-09T13:40:18Z</time>
      </trkpt>
      <trkpt lat="43.37301" lon="6.70143">
        <ele>69.5</ele>
        <time>2016-10-09T13:40:20Z</time>
      </trkpt>
      <trkpt lat="43.37303" lon="6.7014">
        <ele>69.8</ele>
        <time>2016-10-09T13:40:22Z</time>
      </trkpt>
      <trkpt lat="43.37305" lon="6.70138">
        <ele>70.2</ele>
        <time>2016-10-09T13:40:24Z</time>
      </trkpt>
      <trkpt lat="43.37306" lon="6.70135">
        <ele>70.7</ele>
        <time>2016-10-09T13:40:26Z</time>
      </trkpt>
      <trkpt lat="43.37307" lon="6.70132">
        <ele>71.1</ele>
        <time>2016-10-09T13:40:28Z</time>
      </trkpt>
      <trkpt lat="43.37308" lon="6.70129">
        <ele>71.4</ele>
        <time>2016-10-09T13:40:30Z</time>
      </trkpt>
      <trkpt lat="43.3731" lon="6.70127">
        <ele>71.7</ele>
        <time>2016-10-09T13:40:32Z</time>
      </trkpt>
      <trkpt lat="43.3731" lon="6.70124">
        <ele>72</ele>
        <time>2016-10-09T13:40:34Z</time>
      </trkpt>
      <trkpt lat="43.37312" lon="6.70121">
        <ele>72.5</ele>
        <time>2016-10-09T13:40:36Z</time>
      </trkpt>
      <trkpt lat="43.37313" lon="6.70119">
        <ele>73</ele>
        <time>2016-10-09T13:40:38Z</time>
      </trkpt>
      <trkpt lat="43.37314" lon="6.70116">
        <ele>73.5</ele>
        <time>2016-10-09T13:40:40Z</time>
      </trkpt>
      <trkpt lat="43.37315" lon="6.70114">
        <ele>73.8</ele>
        <time>2016-10-09T13:40:42Z</time>
      </trkpt>
      <trkpt lat="43.37317" lon="6.70111">
        <ele>74.1</ele>
        <time>2016-10-09T13:40:44Z</time>
      </trkpt>
      <trkpt lat="43.37318" lon="6.70109">
        <ele>74.5</ele>
        <time>2016-10-09T13:40:46Z</time>
      </trkpt>
      <trkpt lat="43.37319" lon="6.70106">
        <ele>75</ele>
        <time>2016-10-09T13:40:48Z</time>
      </trkpt>
      <trkpt lat="43.37321" lon="6.70104">
        <ele>75.7</ele>
        <time>2016-10-09T13:40:50Z</time>
      </trkpt>
      <trkpt lat="43.37322" lon="6.70101">
        <ele>76.1</ele>
        <time>2016-10-09T13:40:52Z</time>
      </trkpt>
      <trkpt lat="43.37323" lon="6.70099">
        <ele>76.5</ele>
        <time>2016-10-09T13:40:54Z</time>
      </trkpt>
      <trkpt lat="43.37324" lon="6.70096">
        <ele>77</ele>
        <time>2016-10-09T13:40:56Z</time>
      </trkpt>
      <trkpt lat="43.37326" lon="6.70093">
        <ele>77.7</ele>
        <time>2016-10-09T13:40:58Z</time>
      </trkpt>
      <trkpt lat="43.37327" lon="6.70091">
        <ele>78.3</ele>
        <time>2016-10-09T13:41:00Z</time>
      </trkpt>
      <trkpt lat="43.37328" lon="6.70088">
        <ele>78.7</ele>
        <time>2016-10-09T13:41:02Z</time>
      </trkpt>
      <trkpt lat="43.37331" lon="6.70087">
        <ele>79.1</ele>
        <time>2016-10-09T13:41:04Z</time>
      </trkpt>
      <trkpt lat="43.37332" lon="6.70085">
        <ele>79.6</ele>
        <time>2016-10-09T13:41:06Z</time>
      </trkpt>
      <trkpt lat="43.37334" lon="6.70083">
        <ele>80.4</ele>
        <time>2016-10-09T13:41:08Z</time>
      </trkpt>
      <trkpt lat="43.37336" lon="6.70081">
        <ele>80.8</ele>
        <time>2016-10-09T13:41:10Z</time>
      </trkpt>
      <trkpt lat="43.37338" lon="6.70079">
        <ele>81.2</ele>
        <time>2016-10-09T13:41:12Z</time>
      </trkpt>
      <trkpt lat="43.37338" lon="6.70076">
        <ele>81.8</ele>
        <time>2016-10-09T13:41:14Z</time>
      </trkpt>
      <trkpt lat="43.37339" lon="6.70073">
        <ele>82.4</ele>
        <time>2016-10-09T13:41:16Z</time>
      </trkpt>
      <trkpt lat="43.37339" lon="6.7007">
        <ele>82.9</ele>
        <time>2016-10-09T13:41:18Z</time>
      </trkpt>
      <trkpt lat="43.3734" lon="6.70067">
        <ele>83.3</ele>
        <time>2016-10-09T13:41:20Z</time>
      </trkpt>
      <trkpt lat="43.37342" lon="6.70065">
        <ele>83.7</ele>
        <time>2016-10-09T13:41:22Z</time>
      </trkpt>
      <trkpt lat="43.37343" lon="6.70062">
        <ele>84.1</ele>
        <time>2016-10-09T13:41:24Z</time>
      </trkpt>
      <trkpt lat="43.37344" lon="6.70059">
        <ele>84.8</ele>
        <time>2016-10-09T13:41:26Z</time>
      </trkpt>
      <trkpt lat="43.37346" lon="6.70056">
        <ele>85.3</ele>
        <time>2016-10-09T13:41:28Z</time>
      </trkpt>
      <trkpt lat="43.37347" lon="6.70054">
        <ele>85.7</ele>
        <time>2016-10-09T13:41:30Z</time>
      </trkpt>
      <trkpt lat="43.37349" lon="6.70051">
        <ele>86.2</ele>
        <time>2016-10-09T13:41:32Z</time>
      </trkpt>
      <trkpt lat="43.37351" lon="6.70049">
        <ele>86.9</ele>
        <time>2016-10-09T13:41:34Z</time>
      </trkpt>
      <trkpt lat="43.37352" lon="6.70046">
        <ele>87.3</ele>
        <time>2016-10-09T13:41:36Z</time>
      </trkpt>
      <trkpt lat="43.37354" lon="6.70044">
        <ele>87.7</ele>
        <time>2016-10-09T13:41:38Z</time>
      </trkpt>
      <trkpt lat="43.37355" lon="6.70041">
        <ele>88.1</ele>
        <time>2016-10-09T13:41:40Z</time>
      </trkpt>
      <trkpt lat="43.37357" lon="6.70038">
        <ele>88.5</ele>
        <time>2016-10-09T13:41:42Z</time>
      </trkpt>
      <trkpt lat="43.37358" lon="6.70035">
        <ele>88.9</ele>
        <time>2016-10-09T13:41:44Z</time>
      </trkpt>
      <trkpt lat="43.37359" lon="6.70032">
        <ele>89.5</ele>
        <time>2016-10-09T13:41:46Z</time>
      </trkpt>
      <trkpt lat="43.3736" lon="6.70029">
        <ele>90</ele>
        <time>2016-10-09T13:41:48Z</time>
      </trkpt>
      <trkpt lat="43.37361" lon="6.70027">
        <ele>90.3</ele>
        <time>2016-10-09T13:41:50Z</time>
      </trkpt>
      <trkpt lat="43.37362" lon="6.70024">
        <ele>90.6</ele>
        <time>2016-10-09T13:41:52Z</time>
      </trkpt>
      <trkpt lat="43.37364" lon="6.70021">
        <ele>91</ele>
        <time>2016-10-09T13:41:54Z</time>
      </trkpt>
      <trkpt lat="43.37365" lon="6.70019">
        <ele>91.6</ele>
        <time>2016-10-09T13:41:56Z</time>
      </trkpt>
      <trkpt lat="43.37367" lon="6.70016">
        <ele>92.2</ele>
        <time>2016-10-09T13:41:58Z</time>
      </trkpt>
      <trkpt lat="43.37368" lon="6.70014">
        <ele>92.8</ele>
        <time>2016-10-09T13:42:00Z</time>
      </trkpt>
      <trkpt lat="43.3737" lon="6.70011">
        <ele>93.4</ele>
        <time>2016-10-09T13:42:02Z</time>
      </trkpt>
      <trkpt lat="43.37371" lon="6.7001">
        <ele>93.9</ele>
        <time>2016-10-09T13:42:04Z</time>
      </trkpt>
      <trkpt lat="43.37373" lon="6.7001">
        <ele>94.4</ele>
        <time>2016-10-09T13:42:06Z</time>
      </trkpt>
      <trkpt lat="43.37376" lon="6.70012">
        <ele>95.2</ele>
        <time>2016-10-09T13:42:08Z</time>
      </trkpt>
      <trkpt lat="43.37378" lon="6.70014">
        <ele>95.7</ele>
        <time>2016-10-09T13:42:10Z</time>
      </trkpt>
      <trkpt lat="43.37379" lon="6.70013">
        <ele>96.1</ele>
        <time>2016-10-09T13:42:26Z</time>
      </trkpt>
      <trkpt lat="43.3738" lon="6.70013">
        <ele>96.3</ele>
        <time>2016-10-09T13:42:28Z</time>
      </trkpt>
      <trkpt lat="43.37381" lon="6.70014">
        <ele>96.7</ele>
        <time>2016-10-09T13:42:30Z</time>
      </trkpt>
      <trkpt lat="43.37382" lon="6.70015">
        <ele>97</ele>
        <time>2016-10-09T13:42:32Z</time>
      </trkpt>
      <trkpt lat="43.37383" lon="6.70017">
        <ele>97.3</ele>
        <time>2016-10-09T13:42:34Z</time>
      </trkpt>
      <trkpt lat="43.37384" lon="6.70018">
        <ele>97.5</ele>
        <time>2016-10-09T13:42:36Z</time>
      </trkpt>
      <trkpt lat="43.37385" lon="6.7002">
        <ele>97.7</ele>
        <time>2016-10-09T13:42:38Z</time>
      </trkpt>
      <trkpt lat="43.37386" lon="6.70021">
        <ele>97.9</ele>
        <time>2016-10-09T13:42:40Z</time>
      </trkpt>
      <trkpt lat="43.37387" lon="6.70023">
        <ele>98</ele>
        <time>2016-10-09T13:42:42Z</time>
      </trkpt>
      <trkpt lat="43.37388" lon="6.70024">
        <ele>98.2</ele>
        <time>2016-10-09T13:42:44Z</time>
      </trkpt>
      <trkpt lat="43.37389" lon="6.70025">
        <ele>98.5</ele>
        <time>2016-10-09T13:42:46Z</time>
      </trkpt>
      <trkpt lat="43.3739" lon="6.70027">
        <ele>99</ele>
        <time>2016-10-09T13:42:48Z</time>
      </trkpt>
      <trkpt lat="43.37391" lon="6.70028">
        <ele>99.4</ele>
        <time>2016-10-09T13:42:50Z</time>
      </trkpt>
      <trkpt lat="43.37391" lon="6.7003">
        <ele>99.8</ele>
        <time>2016-10-09T13:42:52Z</time>
      </trkpt>
      <trkpt lat="43.37392" lon="6.70032">
        <ele>100</ele>
        <time>2016-10-09T13:42:54Z</time>
      </trkpt>
      <trkpt lat="43.37393" lon="6.70033">
        <ele>100.3</ele>
        <time>2016-10-09T13:42:56Z</time>
      </trkpt>
      <trkpt lat="43.37394" lon="6.70034">
        <ele>100.7</ele>
        <time>2016-10-09T13:42:58Z</time>
      </trkpt>
      <trkpt lat="43.37396" lon="6.70036">
        <ele>101.2</ele>
        <time>2016-10-09T13:43:00Z</time>
      </trkpt>
      <trkpt lat="43.37397" lon="6.70037">
        <ele>101.7</ele>
        <time>2016-10-09T13:43:02Z</time>
      </trkpt>
      <trkpt lat="43.37398" lon="6.70038">
        <ele>102.1</ele>
        <time>2016-10-09T13:43:04Z</time>
      </trkpt>
      <trkpt lat="43.374" lon="6.7004">
        <ele>102.8</ele>
        <time>2016-10-09T13:43:06Z</time>
      </trkpt>
      <trkpt lat="43.37401" lon="6.7004">
        <ele>104</ele>
        <time>2016-10-09T13:43:08Z</time>
      </trkpt>
      <trkpt lat="43.37403" lon="6.70041">
        <ele>104.9</ele>
        <time>2016-10-09T13:43:10Z</time>
      </trkpt>
      <trkpt lat="43.37405" lon="6.70041">
        <ele>105.1</ele>
        <time>2016-10-09T13:43:12Z</time>
      </trkpt>
      <trkpt lat="43.37407" lon="6.70041">
        <ele>105.2</ele>
        <time>2016-10-09T13:43:14Z</time>
      </trkpt>
      <trkpt lat="43.37409" lon="6.70041">
        <ele>105.4</ele>
        <time>2016-10-09T13:43:16Z</time>
      </trkpt>
      <trkpt lat="43.3741" lon="6.70041">
        <ele>105.5</ele>
        <time>2016-10-09T13:43:18Z</time>
      </trkpt>
      <trkpt lat="43.37412" lon="6.7004">
        <ele>106.1</ele>
        <time>2016-10-09T13:43:20Z</time>
      </trkpt>
      <trkpt lat="43.37413" lon="6.7004">
        <ele>106.5</ele>
        <time>2016-10-09T13:43:22Z</time>
      </trkpt>
      <trkpt lat="43.37415" lon="6.70038">
        <ele>106.9</ele>
        <time>2016-10-09T13:43:24Z</time>
      </trkpt>
      <trkpt lat="43.37416" lon="6.70036">
        <ele>107.1</ele>
        <time>2016-10-09T13:43:26Z</time>
      </trkpt>
      <trkpt lat="43.37417" lon="6.70034">
        <ele>107.3</ele>
        <time>2016-10-09T13:43:28Z</time>
      </trkpt>
      <trkpt lat="43.37418" lon="6.70033">
        <ele>107.4</ele>
        <time>2016-10-09T13:43:30Z</time>
      </trkpt>
      <trkpt lat="43.37421" lon="6.70031">
        <ele>107.6</ele>
        <time>2016-10-09T13:47:50Z</time>
      </trkpt>
      <trkpt lat="43.37423" lon="6.7003">
        <ele>107.8</ele>
        <time>2016-10-09T13:47:52Z</time>
      </trkpt>
      <trkpt lat="43.37425" lon="6.70027">
        <ele>108.1</ele>
        <time>2016-10-09T13:47:54Z</time>
      </trkpt>
      <trkpt lat="43.37428" lon="6.70024">
        <ele>108.3</ele>
        <time>2016-10-09T13:47:56Z</time>
      </trkpt>
      <trkpt lat="43.37431" lon="6.7002">
        <ele>108.7</ele>
        <time>2016-10-09T13:47:58Z</time>
      </trkpt>
      <trkpt lat="43.37434" lon="6.70017">
        <ele>109.3</ele>
        <time>2016-10-09T13:48:00Z</time>
      </trkpt>
      <trkpt lat="43.37437" lon="6.70013">
        <ele>109.6</ele>
        <time>2016-10-09T13:48:02Z</time>
      </trkpt>
      <trkpt lat="43.37441" lon="6.70009">
        <ele>109.9</ele>
        <time>2016-10-09T13:48:04Z</time>
      </trkpt>
      <trkpt lat="43.37445" lon="6.70004">
        <ele>110</ele>
        <time>2016-10-09T13:48:06Z</time>
      </trkpt>
      <trkpt lat="43.37448" lon="6.69999">
        <ele>110.1</ele>
        <time>2016-10-09T13:48:08Z</time>
      </trkpt>
      <trkpt lat="43.37452" lon="6.69995">
        <ele>110.2</ele>
        <time>2016-10-09T13:48:10Z</time>
      </trkpt>
      <trkpt lat="43.37455" lon="6.6999">
        <ele>110.3</ele>
        <time>2016-10-09T13:48:12Z</time>
      </trkpt>
      <trkpt lat="43.37459" lon="6.69985">
        <ele>110.4</ele>
        <time>2016-10-09T13:48:14Z</time>
      </trkpt>
      <trkpt lat="43.37463" lon="6.6998">
        <ele>110.5</ele>
        <time>2016-10-09T13:48:16Z</time>
      </trkpt>
      <trkpt lat="43.37466" lon="6.69975">
        <ele>110.6</ele>
        <time>2016-10-09T13:48:18Z</time>
      </trkpt>
      <trkpt lat="43.3747" lon="6.69971">
        <ele>110.7</ele>
        <time>2016-10-09T13:48:20Z</time>
      </trkpt>
      <trkpt lat="43.37473" lon="6.69967">
        <ele>110.8</ele>
        <time>2016-10-09T13:48:22Z</time>
      </trkpt>
      <trkpt lat="43.37476" lon="6.69964">
        <ele>111.1</ele>
        <time>2016-10-09T13:48:24Z</time>
      </trkpt>
      <trkpt lat="43.37479" lon="6.6996">
        <ele>111.6</ele>
        <time>2016-10-09T13:48:26Z</time>
      </trkpt>
      <trkpt lat="43.37483" lon="6.69957">
        <ele>112.1</ele>
        <time>2016-10-09T13:48:28Z</time>
      </trkpt>
      <trkpt lat="43.37485" lon="6.69953">
        <ele>112.5</ele>
        <time>2016-10-09T13:48:30Z</time>
      </trkpt>
      <trkpt lat="43.37489" lon="6.6995">
        <ele>112.7</ele>
        <time>2016-10-09T13:48:32Z</time>
      </trkpt>
      <trkpt lat="43.37493" lon="6.69947">
        <ele>112.9</ele>
        <time>2016-10-09T13:48:34Z</time>
      </trkpt>
      <trkpt lat="43.37497" lon="6.69946">
        <ele>113.1</ele>
        <time>2016-10-09T13:48:36Z</time>
      </trkpt>
      <trkpt lat="43.37501" lon="6.69945">
        <ele>113.4</ele>
        <time>2016-10-09T13:48:38Z</time>
      </trkpt>
      <trkpt lat="43.37505" lon="6.69945">
        <ele>113.9</ele>
        <time>2016-10-09T13:48:40Z</time>
      </trkpt>
      <trkpt lat="43.37509" lon="6.69948">
        <ele>113.8</ele>
        <time>2016-10-09T13:48:42Z</time>
      </trkpt>
      <trkpt lat="43.37513" lon="6.69951">
        <ele>113.8</ele>
        <time>2016-10-09T13:48:44Z</time>
      </trkpt>
      <trkpt lat="43.37516" lon="6.69956">
        <ele>113.8</ele>
        <time>2016-10-09T13:48:46Z</time>
      </trkpt>
      <trkpt lat="43.37519" lon="6.69961">
        <ele>113.7</ele>
        <time>2016-10-09T13:48:48Z</time>
      </trkpt>
      <trkpt lat="43.37521" lon="6.69967">
        <ele>113.7</ele>
        <time>2016-10-09T13:48:50Z</time>
      </trkpt>
      <trkpt lat="43.37523" lon="6.69973">
        <ele>113.6</ele>
        <time>2016-10-09T13:48:52Z</time>
      </trkpt>
      <trkpt lat="43.37525" lon="6.69979">
        <ele>113.6</ele>
        <time>2016-10-09T13:48:54Z</time>
      </trkpt>
      <trkpt lat="43.37527" lon="6.69984">
        <ele>113.6</ele>
        <time>2016-10-09T13:48:56Z</time>
      </trkpt>
      <trkpt lat="43.37529" lon="6.69988">
        <ele>113.6</ele>
        <time>2016-10-09T13:48:58Z</time>
      </trkpt>
      <trkpt lat="43.37532" lon="6.69992">
        <ele>113.5</ele>
        <time>2016-10-09T13:49:00Z</time>
      </trkpt>
      <trkpt lat="43.37534" lon="6.69995">
        <ele>113.5</ele>
        <time>2016-10-09T13:49:02Z</time>
      </trkpt>
      <trkpt lat="43.37537" lon="6.69997">
        <ele>113.5</ele>
        <time>2016-10-09T13:49:04Z</time>
      </trkpt>
      <trkpt lat="43.37539" lon="6.69999">
        <ele>113.5</ele>
        <time>2016-10-09T13:49:06Z</time>
      </trkpt>
      <trkpt lat="43.37541" lon="6.7">
        <ele>113.5</ele>
        <time>2016-10-09T13:49:08Z</time>
      </trkpt>
      <trkpt lat="43.37544" lon="6.70001">
        <ele>113.5</ele>
        <time>2016-10-09T13:49:10Z</time>
      </trkpt>
      <trkpt lat="43.37546" lon="6.70003">
        <ele>113.6</ele>
        <time>2016-10-09T13:49:12Z</time>
      </trkpt>
      <trkpt lat="43.37549" lon="6.70004">
        <ele>113.6</ele>
        <time>2016-10-09T13:49:14Z</time>
      </trkpt>
      <trkpt lat="43.37552" lon="6.70005">
        <ele>113.7</ele>
        <time>2016-10-09T13:49:16Z</time>
      </trkpt>
      <trkpt lat="43.37555" lon="6.70005">
        <ele>113.7</ele>
        <time>2016-10-09T13:49:18Z</time>
      </trkpt>
      <trkpt lat="43.37558" lon="6.70005">
        <ele>113.7</ele>
        <time>2016-10-09T13:49:20Z</time>
      </trkpt>
      <trkpt lat="43.37561" lon="6.70005">
        <ele>113.8</ele>
        <time>2016-10-09T13:49:22Z</time>
      </trkpt>
      <trkpt lat="43.37563" lon="6.70005">
        <ele>113.8</ele>
        <time>2016-10-09T13:49:24Z</time>
      </trkpt>
      <trkpt lat="43.37566" lon="6.70004">
        <ele>113.8</ele>
        <time>2016-10-09T13:49:26Z</time>
      </trkpt>
      <trkpt lat="43.37569" lon="6.70004">
        <ele>113.9</ele>
        <time>2016-10-09T13:49:28Z</time>
      </trkpt>
      <trkpt lat="43.37572" lon="6.70002">
        <ele>113.9</ele>
        <time>2016-10-09T13:49:30Z</time>
      </trkpt>
      <trkpt lat="43.37575" lon="6.70001">
        <ele>114</ele>
        <time>2016-10-09T13:49:32Z</time>
      </trkpt>
      <trkpt lat="43.37578" lon="6.70001">
        <ele>114.1</ele>
        <time>2016-10-09T13:49:34Z</time>
      </trkpt>
      <trkpt lat="43.37582" lon="6.7">
        <ele>114.4</ele>
        <time>2016-10-09T13:49:36Z</time>
      </trkpt>
      <trkpt lat="43.37585" lon="6.7">
        <ele>114.6</ele>
        <time>2016-10-09T13:49:38Z</time>
      </trkpt>
      <trkpt lat="43.37589" lon="6.7">
        <ele>114.7</ele>
        <time>2016-10-09T13:49:40Z</time>
      </trkpt>
      <trkpt lat="43.37594" lon="6.70001">
        <ele>114.8</ele>
        <time>2016-10-09T13:49:42Z</time>
      </trkpt>
      <trkpt lat="43.37599" lon="6.7">
        <ele>115</ele>
        <time>2016-10-09T13:49:44Z</time>
      </trkpt>
      <trkpt lat="43.37604" lon="6.69997">
        <ele>115.2</ele>
        <time>2016-10-09T13:49:46Z</time>
      </trkpt>
      <trkpt lat="43.37608" lon="6.69994">
        <ele>115.3</ele>
        <time>2016-10-09T13:49:48Z</time>
      </trkpt>
      <trkpt lat="43.37614" lon="6.69989">
        <ele>115.4</ele>
        <time>2016-10-09T13:49:50Z</time>
      </trkpt>
      <trkpt lat="43.37623" lon="6.69985">
        <ele>115.5</ele>
        <time>2016-10-09T13:49:52Z</time>
      </trkpt>
      <trkpt lat="43.37631" lon="6.69983">
        <ele>115.5</ele>
        <time>2016-10-09T13:49:54Z</time>
      </trkpt>
      <trkpt lat="43.3764" lon="6.69981">
        <ele>115.5</ele>
        <time>2016-10-09T13:49:56Z</time>
      </trkpt>
      <trkpt lat="43.37648" lon="6.69979">
        <ele>115.4</ele>
        <time>2016-10-09T13:49:58Z</time>
      </trkpt>
      <trkpt lat="43.37657" lon="6.69975">
        <ele>115.3</ele>
        <time>2016-10-09T13:50:00Z</time>
      </trkpt>
      <trkpt lat="43.37665" lon="6.6997">
        <ele>115</ele>
        <time>2016-10-09T13:50:02Z</time>
      </trkpt>
      <trkpt lat="43.37673" lon="6.69965">
        <ele>114.7</ele>
        <time>2016-10-09T13:50:04Z</time>
      </trkpt>
      <trkpt lat="43.3768" lon="6.69959">
        <ele>114.5</ele>
        <time>2016-10-09T13:50:06Z</time>
      </trkpt>
      <trkpt lat="43.37687" lon="6.69954">
        <ele>114.2</ele>
        <time>2016-10-09T13:50:08Z</time>
      </trkpt>
      <trkpt lat="43.37694" lon="6.69946">
        <ele>113.8</ele>
        <time>2016-10-09T13:50:10Z</time>
      </trkpt>
      <trkpt lat="43.37703" lon="6.69938">
        <ele>113.2</ele>
        <time>2016-10-09T13:50:12Z</time>
      </trkpt>
      <trkpt lat="43.37711" lon="6.69934">
        <ele>112.6</ele>
        <time>2016-10-09T13:50:14Z</time>
      </trkpt>
      <trkpt lat="43.37717" lon="6.6994">
        <ele>112.1</ele>
        <time>2016-10-09T13:50:16Z</time>
      </trkpt>
      <trkpt lat="43.3772" lon="6.69945">
        <ele>111.8</ele>
        <time>2016-10-09T13:50:18Z</time>
      </trkpt>
      <trkpt lat="43.37722" lon="6.69949">
        <ele>111.8</ele>
        <time>2016-10-09T13:50:20Z</time>
      </trkpt>
      <trkpt lat="43.37724" lon="6.69953">
        <ele>111.8</ele>
        <time>2016-10-09T13:50:22Z</time>
      </trkpt>
      <trkpt lat="43.37726" lon="6.69957">
        <ele>111.8</ele>
        <time>2016-10-09T13:50:24Z</time>
      </trkpt>
      <trkpt lat="43.37729" lon="6.69961">
        <ele>111.9</ele>
        <time>2016-10-09T13:50:26Z</time>
      </trkpt>
      <trkpt lat="43.37731" lon="6.69965">
        <ele>112</ele>
        <time>2016-10-09T13:50:28Z</time>
      </trkpt>
      <trkpt lat="43.37733" lon="6.69967">
        <ele>112</ele>
        <time>2016-10-09T13:50:30Z</time>
      </trkpt>
      <trkpt lat="43.37734" lon="6.69969">
        <ele>112.1</ele>
        <time>2016-10-09T13:50:32Z</time>
      </trkpt>
      <trkpt lat="43.37736" lon="6.6997">
        <ele>112.1</ele>
        <time>2016-10-09T13:50:34Z</time>
      </trkpt>
      <trkpt lat="43.37737" lon="6.69972">
        <ele>112.2</ele>
        <time>2016-10-09T13:50:36Z</time>
      </trkpt>
      <trkpt lat="43.37738" lon="6.69974">
        <ele>112.2</ele>
        <time>2016-10-09T13:50:38Z</time>
      </trkpt>
      <trkpt lat="43.3774" lon="6.69976">
        <ele>112.3</ele>
        <time>2016-10-09T13:50:40Z</time>
      </trkpt>
      <trkpt lat="43.37741" lon="6.69978">
        <ele>112.4</ele>
        <time>2016-10-09T13:50:42Z</time>
      </trkpt>
      <trkpt lat="43.37742" lon="6.69979">
        <ele>112.4</ele>
        <time>2016-10-09T13:50:44Z</time>
      </trkpt>
      <trkpt lat="43.37743" lon="6.69981">
        <ele>112.5</ele>
        <time>2016-10-09T13:50:46Z</time>
      </trkpt>
      <trkpt lat="43.37745" lon="6.69983">
        <ele>112.6</ele>
        <time>2016-10-09T13:50:48Z</time>
      </trkpt>
      <trkpt lat="43.37746" lon="6.69985">
        <ele>112.7</ele>
        <time>2016-10-09T13:50:50Z</time>
      </trkpt>
      <trkpt lat="43.37749" lon="6.69987">
        <ele>112.9</ele>
        <time>2016-10-09T13:50:52Z</time>
      </trkpt>
      <trkpt lat="43.3775" lon="6.69991">
        <ele>113</ele>
        <time>2016-10-09T13:51:08Z</time>
      </trkpt>
      <trkpt lat="43.37751" lon="6.69992">
        <ele>113.3</ele>
        <time>2016-10-09T13:51:10Z</time>
      </trkpt>
      <trkpt lat="43.37753" lon="6.69994">
        <ele>113.7</ele>
        <time>2016-10-09T13:51:12Z</time>
      </trkpt>
      <trkpt lat="43.37754" lon="6.69995">
        <ele>114.2</ele>
        <time>2016-10-09T13:51:14Z</time>
      </trkpt>
      <trkpt lat="43.37756" lon="6.69996">
        <ele>114.8</ele>
        <time>2016-10-09T13:51:18Z</time>
      </trkpt>
      <trkpt lat="43.37758" lon="6.69997">
        <ele>115.1</ele>
        <time>2016-10-09T13:51:20Z</time>
      </trkpt>
      <trkpt lat="43.37761" lon="6.69998">
        <ele>115.5</ele>
        <time>2016-10-09T13:51:22Z</time>
      </trkpt>
      <trkpt lat="43.37763" lon="6.69999">
        <ele>115.8</ele>
        <time>2016-10-09T13:51:24Z</time>
      </trkpt>
      <trkpt lat="43.37764" lon="6.7">
        <ele>116</ele>
        <time>2016-10-09T13:51:26Z</time>
      </trkpt>
      <trkpt lat="43.37766" lon="6.70001">
        <ele>116.1</ele>
        <time>2016-10-09T13:51:28Z</time>
      </trkpt>
      <trkpt lat="43.37768" lon="6.70002">
        <ele>116.3</ele>
        <time>2016-10-09T13:51:30Z</time>
      </trkpt>
      <trkpt lat="43.37771" lon="6.70005">
        <ele>116.6</ele>
        <time>2016-10-09T13:51:32Z</time>
      </trkpt>
      <trkpt lat="43.37773" lon="6.70008">
        <ele>117.1</ele>
        <time>2016-10-09T13:51:34Z</time>
      </trkpt>
      <trkpt lat="43.37776" lon="6.7001">
        <ele>117.8</ele>
        <time>2016-10-09T13:51:36Z</time>
      </trkpt>
      <trkpt lat="43.37779" lon="6.70012">
        <ele>118.4</ele>
        <time>2016-10-09T13:51:38Z</time>
      </trkpt>
      <trkpt lat="43.37782" lon="6.70014">
        <ele>119</ele>
        <time>2016-10-09T13:51:40Z</time>
      </trkpt>
      <trkpt lat="43.37785" lon="6.70016">
        <ele>119.5</ele>
        <time>2016-10-09T13:51:42Z</time>
      </trkpt>
      <trkpt lat="43.37787" lon="6.70018">
        <ele>119.9</ele>
        <time>2016-10-09T13:51:44Z</time>
      </trkpt>
      <trkpt lat="43.3779" lon="6.7002">
        <ele>120.6</ele>
        <time>2016-10-09T13:51:46Z</time>
      </trkpt>
      <trkpt lat="43.37794" lon="6.70022">
        <ele>121.5</ele>
        <time>2016-10-09T13:51:48Z</time>
      </trkpt>
      <trkpt lat="43.37796" lon="6.70024">
        <ele>122.2</ele>
        <time>2016-10-09T13:51:50Z</time>
      </trkpt>
      <trkpt lat="43.37799" lon="6.70025">
        <ele>122.7</ele>
        <time>2016-10-09T13:51:52Z</time>
      </trkpt>
      <trkpt lat="43.37802" lon="6.70027">
        <ele>123.2</ele>
        <time>2016-10-09T13:51:54Z</time>
      </trkpt>
      <trkpt lat="43.37804" lon="6.70028">
        <ele>123.9</ele>
        <time>2016-10-09T13:51:56Z</time>
      </trkpt>
      <trkpt lat="43.37806" lon="6.70027">
        <ele>124.6</ele>
        <time>2016-10-09T13:51:58Z</time>
      </trkpt>
      <trkpt lat="43.37809" lon="6.70027">
        <ele>125.2</ele>
        <time>2016-10-09T13:52:00Z</time>
      </trkpt>
      <trkpt lat="43.37812" lon="6.70028">
        <ele>125.5</ele>
        <time>2016-10-09T13:52:02Z</time>
      </trkpt>
      <trkpt lat="43.37814" lon="6.70029">
        <ele>126</ele>
        <time>2016-10-09T13:52:04Z</time>
      </trkpt>
      <trkpt lat="43.37818" lon="6.7003">
        <ele>126.8</ele>
        <time>2016-10-09T13:52:06Z</time>
      </trkpt>
      <trkpt lat="43.37821" lon="6.70031">
        <ele>127.5</ele>
        <time>2016-10-09T13:52:08Z</time>
      </trkpt>
      <trkpt lat="43.37824" lon="6.70031">
        <ele>128.3</ele>
        <time>2016-10-09T13:52:10Z</time>
      </trkpt>
      <trkpt lat="43.37828" lon="6.70031">
        <ele>128.7</ele>
        <time>2016-10-09T13:52:12Z</time>
      </trkpt>
      <trkpt lat="43.37831" lon="6.70032">
        <ele>128.9</ele>
        <time>2016-10-09T13:52:14Z</time>
      </trkpt>
      <trkpt lat="43.37834" lon="6.70032">
        <ele>129.3</ele>
        <time>2016-10-09T13:52:16Z</time>
      </trkpt>
      <trkpt lat="43.37837" lon="6.70033">
        <ele>129.7</ele>
        <time>2016-10-09T13:52:18Z</time>
      </trkpt>
      <trkpt lat="43.3784" lon="6.70034">
        <ele>130.3</ele>
        <time>2016-10-09T13:52:20Z</time>
      </trkpt>
      <trkpt lat="43.37843" lon="6.70036">
        <ele>130.9</ele>
        <time>2016-10-09T13:52:22Z</time>
      </trkpt>
      <trkpt lat="43.37847" lon="6.70037">
        <ele>131.5</ele>
        <time>2016-10-09T13:52:24Z</time>
      </trkpt>
      <trkpt lat="43.3785" lon="6.7004">
        <ele>131.8</ele>
        <time>2016-10-09T13:52:26Z</time>
      </trkpt>
      <trkpt lat="43.37855" lon="6.70043">
        <ele>132.1</ele>
        <time>2016-10-09T13:52:28Z</time>
      </trkpt>
      <trkpt lat="43.37859" lon="6.70046">
        <ele>132.4</ele>
        <time>2016-10-09T13:52:30Z</time>
      </trkpt>
      <trkpt lat="43.37864" lon="6.70049">
        <ele>132.7</ele>
        <time>2016-10-09T13:52:32Z</time>
      </trkpt>
      <trkpt lat="43.37868" lon="6.70054">
        <ele>133</ele>
        <time>2016-10-09T13:52:34Z</time>
      </trkpt>
      <trkpt lat="43.37872" lon="6.70058">
        <ele>133.4</ele>
        <time>2016-10-09T13:52:36Z</time>
      </trkpt>
      <trkpt lat="43.37878" lon="6.70063">
        <ele>134.2</ele>
        <time>2016-10-09T13:52:38Z</time>
      </trkpt>
      <trkpt lat="43.37884" lon="6.70069">
        <ele>134.3</ele>
        <time>2016-10-09T13:52:40Z</time>
      </trkpt>
      <trkpt lat="43.3789" lon="6.70079">
        <ele>131.2</ele>
        <time>2016-10-09T13:52:42Z</time>
      </trkpt>
      <trkpt lat="43.37893" lon="6.70091">
        <ele>128</ele>
        <time>2016-10-09T13:52:44Z</time>
      </trkpt>
      <trkpt lat="43.37896" lon="6.70103">
        <ele>125.1</ele>
        <time>2016-10-09T13:52:46Z</time>
      </trkpt>
      <trkpt lat="43.37899" lon="6.70114">
        <ele>122</ele>
        <time>2016-10-09T13:52:48Z</time>
      </trkpt>
      <trkpt lat="43.37903" lon="6.70125">
        <ele>119.3</ele>
        <time>2016-10-09T13:52:50Z</time>
      </trkpt>
      <trkpt lat="43.37905" lon="6.70133">
        <ele>117</ele>
        <time>2016-10-09T13:52:52Z</time>
      </trkpt>
      <trkpt lat="43.37906" lon="6.7014">
        <ele>115.5</ele>
        <time>2016-10-09T13:52:54Z</time>
      </trkpt>
      <trkpt lat="43.37907" lon="6.70146">
        <ele>114.9</ele>
        <time>2016-10-09T13:52:56Z</time>
      </trkpt>
      <trkpt lat="43.37909" lon="6.7015">
        <ele>114.3</ele>
        <time>2016-10-09T13:52:58Z</time>
      </trkpt>
      <trkpt lat="43.37909" lon="6.70154">
        <ele>113.8</ele>
        <time>2016-10-09T13:53:00Z</time>
      </trkpt>
      <trkpt lat="43.37911" lon="6.70158">
        <ele>113.3</ele>
        <time>2016-10-09T13:53:02Z</time>
      </trkpt>
      <trkpt lat="43.37912" lon="6.70162">
        <ele>112.8</ele>
        <time>2016-10-09T13:53:04Z</time>
      </trkpt>
      <trkpt lat="43.37914" lon="6.70166">
        <ele>112.2</ele>
        <time>2016-10-09T13:53:06Z</time>
      </trkpt>
      <trkpt lat="43.37916" lon="6.70169">
        <ele>111.7</ele>
        <time>2016-10-09T13:53:08Z</time>
      </trkpt>
      <trkpt lat="43.37916" lon="6.70173">
        <ele>111.3</ele>
        <time>2016-10-09T13:58:04Z</time>
      </trkpt>
      <trkpt lat="43.37917" lon="6.70182">
        <ele>110.1</ele>
        <time>2016-10-09T13:58:08Z</time>
      </trkpt>
      <trkpt lat="43.37918" lon="6.70184">
        <ele>110.2</ele>
        <time>2016-10-09T13:58:10Z</time>
      </trkpt>
      <trkpt lat="43.37919" lon="6.70186">
        <ele>110.4</ele>
        <time>2016-10-09T13:58:12Z</time>
      </trkpt>
      <trkpt lat="43.3792" lon="6.70189">
        <ele>111</ele>
        <time>2016-10-09T13:58:14Z</time>
      </trkpt>
      <trkpt lat="43.37922" lon="6.70193">
        <ele>111.6</ele>
        <time>2016-10-09T13:58:16Z</time>
      </trkpt>
      <trkpt lat="43.37925" lon="6.70196">
        <ele>112.1</ele>
        <time>2016-10-09T13:58:18Z</time>
      </trkpt>
      <trkpt lat="43.37927" lon="6.702">
        <ele>112.7</ele>
        <time>2016-10-09T13:58:20Z</time>
      </trkpt>
      <trkpt lat="43.3793" lon="6.70203">
        <ele>113.4</ele>
        <time>2016-10-09T13:58:22Z</time>
      </trkpt>
      <trkpt lat="43.37934" lon="6.70206">
        <ele>114.2</ele>
        <time>2016-10-09T13:58:24Z</time>
      </trkpt>
      <trkpt lat="43.37937" lon="6.70208">
        <ele>115</ele>
        <time>2016-10-09T13:58:26Z</time>
      </trkpt>
      <trkpt lat="43.3794" lon="6.7021">
        <ele>115.7</ele>
        <time>2016-10-09T13:58:28Z</time>
      </trkpt>
      <trkpt lat="43.37942" lon="6.70212">
        <ele>116.2</ele>
        <time>2016-10-09T13:58:30Z</time>
      </trkpt>
      <trkpt lat="43.37944" lon="6.70214">
        <ele>116.9</ele>
        <time>2016-10-09T13:58:32Z</time>
      </trkpt>
      <trkpt lat="43.37947" lon="6.70216">
        <ele>117.7</ele>
        <time>2016-10-09T13:58:34Z</time>
      </trkpt>
      <trkpt lat="43.37949" lon="6.70218">
        <ele>118.4</ele>
        <time>2016-10-09T13:58:36Z</time>
      </trkpt>
      <trkpt lat="43.37951" lon="6.70222">
        <ele>119.1</ele>
        <time>2016-10-09T13:58:38Z</time>
      </trkpt>
      <trkpt lat="43.37951" lon="6.70226">
        <ele>119.7</ele>
        <time>2016-10-09T13:58:40Z</time>
      </trkpt>
      <trkpt lat="43.37952" lon="6.7023">
        <ele>120.3</ele>
        <time>2016-10-09T13:58:42Z</time>
      </trkpt>
      <trkpt lat="43.37953" lon="6.70233">
        <ele>120.9</ele>
        <time>2016-10-09T13:58:44Z</time>
      </trkpt>
      <trkpt lat="43.37953" lon="6.70235">
        <ele>121.4</ele>
        <time>2016-10-09T13:58:46Z</time>
      </trkpt>
      <trkpt lat="43.37953" lon="6.70237">
        <ele>121.9</ele>
        <time>2016-10-09T13:58:50Z</time>
      </trkpt>
      <trkpt lat="43.37952" lon="6.70239">
        <ele>122.5</ele>
        <time>2016-10-09T13:58:52Z</time>
      </trkpt>
      <trkpt lat="43.37952" lon="6.70242">
        <ele>122.9</ele>
        <time>2016-10-09T13:58:54Z</time>
      </trkpt>
      <trkpt lat="43.37952" lon="6.70244">
        <ele>123.4</ele>
        <time>2016-10-09T13:58:56Z</time>
      </trkpt>
      <trkpt lat="43.37952" lon="6.70246">
        <ele>123.8</ele>
        <time>2016-10-09T13:58:58Z</time>
      </trkpt>
      <trkpt lat="43.37952" lon="6.70249">
        <ele>124.1</ele>
        <time>2016-10-09T13:59:00Z</time>
      </trkpt>
      <trkpt lat="43.37953" lon="6.70251">
        <ele>124.6</ele>
        <time>2016-10-09T13:59:02Z</time>
      </trkpt>
      <trkpt lat="43.37953" lon="6.70253">
        <ele>125</ele>
        <time>2016-10-09T13:59:04Z</time>
      </trkpt>
      <trkpt lat="43.37953" lon="6.70256">
        <ele>125.5</ele>
        <time>2016-10-09T13:59:06Z</time>
      </trkpt>
      <trkpt lat="43.37954" lon="6.70258">
        <ele>126.1</ele>
        <time>2016-10-09T13:59:17Z</time>
      </trkpt>
      <trkpt lat="43.37955" lon="6.7026">
        <ele>126.6</ele>
        <time>2016-10-09T13:59:19Z</time>
      </trkpt>
      <trkpt lat="43.37955" lon="6.70262">
        <ele>127.1</ele>
        <time>2016-10-09T13:59:21Z</time>
      </trkpt>
      <trkpt lat="43.37954" lon="6.70265">
        <ele>127.7</ele>
        <time>2016-10-09T13:59:23Z</time>
      </trkpt>
      <trkpt lat="43.37954" lon="6.70268">
        <ele>128.1</ele>
        <time>2016-10-09T13:59:25Z</time>
      </trkpt>
      <trkpt lat="43.37954" lon="6.70271">
        <ele>128.6</ele>
        <time>2016-10-09T13:59:27Z</time>
      </trkpt>
      <trkpt lat="43.37955" lon="6.70274">
        <ele>129.1</ele>
        <time>2016-10-09T13:59:29Z</time>
      </trkpt>
      <trkpt lat="43.37956" lon="6.70277">
        <ele>129.5</ele>
        <time>2016-10-09T13:59:31Z</time>
      </trkpt>
      <trkpt lat="43.37957" lon="6.70279">
        <ele>129.7</ele>
        <time>2016-10-09T13:59:33Z</time>
      </trkpt>
      <trkpt lat="43.37958" lon="6.70282">
        <ele>130</ele>
        <time>2016-10-09T13:59:37Z</time>
      </trkpt>
      <trkpt lat="43.37959" lon="6.70285">
        <ele>130.4</ele>
        <time>2016-10-09T13:59:39Z</time>
      </trkpt>
      <trkpt lat="43.37961" lon="6.70288">
        <ele>130.8</ele>
        <time>2016-10-09T13:59:41Z</time>
      </trkpt>
      <trkpt lat="43.37962" lon="6.70292">
        <ele>131.2</ele>
        <time>2016-10-09T13:59:43Z</time>
      </trkpt>
      <trkpt lat="43.37963" lon="6.70295">
        <ele>131.6</ele>
        <time>2016-10-09T13:59:45Z</time>
      </trkpt>
      <trkpt lat="43.37964" lon="6.70298">
        <ele>132</ele>
        <time>2016-10-09T13:59:47Z</time>
      </trkpt>
      <trkpt lat="43.37966" lon="6.703">
        <ele>132.8</ele>
        <time>2016-10-09T13:59:49Z</time>
      </trkpt>
      <trkpt lat="43.37968" lon="6.70301">
        <ele>133.1</ele>
        <time>2016-10-09T13:59:51Z</time>
      </trkpt>
      <trkpt lat="43.3797" lon="6.70302">
        <ele>133.4</ele>
        <time>2016-10-09T13:59:53Z</time>
      </trkpt>
      <trkpt lat="43.37972" lon="6.70302">
        <ele>133.7</ele>
        <time>2016-10-09T13:59:55Z</time>
      </trkpt>
      <trkpt lat="43.37975" lon="6.70302">
        <ele>134.1</ele>
        <time>2016-10-09T13:59:57Z</time>
      </trkpt>
      <trkpt lat="43.37978" lon="6.70301">
        <ele>134.3</ele>
        <time>2016-10-09T13:59:59Z</time>
      </trkpt>
      <trkpt lat="43.3798" lon="6.703">
        <ele>134.4</ele>
        <time>2016-10-09T14:00:01Z</time>
      </trkpt>
      <trkpt lat="43.37984" lon="6.703">
        <ele>134.6</ele>
        <time>2016-10-09T14:00:03Z</time>
      </trkpt>
      <trkpt lat="43.37988" lon="6.70297">
        <ele>134.8</ele>
        <time>2016-10-09T14:00:05Z</time>
      </trkpt>
      <trkpt lat="43.37993" lon="6.70296">
        <ele>134.9</ele>
        <time>2016-10-09T14:00:07Z</time>
      </trkpt>
      <trkpt lat="43.37997" lon="6.70294">
        <ele>134.9</ele>
        <time>2016-10-09T14:00:09Z</time>
      </trkpt>
      <trkpt lat="43.38003" lon="6.70293">
        <ele>134.8</ele>
        <time>2016-10-09T14:00:11Z</time>
      </trkpt>
      <trkpt lat="43.38009" lon="6.70292">
        <ele>134.7</ele>
        <time>2016-10-09T14:00:13Z</time>
      </trkpt>
      <trkpt lat="43.38016" lon="6.70293">
        <ele>134.7</ele>
        <time>2016-10-09T14:00:15Z</time>
      </trkpt>
      <trkpt lat="43.38022" lon="6.70292">
        <ele>134.8</ele>
        <time>2016-10-09T14:00:17Z</time>
      </trkpt>
      <trkpt lat="43.38028" lon="6.70291">
        <ele>134.9</ele>
        <time>2016-10-09T14:00:19Z</time>
      </trkpt>
      <trkpt lat="43.38034" lon="6.70291">
        <ele>135.1</ele>
        <time>2016-10-09T14:00:21Z</time>
      </trkpt>
      <trkpt lat="43.38039" lon="6.70292">
        <ele>135.4</ele>
        <time>2016-10-09T14:00:23Z</time>
      </trkpt>
      <trkpt lat="43.38044" lon="6.70293">
        <ele>135.7</ele>
        <time>2016-10-09T14:00:25Z</time>
      </trkpt>
      <trkpt lat="43.38049" lon="6.70295">
        <ele>135.9</ele>
        <time>2016-10-09T14:00:27Z</time>
      </trkpt>
      <trkpt lat="43.38055" lon="6.70296">
        <ele>136.1</ele>
        <time>2016-10-09T14:00:29Z</time>
      </trkpt>
      <trkpt lat="43.38063" lon="6.70297">
        <ele>136.6</ele>
        <time>2016-10-09T14:00:31Z</time>
      </trkpt>
      <trkpt lat="43.38073" lon="6.70298">
        <ele>137.1</ele>
        <time>2016-10-09T14:00:33Z</time>
      </trkpt>
      <trkpt lat="43.38083" lon="6.70298">
        <ele>137.5</ele>
        <time>2016-10-09T14:00:35Z</time>
      </trkpt>
      <trkpt lat="43.38094" lon="6.703">
        <ele>137.6</ele>
        <time>2016-10-09T14:00:37Z</time>
      </trkpt>
      <trkpt lat="43.38105" lon="6.70304">
        <ele>137.3</ele>
        <time>2016-10-09T14:00:39Z</time>
      </trkpt>
      <trkpt lat="43.38117" lon="6.70311">
        <ele>136.7</ele>
        <time>2016-10-09T14:00:41Z</time>
      </trkpt>
      <trkpt lat="43.3813" lon="6.70317">
        <ele>136.5</ele>
        <time>2016-10-09T14:00:43Z</time>
      </trkpt>
      <trkpt lat="43.38143" lon="6.70324">
        <ele>135.8</ele>
        <time>2016-10-09T14:00:45Z</time>
      </trkpt>
      <trkpt lat="43.38156" lon="6.70332">
        <ele>134.9</ele>
        <time>2016-10-09T14:00:47Z</time>
      </trkpt>
      <trkpt lat="43.38168" lon="6.70341">
        <ele>133.7</ele>
        <time>2016-10-09T14:00:49Z</time>
      </trkpt>
      <trkpt lat="43.3818" lon="6.70353">
        <ele>133.3</ele>
        <time>2016-10-09T14:00:51Z</time>
      </trkpt>
      <trkpt lat="43.38192" lon="6.70363">
        <ele>132.5</ele>
        <time>2016-10-09T14:00:53Z</time>
      </trkpt>
      <trkpt lat="43.38203" lon="6.70365">
        <ele>132</ele>
        <time>2016-10-09T14:00:55Z</time>
      </trkpt>
      <trkpt lat="43.38213" lon="6.70372">
        <ele>131.2</ele>
        <time>2016-10-09T14:00:57Z</time>
      </trkpt>
      <trkpt lat="43.38223" lon="6.70385">
        <ele>131.1</ele>
        <time>2016-10-09T14:00:59Z</time>
      </trkpt>
      <trkpt lat="43.38235" lon="6.70396">
        <ele>129.7</ele>
        <time>2016-10-09T14:01:01Z</time>
      </trkpt>
      <trkpt lat="43.3825" lon="6.70402">
        <ele>127.8</ele>
        <time>2016-10-09T14:01:03Z</time>
      </trkpt>
      <trkpt lat="43.38268" lon="6.70406">
        <ele>126.2</ele>
        <time>2016-10-09T14:01:05Z</time>
      </trkpt>
      <trkpt lat="43.38281" lon="6.70415">
        <ele>125.5</ele>
        <time>2016-10-09T14:01:07Z</time>
      </trkpt>
      <trkpt lat="43.38289" lon="6.70429">
        <ele>125.5</ele>
        <time>2016-10-09T14:01:09Z</time>
      </trkpt>
      <trkpt lat="43.38296" lon="6.70442">
        <ele>126.4</ele>
        <time>2016-10-09T14:01:11Z</time>
      </trkpt>
      <trkpt lat="43.38305" lon="6.70453">
        <ele>127.4</ele>
        <time>2016-10-09T14:01:13Z</time>
      </trkpt>
      <trkpt lat="43.38315" lon="6.70462">
        <ele>128.4</ele>
        <time>2016-10-09T14:01:15Z</time>
      </trkpt>
      <trkpt lat="43.38326" lon="6.70468">
        <ele>128.1</ele>
        <time>2016-10-09T14:01:17Z</time>
      </trkpt>
      <trkpt lat="43.38338" lon="6.70476">
        <ele>127.1</ele>
        <time>2016-10-09T14:01:19Z</time>
      </trkpt>
      <trkpt lat="43.3835" lon="6.7049">
        <ele>126.5</ele>
        <time>2016-10-09T14:01:21Z</time>
      </trkpt>
      <trkpt lat="43.38356" lon="6.70506">
        <ele>126.6</ele>
        <time>2016-10-09T14:01:23Z</time>
      </trkpt>
      <trkpt lat="43.38365" lon="6.70513">
        <ele>126.2</ele>
        <time>2016-10-09T14:01:25Z</time>
      </trkpt>
      <trkpt lat="43.38378" lon="6.70513">
        <ele>124.9</ele>
        <time>2016-10-09T14:01:27Z</time>
      </trkpt>
      <trkpt lat="43.38389" lon="6.70513">
        <ele>122.9</ele>
        <time>2016-10-09T14:01:29Z</time>
      </trkpt>
      <trkpt lat="43.38398" lon="6.70519">
        <ele>121</ele>
        <time>2016-10-09T14:01:31Z</time>
      </trkpt>
      <trkpt lat="43.38406" lon="6.70527">
        <ele>118.6</ele>
        <time>2016-10-09T14:01:33Z</time>
      </trkpt>
      <trkpt lat="43.38413" lon="6.70534">
        <ele>117.3</ele>
        <time>2016-10-09T14:01:35Z</time>
      </trkpt>
      <trkpt lat="43.3842" lon="6.70544">
        <ele>116</ele>
        <time>2016-10-09T14:01:37Z</time>
      </trkpt>
      <trkpt lat="43.38428" lon="6.70556">
        <ele>114.4</ele>
        <time>2016-10-09T14:01:39Z</time>
      </trkpt>
      <trkpt lat="43.38435" lon="6.70569">
        <ele>113</ele>
        <time>2016-10-09T14:01:41Z</time>
      </trkpt>
      <trkpt lat="43.38444" lon="6.70577">
        <ele>111.9</ele>
        <time>2016-10-09T14:01:43Z</time>
      </trkpt>
      <trkpt lat="43.38456" lon="6.7058">
        <ele>110.3</ele>
        <time>2016-10-09T14:01:45Z</time>
      </trkpt>
      <trkpt lat="43.38469" lon="6.70581">
        <ele>108.1</ele>
        <time>2016-10-09T14:01:47Z</time>
      </trkpt>
      <trkpt lat="43.38481" lon="6.70582">
        <ele>106.5</ele>
        <time>2016-10-09T14:01:49Z</time>
      </trkpt>
      <trkpt lat="43.38489" lon="6.70588">
        <ele>105.9</ele>
        <time>2016-10-09T14:01:51Z</time>
      </trkpt>
      <trkpt lat="43.38495" lon="6.70599">
        <ele>105.2</ele>
        <time>2016-10-09T14:01:53Z</time>
      </trkpt>
      <trkpt lat="43.38503" lon="6.7061">
        <ele>104.4</ele>
        <time>2016-10-09T14:01:55Z</time>
      </trkpt>
      <trkpt lat="43.38512" lon="6.70622">
        <ele>103.7</ele>
        <time>2016-10-09T14:01:57Z</time>
      </trkpt>
      <trkpt lat="43.3852" lon="6.70637">
        <ele>102.8</ele>
        <time>2016-10-09T14:01:59Z</time>
      </trkpt>
      <trkpt lat="43.38528" lon="6.7065">
        <ele>102.4</ele>
        <time>2016-10-09T14:02:01Z</time>
      </trkpt>
      <trkpt lat="43.38538" lon="6.70666">
        <ele>101.8</ele>
        <time>2016-10-09T14:02:03Z</time>
      </trkpt>
      <trkpt lat="43.38548" lon="6.70681">
        <ele>102.3</ele>
        <time>2016-10-09T14:02:05Z</time>
      </trkpt>
      <trkpt lat="43.38553" lon="6.7069">
        <ele>104.2</ele>
        <time>2016-10-09T14:02:07Z</time>
      </trkpt>
      <trkpt lat="43.38556" lon="6.70694">
        <ele>105.7</ele>
        <time>2016-10-09T14:02:09Z</time>
      </trkpt>
      <trkpt lat="43.38558" lon="6.70697">
        <ele>106.4</ele>
        <time>2016-10-09T14:02:11Z</time>
      </trkpt>
      <trkpt lat="43.3856" lon="6.70699">
        <ele>107.3</ele>
        <time>2016-10-09T14:02:13Z</time>
      </trkpt>
      <trkpt lat="43.38561" lon="6.70702">
        <ele>108.2</ele>
        <time>2016-10-09T14:02:15Z</time>
      </trkpt>
      <trkpt lat="43.38562" lon="6.70706">
        <ele>108.8</ele>
        <time>2016-10-09T14:02:17Z</time>
      </trkpt>
      <trkpt lat="43.38564" lon="6.70709">
        <ele>109.4</ele>
        <time>2016-10-09T14:02:19Z</time>
      </trkpt>
      <trkpt lat="43.38566" lon="6.70712">
        <ele>110.3</ele>
        <time>2016-10-09T14:02:21Z</time>
      </trkpt>
      <trkpt lat="43.38568" lon="6.70714">
        <ele>110.9</ele>
        <time>2016-10-09T14:02:23Z</time>
      </trkpt>
      <trkpt lat="43.3857" lon="6.70717">
        <ele>111.4</ele>
        <time>2016-10-09T14:02:25Z</time>
      </trkpt>
      <trkpt lat="43.38573" lon="6.70719">
        <ele>112.1</ele>
        <time>2016-10-09T14:02:27Z</time>
      </trkpt>
      <trkpt lat="43.38575" lon="6.7072">
        <ele>112.8</ele>
        <time>2016-10-09T14:02:29Z</time>
      </trkpt>
      <trkpt lat="43.38578" lon="6.70721">
        <ele>113.2</ele>
        <time>2016-10-09T14:02:31Z</time>
      </trkpt>
      <trkpt lat="43.38581" lon="6.70723">
        <ele>113.5</ele>
        <time>2016-10-09T14:02:33Z</time>
      </trkpt>
      <trkpt lat="43.38583" lon="6.70725">
        <ele>113.7</ele>
        <time>2016-10-09T14:02:35Z</time>
      </trkpt>
      <trkpt lat="43.38586" lon="6.70726">
        <ele>113.9</ele>
        <time>2016-10-09T14:02:37Z</time>
      </trkpt>
      <trkpt lat="43.38588" lon="6.70727">
        <ele>114.3</ele>
        <time>2016-10-09T14:02:39Z</time>
      </trkpt>
      <trkpt lat="43.38591" lon="6.70728">
        <ele>114.6</ele>
        <time>2016-10-09T14:02:41Z</time>
      </trkpt>
      <trkpt lat="43.38594" lon="6.70728">
        <ele>115</ele>
        <time>2016-10-09T14:02:43Z</time>
      </trkpt>
      <trkpt lat="43.38596" lon="6.7073">
        <ele>115.3</ele>
        <time>2016-10-09T14:02:45Z</time>
      </trkpt>
      <trkpt lat="43.38599" lon="6.70731">
        <ele>115.4</ele>
        <time>2016-10-09T14:02:47Z</time>
      </trkpt>
      <trkpt lat="43.38602" lon="6.70731">
        <ele>115.5</ele>
        <time>2016-10-09T14:02:49Z</time>
      </trkpt>
      <trkpt lat="43.38606" lon="6.70732">
        <ele>115.4</ele>
        <time>2016-10-09T14:02:51Z</time>
      </trkpt>
      <trkpt lat="43.3861" lon="6.70733">
        <ele>115.4</ele>
        <time>2016-10-09T14:02:53Z</time>
      </trkpt>
      <trkpt lat="43.38615" lon="6.70733">
        <ele>115.4</ele>
        <time>2016-10-09T14:02:55Z</time>
      </trkpt>
      <trkpt lat="43.38621" lon="6.70735">
        <ele>115.3</ele>
        <time>2016-10-09T14:02:57Z</time>
      </trkpt>
      <trkpt lat="43.38628" lon="6.70737">
        <ele>115</ele>
        <time>2016-10-09T14:02:59Z</time>
      </trkpt>
      <trkpt lat="43.38635" lon="6.70738">
        <ele>114.2</ele>
        <time>2016-10-09T14:03:01Z</time>
      </trkpt>
      <trkpt lat="43.38641" lon="6.70739">
        <ele>113.1</ele>
        <time>2016-10-09T14:03:03Z</time>
      </trkpt>
      <trkpt lat="43.38646" lon="6.70738">
        <ele>112.1</ele>
        <time>2016-10-09T14:03:05Z</time>
      </trkpt>
      <trkpt lat="43.38652" lon="6.70738">
        <ele>111</ele>
        <time>2016-10-09T14:03:07Z</time>
      </trkpt>
      <trkpt lat="43.38657" lon="6.70737">
        <ele>110</ele>
        <time>2016-10-09T14:03:09Z</time>
      </trkpt>
      <trkpt lat="43.38662" lon="6.70734">
        <ele>108.9</ele>
        <time>2016-10-09T14:03:11Z</time>
      </trkpt>
      <trkpt lat="43.38668" lon="6.70731">
        <ele>107.8</ele>
        <time>2016-10-09T14:03:13Z</time>
      </trkpt>
      <trkpt lat="43.38676" lon="6.70731">
        <ele>106.4</ele>
        <time>2016-10-09T14:03:15Z</time>
      </trkpt>
      <trkpt lat="43.38682" lon="6.70727">
        <ele>105.8</ele>
        <time>2016-10-09T14:03:17Z</time>
      </trkpt>
      <trkpt lat="43.38688" lon="6.70724">
        <ele>107.4</ele>
        <time>2016-10-09T14:03:25Z</time>
      </trkpt>
      <trkpt lat="43.3869" lon="6.70722">
        <ele>108.3</ele>
        <time>2016-10-09T14:03:27Z</time>
      </trkpt>
      <trkpt lat="43.38693" lon="6.70721">
        <ele>109.5</ele>
        <time>2016-10-09T14:03:29Z</time>
      </trkpt>
      <trkpt lat="43.38695" lon="6.7072">
        <ele>110.2</ele>
        <time>2016-10-09T14:03:33Z</time>
      </trkpt>
      <trkpt lat="43.38697" lon="6.70719">
        <ele>111</ele>
        <time>2016-10-09T14:03:37Z</time>
      </trkpt>
      <trkpt lat="43.38699" lon="6.70718">
        <ele>111.7</ele>
        <time>2016-10-09T14:03:39Z</time>
      </trkpt>
      <trkpt lat="43.387" lon="6.70718">
        <ele>112</ele>
        <time>2016-10-09T14:03:41Z</time>
      </trkpt>
      <trkpt lat="43.38702" lon="6.70718">
        <ele>112.3</ele>
        <time>2016-10-09T14:03:43Z</time>
      </trkpt>
      <trkpt lat="43.38703" lon="6.70718">
        <ele>112.6</ele>
        <time>2016-10-09T14:03:45Z</time>
      </trkpt>
      <trkpt lat="43.38704" lon="6.70717">
        <ele>112.7</ele>
        <time>2016-10-09T14:03:47Z</time>
      </trkpt>
      <trkpt lat="43.38705" lon="6.70717">
        <ele>112.9</ele>
        <time>2016-10-09T14:03:49Z</time>
      </trkpt>
      <trkpt lat="43.38707" lon="6.70718">
        <ele>113.3</ele>
        <time>2016-10-09T14:03:51Z</time>
      </trkpt>
      <trkpt lat="43.38709" lon="6.70718">
        <ele>113.8</ele>
        <time>2016-10-09T14:03:53Z</time>
      </trkpt>
      <trkpt lat="43.38711" lon="6.7072">
        <ele>114.3</ele>
        <time>2016-10-09T14:03:55Z</time>
      </trkpt>
      <trkpt lat="43.38712" lon="6.70721">
        <ele>114.4</ele>
        <time>2016-10-09T14:03:57Z</time>
      </trkpt>
      <trkpt lat="43.38714" lon="6.70722">
        <ele>114.5</ele>
        <time>2016-10-09T14:03:59Z</time>
      </trkpt>
      <trkpt lat="43.38716" lon="6.70722">
        <ele>114.5</ele>
        <time>2016-10-09T14:04:01Z</time>
      </trkpt>
      <trkpt lat="43.38718" lon="6.70723">
        <ele>114.6</ele>
        <time>2016-10-09T14:04:03Z</time>
      </trkpt>
      <trkpt lat="43.38719" lon="6.70724">
        <ele>114.6</ele>
        <time>2016-10-09T14:04:05Z</time>
      </trkpt>
      <trkpt lat="43.38722" lon="6.70725">
        <ele>114.7</ele>
        <time>2016-10-09T14:04:07Z</time>
      </trkpt>
      <trkpt lat="43.38724" lon="6.70723">
        <ele>114.7</ele>
        <time>2016-10-09T14:04:09Z</time>
      </trkpt>
      <trkpt lat="43.38727" lon="6.70722">
        <ele>114.8</ele>
        <time>2016-10-09T14:04:11Z</time>
      </trkpt>
      <trkpt lat="43.38731" lon="6.70721">
        <ele>114.8</ele>
        <time>2016-10-09T14:04:13Z</time>
      </trkpt>
      <trkpt lat="43.38734" lon="6.70721">
        <ele>114.9</ele>
        <time>2016-10-09T14:04:15Z</time>
      </trkpt>
      <trkpt lat="43.38738" lon="6.70719">
        <ele>114.9</ele>
        <time>2016-10-09T14:04:17Z</time>
      </trkpt>
      <trkpt lat="43.38743" lon="6.70716">
        <ele>114.9</ele>
        <time>2016-10-09T14:04:19Z</time>
      </trkpt>
      <trkpt lat="43.3875" lon="6.70711">
        <ele>114.9</ele>
        <time>2016-10-09T14:04:21Z</time>
      </trkpt>
      <trkpt lat="43.38757" lon="6.70706">
        <ele>114.8</ele>
        <time>2016-10-09T14:04:23Z</time>
      </trkpt>
      <trkpt lat="43.38765" lon="6.707">
        <ele>114.6</ele>
        <time>2016-10-09T14:04:25Z</time>
      </trkpt>
      <trkpt lat="43.38774" lon="6.70693">
        <ele>114.2</ele>
        <time>2016-10-09T14:04:27Z</time>
      </trkpt>
      <trkpt lat="43.38784" lon="6.70691">
        <ele>113.6</ele>
        <time>2016-10-09T14:04:29Z</time>
      </trkpt>
      <trkpt lat="43.38791" lon="6.70685">
        <ele>113</ele>
        <time>2016-10-09T14:04:31Z</time>
      </trkpt>
      <trkpt lat="43.38799" lon="6.7068">
        <ele>112.3</ele>
        <time>2016-10-09T14:04:33Z</time>
      </trkpt>
      <trkpt lat="43.3881" lon="6.70675">
        <ele>111.4</ele>
        <time>2016-10-09T14:04:35Z</time>
      </trkpt>
      <trkpt lat="43.3882" lon="6.70671">
        <ele>110.1</ele>
        <time>2016-10-09T14:04:37Z</time>
      </trkpt>
      <trkpt lat="43.38829" lon="6.7067">
        <ele>108.6</ele>
        <time>2016-10-09T14:04:39Z</time>
      </trkpt>
      <trkpt lat="43.38836" lon="6.70665">
        <ele>107.4</ele>
        <time>2016-10-09T14:04:41Z</time>
      </trkpt>
      <trkpt lat="43.38844" lon="6.70661">
        <ele>106</ele>
        <time>2016-10-09T14:04:43Z</time>
      </trkpt>
      <trkpt lat="43.38854" lon="6.70655">
        <ele>104.5</ele>
        <time>2016-10-09T14:04:45Z</time>
      </trkpt>
      <trkpt lat="43.38865" lon="6.70648">
        <ele>102.6</ele>
        <time>2016-10-09T14:04:47Z</time>
      </trkpt>
      <trkpt lat="43.38871" lon="6.70636">
        <ele>102</ele>
        <time>2016-10-09T14:04:49Z</time>
      </trkpt>
      <trkpt lat="43.38875" lon="6.70628">
        <ele>102.4</ele>
        <time>2016-10-09T14:04:51Z</time>
      </trkpt>
      <trkpt lat="43.38878" lon="6.70625">
        <ele>103.2</ele>
        <time>2016-10-09T14:04:53Z</time>
      </trkpt>
      <trkpt lat="43.3888" lon="6.70622">
        <ele>104</ele>
        <time>2016-10-09T14:04:55Z</time>
      </trkpt>
      <trkpt lat="43.38882" lon="6.70618">
        <ele>104.9</ele>
        <time>2016-10-09T14:04:57Z</time>
      </trkpt>
      <trkpt lat="43.38883" lon="6.70615">
        <ele>105.8</ele>
        <time>2016-10-09T14:04:59Z</time>
      </trkpt>
      <trkpt lat="43.38884" lon="6.70611">
        <ele>106.7</ele>
        <time>2016-10-09T14:05:01Z</time>
      </trkpt>
      <trkpt lat="43.38886" lon="6.70609">
        <ele>107.5</ele>
        <time>2016-10-09T14:05:03Z</time>
      </trkpt>
      <trkpt lat="43.38889" lon="6.70608">
        <ele>108.2</ele>
        <time>2016-10-09T14:05:07Z</time>
      </trkpt>
      <trkpt lat="43.3889" lon="6.70607">
        <ele>108.4</ele>
        <time>2016-10-09T14:05:09Z</time>
      </trkpt>
      <trkpt lat="43.38891" lon="6.70606">
        <ele>108.7</ele>
        <time>2016-10-09T14:05:11Z</time>
      </trkpt>
      <trkpt lat="43.38893" lon="6.70606">
        <ele>109.2</ele>
        <time>2016-10-09T14:05:13Z</time>
      </trkpt>
      <trkpt lat="43.38895" lon="6.70605">
        <ele>109.6</ele>
        <time>2016-10-09T14:05:15Z</time>
      </trkpt>
      <trkpt lat="43.38896" lon="6.70605">
        <ele>109.9</ele>
        <time>2016-10-09T14:05:17Z</time>
      </trkpt>
      <trkpt lat="43.38897" lon="6.70605">
        <ele>110.1</ele>
        <time>2016-10-09T14:05:19Z</time>
      </trkpt>
      <trkpt lat="43.389" lon="6.70605">
        <ele>110.4</ele>
        <time>2016-10-09T14:05:21Z</time>
      </trkpt>
      <trkpt lat="43.38902" lon="6.70605">
        <ele>110.5</ele>
        <time>2016-10-09T14:05:23Z</time>
      </trkpt>
      <trkpt lat="43.38903" lon="6.70606">
        <ele>110.6</ele>
        <time>2016-10-09T14:05:25Z</time>
      </trkpt>
      <trkpt lat="43.38905" lon="6.70606">
        <ele>110.7</ele>
        <time>2016-10-09T14:05:27Z</time>
      </trkpt>
      <trkpt lat="43.38908" lon="6.70605">
        <ele>110.8</ele>
        <time>2016-10-09T14:05:29Z</time>
      </trkpt>
      <trkpt lat="43.3891" lon="6.70604">
        <ele>110.8</ele>
        <time>2016-10-09T14:05:31Z</time>
      </trkpt>
      <trkpt lat="43.38912" lon="6.70601">
        <ele>110.9</ele>
        <time>2016-10-09T14:05:33Z</time>
      </trkpt>
      <trkpt lat="43.38915" lon="6.70598">
        <ele>110.9</ele>
        <time>2016-10-09T14:05:35Z</time>
      </trkpt>
      <trkpt lat="43.38918" lon="6.70595">
        <ele>110.9</ele>
        <time>2016-10-09T14:05:37Z</time>
      </trkpt>
      <trkpt lat="43.38922" lon="6.70589">
        <ele>110.8</ele>
        <time>2016-10-09T14:05:39Z</time>
      </trkpt>
      <trkpt lat="43.38927" lon="6.70582">
        <ele>110.6</ele>
        <time>2016-10-09T14:05:41Z</time>
      </trkpt>
      <trkpt lat="43.38934" lon="6.70578">
        <ele>109.7</ele>
        <time>2016-10-09T14:05:43Z</time>
      </trkpt>
      <trkpt lat="43.38941" lon="6.70572">
        <ele>107.9</ele>
        <time>2016-10-09T14:05:45Z</time>
      </trkpt>
      <trkpt lat="43.38948" lon="6.70567">
        <ele>106.4</ele>
        <time>2016-10-09T14:05:47Z</time>
      </trkpt>
      <trkpt lat="43.38953" lon="6.70565">
        <ele>105.4</ele>
        <time>2016-10-09T14:05:49Z</time>
      </trkpt>
      <trkpt lat="43.38957" lon="6.70566">
        <ele>104.5</ele>
        <time>2016-10-09T14:05:51Z</time>
      </trkpt>
      <trkpt lat="43.38962" lon="6.70571">
        <ele>103.4</ele>
        <time>2016-10-09T14:05:53Z</time>
      </trkpt>
      <trkpt lat="43.38967" lon="6.70573">
        <ele>102.4</ele>
        <time>2016-10-09T14:05:55Z</time>
      </trkpt>
      <trkpt lat="43.38971" lon="6.70576">
        <ele>101.6</ele>
        <time>2016-10-09T14:05:57Z</time>
      </trkpt>
      <trkpt lat="43.38974" lon="6.70578">
        <ele>101</ele>
        <time>2016-10-09T14:05:59Z</time>
      </trkpt>
      <trkpt lat="43.38977" lon="6.70578">
        <ele>100.7</ele>
        <time>2016-10-09T14:06:01Z</time>
      </trkpt>
      <trkpt lat="43.38978" lon="6.70574">
        <ele>100.3</ele>
        <time>2016-10-09T14:06:03Z</time>
      </trkpt>
      <trkpt lat="43.38978" lon="6.70568">
        <ele>99.4</ele>
        <time>2016-10-09T14:06:05Z</time>
      </trkpt>
      <trkpt lat="43.3898" lon="6.7056">
        <ele>98.1</ele>
        <time>2016-10-09T14:06:07Z</time>
      </trkpt>
      <trkpt lat="43.38984" lon="6.70554">
        <ele>97.6</ele>
        <time>2016-10-09T14:06:09Z</time>
      </trkpt>
      <trkpt lat="43.3899" lon="6.70547">
        <ele>97.1</ele>
        <time>2016-10-09T14:06:11Z</time>
      </trkpt>
      <trkpt lat="43.38995" lon="6.7054">
        <ele>96.5</ele>
        <time>2016-10-09T14:06:13Z</time>
      </trkpt>
      <trkpt lat="43.38999" lon="6.70536">
        <ele>95.8</ele>
        <time>2016-10-09T14:06:15Z</time>
      </trkpt>
      <trkpt lat="43.39003" lon="6.70535">
        <ele>95.1</ele>
        <time>2016-10-09T14:06:17Z</time>
      </trkpt>
      <trkpt lat="43.39007" lon="6.70534">
        <ele>94.1</ele>
        <time>2016-10-09T14:06:19Z</time>
      </trkpt>
      <trkpt lat="43.3901" lon="6.70536">
        <ele>93.4</ele>
        <time>2016-10-09T14:06:21Z</time>
      </trkpt>
      <trkpt lat="43.39014" lon="6.70537">
        <ele>91.9</ele>
        <time>2016-10-09T14:06:23Z</time>
      </trkpt>
      <trkpt lat="43.39018" lon="6.70537">
        <ele>90.7</ele>
        <time>2016-10-09T14:06:25Z</time>
      </trkpt>
      <trkpt lat="43.39022" lon="6.70535">
        <ele>89.6</ele>
        <time>2016-10-09T14:06:27Z</time>
      </trkpt>
      <trkpt lat="43.39023" lon="6.7053">
        <ele>88.3</ele>
        <time>2016-10-09T14:06:29Z</time>
      </trkpt>
      <trkpt lat="43.39022" lon="6.70525">
        <ele>87.4</ele>
        <time>2016-10-09T14:06:31Z</time>
      </trkpt>
      <trkpt lat="43.39021" lon="6.70521">
        <ele>86.2</ele>
        <time>2016-10-09T14:06:33Z</time>
      </trkpt>
      <trkpt lat="43.39022" lon="6.70518">
        <ele>83.6</ele>
        <time>2016-10-09T14:06:35Z</time>
      </trkpt>
      <trkpt lat="43.39023" lon="6.70516">
        <ele>82.9</ele>
        <time>2016-10-09T14:06:37Z</time>
      </trkpt>
      <trkpt lat="43.39024" lon="6.70514">
        <ele>82.5</ele>
        <time>2016-10-09T14:06:39Z</time>
      </trkpt>
      <trkpt lat="43.39028" lon="6.70513">
        <ele>81.3</ele>
        <time>2016-10-09T14:06:41Z</time>
      </trkpt>
      <trkpt lat="43.39031" lon="6.70518">
        <ele>79.1</ele>
        <time>2016-10-09T14:06:43Z</time>
      </trkpt>
      <trkpt lat="43.39034" lon="6.70521">
        <ele>78</ele>
        <time>2016-10-09T14:06:45Z</time>
      </trkpt>
      <trkpt lat="43.39039" lon="6.70524">
        <ele>77.2</ele>
        <time>2016-10-09T14:06:47Z</time>
      </trkpt>
      <trkpt lat="43.39045" lon="6.70526">
        <ele>76.5</ele>
        <time>2016-10-09T14:06:49Z</time>
      </trkpt>
      <trkpt lat="43.39048" lon="6.70533">
        <ele>76.1</ele>
        <time>2016-10-09T14:06:51Z</time>
      </trkpt>
      <trkpt lat="43.39049" lon="6.70543">
        <ele>73.4</ele>
        <time>2016-10-09T14:06:53Z</time>
      </trkpt>
      <trkpt lat="43.39051" lon="6.70555">
        <ele>67.1</ele>
        <time>2016-10-09T14:06:55Z</time>
      </trkpt>
      <trkpt lat="43.39054" lon="6.70569">
        <ele>61.7</ele>
        <time>2016-10-09T14:06:57Z</time>
      </trkpt>
      <trkpt lat="43.39061" lon="6.7058">
        <ele>60.5</ele>
        <time>2016-10-09T14:06:59Z</time>
      </trkpt>
      <trkpt lat="43.39071" lon="6.70588">
        <ele>59.4</ele>
        <time>2016-10-09T14:07:01Z</time>
      </trkpt>
      <trkpt lat="43.39078" lon="6.70597">
        <ele>58.8</ele>
        <time>2016-10-09T14:07:03Z</time>
      </trkpt>
      <trkpt lat="43.39086" lon="6.70602">
        <ele>58.2</ele>
        <time>2016-10-09T14:07:05Z</time>
      </trkpt>
      <trkpt lat="43.39093" lon="6.70602">
        <ele>57.8</ele>
        <time>2016-10-09T14:07:07Z</time>
      </trkpt>
      <trkpt lat="43.39102" lon="6.70605">
        <ele>57.1</ele>
        <time>2016-10-09T14:07:09Z</time>
      </trkpt>
      <trkpt lat="43.39111" lon="6.70614">
        <ele>56.8</ele>
        <time>2016-10-09T14:07:11Z</time>
      </trkpt>
      <trkpt lat="43.39117" lon="6.70628">
        <ele>57</ele>
        <time>2016-10-09T14:07:13Z</time>
      </trkpt>
      <trkpt lat="43.39118" lon="6.70644">
        <ele>57.5</ele>
        <time>2016-10-09T14:07:15Z</time>
      </trkpt>
      <trkpt lat="43.39114" lon="6.70656">
        <ele>57.6</ele>
        <time>2016-10-09T14:07:17Z</time>
      </trkpt>
      <trkpt lat="43.39113" lon="6.7067">
        <ele>57.1</ele>
        <time>2016-10-09T14:07:19Z</time>
      </trkpt>
      <trkpt lat="43.39117" lon="6.7068">
        <ele>56.7</ele>
        <time>2016-10-09T14:07:21Z</time>
      </trkpt>
      <trkpt lat="43.39124" lon="6.70682">
        <ele>56.3</ele>
        <time>2016-10-09T14:07:23Z</time>
      </trkpt>
      <trkpt lat="43.39132" lon="6.70675">
        <ele>55.7</ele>
        <time>2016-10-09T14:07:25Z</time>
      </trkpt>
      <trkpt lat="43.39141" lon="6.70671">
        <ele>54.8</ele>
        <time>2016-10-09T14:07:27Z</time>
      </trkpt>
      <trkpt lat="43.39151" lon="6.70672">
        <ele>53.7</ele>
        <time>2016-10-09T14:07:29Z</time>
      </trkpt>
      <trkpt lat="43.39163" lon="6.70674">
        <ele>52.7</ele>
        <time>2016-10-09T14:07:31Z</time>
      </trkpt>
      <trkpt lat="43.39174" lon="6.70674">
        <ele>52.1</ele>
        <time>2016-10-09T14:07:33Z</time>
      </trkpt>
      <trkpt lat="43.39184" lon="6.70678">
        <ele>51.5</ele>
        <time>2016-10-09T14:07:35Z</time>
      </trkpt>
      <trkpt lat="43.39193" lon="6.70681">
        <ele>50.8</ele>
        <time>2016-10-09T14:07:37Z</time>
      </trkpt>
      <trkpt lat="43.39202" lon="6.70684">
        <ele>49.7</ele>
        <time>2016-10-09T14:07:39Z</time>
      </trkpt>
      <trkpt lat="43.3921" lon="6.70686">
        <ele>48.5</ele>
        <time>2016-10-09T14:07:41Z</time>
      </trkpt>
      <trkpt lat="43.39217" lon="6.70688">
        <ele>47.6</ele>
        <time>2016-10-09T14:07:43Z</time>
      </trkpt>
      <trkpt lat="43.39224" lon="6.70692">
        <ele>47</ele>
        <time>2016-10-09T14:07:45Z</time>
      </trkpt>
      <trkpt lat="43.3923" lon="6.70695">
        <ele>46.4</ele>
        <time>2016-10-09T14:07:47Z</time>
      </trkpt>
      <trkpt lat="43.39235" lon="6.70698">
        <ele>46</ele>
        <time>2016-10-09T14:07:49Z</time>
      </trkpt>
      <trkpt lat="43.3924" lon="6.70699">
        <ele>45.7</ele>
        <time>2016-10-09T14:07:51Z</time>
      </trkpt>
      <trkpt lat="43.39245" lon="6.70698">
        <ele>45.5</ele>
        <time>2016-10-09T14:07:53Z</time>
      </trkpt>
      <trkpt lat="43.39249" lon="6.70698">
        <ele>45.2</ele>
        <time>2016-10-09T14:07:55Z</time>
      </trkpt>
      <trkpt lat="43.39254" lon="6.70698">
        <ele>45</ele>
        <time>2016-10-09T14:07:57Z</time>
      </trkpt>
      <trkpt lat="43.39257" lon="6.70698">
        <ele>44.7</ele>
        <time>2016-10-09T14:07:59Z</time>
      </trkpt>
      <trkpt lat="43.39261" lon="6.707">
        <ele>44.3</ele>
        <time>2016-10-09T14:08:01Z</time>
      </trkpt>
      <trkpt lat="43.39263" lon="6.70698">
        <ele>44</ele>
        <time>2016-10-09T14:08:03Z</time>
      </trkpt>
      <trkpt lat="43.39263" lon="6.70693">
        <ele>44</ele>
        <time>2016-10-09T14:08:05Z</time>
      </trkpt>
      <trkpt lat="43.39261" lon="6.70685">
        <ele>44</ele>
        <time>2016-10-09T14:08:07Z</time>
      </trkpt>
      <trkpt lat="43.39257" lon="6.7068">
        <ele>44</ele>
        <time>2016-10-09T14:08:09Z</time>
      </trkpt>
      <trkpt lat="43.39254" lon="6.70673">
        <ele>44</ele>
        <time>2016-10-09T14:08:11Z</time>
      </trkpt>
      <trkpt lat="43.39257" lon="6.70665">
        <ele>43.9</ele>
        <time>2016-10-09T14:08:13Z</time>
      </trkpt>
      <trkpt lat="43.39262" lon="6.70662">
        <ele>43.2</ele>
        <time>2016-10-09T14:08:15Z</time>
      </trkpt>
      <trkpt lat="43.39269" lon="6.70662">
        <ele>42.7</ele>
        <time>2016-10-09T14:08:17Z</time>
      </trkpt>
      <trkpt lat="43.39274" lon="6.70662">
        <ele>42.5</ele>
        <time>2016-10-09T14:08:19Z</time>
      </trkpt>
      <trkpt lat="43.39278" lon="6.70663">
        <ele>43</ele>
        <time>2016-10-09T14:08:21Z</time>
      </trkpt>
      <trkpt lat="43.39281" lon="6.70662">
        <ele>43.5</ele>
        <time>2016-10-09T14:08:23Z</time>
      </trkpt>
      <trkpt lat="43.39283" lon="6.70661">
        <ele>43.7</ele>
        <time>2016-10-09T14:08:25Z</time>
      </trkpt>
      <trkpt lat="43.39286" lon="6.70661">
        <ele>44</ele>
        <time>2016-10-09T14:08:31Z</time>
      </trkpt>
      <trkpt lat="43.39288" lon="6.70662">
        <ele>44.1</ele>
        <time>2016-10-09T14:08:35Z</time>
      </trkpt>
      <trkpt lat="43.39289" lon="6.7066">
        <ele>44.3</ele>
        <time>2016-10-09T14:08:37Z</time>
      </trkpt>
      <trkpt lat="43.39291" lon="6.70659">
        <ele>44.6</ele>
        <time>2016-10-09T14:08:39Z</time>
      </trkpt>
      <trkpt lat="43.39293" lon="6.70659">
        <ele>44.8</ele>
        <time>2016-10-09T14:08:41Z</time>
      </trkpt>
      <trkpt lat="43.39295" lon="6.70659">
        <ele>45.2</ele>
        <time>2016-10-09T14:08:43Z</time>
      </trkpt>
      <trkpt lat="43.39297" lon="6.70658">
        <ele>45.6</ele>
        <time>2016-10-09T14:08:45Z</time>
      </trkpt>
      <trkpt lat="43.39299" lon="6.70657">
        <ele>45.9</ele>
        <time>2016-10-09T14:08:47Z</time>
      </trkpt>
      <trkpt lat="43.393" lon="6.70656">
        <ele>46</ele>
        <time>2016-10-09T14:08:49Z</time>
      </trkpt>
      <trkpt lat="43.39302" lon="6.70656">
        <ele>46.2</ele>
        <time>2016-10-09T14:08:51Z</time>
      </trkpt>
      <trkpt lat="43.39304" lon="6.70656">
        <ele>46.7</ele>
        <time>2016-10-09T14:08:53Z</time>
      </trkpt>
      <trkpt lat="43.39306" lon="6.70657">
        <ele>47.1</ele>
        <time>2016-10-09T14:08:55Z</time>
      </trkpt>
      <trkpt lat="43.39308" lon="6.70658">
        <ele>47.3</ele>
        <time>2016-10-09T14:08:57Z</time>
      </trkpt>
      <trkpt lat="43.3931" lon="6.70658">
        <ele>47.4</ele>
        <time>2016-10-09T14:08:59Z</time>
      </trkpt>
      <trkpt lat="43.39312" lon="6.70659">
        <ele>47.7</ele>
        <time>2016-10-09T14:09:01Z</time>
      </trkpt>
      <trkpt lat="43.39314" lon="6.70659">
        <ele>47.8</ele>
        <time>2016-10-09T14:09:03Z</time>
      </trkpt>
      <trkpt lat="43.39315" lon="6.70659">
        <ele>47.9</ele>
        <time>2016-10-09T14:09:05Z</time>
      </trkpt>
      <trkpt lat="43.39317" lon="6.70658">
        <ele>48</ele>
        <time>2016-10-09T14:09:07Z</time>
      </trkpt>
      <trkpt lat="43.39319" lon="6.70658">
        <ele>48.2</ele>
        <time>2016-10-09T14:09:09Z</time>
      </trkpt>
      <trkpt lat="43.39321" lon="6.70658">
        <ele>48.4</ele>
        <time>2016-10-09T14:09:11Z</time>
      </trkpt>
      <trkpt lat="43.39323" lon="6.70658">
        <ele>48.6</ele>
        <time>2016-10-09T14:09:13Z</time>
      </trkpt>
      <trkpt lat="43.39324" lon="6.70659">
        <ele>48.8</ele>
        <time>2016-10-09T14:09:15Z</time>
      </trkpt>
      <trkpt lat="43.39326" lon="6.70659">
        <ele>49</ele>
        <time>2016-10-09T14:09:17Z</time>
      </trkpt>
      <trkpt lat="43.39328" lon="6.7066">
        <ele>49.1</ele>
        <time>2016-10-09T14:09:19Z</time>
      </trkpt>
      <trkpt lat="43.3933" lon="6.7066">
        <ele>49.2</ele>
        <time>2016-10-09T14:09:21Z</time>
      </trkpt>
      <trkpt lat="43.39332" lon="6.70659">
        <ele>49.2</ele>
        <time>2016-10-09T14:09:23Z</time>
      </trkpt>
      <trkpt lat="43.39334" lon="6.70658">
        <ele>49.2</ele>
        <time>2016-10-09T14:09:25Z</time>
      </trkpt>
      <trkpt lat="43.39336" lon="6.70658">
        <ele>49.3</ele>
        <time>2016-10-09T14:09:27Z</time>
      </trkpt>
      <trkpt lat="43.39339" lon="6.70658">
        <ele>49.3</ele>
        <time>2016-10-09T14:09:31Z</time>
      </trkpt>
      <trkpt lat="43.39341" lon="6.70657">
        <ele>49.4</ele>
        <time>2016-10-09T14:09:33Z</time>
      </trkpt>
      <trkpt lat="43.39344" lon="6.70656">
        <ele>49.4</ele>
        <time>2016-10-09T14:09:35Z</time>
      </trkpt>
      <trkpt lat="43.39348" lon="6.70656">
        <ele>49.4</ele>
        <time>2016-10-09T14:09:37Z</time>
      </trkpt>
      <trkpt lat="43.39353" lon="6.70657">
        <ele>49.4</ele>
        <time>2016-10-09T14:09:39Z</time>
      </trkpt>
      <trkpt lat="43.39358" lon="6.70659">
        <ele>49.5</ele>
        <time>2016-10-09T14:09:41Z</time>
      </trkpt>
      <trkpt lat="43.39363" lon="6.70662">
        <ele>49.5</ele>
        <time>2016-10-09T14:09:43Z</time>
      </trkpt>
      <trkpt lat="43.39369" lon="6.70666">
        <ele>49.7</ele>
        <time>2016-10-09T14:09:45Z</time>
      </trkpt>
      <trkpt lat="43.39375" lon="6.70668">
        <ele>50</ele>
        <time>2016-10-09T14:09:47Z</time>
      </trkpt>
      <trkpt lat="43.39386" lon="6.70673">
        <ele>51.2</ele>
        <time>2016-10-09T14:09:52Z</time>
      </trkpt>
      <trkpt lat="43.39389" lon="6.70673">
        <ele>51.4</ele>
        <time>2016-10-09T14:09:54Z</time>
      </trkpt>
      <trkpt lat="43.39393" lon="6.70675">
        <ele>51.7</ele>
        <time>2016-10-09T14:09:56Z</time>
      </trkpt>
      <trkpt lat="43.39396" lon="6.70678">
        <ele>52</ele>
        <time>2016-10-09T14:09:58Z</time>
      </trkpt>
      <trkpt lat="43.39399" lon="6.7068">
        <ele>52.4</ele>
        <time>2016-10-09T14:10:00Z</time>
      </trkpt>
      <trkpt lat="43.39402" lon="6.70681">
        <ele>52.7</ele>
        <time>2016-10-09T14:10:02Z</time>
      </trkpt>
      <trkpt lat="43.39405" lon="6.70682">
        <ele>52.9</ele>
        <time>2016-10-09T14:10:04Z</time>
      </trkpt>
      <trkpt lat="43.39408" lon="6.70682">
        <ele>53</ele>
        <time>2016-10-09T14:10:06Z</time>
      </trkpt>
      <trkpt lat="43.39412" lon="6.70682">
        <ele>53</ele>
        <time>2016-10-09T14:10:08Z</time>
      </trkpt>
      <trkpt lat="43.39415" lon="6.70682">
        <ele>53.1</ele>
        <time>2016-10-09T14:10:10Z</time>
      </trkpt>
      <trkpt lat="43.39418" lon="6.70682">
        <ele>53.3</ele>
        <time>2016-10-09T14:10:12Z</time>
      </trkpt>
      <trkpt lat="43.39422" lon="6.70683">
        <ele>53.4</ele>
        <time>2016-10-09T14:10:14Z</time>
      </trkpt>
      <trkpt lat="43.39425" lon="6.70682">
        <ele>53.6</ele>
        <time>2016-10-09T14:10:16Z</time>
      </trkpt>
      <trkpt lat="43.39429" lon="6.70681">
        <ele>53.8</ele>
        <time>2016-10-09T14:10:18Z</time>
      </trkpt>
      <trkpt lat="43.39433" lon="6.70682">
        <ele>54.3</ele>
        <time>2016-10-09T14:10:20Z</time>
      </trkpt>
      <trkpt lat="43.39438" lon="6.70684">
        <ele>54.7</ele>
        <time>2016-10-09T14:10:22Z</time>
      </trkpt>
      <trkpt lat="43.39442" lon="6.70686">
        <ele>54.9</ele>
        <time>2016-10-09T14:10:24Z</time>
      </trkpt>
      <trkpt lat="43.39446" lon="6.70688">
        <ele>55.3</ele>
        <time>2016-10-09T14:10:26Z</time>
      </trkpt>
      <trkpt lat="43.39451" lon="6.70688">
        <ele>55.7</ele>
        <time>2016-10-09T14:10:28Z</time>
      </trkpt>
      <trkpt lat="43.39453" lon="6.70686">
        <ele>56</ele>
        <time>2016-10-09T14:10:30Z</time>
      </trkpt>
      <trkpt lat="43.39455" lon="6.70684">
        <ele>56.2</ele>
        <time>2016-10-09T14:10:32Z</time>
      </trkpt>
      <trkpt lat="43.39457" lon="6.70681">
        <ele>56.3</ele>
        <time>2016-10-09T14:10:34Z</time>
      </trkpt>
      <trkpt lat="43.39456" lon="6.70678">
        <ele>56.4</ele>
        <time>2016-10-09T14:10:36Z</time>
      </trkpt>
      <trkpt lat="43.39455" lon="6.70675">
        <ele>56.4</ele>
        <time>2016-10-09T14:10:38Z</time>
      </trkpt>
      <trkpt lat="43.39458" lon="6.70673">
        <ele>56.5</ele>
        <time>2016-10-09T14:10:40Z</time>
      </trkpt>
      <trkpt lat="43.39461" lon="6.70672">
        <ele>56.5</ele>
        <time>2016-10-09T14:10:42Z</time>
      </trkpt>
      <trkpt lat="43.39464" lon="6.70671">
        <ele>56.5</ele>
        <time>2016-10-09T14:10:44Z</time>
      </trkpt>
      <trkpt lat="43.39468" lon="6.7067">
        <ele>56.5</ele>
        <time>2016-10-09T14:10:46Z</time>
      </trkpt>
      <trkpt lat="43.39471" lon="6.70669">
        <ele>56.5</ele>
        <time>2016-10-09T14:10:48Z</time>
      </trkpt>
      <trkpt lat="43.39473" lon="6.70668">
        <ele>56.6</ele>
        <time>2016-10-09T14:10:50Z</time>
      </trkpt>
      <trkpt lat="43.39477" lon="6.70668">
        <ele>56.6</ele>
        <time>2016-10-09T14:10:52Z</time>
      </trkpt>
      <trkpt lat="43.39479" lon="6.70667">
        <ele>56.6</ele>
        <time>2016-10-09T14:10:54Z</time>
      </trkpt>
      <trkpt lat="43.39482" lon="6.70667">
        <ele>56.7</ele>
        <time>2016-10-09T14:10:56Z</time>
      </trkpt>
      <trkpt lat="43.39484" lon="6.70666">
        <ele>56.7</ele>
        <time>2016-10-09T14:10:58Z</time>
      </trkpt>
      <trkpt lat="43.39487" lon="6.70666">
        <ele>56.8</ele>
        <time>2016-10-09T14:11:00Z</time>
      </trkpt>
      <trkpt lat="43.3949" lon="6.70664">
        <ele>57.1</ele>
        <time>2016-10-09T14:11:02Z</time>
      </trkpt>
      <trkpt lat="43.39491" lon="6.70663">
        <ele>57.2</ele>
        <time>2016-10-09T14:11:04Z</time>
      </trkpt>
      <trkpt lat="43.39492" lon="6.70662">
        <ele>57.3</ele>
        <time>2016-10-09T14:11:08Z</time>
      </trkpt>
      <trkpt lat="43.39492" lon="6.70658">
        <ele>57.6</ele>
        <time>2016-10-09T14:11:10Z</time>
      </trkpt>
      <trkpt lat="43.39491" lon="6.70656">
        <ele>57.8</ele>
        <time>2016-10-09T14:11:12Z</time>
      </trkpt>
      <trkpt lat="43.3949" lon="6.70656">
        <ele>57.9</ele>
        <time>2016-10-09T14:11:14Z</time>
      </trkpt>
      <trkpt lat="43.39491" lon="6.70654">
        <ele>58</ele>
        <time>2016-10-09T14:11:20Z</time>
      </trkpt>
      <trkpt lat="43.39491" lon="6.70652">
        <ele>58.2</ele>
        <time>2016-10-09T14:11:22Z</time>
      </trkpt>
      <trkpt lat="43.39492" lon="6.70649">
        <ele>58.3</ele>
        <time>2016-10-09T14:11:24Z</time>
      </trkpt>
      <trkpt lat="43.39493" lon="6.70645">
        <ele>58.4</ele>
        <time>2016-10-09T14:11:26Z</time>
      </trkpt>
      <trkpt lat="43.39496" lon="6.70641">
        <ele>58.5</ele>
        <time>2016-10-09T14:11:28Z</time>
      </trkpt>
      <trkpt lat="43.39498" lon="6.70638">
        <ele>58.8</ele>
        <time>2016-10-09T14:11:30Z</time>
      </trkpt>
      <trkpt lat="43.39502" lon="6.70634">
        <ele>59.1</ele>
        <time>2016-10-09T14:11:32Z</time>
      </trkpt>
      <trkpt lat="43.39505" lon="6.70629">
        <ele>59.5</ele>
        <time>2016-10-09T14:11:34Z</time>
      </trkpt>
      <trkpt lat="43.39508" lon="6.70622">
        <ele>59.8</ele>
        <time>2016-10-09T14:11:36Z</time>
      </trkpt>
      <trkpt lat="43.3951" lon="6.70616">
        <ele>59.9</ele>
        <time>2016-10-09T14:11:38Z</time>
      </trkpt>
      <trkpt lat="43.39514" lon="6.70611">
        <ele>60</ele>
        <time>2016-10-09T14:11:40Z</time>
      </trkpt>
      <trkpt lat="43.39517" lon="6.7061">
        <ele>60</ele>
        <time>2016-10-09T14:11:42Z</time>
      </trkpt>
      <trkpt lat="43.39521" lon="6.70608">
        <ele>59.9</ele>
        <time>2016-10-09T14:11:44Z</time>
      </trkpt>
      <trkpt lat="43.39525" lon="6.70607">
        <ele>59.9</ele>
        <time>2016-10-09T14:11:46Z</time>
      </trkpt>
      <trkpt lat="43.39529" lon="6.70607">
        <ele>59.8</ele>
        <time>2016-10-09T14:11:48Z</time>
      </trkpt>
      <trkpt lat="43.39534" lon="6.70609">
        <ele>59.7</ele>
        <time>2016-10-09T14:11:50Z</time>
      </trkpt>
      <trkpt lat="43.39537" lon="6.70614">
        <ele>59.4</ele>
        <time>2016-10-09T14:11:52Z</time>
      </trkpt>
      <trkpt lat="43.39537" lon="6.7062">
        <ele>59.1</ele>
        <time>2016-10-09T14:11:54Z</time>
      </trkpt>
      <trkpt lat="43.39541" lon="6.70618">
        <ele>58.7</ele>
        <time>2016-10-09T14:12:10Z</time>
      </trkpt>
      <trkpt lat="43.39542" lon="6.70622">
        <ele>58.4</ele>
        <time>2016-10-09T14:12:12Z</time>
      </trkpt>
      <trkpt lat="43.39543" lon="6.70626">
        <ele>57.9</ele>
        <time>2016-10-09T14:12:14Z</time>
      </trkpt>
      <trkpt lat="43.39546" lon="6.70632">
        <ele>56.9</ele>
        <time>2016-10-09T14:12:16Z</time>
      </trkpt>
      <trkpt lat="43.3955" lon="6.70633">
        <ele>56.1</ele>
        <time>2016-10-09T14:12:18Z</time>
      </trkpt>
      <trkpt lat="43.39555" lon="6.7063">
        <ele>55</ele>
        <time>2016-10-09T14:12:20Z</time>
      </trkpt>
      <trkpt lat="43.39562" lon="6.70626">
        <ele>54</ele>
        <time>2016-10-09T14:12:22Z</time>
      </trkpt>
      <trkpt lat="43.39565" lon="6.70619">
        <ele>53.2</ele>
        <time>2016-10-09T14:12:24Z</time>
      </trkpt>
      <trkpt lat="43.39568" lon="6.7061">
        <ele>52.5</ele>
        <time>2016-10-09T14:12:26Z</time>
      </trkpt>
      <trkpt lat="43.39571" lon="6.70606">
        <ele>51.9</ele>
        <time>2016-10-09T14:12:28Z</time>
      </trkpt>
      <trkpt lat="43.39574" lon="6.70605">
        <ele>51.6</ele>
        <time>2016-10-09T14:12:30Z</time>
      </trkpt>
      <trkpt lat="43.39576" lon="6.70605">
        <ele>51.3</ele>
        <time>2016-10-09T14:12:32Z</time>
      </trkpt>
      <trkpt lat="43.39577" lon="6.70605">
        <ele>51.1</ele>
        <time>2016-10-09T14:12:34Z</time>
      </trkpt>
      <trkpt lat="43.39579" lon="6.70605">
        <ele>50.9</ele>
        <time>2016-10-09T14:12:36Z</time>
      </trkpt>
      <trkpt lat="43.39582" lon="6.70605">
        <ele>50.5</ele>
        <time>2016-10-09T14:12:38Z</time>
      </trkpt>
      <trkpt lat="43.39584" lon="6.70606">
        <ele>50.3</ele>
        <time>2016-10-09T14:12:40Z</time>
      </trkpt>
      <trkpt lat="43.39585" lon="6.70607">
        <ele>50.2</ele>
        <time>2016-10-09T14:12:42Z</time>
      </trkpt>
      <trkpt lat="43.39586" lon="6.70608">
        <ele>50.1</ele>
        <time>2016-10-09T14:12:44Z</time>
      </trkpt>
      <trkpt lat="43.39587" lon="6.7061">
        <ele>50</ele>
        <time>2016-10-09T14:12:46Z</time>
      </trkpt>
      <trkpt lat="43.39589" lon="6.70612">
        <ele>49.9</ele>
        <time>2016-10-09T14:12:48Z</time>
      </trkpt>
      <trkpt lat="43.39591" lon="6.70614">
        <ele>49.9</ele>
        <time>2016-10-09T14:12:50Z</time>
      </trkpt>
      <trkpt lat="43.39593" lon="6.70617">
        <ele>49.8</ele>
        <time>2016-10-09T14:12:52Z</time>
      </trkpt>
      <trkpt lat="43.39594" lon="6.70621">
        <ele>49.9</ele>
        <time>2016-10-09T14:12:54Z</time>
      </trkpt>
      <trkpt lat="43.39595" lon="6.70625">
        <ele>49.9</ele>
        <time>2016-10-09T14:12:56Z</time>
      </trkpt>
      <trkpt lat="43.39596" lon="6.70629">
        <ele>50</ele>
        <time>2016-10-09T14:12:58Z</time>
      </trkpt>
      <trkpt lat="43.39597" lon="6.70632">
        <ele>50.1</ele>
        <time>2016-10-09T14:13:00Z</time>
      </trkpt>
      <trkpt lat="43.39598" lon="6.70636">
        <ele>50.1</ele>
        <time>2016-10-09T14:13:02Z</time>
      </trkpt>
      <trkpt lat="43.39599" lon="6.70639">
        <ele>50.2</ele>
        <time>2016-10-09T14:13:04Z</time>
      </trkpt>
      <trkpt lat="43.39599" lon="6.70644">
        <ele>50.3</ele>
        <time>2016-10-09T14:13:06Z</time>
      </trkpt>
      <trkpt lat="43.39598" lon="6.70648">
        <ele>50.6</ele>
        <time>2016-10-09T14:13:08Z</time>
      </trkpt>
      <trkpt lat="43.39598" lon="6.70652">
        <ele>50.9</ele>
        <time>2016-10-09T14:13:10Z</time>
      </trkpt>
      <trkpt lat="43.39599" lon="6.70656">
        <ele>51.3</ele>
        <time>2016-10-09T14:13:12Z</time>
      </trkpt>
      <trkpt lat="43.396" lon="6.70658">
        <ele>51.4</ele>
        <time>2016-10-09T14:13:14Z</time>
      </trkpt>
      <trkpt lat="43.39601" lon="6.7066">
        <ele>51.5</ele>
        <time>2016-10-09T14:13:16Z</time>
      </trkpt>
      <trkpt lat="43.39601" lon="6.70663">
        <ele>51.6</ele>
        <time>2016-10-09T14:13:18Z</time>
      </trkpt>
      <trkpt lat="43.39602" lon="6.70665">
        <ele>51.7</ele>
        <time>2016-10-09T14:13:20Z</time>
      </trkpt>
      <trkpt lat="43.39604" lon="6.70668">
        <ele>51.9</ele>
        <time>2016-10-09T14:13:22Z</time>
      </trkpt>
      <trkpt lat="43.39606" lon="6.70669">
        <ele>52.1</ele>
        <time>2016-10-09T14:13:24Z</time>
      </trkpt>
      <trkpt lat="43.39609" lon="6.7067">
        <ele>52.4</ele>
        <time>2016-10-09T14:13:26Z</time>
      </trkpt>
      <trkpt lat="43.39611" lon="6.7067">
        <ele>52.7</ele>
        <time>2016-10-09T14:13:28Z</time>
      </trkpt>
      <trkpt lat="43.39613" lon="6.7067">
        <ele>52.9</ele>
        <time>2016-10-09T14:13:30Z</time>
      </trkpt>
      <trkpt lat="43.39616" lon="6.7067">
        <ele>53.1</ele>
        <time>2016-10-09T14:13:32Z</time>
      </trkpt>
      <trkpt lat="43.39618" lon="6.7067">
        <ele>53.2</ele>
        <time>2016-10-09T14:13:34Z</time>
      </trkpt>
      <trkpt lat="43.39621" lon="6.70671">
        <ele>53.4</ele>
        <time>2016-10-09T14:13:36Z</time>
      </trkpt>
      <trkpt lat="43.39624" lon="6.70672">
        <ele>53.5</ele>
        <time>2016-10-09T14:13:38Z</time>
      </trkpt>
      <trkpt lat="43.39626" lon="6.70673">
        <ele>53.7</ele>
        <time>2016-10-09T14:13:40Z</time>
      </trkpt>
      <trkpt lat="43.39629" lon="6.70672">
        <ele>53.8</ele>
        <time>2016-10-09T14:13:42Z</time>
      </trkpt>
      <trkpt lat="43.39631" lon="6.70672">
        <ele>53.9</ele>
        <time>2016-10-09T14:13:44Z</time>
      </trkpt>
      <trkpt lat="43.39634" lon="6.70673">
        <ele>54.1</ele>
        <time>2016-10-09T14:13:46Z</time>
      </trkpt>
      <trkpt lat="43.39636" lon="6.70673">
        <ele>54.4</ele>
        <time>2016-10-09T14:13:48Z</time>
      </trkpt>
      <trkpt lat="43.39637" lon="6.70674">
        <ele>54.5</ele>
        <time>2016-10-09T14:13:50Z</time>
      </trkpt>
      <trkpt lat="43.39639" lon="6.70674">
        <ele>54.8</ele>
        <time>2016-10-09T14:13:52Z</time>
      </trkpt>
      <trkpt lat="43.39642" lon="6.70674">
        <ele>55.1</ele>
        <time>2016-10-09T14:13:54Z</time>
      </trkpt>
      <trkpt lat="43.39644" lon="6.70674">
        <ele>55.3</ele>
        <time>2016-10-09T14:13:56Z</time>
      </trkpt>
      <trkpt lat="43.39647" lon="6.70674">
        <ele>55.5</ele>
        <time>2016-10-09T14:13:58Z</time>
      </trkpt>
      <trkpt lat="43.3965" lon="6.70673">
        <ele>55.7</ele>
        <time>2016-10-09T14:14:00Z</time>
      </trkpt>
      <trkpt lat="43.39652" lon="6.70672">
        <ele>55.9</ele>
        <time>2016-10-09T14:14:02Z</time>
      </trkpt>
      <trkpt lat="43.39654" lon="6.7067">
        <ele>56.2</ele>
        <time>2016-10-09T14:14:04Z</time>
      </trkpt>
      <trkpt lat="43.39656" lon="6.70667">
        <ele>56.4</ele>
        <time>2016-10-09T14:14:06Z</time>
      </trkpt>
      <trkpt lat="43.39658" lon="6.70666">
        <ele>56.6</ele>
        <time>2016-10-09T14:14:08Z</time>
      </trkpt>
      <trkpt lat="43.3966" lon="6.70665">
        <ele>56.8</ele>
        <time>2016-10-09T14:14:10Z</time>
      </trkpt>
      <trkpt lat="43.39661" lon="6.70663">
        <ele>56.8</ele>
        <time>2016-10-09T14:14:12Z</time>
      </trkpt>
      <trkpt lat="43.39663" lon="6.70661">
        <ele>57</ele>
        <time>2016-10-09T14:14:14Z</time>
      </trkpt>
      <trkpt lat="43.39666" lon="6.7066">
        <ele>57.3</ele>
        <time>2016-10-09T14:14:16Z</time>
      </trkpt>
      <trkpt lat="43.3967" lon="6.70658">
        <ele>57.9</ele>
        <time>2016-10-09T14:14:18Z</time>
      </trkpt>
      <trkpt lat="43.39676" lon="6.70656">
        <ele>58.5</ele>
        <time>2016-10-09T14:14:20Z</time>
      </trkpt>
      <trkpt lat="43.39681" lon="6.70655">
        <ele>58.8</ele>
        <time>2016-10-09T14:14:22Z</time>
      </trkpt>
      <trkpt lat="43.39687" lon="6.70654">
        <ele>59.1</ele>
        <time>2016-10-09T14:14:24Z</time>
      </trkpt>
      <trkpt lat="43.39694" lon="6.70652">
        <ele>59.4</ele>
        <time>2016-10-09T14:14:26Z</time>
      </trkpt>
      <trkpt lat="43.39701" lon="6.70651">
        <ele>59.5</ele>
        <time>2016-10-09T14:14:28Z</time>
      </trkpt>
      <trkpt lat="43.39708" lon="6.70651">
        <ele>59.7</ele>
        <time>2016-10-09T14:14:30Z</time>
      </trkpt>
      <trkpt lat="43.39714" lon="6.70655">
        <ele>59.9</ele>
        <time>2016-10-09T14:14:32Z</time>
      </trkpt>
      <trkpt lat="43.39721" lon="6.70659">
        <ele>60</ele>
        <time>2016-10-09T14:14:34Z</time>
      </trkpt>
      <trkpt lat="43.39728" lon="6.70657">
        <ele>60.2</ele>
        <time>2016-10-09T14:14:36Z</time>
      </trkpt>
      <trkpt lat="43.39734" lon="6.70647">
        <ele>60.3</ele>
        <time>2016-10-09T14:14:38Z</time>
      </trkpt>
      <trkpt lat="43.39739" lon="6.70637">
        <ele>60.5</ele>
        <time>2016-10-09T14:14:40Z</time>
      </trkpt>
      <trkpt lat="43.39744" lon="6.70626">
        <ele>60.7</ele>
        <time>2016-10-09T14:14:42Z</time>
      </trkpt>
      <trkpt lat="43.39748" lon="6.70617">
        <ele>61</ele>
        <time>2016-10-09T14:14:44Z</time>
      </trkpt>
      <trkpt lat="43.39753" lon="6.70609">
        <ele>61.2</ele>
        <time>2016-10-09T14:14:46Z</time>
      </trkpt>
      <trkpt lat="43.39758" lon="6.70601">
        <ele>61.3</ele>
        <time>2016-10-09T14:14:48Z</time>
      </trkpt>
      <trkpt lat="43.39759" lon="6.70592">
        <ele>61.4</ele>
        <time>2016-10-09T14:14:50Z</time>
      </trkpt>
      <trkpt lat="43.39761" lon="6.70583">
        <ele>61.5</ele>
        <time>2016-10-09T14:14:52Z</time>
      </trkpt>
      <trkpt lat="43.39768" lon="6.7058">
        <ele>61.6</ele>
        <time>2016-10-09T14:14:54Z</time>
      </trkpt>
      <trkpt lat="43.39774" lon="6.70574">
        <ele>61.7</ele>
        <time>2016-10-09T14:14:56Z</time>
      </trkpt>
      <trkpt lat="43.3978" lon="6.70567">
        <ele>61.9</ele>
        <time>2016-10-09T14:14:58Z</time>
      </trkpt>
      <trkpt lat="43.39785" lon="6.70559">
        <ele>62</ele>
        <time>2016-10-09T14:15:00Z</time>
      </trkpt>
      <trkpt lat="43.39789" lon="6.70552">
        <ele>62.1</ele>
        <time>2016-10-09T14:15:02Z</time>
      </trkpt>
      <trkpt lat="43.39793" lon="6.70544">
        <ele>62.2</ele>
        <time>2016-10-09T14:15:04Z</time>
      </trkpt>
      <trkpt lat="43.39795" lon="6.70532">
        <ele>62.3</ele>
        <time>2016-10-09T14:15:06Z</time>
      </trkpt>
      <trkpt lat="43.39802" lon="6.70526">
        <ele>62.4</ele>
        <time>2016-10-09T14:15:08Z</time>
      </trkpt>
      <trkpt lat="43.39809" lon="6.7052">
        <ele>62.5</ele>
        <time>2016-10-09T14:15:10Z</time>
      </trkpt>
      <trkpt lat="43.39814" lon="6.70512">
        <ele>62.6</ele>
        <time>2016-10-09T14:15:12Z</time>
      </trkpt>
      <trkpt lat="43.39817" lon="6.70503">
        <ele>62.8</ele>
        <time>2016-10-09T14:15:14Z</time>
      </trkpt>
      <trkpt lat="43.39822" lon="6.70494">
        <ele>62.9</ele>
        <time>2016-10-09T14:15:16Z</time>
      </trkpt>
      <trkpt lat="43.39827" lon="6.70493">
        <ele>63</ele>
        <time>2016-10-09T14:15:18Z</time>
      </trkpt>
      <trkpt lat="43.39829" lon="6.70493">
        <ele>63.1</ele>
        <time>2016-10-09T14:15:20Z</time>
      </trkpt>
      <trkpt lat="43.39833" lon="6.70492">
        <ele>63.2</ele>
        <time>2016-10-09T14:15:30Z</time>
      </trkpt>
      <trkpt lat="43.39834" lon="6.70493">
        <ele>63.3</ele>
        <time>2016-10-09T14:15:32Z</time>
      </trkpt>
      <trkpt lat="43.39835" lon="6.70495">
        <ele>63.3</ele>
        <time>2016-10-09T14:15:34Z</time>
      </trkpt>
      <trkpt lat="43.39837" lon="6.70497">
        <ele>63.4</ele>
        <time>2016-10-09T14:15:36Z</time>
      </trkpt>
      <trkpt lat="43.39838" lon="6.70498">
        <ele>63.5</ele>
        <time>2016-10-09T14:15:38Z</time>
      </trkpt>
      <trkpt lat="43.3984" lon="6.70499">
        <ele>63.6</ele>
        <time>2016-10-09T14:15:40Z</time>
      </trkpt>
      <trkpt lat="43.39842" lon="6.70501">
        <ele>63.7</ele>
        <time>2016-10-09T14:15:42Z</time>
      </trkpt>
      <trkpt lat="43.39844" lon="6.70501">
        <ele>63.9</ele>
        <time>2016-10-09T14:15:44Z</time>
      </trkpt>
      <trkpt lat="43.39846" lon="6.70502">
        <ele>64</ele>
        <time>2016-10-09T14:15:46Z</time>
      </trkpt>
      <trkpt lat="43.39847" lon="6.70503">
        <ele>64.1</ele>
        <time>2016-10-09T14:15:48Z</time>
      </trkpt>
      <trkpt lat="43.39848" lon="6.70505">
        <ele>64.2</ele>
        <time>2016-10-09T14:15:50Z</time>
      </trkpt>
      <trkpt lat="43.3985" lon="6.70506">
        <ele>64.3</ele>
        <time>2016-10-09T14:15:52Z</time>
      </trkpt>
      <trkpt lat="43.39851" lon="6.70509">
        <ele>64.4</ele>
        <time>2016-10-09T14:15:54Z</time>
      </trkpt>
      <trkpt lat="43.39853" lon="6.70513">
        <ele>64.7</ele>
        <time>2016-10-09T14:15:56Z</time>
      </trkpt>
      <trkpt lat="43.39853" lon="6.70517">
        <ele>65.1</ele>
        <time>2016-10-09T14:15:58Z</time>
      </trkpt>
      <trkpt lat="43.39855" lon="6.70521">
        <ele>65.6</ele>
        <time>2016-10-09T14:16:00Z</time>
      </trkpt>
      <trkpt lat="43.39857" lon="6.70526">
        <ele>66.1</ele>
        <time>2016-10-09T14:16:02Z</time>
      </trkpt>
      <trkpt lat="43.39859" lon="6.70533">
        <ele>66.6</ele>
        <time>2016-10-09T14:16:04Z</time>
      </trkpt>
      <trkpt lat="43.39863" lon="6.7054">
        <ele>66.9</ele>
        <time>2016-10-09T14:16:06Z</time>
      </trkpt>
      <trkpt lat="43.39868" lon="6.70547">
        <ele>67.2</ele>
        <time>2016-10-09T14:16:08Z</time>
      </trkpt>
      <trkpt lat="43.39875" lon="6.70555">
        <ele>67.5</ele>
        <time>2016-10-09T14:16:10Z</time>
      </trkpt>
      <trkpt lat="43.3988" lon="6.70563">
        <ele>67.7</ele>
        <time>2016-10-09T14:16:12Z</time>
      </trkpt>
      <trkpt lat="43.39885" lon="6.70571">
        <ele>67.8</ele>
        <time>2016-10-09T14:16:14Z</time>
      </trkpt>
      <trkpt lat="43.39893" lon="6.70575">
        <ele>68</ele>
        <time>2016-10-09T14:16:16Z</time>
      </trkpt>
      <trkpt lat="43.39901" lon="6.70578">
        <ele>68.2</ele>
        <time>2016-10-09T14:16:18Z</time>
      </trkpt>
      <trkpt lat="43.39908" lon="6.7058">
        <ele>68.4</ele>
        <time>2016-10-09T14:16:20Z</time>
      </trkpt>
      <trkpt lat="43.39913" lon="6.70579">
        <ele>68.4</ele>
        <time>2016-10-09T14:16:22Z</time>
      </trkpt>
      <trkpt lat="43.39917" lon="6.70579">
        <ele>68.5</ele>
        <time>2016-10-09T14:16:24Z</time>
      </trkpt>
      <trkpt lat="43.39921" lon="6.70577">
        <ele>68.7</ele>
        <time>2016-10-09T14:16:26Z</time>
      </trkpt>
      <trkpt lat="43.39925" lon="6.70575">
        <ele>68.8</ele>
        <time>2016-10-09T14:16:28Z</time>
      </trkpt>
      <trkpt lat="43.39929" lon="6.70572">
        <ele>68.9</ele>
        <time>2016-10-09T14:16:30Z</time>
      </trkpt>
      <trkpt lat="43.39933" lon="6.7057">
        <ele>69.1</ele>
        <time>2016-10-09T14:16:32Z</time>
      </trkpt>
      <trkpt lat="43.39936" lon="6.70567">
        <ele>69.2</ele>
        <time>2016-10-09T14:16:34Z</time>
      </trkpt>
      <trkpt lat="43.3994" lon="6.70565">
        <ele>69.3</ele>
        <time>2016-10-09T14:16:36Z</time>
      </trkpt>
      <trkpt lat="43.39943" lon="6.70563">
        <ele>69.4</ele>
        <time>2016-10-09T14:16:38Z</time>
      </trkpt>
      <trkpt lat="43.39948" lon="6.70561">
        <ele>69.6</ele>
        <time>2016-10-09T14:16:40Z</time>
      </trkpt>
      <trkpt lat="43.39952" lon="6.7056">
        <ele>69.8</ele>
        <time>2016-10-09T14:16:42Z</time>
      </trkpt>
      <trkpt lat="43.39956" lon="6.70559">
        <ele>70</ele>
        <time>2016-10-09T14:16:44Z</time>
      </trkpt>
      <trkpt lat="43.3996" lon="6.70558">
        <ele>70.2</ele>
        <time>2016-10-09T14:16:46Z</time>
      </trkpt>
      <trkpt lat="43.39964" lon="6.70556">
        <ele>70.4</ele>
        <time>2016-10-09T14:16:48Z</time>
      </trkpt>
      <trkpt lat="43.39969" lon="6.70553">
        <ele>71</ele>
        <time>2016-10-09T14:16:50Z</time>
      </trkpt>
      <trkpt lat="43.39973" lon="6.70548">
        <ele>71.7</ele>
        <time>2016-10-09T14:16:52Z</time>
      </trkpt>
      <trkpt lat="43.39978" lon="6.70542">
        <ele>72.3</ele>
        <time>2016-10-09T14:16:54Z</time>
      </trkpt>
      <trkpt lat="43.39979" lon="6.70534">
        <ele>72.4</ele>
        <time>2016-10-09T14:16:56Z</time>
      </trkpt>
      <trkpt lat="43.39978" lon="6.70527">
        <ele>72.6</ele>
        <time>2016-10-09T14:16:58Z</time>
      </trkpt>
      <trkpt lat="43.39978" lon="6.70519">
        <ele>72.7</ele>
        <time>2016-10-09T14:17:00Z</time>
      </trkpt>
      <trkpt lat="43.39978" lon="6.70511">
        <ele>72.9</ele>
        <time>2016-10-09T14:17:02Z</time>
      </trkpt>
      <trkpt lat="43.3998" lon="6.70503">
        <ele>73.1</ele>
        <time>2016-10-09T14:17:04Z</time>
      </trkpt>
      <trkpt lat="43.39983" lon="6.70497">
        <ele>73.2</ele>
        <time>2016-10-09T14:17:06Z</time>
      </trkpt>
      <trkpt lat="43.39985" lon="6.70492">
        <ele>73.3</ele>
        <time>2016-10-09T14:17:08Z</time>
      </trkpt>
      <trkpt lat="43.39987" lon="6.70485">
        <ele>73.4</ele>
        <time>2016-10-09T14:17:10Z</time>
      </trkpt>
      <trkpt lat="43.39989" lon="6.70477">
        <ele>73.7</ele>
        <time>2016-10-09T14:17:12Z</time>
      </trkpt>
      <trkpt lat="43.39993" lon="6.7047">
        <ele>74</ele>
        <time>2016-10-09T14:17:14Z</time>
      </trkpt>
      <trkpt lat="43.39996" lon="6.70458">
        <ele>74.5</ele>
        <time>2016-10-09T14:17:16Z</time>
      </trkpt>
      <trkpt lat="43.39997" lon="6.70446">
        <ele>75.4</ele>
        <time>2016-10-09T14:17:18Z</time>
      </trkpt>
      <trkpt lat="43.40004" lon="6.70438">
        <ele>75.9</ele>
        <time>2016-10-09T14:17:20Z</time>
      </trkpt>
      <trkpt lat="43.40012" lon="6.70437">
        <ele>76.2</ele>
        <time>2016-10-09T14:17:22Z</time>
      </trkpt>
      <trkpt lat="43.40018" lon="6.70438">
        <ele>76.3</ele>
        <time>2016-10-09T14:17:24Z</time>
      </trkpt>
      <trkpt lat="43.40026" lon="6.70437">
        <ele>76.4</ele>
        <time>2016-10-09T14:17:26Z</time>
      </trkpt>
      <trkpt lat="43.40033" lon="6.70435">
        <ele>76.6</ele>
        <time>2016-10-09T14:17:28Z</time>
      </trkpt>
      <trkpt lat="43.4004" lon="6.70431">
        <ele>76.7</ele>
        <time>2016-10-09T14:17:30Z</time>
      </trkpt>
      <trkpt lat="43.40043" lon="6.70429">
        <ele>76.7</ele>
        <time>2016-10-09T14:17:32Z</time>
      </trkpt>
      <trkpt lat="43.40046" lon="6.70428">
        <ele>76.7</ele>
        <time>2016-10-09T14:17:38Z</time>
      </trkpt>
      <trkpt lat="43.4005" lon="6.70427">
        <ele>76.7</ele>
        <time>2016-10-09T14:17:40Z</time>
      </trkpt>
      <trkpt lat="43.40056" lon="6.70425">
        <ele>76.6</ele>
        <time>2016-10-09T14:17:42Z</time>
      </trkpt>
      <trkpt lat="43.40062" lon="6.70424">
        <ele>76.4</ele>
        <time>2016-10-09T14:17:44Z</time>
      </trkpt>
      <trkpt lat="43.40066" lon="6.70428">
        <ele>76.3</ele>
        <time>2016-10-09T14:17:46Z</time>
      </trkpt>
      <trkpt lat="43.40068" lon="6.70434">
        <ele>75.4</ele>
        <time>2016-10-09T14:17:48Z</time>
      </trkpt>
      <trkpt lat="43.40072" lon="6.7044">
        <ele>74.7</ele>
        <time>2016-10-09T14:17:50Z</time>
      </trkpt>
      <trkpt lat="43.40076" lon="6.70446">
        <ele>73.7</ele>
        <time>2016-10-09T14:17:52Z</time>
      </trkpt>
      <trkpt lat="43.40078" lon="6.70454">
        <ele>72.7</ele>
        <time>2016-10-09T14:17:54Z</time>
      </trkpt>
      <trkpt lat="43.40079" lon="6.70464">
        <ele>72.3</ele>
        <time>2016-10-09T14:17:56Z</time>
      </trkpt>
      <trkpt lat="43.40082" lon="6.70467">
        <ele>72</ele>
        <time>2016-10-09T14:17:58Z</time>
      </trkpt>
      <trkpt lat="43.40085" lon="6.70466">
        <ele>71.8</ele>
        <time>2016-10-09T14:18:00Z</time>
      </trkpt>
      <trkpt lat="43.40088" lon="6.70465">
        <ele>71.7</ele>
        <time>2016-10-09T14:18:02Z</time>
      </trkpt>
      <trkpt lat="43.40091" lon="6.70466">
        <ele>71.6</ele>
        <time>2016-10-09T14:18:04Z</time>
      </trkpt>
      <trkpt lat="43.40094" lon="6.70468">
        <ele>71.5</ele>
        <time>2016-10-09T14:18:06Z</time>
      </trkpt>
      <trkpt lat="43.40096" lon="6.70472">
        <ele>71.4</ele>
        <time>2016-10-09T14:18:08Z</time>
      </trkpt>
      <trkpt lat="43.40097" lon="6.70479">
        <ele>71.3</ele>
        <time>2016-10-09T14:18:10Z</time>
      </trkpt>
      <trkpt lat="43.40098" lon="6.70486">
        <ele>71.2</ele>
        <time>2016-10-09T14:18:12Z</time>
      </trkpt>
      <trkpt lat="43.40101" lon="6.70492">
        <ele>71.1</ele>
        <time>2016-10-09T14:18:14Z</time>
      </trkpt>
      <trkpt lat="43.40103" lon="6.70498">
        <ele>71.1</ele>
        <time>2016-10-09T14:18:16Z</time>
      </trkpt>
      <trkpt lat="43.40106" lon="6.70504">
        <ele>71.1</ele>
        <time>2016-10-09T14:18:18Z</time>
      </trkpt>
      <trkpt lat="43.40109" lon="6.7051">
        <ele>71</ele>
        <time>2016-10-09T14:18:20Z</time>
      </trkpt>
      <trkpt lat="43.40109" lon="6.70519">
        <ele>70.9</ele>
        <time>2016-10-09T14:18:22Z</time>
      </trkpt>
      <trkpt lat="43.4011" lon="6.7053">
        <ele>70.8</ele>
        <time>2016-10-09T14:18:24Z</time>
      </trkpt>
      <trkpt lat="43.40114" lon="6.70535">
        <ele>70.7</ele>
        <time>2016-10-09T14:18:26Z</time>
      </trkpt>
      <trkpt lat="43.40118" lon="6.70535">
        <ele>70.5</ele>
        <time>2016-10-09T14:18:28Z</time>
      </trkpt>
      <trkpt lat="43.40122" lon="6.70537">
        <ele>70.4</ele>
        <time>2016-10-09T14:18:30Z</time>
      </trkpt>
      <trkpt lat="43.40126" lon="6.70538">
        <ele>70.3</ele>
        <time>2016-10-09T14:18:32Z</time>
      </trkpt>
      <trkpt lat="43.40129" lon="6.70541">
        <ele>70.2</ele>
        <time>2016-10-09T14:18:34Z</time>
      </trkpt>
      <trkpt lat="43.4013" lon="6.70546">
        <ele>70.1</ele>
        <time>2016-10-09T14:18:36Z</time>
      </trkpt>
      <trkpt lat="43.40131" lon="6.70553">
        <ele>70.1</ele>
        <time>2016-10-09T14:18:38Z</time>
      </trkpt>
      <trkpt lat="43.40135" lon="6.70558">
        <ele>70</ele>
        <time>2016-10-09T14:18:40Z</time>
      </trkpt>
      <trkpt lat="43.40136" lon="6.70562">
        <ele>69.9</ele>
        <time>2016-10-09T14:18:42Z</time>
      </trkpt>
      <trkpt lat="43.40139" lon="6.70567">
        <ele>69.5</ele>
        <time>2016-10-09T14:18:44Z</time>
      </trkpt>
      <trkpt lat="43.40144" lon="6.70571">
        <ele>68.6</ele>
        <time>2016-10-09T14:18:46Z</time>
      </trkpt>
      <trkpt lat="43.40149" lon="6.70576">
        <ele>67.4</ele>
        <time>2016-10-09T14:18:48Z</time>
      </trkpt>
      <trkpt lat="43.40152" lon="6.70586">
        <ele>66.5</ele>
        <time>2016-10-09T14:18:50Z</time>
      </trkpt>
      <trkpt lat="43.40157" lon="6.70598">
        <ele>65.1</ele>
        <time>2016-10-09T14:18:52Z</time>
      </trkpt>
      <trkpt lat="43.40162" lon="6.70612">
        <ele>63.8</ele>
        <time>2016-10-09T14:18:54Z</time>
      </trkpt>
      <trkpt lat="43.40167" lon="6.70625">
        <ele>62.5</ele>
        <time>2016-10-09T14:18:56Z</time>
      </trkpt>
      <trkpt lat="43.40175" lon="6.70631">
        <ele>61</ele>
        <time>2016-10-09T14:18:58Z</time>
      </trkpt>
      <trkpt lat="43.40179" lon="6.70641">
        <ele>59.4</ele>
        <time>2016-10-09T14:19:00Z</time>
      </trkpt>
      <trkpt lat="43.40179" lon="6.70651">
        <ele>58</ele>
        <time>2016-10-09T14:19:02Z</time>
      </trkpt>
      <trkpt lat="43.40184" lon="6.70658">
        <ele>56.7</ele>
        <time>2016-10-09T14:19:04Z</time>
      </trkpt>
      <trkpt lat="43.40189" lon="6.70667">
        <ele>55.1</ele>
        <time>2016-10-09T14:19:06Z</time>
      </trkpt>
      <trkpt lat="43.40194" lon="6.70676">
        <ele>54.2</ele>
        <time>2016-10-09T14:19:08Z</time>
      </trkpt>
      <trkpt lat="43.40197" lon="6.70688">
        <ele>53.6</ele>
        <time>2016-10-09T14:19:10Z</time>
      </trkpt>
      <trkpt lat="43.40201" lon="6.70694">
        <ele>53.2</ele>
        <time>2016-10-09T14:19:12Z</time>
      </trkpt>
      <trkpt lat="43.40206" lon="6.70699">
        <ele>52.6</ele>
        <time>2016-10-09T14:19:14Z</time>
      </trkpt>
      <trkpt lat="43.40208" lon="6.70708">
        <ele>52.2</ele>
        <time>2016-10-09T14:19:16Z</time>
      </trkpt>
      <trkpt lat="43.40208" lon="6.7072">
        <ele>51.7</ele>
        <time>2016-10-09T14:19:18Z</time>
      </trkpt>
      <trkpt lat="43.40206" lon="6.70732">
        <ele>51.4</ele>
        <time>2016-10-09T14:19:20Z</time>
      </trkpt>
      <trkpt lat="43.40206" lon="6.70747">
        <ele>51</ele>
        <time>2016-10-09T14:19:22Z</time>
      </trkpt>
      <trkpt lat="43.40204" lon="6.70763">
        <ele>50.2</ele>
        <time>2016-10-09T14:19:24Z</time>
      </trkpt>
      <trkpt lat="43.40202" lon="6.70777">
        <ele>49.4</ele>
        <time>2016-10-09T14:19:26Z</time>
      </trkpt>
      <trkpt lat="43.402" lon="6.70792">
        <ele>48.7</ele>
        <time>2016-10-09T14:19:28Z</time>
      </trkpt>
      <trkpt lat="43.40194" lon="6.70804">
        <ele>48</ele>
        <time>2016-10-09T14:19:30Z</time>
      </trkpt>
      <trkpt lat="43.40189" lon="6.70816">
        <ele>47.4</ele>
        <time>2016-10-09T14:19:32Z</time>
      </trkpt>
      <trkpt lat="43.40182" lon="6.70828">
        <ele>46.9</ele>
        <time>2016-10-09T14:19:34Z</time>
      </trkpt>
      <trkpt lat="43.40176" lon="6.70839">
        <ele>46.5</ele>
        <time>2016-10-09T14:19:36Z</time>
      </trkpt>
      <trkpt lat="43.4017" lon="6.70849">
        <ele>46.2</ele>
        <time>2016-10-09T14:19:38Z</time>
      </trkpt>
      <trkpt lat="43.40163" lon="6.7086">
        <ele>45.9</ele>
        <time>2016-10-09T14:19:40Z</time>
      </trkpt>
      <trkpt lat="43.40159" lon="6.70872">
        <ele>45.6</ele>
        <time>2016-10-09T14:19:42Z</time>
      </trkpt>
      <trkpt lat="43.40153" lon="6.70884">
        <ele>45.1</ele>
        <time>2016-10-09T14:19:44Z</time>
      </trkpt>
      <trkpt lat="43.40151" lon="6.70895">
        <ele>44.4</ele>
        <time>2016-10-09T14:19:46Z</time>
      </trkpt>
      <trkpt lat="43.4015" lon="6.70906">
        <ele>43.7</ele>
        <time>2016-10-09T14:19:48Z</time>
      </trkpt>
      <trkpt lat="43.40148" lon="6.70915">
        <ele>42.9</ele>
        <time>2016-10-09T14:19:50Z</time>
      </trkpt>
      <trkpt lat="43.40146" lon="6.70925">
        <ele>41.9</ele>
        <time>2016-10-09T14:19:52Z</time>
      </trkpt>
      <trkpt lat="43.40144" lon="6.70932">
        <ele>41.1</ele>
        <time>2016-10-09T14:19:54Z</time>
      </trkpt>
      <trkpt lat="43.40142" lon="6.70939">
        <ele>40.2</ele>
        <time>2016-10-09T14:19:56Z</time>
      </trkpt>
      <trkpt lat="43.40141" lon="6.70946">
        <ele>39.3</ele>
        <time>2016-10-09T14:19:58Z</time>
      </trkpt>
      <trkpt lat="43.40139" lon="6.70953">
        <ele>38.3</ele>
        <time>2016-10-09T14:20:00Z</time>
      </trkpt>
      <trkpt lat="43.40137" lon="6.7096">
        <ele>37.3</ele>
        <time>2016-10-09T14:20:02Z</time>
      </trkpt>
      <trkpt lat="43.40136" lon="6.70969">
        <ele>36.1</ele>
        <time>2016-10-09T14:20:04Z</time>
      </trkpt>
      <trkpt lat="43.40136" lon="6.7098">
        <ele>34.7</ele>
        <time>2016-10-09T14:20:06Z</time>
      </trkpt>
      <trkpt lat="43.40136" lon="6.70989">
        <ele>33.4</ele>
        <time>2016-10-09T14:20:08Z</time>
      </trkpt>
      <trkpt lat="43.40136" lon="6.70996">
        <ele>32.3</ele>
        <time>2016-10-09T14:20:10Z</time>
      </trkpt>
      <trkpt lat="43.40137" lon="6.71005">
        <ele>30.9</ele>
        <time>2016-10-09T14:20:12Z</time>
      </trkpt>
      <trkpt lat="43.40137" lon="6.71013">
        <ele>29.4</ele>
        <time>2016-10-09T14:20:14Z</time>
      </trkpt>
      <trkpt lat="43.40137" lon="6.71021">
        <ele>27.6</ele>
        <time>2016-10-09T14:20:16Z</time>
      </trkpt>
      <trkpt lat="43.40138" lon="6.71031">
        <ele>25.4</ele>
        <time>2016-10-09T14:20:18Z</time>
      </trkpt>
      <trkpt lat="43.40139" lon="6.71041">
        <ele>23.2</ele>
        <time>2016-10-09T14:20:20Z</time>
      </trkpt>
      <trkpt lat="43.40141" lon="6.71049">
        <ele>21.7</ele>
        <time>2016-10-09T14:20:22Z</time>
      </trkpt>
      <trkpt lat="43.40142" lon="6.71057">
        <ele>20.1</ele>
        <time>2016-10-09T14:20:24Z</time>
      </trkpt>
      <trkpt lat="43.40143" lon="6.71069">
        <ele>18.2</ele>
        <time>2016-10-09T14:20:26Z</time>
      </trkpt>
      <trkpt lat="43.40143" lon="6.7108">
        <ele>16.7</ele>
        <time>2016-10-09T14:20:28Z</time>
      </trkpt>
      <trkpt lat="43.40143" lon="6.71094">
        <ele>15.4</ele>
        <time>2016-10-09T14:20:30Z</time>
      </trkpt>
      <trkpt lat="43.4014" lon="6.71108">
        <ele>14</ele>
        <time>2016-10-09T14:20:32Z</time>
      </trkpt>
      <trkpt lat="43.40139" lon="6.71124">
        <ele>12.7</ele>
        <time>2016-10-09T14:20:34Z</time>
      </trkpt>
      <trkpt lat="43.40139" lon="6.7114">
        <ele>11.4</ele>
        <time>2016-10-09T14:20:36Z</time>
      </trkpt>
      <trkpt lat="43.40143" lon="6.71159">
        <ele>10</ele>
        <time>2016-10-09T14:20:38Z</time>
      </trkpt>
      <trkpt lat="43.40145" lon="6.71179">
        <ele>8.5</ele>
        <time>2016-10-09T14:20:40Z</time>
      </trkpt>
      <trkpt lat="43.40147" lon="6.712">
        <ele>7</ele>
        <time>2016-10-09T14:20:42Z</time>
      </trkpt>
      <trkpt lat="43.40147" lon="6.7122">
        <ele>5.6</ele>
        <time>2016-10-09T14:20:44Z</time>
      </trkpt>
      <trkpt lat="43.40146" lon="6.71238">
        <ele>4.4</ele>
        <time>2016-10-09T14:20:46Z</time>
      </trkpt>
      <trkpt lat="43.40146" lon="6.71253">
        <ele>3.3</ele>
        <time>2016-10-09T14:20:48Z</time>
      </trkpt>
      <trkpt lat="43.40139" lon="6.71261">
        <ele>2.9</ele>
        <time>2016-10-09T14:20:50Z</time>
      </trkpt>
      <trkpt lat="43.40133" lon="6.71267">
        <ele>2.7</ele>
        <time>2016-10-09T14:20:52Z</time>
      </trkpt>
      <trkpt lat="43.40126" lon="6.71272">
        <ele>2.5</ele>
        <time>2016-10-09T14:20:54Z</time>
      </trkpt>
      <trkpt lat="43.40121" lon="6.7128">
        <ele>2.5</ele>
        <time>2016-10-09T14:20:56Z</time>
      </trkpt>
      <trkpt lat="43.40116" lon="6.71288">
        <ele>2.6</ele>
        <time>2016-10-09T14:20:58Z</time>
      </trkpt>
      <trkpt lat="43.4011" lon="6.71296">
        <ele>2.7</ele>
        <time>2016-10-09T14:21:00Z</time>
      </trkpt>
      <trkpt lat="43.40102" lon="6.71303">
        <ele>2.8</ele>
        <time>2016-10-09T14:21:02Z</time>
      </trkpt>
      <trkpt lat="43.40095" lon="6.71311">
        <ele>3</ele>
        <time>2016-10-09T14:21:04Z</time>
      </trkpt>
      <trkpt lat="43.40088" lon="6.71318">
        <ele>3.2</ele>
        <time>2016-10-09T14:21:06Z</time>
      </trkpt>
      <trkpt lat="43.4008" lon="6.71325">
        <ele>3.4</ele>
        <time>2016-10-09T14:21:08Z</time>
      </trkpt>
      <trkpt lat="43.40072" lon="6.71333">
        <ele>3.5</ele>
        <time>2016-10-09T14:21:10Z</time>
      </trkpt>
      <trkpt lat="43.40065" lon="6.71341">
        <ele>3.7</ele>
        <time>2016-10-09T14:21:12Z</time>
      </trkpt>
      <trkpt lat="43.40057" lon="6.71351">
        <ele>3.9</ele>
        <time>2016-10-09T14:21:14Z</time>
      </trkpt>
      <trkpt lat="43.40051" lon="6.71361">
        <ele>4.2</ele>
        <time>2016-10-09T14:21:16Z</time>
      </trkpt>
      <trkpt lat="43.40046" lon="6.71371">
        <ele>4.4</ele>
        <time>2016-10-09T14:21:18Z</time>
      </trkpt>
      <trkpt lat="43.4004" lon="6.71382">
        <ele>4.6</ele>
        <time>2016-10-09T14:21:20Z</time>
      </trkpt>
      <trkpt lat="43.40034" lon="6.71393">
        <ele>4.8</ele>
        <time>2016-10-09T14:21:22Z</time>
      </trkpt>
      <trkpt lat="43.40028" lon="6.71403">
        <ele>5</ele>
        <time>2016-10-09T14:21:24Z</time>
      </trkpt>
      <trkpt lat="43.40022" lon="6.71413">
        <ele>5.1</ele>
        <time>2016-10-09T14:21:26Z</time>
      </trkpt>
      <trkpt lat="43.40016" lon="6.71423">
        <ele>5.2</ele>
        <time>2016-10-09T14:21:28Z</time>
      </trkpt>
      <trkpt lat="43.40011" lon="6.71432">
        <ele>5.3</ele>
        <time>2016-10-09T14:21:30Z</time>
      </trkpt>
      <trkpt lat="43.40007" lon="6.7144">
        <ele>5.4</ele>
        <time>2016-10-09T14:21:32Z</time>
      </trkpt>
      <trkpt lat="43.40002" lon="6.7145">
        <ele>5.5</ele>
        <time>2016-10-09T14:21:34Z</time>
      </trkpt>
      <trkpt lat="43.39997" lon="6.71459">
        <ele>5.6</ele>
        <time>2016-10-09T14:21:36Z</time>
      </trkpt>
      <trkpt lat="43.39991" lon="6.71468">
        <ele>5.7</ele>
        <time>2016-10-09T14:21:38Z</time>
      </trkpt>
      <trkpt lat="43.39986" lon="6.71477">
        <ele>5.9</ele>
        <time>2016-10-09T14:21:40Z</time>
      </trkpt>
      <trkpt lat="43.39984" lon="6.71487">
        <ele>6</ele>
        <time>2016-10-09T14:21:42Z</time>
      </trkpt>
      <trkpt lat="43.39983" lon="6.71497">
        <ele>6.9</ele>
        <time>2016-10-09T14:21:44Z</time>
      </trkpt>
      <trkpt lat="43.39984" lon="6.7151">
        <ele>7.7</ele>
        <time>2016-10-09T14:21:46Z</time>
      </trkpt>
      <trkpt lat="43.39985" lon="6.71522">
        <ele>8.3</ele>
        <time>2016-10-09T14:21:48Z</time>
      </trkpt>
      <trkpt lat="43.39986" lon="6.71534">
        <ele>8.8</ele>
        <time>2016-10-09T14:21:50Z</time>
      </trkpt>
      <trkpt lat="43.39988" lon="6.71545">
        <ele>9.3</ele>
        <time>2016-10-09T14:21:52Z</time>
      </trkpt>
      <trkpt lat="43.3999" lon="6.71555">
        <ele>9.8</ele>
        <time>2016-10-09T14:21:54Z</time>
      </trkpt>
      <trkpt lat="43.39991" lon="6.71566">
        <ele>10.2</ele>
        <time>2016-10-09T14:21:56Z</time>
      </trkpt>
      <trkpt lat="43.39991" lon="6.71578">
        <ele>10.6</ele>
        <time>2016-10-09T14:21:58Z</time>
      </trkpt>
      <trkpt lat="43.3999" lon="6.71589">
        <ele>11</ele>
        <time>2016-10-09T14:22:00Z</time>
      </trkpt>
      <trkpt lat="43.39987" lon="6.71599">
        <ele>11.3</ele>
        <time>2016-10-09T14:22:02Z</time>
      </trkpt>
      <trkpt lat="43.39983" lon="6.71607">
        <ele>11.7</ele>
        <time>2016-10-09T14:22:04Z</time>
      </trkpt>
      <trkpt lat="43.3998" lon="6.71615">
        <ele>12.4</ele>
        <time>2016-10-09T14:22:06Z</time>
      </trkpt>
      <trkpt lat="43.39978" lon="6.71622">
        <ele>12.9</ele>
        <time>2016-10-09T14:22:08Z</time>
      </trkpt>
      <trkpt lat="43.39978" lon="6.7163">
        <ele>13.3</ele>
        <time>2016-10-09T14:22:10Z</time>
      </trkpt>
      <trkpt lat="43.3998" lon="6.71636">
        <ele>13.6</ele>
        <time>2016-10-09T14:22:12Z</time>
      </trkpt>
      <trkpt lat="43.3998" lon="6.71641">
        <ele>13.8</ele>
        <time>2016-10-09T14:22:14Z</time>
      </trkpt>
      <trkpt lat="43.39982" lon="6.71644">
        <ele>14</ele>
        <time>2016-10-09T14:22:16Z</time>
      </trkpt>
      <trkpt lat="43.39981" lon="6.71642">
        <ele>14.1</ele>
        <time>2016-10-09T14:22:20Z</time>
      </trkpt>
      <trkpt lat="43.3998" lon="6.71635">
        <ele>14.1</ele>
        <time>2016-10-09T14:22:22Z</time>
      </trkpt>
      <trkpt lat="43.3998" lon="6.71633">
        <ele>14.2</ele>
        <time>2016-10-09T14:22:24Z</time>
      </trkpt>
      <trkpt lat="43.39982" lon="6.71639">
        <ele>14.3</ele>
        <time>2016-10-09T14:22:32Z</time>
      </trkpt>
      <trkpt lat="43.39983" lon="6.71645">
        <ele>14.4</ele>
        <time>2016-10-09T14:22:36Z</time>
      </trkpt>
      <trkpt lat="43.39984" lon="6.71651">
        <ele>14.7</ele>
        <time>2016-10-09T14:22:38Z</time>
      </trkpt>
      <trkpt lat="43.39984" lon="6.71668">
        <ele>15</ele>
        <time>2016-10-09T14:22:40Z</time>
      </trkpt>
      <trkpt lat="43.39983" lon="6.71677">
        <ele>15</ele>
        <time>2016-10-09T14:22:42Z</time>
      </trkpt>
      <trkpt lat="43.39982" lon="6.71685">
        <ele>15</ele>
        <time>2016-10-09T14:22:44Z</time>
      </trkpt>
      <trkpt lat="43.39982" lon="6.71693">
        <ele>15</ele>
        <time>2016-10-09T14:22:46Z</time>
      </trkpt>
      <trkpt lat="43.39982" lon="6.71701">
        <ele>15</ele>
        <time>2016-10-09T14:22:48Z</time>
      </trkpt>
      <trkpt lat="43.39982" lon="6.71708">
        <ele>15</ele>
        <time>2016-10-09T14:22:50Z</time>
      </trkpt>
      <trkpt lat="43.39981" lon="6.71713">
        <ele>15</ele>
        <time>2016-10-09T14:22:52Z</time>
      </trkpt>
      <trkpt lat="43.3998" lon="6.71717">
        <ele>15</ele>
        <time>2016-10-09T14:22:54Z</time>
      </trkpt>
      <trkpt lat="43.39978" lon="6.71723">
        <ele>15</ele>
        <time>2016-10-09T14:22:56Z</time>
      </trkpt>
      <trkpt lat="43.39976" lon="6.71728">
        <ele>15</ele>
        <time>2016-10-09T14:22:58Z</time>
      </trkpt>
      <trkpt lat="43.39974" lon="6.71734">
        <ele>14.9</ele>
        <time>2016-10-09T14:23:00Z</time>
      </trkpt>
      <trkpt lat="43.39972" lon="6.71739">
        <ele>14.6</ele>
        <time>2016-10-09T14:23:02Z</time>
      </trkpt>
      <trkpt lat="43.39969" lon="6.71744">
        <ele>14.2</ele>
        <time>2016-10-09T14:23:04Z</time>
      </trkpt>
      <trkpt lat="43.39966" lon="6.71748">
        <ele>13.9</ele>
        <time>2016-10-09T14:23:06Z</time>
      </trkpt>
      <trkpt lat="43.39965" lon="6.71752">
        <ele>13.7</ele>
        <time>2016-10-09T14:23:08Z</time>
      </trkpt>
      <trkpt lat="43.39963" lon="6.71756">
        <ele>13.4</ele>
        <time>2016-10-09T14:23:10Z</time>
      </trkpt>
      <trkpt lat="43.39962" lon="6.7176">
        <ele>13.2</ele>
        <time>2016-10-09T14:23:12Z</time>
      </trkpt>
      <trkpt lat="43.39961" lon="6.71764">
        <ele>13</ele>
        <time>2016-10-09T14:23:14Z</time>
      </trkpt>
      <trkpt lat="43.39961" lon="6.71768">
        <ele>12.8</ele>
        <time>2016-10-09T14:23:16Z</time>
      </trkpt>
      <trkpt lat="43.39959" lon="6.7177">
        <ele>12.6</ele>
        <time>2016-10-09T14:23:18Z</time>
      </trkpt>
      <trkpt lat="43.39953" lon="6.71774">
        <ele>12.1</ele>
        <time>2016-10-09T14:25:30Z</time>
      </trkpt>
      <trkpt lat="43.39939" lon="6.71773">
        <ele>12</ele>
        <time>2016-10-09T14:25:32Z</time>
      </trkpt>
      <trkpt lat="43.39935" lon="6.7177">
        <ele>12</ele>
        <time>2016-10-09T14:25:34Z</time>
      </trkpt>
      <trkpt lat="43.39929" lon="6.71768">
        <ele>15</ele>
        <time>2016-10-09T14:25:36Z</time>
      </trkpt>
      <trkpt lat="43.39924" lon="6.71766">
        <ele>15.7</ele>
        <time>2016-10-09T14:25:38Z</time>
      </trkpt>
      <trkpt lat="43.3992" lon="6.71764">
        <ele>15.8</ele>
        <time>2016-10-09T14:25:40Z</time>
      </trkpt>
      <trkpt lat="43.39916" lon="6.71762">
        <ele>15.9</ele>
        <time>2016-10-09T14:25:42Z</time>
      </trkpt>
      <trkpt lat="43.39912" lon="6.7176">
        <ele>16</ele>
        <time>2016-10-09T14:25:44Z</time>
      </trkpt>
      <trkpt lat="43.39909" lon="6.7176">
        <ele>16</ele>
        <time>2016-10-09T14:25:46Z</time>
      </trkpt>
      <trkpt lat="43.39908" lon="6.7176">
        <ele>16</ele>
        <time>2016-10-09T14:25:48Z</time>
      </trkpt>
      <trkpt lat="43.39908" lon="6.71761">
        <ele>16.1</ele>
        <time>2016-10-09T14:25:50Z</time>
      </trkpt>
      <trkpt lat="43.39908" lon="6.71762">
        <ele>16.1</ele>
        <time>2016-10-09T14:25:52Z</time>
      </trkpt>
      <trkpt lat="43.39909" lon="6.71763">
        <ele>16</ele>
        <time>2016-10-09T14:25:54Z</time>
      </trkpt>
      <trkpt lat="43.39911" lon="6.71764">
        <ele>16</ele>
        <time>2016-10-09T14:25:58Z</time>
      </trkpt>
      <trkpt lat="43.39921" lon="6.71771">
        <ele>15.8</ele>
        <time>2016-10-09T14:26:16Z</time>
      </trkpt>
      <trkpt lat="43.39924" lon="6.71773">
        <ele>15.8</ele>
        <time>2016-10-09T14:26:18Z</time>
      </trkpt>
      <trkpt lat="43.39941" lon="6.71787">
        <ele>13.2</ele>
        <time>2016-10-09T14:26:20Z</time>
      </trkpt>
      <trkpt lat="43.39944" lon="6.71789">
        <ele>12</ele>
        <time>2016-10-09T14:26:22Z</time>
      </trkpt>
      <trkpt lat="43.39945" lon="6.71789">
        <ele>12</ele>
        <time>2016-10-09T14:26:24Z</time>
      </trkpt>
      <trkpt lat="43.39946" lon="6.71785">
        <ele>12</ele>
        <time>2016-10-09T14:26:26Z</time>
      </trkpt>
      <trkpt lat="43.39946" lon="6.71781">
        <ele>12</ele>
        <time>2016-10-09T14:26:28Z</time>
      </trkpt>
      <trkpt lat="43.39947" lon="6.71781">
        <ele>12</ele>
        <time>2016-10-09T14:26:30Z</time>
      </trkpt>
      <trkpt lat="43.39948" lon="6.71784">
        <ele>12</ele>
        <time>2016-10-09T14:26:32Z</time>
      </trkpt>
      <trkpt lat="43.39947" lon="6.71784">
        <ele>12</ele>
        <time>2016-10-09T14:26:37Z</time>
      </trkpt>
      <trkpt lat="43.39948" lon="6.71788">
        <ele>12</ele>
        <time>2016-10-09T14:26:47Z</time>
      </trkpt>
      <trkpt lat="43.39946" lon="6.71794">
        <ele>12</ele>
        <time>2016-10-09T14:27:07Z</time>
      </trkpt>
      <trkpt lat="43.39946" lon="6.71795">
        <ele>12</ele>
        <time>2016-10-09T14:27:11Z</time>
      </trkpt>
      <trkpt lat="43.39946" lon="6.71792">
        <ele>12</ele>
        <time>2016-10-09T14:27:13Z</time>
      </trkpt>
      <trkpt lat="43.39946" lon="6.71788">
        <ele>12.6</ele>
        <time>2016-10-09T14:27:15Z</time>
      </trkpt>
      <trkpt lat="43.39947" lon="6.71792">
        <ele>12.6</ele>
        <time>2016-10-09T14:27:17Z</time>
      </trkpt>
      <trkpt lat="43.39949" lon="6.71796">
        <ele>12.6</ele>
        <time>2016-10-09T14:27:19Z</time>
      </trkpt>
      <trkpt lat="43.3995" lon="6.71799">
        <ele>12.6</ele>
        <time>2016-10-09T14:27:21Z</time>
      </trkpt>
      <trkpt lat="43.39949" lon="6.71799">
        <ele>12.6</ele>
        <time>2016-10-09T14:27:25Z</time>
      </trkpt>
      <trkpt lat="43.39948" lon="6.71798">
        <ele>12.6</ele>
        <time>2016-10-09T14:27:29Z</time>
      </trkpt>
      <trkpt lat="43.39948" lon="6.71796">
        <ele>12.6</ele>
        <time>2016-10-09T14:27:31Z</time>
      </trkpt>
      <trkpt lat="43.39946" lon="6.71797">
        <ele>12.6</ele>
        <time>2016-10-09T14:27:37Z</time>
      </trkpt>
      <trkpt lat="43.39945" lon="6.71791">
        <ele>12.6</ele>
        <time>2016-10-09T14:27:48Z</time>
      </trkpt>
      <trkpt lat="43.39946" lon="6.71788">
        <ele>12.6</ele>
        <time>2016-10-09T14:27:52Z</time>
      </trkpt>
      <trkpt lat="43.39947" lon="6.71787">
        <ele>12.6</ele>
        <time>2016-10-09T14:27:56Z</time>
      </trkpt>
      <trkpt lat="43.39943" lon="6.71788">
        <ele>12</ele>
        <time>2016-10-09T14:27:58Z</time>
      </trkpt>
      <trkpt lat="43.39938" lon="6.7179">
        <ele>14</ele>
        <time>2016-10-09T14:28:00Z</time>
      </trkpt>
      <trkpt lat="43.39934" lon="6.71795">
        <ele>14.9</ele>
        <time>2016-10-09T14:28:02Z</time>
      </trkpt>
      <trkpt lat="43.39929" lon="6.718">
        <ele>15.8</ele>
        <time>2016-10-09T14:28:04Z</time>
      </trkpt>
      <trkpt lat="43.39925" lon="6.71806">
        <ele>16.8</ele>
        <time>2016-10-09T14:28:06Z</time>
      </trkpt>
      <trkpt lat="43.39919" lon="6.71812">
        <ele>17.9</ele>
        <time>2016-10-09T14:28:08Z</time>
      </trkpt>
      <trkpt lat="43.39914" lon="6.71817">
        <ele>19</ele>
        <time>2016-10-09T14:28:10Z</time>
      </trkpt>
      <trkpt lat="43.39909" lon="6.71824">
        <ele>18.6</ele>
        <time>2016-10-09T14:28:12Z</time>
      </trkpt>
      <trkpt lat="43.39905" lon="6.7183">
        <ele>18.4</ele>
        <time>2016-10-09T14:28:14Z</time>
      </trkpt>
      <trkpt lat="43.39901" lon="6.71836">
        <ele>18.2</ele>
        <time>2016-10-09T14:28:16Z</time>
      </trkpt>
      <trkpt lat="43.39896" lon="6.71841">
        <ele>18.1</ele>
        <time>2016-10-09T14:28:18Z</time>
      </trkpt>
      <trkpt lat="43.3989" lon="6.71846">
        <ele>17.9</ele>
        <time>2016-10-09T14:28:20Z</time>
      </trkpt>
      <trkpt lat="43.39883" lon="6.7185">
        <ele>17.8</ele>
        <time>2016-10-09T14:28:22Z</time>
      </trkpt>
      <trkpt lat="43.39876" lon="6.71853">
        <ele>17.6</ele>
        <time>2016-10-09T14:28:24Z</time>
      </trkpt>
      <trkpt lat="43.3987" lon="6.71857">
        <ele>17.4</ele>
        <time>2016-10-09T14:28:26Z</time>
      </trkpt>
      <trkpt lat="43.39862" lon="6.7186">
        <ele>17.3</ele>
        <time>2016-10-09T14:28:28Z</time>
      </trkpt>
      <trkpt lat="43.39855" lon="6.71862">
        <ele>17.1</ele>
        <time>2016-10-09T14:28:30Z</time>
      </trkpt>
      <trkpt lat="43.39848" lon="6.71863">
        <ele>16.9</ele>
        <time>2016-10-09T14:28:32Z</time>
      </trkpt>
      <trkpt lat="43.39841" lon="6.71865">
        <ele>16.8</ele>
        <time>2016-10-09T14:28:34Z</time>
      </trkpt>
      <trkpt lat="43.39834" lon="6.71866">
        <ele>16.7</ele>
        <time>2016-10-09T14:28:36Z</time>
      </trkpt>
      <trkpt lat="43.39827" lon="6.71868">
        <ele>16.5</ele>
        <time>2016-10-09T14:28:38Z</time>
      </trkpt>
      <trkpt lat="43.39819" lon="6.71871">
        <ele>16.3</ele>
        <time>2016-10-09T14:28:40Z</time>
      </trkpt>
      <trkpt lat="43.39812" lon="6.71873">
        <ele>16.2</ele>
        <time>2016-10-09T14:28:42Z</time>
      </trkpt>
      <trkpt lat="43.39805" lon="6.71875">
        <ele>16</ele>
        <time>2016-10-09T14:28:44Z</time>
      </trkpt>
      <trkpt lat="43.39797" lon="6.71878">
        <ele>15.9</ele>
        <time>2016-10-09T14:28:46Z</time>
      </trkpt>
      <trkpt lat="43.39789" lon="6.7188">
        <ele>15.7</ele>
        <time>2016-10-09T14:28:48Z</time>
      </trkpt>
      <trkpt lat="43.39782" lon="6.71883">
        <ele>15.5</ele>
        <time>2016-10-09T14:28:50Z</time>
      </trkpt>
      <trkpt lat="43.39774" lon="6.71886">
        <ele>15.3</ele>
        <time>2016-10-09T14:28:52Z</time>
      </trkpt>
      <trkpt lat="43.39767" lon="6.71889">
        <ele>15.1</ele>
        <time>2016-10-09T14:28:54Z</time>
      </trkpt>
      <trkpt lat="43.39759" lon="6.71891">
        <ele>14.9</ele>
        <time>2016-10-09T14:28:56Z</time>
      </trkpt>
      <trkpt lat="43.39752" lon="6.71893">
        <ele>14.5</ele>
        <time>2016-10-09T14:28:58Z</time>
      </trkpt>
      <trkpt lat="43.39745" lon="6.71894">
        <ele>14.1</ele>
        <time>2016-10-09T14:29:00Z</time>
      </trkpt>
      <trkpt lat="43.39738" lon="6.71896">
        <ele>13.6</ele>
        <time>2016-10-09T14:29:02Z</time>
      </trkpt>
      <trkpt lat="43.39731" lon="6.71897">
        <ele>13.2</ele>
        <time>2016-10-09T14:29:04Z</time>
      </trkpt>
      <trkpt lat="43.39724" lon="6.71899">
        <ele>12.7</ele>
        <time>2016-10-09T14:29:06Z</time>
      </trkpt>
      <trkpt lat="43.39718" lon="6.719">
        <ele>12.4</ele>
        <time>2016-10-09T14:29:08Z</time>
      </trkpt>
      <trkpt lat="43.39711" lon="6.719">
        <ele>12.2</ele>
        <time>2016-10-09T14:29:10Z</time>
      </trkpt>
      <trkpt lat="43.39706" lon="6.71904">
        <ele>11.9</ele>
        <time>2016-10-09T14:29:12Z</time>
      </trkpt>
      <trkpt lat="43.39703" lon="6.71915">
        <ele>11.6</ele>
        <time>2016-10-09T14:29:14Z</time>
      </trkpt>
      <trkpt lat="43.397" lon="6.71931">
        <ele>10.6</ele>
        <time>2016-10-09T14:29:16Z</time>
      </trkpt>
      <trkpt lat="43.39698" lon="6.71948">
        <ele>9.9</ele>
        <time>2016-10-09T14:29:18Z</time>
      </trkpt>
      <trkpt lat="43.39695" lon="6.71964">
        <ele>9.8</ele>
        <time>2016-10-09T14:29:20Z</time>
      </trkpt>
      <trkpt lat="43.39695" lon="6.71979">
        <ele>9.7</ele>
        <time>2016-10-09T14:29:22Z</time>
      </trkpt>
      <trkpt lat="43.39695" lon="6.71987">
        <ele>9.6</ele>
        <time>2016-10-09T14:29:24Z</time>
      </trkpt>
      <trkpt lat="43.39692" lon="6.71997">
        <ele>9.5</ele>
        <time>2016-10-09T14:29:26Z</time>
      </trkpt>
      <trkpt lat="43.39689" lon="6.7201">
        <ele>9.3</ele>
        <time>2016-10-09T14:29:28Z</time>
      </trkpt>
      <trkpt lat="43.39685" lon="6.72023">
        <ele>9</ele>
        <time>2016-10-09T14:29:30Z</time>
      </trkpt>
      <trkpt lat="43.39682" lon="6.72036">
        <ele>9.2</ele>
        <time>2016-10-09T14:29:32Z</time>
      </trkpt>
      <trkpt lat="43.39681" lon="6.72049">
        <ele>9.4</ele>
        <time>2016-10-09T14:29:34Z</time>
      </trkpt>
      <trkpt lat="43.39679" lon="6.72064">
        <ele>9.7</ele>
        <time>2016-10-09T14:29:36Z</time>
      </trkpt>
      <trkpt lat="43.39679" lon="6.72078">
        <ele>9.9</ele>
        <time>2016-10-09T14:29:38Z</time>
      </trkpt>
      <trkpt lat="43.39676" lon="6.72091">
        <ele>9.9</ele>
        <time>2016-10-09T14:29:40Z</time>
      </trkpt>
      <trkpt lat="43.39674" lon="6.72106">
        <ele>9.7</ele>
        <time>2016-10-09T14:29:42Z</time>
      </trkpt>
      <trkpt lat="43.39672" lon="6.72121">
        <ele>9.5</ele>
        <time>2016-10-09T14:29:44Z</time>
      </trkpt>
      <trkpt lat="43.39673" lon="6.72137">
        <ele>9.2</ele>
        <time>2016-10-09T14:29:46Z</time>
      </trkpt>
      <trkpt lat="43.39671" lon="6.7215">
        <ele>8.5</ele>
        <time>2016-10-09T14:29:48Z</time>
      </trkpt>
      <trkpt lat="43.39668" lon="6.72164">
        <ele>7.5</ele>
        <time>2016-10-09T14:29:50Z</time>
      </trkpt>
      <trkpt lat="43.39666" lon="6.72179">
        <ele>6.8</ele>
        <time>2016-10-09T14:29:52Z</time>
      </trkpt>
      <trkpt lat="43.39663" lon="6.72193">
        <ele>6.6</ele>
        <time>2016-10-09T14:29:54Z</time>
      </trkpt>
      <trkpt lat="43.3966" lon="6.72205">
        <ele>6.4</ele>
        <time>2016-10-09T14:29:56Z</time>
      </trkpt>
      <trkpt lat="43.39656" lon="6.72218">
        <ele>6</ele>
        <time>2016-10-09T14:29:58Z</time>
      </trkpt>
      <trkpt lat="43.39653" lon="6.72231">
        <ele>5.6</ele>
        <time>2016-10-09T14:30:00Z</time>
      </trkpt>
      <trkpt lat="43.3965" lon="6.72246">
        <ele>5</ele>
        <time>2016-10-09T14:30:02Z</time>
      </trkpt>
      <trkpt lat="43.39648" lon="6.72261">
        <ele>4.6</ele>
        <time>2016-10-09T14:30:04Z</time>
      </trkpt>
      <trkpt lat="43.39645" lon="6.72276">
        <ele>4.2</ele>
        <time>2016-10-09T14:30:06Z</time>
      </trkpt>
      <trkpt lat="43.39642" lon="6.72291">
        <ele>3.4</ele>
        <time>2016-10-09T14:30:08Z</time>
      </trkpt>
      <trkpt lat="43.39641" lon="6.72306">
        <ele>2.7</ele>
        <time>2016-10-09T14:30:10Z</time>
      </trkpt>
      <trkpt lat="43.39639" lon="6.72321">
        <ele>2.2</ele>
        <time>2016-10-09T14:30:12Z</time>
      </trkpt>
      <trkpt lat="43.39636" lon="6.72336">
        <ele>2</ele>
        <time>2016-10-09T14:30:14Z</time>
      </trkpt>
      <trkpt lat="43.39634" lon="6.72351">
        <ele>2</ele>
        <time>2016-10-09T14:30:16Z</time>
      </trkpt>
      <trkpt lat="43.39631" lon="6.72365">
        <ele>2.1</ele>
        <time>2016-10-09T14:30:18Z</time>
      </trkpt>
      <trkpt lat="43.39629" lon="6.72379">
        <ele>2.4</ele>
        <time>2016-10-09T14:30:20Z</time>
      </trkpt>
      <trkpt lat="43.39626" lon="6.72392">
        <ele>2.5</ele>
        <time>2016-10-09T14:30:22Z</time>
      </trkpt>
      <trkpt lat="43.39623" lon="6.72406">
        <ele>2.7</ele>
        <time>2016-10-09T14:30:24Z</time>
      </trkpt>
      <trkpt lat="43.3962" lon="6.7242">
        <ele>2.9</ele>
        <time>2016-10-09T14:30:26Z</time>
      </trkpt>
      <trkpt lat="43.39618" lon="6.72433">
        <ele>3</ele>
        <time>2016-10-09T14:30:28Z</time>
      </trkpt>
      <trkpt lat="43.39616" lon="6.72446">
        <ele>3</ele>
        <time>2016-10-09T14:30:30Z</time>
      </trkpt>
      <trkpt lat="43.39613" lon="6.7246">
        <ele>3</ele>
        <time>2016-10-09T14:30:32Z</time>
      </trkpt>
      <trkpt lat="43.39612" lon="6.72472">
        <ele>3.1</ele>
        <time>2016-10-09T14:30:34Z</time>
      </trkpt>
      <trkpt lat="43.3961" lon="6.72484">
        <ele>3.1</ele>
        <time>2016-10-09T14:30:36Z</time>
      </trkpt>
      <trkpt lat="43.39608" lon="6.72496">
        <ele>3.1</ele>
        <time>2016-10-09T14:30:38Z</time>
      </trkpt>
      <trkpt lat="43.39607" lon="6.72508">
        <ele>3.2</ele>
        <time>2016-10-09T14:30:40Z</time>
      </trkpt>
      <trkpt lat="43.39604" lon="6.72519">
        <ele>3.2</ele>
        <time>2016-10-09T14:30:42Z</time>
      </trkpt>
      <trkpt lat="43.39601" lon="6.7253">
        <ele>3.3</ele>
        <time>2016-10-09T14:30:44Z</time>
      </trkpt>
      <trkpt lat="43.39598" lon="6.72541">
        <ele>3.3</ele>
        <time>2016-10-09T14:30:46Z</time>
      </trkpt>
      <trkpt lat="43.39593" lon="6.72552">
        <ele>3.4</ele>
        <time>2016-10-09T14:30:48Z</time>
      </trkpt>
      <trkpt lat="43.39588" lon="6.72563">
        <ele>3.4</ele>
        <time>2016-10-09T14:30:50Z</time>
      </trkpt>
      <trkpt lat="43.39585" lon="6.72576">
        <ele>3.5</ele>
        <time>2016-10-09T14:30:52Z</time>
      </trkpt>
      <trkpt lat="43.39582" lon="6.7259">
        <ele>3.6</ele>
        <time>2016-10-09T14:30:54Z</time>
      </trkpt>
      <trkpt lat="43.39576" lon="6.72601">
        <ele>3.8</ele>
        <time>2016-10-09T14:30:56Z</time>
      </trkpt>
      <trkpt lat="43.39567" lon="6.72604">
        <ele>3.9</ele>
        <time>2016-10-09T14:30:58Z</time>
      </trkpt>
      <trkpt lat="43.39557" lon="6.72602">
        <ele>4</ele>
        <time>2016-10-09T14:31:00Z</time>
      </trkpt>
      <trkpt lat="43.39547" lon="6.72599">
        <ele>4</ele>
        <time>2016-10-09T14:31:02Z</time>
      </trkpt>
      <trkpt lat="43.39537" lon="6.72597">
        <ele>4</ele>
        <time>2016-10-09T14:31:04Z</time>
      </trkpt>
      <trkpt lat="43.39528" lon="6.72594">
        <ele>4</ele>
        <time>2016-10-09T14:31:06Z</time>
      </trkpt>
      <trkpt lat="43.39517" lon="6.72592">
        <ele>4</ele>
        <time>2016-10-09T14:31:08Z</time>
      </trkpt>
      <trkpt lat="43.39507" lon="6.72591">
        <ele>4.4</ele>
        <time>2016-10-09T14:31:10Z</time>
      </trkpt>
      <trkpt lat="43.39497" lon="6.72592">
        <ele>4.9</ele>
        <time>2016-10-09T14:31:12Z</time>
      </trkpt>
      <trkpt lat="43.39486" lon="6.72595">
        <ele>5</ele>
        <time>2016-10-09T14:31:14Z</time>
      </trkpt>
      <trkpt lat="43.39475" lon="6.72601">
        <ele>5</ele>
        <time>2016-10-09T14:31:16Z</time>
      </trkpt>
      <trkpt lat="43.39465" lon="6.72606">
        <ele>5</ele>
        <time>2016-10-09T14:31:18Z</time>
      </trkpt>
      <trkpt lat="43.39454" lon="6.7261">
        <ele>5</ele>
        <time>2016-10-09T14:31:20Z</time>
      </trkpt>
      <trkpt lat="43.39443" lon="6.72614">
        <ele>5</ele>
        <time>2016-10-09T14:31:22Z</time>
      </trkpt>
      <trkpt lat="43.39432" lon="6.72618">
        <ele>4.8</ele>
        <time>2016-10-09T14:31:24Z</time>
      </trkpt>
      <trkpt lat="43.39421" lon="6.72623">
        <ele>4.4</ele>
        <time>2016-10-09T14:31:26Z</time>
      </trkpt>
      <trkpt lat="43.3941" lon="6.72626">
        <ele>4</ele>
        <time>2016-10-09T14:31:28Z</time>
      </trkpt>
      <trkpt lat="43.394" lon="6.7263">
        <ele>4</ele>
        <time>2016-10-09T14:31:30Z</time>
      </trkpt>
      <trkpt lat="43.3939" lon="6.72633">
        <ele>4</ele>
        <time>2016-10-09T14:31:32Z</time>
      </trkpt>
      <trkpt lat="43.39382" lon="6.72636">
        <ele>4</ele>
        <time>2016-10-09T14:31:34Z</time>
      </trkpt>
      <trkpt lat="43.39375" lon="6.72639">
        <ele>4</ele>
        <time>2016-10-09T14:31:36Z</time>
      </trkpt>
      <trkpt lat="43.39366" lon="6.72642">
        <ele>4.1</ele>
        <time>2016-10-09T14:31:38Z</time>
      </trkpt>
      <trkpt lat="43.39358" lon="6.72648">
        <ele>4.4</ele>
        <time>2016-10-09T14:31:40Z</time>
      </trkpt>
      <trkpt lat="43.3935" lon="6.72656">
        <ele>4.8</ele>
        <time>2016-10-09T14:31:42Z</time>
      </trkpt>
      <trkpt lat="43.39342" lon="6.72663">
        <ele>5.1</ele>
        <time>2016-10-09T14:31:44Z</time>
      </trkpt>
      <trkpt lat="43.39333" lon="6.72668">
        <ele>5.5</ele>
        <time>2016-10-09T14:31:46Z</time>
      </trkpt>
      <trkpt lat="43.39325" lon="6.72671">
        <ele>5.7</ele>
        <time>2016-10-09T14:31:48Z</time>
      </trkpt>
      <trkpt lat="43.39317" lon="6.72673">
        <ele>5.9</ele>
        <time>2016-10-09T14:31:50Z</time>
      </trkpt>
      <trkpt lat="43.39309" lon="6.72673">
        <ele>6.2</ele>
        <time>2016-10-09T14:31:52Z</time>
      </trkpt>
      <trkpt lat="43.39301" lon="6.72674">
        <ele>6.5</ele>
        <time>2016-10-09T14:31:54Z</time>
      </trkpt>
      <trkpt lat="43.39293" lon="6.72674">
        <ele>6.8</ele>
        <time>2016-10-09T14:31:56Z</time>
      </trkpt>
      <trkpt lat="43.39285" lon="6.72673">
        <ele>7.2</ele>
        <time>2016-10-09T14:31:58Z</time>
      </trkpt>
      <trkpt lat="43.39275" lon="6.72672">
        <ele>7.6</ele>
        <time>2016-10-09T14:32:00Z</time>
      </trkpt>
      <trkpt lat="43.39267" lon="6.72671">
        <ele>8.1</ele>
        <time>2016-10-09T14:32:02Z</time>
      </trkpt>
      <trkpt lat="43.39258" lon="6.72672">
        <ele>9.1</ele>
        <time>2016-10-09T14:32:04Z</time>
      </trkpt>
      <trkpt lat="43.39251" lon="6.72675">
        <ele>10.3</ele>
        <time>2016-10-09T14:32:06Z</time>
      </trkpt>
      <trkpt lat="43.39245" lon="6.72683">
        <ele>11.2</ele>
        <time>2016-10-09T14:32:08Z</time>
      </trkpt>
      <trkpt lat="43.39245" lon="6.72692">
        <ele>12.3</ele>
        <time>2016-10-09T14:32:10Z</time>
      </trkpt>
      <trkpt lat="43.39249" lon="6.72701">
        <ele>12</ele>
        <time>2016-10-09T14:32:12Z</time>
      </trkpt>
      <trkpt lat="43.39257" lon="6.7271">
        <ele>11.3</ele>
        <time>2016-10-09T14:32:14Z</time>
      </trkpt>
      <trkpt lat="43.39264" lon="6.72718">
        <ele>9.8</ele>
        <time>2016-10-09T14:32:16Z</time>
      </trkpt>
      <trkpt lat="43.39271" lon="6.72725">
        <ele>9</ele>
        <time>2016-10-09T14:32:18Z</time>
      </trkpt>
      <trkpt lat="43.39277" lon="6.7273">
        <ele>8.8</ele>
        <time>2016-10-09T14:32:20Z</time>
      </trkpt>
      <trkpt lat="43.3928" lon="6.72736">
        <ele>8.7</ele>
        <time>2016-10-09T14:32:22Z</time>
      </trkpt>
      <trkpt lat="43.39282" lon="6.72741">
        <ele>8.6</ele>
        <time>2016-10-09T14:32:24Z</time>
      </trkpt>
      <trkpt lat="43.39285" lon="6.72748">
        <ele>8.4</ele>
        <time>2016-10-09T14:32:26Z</time>
      </trkpt>
      <trkpt lat="43.39285" lon="6.72755">
        <ele>8.3</ele>
        <time>2016-10-09T14:32:28Z</time>
      </trkpt>
      <trkpt lat="43.39283" lon="6.72762">
        <ele>8.2</ele>
        <time>2016-10-09T14:32:30Z</time>
      </trkpt>
      <trkpt lat="43.3928" lon="6.72769">
        <ele>8</ele>
        <time>2016-10-09T14:32:32Z</time>
      </trkpt>
      <trkpt lat="43.39277" lon="6.72773">
        <ele>8</ele>
        <time>2016-10-09T14:32:34Z</time>
      </trkpt>
      <trkpt lat="43.39276" lon="6.72776">
        <ele>7.9</ele>
        <time>2016-10-09T14:32:36Z</time>
      </trkpt>
      <trkpt lat="43.39275" lon="6.72777">
        <ele>7.9</ele>
        <time>2016-10-09T14:32:38Z</time>
      </trkpt>
      <trkpt lat="43.39274" lon="6.72779">
        <ele>7.9</ele>
        <time>2016-10-09T14:32:42Z</time>
      </trkpt>
      <trkpt lat="43.39272" lon="6.72782">
        <ele>7.8</ele>
        <time>2016-10-09T14:32:44Z</time>
      </trkpt>
      <trkpt lat="43.3927" lon="6.72786">
        <ele>7.8</ele>
        <time>2016-10-09T14:32:46Z</time>
      </trkpt>
      <trkpt lat="43.3927" lon="6.72789">
        <ele>7.7</ele>
        <time>2016-10-09T14:32:48Z</time>
      </trkpt>
      <trkpt lat="43.39269" lon="6.72793">
        <ele>7.7</ele>
        <time>2016-10-09T14:32:50Z</time>
      </trkpt>
      <trkpt lat="43.39268" lon="6.72798">
        <ele>7.6</ele>
        <time>2016-10-09T14:32:52Z</time>
      </trkpt>
      <trkpt lat="43.39266" lon="6.72804">
        <ele>7.5</ele>
        <time>2016-10-09T14:32:54Z</time>
      </trkpt>
      <trkpt lat="43.39265" lon="6.72809">
        <ele>7.5</ele>
        <time>2016-10-09T14:32:56Z</time>
      </trkpt>
      <trkpt lat="43.39263" lon="6.72815">
        <ele>7.4</ele>
        <time>2016-10-09T14:32:58Z</time>
      </trkpt>
      <trkpt lat="43.39262" lon="6.72819">
        <ele>7.3</ele>
        <time>2016-10-09T14:33:00Z</time>
      </trkpt>
      <trkpt lat="43.39262" lon="6.72822">
        <ele>7.3</ele>
        <time>2016-10-09T14:33:02Z</time>
      </trkpt>
      <trkpt lat="43.39262" lon="6.72824">
        <ele>7.3</ele>
        <time>2016-10-09T14:33:04Z</time>
      </trkpt>
      <trkpt lat="43.39261" lon="6.72827">
        <ele>7.2</ele>
        <time>2016-10-09T14:33:06Z</time>
      </trkpt>
      <trkpt lat="43.39261" lon="6.7283">
        <ele>7.2</ele>
        <time>2016-10-09T14:33:08Z</time>
      </trkpt>
      <trkpt lat="43.39259" lon="6.72835">
        <ele>7.1</ele>
        <time>2016-10-09T14:33:10Z</time>
      </trkpt>
      <trkpt lat="43.39257" lon="6.72838">
        <ele>7.1</ele>
        <time>2016-10-09T14:33:12Z</time>
      </trkpt>
      <trkpt lat="43.39255" lon="6.72842">
        <ele>7.2</ele>
        <time>2016-10-09T14:33:14Z</time>
      </trkpt>
      <trkpt lat="43.39253" lon="6.72846">
        <ele>7.7</ele>
        <time>2016-10-09T14:33:16Z</time>
      </trkpt>
      <trkpt lat="43.39251" lon="6.7285">
        <ele>8.2</ele>
        <time>2016-10-09T14:33:18Z</time>
      </trkpt>
      <trkpt lat="43.39249" lon="6.72853">
        <ele>8.7</ele>
        <time>2016-10-09T14:33:20Z</time>
      </trkpt>
      <trkpt lat="43.39247" lon="6.72856">
        <ele>9.2</ele>
        <time>2016-10-09T14:33:22Z</time>
      </trkpt>
      <trkpt lat="43.39245" lon="6.72859">
        <ele>9.7</ele>
        <time>2016-10-09T14:33:24Z</time>
      </trkpt>
      <trkpt lat="43.39242" lon="6.7286">
        <ele>10.1</ele>
        <time>2016-10-09T14:33:26Z</time>
      </trkpt>
      <trkpt lat="43.3924" lon="6.7286">
        <ele>10.5</ele>
        <time>2016-10-09T14:33:28Z</time>
      </trkpt>
      <trkpt lat="43.39238" lon="6.72859">
        <ele>10.7</ele>
        <time>2016-10-09T14:33:30Z</time>
      </trkpt>
      <trkpt lat="43.39237" lon="6.72857">
        <ele>11.1</ele>
        <time>2016-10-09T14:33:32Z</time>
      </trkpt>
      <trkpt lat="43.39236" lon="6.72855">
        <ele>11.3</ele>
        <time>2016-10-09T14:33:34Z</time>
      </trkpt>
      <trkpt lat="43.39234" lon="6.72854">
        <ele>11.6</ele>
        <time>2016-10-09T14:33:36Z</time>
      </trkpt>
      <trkpt lat="43.39233" lon="6.72853">
        <ele>11.8</ele>
        <time>2016-10-09T14:33:38Z</time>
      </trkpt>
      <trkpt lat="43.3923" lon="6.72851">
        <ele>12.3</ele>
        <time>2016-10-09T14:33:44Z</time>
      </trkpt>
      <trkpt lat="43.39228" lon="6.72849">
        <ele>12.7</ele>
        <time>2016-10-09T14:33:46Z</time>
      </trkpt>
      <trkpt lat="43.39227" lon="6.72847">
        <ele>13</ele>
        <time>2016-10-09T14:33:48Z</time>
      </trkpt>
      <trkpt lat="43.39225" lon="6.72844">
        <ele>13.4</ele>
        <time>2016-10-09T14:33:51Z</time>
      </trkpt>
      <trkpt lat="43.39224" lon="6.72839">
        <ele>14</ele>
        <time>2016-10-09T14:34:04Z</time>
      </trkpt>
      <trkpt lat="43.39222" lon="6.72834">
        <ele>14.7</ele>
        <time>2016-10-09T14:34:10Z</time>
      </trkpt>
      <trkpt lat="43.39221" lon="6.72832">
        <ele>15</ele>
        <time>2016-10-09T14:34:12Z</time>
      </trkpt>
      <trkpt lat="43.39219" lon="6.7283">
        <ele>15</ele>
        <time>2016-10-09T14:34:14Z</time>
      </trkpt>
      <trkpt lat="43.39216" lon="6.72828">
        <ele>15</ele>
        <time>2016-10-09T14:34:16Z</time>
      </trkpt>
      <trkpt lat="43.39212" lon="6.72825">
        <ele>15</ele>
        <time>2016-10-09T14:34:18Z</time>
      </trkpt>
      <trkpt lat="43.39207" lon="6.72824">
        <ele>15</ele>
        <time>2016-10-09T14:34:20Z</time>
      </trkpt>
      <trkpt lat="43.39204" lon="6.72822">
        <ele>15</ele>
        <time>2016-10-09T14:34:22Z</time>
      </trkpt>
      <trkpt lat="43.39201" lon="6.72819">
        <ele>15</ele>
        <time>2016-10-09T14:34:24Z</time>
      </trkpt>
      <trkpt lat="43.39196" lon="6.72816">
        <ele>15</ele>
        <time>2016-10-09T14:34:26Z</time>
      </trkpt>
      <trkpt lat="43.39191" lon="6.72815">
        <ele>15</ele>
        <time>2016-10-09T14:34:28Z</time>
      </trkpt>
      <trkpt lat="43.39187" lon="6.72814">
        <ele>15</ele>
        <time>2016-10-09T14:34:30Z</time>
      </trkpt>
      <trkpt lat="43.39183" lon="6.72814">
        <ele>15</ele>
        <time>2016-10-09T14:34:32Z</time>
      </trkpt>
      <trkpt lat="43.39178" lon="6.72815">
        <ele>15</ele>
        <time>2016-10-09T14:34:34Z</time>
      </trkpt>
      <trkpt lat="43.39174" lon="6.72816">
        <ele>15</ele>
        <time>2016-10-09T14:34:36Z</time>
      </trkpt>
      <trkpt lat="43.39169" lon="6.72816">
        <ele>16.9</ele>
        <time>2016-10-09T14:34:38Z</time>
      </trkpt>
      <trkpt lat="43.39164" lon="6.72816">
        <ele>17.4</ele>
        <time>2016-10-09T14:34:40Z</time>
      </trkpt>
      <trkpt lat="43.39158" lon="6.72817">
        <ele>18</ele>
        <time>2016-10-09T14:34:42Z</time>
      </trkpt>
      <trkpt lat="43.39153" lon="6.7282">
        <ele>18.9</ele>
        <time>2016-10-09T14:34:44Z</time>
      </trkpt>
      <trkpt lat="43.3915" lon="6.72824">
        <ele>18.8</ele>
        <time>2016-10-09T14:34:46Z</time>
      </trkpt>
      <trkpt lat="43.39146" lon="6.72828">
        <ele>18.8</ele>
        <time>2016-10-09T14:34:48Z</time>
      </trkpt>
      <trkpt lat="43.39142" lon="6.72831">
        <ele>18.7</ele>
        <time>2016-10-09T14:34:50Z</time>
      </trkpt>
      <trkpt lat="43.39138" lon="6.72835">
        <ele>18.7</ele>
        <time>2016-10-09T14:34:52Z</time>
      </trkpt>
      <trkpt lat="43.39134" lon="6.72839">
        <ele>18.7</ele>
        <time>2016-10-09T14:34:54Z</time>
      </trkpt>
      <trkpt lat="43.3913" lon="6.72843">
        <ele>18.6</ele>
        <time>2016-10-09T14:34:56Z</time>
      </trkpt>
      <trkpt lat="43.39125" lon="6.72847">
        <ele>18.5</ele>
        <time>2016-10-09T14:34:58Z</time>
      </trkpt>
      <trkpt lat="43.39121" lon="6.72851">
        <ele>18.4</ele>
        <time>2016-10-09T14:35:00Z</time>
      </trkpt>
      <trkpt lat="43.39116" lon="6.72856">
        <ele>18.3</ele>
        <time>2016-10-09T14:35:02Z</time>
      </trkpt>
      <trkpt lat="43.39112" lon="6.72861">
        <ele>18.1</ele>
        <time>2016-10-09T14:35:04Z</time>
      </trkpt>
      <trkpt lat="43.39107" lon="6.72866">
        <ele>18.1</ele>
        <time>2016-10-09T14:35:06Z</time>
      </trkpt>
      <trkpt lat="43.39101" lon="6.72871">
        <ele>18.5</ele>
        <time>2016-10-09T14:35:08Z</time>
      </trkpt>
      <trkpt lat="43.39096" lon="6.72877">
        <ele>18.9</ele>
        <time>2016-10-09T14:35:10Z</time>
      </trkpt>
      <trkpt lat="43.39092" lon="6.72882">
        <ele>19.2</ele>
        <time>2016-10-09T14:35:12Z</time>
      </trkpt>
      <trkpt lat="43.39087" lon="6.72887">
        <ele>19.6</ele>
        <time>2016-10-09T14:35:14Z</time>
      </trkpt>
      <trkpt lat="43.3908" lon="6.72892">
        <ele>20</ele>
        <time>2016-10-09T14:35:16Z</time>
      </trkpt>
      <trkpt lat="43.39074" lon="6.72892">
        <ele>20.4</ele>
        <time>2016-10-09T14:35:18Z</time>
      </trkpt>
      <trkpt lat="43.39066" lon="6.72888">
        <ele>20.9</ele>
        <time>2016-10-09T14:35:20Z</time>
      </trkpt>
      <trkpt lat="43.39059" lon="6.72884">
        <ele>21</ele>
        <time>2016-10-09T14:35:22Z</time>
      </trkpt>
      <trkpt lat="43.39051" lon="6.72879">
        <ele>21</ele>
        <time>2016-10-09T14:35:24Z</time>
      </trkpt>
      <trkpt lat="43.39043" lon="6.72875">
        <ele>21</ele>
        <time>2016-10-09T14:35:26Z</time>
      </trkpt>
      <trkpt lat="43.39035" lon="6.72871">
        <ele>21</ele>
        <time>2016-10-09T14:35:28Z</time>
      </trkpt>
      <trkpt lat="43.39027" lon="6.72866">
        <ele>21</ele>
        <time>2016-10-09T14:35:30Z</time>
      </trkpt>
      <trkpt lat="43.39015" lon="6.72859">
        <ele>21</ele>
        <time>2016-10-09T14:35:33Z</time>
      </trkpt>
      <trkpt lat="43.39007" lon="6.72854">
        <ele>21</ele>
        <time>2016-10-09T14:35:35Z</time>
      </trkpt>
      <trkpt lat="43.38999" lon="6.7285">
        <ele>21</ele>
        <time>2016-10-09T14:35:37Z</time>
      </trkpt>
      <trkpt lat="43.38987" lon="6.72842">
        <ele>21</ele>
        <time>2016-10-09T14:35:40Z</time>
      </trkpt>
      <trkpt lat="43.38979" lon="6.72837">
        <ele>20.9</ele>
        <time>2016-10-09T14:35:42Z</time>
      </trkpt>
      <trkpt lat="43.38971" lon="6.72831">
        <ele>20.9</ele>
        <time>2016-10-09T14:35:44Z</time>
      </trkpt>
      <trkpt lat="43.38962" lon="6.72826">
        <ele>20.9</ele>
        <time>2016-10-09T14:35:46Z</time>
      </trkpt>
      <trkpt lat="43.38954" lon="6.72821">
        <ele>20.9</ele>
        <time>2016-10-09T14:35:48Z</time>
      </trkpt>
      <trkpt lat="43.38946" lon="6.72816">
        <ele>20.9</ele>
        <time>2016-10-09T14:35:50Z</time>
      </trkpt>
      <trkpt lat="43.38938" lon="6.72811">
        <ele>21.1</ele>
        <time>2016-10-09T14:35:52Z</time>
      </trkpt>
      <trkpt lat="43.38931" lon="6.72805">
        <ele>21.1</ele>
        <time>2016-10-09T14:35:54Z</time>
      </trkpt>
      <trkpt lat="43.38923" lon="6.72801">
        <ele>21.1</ele>
        <time>2016-10-09T14:35:56Z</time>
      </trkpt>
      <trkpt lat="43.38916" lon="6.72797">
        <ele>21.1</ele>
        <time>2016-10-09T14:35:58Z</time>
      </trkpt>
      <trkpt lat="43.38909" lon="6.72792">
        <ele>21.1</ele>
        <time>2016-10-09T14:36:00Z</time>
      </trkpt>
      <trkpt lat="43.38902" lon="6.72788">
        <ele>21</ele>
        <time>2016-10-09T14:36:02Z</time>
      </trkpt>
      <trkpt lat="43.38895" lon="6.72788">
        <ele>21</ele>
        <time>2016-10-09T14:36:04Z</time>
      </trkpt>
      <trkpt lat="43.38889" lon="6.72795">
        <ele>20</ele>
        <time>2016-10-09T14:36:06Z</time>
      </trkpt>
      <trkpt lat="43.38885" lon="6.72804">
        <ele>19.4</ele>
        <time>2016-10-09T14:36:08Z</time>
      </trkpt>
      <trkpt lat="43.38881" lon="6.72814">
        <ele>19.2</ele>
        <time>2016-10-09T14:36:10Z</time>
      </trkpt>
      <trkpt lat="43.38878" lon="6.72824">
        <ele>19</ele>
        <time>2016-10-09T14:36:12Z</time>
      </trkpt>
      <trkpt lat="43.38874" lon="6.72835">
        <ele>18.8</ele>
        <time>2016-10-09T14:36:14Z</time>
      </trkpt>
      <trkpt lat="43.3887" lon="6.72847">
        <ele>18.6</ele>
        <time>2016-10-09T14:36:16Z</time>
      </trkpt>
      <trkpt lat="43.38865" lon="6.72861">
        <ele>18.3</ele>
        <time>2016-10-09T14:36:18Z</time>
      </trkpt>
      <trkpt lat="43.3886" lon="6.72878">
        <ele>17.9</ele>
        <time>2016-10-09T14:36:20Z</time>
      </trkpt>
      <trkpt lat="43.38853" lon="6.72897">
        <ele>17.4</ele>
        <time>2016-10-09T14:36:22Z</time>
      </trkpt>
      <trkpt lat="43.38846" lon="6.72916">
        <ele>16.5</ele>
        <time>2016-10-09T14:36:24Z</time>
      </trkpt>
      <trkpt lat="43.38839" lon="6.72936">
        <ele>14.9</ele>
        <time>2016-10-09T14:36:26Z</time>
      </trkpt>
      <trkpt lat="43.38832" lon="6.72955">
        <ele>13</ele>
        <time>2016-10-09T14:36:28Z</time>
      </trkpt>
      <trkpt lat="43.38826" lon="6.72973">
        <ele>11.1</ele>
        <time>2016-10-09T14:36:30Z</time>
      </trkpt>
      <trkpt lat="43.3882" lon="6.72989">
        <ele>9.5</ele>
        <time>2016-10-09T14:36:32Z</time>
      </trkpt>
      <trkpt lat="43.38815" lon="6.73002">
        <ele>8.2</ele>
        <time>2016-10-09T14:36:34Z</time>
      </trkpt>
      <trkpt lat="43.38812" lon="6.73009">
        <ele>7.4</ele>
        <time>2016-10-09T14:36:36Z</time>
      </trkpt>
      <trkpt lat="43.38811" lon="6.73012">
        <ele>7</ele>
        <time>2016-10-09T14:36:38Z</time>
      </trkpt>
      <trkpt lat="43.3881" lon="6.73015">
        <ele>6.8</ele>
        <time>2016-10-09T14:36:40Z</time>
      </trkpt>
      <trkpt lat="43.38809" lon="6.73017">
        <ele>6.6</ele>
        <time>2016-10-09T14:36:42Z</time>
      </trkpt>
      <trkpt lat="43.38808" lon="6.73019">
        <ele>6.2</ele>
        <time>2016-10-09T14:36:44Z</time>
      </trkpt>
      <trkpt lat="43.38807" lon="6.73021">
        <ele>6.3</ele>
        <time>2016-10-09T14:36:46Z</time>
      </trkpt>
      <trkpt lat="43.38805" lon="6.73023">
        <ele>6.4</ele>
        <time>2016-10-09T14:36:52Z</time>
      </trkpt>
      <trkpt lat="43.38803" lon="6.73025">
        <ele>6.5</ele>
        <time>2016-10-09T14:36:54Z</time>
      </trkpt>
      <trkpt lat="43.38804" lon="6.73025">
        <ele>6.5</ele>
        <time>2016-10-09T14:36:58Z</time>
      </trkpt>
      <trkpt lat="43.38805" lon="6.73026">
        <ele>6.5</ele>
        <time>2016-10-09T14:37:00Z</time>
      </trkpt>
      <trkpt lat="43.38808" lon="6.73028">
        <ele>6.6</ele>
        <time>2016-10-09T14:37:02Z</time>
      </trkpt>
      <trkpt lat="43.3881" lon="6.7303">
        <ele>6.7</ele>
        <time>2016-10-09T14:37:04Z</time>
      </trkpt>
      <trkpt lat="43.38812" lon="6.73035">
        <ele>6.8</ele>
        <time>2016-10-09T14:37:06Z</time>
      </trkpt>
      <trkpt lat="43.38813" lon="6.73041">
        <ele>6.9</ele>
        <time>2016-10-09T14:37:08Z</time>
      </trkpt>
      <trkpt lat="43.38816" lon="6.73047">
        <ele>7</ele>
        <time>2016-10-09T14:37:10Z</time>
      </trkpt>
      <trkpt lat="43.3882" lon="6.73052">
        <ele>7.1</ele>
        <time>2016-10-09T14:37:12Z</time>
      </trkpt>
      <trkpt lat="43.38825" lon="6.73057">
        <ele>7.3</ele>
        <time>2016-10-09T14:37:14Z</time>
      </trkpt>
      <trkpt lat="43.38828" lon="6.73058">
        <ele>7.4</ele>
        <time>2016-10-09T14:37:16Z</time>
      </trkpt>
      <trkpt lat="43.38832" lon="6.73055">
        <ele>7.6</ele>
        <time>2016-10-09T14:37:18Z</time>
      </trkpt>
      <trkpt lat="43.38834" lon="6.73052">
        <ele>7.7</ele>
        <time>2016-10-09T14:37:20Z</time>
      </trkpt>
      <trkpt lat="43.38835" lon="6.73048">
        <ele>7.7</ele>
        <time>2016-10-09T14:37:22Z</time>
      </trkpt>
      <trkpt lat="43.38835" lon="6.73042">
        <ele>7.8</ele>
        <time>2016-10-09T14:37:24Z</time>
      </trkpt>
      <trkpt lat="43.38836" lon="6.73035">
        <ele>8</ele>
        <time>2016-10-09T14:37:26Z</time>
      </trkpt>
      <trkpt lat="43.38837" lon="6.73027">
        <ele>8.1</ele>
        <time>2016-10-09T14:37:28Z</time>
      </trkpt>
      <trkpt lat="43.38839" lon="6.73022">
        <ele>8.2</ele>
        <time>2016-10-09T14:37:30Z</time>
      </trkpt>
      <trkpt lat="43.38842" lon="6.7302">
        <ele>8.4</ele>
        <time>2016-10-09T14:37:32Z</time>
      </trkpt>
      <trkpt lat="43.38844" lon="6.73021">
        <ele>8.5</ele>
        <time>2016-10-09T14:37:34Z</time>
      </trkpt>
      <trkpt lat="43.38845" lon="6.73021">
        <ele>8.5</ele>
        <time>2016-10-09T14:37:37Z</time>
      </trkpt>
      <trkpt lat="43.38847" lon="6.73023">
        <ele>8.6</ele>
        <time>2016-10-09T14:37:43Z</time>
      </trkpt>
      <trkpt lat="43.38848" lon="6.73024">
        <ele>8.7</ele>
        <time>2016-10-09T14:37:45Z</time>
      </trkpt>
      <trkpt lat="43.38849" lon="6.73026">
        <ele>8.7</ele>
        <time>2016-10-09T14:37:47Z</time>
      </trkpt>
      <trkpt lat="43.3885" lon="6.73027">
        <ele>8.8</ele>
        <time>2016-10-09T14:37:49Z</time>
      </trkpt>
      <trkpt lat="43.38852" lon="6.73028">
        <ele>8.9</ele>
        <time>2016-10-09T14:37:51Z</time>
      </trkpt>
      <trkpt lat="43.38853" lon="6.7303">
        <ele>8.9</ele>
        <time>2016-10-09T14:37:53Z</time>
      </trkpt>
      <trkpt lat="43.38854" lon="6.7303">
        <ele>9</ele>
        <time>2016-10-09T14:37:55Z</time>
      </trkpt>
      <trkpt lat="43.38854" lon="6.73032">
        <ele>9.1</ele>
        <time>2016-10-09T14:37:57Z</time>
      </trkpt>
      <trkpt lat="43.38856" lon="6.73034">
        <ele>9.2</ele>
        <time>2016-10-09T14:37:59Z</time>
      </trkpt>
      <trkpt lat="43.38857" lon="6.73036">
        <ele>9.5</ele>
        <time>2016-10-09T14:38:01Z</time>
      </trkpt>
      <trkpt lat="43.38859" lon="6.7304">
        <ele>9.7</ele>
        <time>2016-10-09T14:38:03Z</time>
      </trkpt>
      <trkpt lat="43.38862" lon="6.73043">
        <ele>9.8</ele>
        <time>2016-10-09T14:38:05Z</time>
      </trkpt>
      <trkpt lat="43.38865" lon="6.73045">
        <ele>9.9</ele>
        <time>2016-10-09T14:38:07Z</time>
      </trkpt>
      <trkpt lat="43.38869" lon="6.73045">
        <ele>10.1</ele>
        <time>2016-10-09T14:38:09Z</time>
      </trkpt>
      <trkpt lat="43.38874" lon="6.73047">
        <ele>10.2</ele>
        <time>2016-10-09T14:38:11Z</time>
      </trkpt>
      <trkpt lat="43.38881" lon="6.7305">
        <ele>10.5</ele>
        <time>2016-10-09T14:38:13Z</time>
      </trkpt>
      <trkpt lat="43.38887" lon="6.73054">
        <ele>10.6</ele>
        <time>2016-10-09T14:38:15Z</time>
      </trkpt>
      <trkpt lat="43.38894" lon="6.73058">
        <ele>10.7</ele>
        <time>2016-10-09T14:38:17Z</time>
      </trkpt>
      <trkpt lat="43.38899" lon="6.73061">
        <ele>10.8</ele>
        <time>2016-10-09T14:38:19Z</time>
      </trkpt>
      <trkpt lat="43.38905" lon="6.73062">
        <ele>10.9</ele>
        <time>2016-10-09T14:38:21Z</time>
      </trkpt>
      <trkpt lat="43.38912" lon="6.73061">
        <ele>11</ele>
        <time>2016-10-09T14:38:23Z</time>
      </trkpt>
      <trkpt lat="43.38919" lon="6.73056">
        <ele>10.6</ele>
        <time>2016-10-09T14:38:25Z</time>
      </trkpt>
      <trkpt lat="43.38925" lon="6.73052">
        <ele>10.3</ele>
        <time>2016-10-09T14:38:27Z</time>
      </trkpt>
      <trkpt lat="43.38929" lon="6.73054">
        <ele>9.9</ele>
        <time>2016-10-09T14:38:29Z</time>
      </trkpt>
      <trkpt lat="43.38931" lon="6.73056">
        <ele>9.7</ele>
        <time>2016-10-09T14:38:31Z</time>
      </trkpt>
      <trkpt lat="43.38931" lon="6.73059">
        <ele>9.5</ele>
        <time>2016-10-09T14:38:33Z</time>
      </trkpt>
      <trkpt lat="43.38931" lon="6.73062">
        <ele>9.3</ele>
        <time>2016-10-09T14:38:35Z</time>
      </trkpt>
      <trkpt lat="43.38931" lon="6.73064">
        <ele>9.2</ele>
        <time>2016-10-09T14:38:37Z</time>
      </trkpt>
      <trkpt lat="43.38931" lon="6.73067">
        <ele>9</ele>
        <time>2016-10-09T14:38:39Z</time>
      </trkpt>
      <trkpt lat="43.38932" lon="6.73072">
        <ele>8.8</ele>
        <time>2016-10-09T14:38:43Z</time>
      </trkpt>
      <trkpt lat="43.38933" lon="6.73078">
        <ele>8.6</ele>
        <time>2016-10-09T14:38:51Z</time>
      </trkpt>
      <trkpt lat="43.38934" lon="6.73081">
        <ele>8.6</ele>
        <time>2016-10-09T14:38:53Z</time>
      </trkpt>
      <trkpt lat="43.38934" lon="6.73084">
        <ele>8.5</ele>
        <time>2016-10-09T14:38:55Z</time>
      </trkpt>
      <trkpt lat="43.38932" lon="6.73085">
        <ele>8.4</ele>
        <time>2016-10-09T14:38:57Z</time>
      </trkpt>
      <trkpt lat="43.38931" lon="6.73088">
        <ele>8.3</ele>
        <time>2016-10-09T14:38:59Z</time>
      </trkpt>
      <trkpt lat="43.38931" lon="6.73091">
        <ele>8.2</ele>
        <time>2016-10-09T14:39:01Z</time>
      </trkpt>
      <trkpt lat="43.38931" lon="6.73095">
        <ele>8.1</ele>
        <time>2016-10-09T14:39:03Z</time>
      </trkpt>
      <trkpt lat="43.38932" lon="6.73099">
        <ele>7.9</ele>
        <time>2016-10-09T14:39:07Z</time>
      </trkpt>
      <trkpt lat="43.38934" lon="6.73103">
        <ele>7.8</ele>
        <time>2016-10-09T14:39:09Z</time>
      </trkpt>
      <trkpt lat="43.38937" lon="6.73106">
        <ele>7.7</ele>
        <time>2016-10-09T14:39:11Z</time>
      </trkpt>
      <trkpt lat="43.38937" lon="6.7311">
        <ele>7.6</ele>
        <time>2016-10-09T14:39:13Z</time>
      </trkpt>
      <trkpt lat="43.3894" lon="6.73113">
        <ele>7.4</ele>
        <time>2016-10-09T14:39:17Z</time>
      </trkpt>
      <trkpt lat="43.38942" lon="6.73114">
        <ele>7.3</ele>
        <time>2016-10-09T14:39:19Z</time>
      </trkpt>
      <trkpt lat="43.38946" lon="6.73116">
        <ele>7.1</ele>
        <time>2016-10-09T14:39:21Z</time>
      </trkpt>
      <trkpt lat="43.38948" lon="6.73119">
        <ele>6.9</ele>
        <time>2016-10-09T14:39:23Z</time>
      </trkpt>
      <trkpt lat="43.3895" lon="6.7312">
        <ele>6.7</ele>
        <time>2016-10-09T14:39:25Z</time>
      </trkpt>
      <trkpt lat="43.38954" lon="6.73124">
        <ele>6.4</ele>
        <time>2016-10-09T14:39:27Z</time>
      </trkpt>
      <trkpt lat="43.38957" lon="6.7313">
        <ele>6</ele>
        <time>2016-10-09T14:39:29Z</time>
      </trkpt>
      <trkpt lat="43.3896" lon="6.73138">
        <ele>6.1</ele>
        <time>2016-10-09T14:39:31Z</time>
      </trkpt>
      <trkpt lat="43.38963" lon="6.73144">
        <ele>6.3</ele>
        <time>2016-10-09T14:39:33Z</time>
      </trkpt>
      <trkpt lat="43.38966" lon="6.7315">
        <ele>6.5</ele>
        <time>2016-10-09T14:39:35Z</time>
      </trkpt>
      <trkpt lat="43.38969" lon="6.73154">
        <ele>6.7</ele>
        <time>2016-10-09T14:39:37Z</time>
      </trkpt>
      <trkpt lat="43.38971" lon="6.73157">
        <ele>6.7</ele>
        <time>2016-10-09T14:39:39Z</time>
      </trkpt>
      <trkpt lat="43.38969" lon="6.73162">
        <ele>6.8</ele>
        <time>2016-10-09T14:39:41Z</time>
      </trkpt>
      <trkpt lat="43.38969" lon="6.73165">
        <ele>6.9</ele>
        <time>2016-10-09T14:39:43Z</time>
      </trkpt>
      <trkpt lat="43.3897" lon="6.73168">
        <ele>7</ele>
        <time>2016-10-09T14:39:45Z</time>
      </trkpt>
      <trkpt lat="43.38972" lon="6.7317">
        <ele>7</ele>
        <time>2016-10-09T14:39:49Z</time>
      </trkpt>
      <trkpt lat="43.38974" lon="6.73171">
        <ele>7.1</ele>
        <time>2016-10-09T14:39:51Z</time>
      </trkpt>
      <trkpt lat="43.38977" lon="6.7317">
        <ele>7.1</ele>
        <time>2016-10-09T14:39:53Z</time>
      </trkpt>
      <trkpt lat="43.38978" lon="6.73167">
        <ele>7.2</ele>
        <time>2016-10-09T14:39:55Z</time>
      </trkpt>
      <trkpt lat="43.38979" lon="6.73166">
        <ele>7.2</ele>
        <time>2016-10-09T14:39:57Z</time>
      </trkpt>
      <trkpt lat="43.3898" lon="6.73164">
        <ele>7.2</ele>
        <time>2016-10-09T14:39:59Z</time>
      </trkpt>
      <trkpt lat="43.38982" lon="6.73162">
        <ele>7.3</ele>
        <time>2016-10-09T14:40:01Z</time>
      </trkpt>
      <trkpt lat="43.38985" lon="6.73163">
        <ele>7.3</ele>
        <time>2016-10-09T14:40:03Z</time>
      </trkpt>
      <trkpt lat="43.38987" lon="6.73167">
        <ele>7.4</ele>
        <time>2016-10-09T14:40:05Z</time>
      </trkpt>
      <trkpt lat="43.38989" lon="6.73171">
        <ele>7.5</ele>
        <time>2016-10-09T14:40:07Z</time>
      </trkpt>
      <trkpt lat="43.38991" lon="6.73174">
        <ele>7.5</ele>
        <time>2016-10-09T14:40:09Z</time>
      </trkpt>
      <trkpt lat="43.38994" lon="6.73179">
        <ele>7.6</ele>
        <time>2016-10-09T14:40:11Z</time>
      </trkpt>
      <trkpt lat="43.38998" lon="6.73184">
        <ele>7.7</ele>
        <time>2016-10-09T14:40:13Z</time>
      </trkpt>
      <trkpt lat="43.39001" lon="6.7319">
        <ele>7.8</ele>
        <time>2016-10-09T14:40:15Z</time>
      </trkpt>
      <trkpt lat="43.39004" lon="6.73195">
        <ele>7.9</ele>
        <time>2016-10-09T14:40:17Z</time>
      </trkpt>
      <trkpt lat="43.39007" lon="6.73199">
        <ele>8</ele>
        <time>2016-10-09T14:40:19Z</time>
      </trkpt>
      <trkpt lat="43.39011" lon="6.732">
        <ele>8.1</ele>
        <time>2016-10-09T14:40:21Z</time>
      </trkpt>
      <trkpt lat="43.39016" lon="6.73201">
        <ele>8.2</ele>
        <time>2016-10-09T14:40:23Z</time>
      </trkpt>
      <trkpt lat="43.39021" lon="6.73202">
        <ele>8.3</ele>
        <time>2016-10-09T14:40:25Z</time>
      </trkpt>
      <trkpt lat="43.39025" lon="6.73203">
        <ele>8.5</ele>
        <time>2016-10-09T14:40:27Z</time>
      </trkpt>
      <trkpt lat="43.39029" lon="6.732">
        <ele>8.6</ele>
        <time>2016-10-09T14:40:29Z</time>
      </trkpt>
      <trkpt lat="43.39034" lon="6.73197">
        <ele>8.8</ele>
        <time>2016-10-09T14:40:31Z</time>
      </trkpt>
      <trkpt lat="43.39036" lon="6.73192">
        <ele>8.9</ele>
        <time>2016-10-09T14:40:33Z</time>
      </trkpt>
      <trkpt lat="43.39039" lon="6.73189">
        <ele>9.1</ele>
        <time>2016-10-09T14:40:35Z</time>
      </trkpt>
      <trkpt lat="43.39042" lon="6.73187">
        <ele>9.2</ele>
        <time>2016-10-09T14:40:37Z</time>
      </trkpt>
      <trkpt lat="43.39045" lon="6.73185">
        <ele>9.3</ele>
        <time>2016-10-09T14:40:39Z</time>
      </trkpt>
      <trkpt lat="43.39047" lon="6.73185">
        <ele>9.3</ele>
        <time>2016-10-09T14:40:41Z</time>
      </trkpt>
      <trkpt lat="43.39049" lon="6.73184">
        <ele>9.4</ele>
        <time>2016-10-09T14:40:43Z</time>
      </trkpt>
      <trkpt lat="43.39053" lon="6.73182">
        <ele>9.5</ele>
        <time>2016-10-09T14:40:45Z</time>
      </trkpt>
      <trkpt lat="43.39056" lon="6.73182">
        <ele>9.6</ele>
        <time>2016-10-09T14:40:47Z</time>
      </trkpt>
      <trkpt lat="43.3906" lon="6.73183">
        <ele>9.7</ele>
        <time>2016-10-09T14:40:49Z</time>
      </trkpt>
      <trkpt lat="43.39064" lon="6.73185">
        <ele>9.8</ele>
        <time>2016-10-09T14:40:51Z</time>
      </trkpt>
      <trkpt lat="43.39068" lon="6.73189">
        <ele>9.9</ele>
        <time>2016-10-09T14:40:53Z</time>
      </trkpt>
      <trkpt lat="43.39073" lon="6.7319">
        <ele>10</ele>
        <time>2016-10-09T14:40:55Z</time>
      </trkpt>
      <trkpt lat="43.39078" lon="6.73189">
        <ele>10.1</ele>
        <time>2016-10-09T14:40:57Z</time>
      </trkpt>
      <trkpt lat="43.39081" lon="6.73188">
        <ele>10.2</ele>
        <time>2016-10-09T14:40:59Z</time>
      </trkpt>
      <trkpt lat="43.39085" lon="6.73188">
        <ele>10.3</ele>
        <time>2016-10-09T14:41:01Z</time>
      </trkpt>
      <trkpt lat="43.3909" lon="6.73186">
        <ele>10.4</ele>
        <time>2016-10-09T14:41:03Z</time>
      </trkpt>
      <trkpt lat="43.39095" lon="6.73182">
        <ele>10.5</ele>
        <time>2016-10-09T14:41:05Z</time>
      </trkpt>
      <trkpt lat="43.391" lon="6.73177">
        <ele>10.6</ele>
        <time>2016-10-09T14:41:07Z</time>
      </trkpt>
      <trkpt lat="43.39106" lon="6.7317">
        <ele>10.7</ele>
        <time>2016-10-09T14:41:09Z</time>
      </trkpt>
      <trkpt lat="43.39112" lon="6.73162">
        <ele>10.8</ele>
        <time>2016-10-09T14:41:11Z</time>
      </trkpt>
      <trkpt lat="43.39115" lon="6.73156">
        <ele>10.9</ele>
        <time>2016-10-09T14:41:13Z</time>
      </trkpt>
      <trkpt lat="43.39115" lon="6.7315">
        <ele>10.9</ele>
        <time>2016-10-09T14:41:15Z</time>
      </trkpt>
      <trkpt lat="43.39115" lon="6.73144">
        <ele>11</ele>
        <time>2016-10-09T14:41:17Z</time>
      </trkpt>
      <trkpt lat="43.39115" lon="6.73136">
        <ele>11.1</ele>
        <time>2016-10-09T14:41:19Z</time>
      </trkpt>
      <trkpt lat="43.39115" lon="6.73128">
        <ele>11.3</ele>
        <time>2016-10-09T14:41:21Z</time>
      </trkpt>
      <trkpt lat="43.39114" lon="6.73118">
        <ele>11.4</ele>
        <time>2016-10-09T14:41:23Z</time>
      </trkpt>
      <trkpt lat="43.39114" lon="6.73108">
        <ele>11.4</ele>
        <time>2016-10-09T14:41:25Z</time>
      </trkpt>
      <trkpt lat="43.39116" lon="6.73098">
        <ele>11.5</ele>
        <time>2016-10-09T14:41:27Z</time>
      </trkpt>
      <trkpt lat="43.39118" lon="6.73087">
        <ele>11.6</ele>
        <time>2016-10-09T14:41:29Z</time>
      </trkpt>
      <trkpt lat="43.39121" lon="6.73075">
        <ele>11.7</ele>
        <time>2016-10-09T14:41:31Z</time>
      </trkpt>
      <trkpt lat="43.39124" lon="6.73063">
        <ele>11.8</ele>
        <time>2016-10-09T14:41:33Z</time>
      </trkpt>
      <trkpt lat="43.3913" lon="6.73051">
        <ele>12</ele>
        <time>2016-10-09T14:41:35Z</time>
      </trkpt>
      <trkpt lat="43.39137" lon="6.73034">
        <ele>12.1</ele>
        <time>2016-10-09T14:41:37Z</time>
      </trkpt>
      <trkpt lat="43.39144" lon="6.73017">
        <ele>12.3</ele>
        <time>2016-10-09T14:41:39Z</time>
      </trkpt>
      <trkpt lat="43.39151" lon="6.73">
        <ele>12.5</ele>
        <time>2016-10-09T14:41:41Z</time>
      </trkpt>
      <trkpt lat="43.39161" lon="6.72984">
        <ele>12.7</ele>
        <time>2016-10-09T14:41:43Z</time>
      </trkpt>
      <trkpt lat="43.39171" lon="6.7297">
        <ele>13</ele>
        <time>2016-10-09T14:41:45Z</time>
      </trkpt>
      <trkpt lat="43.39181" lon="6.72957">
        <ele>11.8</ele>
        <time>2016-10-09T14:41:47Z</time>
      </trkpt>
      <trkpt lat="43.39191" lon="6.72945">
        <ele>10.6</ele>
        <time>2016-10-09T14:41:49Z</time>
      </trkpt>
      <trkpt lat="43.39201" lon="6.72934">
        <ele>9.3</ele>
        <time>2016-10-09T14:41:51Z</time>
      </trkpt>
      <trkpt lat="43.3921" lon="6.7293">
        <ele>8</ele>
        <time>2016-10-09T14:41:53Z</time>
      </trkpt>
      <trkpt lat="43.39215" lon="6.72927">
        <ele>8</ele>
        <time>2016-10-09T14:41:55Z</time>
      </trkpt>
      <trkpt lat="43.39218" lon="6.72923">
        <ele>8</ele>
        <time>2016-10-09T14:41:57Z</time>
      </trkpt>
      <trkpt lat="43.3922" lon="6.72921">
        <ele>8</ele>
        <time>2016-10-09T14:41:59Z</time>
      </trkpt>
      <trkpt lat="43.39224" lon="6.72919">
        <ele>8</ele>
        <time>2016-10-09T14:42:01Z</time>
      </trkpt>
      <trkpt lat="43.39225" lon="6.72917">
        <ele>7</ele>
        <time>2016-10-09T14:42:05Z</time>
      </trkpt>
      <trkpt lat="43.39226" lon="6.72916">
        <ele>17.1</ele>
        <time>2016-10-09T14:42:07Z</time>
      </trkpt>
      <trkpt lat="43.39228" lon="6.72912">
        <ele>16</ele>
        <time>2016-10-09T14:42:09Z</time>
      </trkpt>
      <trkpt lat="43.39231" lon="6.72908">
        <ele>15</ele>
        <time>2016-10-09T14:42:11Z</time>
      </trkpt>
      <trkpt lat="43.39232" lon="6.72905">
        <ele>14</ele>
        <time>2016-10-09T14:42:13Z</time>
      </trkpt>
      <trkpt lat="43.39233" lon="6.72902">
        <ele>12.9</ele>
        <time>2016-10-09T14:42:15Z</time>
      </trkpt>
      <trkpt lat="43.39234" lon="6.72897">
        <ele>12</ele>
        <time>2016-10-09T14:42:17Z</time>
      </trkpt>
      <trkpt lat="43.39236" lon="6.72891">
        <ele>11.1</ele>
        <time>2016-10-09T14:42:19Z</time>
      </trkpt>
      <trkpt lat="43.39238" lon="6.72884">
        <ele>10.2</ele>
        <time>2016-10-09T14:42:21Z</time>
      </trkpt>
      <trkpt lat="43.39241" lon="6.72876">
        <ele>-8</ele>
        <time>2016-10-09T14:42:23Z</time>
      </trkpt>
      <trkpt lat="43.39245" lon="6.72868">
        <ele>5.2</ele>
        <time>2016-10-09T14:42:25Z</time>
      </trkpt>
      <trkpt lat="43.39248" lon="6.72861">
        <ele>7</ele>
        <time>2016-10-09T14:42:27Z</time>
      </trkpt>
      <trkpt lat="43.39251" lon="6.72855">
        <ele>7.1</ele>
        <time>2016-10-09T14:42:29Z</time>
      </trkpt>
      <trkpt lat="43.39255" lon="6.72849">
        <ele>7.1</ele>
        <time>2016-10-09T14:42:31Z</time>
      </trkpt>
      <trkpt lat="43.39258" lon="6.72843">
        <ele>7.2</ele>
        <time>2016-10-09T14:42:33Z</time>
      </trkpt>
      <trkpt lat="43.39261" lon="6.72836">
        <ele>7.3</ele>
        <time>2016-10-09T14:42:35Z</time>
      </trkpt>
      <trkpt lat="43.39263" lon="6.72828">
        <ele>7.4</ele>
        <time>2016-10-09T14:42:37Z</time>
      </trkpt>
      <trkpt lat="43.39265" lon="6.7282">
        <ele>7.4</ele>
        <time>2016-10-09T14:42:39Z</time>
      </trkpt>
      <trkpt lat="43.39266" lon="6.72813">
        <ele>7.5</ele>
        <time>2016-10-09T14:42:41Z</time>
      </trkpt>
      <trkpt lat="43.39269" lon="6.72805">
        <ele>8.4</ele>
        <time>2016-10-09T14:42:43Z</time>
      </trkpt>
      <trkpt lat="43.39272" lon="6.72797">
        <ele>9.2</ele>
        <time>2016-10-09T14:42:45Z</time>
      </trkpt>
      <trkpt lat="43.39275" lon="6.7279">
        <ele>9.2</ele>
        <time>2016-10-09T14:42:47Z</time>
      </trkpt>
      <trkpt lat="43.39278" lon="6.72783">
        <ele>9.1</ele>
        <time>2016-10-09T14:42:49Z</time>
      </trkpt>
      <trkpt lat="43.3928" lon="6.72776">
        <ele>9</ele>
        <time>2016-10-09T14:42:51Z</time>
      </trkpt>
      <trkpt lat="43.39283" lon="6.72769">
        <ele>9</ele>
        <time>2016-10-09T14:42:53Z</time>
      </trkpt>
      <trkpt lat="43.39287" lon="6.72765">
        <ele>8.9</ele>
        <time>2016-10-09T14:42:55Z</time>
      </trkpt>
      <trkpt lat="43.39291" lon="6.72765">
        <ele>8.8</ele>
        <time>2016-10-09T14:42:57Z</time>
      </trkpt>
      <trkpt lat="43.39298" lon="6.72765">
        <ele>8.8</ele>
        <time>2016-10-09T14:42:59Z</time>
      </trkpt>
      <trkpt lat="43.39306" lon="6.72767">
        <ele>8.9</ele>
        <time>2016-10-09T14:43:01Z</time>
      </trkpt>
      <trkpt lat="43.39315" lon="6.72768">
        <ele>9</ele>
        <time>2016-10-09T14:43:03Z</time>
      </trkpt>
      <trkpt lat="43.39323" lon="6.72769">
        <ele>9</ele>
        <time>2016-10-09T14:43:05Z</time>
      </trkpt>
      <trkpt lat="43.39332" lon="6.72771">
        <ele>7.6</ele>
        <time>2016-10-09T14:43:07Z</time>
      </trkpt>
      <trkpt lat="43.3934" lon="6.72773">
        <ele>6.1</ele>
        <time>2016-10-09T14:43:09Z</time>
      </trkpt>
      <trkpt lat="43.39348" lon="6.72775">
        <ele>4.8</ele>
        <time>2016-10-09T14:43:11Z</time>
      </trkpt>
      <trkpt lat="43.39356" lon="6.72777">
        <ele>3.3</ele>
        <time>2016-10-09T14:43:13Z</time>
      </trkpt>
      <trkpt lat="43.39362" lon="6.72777">
        <ele>4.8</ele>
        <time>2016-10-09T14:43:15Z</time>
      </trkpt>
      <trkpt lat="43.3937" lon="6.72775">
        <ele>3.3</ele>
        <time>2016-10-09T14:43:17Z</time>
      </trkpt>
      <trkpt lat="43.39376" lon="6.72772">
        <ele>1.8</ele>
        <time>2016-10-09T14:43:19Z</time>
      </trkpt>
      <trkpt lat="43.39381" lon="6.72769">
        <ele>1.8</ele>
        <time>2016-10-09T14:43:21Z</time>
      </trkpt>
      <trkpt lat="43.39382" lon="6.72773">
        <ele>1.8</ele>
        <time>2016-10-09T14:43:49Z</time>
      </trkpt>
      <trkpt lat="43.3938" lon="6.72774">
        <ele>1.8</ele>
        <time>2016-10-09T14:43:51Z</time>
      </trkpt>
      <trkpt lat="43.39377" lon="6.72775">
        <ele>1.8</ele>
        <time>2016-10-09T14:43:53Z</time>
      </trkpt>
      <trkpt lat="43.39375" lon="6.72775">
        <ele>1.8</ele>
        <time>2016-10-09T14:43:55Z</time>
      </trkpt>
      <trkpt lat="43.39373" lon="6.72774">
        <ele>1.8</ele>
        <time>2016-10-09T14:43:57Z</time>
      </trkpt>
      <trkpt lat="43.3937" lon="6.72774">
        <ele>1.8</ele>
        <time>2016-10-09T14:43:59Z</time>
      </trkpt>
      <trkpt lat="43.39368" lon="6.72776">
        <ele>1.8</ele>
        <time>2016-10-09T14:44:01Z</time>
      </trkpt>
      <trkpt lat="43.39373" lon="6.72778">
        <ele>1.8</ele>
        <time>2016-10-09T14:47:56Z</time>
      </trkpt>
      <trkpt lat="43.3938" lon="6.72779">
        <ele>1.8</ele>
        <time>2016-10-09T14:47:58Z</time>
      </trkpt>
      <trkpt lat="43.39387" lon="6.72781">
        <ele>1.8</ele>
        <time>2016-10-09T14:48:00Z</time>
      </trkpt>
      <trkpt lat="43.39394" lon="6.72784">
        <ele>1.8</ele>
        <time>2016-10-09T14:48:02Z</time>
      </trkpt>
      <trkpt lat="43.39402" lon="6.72786">
        <ele>1.8</ele>
        <time>2016-10-09T14:48:04Z</time>
      </trkpt>
      <trkpt lat="43.3941" lon="6.72789">
        <ele>1.8</ele>
        <time>2016-10-09T14:48:06Z</time>
      </trkpt>
      <trkpt lat="43.39417" lon="6.72792">
        <ele>1.8</ele>
        <time>2016-10-09T14:48:08Z</time>
      </trkpt>
      <trkpt lat="43.39425" lon="6.72795">
        <ele>1.8</ele>
        <time>2016-10-09T14:48:10Z</time>
      </trkpt>
      <trkpt lat="43.39431" lon="6.72798">
        <ele>1.8</ele>
        <time>2016-10-09T14:48:12Z</time>
      </trkpt>
      <trkpt lat="43.39438" lon="6.728">
        <ele>1.8</ele>
        <time>2016-10-09T14:48:14Z</time>
      </trkpt>
      <trkpt lat="43.39446" lon="6.72802">
        <ele>1.8</ele>
        <time>2016-10-09T14:48:16Z</time>
      </trkpt>
      <trkpt lat="43.39453" lon="6.72805">
        <ele>1.8</ele>
        <time>2016-10-09T14:48:18Z</time>
      </trkpt>
      <trkpt lat="43.39461" lon="6.72807">
        <ele>1.8</ele>
        <time>2016-10-09T14:48:20Z</time>
      </trkpt>
      <trkpt lat="43.39469" lon="6.7281">
        <ele>1.7</ele>
        <time>2016-10-09T14:48:22Z</time>
      </trkpt>
      <trkpt lat="43.39478" lon="6.72813">
        <ele>1.7</ele>
        <time>2016-10-09T14:48:24Z</time>
      </trkpt>
      <trkpt lat="43.39487" lon="6.72816">
        <ele>1.7</ele>
        <time>2016-10-09T14:48:26Z</time>
      </trkpt>
      <trkpt lat="43.39496" lon="6.72819">
        <ele>1.7</ele>
        <time>2016-10-09T14:48:28Z</time>
      </trkpt>
      <trkpt lat="43.39505" lon="6.72822">
        <ele>1.7</ele>
        <time>2016-10-09T14:48:30Z</time>
      </trkpt>
      <trkpt lat="43.39515" lon="6.72826">
        <ele>1.7</ele>
        <time>2016-10-09T14:48:32Z</time>
      </trkpt>
      <trkpt lat="43.39525" lon="6.72829">
        <ele>1.7</ele>
        <time>2016-10-09T14:48:34Z</time>
      </trkpt>
      <trkpt lat="43.39535" lon="6.72833">
        <ele>1.7</ele>
        <time>2016-10-09T14:48:36Z</time>
      </trkpt>
      <trkpt lat="43.39545" lon="6.72837">
        <ele>1.7</ele>
        <time>2016-10-09T14:48:38Z</time>
      </trkpt>
      <trkpt lat="43.39556" lon="6.72841">
        <ele>1.7</ele>
        <time>2016-10-09T14:48:40Z</time>
      </trkpt>
      <trkpt lat="43.39566" lon="6.72845">
        <ele>1.7</ele>
        <time>2016-10-09T14:48:42Z</time>
      </trkpt>
      <trkpt lat="43.39577" lon="6.72848">
        <ele>1.7</ele>
        <time>2016-10-09T14:48:44Z</time>
      </trkpt>
      <trkpt lat="43.39588" lon="6.72852">
        <ele>1.7</ele>
        <time>2016-10-09T14:48:46Z</time>
      </trkpt>
      <trkpt lat="43.396" lon="6.72856">
        <ele>1.6</ele>
        <time>2016-10-09T14:48:48Z</time>
      </trkpt>
      <trkpt lat="43.39611" lon="6.7286">
        <ele>1.6</ele>
        <time>2016-10-09T14:48:50Z</time>
      </trkpt>
      <trkpt lat="43.39624" lon="6.72865">
        <ele>1.6</ele>
        <time>2016-10-09T14:48:52Z</time>
      </trkpt>
      <trkpt lat="43.39636" lon="6.7287">
        <ele>1.6</ele>
        <time>2016-10-09T14:48:54Z</time>
      </trkpt>
      <trkpt lat="43.39648" lon="6.72874">
        <ele>1.6</ele>
        <time>2016-10-09T14:48:56Z</time>
      </trkpt>
      <trkpt lat="43.3966" lon="6.72879">
        <ele>1.6</ele>
        <time>2016-10-09T14:48:58Z</time>
      </trkpt>
      <trkpt lat="43.39672" lon="6.72883">
        <ele>1.6</ele>
        <time>2016-10-09T14:49:00Z</time>
      </trkpt>
      <trkpt lat="43.39684" lon="6.72887">
        <ele>1.6</ele>
        <time>2016-10-09T14:49:02Z</time>
      </trkpt>
      <trkpt lat="43.39695" lon="6.72892">
        <ele>1.6</ele>
        <time>2016-10-09T14:49:04Z</time>
      </trkpt>
      <trkpt lat="43.39707" lon="6.72896">
        <ele>1.6</ele>
        <time>2016-10-09T14:49:06Z</time>
      </trkpt>
      <trkpt lat="43.39718" lon="6.72901">
        <ele>1.5</ele>
        <time>2016-10-09T14:49:08Z</time>
      </trkpt>
      <trkpt lat="43.3973" lon="6.72905">
        <ele>1.5</ele>
        <time>2016-10-09T14:49:10Z</time>
      </trkpt>
      <trkpt lat="43.39741" lon="6.72909">
        <ele>1.5</ele>
        <time>2016-10-09T14:49:12Z</time>
      </trkpt>
      <trkpt lat="43.39753" lon="6.72914">
        <ele>1.5</ele>
        <time>2016-10-09T14:49:14Z</time>
      </trkpt>
      <trkpt lat="43.39764" lon="6.72918">
        <ele>1.5</ele>
        <time>2016-10-09T14:49:16Z</time>
      </trkpt>
      <trkpt lat="43.39776" lon="6.72922">
        <ele>1.5</ele>
        <time>2016-10-09T14:49:18Z</time>
      </trkpt>
      <trkpt lat="43.39787" lon="6.72926">
        <ele>1.5</ele>
        <time>2016-10-09T14:49:20Z</time>
      </trkpt>
      <trkpt lat="43.39798" lon="6.7293">
        <ele>1.5</ele>
        <time>2016-10-09T14:49:22Z</time>
      </trkpt>
      <trkpt lat="43.3981" lon="6.72935">
        <ele>1.5</ele>
        <time>2016-10-09T14:49:24Z</time>
      </trkpt>
      <trkpt lat="43.39821" lon="6.72939">
        <ele>1.5</ele>
        <time>2016-10-09T14:49:26Z</time>
      </trkpt>
      <trkpt lat="43.39832" lon="6.72943">
        <ele>1.5</ele>
        <time>2016-10-09T14:49:28Z</time>
      </trkpt>
      <trkpt lat="43.39844" lon="6.72946">
        <ele>1.5</ele>
        <time>2016-10-09T14:49:30Z</time>
      </trkpt>
      <trkpt lat="43.39855" lon="6.7295">
        <ele>1.5</ele>
        <time>2016-10-09T14:49:32Z</time>
      </trkpt>
      <trkpt lat="43.39867" lon="6.72953">
        <ele>1.5</ele>
        <time>2016-10-09T14:49:34Z</time>
      </trkpt>
      <trkpt lat="43.39878" lon="6.72957">
        <ele>1.4</ele>
        <time>2016-10-09T14:49:36Z</time>
      </trkpt>
      <trkpt lat="43.39889" lon="6.7296">
        <ele>1.4</ele>
        <time>2016-10-09T14:49:38Z</time>
      </trkpt>
      <trkpt lat="43.39901" lon="6.72963">
        <ele>1.4</ele>
        <time>2016-10-09T14:49:40Z</time>
      </trkpt>
      <trkpt lat="43.39912" lon="6.72967">
        <ele>1.4</ele>
        <time>2016-10-09T14:49:42Z</time>
      </trkpt>
      <trkpt lat="43.39924" lon="6.7297">
        <ele>1.4</ele>
        <time>2016-10-09T14:49:44Z</time>
      </trkpt>
      <trkpt lat="43.39936" lon="6.72972">
        <ele>1.4</ele>
        <time>2016-10-09T14:49:46Z</time>
      </trkpt>
      <trkpt lat="43.39948" lon="6.72974">
        <ele>1.3</ele>
        <time>2016-10-09T14:49:48Z</time>
      </trkpt>
      <trkpt lat="43.39959" lon="6.72976">
        <ele>1.3</ele>
        <time>2016-10-09T14:49:50Z</time>
      </trkpt>
      <trkpt lat="43.39972" lon="6.72977">
        <ele>1.3</ele>
        <time>2016-10-09T14:49:52Z</time>
      </trkpt>
      <trkpt lat="43.39983" lon="6.72978">
        <ele>1.3</ele>
        <time>2016-10-09T14:49:54Z</time>
      </trkpt>
      <trkpt lat="43.39996" lon="6.72979">
        <ele>1.3</ele>
        <time>2016-10-09T14:49:56Z</time>
      </trkpt>
      <trkpt lat="43.40007" lon="6.7298">
        <ele>1.3</ele>
        <time>2016-10-09T14:49:58Z</time>
      </trkpt>
      <trkpt lat="43.4002" lon="6.7298">
        <ele>1.2</ele>
        <time>2016-10-09T14:50:00Z</time>
      </trkpt>
      <trkpt lat="43.40032" lon="6.72981">
        <ele>1.2</ele>
        <time>2016-10-09T14:50:02Z</time>
      </trkpt>
      <trkpt lat="43.40044" lon="6.72982">
        <ele>1.2</ele>
        <time>2016-10-09T14:50:04Z</time>
      </trkpt>
      <trkpt lat="43.40057" lon="6.72983">
        <ele>1.2</ele>
        <time>2016-10-09T14:50:06Z</time>
      </trkpt>
      <trkpt lat="43.40069" lon="6.72983">
        <ele>1.2</ele>
        <time>2016-10-09T14:50:08Z</time>
      </trkpt>
      <trkpt lat="43.40081" lon="6.72984">
        <ele>1.2</ele>
        <time>2016-10-09T14:50:10Z</time>
      </trkpt>
      <trkpt lat="43.40094" lon="6.72985">
        <ele>1.2</ele>
        <time>2016-10-09T14:50:12Z</time>
      </trkpt>
      <trkpt lat="43.40106" lon="6.72986">
        <ele>1.2</ele>
        <time>2016-10-09T14:50:14Z</time>
      </trkpt>
      <trkpt lat="43.40118" lon="6.72987">
        <ele>1.2</ele>
        <time>2016-10-09T14:50:16Z</time>
      </trkpt>
      <trkpt lat="43.4013" lon="6.72988">
        <ele>1.2</ele>
        <time>2016-10-09T14:50:18Z</time>
      </trkpt>
      <trkpt lat="43.40142" lon="6.72989">
        <ele>1.2</ele>
        <time>2016-10-09T14:50:20Z</time>
      </trkpt>
      <trkpt lat="43.40154" lon="6.7299">
        <ele>1.1</ele>
        <time>2016-10-09T14:50:22Z</time>
      </trkpt>
      <trkpt lat="43.40166" lon="6.72991">
        <ele>1.1</ele>
        <time>2016-10-09T14:50:24Z</time>
      </trkpt>
      <trkpt lat="43.40178" lon="6.72991">
        <ele>1.1</ele>
        <time>2016-10-09T14:50:26Z</time>
      </trkpt>
      <trkpt lat="43.4019" lon="6.72991">
        <ele>1.1</ele>
        <time>2016-10-09T14:50:28Z</time>
      </trkpt>
      <trkpt lat="43.40202" lon="6.72991">
        <ele>1.1</ele>
        <time>2016-10-09T14:50:30Z</time>
      </trkpt>
      <trkpt lat="43.40213" lon="6.72991">
        <ele>1.1</ele>
        <time>2016-10-09T14:50:32Z</time>
      </trkpt>
      <trkpt lat="43.40226" lon="6.7299">
        <ele>1.1</ele>
        <time>2016-10-09T14:50:34Z</time>
      </trkpt>
      <trkpt lat="43.40237" lon="6.72988">
        <ele>1.1</ele>
        <time>2016-10-09T14:50:36Z</time>
      </trkpt>
      <trkpt lat="43.4025" lon="6.72986">
        <ele>1</ele>
        <time>2016-10-09T14:50:38Z</time>
      </trkpt>
      <trkpt lat="43.40262" lon="6.72983">
        <ele>1</ele>
        <time>2016-10-09T14:50:40Z</time>
      </trkpt>
      <trkpt lat="43.40273" lon="6.7298">
        <ele>1</ele>
        <time>2016-10-09T14:50:42Z</time>
      </trkpt>
      <trkpt lat="43.40285" lon="6.72976">
        <ele>1</ele>
        <time>2016-10-09T14:50:44Z</time>
      </trkpt>
      <trkpt lat="43.40296" lon="6.72972">
        <ele>0.9</ele>
        <time>2016-10-09T14:50:46Z</time>
      </trkpt>
      <trkpt lat="43.40307" lon="6.72969">
        <ele>0.9</ele>
        <time>2016-10-09T14:50:48Z</time>
      </trkpt>
      <trkpt lat="43.40318" lon="6.72968">
        <ele>0.9</ele>
        <time>2016-10-09T14:50:50Z</time>
      </trkpt>
      <trkpt lat="43.40328" lon="6.72964">
        <ele>0.9</ele>
        <time>2016-10-09T14:50:52Z</time>
      </trkpt>
      <trkpt lat="43.40339" lon="6.72958">
        <ele>0.8</ele>
        <time>2016-10-09T14:50:54Z</time>
      </trkpt>
      <trkpt lat="43.40349" lon="6.72951">
        <ele>0.8</ele>
        <time>2016-10-09T14:50:56Z</time>
      </trkpt>
      <trkpt lat="43.4036" lon="6.72945">
        <ele>0.8</ele>
        <time>2016-10-09T14:50:58Z</time>
      </trkpt>
      <trkpt lat="43.4037" lon="6.72939">
        <ele>0.8</ele>
        <time>2016-10-09T14:51:00Z</time>
      </trkpt>
      <trkpt lat="43.4038" lon="6.72933">
        <ele>0.8</ele>
        <time>2016-10-09T14:51:02Z</time>
      </trkpt>
      <trkpt lat="43.4039" lon="6.72926">
        <ele>0.7</ele>
        <time>2016-10-09T14:51:04Z</time>
      </trkpt>
      <trkpt lat="43.40401" lon="6.72918">
        <ele>0.7</ele>
        <time>2016-10-09T14:51:06Z</time>
      </trkpt>
      <trkpt lat="43.4041" lon="6.72911">
        <ele>0.7</ele>
        <time>2016-10-09T14:51:08Z</time>
      </trkpt>
      <trkpt lat="43.40419" lon="6.72904">
        <ele>0.7</ele>
        <time>2016-10-09T14:51:10Z</time>
      </trkpt>
      <trkpt lat="43.40427" lon="6.72896">
        <ele>0.6</ele>
        <time>2016-10-09T14:51:12Z</time>
      </trkpt>
      <trkpt lat="43.40437" lon="6.72887">
        <ele>0.6</ele>
        <time>2016-10-09T14:51:14Z</time>
      </trkpt>
      <trkpt lat="43.40446" lon="6.72878">
        <ele>0.5</ele>
        <time>2016-10-09T14:51:16Z</time>
      </trkpt>
      <trkpt lat="43.40456" lon="6.72868">
        <ele>0.5</ele>
        <time>2016-10-09T14:51:18Z</time>
      </trkpt>
      <trkpt lat="43.40465" lon="6.72858">
        <ele>0.5</ele>
        <time>2016-10-09T14:51:20Z</time>
      </trkpt>
      <trkpt lat="43.40474" lon="6.7285">
        <ele>0.4</ele>
        <time>2016-10-09T14:51:22Z</time>
      </trkpt>
      <trkpt lat="43.40481" lon="6.72843">
        <ele>0.4</ele>
        <time>2016-10-09T14:51:24Z</time>
      </trkpt>
      <trkpt lat="43.4049" lon="6.72834">
        <ele>0.4</ele>
        <time>2016-10-09T14:51:26Z</time>
      </trkpt>
      <trkpt lat="43.405" lon="6.72824">
        <ele>0.4</ele>
        <time>2016-10-09T14:51:28Z</time>
      </trkpt>
      <trkpt lat="43.40508" lon="6.72812">
        <ele>0.3</ele>
        <time>2016-10-09T14:51:30Z</time>
      </trkpt>
      <trkpt lat="43.40518" lon="6.728">
        <ele>0.3</ele>
        <time>2016-10-09T14:51:32Z</time>
      </trkpt>
      <trkpt lat="43.40527" lon="6.7279">
        <ele>0.3</ele>
        <time>2016-10-09T14:51:34Z</time>
      </trkpt>
      <trkpt lat="43.40536" lon="6.72779">
        <ele>0.2</ele>
        <time>2016-10-09T14:51:36Z</time>
      </trkpt>
      <trkpt lat="43.40544" lon="6.72767">
        <ele>0.2</ele>
        <time>2016-10-09T14:51:38Z</time>
      </trkpt>
      <trkpt lat="43.40554" lon="6.72755">
        <ele>0.1</ele>
        <time>2016-10-09T14:51:40Z</time>
      </trkpt>
      <trkpt lat="43.40563" lon="6.72744">
        <ele>0.1</ele>
        <time>2016-10-09T14:51:42Z</time>
      </trkpt>
      <trkpt lat="43.40573" lon="6.72735">
        <ele>2.1</ele>
        <time>2016-10-09T14:51:44Z</time>
      </trkpt>
      <trkpt lat="43.40583" lon="6.72726">
        <ele>0.3</ele>
        <time>2016-10-09T14:51:46Z</time>
      </trkpt>
      <trkpt lat="43.40593" lon="6.72716">
        <ele>0.4</ele>
        <time>2016-10-09T14:51:48Z</time>
      </trkpt>
      <trkpt lat="43.40603" lon="6.72706">
        <ele>0.8</ele>
        <time>2016-10-09T14:51:50Z</time>
      </trkpt>
      <trkpt lat="43.40614" lon="6.72696">
        <ele>1.2</ele>
        <time>2016-10-09T14:51:52Z</time>
      </trkpt>
      <trkpt lat="43.40624" lon="6.72685">
        <ele>1.2</ele>
        <time>2016-10-09T14:51:54Z</time>
      </trkpt>
      <trkpt lat="43.40635" lon="6.72675">
        <ele>0.8</ele>
        <time>2016-10-09T14:51:56Z</time>
      </trkpt>
      <trkpt lat="43.40645" lon="6.72665">
        <ele>0.4</ele>
        <time>2016-10-09T14:51:58Z</time>
      </trkpt>
      <trkpt lat="43.40656" lon="6.72655">
        <ele>0.1</ele>
        <time>2016-10-09T14:52:00Z</time>
      </trkpt>
      <trkpt lat="43.40666" lon="6.72646">
        <ele>-0.2</ele>
        <time>2016-10-09T14:52:02Z</time>
      </trkpt>
      <trkpt lat="43.40676" lon="6.72637">
        <ele>-0.2</ele>
        <time>2016-10-09T14:52:04Z</time>
      </trkpt>
      <trkpt lat="43.40686" lon="6.72627">
        <ele>0.1</ele>
        <time>2016-10-09T14:52:06Z</time>
      </trkpt>
      <trkpt lat="43.40696" lon="6.72618">
        <ele>0.3</ele>
        <time>2016-10-09T14:52:08Z</time>
      </trkpt>
      <trkpt lat="43.40706" lon="6.72608">
        <ele>0.1</ele>
        <time>2016-10-09T14:52:10Z</time>
      </trkpt>
      <trkpt lat="43.40715" lon="6.72598">
        <ele>0.3</ele>
        <time>2016-10-09T14:52:12Z</time>
      </trkpt>
      <trkpt lat="43.40725" lon="6.72588">
        <ele>0.2</ele>
        <time>2016-10-09T14:52:14Z</time>
      </trkpt>
      <trkpt lat="43.40733" lon="6.7258">
        <ele>0.5</ele>
        <time>2016-10-09T14:52:16Z</time>
      </trkpt>
      <trkpt lat="43.40743" lon="6.7257">
        <ele>0.7</ele>
        <time>2016-10-09T14:52:18Z</time>
      </trkpt>
      <trkpt lat="43.40752" lon="6.7256">
        <ele>0.5</ele>
        <time>2016-10-09T14:52:20Z</time>
      </trkpt>
      <trkpt lat="43.4076" lon="6.72551">
        <ele>0.2</ele>
        <time>2016-10-09T14:52:22Z</time>
      </trkpt>
      <trkpt lat="43.40769" lon="6.72542">
        <ele>2.2</ele>
        <time>2016-10-09T14:52:24Z</time>
      </trkpt>
      <trkpt lat="43.40778" lon="6.72534">
        <ele>2.2</ele>
        <time>2016-10-09T14:52:26Z</time>
      </trkpt>
      <trkpt lat="43.40787" lon="6.72525">
        <ele>2.2</ele>
        <time>2016-10-09T14:52:28Z</time>
      </trkpt>
      <trkpt lat="43.40794" lon="6.72516">
        <ele>2.2</ele>
        <time>2016-10-09T14:52:30Z</time>
      </trkpt>
      <trkpt lat="43.40803" lon="6.72506">
        <ele>2.1</ele>
        <time>2016-10-09T14:52:32Z</time>
      </trkpt>
      <trkpt lat="43.4081" lon="6.72498">
        <ele>2.1</ele>
        <time>2016-10-09T14:52:34Z</time>
      </trkpt>
      <trkpt lat="43.40818" lon="6.7249">
        <ele>2.1</ele>
        <time>2016-10-09T14:52:36Z</time>
      </trkpt>
      <trkpt lat="43.40828" lon="6.72482">
        <ele>2.1</ele>
        <time>2016-10-09T14:52:38Z</time>
      </trkpt>
      <trkpt lat="43.40838" lon="6.72473">
        <ele>2.2</ele>
        <time>2016-10-09T14:52:40Z</time>
      </trkpt>
      <trkpt lat="43.40847" lon="6.72466">
        <ele>2.3</ele>
        <time>2016-10-09T14:52:42Z</time>
      </trkpt>
      <trkpt lat="43.40858" lon="6.72458">
        <ele>2.4</ele>
        <time>2016-10-09T14:52:44Z</time>
      </trkpt>
      <trkpt lat="43.40868" lon="6.72449">
        <ele>2.6</ele>
        <time>2016-10-09T14:52:46Z</time>
      </trkpt>
      <trkpt lat="43.40878" lon="6.72439">
        <ele>0.1</ele>
        <time>2016-10-09T14:52:48Z</time>
      </trkpt>
      <trkpt lat="43.40889" lon="6.72432">
        <ele>0.2</ele>
        <time>2016-10-09T14:52:50Z</time>
      </trkpt>
      <trkpt lat="43.409" lon="6.72431">
        <ele>0.6</ele>
        <time>2016-10-09T14:52:52Z</time>
      </trkpt>
      <trkpt lat="43.40913" lon="6.72428">
        <ele>1.1</ele>
        <time>2016-10-09T14:52:54Z</time>
      </trkpt>
      <trkpt lat="43.40925" lon="6.72423">
        <ele>1.3</ele>
        <time>2016-10-09T14:52:56Z</time>
      </trkpt>
      <trkpt lat="43.40938" lon="6.72419">
        <ele>1.5</ele>
        <time>2016-10-09T14:52:58Z</time>
      </trkpt>
      <trkpt lat="43.40951" lon="6.72416">
        <ele>1.6</ele>
        <time>2016-10-09T14:53:00Z</time>
      </trkpt>
      <trkpt lat="43.40963" lon="6.72414">
        <ele>1.7</ele>
        <time>2016-10-09T14:53:02Z</time>
      </trkpt>
      <trkpt lat="43.40976" lon="6.72413">
        <ele>1.7</ele>
        <time>2016-10-09T14:53:04Z</time>
      </trkpt>
      <trkpt lat="43.40989" lon="6.72413">
        <ele>1.8</ele>
        <time>2016-10-09T14:53:06Z</time>
      </trkpt>
      <trkpt lat="43.41002" lon="6.72413">
        <ele>1.9</ele>
        <time>2016-10-09T14:53:08Z</time>
      </trkpt>
      <trkpt lat="43.41014" lon="6.72415">
        <ele>1.9</ele>
        <time>2016-10-09T14:53:10Z</time>
      </trkpt>
      <trkpt lat="43.41026" lon="6.72417">
        <ele>2.1</ele>
        <time>2016-10-09T14:53:12Z</time>
      </trkpt>
      <trkpt lat="43.41038" lon="6.72421">
        <ele>2.2</ele>
        <time>2016-10-09T14:53:14Z</time>
      </trkpt>
      <trkpt lat="43.41048" lon="6.72427">
        <ele>2.3</ele>
        <time>2016-10-09T14:53:16Z</time>
      </trkpt>
      <trkpt lat="43.41056" lon="6.72435">
        <ele>2.3</ele>
        <time>2016-10-09T14:53:18Z</time>
      </trkpt>
      <trkpt lat="43.41064" lon="6.72438">
        <ele>2.5</ele>
        <time>2016-10-09T14:53:20Z</time>
      </trkpt>
      <trkpt lat="43.41072" lon="6.72435">
        <ele>2.6</ele>
        <time>2016-10-09T14:53:22Z</time>
      </trkpt>
      <trkpt lat="43.41081" lon="6.72435">
        <ele>2.7</ele>
        <time>2016-10-09T14:53:24Z</time>
      </trkpt>
      <trkpt lat="43.41089" lon="6.7244">
        <ele>2.9</ele>
        <time>2016-10-09T14:53:26Z</time>
      </trkpt>
      <trkpt lat="43.41099" lon="6.72444">
        <ele>2.6</ele>
        <time>2016-10-09T14:53:28Z</time>
      </trkpt>
      <trkpt lat="43.4111" lon="6.72448">
        <ele>2.3</ele>
        <time>2016-10-09T14:53:30Z</time>
      </trkpt>
      <trkpt lat="43.41122" lon="6.72453">
        <ele>2.3</ele>
        <time>2016-10-09T14:53:32Z</time>
      </trkpt>
      <trkpt lat="43.41133" lon="6.72457">
        <ele>2.3</ele>
        <time>2016-10-09T14:53:34Z</time>
      </trkpt>
      <trkpt lat="43.41142" lon="6.72461">
        <ele>2.6</ele>
        <time>2016-10-09T14:53:36Z</time>
      </trkpt>
      <trkpt lat="43.4115" lon="6.72464">
        <ele>2.9</ele>
        <time>2016-10-09T14:53:38Z</time>
      </trkpt>
      <trkpt lat="43.41153" lon="6.72467">
        <ele>3.2</ele>
        <time>2016-10-09T14:53:40Z</time>
      </trkpt>
      <trkpt lat="43.41153" lon="6.72474">
        <ele>3.1</ele>
        <time>2016-10-09T14:53:42Z</time>
      </trkpt>
      <trkpt lat="43.41151" lon="6.72482">
        <ele>3.3</ele>
        <time>2016-10-09T14:53:44Z</time>
      </trkpt>
      <trkpt lat="43.41148" lon="6.72491">
        <ele>3.4</ele>
        <time>2016-10-09T14:53:46Z</time>
      </trkpt>
      <trkpt lat="43.41148" lon="6.72502">
        <ele>3.7</ele>
        <time>2016-10-09T14:53:48Z</time>
      </trkpt>
      <trkpt lat="43.4115" lon="6.72514">
        <ele>4.1</ele>
        <time>2016-10-09T14:53:50Z</time>
      </trkpt>
      <trkpt lat="43.41151" lon="6.72522">
        <ele>4.5</ele>
        <time>2016-10-09T14:53:52Z</time>
      </trkpt>
      <trkpt lat="43.41152" lon="6.72531">
        <ele>4.9</ele>
        <time>2016-10-09T14:53:54Z</time>
      </trkpt>
      <trkpt lat="43.41151" lon="6.72541">
        <ele>5.5</ele>
        <time>2016-10-09T14:53:56Z</time>
      </trkpt>
      <trkpt lat="43.41148" lon="6.72552">
        <ele>5.5</ele>
        <time>2016-10-09T14:53:58Z</time>
      </trkpt>
      <trkpt lat="43.41143" lon="6.7256">
        <ele>5.3</ele>
        <time>2016-10-09T14:54:00Z</time>
      </trkpt>
      <trkpt lat="43.41136" lon="6.72567">
        <ele>5.2</ele>
        <time>2016-10-09T14:54:02Z</time>
      </trkpt>
      <trkpt lat="43.41131" lon="6.72576">
        <ele>4.8</ele>
        <time>2016-10-09T14:54:04Z</time>
      </trkpt>
      <trkpt lat="43.41127" lon="6.72587">
        <ele>5.4</ele>
        <time>2016-10-09T14:54:06Z</time>
      </trkpt>
      <trkpt lat="43.41129" lon="6.72599">
        <ele>5.7</ele>
        <time>2016-10-09T14:54:08Z</time>
      </trkpt>
      <trkpt lat="43.41135" lon="6.7261">
        <ele>6.3</ele>
        <time>2016-10-09T14:54:10Z</time>
      </trkpt>
      <trkpt lat="43.41142" lon="6.72619">
        <ele>7.2</ele>
        <time>2016-10-09T14:54:12Z</time>
      </trkpt>
      <trkpt lat="43.4115" lon="6.72626">
        <ele>7.9</ele>
        <time>2016-10-09T14:54:14Z</time>
      </trkpt>
      <trkpt lat="43.41157" lon="6.72635">
        <ele>8.1</ele>
        <time>2016-10-09T14:54:16Z</time>
      </trkpt>
      <trkpt lat="43.41163" lon="6.72642">
        <ele>8.2</ele>
        <time>2016-10-09T14:54:18Z</time>
      </trkpt>
      <trkpt lat="43.41169" lon="6.7265">
        <ele>8.3</ele>
        <time>2016-10-09T14:54:20Z</time>
      </trkpt>
      <trkpt lat="43.41176" lon="6.72657">
        <ele>8.3</ele>
        <time>2016-10-09T14:54:22Z</time>
      </trkpt>
      <trkpt lat="43.41181" lon="6.72664">
        <ele>8.4</ele>
        <time>2016-10-09T14:54:24Z</time>
      </trkpt>
      <trkpt lat="43.41186" lon="6.72673">
        <ele>8.7</ele>
        <time>2016-10-09T14:54:26Z</time>
      </trkpt>
      <trkpt lat="43.41192" lon="6.72683">
        <ele>9.2</ele>
        <time>2016-10-09T14:54:28Z</time>
      </trkpt>
      <trkpt lat="43.41195" lon="6.72694">
        <ele>9.5</ele>
        <time>2016-10-09T14:54:30Z</time>
      </trkpt>
      <trkpt lat="43.41196" lon="6.72707">
        <ele>9.4</ele>
        <time>2016-10-09T14:54:32Z</time>
      </trkpt>
      <trkpt lat="43.41194" lon="6.72719">
        <ele>9.2</ele>
        <time>2016-10-09T14:54:34Z</time>
      </trkpt>
      <trkpt lat="43.41191" lon="6.72731">
        <ele>8.8</ele>
        <time>2016-10-09T14:54:36Z</time>
      </trkpt>
      <trkpt lat="43.41188" lon="6.72747">
        <ele>7.8</ele>
        <time>2016-10-09T14:54:39Z</time>
      </trkpt>
      <trkpt lat="43.41184" lon="6.72758">
        <ele>7.1</ele>
        <time>2016-10-09T14:54:41Z</time>
      </trkpt>
      <trkpt lat="43.41179" lon="6.72777">
        <ele>6.1</ele>
        <time>2016-10-09T14:54:44Z</time>
      </trkpt>
      <trkpt lat="43.41179" lon="6.72789">
        <ele>5.6</ele>
        <time>2016-10-09T14:54:46Z</time>
      </trkpt>
      <trkpt lat="43.41178" lon="6.72802">
        <ele>5</ele>
        <time>2016-10-09T14:54:48Z</time>
      </trkpt>
      <trkpt lat="43.4118" lon="6.72814">
        <ele>4.3</ele>
        <time>2016-10-09T14:54:50Z</time>
      </trkpt>
      <trkpt lat="43.41187" lon="6.72821">
        <ele>4.2</ele>
        <time>2016-10-09T14:54:52Z</time>
      </trkpt>
      <trkpt lat="43.41195" lon="6.72826">
        <ele>4.8</ele>
        <time>2016-10-09T14:54:54Z</time>
      </trkpt>
      <trkpt lat="43.41203" lon="6.72832">
        <ele>5.2</ele>
        <time>2016-10-09T14:54:56Z</time>
      </trkpt>
      <trkpt lat="43.41211" lon="6.72839">
        <ele>5.3</ele>
        <time>2016-10-09T14:54:58Z</time>
      </trkpt>
      <trkpt lat="43.41219" lon="6.72848">
        <ele>5.4</ele>
        <time>2016-10-09T14:55:00Z</time>
      </trkpt>
      <trkpt lat="43.41226" lon="6.72857">
        <ele>5.5</ele>
        <time>2016-10-09T14:55:02Z</time>
      </trkpt>
      <trkpt lat="43.41233" lon="6.72866">
        <ele>5.6</ele>
        <time>2016-10-09T14:55:04Z</time>
      </trkpt>
      <trkpt lat="43.41238" lon="6.72876">
        <ele>5.4</ele>
        <time>2016-10-09T14:55:06Z</time>
      </trkpt>
      <trkpt lat="43.41242" lon="6.72888">
        <ele>5.1</ele>
        <time>2016-10-09T14:55:08Z</time>
      </trkpt>
      <trkpt lat="43.41244" lon="6.729">
        <ele>4.8</ele>
        <time>2016-10-09T14:55:10Z</time>
      </trkpt>
      <trkpt lat="43.41246" lon="6.72913">
        <ele>4.7</ele>
        <time>2016-10-09T14:55:12Z</time>
      </trkpt>
      <trkpt lat="43.41247" lon="6.72925">
        <ele>4.7</ele>
        <time>2016-10-09T14:55:14Z</time>
      </trkpt>
      <trkpt lat="43.41248" lon="6.72937">
        <ele>4.7</ele>
        <time>2016-10-09T14:55:16Z</time>
      </trkpt>
      <trkpt lat="43.41249" lon="6.72949">
        <ele>4.7</ele>
        <time>2016-10-09T14:55:18Z</time>
      </trkpt>
      <trkpt lat="43.41258" lon="6.72979">
        <ele>4.7</ele>
        <time>2016-10-09T14:55:23Z</time>
      </trkpt>
      <trkpt lat="43.41256" lon="6.72996">
        <ele>4.2</ele>
        <time>2016-10-09T14:55:26Z</time>
      </trkpt>
      <trkpt lat="43.41249" lon="6.73006">
        <ele>3.9</ele>
        <time>2016-10-09T14:55:28Z</time>
      </trkpt>
      <trkpt lat="43.41242" lon="6.73015">
        <ele>3.6</ele>
        <time>2016-10-09T14:55:30Z</time>
      </trkpt>
      <trkpt lat="43.41234" lon="6.73025">
        <ele>3.3</ele>
        <time>2016-10-09T14:55:32Z</time>
      </trkpt>
      <trkpt lat="43.41226" lon="6.73035">
        <ele>2.6</ele>
        <time>2016-10-09T14:55:34Z</time>
      </trkpt>
      <trkpt lat="43.41219" lon="6.73045">
        <ele>1.8</ele>
        <time>2016-10-09T14:55:36Z</time>
      </trkpt>
      <trkpt lat="43.41212" lon="6.73055">
        <ele>1.1</ele>
        <time>2016-10-09T14:55:38Z</time>
      </trkpt>
      <trkpt lat="43.41205" lon="6.73064">
        <ele>0.8</ele>
        <time>2016-10-09T14:55:40Z</time>
      </trkpt>
      <trkpt lat="43.41197" lon="6.73073">
        <ele>1</ele>
        <time>2016-10-09T14:55:42Z</time>
      </trkpt>
      <trkpt lat="43.41191" lon="6.73083">
        <ele>1.4</ele>
        <time>2016-10-09T14:55:44Z</time>
      </trkpt>
      <trkpt lat="43.41187" lon="6.73094">
        <ele>1.7</ele>
        <time>2016-10-09T14:55:46Z</time>
      </trkpt>
      <trkpt lat="43.41183" lon="6.73105">
        <ele>1.9</ele>
        <time>2016-10-09T14:55:48Z</time>
      </trkpt>
      <trkpt lat="43.41177" lon="6.73114">
        <ele>2</ele>
        <time>2016-10-09T14:55:50Z</time>
      </trkpt>
      <trkpt lat="43.41172" lon="6.73122">
        <ele>2</ele>
        <time>2016-10-09T14:55:52Z</time>
      </trkpt>
      <trkpt lat="43.41172" lon="6.7313">
        <ele>1.7</ele>
        <time>2016-10-09T14:55:54Z</time>
      </trkpt>
      <trkpt lat="43.41177" lon="6.73138">
        <ele>1.4</ele>
        <time>2016-10-09T14:55:56Z</time>
      </trkpt>
      <trkpt lat="43.41182" lon="6.73146">
        <ele>1.2</ele>
        <time>2016-10-09T14:55:58Z</time>
      </trkpt>
      <trkpt lat="43.41189" lon="6.73154">
        <ele>1.3</ele>
        <time>2016-10-09T14:56:00Z</time>
      </trkpt>
      <trkpt lat="43.41195" lon="6.73162">
        <ele>1.5</ele>
        <time>2016-10-09T14:56:02Z</time>
      </trkpt>
      <trkpt lat="43.41202" lon="6.7317">
        <ele>2</ele>
        <time>2016-10-09T14:56:04Z</time>
      </trkpt>
      <trkpt lat="43.41208" lon="6.73178">
        <ele>2.3</ele>
        <time>2016-10-09T14:56:06Z</time>
      </trkpt>
      <trkpt lat="43.41214" lon="6.73186">
        <ele>2.9</ele>
        <time>2016-10-09T14:56:08Z</time>
      </trkpt>
      <trkpt lat="43.41217" lon="6.73193">
        <ele>2.7</ele>
        <time>2016-10-09T14:56:10Z</time>
      </trkpt>
      <trkpt lat="43.41215" lon="6.73203">
        <ele>2.3</ele>
        <time>2016-10-09T14:56:12Z</time>
      </trkpt>
      <trkpt lat="43.4121" lon="6.73214">
        <ele>2</ele>
        <time>2016-10-09T14:56:14Z</time>
      </trkpt>
      <trkpt lat="43.41204" lon="6.73224">
        <ele>1.8</ele>
        <time>2016-10-09T14:56:16Z</time>
      </trkpt>
      <trkpt lat="43.41197" lon="6.73234">
        <ele>1.7</ele>
        <time>2016-10-09T14:56:18Z</time>
      </trkpt>
      <trkpt lat="43.41192" lon="6.73244">
        <ele>1.6</ele>
        <time>2016-10-09T14:56:20Z</time>
      </trkpt>
      <trkpt lat="43.41186" lon="6.73256">
        <ele>1.6</ele>
        <time>2016-10-09T14:56:22Z</time>
      </trkpt>
      <trkpt lat="43.41181" lon="6.73268">
        <ele>1.5</ele>
        <time>2016-10-09T14:56:24Z</time>
      </trkpt>
      <trkpt lat="43.41176" lon="6.7328">
        <ele>1.5</ele>
        <time>2016-10-09T14:56:26Z</time>
      </trkpt>
      <trkpt lat="43.4117" lon="6.73292">
        <ele>1.4</ele>
        <time>2016-10-09T14:56:28Z</time>
      </trkpt>
      <trkpt lat="43.41165" lon="6.73303">
        <ele>1.4</ele>
        <time>2016-10-09T14:56:30Z</time>
      </trkpt>
      <trkpt lat="43.4116" lon="6.73313">
        <ele>1.4</ele>
        <time>2016-10-09T14:56:32Z</time>
      </trkpt>
      <trkpt lat="43.41156" lon="6.73324">
        <ele>1.4</ele>
        <time>2016-10-09T14:56:34Z</time>
      </trkpt>
      <trkpt lat="43.41151" lon="6.73336">
        <ele>1.3</ele>
        <time>2016-10-09T14:56:36Z</time>
      </trkpt>
      <trkpt lat="43.41146" lon="6.73348">
        <ele>1.3</ele>
        <time>2016-10-09T14:56:38Z</time>
      </trkpt>
      <trkpt lat="43.41142" lon="6.73361">
        <ele>1.3</ele>
        <time>2016-10-09T14:56:40Z</time>
      </trkpt>
      <trkpt lat="43.41137" lon="6.73373">
        <ele>1.2</ele>
        <time>2016-10-09T14:56:42Z</time>
      </trkpt>
      <trkpt lat="43.41133" lon="6.73386">
        <ele>1.2</ele>
        <time>2016-10-09T14:56:44Z</time>
      </trkpt>
      <trkpt lat="43.41129" lon="6.73398">
        <ele>1.2</ele>
        <time>2016-10-09T14:56:46Z</time>
      </trkpt>
      <trkpt lat="43.41124" lon="6.73411">
        <ele>1.1</ele>
        <time>2016-10-09T14:56:48Z</time>
      </trkpt>
      <trkpt lat="43.4112" lon="6.73423">
        <ele>1.1</ele>
        <time>2016-10-09T14:56:50Z</time>
      </trkpt>
      <trkpt lat="43.41116" lon="6.73436">
        <ele>1.1</ele>
        <time>2016-10-09T14:56:52Z</time>
      </trkpt>
      <trkpt lat="43.41115" lon="6.73449">
        <ele>1</ele>
        <time>2016-10-09T14:56:54Z</time>
      </trkpt>
      <trkpt lat="43.41118" lon="6.73462">
        <ele>1</ele>
        <time>2016-10-09T14:56:56Z</time>
      </trkpt>
      <trkpt lat="43.41126" lon="6.73471">
        <ele>1</ele>
        <time>2016-10-09T14:56:58Z</time>
      </trkpt>
      <trkpt lat="43.41135" lon="6.73478">
        <ele>1</ele>
        <time>2016-10-09T14:57:00Z</time>
      </trkpt>
      <trkpt lat="43.41143" lon="6.73486">
        <ele>0.9</ele>
        <time>2016-10-09T14:57:02Z</time>
      </trkpt>
      <trkpt lat="43.41152" lon="6.73494">
        <ele>0.9</ele>
        <time>2016-10-09T14:57:04Z</time>
      </trkpt>
      <trkpt lat="43.41161" lon="6.73503">
        <ele>0.8</ele>
        <time>2016-10-09T14:57:06Z</time>
      </trkpt>
      <trkpt lat="43.41169" lon="6.73511">
        <ele>0.8</ele>
        <time>2016-10-09T14:57:08Z</time>
      </trkpt>
      <trkpt lat="43.41179" lon="6.73518">
        <ele>0.7</ele>
        <time>2016-10-09T14:57:10Z</time>
      </trkpt>
      <trkpt lat="43.41189" lon="6.73525">
        <ele>0.7</ele>
        <time>2016-10-09T14:57:12Z</time>
      </trkpt>
      <trkpt lat="43.412" lon="6.73529">
        <ele>0.6</ele>
        <time>2016-10-09T14:57:14Z</time>
      </trkpt>
      <trkpt lat="43.4121" lon="6.73531">
        <ele>0.6</ele>
        <time>2016-10-09T14:57:16Z</time>
      </trkpt>
      <trkpt lat="43.41219" lon="6.73528">
        <ele>0.6</ele>
        <time>2016-10-09T14:57:18Z</time>
      </trkpt>
      <trkpt lat="43.41228" lon="6.73523">
        <ele>0.5</ele>
        <time>2016-10-09T14:57:20Z</time>
      </trkpt>
      <trkpt lat="43.41235" lon="6.73513">
        <ele>0.5</ele>
        <time>2016-10-09T14:57:22Z</time>
      </trkpt>
      <trkpt lat="43.41242" lon="6.73504">
        <ele>-0.6</ele>
        <time>2016-10-09T14:57:24Z</time>
      </trkpt>
      <trkpt lat="43.41246" lon="6.73497">
        <ele>-1</ele>
        <time>2016-10-09T14:57:26Z</time>
      </trkpt>
      <trkpt lat="43.4125" lon="6.73492">
        <ele>-1.3</ele>
        <time>2016-10-09T14:57:28Z</time>
      </trkpt>
      <trkpt lat="43.41255" lon="6.73483">
        <ele>-1.3</ele>
        <time>2016-10-09T14:57:30Z</time>
      </trkpt>
      <trkpt lat="43.41267" lon="6.73478">
        <ele>-0.9</ele>
        <time>2016-10-09T14:57:32Z</time>
      </trkpt>
      <trkpt lat="43.41277" lon="6.73482">
        <ele>-0.3</ele>
        <time>2016-10-09T14:57:34Z</time>
      </trkpt>
      <trkpt lat="43.41288" lon="6.73485">
        <ele>1</ele>
        <time>2016-10-09T14:57:36Z</time>
      </trkpt>
      <trkpt lat="43.41299" lon="6.73487">
        <ele>2</ele>
        <time>2016-10-09T14:57:38Z</time>
      </trkpt>
      <trkpt lat="43.4131" lon="6.7349">
        <ele>2.8</ele>
        <time>2016-10-09T14:57:40Z</time>
      </trkpt>
      <trkpt lat="43.41321" lon="6.73492">
        <ele>2.7</ele>
        <time>2016-10-09T14:57:42Z</time>
      </trkpt>
      <trkpt lat="43.41332" lon="6.73494">
        <ele>2.5</ele>
        <time>2016-10-09T14:57:44Z</time>
      </trkpt>
      <trkpt lat="43.41343" lon="6.73497">
        <ele>1.7</ele>
        <time>2016-10-09T14:57:46Z</time>
      </trkpt>
      <trkpt lat="43.41354" lon="6.735">
        <ele>1.2</ele>
        <time>2016-10-09T14:57:48Z</time>
      </trkpt>
      <trkpt lat="43.41366" lon="6.73502">
        <ele>0.8</ele>
        <time>2016-10-09T14:57:50Z</time>
      </trkpt>
      <trkpt lat="43.41378" lon="6.73505">
        <ele>0.6</ele>
        <time>2016-10-09T14:57:52Z</time>
      </trkpt>
      <trkpt lat="43.4139" lon="6.73508">
        <ele>0.5</ele>
        <time>2016-10-09T14:57:54Z</time>
      </trkpt>
      <trkpt lat="43.41401" lon="6.73511">
        <ele>0.1</ele>
        <time>2016-10-09T14:57:56Z</time>
      </trkpt>
      <trkpt lat="43.41412" lon="6.73513">
        <ele>0.2</ele>
        <time>2016-10-09T14:57:58Z</time>
      </trkpt>
      <trkpt lat="43.41424" lon="6.73516">
        <ele>0.5</ele>
        <time>2016-10-09T14:58:00Z</time>
      </trkpt>
      <trkpt lat="43.41435" lon="6.73519">
        <ele>1</ele>
        <time>2016-10-09T14:58:02Z</time>
      </trkpt>
      <trkpt lat="43.41447" lon="6.73522">
        <ele>1.6</ele>
        <time>2016-10-09T14:58:04Z</time>
      </trkpt>
      <trkpt lat="43.41458" lon="6.73525">
        <ele>1.4</ele>
        <time>2016-10-09T14:58:06Z</time>
      </trkpt>
      <trkpt lat="43.41469" lon="6.73528">
        <ele>0.9</ele>
        <time>2016-10-09T14:58:08Z</time>
      </trkpt>
      <trkpt lat="43.41481" lon="6.73531">
        <ele>0.4</ele>
        <time>2016-10-09T14:58:10Z</time>
      </trkpt>
      <trkpt lat="43.41492" lon="6.73533">
        <ele>0.1</ele>
        <time>2016-10-09T14:58:12Z</time>
      </trkpt>
      <trkpt lat="43.41504" lon="6.73536">
        <ele>-0.6</ele>
        <time>2016-10-09T14:58:14Z</time>
      </trkpt>
      <trkpt lat="43.41515" lon="6.73538">
        <ele>-1.1</ele>
        <time>2016-10-09T14:58:16Z</time>
      </trkpt>
      <trkpt lat="43.41526" lon="6.73541">
        <ele>-2.2</ele>
        <time>2016-10-09T14:58:18Z</time>
      </trkpt>
      <trkpt lat="43.41537" lon="6.73544">
        <ele>-3.1</ele>
        <time>2016-10-09T14:58:20Z</time>
      </trkpt>
      <trkpt lat="43.41547" lon="6.73547">
        <ele>-3.4</ele>
        <time>2016-10-09T14:58:22Z</time>
      </trkpt>
      <trkpt lat="43.41558" lon="6.7355">
        <ele>-3.8</ele>
        <time>2016-10-09T14:58:24Z</time>
      </trkpt>
      <trkpt lat="43.41569" lon="6.73553">
        <ele>-4.1</ele>
        <time>2016-10-09T14:58:26Z</time>
      </trkpt>
      <trkpt lat="43.41579" lon="6.73559">
        <ele>-4.1</ele>
        <time>2016-10-09T14:58:28Z</time>
      </trkpt>
      <trkpt lat="43.41589" lon="6.73566">
        <ele>-4.2</ele>
        <time>2016-10-09T14:58:30Z</time>
      </trkpt>
      <trkpt lat="43.41595" lon="6.73578">
        <ele>-3.9</ele>
        <time>2016-10-09T14:58:32Z</time>
      </trkpt>
      <trkpt lat="43.416" lon="6.7359">
        <ele>-2.5</ele>
        <time>2016-10-09T14:58:34Z</time>
      </trkpt>
      <trkpt lat="43.41605" lon="6.73604">
        <ele>-1</ele>
        <time>2016-10-09T14:58:36Z</time>
      </trkpt>
      <trkpt lat="43.41609" lon="6.73617">
        <ele>1</ele>
        <time>2016-10-09T14:58:38Z</time>
      </trkpt>
      <trkpt lat="43.41614" lon="6.7363">
        <ele>-0.1</ele>
        <time>2016-10-09T14:58:40Z</time>
      </trkpt>
      <trkpt lat="43.4162" lon="6.73642">
        <ele>0.3</ele>
        <time>2016-10-09T14:58:42Z</time>
      </trkpt>
      <trkpt lat="43.41626" lon="6.73654">
        <ele>0.8</ele>
        <time>2016-10-09T14:58:44Z</time>
      </trkpt>
      <trkpt lat="43.41632" lon="6.73665">
        <ele>0.9</ele>
        <time>2016-10-09T14:58:46Z</time>
      </trkpt>
      <trkpt lat="43.41637" lon="6.73677">
        <ele>0.9</ele>
        <time>2016-10-09T14:58:48Z</time>
      </trkpt>
      <trkpt lat="43.41637" lon="6.7369">
        <ele>0.9</ele>
        <time>2016-10-09T14:58:50Z</time>
      </trkpt>
      <trkpt lat="43.41631" lon="6.737">
        <ele>0.5</ele>
        <time>2016-10-09T14:58:52Z</time>
      </trkpt>
      <trkpt lat="43.41621" lon="6.73708">
        <ele>1</ele>
        <time>2016-10-09T14:58:54Z</time>
      </trkpt>
      <trkpt lat="43.41612" lon="6.73716">
        <ele>-0.2</ele>
        <time>2016-10-09T14:58:56Z</time>
      </trkpt>
      <trkpt lat="43.41602" lon="6.73724">
        <ele>-0.2</ele>
        <time>2016-10-09T14:58:58Z</time>
      </trkpt>
      <trkpt lat="43.41591" lon="6.7373">
        <ele>-0.1</ele>
        <time>2016-10-09T14:59:00Z</time>
      </trkpt>
      <trkpt lat="43.4158" lon="6.73736">
        <ele>-0.2</ele>
        <time>2016-10-09T14:59:02Z</time>
      </trkpt>
      <trkpt lat="43.41571" lon="6.73745">
        <ele>-0.2</ele>
        <time>2016-10-09T14:59:04Z</time>
      </trkpt>
      <trkpt lat="43.41564" lon="6.73757">
        <ele>-0.3</ele>
        <time>2016-10-09T14:59:06Z</time>
      </trkpt>
      <trkpt lat="43.4156" lon="6.7377">
        <ele>-0.1</ele>
        <time>2016-10-09T14:59:08Z</time>
      </trkpt>
      <trkpt lat="43.41557" lon="6.73784">
        <ele>-0.1</ele>
        <time>2016-10-09T14:59:10Z</time>
      </trkpt>
      <trkpt lat="43.41554" lon="6.73799">
        <ele>-0.1</ele>
        <time>2016-10-09T14:59:12Z</time>
      </trkpt>
      <trkpt lat="43.41552" lon="6.73814">
        <ele>-0.1</ele>
        <time>2016-10-09T14:59:14Z</time>
      </trkpt>
      <trkpt lat="43.41556" lon="6.73826">
        <ele>-0.1</ele>
        <time>2016-10-09T14:59:16Z</time>
      </trkpt>
      <trkpt lat="43.41564" lon="6.73835">
        <ele>1</ele>
        <time>2016-10-09T14:59:18Z</time>
      </trkpt>
      <trkpt lat="43.41573" lon="6.73842">
        <ele>0.2</ele>
        <time>2016-10-09T14:59:20Z</time>
      </trkpt>
      <trkpt lat="43.41582" lon="6.73849">
        <ele>0.3</ele>
        <time>2016-10-09T14:59:22Z</time>
      </trkpt>
      <trkpt lat="43.41591" lon="6.73856">
        <ele>0.5</ele>
        <time>2016-10-09T14:59:24Z</time>
      </trkpt>
      <trkpt lat="43.416" lon="6.73861">
        <ele>0.7</ele>
        <time>2016-10-09T14:59:26Z</time>
      </trkpt>
      <trkpt lat="43.41605" lon="6.7386">
        <ele>0.9</ele>
        <time>2016-10-09T14:59:28Z</time>
      </trkpt>
      <trkpt lat="43.41608" lon="6.7386">
        <ele>1</ele>
        <time>2016-10-09T14:59:30Z</time>
      </trkpt>
      <trkpt lat="43.4161" lon="6.7386">
        <ele>1.1</ele>
        <time>2016-10-09T14:59:32Z</time>
      </trkpt>
      <trkpt lat="43.41613" lon="6.73861">
        <ele>1.1</ele>
        <time>2016-10-09T14:59:34Z</time>
      </trkpt>
      <trkpt lat="43.41615" lon="6.73864">
        <ele>0.8</ele>
        <time>2016-10-09T14:59:36Z</time>
      </trkpt>
      <trkpt lat="43.41616" lon="6.73866">
        <ele>0.5</ele>
        <time>2016-10-09T14:59:38Z</time>
      </trkpt>
    </trkseg>
  </trk>
</gpx>